<?xml version="1.0" encoding="UTF-8" standalone="no" ?>
<gpx xmlns="http://www.topografix.com/GPX/1/1" xmlns:xsi="http://www.w3.org/2001/XMLSchema-instance" xsi:schemaLocation="http://www.topografix.com/GPX/1/1 http://www.topografix.com/GPX/1/1/gpx.xsd" version="1.1" creator="VisuGPX - https://www.visugpx.com">
  <metadata>
    <name>Saint-Avé</name>
    <desc><![CDATA[Boucle de 30Km au départ de saint-Avé]]></desc>
  </metadata>
  <trk>
    <name><![CDATA[Saint-avé]]></name>
    <cmt><![CDATA[sebastien, dje]]></cmt>
    <trkseg>
      <trkpt lat="47.68763" lon="-2.73537">
        <ele>82</ele>
        <time>2013-05-02T10:46:14Z</time>
      </trkpt>
      <trkpt lat="47.6876" lon="-2.73493">
        <ele>78</ele>
        <time>2013-05-02T10:46:21Z</time>
      </trkpt>
      <trkpt lat="47.68756" lon="-2.73488">
        <ele>77</ele>
        <time>2013-05-02T10:46:22Z</time>
      </trkpt>
      <trkpt lat="47.68752" lon="-2.73483">
        <ele>77</ele>
        <time>2013-05-02T10:46:23Z</time>
      </trkpt>
      <trkpt lat="47.68749" lon="-2.73476">
        <ele>76</ele>
        <time>2013-05-02T10:46:24Z</time>
      </trkpt>
      <trkpt lat="47.68746" lon="-2.73469">
        <ele>75</ele>
        <time>2013-05-02T10:46:25Z</time>
      </trkpt>
      <trkpt lat="47.68743" lon="-2.73462">
        <ele>75</ele>
        <time>2013-05-02T10:46:26Z</time>
      </trkpt>
      <trkpt lat="47.68742" lon="-2.73455">
        <ele>75</ele>
        <time>2013-05-02T10:46:27Z</time>
      </trkpt>
      <trkpt lat="47.6874" lon="-2.73447">
        <ele>75</ele>
        <time>2013-05-02T10:46:28Z</time>
      </trkpt>
      <trkpt lat="47.68737" lon="-2.7344">
        <ele>75</ele>
        <time>2013-05-02T10:46:29Z</time>
      </trkpt>
      <trkpt lat="47.68735" lon="-2.73432">
        <ele>75</ele>
        <time>2013-05-02T10:46:30Z</time>
      </trkpt>
      <trkpt lat="47.68733" lon="-2.73425">
        <ele>75</ele>
        <time>2013-05-02T10:46:31Z</time>
      </trkpt>
      <trkpt lat="47.6873" lon="-2.73417">
        <ele>75</ele>
        <time>2013-05-02T10:46:32Z</time>
      </trkpt>
      <trkpt lat="47.68728" lon="-2.7341">
        <ele>75</ele>
        <time>2013-05-02T10:46:33Z</time>
      </trkpt>
      <trkpt lat="47.68725" lon="-2.73403">
        <ele>75</ele>
        <time>2013-05-02T10:46:34Z</time>
      </trkpt>
      <trkpt lat="47.68723" lon="-2.73396">
        <ele>75</ele>
        <time>2013-05-02T10:46:35Z</time>
      </trkpt>
      <trkpt lat="47.6872" lon="-2.73389">
        <ele>75</ele>
        <time>2013-05-02T10:46:36Z</time>
      </trkpt>
      <trkpt lat="47.68718" lon="-2.73381">
        <ele>75</ele>
        <time>2013-05-02T10:46:37Z</time>
      </trkpt>
      <trkpt lat="47.68715" lon="-2.73374">
        <ele>75</ele>
        <time>2013-05-02T10:46:38Z</time>
      </trkpt>
      <trkpt lat="47.68713" lon="-2.73367">
        <ele>75</ele>
        <time>2013-05-02T10:46:39Z</time>
      </trkpt>
      <trkpt lat="47.6871" lon="-2.7336">
        <ele>75</ele>
        <time>2013-05-02T10:46:40Z</time>
      </trkpt>
      <trkpt lat="47.68707" lon="-2.73353">
        <ele>74</ele>
        <time>2013-05-02T10:46:41Z</time>
      </trkpt>
      <trkpt lat="47.68705" lon="-2.73346">
        <ele>74</ele>
        <time>2013-05-02T10:46:42Z</time>
      </trkpt>
      <trkpt lat="47.68702" lon="-2.73339">
        <ele>73</ele>
        <time>2013-05-02T10:46:43Z</time>
      </trkpt>
      <trkpt lat="47.687" lon="-2.73333">
        <ele>73</ele>
        <time>2013-05-02T10:46:44Z</time>
      </trkpt>
      <trkpt lat="47.68697" lon="-2.73325">
        <ele>72</ele>
        <time>2013-05-02T10:46:45Z</time>
      </trkpt>
      <trkpt lat="47.68694" lon="-2.73318">
        <ele>71</ele>
        <time>2013-05-02T10:46:46Z</time>
      </trkpt>
      <trkpt lat="47.68691" lon="-2.73311">
        <ele>71</ele>
        <time>2013-05-02T10:46:47Z</time>
      </trkpt>
      <trkpt lat="47.68689" lon="-2.73304">
        <ele>70</ele>
        <time>2013-05-02T10:46:48Z</time>
      </trkpt>
      <trkpt lat="47.68681" lon="-2.73307">
        <ele>69</ele>
        <time>2013-05-02T10:46:49Z</time>
      </trkpt>
      <trkpt lat="47.68678" lon="-2.73302">
        <ele>68</ele>
        <time>2013-05-02T10:46:50Z</time>
      </trkpt>
      <trkpt lat="47.68675" lon="-2.73296">
        <ele>66</ele>
        <time>2013-05-02T10:46:51Z</time>
      </trkpt>
      <trkpt lat="47.68673" lon="-2.7329">
        <ele>64</ele>
        <time>2013-05-02T10:46:52Z</time>
      </trkpt>
      <trkpt lat="47.68671" lon="-2.73284">
        <ele>61</ele>
        <time>2013-05-02T10:46:53Z</time>
      </trkpt>
      <trkpt lat="47.68668" lon="-2.73278">
        <ele>59</ele>
        <time>2013-05-02T10:46:54Z</time>
      </trkpt>
      <trkpt lat="47.68666" lon="-2.73273">
        <ele>57</ele>
        <time>2013-05-02T10:46:55Z</time>
      </trkpt>
      <trkpt lat="47.68664" lon="-2.73269">
        <ele>55</ele>
        <time>2013-05-02T10:46:56Z</time>
      </trkpt>
      <trkpt lat="47.68661" lon="-2.73266">
        <ele>53</ele>
        <time>2013-05-02T10:46:57Z</time>
      </trkpt>
      <trkpt lat="47.68657" lon="-2.73264">
        <ele>52</ele>
        <time>2013-05-02T10:46:58Z</time>
      </trkpt>
      <trkpt lat="47.68653" lon="-2.73264">
        <ele>51</ele>
        <time>2013-05-02T10:46:59Z</time>
      </trkpt>
      <trkpt lat="47.68649" lon="-2.73265">
        <ele>50</ele>
        <time>2013-05-02T10:47:00Z</time>
      </trkpt>
      <trkpt lat="47.68645" lon="-2.73268">
        <ele>49</ele>
        <time>2013-05-02T10:47:01Z</time>
      </trkpt>
      <trkpt lat="47.68642" lon="-2.73272">
        <ele>48</ele>
        <time>2013-05-02T10:47:02Z</time>
      </trkpt>
      <trkpt lat="47.68639" lon="-2.73276">
        <ele>47</ele>
        <time>2013-05-02T10:47:03Z</time>
      </trkpt>
      <trkpt lat="47.68636" lon="-2.7328">
        <ele>46</ele>
        <time>2013-05-02T10:47:04Z</time>
      </trkpt>
      <trkpt lat="47.68634" lon="-2.73285">
        <ele>45</ele>
        <time>2013-05-02T10:47:05Z</time>
      </trkpt>
      <trkpt lat="47.68632" lon="-2.73287">
        <ele>44</ele>
        <time>2013-05-02T10:47:06Z</time>
      </trkpt>
      <trkpt lat="47.68629" lon="-2.73288">
        <ele>43</ele>
        <time>2013-05-02T10:47:07Z</time>
      </trkpt>
      <trkpt lat="47.68626" lon="-2.73286">
        <ele>42</ele>
        <time>2013-05-02T10:47:08Z</time>
      </trkpt>
      <trkpt lat="47.68623" lon="-2.73284">
        <ele>42</ele>
        <time>2013-05-02T10:47:09Z</time>
      </trkpt>
      <trkpt lat="47.6862" lon="-2.7328">
        <ele>42</ele>
        <time>2013-05-02T10:47:10Z</time>
      </trkpt>
      <trkpt lat="47.68618" lon="-2.73276">
        <ele>42</ele>
        <time>2013-05-02T10:47:11Z</time>
      </trkpt>
      <trkpt lat="47.68617" lon="-2.73271">
        <ele>42</ele>
        <time>2013-05-02T10:47:12Z</time>
      </trkpt>
      <trkpt lat="47.68615" lon="-2.73267">
        <ele>42</ele>
        <time>2013-05-02T10:47:13Z</time>
      </trkpt>
      <trkpt lat="47.68614" lon="-2.73262">
        <ele>42</ele>
        <time>2013-05-02T10:47:14Z</time>
      </trkpt>
      <trkpt lat="47.68613" lon="-2.73258">
        <ele>42</ele>
        <time>2013-05-02T10:47:15Z</time>
      </trkpt>
      <trkpt lat="47.6861" lon="-2.73253">
        <ele>42</ele>
        <time>2013-05-02T10:47:16Z</time>
      </trkpt>
      <trkpt lat="47.68608" lon="-2.73247">
        <ele>42</ele>
        <time>2013-05-02T10:47:17Z</time>
      </trkpt>
      <trkpt lat="47.68605" lon="-2.73241">
        <ele>42</ele>
        <time>2013-05-02T10:47:18Z</time>
      </trkpt>
      <trkpt lat="47.68602" lon="-2.73235">
        <ele>42</ele>
        <time>2013-05-02T10:47:19Z</time>
      </trkpt>
      <trkpt lat="47.68599" lon="-2.73228">
        <ele>42</ele>
        <time>2013-05-02T10:47:20Z</time>
      </trkpt>
      <trkpt lat="47.68597" lon="-2.73222">
        <ele>42</ele>
        <time>2013-05-02T10:47:21Z</time>
      </trkpt>
      <trkpt lat="47.68594" lon="-2.73216">
        <ele>42</ele>
        <time>2013-05-02T10:47:22Z</time>
      </trkpt>
      <trkpt lat="47.68591" lon="-2.7321">
        <ele>42</ele>
        <time>2013-05-02T10:47:23Z</time>
      </trkpt>
      <trkpt lat="47.68589" lon="-2.73204">
        <ele>42</ele>
        <time>2013-05-02T10:47:24Z</time>
      </trkpt>
      <trkpt lat="47.68586" lon="-2.73199">
        <ele>42</ele>
        <time>2013-05-02T10:47:25Z</time>
      </trkpt>
      <trkpt lat="47.68583" lon="-2.73194">
        <ele>42</ele>
        <time>2013-05-02T10:47:26Z</time>
      </trkpt>
      <trkpt lat="47.6858" lon="-2.73189">
        <ele>42</ele>
        <time>2013-05-02T10:47:27Z</time>
      </trkpt>
      <trkpt lat="47.68576" lon="-2.73184">
        <ele>42</ele>
        <time>2013-05-02T10:47:28Z</time>
      </trkpt>
      <trkpt lat="47.68572" lon="-2.73179">
        <ele>42</ele>
        <time>2013-05-02T10:47:29Z</time>
      </trkpt>
      <trkpt lat="47.68568" lon="-2.73175">
        <ele>42</ele>
        <time>2013-05-02T10:47:30Z</time>
      </trkpt>
      <trkpt lat="47.68563" lon="-2.7317">
        <ele>42</ele>
        <time>2013-05-02T10:47:31Z</time>
      </trkpt>
      <trkpt lat="47.68559" lon="-2.73166">
        <ele>42</ele>
        <time>2013-05-02T10:47:32Z</time>
      </trkpt>
      <trkpt lat="47.68555" lon="-2.73161">
        <ele>42</ele>
        <time>2013-05-02T10:47:33Z</time>
      </trkpt>
      <trkpt lat="47.68552" lon="-2.73157">
        <ele>42</ele>
        <time>2013-05-02T10:47:34Z</time>
      </trkpt>
      <trkpt lat="47.68547" lon="-2.73153">
        <ele>42</ele>
        <time>2013-05-02T10:47:35Z</time>
      </trkpt>
      <trkpt lat="47.68544" lon="-2.73149">
        <ele>42</ele>
        <time>2013-05-02T10:47:36Z</time>
      </trkpt>
      <trkpt lat="47.68539" lon="-2.73146">
        <ele>42</ele>
        <time>2013-05-02T10:47:37Z</time>
      </trkpt>
      <trkpt lat="47.68536" lon="-2.73142">
        <ele>42</ele>
        <time>2013-05-02T10:47:38Z</time>
      </trkpt>
      <trkpt lat="47.68531" lon="-2.73138">
        <ele>42</ele>
        <time>2013-05-02T10:47:39Z</time>
      </trkpt>
      <trkpt lat="47.68527" lon="-2.73134">
        <ele>42</ele>
        <time>2013-05-02T10:47:40Z</time>
      </trkpt>
      <trkpt lat="47.68523" lon="-2.7313">
        <ele>42</ele>
        <time>2013-05-02T10:47:41Z</time>
      </trkpt>
      <trkpt lat="47.68519" lon="-2.73126">
        <ele>42</ele>
        <time>2013-05-02T10:47:42Z</time>
      </trkpt>
      <trkpt lat="47.68515" lon="-2.73122">
        <ele>42</ele>
        <time>2013-05-02T10:47:43Z</time>
      </trkpt>
      <trkpt lat="47.6851" lon="-2.73118">
        <ele>42</ele>
        <time>2013-05-02T10:47:44Z</time>
      </trkpt>
      <trkpt lat="47.68506" lon="-2.73114">
        <ele>42</ele>
        <time>2013-05-02T10:47:45Z</time>
      </trkpt>
      <trkpt lat="47.68502" lon="-2.7311">
        <ele>42</ele>
        <time>2013-05-02T10:47:46Z</time>
      </trkpt>
      <trkpt lat="47.68498" lon="-2.73106">
        <ele>42</ele>
        <time>2013-05-02T10:47:47Z</time>
      </trkpt>
      <trkpt lat="47.68494" lon="-2.73101">
        <ele>42</ele>
        <time>2013-05-02T10:47:48Z</time>
      </trkpt>
      <trkpt lat="47.6849" lon="-2.73097">
        <ele>42</ele>
        <time>2013-05-02T10:47:49Z</time>
      </trkpt>
      <trkpt lat="47.68486" lon="-2.73093">
        <ele>42</ele>
        <time>2013-05-02T10:47:50Z</time>
      </trkpt>
      <trkpt lat="47.68482" lon="-2.73089">
        <ele>42</ele>
        <time>2013-05-02T10:47:51Z</time>
      </trkpt>
      <trkpt lat="47.68478" lon="-2.73085">
        <ele>42</ele>
        <time>2013-05-02T10:47:52Z</time>
      </trkpt>
      <trkpt lat="47.68474" lon="-2.73081">
        <ele>42</ele>
        <time>2013-05-02T10:47:53Z</time>
      </trkpt>
      <trkpt lat="47.6847" lon="-2.73077">
        <ele>42</ele>
        <time>2013-05-02T10:47:54Z</time>
      </trkpt>
      <trkpt lat="47.68466" lon="-2.73074">
        <ele>42</ele>
        <time>2013-05-02T10:47:55Z</time>
      </trkpt>
      <trkpt lat="47.68462" lon="-2.7307">
        <ele>42</ele>
        <time>2013-05-02T10:47:56Z</time>
      </trkpt>
      <trkpt lat="47.68458" lon="-2.73066">
        <ele>42</ele>
        <time>2013-05-02T10:47:57Z</time>
      </trkpt>
      <trkpt lat="47.68454" lon="-2.73062">
        <ele>42</ele>
        <time>2013-05-02T10:47:58Z</time>
      </trkpt>
      <trkpt lat="47.6845" lon="-2.73058">
        <ele>42</ele>
        <time>2013-05-02T10:47:59Z</time>
      </trkpt>
      <trkpt lat="47.68446" lon="-2.73054">
        <ele>42</ele>
        <time>2013-05-02T10:48:00Z</time>
      </trkpt>
      <trkpt lat="47.68442" lon="-2.7305">
        <ele>42</ele>
        <time>2013-05-02T10:48:01Z</time>
      </trkpt>
      <trkpt lat="47.68438" lon="-2.73046">
        <ele>42</ele>
        <time>2013-05-02T10:48:02Z</time>
      </trkpt>
      <trkpt lat="47.68435" lon="-2.73042">
        <ele>42</ele>
        <time>2013-05-02T10:48:03Z</time>
      </trkpt>
      <trkpt lat="47.68432" lon="-2.73039">
        <ele>42</ele>
        <time>2013-05-02T10:48:04Z</time>
      </trkpt>
      <trkpt lat="47.6843" lon="-2.73036">
        <ele>42</ele>
        <time>2013-05-02T10:48:05Z</time>
      </trkpt>
      <trkpt lat="47.68428" lon="-2.73033">
        <ele>42</ele>
        <time>2013-05-02T10:48:06Z</time>
      </trkpt>
      <trkpt lat="47.68427" lon="-2.7303">
        <ele>42</ele>
        <time>2013-05-02T10:48:07Z</time>
      </trkpt>
      <trkpt lat="47.68425" lon="-2.73028">
        <ele>42</ele>
        <time>2013-05-02T10:48:08Z</time>
      </trkpt>
      <trkpt lat="47.68423" lon="-2.73026">
        <ele>42</ele>
        <time>2013-05-02T10:48:09Z</time>
      </trkpt>
      <trkpt lat="47.6842" lon="-2.73022">
        <ele>42</ele>
        <time>2013-05-02T10:48:10Z</time>
      </trkpt>
      <trkpt lat="47.68417" lon="-2.73018">
        <ele>42</ele>
        <time>2013-05-02T10:48:11Z</time>
      </trkpt>
      <trkpt lat="47.68415" lon="-2.73012">
        <ele>42</ele>
        <time>2013-05-02T10:48:12Z</time>
      </trkpt>
      <trkpt lat="47.68414" lon="-2.73007">
        <ele>42</ele>
        <time>2013-05-02T10:48:13Z</time>
      </trkpt>
      <trkpt lat="47.68413" lon="-2.73">
        <ele>42</ele>
        <time>2013-05-02T10:48:14Z</time>
      </trkpt>
      <trkpt lat="47.68413" lon="-2.72993">
        <ele>42</ele>
        <time>2013-05-02T10:48:15Z</time>
      </trkpt>
      <trkpt lat="47.68414" lon="-2.72988">
        <ele>42</ele>
        <time>2013-05-02T10:48:16Z</time>
      </trkpt>
      <trkpt lat="47.68414" lon="-2.72983">
        <ele>42</ele>
        <time>2013-05-02T10:48:17Z</time>
      </trkpt>
      <trkpt lat="47.68415" lon="-2.72978">
        <ele>42</ele>
        <time>2013-05-02T10:48:18Z</time>
      </trkpt>
      <trkpt lat="47.68415" lon="-2.72974">
        <ele>42</ele>
        <time>2013-05-02T10:48:19Z</time>
      </trkpt>
      <trkpt lat="47.68415" lon="-2.7297">
        <ele>42</ele>
        <time>2013-05-02T10:48:20Z</time>
      </trkpt>
      <trkpt lat="47.68416" lon="-2.72968">
        <ele>42</ele>
        <time>2013-05-02T10:48:21Z</time>
      </trkpt>
      <trkpt lat="47.68418" lon="-2.72968">
        <ele>42</ele>
        <time>2013-05-02T10:48:22Z</time>
      </trkpt>
      <trkpt lat="47.68421" lon="-2.72967">
        <ele>42</ele>
        <time>2013-05-02T10:48:23Z</time>
      </trkpt>
      <trkpt lat="47.68424" lon="-2.72966">
        <ele>42</ele>
        <time>2013-05-02T10:48:24Z</time>
      </trkpt>
      <trkpt lat="47.68428" lon="-2.72963">
        <ele>42</ele>
        <time>2013-05-02T10:48:25Z</time>
      </trkpt>
      <trkpt lat="47.68431" lon="-2.7296">
        <ele>42</ele>
        <time>2013-05-02T10:48:26Z</time>
      </trkpt>
      <trkpt lat="47.68434" lon="-2.72956">
        <ele>42</ele>
        <time>2013-05-02T10:48:27Z</time>
      </trkpt>
      <trkpt lat="47.68437" lon="-2.72952">
        <ele>42</ele>
        <time>2013-05-02T10:48:28Z</time>
      </trkpt>
      <trkpt lat="47.68438" lon="-2.72949">
        <ele>42</ele>
        <time>2013-05-02T10:48:29Z</time>
      </trkpt>
      <trkpt lat="47.68437" lon="-2.72947">
        <ele>42</ele>
        <time>2013-05-02T10:48:30Z</time>
      </trkpt>
      <trkpt lat="47.68437" lon="-2.72945">
        <ele>42</ele>
        <time>2013-05-02T10:48:31Z</time>
      </trkpt>
      <trkpt lat="47.68436" lon="-2.72942">
        <ele>42</ele>
        <time>2013-05-02T10:48:32Z</time>
      </trkpt>
      <trkpt lat="47.68436" lon="-2.7294">
        <ele>42</ele>
        <time>2013-05-02T10:48:33Z</time>
      </trkpt>
      <trkpt lat="47.68436" lon="-2.72936">
        <ele>42</ele>
        <time>2013-05-02T10:48:34Z</time>
      </trkpt>
      <trkpt lat="47.68436" lon="-2.72932">
        <ele>42</ele>
        <time>2013-05-02T10:48:35Z</time>
      </trkpt>
      <trkpt lat="47.68436" lon="-2.72927">
        <ele>42</ele>
        <time>2013-05-02T10:48:36Z</time>
      </trkpt>
      <trkpt lat="47.68436" lon="-2.72922">
        <ele>42</ele>
        <time>2013-05-02T10:48:37Z</time>
      </trkpt>
      <trkpt lat="47.68436" lon="-2.72917">
        <ele>42</ele>
        <time>2013-05-02T10:48:38Z</time>
      </trkpt>
      <trkpt lat="47.68436" lon="-2.72911">
        <ele>42</ele>
        <time>2013-05-02T10:48:39Z</time>
      </trkpt>
      <trkpt lat="47.68436" lon="-2.72905">
        <ele>42</ele>
        <time>2013-05-02T10:48:40Z</time>
      </trkpt>
      <trkpt lat="47.68436" lon="-2.729">
        <ele>42</ele>
        <time>2013-05-02T10:48:41Z</time>
      </trkpt>
      <trkpt lat="47.68436" lon="-2.72895">
        <ele>42</ele>
        <time>2013-05-02T10:48:42Z</time>
      </trkpt>
      <trkpt lat="47.68437" lon="-2.7289">
        <ele>42</ele>
        <time>2013-05-02T10:48:43Z</time>
      </trkpt>
      <trkpt lat="47.68437" lon="-2.72885">
        <ele>42</ele>
        <time>2013-05-02T10:48:44Z</time>
      </trkpt>
      <trkpt lat="47.68438" lon="-2.7288">
        <ele>42</ele>
        <time>2013-05-02T10:48:45Z</time>
      </trkpt>
      <trkpt lat="47.68438" lon="-2.72876">
        <ele>42</ele>
        <time>2013-05-02T10:48:46Z</time>
      </trkpt>
      <trkpt lat="47.68439" lon="-2.72871">
        <ele>42</ele>
        <time>2013-05-02T10:48:47Z</time>
      </trkpt>
      <trkpt lat="47.68439" lon="-2.72866">
        <ele>42</ele>
        <time>2013-05-02T10:48:48Z</time>
      </trkpt>
      <trkpt lat="47.68439" lon="-2.7286">
        <ele>42</ele>
        <time>2013-05-02T10:48:49Z</time>
      </trkpt>
      <trkpt lat="47.68439" lon="-2.72854">
        <ele>42</ele>
        <time>2013-05-02T10:48:50Z</time>
      </trkpt>
      <trkpt lat="47.6844" lon="-2.7285">
        <ele>42</ele>
        <time>2013-05-02T10:48:51Z</time>
      </trkpt>
      <trkpt lat="47.68443" lon="-2.72847">
        <ele>42</ele>
        <time>2013-05-02T10:48:52Z</time>
      </trkpt>
      <trkpt lat="47.68446" lon="-2.72843">
        <ele>42</ele>
        <time>2013-05-02T10:48:53Z</time>
      </trkpt>
      <trkpt lat="47.68448" lon="-2.72839">
        <ele>42</ele>
        <time>2013-05-02T10:48:54Z</time>
      </trkpt>
      <trkpt lat="47.68449" lon="-2.72833">
        <ele>42</ele>
        <time>2013-05-02T10:48:55Z</time>
      </trkpt>
      <trkpt lat="47.6845" lon="-2.72828">
        <ele>42</ele>
        <time>2013-05-02T10:48:56Z</time>
      </trkpt>
      <trkpt lat="47.68452" lon="-2.72822">
        <ele>42</ele>
        <time>2013-05-02T10:48:57Z</time>
      </trkpt>
      <trkpt lat="47.68454" lon="-2.72818">
        <ele>42</ele>
        <time>2013-05-02T10:48:58Z</time>
      </trkpt>
      <trkpt lat="47.68455" lon="-2.72816">
        <ele>42</ele>
        <time>2013-05-02T10:48:59Z</time>
      </trkpt>
      <trkpt lat="47.68457" lon="-2.72814">
        <ele>41</ele>
        <time>2013-05-02T10:49:00Z</time>
      </trkpt>
      <trkpt lat="47.68457" lon="-2.72812">
        <ele>40</ele>
        <time>2013-05-02T10:49:01Z</time>
      </trkpt>
      <trkpt lat="47.68459" lon="-2.72811">
        <ele>39</ele>
        <time>2013-05-02T10:49:02Z</time>
      </trkpt>
      <trkpt lat="47.6846" lon="-2.72807">
        <ele>39</ele>
        <time>2013-05-02T10:49:04Z</time>
      </trkpt>
      <trkpt lat="47.6846" lon="-2.72803">
        <ele>39</ele>
        <time>2013-05-02T10:49:05Z</time>
      </trkpt>
      <trkpt lat="47.68459" lon="-2.72798">
        <ele>39</ele>
        <time>2013-05-02T10:49:06Z</time>
      </trkpt>
      <trkpt lat="47.68458" lon="-2.72791">
        <ele>39</ele>
        <time>2013-05-02T10:49:07Z</time>
      </trkpt>
      <trkpt lat="47.68459" lon="-2.72785">
        <ele>39</ele>
        <time>2013-05-02T10:49:08Z</time>
      </trkpt>
      <trkpt lat="47.68457" lon="-2.72779">
        <ele>39</ele>
        <time>2013-05-02T10:49:09Z</time>
      </trkpt>
      <trkpt lat="47.68456" lon="-2.72775">
        <ele>39</ele>
        <time>2013-05-02T10:49:10Z</time>
      </trkpt>
      <trkpt lat="47.68454" lon="-2.72768">
        <ele>39</ele>
        <time>2013-05-02T10:49:11Z</time>
      </trkpt>
      <trkpt lat="47.68451" lon="-2.72764">
        <ele>39</ele>
        <time>2013-05-02T10:49:12Z</time>
      </trkpt>
      <trkpt lat="47.68449" lon="-2.72759">
        <ele>39</ele>
        <time>2013-05-02T10:49:13Z</time>
      </trkpt>
      <trkpt lat="47.68445" lon="-2.72754">
        <ele>39</ele>
        <time>2013-05-02T10:49:14Z</time>
      </trkpt>
      <trkpt lat="47.68443" lon="-2.7275">
        <ele>39</ele>
        <time>2013-05-02T10:49:15Z</time>
      </trkpt>
      <trkpt lat="47.6844" lon="-2.72746">
        <ele>39</ele>
        <time>2013-05-02T10:49:16Z</time>
      </trkpt>
      <trkpt lat="47.68438" lon="-2.72741">
        <ele>39</ele>
        <time>2013-05-02T10:49:17Z</time>
      </trkpt>
      <trkpt lat="47.68436" lon="-2.72736">
        <ele>39</ele>
        <time>2013-05-02T10:49:18Z</time>
      </trkpt>
      <trkpt lat="47.68435" lon="-2.72731">
        <ele>39</ele>
        <time>2013-05-02T10:49:19Z</time>
      </trkpt>
      <trkpt lat="47.68435" lon="-2.72726">
        <ele>40</ele>
        <time>2013-05-02T10:49:20Z</time>
      </trkpt>
      <trkpt lat="47.68434" lon="-2.72721">
        <ele>40</ele>
        <time>2013-05-02T10:49:21Z</time>
      </trkpt>
      <trkpt lat="47.68434" lon="-2.72716">
        <ele>40</ele>
        <time>2013-05-02T10:49:22Z</time>
      </trkpt>
      <trkpt lat="47.68435" lon="-2.72712">
        <ele>40</ele>
        <time>2013-05-02T10:49:23Z</time>
      </trkpt>
      <trkpt lat="47.68435" lon="-2.72707">
        <ele>40</ele>
        <time>2013-05-02T10:49:24Z</time>
      </trkpt>
      <trkpt lat="47.68436" lon="-2.72702">
        <ele>40</ele>
        <time>2013-05-02T10:49:25Z</time>
      </trkpt>
      <trkpt lat="47.68438" lon="-2.72697">
        <ele>40</ele>
        <time>2013-05-02T10:49:26Z</time>
      </trkpt>
      <trkpt lat="47.68439" lon="-2.72691">
        <ele>40</ele>
        <time>2013-05-02T10:49:27Z</time>
      </trkpt>
      <trkpt lat="47.6844" lon="-2.72685">
        <ele>40</ele>
        <time>2013-05-02T10:49:28Z</time>
      </trkpt>
      <trkpt lat="47.68442" lon="-2.72679">
        <ele>40</ele>
        <time>2013-05-02T10:49:29Z</time>
      </trkpt>
      <trkpt lat="47.68444" lon="-2.72673">
        <ele>40</ele>
        <time>2013-05-02T10:49:30Z</time>
      </trkpt>
      <trkpt lat="47.68446" lon="-2.72667">
        <ele>40</ele>
        <time>2013-05-02T10:49:31Z</time>
      </trkpt>
      <trkpt lat="47.68446" lon="-2.72657">
        <ele>40</ele>
        <time>2013-05-02T10:49:32Z</time>
      </trkpt>
      <trkpt lat="47.68446" lon="-2.72649">
        <ele>40</ele>
        <time>2013-05-02T10:49:33Z</time>
      </trkpt>
      <trkpt lat="47.68442" lon="-2.72639">
        <ele>40</ele>
        <time>2013-05-02T10:49:34Z</time>
      </trkpt>
      <trkpt lat="47.68439" lon="-2.72629">
        <ele>40</ele>
        <time>2013-05-02T10:49:35Z</time>
      </trkpt>
      <trkpt lat="47.68439" lon="-2.7262">
        <ele>40</ele>
        <time>2013-05-02T10:49:36Z</time>
      </trkpt>
      <trkpt lat="47.68437" lon="-2.72612">
        <ele>40</ele>
        <time>2013-05-02T10:49:37Z</time>
      </trkpt>
      <trkpt lat="47.68435" lon="-2.72605">
        <ele>40</ele>
        <time>2013-05-02T10:49:38Z</time>
      </trkpt>
      <trkpt lat="47.68432" lon="-2.72598">
        <ele>40</ele>
        <time>2013-05-02T10:49:39Z</time>
      </trkpt>
      <trkpt lat="47.68429" lon="-2.72592">
        <ele>40</ele>
        <time>2013-05-02T10:49:40Z</time>
      </trkpt>
      <trkpt lat="47.68425" lon="-2.72585">
        <ele>40</ele>
        <time>2013-05-02T10:49:41Z</time>
      </trkpt>
      <trkpt lat="47.68422" lon="-2.72578">
        <ele>40</ele>
        <time>2013-05-02T10:49:42Z</time>
      </trkpt>
      <trkpt lat="47.6842" lon="-2.72571">
        <ele>40</ele>
        <time>2013-05-02T10:49:43Z</time>
      </trkpt>
      <trkpt lat="47.6842" lon="-2.72565">
        <ele>39</ele>
        <time>2013-05-02T10:49:44Z</time>
      </trkpt>
      <trkpt lat="47.68418" lon="-2.7256">
        <ele>39</ele>
        <time>2013-05-02T10:49:45Z</time>
      </trkpt>
      <trkpt lat="47.68416" lon="-2.72554">
        <ele>38</ele>
        <time>2013-05-02T10:49:46Z</time>
      </trkpt>
      <trkpt lat="47.68413" lon="-2.72548">
        <ele>38</ele>
        <time>2013-05-02T10:49:47Z</time>
      </trkpt>
      <trkpt lat="47.6841" lon="-2.72543">
        <ele>38</ele>
        <time>2013-05-02T10:49:48Z</time>
      </trkpt>
      <trkpt lat="47.68407" lon="-2.72539">
        <ele>37</ele>
        <time>2013-05-02T10:49:49Z</time>
      </trkpt>
      <trkpt lat="47.68404" lon="-2.72536">
        <ele>37</ele>
        <time>2013-05-02T10:49:50Z</time>
      </trkpt>
      <trkpt lat="47.684" lon="-2.72534">
        <ele>36</ele>
        <time>2013-05-02T10:49:51Z</time>
      </trkpt>
      <trkpt lat="47.68395" lon="-2.72531">
        <ele>36</ele>
        <time>2013-05-02T10:49:52Z</time>
      </trkpt>
      <trkpt lat="47.68391" lon="-2.72529">
        <ele>36</ele>
        <time>2013-05-02T10:49:53Z</time>
      </trkpt>
      <trkpt lat="47.68388" lon="-2.7253">
        <ele>36</ele>
        <time>2013-05-02T10:49:54Z</time>
      </trkpt>
      <trkpt lat="47.68385" lon="-2.72532">
        <ele>36</ele>
        <time>2013-05-02T10:49:55Z</time>
      </trkpt>
      <trkpt lat="47.68383" lon="-2.72534">
        <ele>36</ele>
        <time>2013-05-02T10:49:56Z</time>
      </trkpt>
      <trkpt lat="47.68381" lon="-2.72538">
        <ele>36</ele>
        <time>2013-05-02T10:49:57Z</time>
      </trkpt>
      <trkpt lat="47.6838" lon="-2.7254">
        <ele>35</ele>
        <time>2013-05-02T10:49:58Z</time>
      </trkpt>
      <trkpt lat="47.68378" lon="-2.72541">
        <ele>34</ele>
        <time>2013-05-02T10:49:59Z</time>
      </trkpt>
      <trkpt lat="47.68377" lon="-2.72542">
        <ele>33</ele>
        <time>2013-05-02T10:50:00Z</time>
      </trkpt>
      <trkpt lat="47.68374" lon="-2.72543">
        <ele>32</ele>
        <time>2013-05-02T10:50:01Z</time>
      </trkpt>
      <trkpt lat="47.6837" lon="-2.72545">
        <ele>31</ele>
        <time>2013-05-02T10:50:02Z</time>
      </trkpt>
      <trkpt lat="47.68367" lon="-2.72547">
        <ele>30</ele>
        <time>2013-05-02T10:50:03Z</time>
      </trkpt>
      <trkpt lat="47.68362" lon="-2.7255">
        <ele>29</ele>
        <time>2013-05-02T10:50:04Z</time>
      </trkpt>
      <trkpt lat="47.68358" lon="-2.72553">
        <ele>28</ele>
        <time>2013-05-02T10:50:05Z</time>
      </trkpt>
      <trkpt lat="47.68354" lon="-2.72555">
        <ele>28</ele>
        <time>2013-05-02T10:50:06Z</time>
      </trkpt>
      <trkpt lat="47.68348" lon="-2.72558">
        <ele>27</ele>
        <time>2013-05-02T10:50:07Z</time>
      </trkpt>
      <trkpt lat="47.68343" lon="-2.72559">
        <ele>27</ele>
        <time>2013-05-02T10:50:08Z</time>
      </trkpt>
      <trkpt lat="47.68338" lon="-2.72561">
        <ele>26</ele>
        <time>2013-05-02T10:50:09Z</time>
      </trkpt>
      <trkpt lat="47.68332" lon="-2.72561">
        <ele>26</ele>
        <time>2013-05-02T10:50:10Z</time>
      </trkpt>
      <trkpt lat="47.68327" lon="-2.7256">
        <ele>26</ele>
        <time>2013-05-02T10:50:11Z</time>
      </trkpt>
      <trkpt lat="47.68322" lon="-2.7256">
        <ele>26</ele>
        <time>2013-05-02T10:50:12Z</time>
      </trkpt>
      <trkpt lat="47.68316" lon="-2.72558">
        <ele>25</ele>
        <time>2013-05-02T10:50:13Z</time>
      </trkpt>
      <trkpt lat="47.68311" lon="-2.72556">
        <ele>24</ele>
        <time>2013-05-02T10:50:14Z</time>
      </trkpt>
      <trkpt lat="47.68306" lon="-2.72553">
        <ele>24</ele>
        <time>2013-05-02T10:50:15Z</time>
      </trkpt>
      <trkpt lat="47.683" lon="-2.72551">
        <ele>24</ele>
        <time>2013-05-02T10:50:16Z</time>
      </trkpt>
      <trkpt lat="47.68295" lon="-2.72549">
        <ele>23</ele>
        <time>2013-05-02T10:50:17Z</time>
      </trkpt>
      <trkpt lat="47.6829" lon="-2.72547">
        <ele>23</ele>
        <time>2013-05-02T10:50:18Z</time>
      </trkpt>
      <trkpt lat="47.68284" lon="-2.72545">
        <ele>23</ele>
        <time>2013-05-02T10:50:19Z</time>
      </trkpt>
      <trkpt lat="47.6828" lon="-2.72543">
        <ele>23</ele>
        <time>2013-05-02T10:50:20Z</time>
      </trkpt>
      <trkpt lat="47.68276" lon="-2.7254">
        <ele>23</ele>
        <time>2013-05-02T10:50:21Z</time>
      </trkpt>
      <trkpt lat="47.68272" lon="-2.72538">
        <ele>23</ele>
        <time>2013-05-02T10:50:22Z</time>
      </trkpt>
      <trkpt lat="47.68268" lon="-2.72536">
        <ele>23</ele>
        <time>2013-05-02T10:50:23Z</time>
      </trkpt>
      <trkpt lat="47.68264" lon="-2.72534">
        <ele>23</ele>
        <time>2013-05-02T10:50:24Z</time>
      </trkpt>
      <trkpt lat="47.68261" lon="-2.72531">
        <ele>23</ele>
        <time>2013-05-02T10:50:25Z</time>
      </trkpt>
      <trkpt lat="47.68258" lon="-2.72528">
        <ele>23</ele>
        <time>2013-05-02T10:50:26Z</time>
      </trkpt>
      <trkpt lat="47.68255" lon="-2.72524">
        <ele>23</ele>
        <time>2013-05-02T10:50:27Z</time>
      </trkpt>
      <trkpt lat="47.68251" lon="-2.7252">
        <ele>23</ele>
        <time>2013-05-02T10:50:28Z</time>
      </trkpt>
      <trkpt lat="47.68248" lon="-2.72516">
        <ele>23</ele>
        <time>2013-05-02T10:50:29Z</time>
      </trkpt>
      <trkpt lat="47.68244" lon="-2.72514">
        <ele>23</ele>
        <time>2013-05-02T10:50:30Z</time>
      </trkpt>
      <trkpt lat="47.6824" lon="-2.72511">
        <ele>23</ele>
        <time>2013-05-02T10:50:31Z</time>
      </trkpt>
      <trkpt lat="47.68236" lon="-2.72509">
        <ele>23</ele>
        <time>2013-05-02T10:50:32Z</time>
      </trkpt>
      <trkpt lat="47.68232" lon="-2.72506">
        <ele>23</ele>
        <time>2013-05-02T10:50:33Z</time>
      </trkpt>
      <trkpt lat="47.68228" lon="-2.72504">
        <ele>23</ele>
        <time>2013-05-02T10:50:34Z</time>
      </trkpt>
      <trkpt lat="47.68225" lon="-2.72502">
        <ele>23</ele>
        <time>2013-05-02T10:50:35Z</time>
      </trkpt>
      <trkpt lat="47.68222" lon="-2.725">
        <ele>23</ele>
        <time>2013-05-02T10:50:36Z</time>
      </trkpt>
      <trkpt lat="47.68218" lon="-2.72497">
        <ele>23</ele>
        <time>2013-05-02T10:50:37Z</time>
      </trkpt>
      <trkpt lat="47.68214" lon="-2.72493">
        <ele>24</ele>
        <time>2013-05-02T10:50:38Z</time>
      </trkpt>
      <trkpt lat="47.68211" lon="-2.7249">
        <ele>24</ele>
        <time>2013-05-02T10:50:39Z</time>
      </trkpt>
      <trkpt lat="47.68208" lon="-2.72486">
        <ele>24</ele>
        <time>2013-05-02T10:50:40Z</time>
      </trkpt>
      <trkpt lat="47.68205" lon="-2.72482">
        <ele>25</ele>
        <time>2013-05-02T10:50:41Z</time>
      </trkpt>
      <trkpt lat="47.68202" lon="-2.72478">
        <ele>26</ele>
        <time>2013-05-02T10:50:42Z</time>
      </trkpt>
      <trkpt lat="47.68199" lon="-2.72475">
        <ele>27</ele>
        <time>2013-05-02T10:50:43Z</time>
      </trkpt>
      <trkpt lat="47.68196" lon="-2.72471">
        <ele>27</ele>
        <time>2013-05-02T10:50:44Z</time>
      </trkpt>
      <trkpt lat="47.68193" lon="-2.72467">
        <ele>28</ele>
        <time>2013-05-02T10:50:45Z</time>
      </trkpt>
      <trkpt lat="47.68189" lon="-2.72464">
        <ele>29</ele>
        <time>2013-05-02T10:50:46Z</time>
      </trkpt>
      <trkpt lat="47.68185" lon="-2.7246">
        <ele>30</ele>
        <time>2013-05-02T10:50:47Z</time>
      </trkpt>
      <trkpt lat="47.6818" lon="-2.72456">
        <ele>31</ele>
        <time>2013-05-02T10:50:48Z</time>
      </trkpt>
      <trkpt lat="47.68177" lon="-2.72454">
        <ele>32</ele>
        <time>2013-05-02T10:50:49Z</time>
      </trkpt>
      <trkpt lat="47.68172" lon="-2.7245">
        <ele>33</ele>
        <time>2013-05-02T10:50:50Z</time>
      </trkpt>
      <trkpt lat="47.68169" lon="-2.72447">
        <ele>33</ele>
        <time>2013-05-02T10:50:51Z</time>
      </trkpt>
      <trkpt lat="47.68165" lon="-2.72444">
        <ele>33</ele>
        <time>2013-05-02T10:50:52Z</time>
      </trkpt>
      <trkpt lat="47.68161" lon="-2.7244">
        <ele>33</ele>
        <time>2013-05-02T10:50:53Z</time>
      </trkpt>
      <trkpt lat="47.68157" lon="-2.72435">
        <ele>33</ele>
        <time>2013-05-02T10:50:54Z</time>
      </trkpt>
      <trkpt lat="47.68153" lon="-2.72432">
        <ele>33</ele>
        <time>2013-05-02T10:50:55Z</time>
      </trkpt>
      <trkpt lat="47.6815" lon="-2.72429">
        <ele>33</ele>
        <time>2013-05-02T10:50:56Z</time>
      </trkpt>
      <trkpt lat="47.68146" lon="-2.72425">
        <ele>33</ele>
        <time>2013-05-02T10:50:57Z</time>
      </trkpt>
      <trkpt lat="47.68142" lon="-2.72421">
        <ele>33</ele>
        <time>2013-05-02T10:50:58Z</time>
      </trkpt>
      <trkpt lat="47.68139" lon="-2.72416">
        <ele>33</ele>
        <time>2013-05-02T10:50:59Z</time>
      </trkpt>
      <trkpt lat="47.68136" lon="-2.72411">
        <ele>33</ele>
        <time>2013-05-02T10:51:00Z</time>
      </trkpt>
      <trkpt lat="47.68132" lon="-2.72407">
        <ele>33</ele>
        <time>2013-05-02T10:51:01Z</time>
      </trkpt>
      <trkpt lat="47.68128" lon="-2.72402">
        <ele>33</ele>
        <time>2013-05-02T10:51:02Z</time>
      </trkpt>
      <trkpt lat="47.68123" lon="-2.72398">
        <ele>33</ele>
        <time>2013-05-02T10:51:03Z</time>
      </trkpt>
      <trkpt lat="47.68119" lon="-2.72394">
        <ele>33</ele>
        <time>2013-05-02T10:51:04Z</time>
      </trkpt>
      <trkpt lat="47.68116" lon="-2.7239">
        <ele>33</ele>
        <time>2013-05-02T10:51:05Z</time>
      </trkpt>
      <trkpt lat="47.68112" lon="-2.72387">
        <ele>33</ele>
        <time>2013-05-02T10:51:06Z</time>
      </trkpt>
      <trkpt lat="47.68108" lon="-2.72384">
        <ele>33</ele>
        <time>2013-05-02T10:51:07Z</time>
      </trkpt>
      <trkpt lat="47.68104" lon="-2.7238">
        <ele>33</ele>
        <time>2013-05-02T10:51:08Z</time>
      </trkpt>
      <trkpt lat="47.681" lon="-2.72377">
        <ele>33</ele>
        <time>2013-05-02T10:51:09Z</time>
      </trkpt>
      <trkpt lat="47.68097" lon="-2.72375">
        <ele>33</ele>
        <time>2013-05-02T10:51:10Z</time>
      </trkpt>
      <trkpt lat="47.68093" lon="-2.72372">
        <ele>33</ele>
        <time>2013-05-02T10:51:11Z</time>
      </trkpt>
      <trkpt lat="47.68089" lon="-2.7237">
        <ele>33</ele>
        <time>2013-05-02T10:51:12Z</time>
      </trkpt>
      <trkpt lat="47.68085" lon="-2.72368">
        <ele>33</ele>
        <time>2013-05-02T10:51:13Z</time>
      </trkpt>
      <trkpt lat="47.68081" lon="-2.72366">
        <ele>33</ele>
        <time>2013-05-02T10:51:14Z</time>
      </trkpt>
      <trkpt lat="47.68076" lon="-2.72364">
        <ele>33</ele>
        <time>2013-05-02T10:51:15Z</time>
      </trkpt>
      <trkpt lat="47.68072" lon="-2.72362">
        <ele>33</ele>
        <time>2013-05-02T10:51:16Z</time>
      </trkpt>
      <trkpt lat="47.68067" lon="-2.72361">
        <ele>33</ele>
        <time>2013-05-02T10:51:17Z</time>
      </trkpt>
      <trkpt lat="47.68062" lon="-2.72358">
        <ele>33</ele>
        <time>2013-05-02T10:51:18Z</time>
      </trkpt>
      <trkpt lat="47.68057" lon="-2.72356">
        <ele>33</ele>
        <time>2013-05-02T10:51:19Z</time>
      </trkpt>
      <trkpt lat="47.68052" lon="-2.72354">
        <ele>33</ele>
        <time>2013-05-02T10:51:20Z</time>
      </trkpt>
      <trkpt lat="47.68047" lon="-2.72352">
        <ele>33</ele>
        <time>2013-05-02T10:51:21Z</time>
      </trkpt>
      <trkpt lat="47.68044" lon="-2.72351">
        <ele>33</ele>
        <time>2013-05-02T10:51:22Z</time>
      </trkpt>
      <trkpt lat="47.68039" lon="-2.72349">
        <ele>33</ele>
        <time>2013-05-02T10:51:23Z</time>
      </trkpt>
      <trkpt lat="47.68035" lon="-2.72347">
        <ele>33</ele>
        <time>2013-05-02T10:51:24Z</time>
      </trkpt>
      <trkpt lat="47.68031" lon="-2.72345">
        <ele>33</ele>
        <time>2013-05-02T10:51:25Z</time>
      </trkpt>
      <trkpt lat="47.68026" lon="-2.72343">
        <ele>33</ele>
        <time>2013-05-02T10:51:26Z</time>
      </trkpt>
      <trkpt lat="47.68021" lon="-2.7234">
        <ele>33</ele>
        <time>2013-05-02T10:51:27Z</time>
      </trkpt>
      <trkpt lat="47.68016" lon="-2.72338">
        <ele>32</ele>
        <time>2013-05-02T10:51:28Z</time>
      </trkpt>
      <trkpt lat="47.68012" lon="-2.72336">
        <ele>32</ele>
        <time>2013-05-02T10:51:29Z</time>
      </trkpt>
      <trkpt lat="47.68007" lon="-2.72335">
        <ele>31</ele>
        <time>2013-05-02T10:51:30Z</time>
      </trkpt>
      <trkpt lat="47.68003" lon="-2.72334">
        <ele>31</ele>
        <time>2013-05-02T10:51:31Z</time>
      </trkpt>
      <trkpt lat="47.67999" lon="-2.72332">
        <ele>30</ele>
        <time>2013-05-02T10:51:32Z</time>
      </trkpt>
      <trkpt lat="47.67994" lon="-2.7233">
        <ele>29</ele>
        <time>2013-05-02T10:51:33Z</time>
      </trkpt>
      <trkpt lat="47.67989" lon="-2.72329">
        <ele>29</ele>
        <time>2013-05-02T10:51:34Z</time>
      </trkpt>
      <trkpt lat="47.67984" lon="-2.72328">
        <ele>28</ele>
        <time>2013-05-02T10:51:35Z</time>
      </trkpt>
      <trkpt lat="47.6798" lon="-2.72328">
        <ele>27</ele>
        <time>2013-05-02T10:51:36Z</time>
      </trkpt>
      <trkpt lat="47.67976" lon="-2.72328">
        <ele>27</ele>
        <time>2013-05-02T10:51:37Z</time>
      </trkpt>
      <trkpt lat="47.67971" lon="-2.72328">
        <ele>26</ele>
        <time>2013-05-02T10:51:38Z</time>
      </trkpt>
      <trkpt lat="47.67966" lon="-2.72328">
        <ele>26</ele>
        <time>2013-05-02T10:51:39Z</time>
      </trkpt>
      <trkpt lat="47.67961" lon="-2.72328">
        <ele>25</ele>
        <time>2013-05-02T10:51:40Z</time>
      </trkpt>
      <trkpt lat="47.67956" lon="-2.72329">
        <ele>25</ele>
        <time>2013-05-02T10:51:41Z</time>
      </trkpt>
      <trkpt lat="47.67952" lon="-2.72328">
        <ele>24</ele>
        <time>2013-05-02T10:51:42Z</time>
      </trkpt>
      <trkpt lat="47.67947" lon="-2.72329">
        <ele>24</ele>
        <time>2013-05-02T10:51:43Z</time>
      </trkpt>
      <trkpt lat="47.67942" lon="-2.72329">
        <ele>24</ele>
        <time>2013-05-02T10:51:44Z</time>
      </trkpt>
      <trkpt lat="47.67937" lon="-2.7233">
        <ele>23</ele>
        <time>2013-05-02T10:51:45Z</time>
      </trkpt>
      <trkpt lat="47.67932" lon="-2.72333">
        <ele>23</ele>
        <time>2013-05-02T10:51:46Z</time>
      </trkpt>
      <trkpt lat="47.67928" lon="-2.72334">
        <ele>23</ele>
        <time>2013-05-02T10:51:47Z</time>
      </trkpt>
      <trkpt lat="47.67924" lon="-2.72335">
        <ele>23</ele>
        <time>2013-05-02T10:51:48Z</time>
      </trkpt>
      <trkpt lat="47.6792" lon="-2.72337">
        <ele>23</ele>
        <time>2013-05-02T10:51:49Z</time>
      </trkpt>
      <trkpt lat="47.67918" lon="-2.72335">
        <ele>23</ele>
        <time>2013-05-02T10:51:51Z</time>
      </trkpt>
      <trkpt lat="47.67921" lon="-2.72332">
        <ele>23</ele>
        <time>2013-05-02T10:51:53Z</time>
      </trkpt>
      <trkpt lat="47.67923" lon="-2.72332">
        <ele>23</ele>
        <time>2013-05-02T10:51:54Z</time>
      </trkpt>
      <trkpt lat="47.67925" lon="-2.72332">
        <ele>23</ele>
        <time>2013-05-02T10:51:55Z</time>
      </trkpt>
      <trkpt lat="47.67928" lon="-2.72332">
        <ele>24</ele>
        <time>2013-05-02T10:51:56Z</time>
      </trkpt>
      <trkpt lat="47.67931" lon="-2.72331">
        <ele>24</ele>
        <time>2013-05-02T10:51:57Z</time>
      </trkpt>
      <trkpt lat="47.67934" lon="-2.72331">
        <ele>24</ele>
        <time>2013-05-02T10:51:58Z</time>
      </trkpt>
      <trkpt lat="47.67938" lon="-2.72331">
        <ele>24</ele>
        <time>2013-05-02T10:51:59Z</time>
      </trkpt>
      <trkpt lat="47.67942" lon="-2.72331">
        <ele>24</ele>
        <time>2013-05-02T10:52:00Z</time>
      </trkpt>
      <trkpt lat="47.67947" lon="-2.72331">
        <ele>24</ele>
        <time>2013-05-02T10:52:01Z</time>
      </trkpt>
      <trkpt lat="47.67951" lon="-2.7233">
        <ele>25</ele>
        <time>2013-05-02T10:52:02Z</time>
      </trkpt>
      <trkpt lat="47.67954" lon="-2.7233">
        <ele>25</ele>
        <time>2013-05-02T10:52:03Z</time>
      </trkpt>
      <trkpt lat="47.67957" lon="-2.72329">
        <ele>26</ele>
        <time>2013-05-02T10:52:04Z</time>
      </trkpt>
      <trkpt lat="47.6796" lon="-2.72329">
        <ele>26</ele>
        <time>2013-05-02T10:52:05Z</time>
      </trkpt>
      <trkpt lat="47.67962" lon="-2.7233">
        <ele>26</ele>
        <time>2013-05-02T10:52:06Z</time>
      </trkpt>
      <trkpt lat="47.67964" lon="-2.72331">
        <ele>26</ele>
        <time>2013-05-02T10:52:07Z</time>
      </trkpt>
      <trkpt lat="47.67966" lon="-2.72332">
        <ele>26</ele>
        <time>2013-05-02T10:52:08Z</time>
      </trkpt>
      <trkpt lat="47.67966" lon="-2.72329">
        <ele>26</ele>
        <time>2013-05-02T10:52:10Z</time>
      </trkpt>
      <trkpt lat="47.67965" lon="-2.72328">
        <ele>26</ele>
        <time>2013-05-02T10:52:12Z</time>
      </trkpt>
      <trkpt lat="47.67963" lon="-2.72326">
        <ele>26</ele>
        <time>2013-05-02T10:52:14Z</time>
      </trkpt>
      <trkpt lat="47.6796" lon="-2.72325">
        <ele>26</ele>
        <time>2013-05-02T10:52:16Z</time>
      </trkpt>
      <trkpt lat="47.67959" lon="-2.72324">
        <ele>26</ele>
        <time>2013-05-02T10:52:17Z</time>
      </trkpt>
      <trkpt lat="47.67958" lon="-2.72322">
        <ele>26</ele>
        <time>2013-05-02T10:52:18Z</time>
      </trkpt>
      <trkpt lat="47.67957" lon="-2.72319">
        <ele>26</ele>
        <time>2013-05-02T10:52:19Z</time>
      </trkpt>
      <trkpt lat="47.67954" lon="-2.72315">
        <ele>26</ele>
        <time>2013-05-02T10:52:20Z</time>
      </trkpt>
      <trkpt lat="47.67952" lon="-2.7231">
        <ele>26</ele>
        <time>2013-05-02T10:52:21Z</time>
      </trkpt>
      <trkpt lat="47.6795" lon="-2.72306">
        <ele>26</ele>
        <time>2013-05-02T10:52:22Z</time>
      </trkpt>
      <trkpt lat="47.67948" lon="-2.72302">
        <ele>26</ele>
        <time>2013-05-02T10:52:23Z</time>
      </trkpt>
      <trkpt lat="47.67946" lon="-2.72298">
        <ele>26</ele>
        <time>2013-05-02T10:52:24Z</time>
      </trkpt>
      <trkpt lat="47.67945" lon="-2.72294">
        <ele>26</ele>
        <time>2013-05-02T10:52:25Z</time>
      </trkpt>
      <trkpt lat="47.67944" lon="-2.72289">
        <ele>26</ele>
        <time>2013-05-02T10:52:26Z</time>
      </trkpt>
      <trkpt lat="47.67943" lon="-2.72286">
        <ele>26</ele>
        <time>2013-05-02T10:52:27Z</time>
      </trkpt>
      <trkpt lat="47.67942" lon="-2.72283">
        <ele>26</ele>
        <time>2013-05-02T10:52:28Z</time>
      </trkpt>
      <trkpt lat="47.67941" lon="-2.72279">
        <ele>26</ele>
        <time>2013-05-02T10:52:29Z</time>
      </trkpt>
      <trkpt lat="47.67942" lon="-2.72277">
        <ele>26</ele>
        <time>2013-05-02T10:52:30Z</time>
      </trkpt>
      <trkpt lat="47.67944" lon="-2.72274">
        <ele>26</ele>
        <time>2013-05-02T10:52:31Z</time>
      </trkpt>
      <trkpt lat="47.67946" lon="-2.72271">
        <ele>25</ele>
        <time>2013-05-02T10:52:32Z</time>
      </trkpt>
      <trkpt lat="47.67946" lon="-2.72267">
        <ele>24</ele>
        <time>2013-05-02T10:52:33Z</time>
      </trkpt>
      <trkpt lat="47.67946" lon="-2.72261">
        <ele>23</ele>
        <time>2013-05-02T10:52:34Z</time>
      </trkpt>
      <trkpt lat="47.67947" lon="-2.72257">
        <ele>22</ele>
        <time>2013-05-02T10:52:35Z</time>
      </trkpt>
      <trkpt lat="47.6795" lon="-2.72254">
        <ele>21</ele>
        <time>2013-05-02T10:52:36Z</time>
      </trkpt>
      <trkpt lat="47.67955" lon="-2.72251">
        <ele>21</ele>
        <time>2013-05-02T10:52:37Z</time>
      </trkpt>
      <trkpt lat="47.6796" lon="-2.72247">
        <ele>20</ele>
        <time>2013-05-02T10:52:38Z</time>
      </trkpt>
      <trkpt lat="47.67964" lon="-2.72242">
        <ele>20</ele>
        <time>2013-05-02T10:52:39Z</time>
      </trkpt>
      <trkpt lat="47.67969" lon="-2.72237">
        <ele>19</ele>
        <time>2013-05-02T10:52:40Z</time>
      </trkpt>
      <trkpt lat="47.67974" lon="-2.72233">
        <ele>19</ele>
        <time>2013-05-02T10:52:41Z</time>
      </trkpt>
      <trkpt lat="47.67979" lon="-2.72229">
        <ele>19</ele>
        <time>2013-05-02T10:52:42Z</time>
      </trkpt>
      <trkpt lat="47.67983" lon="-2.72226">
        <ele>19</ele>
        <time>2013-05-02T10:52:43Z</time>
      </trkpt>
      <trkpt lat="47.67987" lon="-2.72223">
        <ele>19</ele>
        <time>2013-05-02T10:52:44Z</time>
      </trkpt>
      <trkpt lat="47.67991" lon="-2.72221">
        <ele>19</ele>
        <time>2013-05-02T10:52:45Z</time>
      </trkpt>
      <trkpt lat="47.67995" lon="-2.7222">
        <ele>19</ele>
        <time>2013-05-02T10:52:46Z</time>
      </trkpt>
      <trkpt lat="47.67999" lon="-2.72219">
        <ele>19</ele>
        <time>2013-05-02T10:52:47Z</time>
      </trkpt>
      <trkpt lat="47.68002" lon="-2.7222">
        <ele>19</ele>
        <time>2013-05-02T10:52:48Z</time>
      </trkpt>
      <trkpt lat="47.68006" lon="-2.72221">
        <ele>19</ele>
        <time>2013-05-02T10:52:49Z</time>
      </trkpt>
      <trkpt lat="47.68009" lon="-2.7222">
        <ele>19</ele>
        <time>2013-05-02T10:52:50Z</time>
      </trkpt>
      <trkpt lat="47.68012" lon="-2.72217">
        <ele>19</ele>
        <time>2013-05-02T10:52:51Z</time>
      </trkpt>
      <trkpt lat="47.68015" lon="-2.72213">
        <ele>19</ele>
        <time>2013-05-02T10:52:52Z</time>
      </trkpt>
      <trkpt lat="47.68018" lon="-2.72208">
        <ele>19</ele>
        <time>2013-05-02T10:52:53Z</time>
      </trkpt>
      <trkpt lat="47.68021" lon="-2.72203">
        <ele>19</ele>
        <time>2013-05-02T10:52:54Z</time>
      </trkpt>
      <trkpt lat="47.68023" lon="-2.72199">
        <ele>19</ele>
        <time>2013-05-02T10:52:55Z</time>
      </trkpt>
      <trkpt lat="47.68024" lon="-2.72194">
        <ele>19</ele>
        <time>2013-05-02T10:52:56Z</time>
      </trkpt>
      <trkpt lat="47.68026" lon="-2.72189">
        <ele>19</ele>
        <time>2013-05-02T10:52:57Z</time>
      </trkpt>
      <trkpt lat="47.68027" lon="-2.72183">
        <ele>19</ele>
        <time>2013-05-02T10:52:58Z</time>
      </trkpt>
      <trkpt lat="47.68028" lon="-2.72178">
        <ele>19</ele>
        <time>2013-05-02T10:52:59Z</time>
      </trkpt>
      <trkpt lat="47.68028" lon="-2.72172">
        <ele>19</ele>
        <time>2013-05-02T10:53:00Z</time>
      </trkpt>
      <trkpt lat="47.68028" lon="-2.72165">
        <ele>19</ele>
        <time>2013-05-02T10:53:01Z</time>
      </trkpt>
      <trkpt lat="47.68028" lon="-2.7216">
        <ele>19</ele>
        <time>2013-05-02T10:53:02Z</time>
      </trkpt>
      <trkpt lat="47.68029" lon="-2.72155">
        <ele>19</ele>
        <time>2013-05-02T10:53:03Z</time>
      </trkpt>
      <trkpt lat="47.68029" lon="-2.7215">
        <ele>19</ele>
        <time>2013-05-02T10:53:04Z</time>
      </trkpt>
      <trkpt lat="47.68031" lon="-2.72146">
        <ele>19</ele>
        <time>2013-05-02T10:53:05Z</time>
      </trkpt>
      <trkpt lat="47.68034" lon="-2.72144">
        <ele>19</ele>
        <time>2013-05-02T10:53:06Z</time>
      </trkpt>
      <trkpt lat="47.68036" lon="-2.72145">
        <ele>19</ele>
        <time>2013-05-02T10:53:07Z</time>
      </trkpt>
      <trkpt lat="47.68038" lon="-2.72147">
        <ele>19</ele>
        <time>2013-05-02T10:53:08Z</time>
      </trkpt>
      <trkpt lat="47.68041" lon="-2.72151">
        <ele>19</ele>
        <time>2013-05-02T10:53:09Z</time>
      </trkpt>
      <trkpt lat="47.68044" lon="-2.72156">
        <ele>19</ele>
        <time>2013-05-02T10:53:10Z</time>
      </trkpt>
      <trkpt lat="47.68047" lon="-2.72161">
        <ele>19</ele>
        <time>2013-05-02T10:53:11Z</time>
      </trkpt>
      <trkpt lat="47.68049" lon="-2.72165">
        <ele>19</ele>
        <time>2013-05-02T10:53:12Z</time>
      </trkpt>
      <trkpt lat="47.68052" lon="-2.72169">
        <ele>19</ele>
        <time>2013-05-02T10:53:13Z</time>
      </trkpt>
      <trkpt lat="47.68055" lon="-2.72173">
        <ele>19</ele>
        <time>2013-05-02T10:53:14Z</time>
      </trkpt>
      <trkpt lat="47.68058" lon="-2.72176">
        <ele>19</ele>
        <time>2013-05-02T10:53:15Z</time>
      </trkpt>
      <trkpt lat="47.6806" lon="-2.72179">
        <ele>19</ele>
        <time>2013-05-02T10:53:16Z</time>
      </trkpt>
      <trkpt lat="47.68063" lon="-2.72182">
        <ele>19</ele>
        <time>2013-05-02T10:53:17Z</time>
      </trkpt>
      <trkpt lat="47.68067" lon="-2.72184">
        <ele>19</ele>
        <time>2013-05-02T10:53:18Z</time>
      </trkpt>
      <trkpt lat="47.68071" lon="-2.72186">
        <ele>19</ele>
        <time>2013-05-02T10:53:19Z</time>
      </trkpt>
      <trkpt lat="47.68075" lon="-2.72188">
        <ele>19</ele>
        <time>2013-05-02T10:53:20Z</time>
      </trkpt>
      <trkpt lat="47.68079" lon="-2.72191">
        <ele>19</ele>
        <time>2013-05-02T10:53:21Z</time>
      </trkpt>
      <trkpt lat="47.68083" lon="-2.72193">
        <ele>19</ele>
        <time>2013-05-02T10:53:22Z</time>
      </trkpt>
      <trkpt lat="47.68087" lon="-2.72195">
        <ele>19</ele>
        <time>2013-05-02T10:53:23Z</time>
      </trkpt>
      <trkpt lat="47.68092" lon="-2.72197">
        <ele>19</ele>
        <time>2013-05-02T10:53:24Z</time>
      </trkpt>
      <trkpt lat="47.68097" lon="-2.722">
        <ele>19</ele>
        <time>2013-05-02T10:53:25Z</time>
      </trkpt>
      <trkpt lat="47.68102" lon="-2.72201">
        <ele>19</ele>
        <time>2013-05-02T10:53:26Z</time>
      </trkpt>
      <trkpt lat="47.68107" lon="-2.72204">
        <ele>19</ele>
        <time>2013-05-02T10:53:27Z</time>
      </trkpt>
      <trkpt lat="47.68112" lon="-2.72206">
        <ele>19</ele>
        <time>2013-05-02T10:53:28Z</time>
      </trkpt>
      <trkpt lat="47.68116" lon="-2.72208">
        <ele>19</ele>
        <time>2013-05-02T10:53:29Z</time>
      </trkpt>
      <trkpt lat="47.68121" lon="-2.72211">
        <ele>19</ele>
        <time>2013-05-02T10:53:30Z</time>
      </trkpt>
      <trkpt lat="47.68126" lon="-2.72213">
        <ele>19</ele>
        <time>2013-05-02T10:53:31Z</time>
      </trkpt>
      <trkpt lat="47.6813" lon="-2.72216">
        <ele>19</ele>
        <time>2013-05-02T10:53:32Z</time>
      </trkpt>
      <trkpt lat="47.68135" lon="-2.72217">
        <ele>19</ele>
        <time>2013-05-02T10:53:33Z</time>
      </trkpt>
      <trkpt lat="47.68139" lon="-2.72219">
        <ele>19</ele>
        <time>2013-05-02T10:53:34Z</time>
      </trkpt>
      <trkpt lat="47.68144" lon="-2.72221">
        <ele>19</ele>
        <time>2013-05-02T10:53:35Z</time>
      </trkpt>
      <trkpt lat="47.68149" lon="-2.72223">
        <ele>19</ele>
        <time>2013-05-02T10:53:36Z</time>
      </trkpt>
      <trkpt lat="47.68153" lon="-2.72225">
        <ele>19</ele>
        <time>2013-05-02T10:53:37Z</time>
      </trkpt>
      <trkpt lat="47.68157" lon="-2.72227">
        <ele>19</ele>
        <time>2013-05-02T10:53:38Z</time>
      </trkpt>
      <trkpt lat="47.68162" lon="-2.72228">
        <ele>19</ele>
        <time>2013-05-02T10:53:39Z</time>
      </trkpt>
      <trkpt lat="47.68166" lon="-2.7223">
        <ele>19</ele>
        <time>2013-05-02T10:53:40Z</time>
      </trkpt>
      <trkpt lat="47.68171" lon="-2.72231">
        <ele>19</ele>
        <time>2013-05-02T10:53:41Z</time>
      </trkpt>
      <trkpt lat="47.68175" lon="-2.72233">
        <ele>19</ele>
        <time>2013-05-02T10:53:42Z</time>
      </trkpt>
      <trkpt lat="47.68179" lon="-2.72234">
        <ele>19</ele>
        <time>2013-05-02T10:53:43Z</time>
      </trkpt>
      <trkpt lat="47.68183" lon="-2.72235">
        <ele>19</ele>
        <time>2013-05-02T10:53:44Z</time>
      </trkpt>
      <trkpt lat="47.68187" lon="-2.72237">
        <ele>19</ele>
        <time>2013-05-02T10:53:45Z</time>
      </trkpt>
      <trkpt lat="47.68192" lon="-2.72238">
        <ele>19</ele>
        <time>2013-05-02T10:53:46Z</time>
      </trkpt>
      <trkpt lat="47.68196" lon="-2.72239">
        <ele>19</ele>
        <time>2013-05-02T10:53:47Z</time>
      </trkpt>
      <trkpt lat="47.68201" lon="-2.72239">
        <ele>19</ele>
        <time>2013-05-02T10:53:48Z</time>
      </trkpt>
      <trkpt lat="47.68206" lon="-2.7224">
        <ele>19</ele>
        <time>2013-05-02T10:53:49Z</time>
      </trkpt>
      <trkpt lat="47.68211" lon="-2.7224">
        <ele>19</ele>
        <time>2013-05-02T10:53:50Z</time>
      </trkpt>
      <trkpt lat="47.68215" lon="-2.72241">
        <ele>19</ele>
        <time>2013-05-02T10:53:51Z</time>
      </trkpt>
      <trkpt lat="47.6822" lon="-2.72241">
        <ele>19</ele>
        <time>2013-05-02T10:53:52Z</time>
      </trkpt>
      <trkpt lat="47.68225" lon="-2.7224">
        <ele>19</ele>
        <time>2013-05-02T10:53:53Z</time>
      </trkpt>
      <trkpt lat="47.68229" lon="-2.7224">
        <ele>19</ele>
        <time>2013-05-02T10:53:54Z</time>
      </trkpt>
      <trkpt lat="47.68234" lon="-2.72239">
        <ele>19</ele>
        <time>2013-05-02T10:53:55Z</time>
      </trkpt>
      <trkpt lat="47.68238" lon="-2.72237">
        <ele>19</ele>
        <time>2013-05-02T10:53:56Z</time>
      </trkpt>
      <trkpt lat="47.68243" lon="-2.72236">
        <ele>19</ele>
        <time>2013-05-02T10:53:57Z</time>
      </trkpt>
      <trkpt lat="47.68247" lon="-2.72235">
        <ele>19</ele>
        <time>2013-05-02T10:53:58Z</time>
      </trkpt>
      <trkpt lat="47.68251" lon="-2.72234">
        <ele>19</ele>
        <time>2013-05-02T10:53:59Z</time>
      </trkpt>
      <trkpt lat="47.68256" lon="-2.72232">
        <ele>19</ele>
        <time>2013-05-02T10:54:00Z</time>
      </trkpt>
      <trkpt lat="47.6826" lon="-2.7223">
        <ele>19</ele>
        <time>2013-05-02T10:54:01Z</time>
      </trkpt>
      <trkpt lat="47.68265" lon="-2.72227">
        <ele>19</ele>
        <time>2013-05-02T10:54:02Z</time>
      </trkpt>
      <trkpt lat="47.68269" lon="-2.72223">
        <ele>19</ele>
        <time>2013-05-02T10:54:03Z</time>
      </trkpt>
      <trkpt lat="47.68272" lon="-2.72219">
        <ele>19</ele>
        <time>2013-05-02T10:54:04Z</time>
      </trkpt>
      <trkpt lat="47.68274" lon="-2.72214">
        <ele>19</ele>
        <time>2013-05-02T10:54:05Z</time>
      </trkpt>
      <trkpt lat="47.68276" lon="-2.72208">
        <ele>19</ele>
        <time>2013-05-02T10:54:06Z</time>
      </trkpt>
      <trkpt lat="47.68278" lon="-2.72204">
        <ele>19</ele>
        <time>2013-05-02T10:54:07Z</time>
      </trkpt>
      <trkpt lat="47.68281" lon="-2.722">
        <ele>19</ele>
        <time>2013-05-02T10:54:08Z</time>
      </trkpt>
      <trkpt lat="47.68285" lon="-2.72196">
        <ele>19</ele>
        <time>2013-05-02T10:54:09Z</time>
      </trkpt>
      <trkpt lat="47.68288" lon="-2.72193">
        <ele>19</ele>
        <time>2013-05-02T10:54:10Z</time>
      </trkpt>
      <trkpt lat="47.6829" lon="-2.7219">
        <ele>19</ele>
        <time>2013-05-02T10:54:11Z</time>
      </trkpt>
      <trkpt lat="47.68292" lon="-2.72186">
        <ele>19</ele>
        <time>2013-05-02T10:54:12Z</time>
      </trkpt>
      <trkpt lat="47.68295" lon="-2.72184">
        <ele>19</ele>
        <time>2013-05-02T10:54:13Z</time>
      </trkpt>
      <trkpt lat="47.68297" lon="-2.72182">
        <ele>19</ele>
        <time>2013-05-02T10:54:14Z</time>
      </trkpt>
      <trkpt lat="47.683" lon="-2.7218">
        <ele>19</ele>
        <time>2013-05-02T10:54:15Z</time>
      </trkpt>
      <trkpt lat="47.68304" lon="-2.72178">
        <ele>19</ele>
        <time>2013-05-02T10:54:16Z</time>
      </trkpt>
      <trkpt lat="47.68309" lon="-2.72174">
        <ele>19</ele>
        <time>2013-05-02T10:54:17Z</time>
      </trkpt>
      <trkpt lat="47.68313" lon="-2.72169">
        <ele>19</ele>
        <time>2013-05-02T10:54:18Z</time>
      </trkpt>
      <trkpt lat="47.68317" lon="-2.72164">
        <ele>19</ele>
        <time>2013-05-02T10:54:19Z</time>
      </trkpt>
      <trkpt lat="47.68321" lon="-2.72158">
        <ele>19</ele>
        <time>2013-05-02T10:54:20Z</time>
      </trkpt>
      <trkpt lat="47.68324" lon="-2.72152">
        <ele>19</ele>
        <time>2013-05-02T10:54:21Z</time>
      </trkpt>
      <trkpt lat="47.68327" lon="-2.72146">
        <ele>19</ele>
        <time>2013-05-02T10:54:22Z</time>
      </trkpt>
      <trkpt lat="47.68329" lon="-2.72139">
        <ele>19</ele>
        <time>2013-05-02T10:54:23Z</time>
      </trkpt>
      <trkpt lat="47.6833" lon="-2.72132">
        <ele>19</ele>
        <time>2013-05-02T10:54:24Z</time>
      </trkpt>
      <trkpt lat="47.68332" lon="-2.72126">
        <ele>19</ele>
        <time>2013-05-02T10:54:25Z</time>
      </trkpt>
      <trkpt lat="47.68334" lon="-2.72121">
        <ele>19</ele>
        <time>2013-05-02T10:54:26Z</time>
      </trkpt>
      <trkpt lat="47.68336" lon="-2.72115">
        <ele>20</ele>
        <time>2013-05-02T10:54:27Z</time>
      </trkpt>
      <trkpt lat="47.68339" lon="-2.72109">
        <ele>21</ele>
        <time>2013-05-02T10:54:28Z</time>
      </trkpt>
      <trkpt lat="47.68341" lon="-2.72103">
        <ele>22</ele>
        <time>2013-05-02T10:54:29Z</time>
      </trkpt>
      <trkpt lat="47.68342" lon="-2.72097">
        <ele>23</ele>
        <time>2013-05-02T10:54:30Z</time>
      </trkpt>
      <trkpt lat="47.68343" lon="-2.72091">
        <ele>24</ele>
        <time>2013-05-02T10:54:31Z</time>
      </trkpt>
      <trkpt lat="47.68344" lon="-2.72086">
        <ele>25</ele>
        <time>2013-05-02T10:54:32Z</time>
      </trkpt>
      <trkpt lat="47.68345" lon="-2.7208">
        <ele>25</ele>
        <time>2013-05-02T10:54:33Z</time>
      </trkpt>
      <trkpt lat="47.68346" lon="-2.72074">
        <ele>25</ele>
        <time>2013-05-02T10:54:34Z</time>
      </trkpt>
      <trkpt lat="47.68348" lon="-2.72068">
        <ele>26</ele>
        <time>2013-05-02T10:54:35Z</time>
      </trkpt>
      <trkpt lat="47.6835" lon="-2.72062">
        <ele>26</ele>
        <time>2013-05-02T10:54:36Z</time>
      </trkpt>
      <trkpt lat="47.6835" lon="-2.72057">
        <ele>26</ele>
        <time>2013-05-02T10:54:37Z</time>
      </trkpt>
      <trkpt lat="47.68351" lon="-2.72053">
        <ele>26</ele>
        <time>2013-05-02T10:54:38Z</time>
      </trkpt>
      <trkpt lat="47.68353" lon="-2.72048">
        <ele>26</ele>
        <time>2013-05-02T10:54:39Z</time>
      </trkpt>
      <trkpt lat="47.68353" lon="-2.72042">
        <ele>27</ele>
        <time>2013-05-02T10:54:40Z</time>
      </trkpt>
      <trkpt lat="47.68354" lon="-2.72036">
        <ele>27</ele>
        <time>2013-05-02T10:54:41Z</time>
      </trkpt>
      <trkpt lat="47.68356" lon="-2.7203">
        <ele>27</ele>
        <time>2013-05-02T10:54:42Z</time>
      </trkpt>
      <trkpt lat="47.68356" lon="-2.72024">
        <ele>27</ele>
        <time>2013-05-02T10:54:43Z</time>
      </trkpt>
      <trkpt lat="47.68356" lon="-2.72017">
        <ele>27</ele>
        <time>2013-05-02T10:54:44Z</time>
      </trkpt>
      <trkpt lat="47.68357" lon="-2.72011">
        <ele>27</ele>
        <time>2013-05-02T10:54:45Z</time>
      </trkpt>
      <trkpt lat="47.68358" lon="-2.72005">
        <ele>27</ele>
        <time>2013-05-02T10:54:46Z</time>
      </trkpt>
      <trkpt lat="47.68358" lon="-2.71999">
        <ele>27</ele>
        <time>2013-05-02T10:54:47Z</time>
      </trkpt>
      <trkpt lat="47.68359" lon="-2.71993">
        <ele>27</ele>
        <time>2013-05-02T10:54:48Z</time>
      </trkpt>
      <trkpt lat="47.6836" lon="-2.71987">
        <ele>27</ele>
        <time>2013-05-02T10:54:49Z</time>
      </trkpt>
      <trkpt lat="47.6836" lon="-2.71982">
        <ele>27</ele>
        <time>2013-05-02T10:54:50Z</time>
      </trkpt>
      <trkpt lat="47.68361" lon="-2.71976">
        <ele>27</ele>
        <time>2013-05-02T10:54:51Z</time>
      </trkpt>
      <trkpt lat="47.68361" lon="-2.7197">
        <ele>27</ele>
        <time>2013-05-02T10:54:52Z</time>
      </trkpt>
      <trkpt lat="47.68361" lon="-2.71964">
        <ele>27</ele>
        <time>2013-05-02T10:54:53Z</time>
      </trkpt>
      <trkpt lat="47.68361" lon="-2.71959">
        <ele>27</ele>
        <time>2013-05-02T10:54:54Z</time>
      </trkpt>
      <trkpt lat="47.6836" lon="-2.71954">
        <ele>27</ele>
        <time>2013-05-02T10:54:55Z</time>
      </trkpt>
      <trkpt lat="47.6836" lon="-2.7195">
        <ele>27</ele>
        <time>2013-05-02T10:54:56Z</time>
      </trkpt>
      <trkpt lat="47.68359" lon="-2.71945">
        <ele>27</ele>
        <time>2013-05-02T10:54:57Z</time>
      </trkpt>
      <trkpt lat="47.68358" lon="-2.7194">
        <ele>27</ele>
        <time>2013-05-02T10:54:58Z</time>
      </trkpt>
      <trkpt lat="47.68356" lon="-2.71936">
        <ele>26</ele>
        <time>2013-05-02T10:54:59Z</time>
      </trkpt>
      <trkpt lat="47.68355" lon="-2.71932">
        <ele>26</ele>
        <time>2013-05-02T10:55:00Z</time>
      </trkpt>
      <trkpt lat="47.68354" lon="-2.71929">
        <ele>26</ele>
        <time>2013-05-02T10:55:01Z</time>
      </trkpt>
      <trkpt lat="47.68355" lon="-2.71927">
        <ele>26</ele>
        <time>2013-05-02T10:55:02Z</time>
      </trkpt>
      <trkpt lat="47.68355" lon="-2.71924">
        <ele>26</ele>
        <time>2013-05-02T10:55:03Z</time>
      </trkpt>
      <trkpt lat="47.68356" lon="-2.7192">
        <ele>26</ele>
        <time>2013-05-02T10:55:04Z</time>
      </trkpt>
      <trkpt lat="47.68356" lon="-2.71916">
        <ele>26</ele>
        <time>2013-05-02T10:55:05Z</time>
      </trkpt>
      <trkpt lat="47.68358" lon="-2.71912">
        <ele>26</ele>
        <time>2013-05-02T10:55:06Z</time>
      </trkpt>
      <trkpt lat="47.68362" lon="-2.71908">
        <ele>26</ele>
        <time>2013-05-02T10:55:07Z</time>
      </trkpt>
      <trkpt lat="47.68366" lon="-2.71904">
        <ele>26</ele>
        <time>2013-05-02T10:55:08Z</time>
      </trkpt>
      <trkpt lat="47.68371" lon="-2.719">
        <ele>26</ele>
        <time>2013-05-02T10:55:09Z</time>
      </trkpt>
      <trkpt lat="47.68375" lon="-2.71896">
        <ele>25</ele>
        <time>2013-05-02T10:55:10Z</time>
      </trkpt>
      <trkpt lat="47.6838" lon="-2.71891">
        <ele>25</ele>
        <time>2013-05-02T10:55:11Z</time>
      </trkpt>
      <trkpt lat="47.68385" lon="-2.71886">
        <ele>25</ele>
        <time>2013-05-02T10:55:12Z</time>
      </trkpt>
      <trkpt lat="47.6839" lon="-2.71881">
        <ele>25</ele>
        <time>2013-05-02T10:55:13Z</time>
      </trkpt>
      <trkpt lat="47.68394" lon="-2.71876">
        <ele>25</ele>
        <time>2013-05-02T10:55:14Z</time>
      </trkpt>
      <trkpt lat="47.68399" lon="-2.71871">
        <ele>24</ele>
        <time>2013-05-02T10:55:15Z</time>
      </trkpt>
      <trkpt lat="47.68404" lon="-2.71865">
        <ele>24</ele>
        <time>2013-05-02T10:55:16Z</time>
      </trkpt>
      <trkpt lat="47.68408" lon="-2.7186">
        <ele>24</ele>
        <time>2013-05-02T10:55:17Z</time>
      </trkpt>
      <trkpt lat="47.68412" lon="-2.71854">
        <ele>23</ele>
        <time>2013-05-02T10:55:18Z</time>
      </trkpt>
      <trkpt lat="47.68417" lon="-2.71848">
        <ele>23</ele>
        <time>2013-05-02T10:55:19Z</time>
      </trkpt>
      <trkpt lat="47.68422" lon="-2.71843">
        <ele>23</ele>
        <time>2013-05-02T10:55:20Z</time>
      </trkpt>
      <trkpt lat="47.68426" lon="-2.71837">
        <ele>22</ele>
        <time>2013-05-02T10:55:21Z</time>
      </trkpt>
      <trkpt lat="47.6843" lon="-2.71832">
        <ele>22</ele>
        <time>2013-05-02T10:55:22Z</time>
      </trkpt>
      <trkpt lat="47.68435" lon="-2.71827">
        <ele>22</ele>
        <time>2013-05-02T10:55:23Z</time>
      </trkpt>
      <trkpt lat="47.68439" lon="-2.71822">
        <ele>22</ele>
        <time>2013-05-02T10:55:24Z</time>
      </trkpt>
      <trkpt lat="47.68443" lon="-2.71817">
        <ele>22</ele>
        <time>2013-05-02T10:55:25Z</time>
      </trkpt>
      <trkpt lat="47.68447" lon="-2.71812">
        <ele>22</ele>
        <time>2013-05-02T10:55:26Z</time>
      </trkpt>
      <trkpt lat="47.68452" lon="-2.71808">
        <ele>22</ele>
        <time>2013-05-02T10:55:27Z</time>
      </trkpt>
      <trkpt lat="47.68456" lon="-2.71804">
        <ele>22</ele>
        <time>2013-05-02T10:55:28Z</time>
      </trkpt>
      <trkpt lat="47.6846" lon="-2.718">
        <ele>22</ele>
        <time>2013-05-02T10:55:29Z</time>
      </trkpt>
      <trkpt lat="47.68464" lon="-2.71797">
        <ele>22</ele>
        <time>2013-05-02T10:55:30Z</time>
      </trkpt>
      <trkpt lat="47.68469" lon="-2.71794">
        <ele>22</ele>
        <time>2013-05-02T10:55:31Z</time>
      </trkpt>
      <trkpt lat="47.68473" lon="-2.71791">
        <ele>22</ele>
        <time>2013-05-02T10:55:32Z</time>
      </trkpt>
      <trkpt lat="47.68478" lon="-2.71788">
        <ele>22</ele>
        <time>2013-05-02T10:55:33Z</time>
      </trkpt>
      <trkpt lat="47.68483" lon="-2.71785">
        <ele>22</ele>
        <time>2013-05-02T10:55:34Z</time>
      </trkpt>
      <trkpt lat="47.68488" lon="-2.71783">
        <ele>22</ele>
        <time>2013-05-02T10:55:35Z</time>
      </trkpt>
      <trkpt lat="47.68492" lon="-2.71781">
        <ele>22</ele>
        <time>2013-05-02T10:55:36Z</time>
      </trkpt>
      <trkpt lat="47.68497" lon="-2.71778">
        <ele>22</ele>
        <time>2013-05-02T10:55:37Z</time>
      </trkpt>
      <trkpt lat="47.68502" lon="-2.71776">
        <ele>22</ele>
        <time>2013-05-02T10:55:38Z</time>
      </trkpt>
      <trkpt lat="47.68507" lon="-2.71773">
        <ele>22</ele>
        <time>2013-05-02T10:55:39Z</time>
      </trkpt>
      <trkpt lat="47.68512" lon="-2.71771">
        <ele>22</ele>
        <time>2013-05-02T10:55:40Z</time>
      </trkpt>
      <trkpt lat="47.68517" lon="-2.71769">
        <ele>22</ele>
        <time>2013-05-02T10:55:41Z</time>
      </trkpt>
      <trkpt lat="47.68521" lon="-2.71767">
        <ele>22</ele>
        <time>2013-05-02T10:55:42Z</time>
      </trkpt>
      <trkpt lat="47.68526" lon="-2.71765">
        <ele>22</ele>
        <time>2013-05-02T10:55:43Z</time>
      </trkpt>
      <trkpt lat="47.68531" lon="-2.71762">
        <ele>22</ele>
        <time>2013-05-02T10:55:44Z</time>
      </trkpt>
      <trkpt lat="47.68536" lon="-2.7176">
        <ele>22</ele>
        <time>2013-05-02T10:55:45Z</time>
      </trkpt>
      <trkpt lat="47.68541" lon="-2.71758">
        <ele>22</ele>
        <time>2013-05-02T10:55:46Z</time>
      </trkpt>
      <trkpt lat="47.68545" lon="-2.71756">
        <ele>22</ele>
        <time>2013-05-02T10:55:47Z</time>
      </trkpt>
      <trkpt lat="47.6855" lon="-2.71753">
        <ele>22</ele>
        <time>2013-05-02T10:55:48Z</time>
      </trkpt>
      <trkpt lat="47.68555" lon="-2.71751">
        <ele>22</ele>
        <time>2013-05-02T10:55:49Z</time>
      </trkpt>
      <trkpt lat="47.68559" lon="-2.71749">
        <ele>22</ele>
        <time>2013-05-02T10:55:50Z</time>
      </trkpt>
      <trkpt lat="47.68562" lon="-2.71747">
        <ele>22</ele>
        <time>2013-05-02T10:55:51Z</time>
      </trkpt>
      <trkpt lat="47.68566" lon="-2.71746">
        <ele>22</ele>
        <time>2013-05-02T10:55:52Z</time>
      </trkpt>
      <trkpt lat="47.68569" lon="-2.71744">
        <ele>22</ele>
        <time>2013-05-02T10:55:53Z</time>
      </trkpt>
      <trkpt lat="47.68572" lon="-2.71743">
        <ele>22</ele>
        <time>2013-05-02T10:55:54Z</time>
      </trkpt>
      <trkpt lat="47.68575" lon="-2.71741">
        <ele>22</ele>
        <time>2013-05-02T10:55:55Z</time>
      </trkpt>
      <trkpt lat="47.68578" lon="-2.71738">
        <ele>22</ele>
        <time>2013-05-02T10:55:56Z</time>
      </trkpt>
      <trkpt lat="47.68581" lon="-2.71735">
        <ele>22</ele>
        <time>2013-05-02T10:55:57Z</time>
      </trkpt>
      <trkpt lat="47.68585" lon="-2.71731">
        <ele>22</ele>
        <time>2013-05-02T10:55:58Z</time>
      </trkpt>
      <trkpt lat="47.68589" lon="-2.71727">
        <ele>22</ele>
        <time>2013-05-02T10:55:59Z</time>
      </trkpt>
      <trkpt lat="47.68593" lon="-2.71724">
        <ele>22</ele>
        <time>2013-05-02T10:56:00Z</time>
      </trkpt>
      <trkpt lat="47.68597" lon="-2.71721">
        <ele>22</ele>
        <time>2013-05-02T10:56:01Z</time>
      </trkpt>
      <trkpt lat="47.68601" lon="-2.71718">
        <ele>22</ele>
        <time>2013-05-02T10:56:02Z</time>
      </trkpt>
      <trkpt lat="47.68605" lon="-2.71715">
        <ele>22</ele>
        <time>2013-05-02T10:56:03Z</time>
      </trkpt>
      <trkpt lat="47.6861" lon="-2.71712">
        <ele>22</ele>
        <time>2013-05-02T10:56:04Z</time>
      </trkpt>
      <trkpt lat="47.68614" lon="-2.71709">
        <ele>22</ele>
        <time>2013-05-02T10:56:05Z</time>
      </trkpt>
      <trkpt lat="47.6862" lon="-2.71706">
        <ele>22</ele>
        <time>2013-05-02T10:56:06Z</time>
      </trkpt>
      <trkpt lat="47.68624" lon="-2.71703">
        <ele>22</ele>
        <time>2013-05-02T10:56:07Z</time>
      </trkpt>
      <trkpt lat="47.68627" lon="-2.717">
        <ele>22</ele>
        <time>2013-05-02T10:56:08Z</time>
      </trkpt>
      <trkpt lat="47.68631" lon="-2.71697">
        <ele>22</ele>
        <time>2013-05-02T10:56:09Z</time>
      </trkpt>
      <trkpt lat="47.68636" lon="-2.71695">
        <ele>22</ele>
        <time>2013-05-02T10:56:10Z</time>
      </trkpt>
      <trkpt lat="47.68641" lon="-2.71692">
        <ele>22</ele>
        <time>2013-05-02T10:56:11Z</time>
      </trkpt>
      <trkpt lat="47.68644" lon="-2.71689">
        <ele>22</ele>
        <time>2013-05-02T10:56:12Z</time>
      </trkpt>
      <trkpt lat="47.6865" lon="-2.71685">
        <ele>22</ele>
        <time>2013-05-02T10:56:13Z</time>
      </trkpt>
      <trkpt lat="47.68657" lon="-2.71681">
        <ele>22</ele>
        <time>2013-05-02T10:56:14Z</time>
      </trkpt>
      <trkpt lat="47.68661" lon="-2.71678">
        <ele>22</ele>
        <time>2013-05-02T10:56:15Z</time>
      </trkpt>
      <trkpt lat="47.68665" lon="-2.71674">
        <ele>22</ele>
        <time>2013-05-02T10:56:16Z</time>
      </trkpt>
      <trkpt lat="47.68668" lon="-2.7167">
        <ele>22</ele>
        <time>2013-05-02T10:56:17Z</time>
      </trkpt>
      <trkpt lat="47.68672" lon="-2.71667">
        <ele>22</ele>
        <time>2013-05-02T10:56:18Z</time>
      </trkpt>
      <trkpt lat="47.68676" lon="-2.71664">
        <ele>22</ele>
        <time>2013-05-02T10:56:19Z</time>
      </trkpt>
      <trkpt lat="47.68679" lon="-2.71661">
        <ele>22</ele>
        <time>2013-05-02T10:56:20Z</time>
      </trkpt>
      <trkpt lat="47.68682" lon="-2.71658">
        <ele>23</ele>
        <time>2013-05-02T10:56:21Z</time>
      </trkpt>
      <trkpt lat="47.68685" lon="-2.71656">
        <ele>23</ele>
        <time>2013-05-02T10:56:22Z</time>
      </trkpt>
      <trkpt lat="47.68689" lon="-2.71653">
        <ele>24</ele>
        <time>2013-05-02T10:56:23Z</time>
      </trkpt>
      <trkpt lat="47.68694" lon="-2.7165">
        <ele>24</ele>
        <time>2013-05-02T10:56:24Z</time>
      </trkpt>
      <trkpt lat="47.68698" lon="-2.71646">
        <ele>25</ele>
        <time>2013-05-02T10:56:25Z</time>
      </trkpt>
      <trkpt lat="47.68705" lon="-2.71643">
        <ele>25</ele>
        <time>2013-05-02T10:56:26Z</time>
      </trkpt>
      <trkpt lat="47.68709" lon="-2.7164">
        <ele>26</ele>
        <time>2013-05-02T10:56:27Z</time>
      </trkpt>
      <trkpt lat="47.68714" lon="-2.71637">
        <ele>27</ele>
        <time>2013-05-02T10:56:28Z</time>
      </trkpt>
      <trkpt lat="47.68717" lon="-2.71632">
        <ele>27</ele>
        <time>2013-05-02T10:56:29Z</time>
      </trkpt>
      <trkpt lat="47.6872" lon="-2.71627">
        <ele>28</ele>
        <time>2013-05-02T10:56:30Z</time>
      </trkpt>
      <trkpt lat="47.68722" lon="-2.71622">
        <ele>28</ele>
        <time>2013-05-02T10:56:31Z</time>
      </trkpt>
      <trkpt lat="47.68724" lon="-2.71618">
        <ele>28</ele>
        <time>2013-05-02T10:56:32Z</time>
      </trkpt>
      <trkpt lat="47.68726" lon="-2.71614">
        <ele>28</ele>
        <time>2013-05-02T10:56:33Z</time>
      </trkpt>
      <trkpt lat="47.68729" lon="-2.7161">
        <ele>28</ele>
        <time>2013-05-02T10:56:34Z</time>
      </trkpt>
      <trkpt lat="47.68732" lon="-2.71607">
        <ele>28</ele>
        <time>2013-05-02T10:56:35Z</time>
      </trkpt>
      <trkpt lat="47.68737" lon="-2.71605">
        <ele>28</ele>
        <time>2013-05-02T10:56:36Z</time>
      </trkpt>
      <trkpt lat="47.68741" lon="-2.71603">
        <ele>28</ele>
        <time>2013-05-02T10:56:37Z</time>
      </trkpt>
      <trkpt lat="47.68745" lon="-2.71601">
        <ele>28</ele>
        <time>2013-05-02T10:56:38Z</time>
      </trkpt>
      <trkpt lat="47.68748" lon="-2.71598">
        <ele>28</ele>
        <time>2013-05-02T10:56:39Z</time>
      </trkpt>
      <trkpt lat="47.68751" lon="-2.71595">
        <ele>28</ele>
        <time>2013-05-02T10:56:40Z</time>
      </trkpt>
      <trkpt lat="47.68754" lon="-2.71592">
        <ele>28</ele>
        <time>2013-05-02T10:56:41Z</time>
      </trkpt>
      <trkpt lat="47.68756" lon="-2.7159">
        <ele>28</ele>
        <time>2013-05-02T10:56:42Z</time>
      </trkpt>
      <trkpt lat="47.68759" lon="-2.71587">
        <ele>28</ele>
        <time>2013-05-02T10:56:43Z</time>
      </trkpt>
      <trkpt lat="47.68761" lon="-2.71585">
        <ele>28</ele>
        <time>2013-05-02T10:56:44Z</time>
      </trkpt>
      <trkpt lat="47.68764" lon="-2.71582">
        <ele>28</ele>
        <time>2013-05-02T10:56:45Z</time>
      </trkpt>
      <trkpt lat="47.68767" lon="-2.71579">
        <ele>28</ele>
        <time>2013-05-02T10:56:46Z</time>
      </trkpt>
      <trkpt lat="47.68769" lon="-2.71577">
        <ele>28</ele>
        <time>2013-05-02T10:56:47Z</time>
      </trkpt>
      <trkpt lat="47.68771" lon="-2.71575">
        <ele>28</ele>
        <time>2013-05-02T10:56:48Z</time>
      </trkpt>
      <trkpt lat="47.68774" lon="-2.71574">
        <ele>28</ele>
        <time>2013-05-02T10:56:49Z</time>
      </trkpt>
      <trkpt lat="47.68777" lon="-2.71571">
        <ele>28</ele>
        <time>2013-05-02T10:56:50Z</time>
      </trkpt>
      <trkpt lat="47.68781" lon="-2.71569">
        <ele>28</ele>
        <time>2013-05-02T10:56:51Z</time>
      </trkpt>
      <trkpt lat="47.68784" lon="-2.71566">
        <ele>28</ele>
        <time>2013-05-02T10:56:52Z</time>
      </trkpt>
      <trkpt lat="47.68788" lon="-2.71564">
        <ele>29</ele>
        <time>2013-05-02T10:56:53Z</time>
      </trkpt>
      <trkpt lat="47.6879" lon="-2.71562">
        <ele>29</ele>
        <time>2013-05-02T10:56:54Z</time>
      </trkpt>
      <trkpt lat="47.68793" lon="-2.71559">
        <ele>29</ele>
        <time>2013-05-02T10:56:55Z</time>
      </trkpt>
      <trkpt lat="47.68795" lon="-2.71556">
        <ele>29</ele>
        <time>2013-05-02T10:56:56Z</time>
      </trkpt>
      <trkpt lat="47.68797" lon="-2.71553">
        <ele>29</ele>
        <time>2013-05-02T10:56:57Z</time>
      </trkpt>
      <trkpt lat="47.68799" lon="-2.71551">
        <ele>29</ele>
        <time>2013-05-02T10:56:58Z</time>
      </trkpt>
      <trkpt lat="47.68801" lon="-2.7155">
        <ele>29</ele>
        <time>2013-05-02T10:56:59Z</time>
      </trkpt>
      <trkpt lat="47.68803" lon="-2.71549">
        <ele>29</ele>
        <time>2013-05-02T10:57:00Z</time>
      </trkpt>
      <trkpt lat="47.68806" lon="-2.71547">
        <ele>29</ele>
        <time>2013-05-02T10:57:01Z</time>
      </trkpt>
      <trkpt lat="47.68808" lon="-2.71545">
        <ele>29</ele>
        <time>2013-05-02T10:57:02Z</time>
      </trkpt>
      <trkpt lat="47.68811" lon="-2.71542">
        <ele>29</ele>
        <time>2013-05-02T10:57:03Z</time>
      </trkpt>
      <trkpt lat="47.68813" lon="-2.71537">
        <ele>29</ele>
        <time>2013-05-02T10:57:04Z</time>
      </trkpt>
      <trkpt lat="47.68815" lon="-2.71534">
        <ele>29</ele>
        <time>2013-05-02T10:57:05Z</time>
      </trkpt>
      <trkpt lat="47.68818" lon="-2.7153">
        <ele>29</ele>
        <time>2013-05-02T10:57:06Z</time>
      </trkpt>
      <trkpt lat="47.68821" lon="-2.71526">
        <ele>29</ele>
        <time>2013-05-02T10:57:07Z</time>
      </trkpt>
      <trkpt lat="47.68822" lon="-2.71522">
        <ele>29</ele>
        <time>2013-05-02T10:57:08Z</time>
      </trkpt>
      <trkpt lat="47.68824" lon="-2.71518">
        <ele>29</ele>
        <time>2013-05-02T10:57:09Z</time>
      </trkpt>
      <trkpt lat="47.68827" lon="-2.71514">
        <ele>29</ele>
        <time>2013-05-02T10:57:10Z</time>
      </trkpt>
      <trkpt lat="47.6883" lon="-2.71511">
        <ele>29</ele>
        <time>2013-05-02T10:57:11Z</time>
      </trkpt>
      <trkpt lat="47.68832" lon="-2.71507">
        <ele>29</ele>
        <time>2013-05-02T10:57:12Z</time>
      </trkpt>
      <trkpt lat="47.68835" lon="-2.71504">
        <ele>29</ele>
        <time>2013-05-02T10:57:13Z</time>
      </trkpt>
      <trkpt lat="47.68838" lon="-2.71501">
        <ele>29</ele>
        <time>2013-05-02T10:57:14Z</time>
      </trkpt>
      <trkpt lat="47.6884" lon="-2.71498">
        <ele>30</ele>
        <time>2013-05-02T10:57:15Z</time>
      </trkpt>
      <trkpt lat="47.68844" lon="-2.71496">
        <ele>30</ele>
        <time>2013-05-02T10:57:16Z</time>
      </trkpt>
      <trkpt lat="47.68848" lon="-2.71493">
        <ele>30</ele>
        <time>2013-05-02T10:57:17Z</time>
      </trkpt>
      <trkpt lat="47.68852" lon="-2.71489">
        <ele>30</ele>
        <time>2013-05-02T10:57:18Z</time>
      </trkpt>
      <trkpt lat="47.68857" lon="-2.71484">
        <ele>30</ele>
        <time>2013-05-02T10:57:19Z</time>
      </trkpt>
      <trkpt lat="47.68863" lon="-2.71481">
        <ele>30</ele>
        <time>2013-05-02T10:57:20Z</time>
      </trkpt>
      <trkpt lat="47.68867" lon="-2.71478">
        <ele>30</ele>
        <time>2013-05-02T10:57:21Z</time>
      </trkpt>
      <trkpt lat="47.6887" lon="-2.71473">
        <ele>30</ele>
        <time>2013-05-02T10:57:22Z</time>
      </trkpt>
      <trkpt lat="47.68872" lon="-2.71467">
        <ele>30</ele>
        <time>2013-05-02T10:57:23Z</time>
      </trkpt>
      <trkpt lat="47.68874" lon="-2.71459">
        <ele>30</ele>
        <time>2013-05-02T10:57:24Z</time>
      </trkpt>
      <trkpt lat="47.68876" lon="-2.71452">
        <ele>30</ele>
        <time>2013-05-02T10:57:25Z</time>
      </trkpt>
      <trkpt lat="47.6888" lon="-2.71446">
        <ele>30</ele>
        <time>2013-05-02T10:57:26Z</time>
      </trkpt>
      <trkpt lat="47.68882" lon="-2.71441">
        <ele>30</ele>
        <time>2013-05-02T10:57:27Z</time>
      </trkpt>
      <trkpt lat="47.68885" lon="-2.71437">
        <ele>30</ele>
        <time>2013-05-02T10:57:28Z</time>
      </trkpt>
      <trkpt lat="47.68889" lon="-2.71434">
        <ele>30</ele>
        <time>2013-05-02T10:57:29Z</time>
      </trkpt>
      <trkpt lat="47.68893" lon="-2.71432">
        <ele>30</ele>
        <time>2013-05-02T10:57:30Z</time>
      </trkpt>
      <trkpt lat="47.68896" lon="-2.71432">
        <ele>30</ele>
        <time>2013-05-02T10:57:31Z</time>
      </trkpt>
      <trkpt lat="47.68899" lon="-2.71433">
        <ele>30</ele>
        <time>2013-05-02T10:57:32Z</time>
      </trkpt>
      <trkpt lat="47.689" lon="-2.71432">
        <ele>29</ele>
        <time>2013-05-02T10:57:33Z</time>
      </trkpt>
      <trkpt lat="47.68902" lon="-2.71427">
        <ele>29</ele>
        <time>2013-05-02T10:57:34Z</time>
      </trkpt>
      <trkpt lat="47.68904" lon="-2.71421">
        <ele>28</ele>
        <time>2013-05-02T10:57:35Z</time>
      </trkpt>
      <trkpt lat="47.6891" lon="-2.71415">
        <ele>27</ele>
        <time>2013-05-02T10:57:36Z</time>
      </trkpt>
      <trkpt lat="47.68914" lon="-2.71411">
        <ele>27</ele>
        <time>2013-05-02T10:57:37Z</time>
      </trkpt>
      <trkpt lat="47.68916" lon="-2.71406">
        <ele>27</ele>
        <time>2013-05-02T10:57:38Z</time>
      </trkpt>
      <trkpt lat="47.68918" lon="-2.71402">
        <ele>26</ele>
        <time>2013-05-02T10:57:39Z</time>
      </trkpt>
      <trkpt lat="47.68921" lon="-2.71397">
        <ele>26</ele>
        <time>2013-05-02T10:57:40Z</time>
      </trkpt>
      <trkpt lat="47.68925" lon="-2.71393">
        <ele>26</ele>
        <time>2013-05-02T10:57:41Z</time>
      </trkpt>
      <trkpt lat="47.68929" lon="-2.71389">
        <ele>26</ele>
        <time>2013-05-02T10:57:42Z</time>
      </trkpt>
      <trkpt lat="47.68934" lon="-2.71384">
        <ele>26</ele>
        <time>2013-05-02T10:57:43Z</time>
      </trkpt>
      <trkpt lat="47.68937" lon="-2.71377">
        <ele>26</ele>
        <time>2013-05-02T10:57:44Z</time>
      </trkpt>
      <trkpt lat="47.68941" lon="-2.71372">
        <ele>26</ele>
        <time>2013-05-02T10:57:45Z</time>
      </trkpt>
      <trkpt lat="47.68944" lon="-2.71365">
        <ele>26</ele>
        <time>2013-05-02T10:57:46Z</time>
      </trkpt>
      <trkpt lat="47.68948" lon="-2.71359">
        <ele>25</ele>
        <time>2013-05-02T10:57:47Z</time>
      </trkpt>
      <trkpt lat="47.68952" lon="-2.71355">
        <ele>25</ele>
        <time>2013-05-02T10:57:48Z</time>
      </trkpt>
      <trkpt lat="47.68956" lon="-2.7135">
        <ele>25</ele>
        <time>2013-05-02T10:57:49Z</time>
      </trkpt>
      <trkpt lat="47.6896" lon="-2.71345">
        <ele>25</ele>
        <time>2013-05-02T10:57:50Z</time>
      </trkpt>
      <trkpt lat="47.68963" lon="-2.7134">
        <ele>25</ele>
        <time>2013-05-02T10:57:51Z</time>
      </trkpt>
      <trkpt lat="47.68966" lon="-2.71335">
        <ele>25</ele>
        <time>2013-05-02T10:57:52Z</time>
      </trkpt>
      <trkpt lat="47.6897" lon="-2.71331">
        <ele>25</ele>
        <time>2013-05-02T10:57:53Z</time>
      </trkpt>
      <trkpt lat="47.68974" lon="-2.71328">
        <ele>25</ele>
        <time>2013-05-02T10:57:54Z</time>
      </trkpt>
      <trkpt lat="47.68977" lon="-2.71325">
        <ele>25</ele>
        <time>2013-05-02T10:57:55Z</time>
      </trkpt>
      <trkpt lat="47.68982" lon="-2.71322">
        <ele>25</ele>
        <time>2013-05-02T10:57:56Z</time>
      </trkpt>
      <trkpt lat="47.68986" lon="-2.7132">
        <ele>25</ele>
        <time>2013-05-02T10:57:57Z</time>
      </trkpt>
      <trkpt lat="47.68991" lon="-2.71316">
        <ele>25</ele>
        <time>2013-05-02T10:57:58Z</time>
      </trkpt>
      <trkpt lat="47.68995" lon="-2.71311">
        <ele>25</ele>
        <time>2013-05-02T10:57:59Z</time>
      </trkpt>
      <trkpt lat="47.68999" lon="-2.71307">
        <ele>25</ele>
        <time>2013-05-02T10:58:00Z</time>
      </trkpt>
      <trkpt lat="47.69004" lon="-2.71304">
        <ele>25</ele>
        <time>2013-05-02T10:58:01Z</time>
      </trkpt>
      <trkpt lat="47.69009" lon="-2.713">
        <ele>25</ele>
        <time>2013-05-02T10:58:02Z</time>
      </trkpt>
      <trkpt lat="47.69013" lon="-2.71296">
        <ele>26</ele>
        <time>2013-05-02T10:58:03Z</time>
      </trkpt>
      <trkpt lat="47.69016" lon="-2.7129">
        <ele>26</ele>
        <time>2013-05-02T10:58:04Z</time>
      </trkpt>
      <trkpt lat="47.6902" lon="-2.71285">
        <ele>27</ele>
        <time>2013-05-02T10:58:05Z</time>
      </trkpt>
      <trkpt lat="47.69022" lon="-2.7128">
        <ele>28</ele>
        <time>2013-05-02T10:58:06Z</time>
      </trkpt>
      <trkpt lat="47.69024" lon="-2.71276">
        <ele>29</ele>
        <time>2013-05-02T10:58:07Z</time>
      </trkpt>
      <trkpt lat="47.69026" lon="-2.71271">
        <ele>29</ele>
        <time>2013-05-02T10:58:08Z</time>
      </trkpt>
      <trkpt lat="47.69028" lon="-2.71268">
        <ele>30</ele>
        <time>2013-05-02T10:58:09Z</time>
      </trkpt>
      <trkpt lat="47.69031" lon="-2.71266">
        <ele>31</ele>
        <time>2013-05-02T10:58:10Z</time>
      </trkpt>
      <trkpt lat="47.69033" lon="-2.71264">
        <ele>31</ele>
        <time>2013-05-02T10:58:11Z</time>
      </trkpt>
      <trkpt lat="47.69035" lon="-2.71263">
        <ele>32</ele>
        <time>2013-05-02T10:58:12Z</time>
      </trkpt>
      <trkpt lat="47.69038" lon="-2.71263">
        <ele>32</ele>
        <time>2013-05-02T10:58:13Z</time>
      </trkpt>
      <trkpt lat="47.69041" lon="-2.71263">
        <ele>33</ele>
        <time>2013-05-02T10:58:14Z</time>
      </trkpt>
      <trkpt lat="47.69045" lon="-2.71262">
        <ele>33</ele>
        <time>2013-05-02T10:58:15Z</time>
      </trkpt>
      <trkpt lat="47.69048" lon="-2.7126">
        <ele>34</ele>
        <time>2013-05-02T10:58:16Z</time>
      </trkpt>
      <trkpt lat="47.69051" lon="-2.71256">
        <ele>34</ele>
        <time>2013-05-02T10:58:17Z</time>
      </trkpt>
      <trkpt lat="47.69054" lon="-2.71252">
        <ele>34</ele>
        <time>2013-05-02T10:58:18Z</time>
      </trkpt>
      <trkpt lat="47.69057" lon="-2.71247">
        <ele>34</ele>
        <time>2013-05-02T10:58:19Z</time>
      </trkpt>
      <trkpt lat="47.69062" lon="-2.71241">
        <ele>34</ele>
        <time>2013-05-02T10:58:20Z</time>
      </trkpt>
      <trkpt lat="47.69066" lon="-2.71234">
        <ele>34</ele>
        <time>2013-05-02T10:58:21Z</time>
      </trkpt>
      <trkpt lat="47.69069" lon="-2.71225">
        <ele>34</ele>
        <time>2013-05-02T10:58:22Z</time>
      </trkpt>
      <trkpt lat="47.69074" lon="-2.71214">
        <ele>34</ele>
        <time>2013-05-02T10:58:23Z</time>
      </trkpt>
      <trkpt lat="47.69079" lon="-2.71204">
        <ele>34</ele>
        <time>2013-05-02T10:58:24Z</time>
      </trkpt>
      <trkpt lat="47.69084" lon="-2.71195">
        <ele>34</ele>
        <time>2013-05-02T10:58:25Z</time>
      </trkpt>
      <trkpt lat="47.69088" lon="-2.71188">
        <ele>34</ele>
        <time>2013-05-02T10:58:26Z</time>
      </trkpt>
      <trkpt lat="47.69093" lon="-2.71184">
        <ele>34</ele>
        <time>2013-05-02T10:58:27Z</time>
      </trkpt>
      <trkpt lat="47.69096" lon="-2.71182">
        <ele>34</ele>
        <time>2013-05-02T10:58:28Z</time>
      </trkpt>
      <trkpt lat="47.69099" lon="-2.71179">
        <ele>34</ele>
        <time>2013-05-02T10:58:29Z</time>
      </trkpt>
      <trkpt lat="47.69103" lon="-2.71175">
        <ele>34</ele>
        <time>2013-05-02T10:58:30Z</time>
      </trkpt>
      <trkpt lat="47.69107" lon="-2.7117">
        <ele>34</ele>
        <time>2013-05-02T10:58:31Z</time>
      </trkpt>
      <trkpt lat="47.69111" lon="-2.71165">
        <ele>34</ele>
        <time>2013-05-02T10:58:32Z</time>
      </trkpt>
      <trkpt lat="47.69116" lon="-2.71161">
        <ele>34</ele>
        <time>2013-05-02T10:58:33Z</time>
      </trkpt>
      <trkpt lat="47.69119" lon="-2.71157">
        <ele>34</ele>
        <time>2013-05-02T10:58:34Z</time>
      </trkpt>
      <trkpt lat="47.69123" lon="-2.71153">
        <ele>34</ele>
        <time>2013-05-02T10:58:35Z</time>
      </trkpt>
      <trkpt lat="47.69128" lon="-2.7115">
        <ele>34</ele>
        <time>2013-05-02T10:58:36Z</time>
      </trkpt>
      <trkpt lat="47.69131" lon="-2.71145">
        <ele>34</ele>
        <time>2013-05-02T10:58:37Z</time>
      </trkpt>
      <trkpt lat="47.69133" lon="-2.7114">
        <ele>34</ele>
        <time>2013-05-02T10:58:38Z</time>
      </trkpt>
      <trkpt lat="47.69137" lon="-2.71135">
        <ele>34</ele>
        <time>2013-05-02T10:58:39Z</time>
      </trkpt>
      <trkpt lat="47.6914" lon="-2.7113">
        <ele>34</ele>
        <time>2013-05-02T10:58:40Z</time>
      </trkpt>
      <trkpt lat="47.69144" lon="-2.71125">
        <ele>34</ele>
        <time>2013-05-02T10:58:41Z</time>
      </trkpt>
      <trkpt lat="47.69148" lon="-2.7112">
        <ele>34</ele>
        <time>2013-05-02T10:58:42Z</time>
      </trkpt>
      <trkpt lat="47.69152" lon="-2.71115">
        <ele>34</ele>
        <time>2013-05-02T10:58:43Z</time>
      </trkpt>
      <trkpt lat="47.69156" lon="-2.7111">
        <ele>34</ele>
        <time>2013-05-02T10:58:44Z</time>
      </trkpt>
      <trkpt lat="47.6916" lon="-2.71105">
        <ele>33</ele>
        <time>2013-05-02T10:58:45Z</time>
      </trkpt>
      <trkpt lat="47.69164" lon="-2.71101">
        <ele>33</ele>
        <time>2013-05-02T10:58:46Z</time>
      </trkpt>
      <trkpt lat="47.69168" lon="-2.71096">
        <ele>33</ele>
        <time>2013-05-02T10:58:47Z</time>
      </trkpt>
      <trkpt lat="47.69172" lon="-2.71093">
        <ele>33</ele>
        <time>2013-05-02T10:58:48Z</time>
      </trkpt>
      <trkpt lat="47.69176" lon="-2.7109">
        <ele>32</ele>
        <time>2013-05-02T10:58:49Z</time>
      </trkpt>
      <trkpt lat="47.6918" lon="-2.71086">
        <ele>32</ele>
        <time>2013-05-02T10:58:50Z</time>
      </trkpt>
      <trkpt lat="47.69184" lon="-2.71083">
        <ele>32</ele>
        <time>2013-05-02T10:58:51Z</time>
      </trkpt>
      <trkpt lat="47.69188" lon="-2.71079">
        <ele>32</ele>
        <time>2013-05-02T10:58:52Z</time>
      </trkpt>
      <trkpt lat="47.69192" lon="-2.71076">
        <ele>32</ele>
        <time>2013-05-02T10:58:53Z</time>
      </trkpt>
      <trkpt lat="47.69196" lon="-2.71071">
        <ele>32</ele>
        <time>2013-05-02T10:58:54Z</time>
      </trkpt>
      <trkpt lat="47.692" lon="-2.71065">
        <ele>32</ele>
        <time>2013-05-02T10:58:55Z</time>
      </trkpt>
      <trkpt lat="47.69205" lon="-2.71059">
        <ele>32</ele>
        <time>2013-05-02T10:58:56Z</time>
      </trkpt>
      <trkpt lat="47.6921" lon="-2.71053">
        <ele>32</ele>
        <time>2013-05-02T10:58:57Z</time>
      </trkpt>
      <trkpt lat="47.69215" lon="-2.71046">
        <ele>32</ele>
        <time>2013-05-02T10:58:58Z</time>
      </trkpt>
      <trkpt lat="47.69219" lon="-2.71041">
        <ele>32</ele>
        <time>2013-05-02T10:58:59Z</time>
      </trkpt>
      <trkpt lat="47.69223" lon="-2.71036">
        <ele>32</ele>
        <time>2013-05-02T10:59:00Z</time>
      </trkpt>
      <trkpt lat="47.69228" lon="-2.71031">
        <ele>32</ele>
        <time>2013-05-02T10:59:01Z</time>
      </trkpt>
      <trkpt lat="47.69232" lon="-2.71026">
        <ele>32</ele>
        <time>2013-05-02T10:59:02Z</time>
      </trkpt>
      <trkpt lat="47.69237" lon="-2.71022">
        <ele>32</ele>
        <time>2013-05-02T10:59:03Z</time>
      </trkpt>
      <trkpt lat="47.69242" lon="-2.7102">
        <ele>32</ele>
        <time>2013-05-02T10:59:04Z</time>
      </trkpt>
      <trkpt lat="47.69248" lon="-2.71017">
        <ele>31</ele>
        <time>2013-05-02T10:59:05Z</time>
      </trkpt>
      <trkpt lat="47.69255" lon="-2.71014">
        <ele>31</ele>
        <time>2013-05-02T10:59:06Z</time>
      </trkpt>
      <trkpt lat="47.6926" lon="-2.7101">
        <ele>31</ele>
        <time>2013-05-02T10:59:07Z</time>
      </trkpt>
      <trkpt lat="47.69265" lon="-2.71006">
        <ele>31</ele>
        <time>2013-05-02T10:59:08Z</time>
      </trkpt>
      <trkpt lat="47.69269" lon="-2.71001">
        <ele>31</ele>
        <time>2013-05-02T10:59:09Z</time>
      </trkpt>
      <trkpt lat="47.69274" lon="-2.70997">
        <ele>31</ele>
        <time>2013-05-02T10:59:10Z</time>
      </trkpt>
      <trkpt lat="47.69278" lon="-2.70993">
        <ele>31</ele>
        <time>2013-05-02T10:59:11Z</time>
      </trkpt>
      <trkpt lat="47.69283" lon="-2.70989">
        <ele>31</ele>
        <time>2013-05-02T10:59:12Z</time>
      </trkpt>
      <trkpt lat="47.69288" lon="-2.70985">
        <ele>31</ele>
        <time>2013-05-02T10:59:13Z</time>
      </trkpt>
      <trkpt lat="47.69292" lon="-2.70981">
        <ele>31</ele>
        <time>2013-05-02T10:59:14Z</time>
      </trkpt>
      <trkpt lat="47.69297" lon="-2.70977">
        <ele>31</ele>
        <time>2013-05-02T10:59:15Z</time>
      </trkpt>
      <trkpt lat="47.69302" lon="-2.70973">
        <ele>31</ele>
        <time>2013-05-02T10:59:16Z</time>
      </trkpt>
      <trkpt lat="47.69306" lon="-2.70969">
        <ele>31</ele>
        <time>2013-05-02T10:59:17Z</time>
      </trkpt>
      <trkpt lat="47.69311" lon="-2.70965">
        <ele>31</ele>
        <time>2013-05-02T10:59:18Z</time>
      </trkpt>
      <trkpt lat="47.69316" lon="-2.70961">
        <ele>31</ele>
        <time>2013-05-02T10:59:19Z</time>
      </trkpt>
      <trkpt lat="47.69321" lon="-2.70958">
        <ele>31</ele>
        <time>2013-05-02T10:59:20Z</time>
      </trkpt>
      <trkpt lat="47.69326" lon="-2.70955">
        <ele>31</ele>
        <time>2013-05-02T10:59:21Z</time>
      </trkpt>
      <trkpt lat="47.69329" lon="-2.70952">
        <ele>31</ele>
        <time>2013-05-02T10:59:22Z</time>
      </trkpt>
      <trkpt lat="47.69334" lon="-2.70949">
        <ele>31</ele>
        <time>2013-05-02T10:59:23Z</time>
      </trkpt>
      <trkpt lat="47.69338" lon="-2.70946">
        <ele>31</ele>
        <time>2013-05-02T10:59:24Z</time>
      </trkpt>
      <trkpt lat="47.69343" lon="-2.70944">
        <ele>31</ele>
        <time>2013-05-02T10:59:25Z</time>
      </trkpt>
      <trkpt lat="47.69348" lon="-2.70944">
        <ele>31</ele>
        <time>2013-05-02T10:59:26Z</time>
      </trkpt>
      <trkpt lat="47.69353" lon="-2.70947">
        <ele>31</ele>
        <time>2013-05-02T10:59:27Z</time>
      </trkpt>
      <trkpt lat="47.69356" lon="-2.70952">
        <ele>31</ele>
        <time>2013-05-02T10:59:28Z</time>
      </trkpt>
      <trkpt lat="47.6936" lon="-2.70958">
        <ele>31</ele>
        <time>2013-05-02T10:59:29Z</time>
      </trkpt>
      <trkpt lat="47.69361" lon="-2.70966">
        <ele>31</ele>
        <time>2013-05-02T10:59:30Z</time>
      </trkpt>
      <trkpt lat="47.69363" lon="-2.70975">
        <ele>31</ele>
        <time>2013-05-02T10:59:31Z</time>
      </trkpt>
      <trkpt lat="47.69364" lon="-2.70984">
        <ele>31</ele>
        <time>2013-05-02T10:59:32Z</time>
      </trkpt>
      <trkpt lat="47.69365" lon="-2.70993">
        <ele>31</ele>
        <time>2013-05-02T10:59:33Z</time>
      </trkpt>
      <trkpt lat="47.69366" lon="-2.71002">
        <ele>30</ele>
        <time>2013-05-02T10:59:34Z</time>
      </trkpt>
      <trkpt lat="47.69368" lon="-2.71011">
        <ele>29</ele>
        <time>2013-05-02T10:59:35Z</time>
      </trkpt>
      <trkpt lat="47.69369" lon="-2.71019">
        <ele>29</ele>
        <time>2013-05-02T10:59:36Z</time>
      </trkpt>
      <trkpt lat="47.69371" lon="-2.71027">
        <ele>28</ele>
        <time>2013-05-02T10:59:37Z</time>
      </trkpt>
      <trkpt lat="47.69373" lon="-2.71035">
        <ele>28</ele>
        <time>2013-05-02T10:59:38Z</time>
      </trkpt>
      <trkpt lat="47.69375" lon="-2.71042">
        <ele>28</ele>
        <time>2013-05-02T10:59:39Z</time>
      </trkpt>
      <trkpt lat="47.69377" lon="-2.7105">
        <ele>28</ele>
        <time>2013-05-02T10:59:40Z</time>
      </trkpt>
      <trkpt lat="47.6938" lon="-2.71058">
        <ele>28</ele>
        <time>2013-05-02T10:59:41Z</time>
      </trkpt>
      <trkpt lat="47.69382" lon="-2.71065">
        <ele>28</ele>
        <time>2013-05-02T10:59:42Z</time>
      </trkpt>
      <trkpt lat="47.69386" lon="-2.71073">
        <ele>28</ele>
        <time>2013-05-02T10:59:43Z</time>
      </trkpt>
      <trkpt lat="47.69389" lon="-2.71081">
        <ele>28</ele>
        <time>2013-05-02T10:59:44Z</time>
      </trkpt>
      <trkpt lat="47.69391" lon="-2.71088">
        <ele>28</ele>
        <time>2013-05-02T10:59:45Z</time>
      </trkpt>
      <trkpt lat="47.69394" lon="-2.71096">
        <ele>28</ele>
        <time>2013-05-02T10:59:46Z</time>
      </trkpt>
      <trkpt lat="47.69397" lon="-2.71103">
        <ele>28</ele>
        <time>2013-05-02T10:59:47Z</time>
      </trkpt>
      <trkpt lat="47.69399" lon="-2.71111">
        <ele>28</ele>
        <time>2013-05-02T10:59:48Z</time>
      </trkpt>
      <trkpt lat="47.69402" lon="-2.71118">
        <ele>28</ele>
        <time>2013-05-02T10:59:49Z</time>
      </trkpt>
      <trkpt lat="47.69404" lon="-2.71124">
        <ele>28</ele>
        <time>2013-05-02T10:59:50Z</time>
      </trkpt>
      <trkpt lat="47.69407" lon="-2.7113">
        <ele>28</ele>
        <time>2013-05-02T10:59:51Z</time>
      </trkpt>
      <trkpt lat="47.6941" lon="-2.71136">
        <ele>28</ele>
        <time>2013-05-02T10:59:52Z</time>
      </trkpt>
      <trkpt lat="47.69412" lon="-2.71141">
        <ele>28</ele>
        <time>2013-05-02T10:59:53Z</time>
      </trkpt>
      <trkpt lat="47.69414" lon="-2.71147">
        <ele>28</ele>
        <time>2013-05-02T10:59:54Z</time>
      </trkpt>
      <trkpt lat="47.69417" lon="-2.71151">
        <ele>28</ele>
        <time>2013-05-02T10:59:55Z</time>
      </trkpt>
      <trkpt lat="47.6942" lon="-2.71154">
        <ele>28</ele>
        <time>2013-05-02T10:59:56Z</time>
      </trkpt>
      <trkpt lat="47.69423" lon="-2.71157">
        <ele>28</ele>
        <time>2013-05-02T10:59:57Z</time>
      </trkpt>
      <trkpt lat="47.69425" lon="-2.7116">
        <ele>28</ele>
        <time>2013-05-02T10:59:58Z</time>
      </trkpt>
      <trkpt lat="47.69428" lon="-2.71161">
        <ele>28</ele>
        <time>2013-05-02T10:59:59Z</time>
      </trkpt>
      <trkpt lat="47.69432" lon="-2.71162">
        <ele>29</ele>
        <time>2013-05-02T11:00:00Z</time>
      </trkpt>
      <trkpt lat="47.69436" lon="-2.7116">
        <ele>29</ele>
        <time>2013-05-02T11:00:01Z</time>
      </trkpt>
      <trkpt lat="47.69439" lon="-2.71159">
        <ele>29</ele>
        <time>2013-05-02T11:00:02Z</time>
      </trkpt>
      <trkpt lat="47.69442" lon="-2.71157">
        <ele>30</ele>
        <time>2013-05-02T11:00:03Z</time>
      </trkpt>
      <trkpt lat="47.69445" lon="-2.71154">
        <ele>30</ele>
        <time>2013-05-02T11:00:04Z</time>
      </trkpt>
      <trkpt lat="47.69449" lon="-2.71153">
        <ele>30</ele>
        <time>2013-05-02T11:00:05Z</time>
      </trkpt>
      <trkpt lat="47.69452" lon="-2.71151">
        <ele>31</ele>
        <time>2013-05-02T11:00:06Z</time>
      </trkpt>
      <trkpt lat="47.69455" lon="-2.71149">
        <ele>31</ele>
        <time>2013-05-02T11:00:07Z</time>
      </trkpt>
      <trkpt lat="47.69458" lon="-2.71148">
        <ele>32</ele>
        <time>2013-05-02T11:00:08Z</time>
      </trkpt>
      <trkpt lat="47.69461" lon="-2.71147">
        <ele>32</ele>
        <time>2013-05-02T11:00:09Z</time>
      </trkpt>
      <trkpt lat="47.69464" lon="-2.71146">
        <ele>33</ele>
        <time>2013-05-02T11:00:10Z</time>
      </trkpt>
      <trkpt lat="47.69468" lon="-2.71145">
        <ele>33</ele>
        <time>2013-05-02T11:00:11Z</time>
      </trkpt>
      <trkpt lat="47.69471" lon="-2.71144">
        <ele>34</ele>
        <time>2013-05-02T11:00:12Z</time>
      </trkpt>
      <trkpt lat="47.69474" lon="-2.71142">
        <ele>34</ele>
        <time>2013-05-02T11:00:13Z</time>
      </trkpt>
      <trkpt lat="47.69476" lon="-2.71141">
        <ele>34</ele>
        <time>2013-05-02T11:00:14Z</time>
      </trkpt>
      <trkpt lat="47.69479" lon="-2.7114">
        <ele>35</ele>
        <time>2013-05-02T11:00:15Z</time>
      </trkpt>
      <trkpt lat="47.69483" lon="-2.7114">
        <ele>35</ele>
        <time>2013-05-02T11:00:16Z</time>
      </trkpt>
      <trkpt lat="47.69486" lon="-2.71141">
        <ele>35</ele>
        <time>2013-05-02T11:00:17Z</time>
      </trkpt>
      <trkpt lat="47.69489" lon="-2.71142">
        <ele>35</ele>
        <time>2013-05-02T11:00:18Z</time>
      </trkpt>
      <trkpt lat="47.69492" lon="-2.71143">
        <ele>36</ele>
        <time>2013-05-02T11:00:19Z</time>
      </trkpt>
      <trkpt lat="47.69495" lon="-2.71146">
        <ele>36</ele>
        <time>2013-05-02T11:00:20Z</time>
      </trkpt>
      <trkpt lat="47.69497" lon="-2.71148">
        <ele>36</ele>
        <time>2013-05-02T11:00:21Z</time>
      </trkpt>
      <trkpt lat="47.69499" lon="-2.71151">
        <ele>36</ele>
        <time>2013-05-02T11:00:22Z</time>
      </trkpt>
      <trkpt lat="47.69501" lon="-2.71153">
        <ele>37</ele>
        <time>2013-05-02T11:00:23Z</time>
      </trkpt>
      <trkpt lat="47.69503" lon="-2.71157">
        <ele>37</ele>
        <time>2013-05-02T11:00:24Z</time>
      </trkpt>
      <trkpt lat="47.69506" lon="-2.7116">
        <ele>37</ele>
        <time>2013-05-02T11:00:25Z</time>
      </trkpt>
      <trkpt lat="47.69509" lon="-2.71163">
        <ele>38</ele>
        <time>2013-05-02T11:00:26Z</time>
      </trkpt>
      <trkpt lat="47.69511" lon="-2.71167">
        <ele>38</ele>
        <time>2013-05-02T11:00:27Z</time>
      </trkpt>
      <trkpt lat="47.69512" lon="-2.7117">
        <ele>39</ele>
        <time>2013-05-02T11:00:28Z</time>
      </trkpt>
      <trkpt lat="47.69513" lon="-2.71175">
        <ele>39</ele>
        <time>2013-05-02T11:00:29Z</time>
      </trkpt>
      <trkpt lat="47.69514" lon="-2.71178">
        <ele>39</ele>
        <time>2013-05-02T11:00:30Z</time>
      </trkpt>
      <trkpt lat="47.69516" lon="-2.71181">
        <ele>40</ele>
        <time>2013-05-02T11:00:31Z</time>
      </trkpt>
      <trkpt lat="47.69518" lon="-2.71185">
        <ele>40</ele>
        <time>2013-05-02T11:00:32Z</time>
      </trkpt>
      <trkpt lat="47.69519" lon="-2.71189">
        <ele>40</ele>
        <time>2013-05-02T11:00:33Z</time>
      </trkpt>
      <trkpt lat="47.69519" lon="-2.71193">
        <ele>40</ele>
        <time>2013-05-02T11:00:34Z</time>
      </trkpt>
      <trkpt lat="47.69521" lon="-2.71196">
        <ele>40</ele>
        <time>2013-05-02T11:00:35Z</time>
      </trkpt>
      <trkpt lat="47.69521" lon="-2.712">
        <ele>40</ele>
        <time>2013-05-02T11:00:36Z</time>
      </trkpt>
      <trkpt lat="47.69522" lon="-2.71204">
        <ele>40</ele>
        <time>2013-05-02T11:00:37Z</time>
      </trkpt>
      <trkpt lat="47.69524" lon="-2.71206">
        <ele>40</ele>
        <time>2013-05-02T11:00:38Z</time>
      </trkpt>
      <trkpt lat="47.69526" lon="-2.71207">
        <ele>40</ele>
        <time>2013-05-02T11:00:39Z</time>
      </trkpt>
      <trkpt lat="47.69528" lon="-2.71207">
        <ele>40</ele>
        <time>2013-05-02T11:00:40Z</time>
      </trkpt>
      <trkpt lat="47.69529" lon="-2.71204">
        <ele>40</ele>
        <time>2013-05-02T11:00:41Z</time>
      </trkpt>
      <trkpt lat="47.6953" lon="-2.71199">
        <ele>40</ele>
        <time>2013-05-02T11:00:42Z</time>
      </trkpt>
      <trkpt lat="47.69529" lon="-2.71191">
        <ele>40</ele>
        <time>2013-05-02T11:00:43Z</time>
      </trkpt>
      <trkpt lat="47.69527" lon="-2.71178">
        <ele>40</ele>
        <time>2013-05-02T11:00:44Z</time>
      </trkpt>
      <trkpt lat="47.69525" lon="-2.71168">
        <ele>40</ele>
        <time>2013-05-02T11:00:45Z</time>
      </trkpt>
      <trkpt lat="47.69523" lon="-2.71156">
        <ele>40</ele>
        <time>2013-05-02T11:00:46Z</time>
      </trkpt>
      <trkpt lat="47.69521" lon="-2.71144">
        <ele>40</ele>
        <time>2013-05-02T11:00:47Z</time>
      </trkpt>
      <trkpt lat="47.69518" lon="-2.71131">
        <ele>40</ele>
        <time>2013-05-02T11:00:48Z</time>
      </trkpt>
      <trkpt lat="47.69517" lon="-2.71118">
        <ele>40</ele>
        <time>2013-05-02T11:00:49Z</time>
      </trkpt>
      <trkpt lat="47.69516" lon="-2.71107">
        <ele>40</ele>
        <time>2013-05-02T11:00:50Z</time>
      </trkpt>
      <trkpt lat="47.69516" lon="-2.71094">
        <ele>40</ele>
        <time>2013-05-02T11:00:51Z</time>
      </trkpt>
      <trkpt lat="47.69517" lon="-2.71086">
        <ele>40</ele>
        <time>2013-05-02T11:00:52Z</time>
      </trkpt>
      <trkpt lat="47.6952" lon="-2.71079">
        <ele>40</ele>
        <time>2013-05-02T11:00:53Z</time>
      </trkpt>
      <trkpt lat="47.69523" lon="-2.71074">
        <ele>39</ele>
        <time>2013-05-02T11:00:54Z</time>
      </trkpt>
      <trkpt lat="47.69526" lon="-2.71069">
        <ele>39</ele>
        <time>2013-05-02T11:00:55Z</time>
      </trkpt>
      <trkpt lat="47.69528" lon="-2.71065">
        <ele>39</ele>
        <time>2013-05-02T11:00:56Z</time>
      </trkpt>
      <trkpt lat="47.69531" lon="-2.71062">
        <ele>38</ele>
        <time>2013-05-02T11:00:57Z</time>
      </trkpt>
      <trkpt lat="47.69534" lon="-2.7106">
        <ele>38</ele>
        <time>2013-05-02T11:00:58Z</time>
      </trkpt>
      <trkpt lat="47.69536" lon="-2.7106">
        <ele>38</ele>
        <time>2013-05-02T11:00:59Z</time>
      </trkpt>
      <trkpt lat="47.69538" lon="-2.71058">
        <ele>38</ele>
        <time>2013-05-02T11:01:00Z</time>
      </trkpt>
      <trkpt lat="47.69541" lon="-2.71056">
        <ele>38</ele>
        <time>2013-05-02T11:01:01Z</time>
      </trkpt>
      <trkpt lat="47.69542" lon="-2.71053">
        <ele>38</ele>
        <time>2013-05-02T11:01:02Z</time>
      </trkpt>
      <trkpt lat="47.69544" lon="-2.71049">
        <ele>38</ele>
        <time>2013-05-02T11:01:03Z</time>
      </trkpt>
      <trkpt lat="47.69545" lon="-2.71047">
        <ele>38</ele>
        <time>2013-05-02T11:01:04Z</time>
      </trkpt>
      <trkpt lat="47.69548" lon="-2.71045">
        <ele>38</ele>
        <time>2013-05-02T11:01:05Z</time>
      </trkpt>
      <trkpt lat="47.6955" lon="-2.71042">
        <ele>39</ele>
        <time>2013-05-02T11:01:06Z</time>
      </trkpt>
      <trkpt lat="47.69552" lon="-2.7104">
        <ele>40</ele>
        <time>2013-05-02T11:01:07Z</time>
      </trkpt>
      <trkpt lat="47.69553" lon="-2.71038">
        <ele>41</ele>
        <time>2013-05-02T11:01:08Z</time>
      </trkpt>
      <trkpt lat="47.69555" lon="-2.71035">
        <ele>41</ele>
        <time>2013-05-02T11:01:09Z</time>
      </trkpt>
      <trkpt lat="47.69556" lon="-2.71031">
        <ele>42</ele>
        <time>2013-05-02T11:01:10Z</time>
      </trkpt>
      <trkpt lat="47.69557" lon="-2.71027">
        <ele>42</ele>
        <time>2013-05-02T11:01:11Z</time>
      </trkpt>
      <trkpt lat="47.69558" lon="-2.71023">
        <ele>43</ele>
        <time>2013-05-02T11:01:12Z</time>
      </trkpt>
      <trkpt lat="47.69559" lon="-2.71019">
        <ele>43</ele>
        <time>2013-05-02T11:01:13Z</time>
      </trkpt>
      <trkpt lat="47.6956" lon="-2.71016">
        <ele>44</ele>
        <time>2013-05-02T11:01:14Z</time>
      </trkpt>
      <trkpt lat="47.69561" lon="-2.71011">
        <ele>45</ele>
        <time>2013-05-02T11:01:15Z</time>
      </trkpt>
      <trkpt lat="47.69561" lon="-2.71006">
        <ele>46</ele>
        <time>2013-05-02T11:01:16Z</time>
      </trkpt>
      <trkpt lat="47.69561" lon="-2.71002">
        <ele>47</ele>
        <time>2013-05-02T11:01:17Z</time>
      </trkpt>
      <trkpt lat="47.69563" lon="-2.70999">
        <ele>48</ele>
        <time>2013-05-02T11:01:18Z</time>
      </trkpt>
      <trkpt lat="47.69565" lon="-2.70996">
        <ele>49</ele>
        <time>2013-05-02T11:01:19Z</time>
      </trkpt>
      <trkpt lat="47.69566" lon="-2.70993">
        <ele>50</ele>
        <time>2013-05-02T11:01:20Z</time>
      </trkpt>
      <trkpt lat="47.69568" lon="-2.7099">
        <ele>51</ele>
        <time>2013-05-02T11:01:21Z</time>
      </trkpt>
      <trkpt lat="47.6957" lon="-2.70989">
        <ele>51</ele>
        <time>2013-05-02T11:01:22Z</time>
      </trkpt>
      <trkpt lat="47.69571" lon="-2.70987">
        <ele>51</ele>
        <time>2013-05-02T11:01:23Z</time>
      </trkpt>
      <trkpt lat="47.69573" lon="-2.70985">
        <ele>51</ele>
        <time>2013-05-02T11:01:24Z</time>
      </trkpt>
      <trkpt lat="47.69574" lon="-2.70983">
        <ele>51</ele>
        <time>2013-05-02T11:01:25Z</time>
      </trkpt>
      <trkpt lat="47.69576" lon="-2.70981">
        <ele>51</ele>
        <time>2013-05-02T11:01:26Z</time>
      </trkpt>
      <trkpt lat="47.69578" lon="-2.70978">
        <ele>51</ele>
        <time>2013-05-02T11:01:27Z</time>
      </trkpt>
      <trkpt lat="47.69579" lon="-2.70975">
        <ele>51</ele>
        <time>2013-05-02T11:01:28Z</time>
      </trkpt>
      <trkpt lat="47.69581" lon="-2.70973">
        <ele>51</ele>
        <time>2013-05-02T11:01:29Z</time>
      </trkpt>
      <trkpt lat="47.69583" lon="-2.70971">
        <ele>51</ele>
        <time>2013-05-02T11:01:30Z</time>
      </trkpt>
      <trkpt lat="47.69585" lon="-2.70969">
        <ele>51</ele>
        <time>2013-05-02T11:01:31Z</time>
      </trkpt>
      <trkpt lat="47.69587" lon="-2.70967">
        <ele>51</ele>
        <time>2013-05-02T11:01:32Z</time>
      </trkpt>
      <trkpt lat="47.69588" lon="-2.70966">
        <ele>51</ele>
        <time>2013-05-02T11:01:33Z</time>
      </trkpt>
      <trkpt lat="47.6959" lon="-2.70964">
        <ele>51</ele>
        <time>2013-05-02T11:01:34Z</time>
      </trkpt>
      <trkpt lat="47.69591" lon="-2.70962">
        <ele>51</ele>
        <time>2013-05-02T11:01:35Z</time>
      </trkpt>
      <trkpt lat="47.69593" lon="-2.7096">
        <ele>51</ele>
        <time>2013-05-02T11:01:36Z</time>
      </trkpt>
      <trkpt lat="47.69594" lon="-2.70958">
        <ele>51</ele>
        <time>2013-05-02T11:01:37Z</time>
      </trkpt>
      <trkpt lat="47.69596" lon="-2.70957">
        <ele>51</ele>
        <time>2013-05-02T11:01:38Z</time>
      </trkpt>
      <trkpt lat="47.69598" lon="-2.70955">
        <ele>51</ele>
        <time>2013-05-02T11:01:39Z</time>
      </trkpt>
      <trkpt lat="47.696" lon="-2.70953">
        <ele>51</ele>
        <time>2013-05-02T11:01:40Z</time>
      </trkpt>
      <trkpt lat="47.69602" lon="-2.70951">
        <ele>52</ele>
        <time>2013-05-02T11:01:41Z</time>
      </trkpt>
      <trkpt lat="47.69603" lon="-2.70949">
        <ele>52</ele>
        <time>2013-05-02T11:01:42Z</time>
      </trkpt>
      <trkpt lat="47.69604" lon="-2.70948">
        <ele>52</ele>
        <time>2013-05-02T11:01:43Z</time>
      </trkpt>
      <trkpt lat="47.69606" lon="-2.70946">
        <ele>52</ele>
        <time>2013-05-02T11:01:44Z</time>
      </trkpt>
      <trkpt lat="47.69608" lon="-2.70946">
        <ele>53</ele>
        <time>2013-05-02T11:01:45Z</time>
      </trkpt>
      <trkpt lat="47.69609" lon="-2.70944">
        <ele>53</ele>
        <time>2013-05-02T11:01:46Z</time>
      </trkpt>
      <trkpt lat="47.6961" lon="-2.70942">
        <ele>53</ele>
        <time>2013-05-02T11:01:47Z</time>
      </trkpt>
      <trkpt lat="47.69614" lon="-2.7094">
        <ele>53</ele>
        <time>2013-05-02T11:01:48Z</time>
      </trkpt>
      <trkpt lat="47.69617" lon="-2.7094">
        <ele>54</ele>
        <time>2013-05-02T11:01:49Z</time>
      </trkpt>
      <trkpt lat="47.69621" lon="-2.70939">
        <ele>54</ele>
        <time>2013-05-02T11:01:50Z</time>
      </trkpt>
      <trkpt lat="47.69624" lon="-2.70939">
        <ele>54</ele>
        <time>2013-05-02T11:01:51Z</time>
      </trkpt>
      <trkpt lat="47.69626" lon="-2.70938">
        <ele>54</ele>
        <time>2013-05-02T11:01:52Z</time>
      </trkpt>
      <trkpt lat="47.69628" lon="-2.70938">
        <ele>54</ele>
        <time>2013-05-02T11:01:53Z</time>
      </trkpt>
      <trkpt lat="47.6963" lon="-2.70939">
        <ele>54</ele>
        <time>2013-05-02T11:01:54Z</time>
      </trkpt>
      <trkpt lat="47.69632" lon="-2.70939">
        <ele>54</ele>
        <time>2013-05-02T11:01:55Z</time>
      </trkpt>
      <trkpt lat="47.69634" lon="-2.70939">
        <ele>54</ele>
        <time>2013-05-02T11:01:56Z</time>
      </trkpt>
      <trkpt lat="47.69636" lon="-2.7094">
        <ele>54</ele>
        <time>2013-05-02T11:01:57Z</time>
      </trkpt>
      <trkpt lat="47.69638" lon="-2.7094">
        <ele>54</ele>
        <time>2013-05-02T11:01:58Z</time>
      </trkpt>
      <trkpt lat="47.6964" lon="-2.7094">
        <ele>54</ele>
        <time>2013-05-02T11:01:59Z</time>
      </trkpt>
      <trkpt lat="47.69641" lon="-2.7094">
        <ele>54</ele>
        <time>2013-05-02T11:02:00Z</time>
      </trkpt>
      <trkpt lat="47.69643" lon="-2.70941">
        <ele>54</ele>
        <time>2013-05-02T11:02:01Z</time>
      </trkpt>
      <trkpt lat="47.69645" lon="-2.70942">
        <ele>54</ele>
        <time>2013-05-02T11:02:03Z</time>
      </trkpt>
      <trkpt lat="47.69647" lon="-2.70942">
        <ele>54</ele>
        <time>2013-05-02T11:02:04Z</time>
      </trkpt>
      <trkpt lat="47.69648" lon="-2.70942">
        <ele>54</ele>
        <time>2013-05-02T11:02:05Z</time>
      </trkpt>
      <trkpt lat="47.6965" lon="-2.70943">
        <ele>55</ele>
        <time>2013-05-02T11:02:06Z</time>
      </trkpt>
      <trkpt lat="47.69651" lon="-2.70944">
        <ele>55</ele>
        <time>2013-05-02T11:02:07Z</time>
      </trkpt>
      <trkpt lat="47.69653" lon="-2.70944">
        <ele>56</ele>
        <time>2013-05-02T11:02:08Z</time>
      </trkpt>
      <trkpt lat="47.69654" lon="-2.70944">
        <ele>56</ele>
        <time>2013-05-02T11:02:09Z</time>
      </trkpt>
      <trkpt lat="47.69656" lon="-2.70943">
        <ele>56</ele>
        <time>2013-05-02T11:02:10Z</time>
      </trkpt>
      <trkpt lat="47.69659" lon="-2.70943">
        <ele>57</ele>
        <time>2013-05-02T11:02:11Z</time>
      </trkpt>
      <trkpt lat="47.69661" lon="-2.70942">
        <ele>57</ele>
        <time>2013-05-02T11:02:12Z</time>
      </trkpt>
      <trkpt lat="47.69664" lon="-2.70941">
        <ele>57</ele>
        <time>2013-05-02T11:02:13Z</time>
      </trkpt>
      <trkpt lat="47.69667" lon="-2.70941">
        <ele>57</ele>
        <time>2013-05-02T11:02:14Z</time>
      </trkpt>
      <trkpt lat="47.69669" lon="-2.7094">
        <ele>57</ele>
        <time>2013-05-02T11:02:15Z</time>
      </trkpt>
      <trkpt lat="47.69672" lon="-2.7094">
        <ele>57</ele>
        <time>2013-05-02T11:02:16Z</time>
      </trkpt>
      <trkpt lat="47.69675" lon="-2.7094">
        <ele>57</ele>
        <time>2013-05-02T11:02:17Z</time>
      </trkpt>
      <trkpt lat="47.69678" lon="-2.7094">
        <ele>58</ele>
        <time>2013-05-02T11:02:18Z</time>
      </trkpt>
      <trkpt lat="47.6968" lon="-2.70939">
        <ele>58</ele>
        <time>2013-05-02T11:02:19Z</time>
      </trkpt>
      <trkpt lat="47.69683" lon="-2.70939">
        <ele>58</ele>
        <time>2013-05-02T11:02:20Z</time>
      </trkpt>
      <trkpt lat="47.69685" lon="-2.70939">
        <ele>58</ele>
        <time>2013-05-02T11:02:21Z</time>
      </trkpt>
      <trkpt lat="47.69688" lon="-2.70939">
        <ele>58</ele>
        <time>2013-05-02T11:02:22Z</time>
      </trkpt>
      <trkpt lat="47.6969" lon="-2.70939">
        <ele>58</ele>
        <time>2013-05-02T11:02:23Z</time>
      </trkpt>
      <trkpt lat="47.69692" lon="-2.70941">
        <ele>58</ele>
        <time>2013-05-02T11:02:24Z</time>
      </trkpt>
      <trkpt lat="47.69694" lon="-2.70943">
        <ele>59</ele>
        <time>2013-05-02T11:02:25Z</time>
      </trkpt>
      <trkpt lat="47.69695" lon="-2.70945">
        <ele>59</ele>
        <time>2013-05-02T11:02:26Z</time>
      </trkpt>
      <trkpt lat="47.69697" lon="-2.70946">
        <ele>59</ele>
        <time>2013-05-02T11:02:27Z</time>
      </trkpt>
      <trkpt lat="47.69699" lon="-2.70947">
        <ele>59</ele>
        <time>2013-05-02T11:02:28Z</time>
      </trkpt>
      <trkpt lat="47.69703" lon="-2.70948">
        <ele>59</ele>
        <time>2013-05-02T11:02:29Z</time>
      </trkpt>
      <trkpt lat="47.69708" lon="-2.70949">
        <ele>59</ele>
        <time>2013-05-02T11:02:30Z</time>
      </trkpt>
      <trkpt lat="47.69712" lon="-2.70949">
        <ele>59</ele>
        <time>2013-05-02T11:02:31Z</time>
      </trkpt>
      <trkpt lat="47.69717" lon="-2.70949">
        <ele>59</ele>
        <time>2013-05-02T11:02:32Z</time>
      </trkpt>
      <trkpt lat="47.69721" lon="-2.70949">
        <ele>58</ele>
        <time>2013-05-02T11:02:33Z</time>
      </trkpt>
      <trkpt lat="47.69724" lon="-2.70949">
        <ele>57</ele>
        <time>2013-05-02T11:02:34Z</time>
      </trkpt>
      <trkpt lat="47.69727" lon="-2.70949">
        <ele>56</ele>
        <time>2013-05-02T11:02:35Z</time>
      </trkpt>
      <trkpt lat="47.6973" lon="-2.70949">
        <ele>55</ele>
        <time>2013-05-02T11:02:36Z</time>
      </trkpt>
      <trkpt lat="47.69732" lon="-2.70949">
        <ele>54</ele>
        <time>2013-05-02T11:02:37Z</time>
      </trkpt>
      <trkpt lat="47.69734" lon="-2.70949">
        <ele>53</ele>
        <time>2013-05-02T11:02:38Z</time>
      </trkpt>
      <trkpt lat="47.69737" lon="-2.70948">
        <ele>52</ele>
        <time>2013-05-02T11:02:39Z</time>
      </trkpt>
      <trkpt lat="47.6974" lon="-2.70948">
        <ele>51</ele>
        <time>2013-05-02T11:02:40Z</time>
      </trkpt>
      <trkpt lat="47.69743" lon="-2.70948">
        <ele>50</ele>
        <time>2013-05-02T11:02:41Z</time>
      </trkpt>
      <trkpt lat="47.69746" lon="-2.70948">
        <ele>49</ele>
        <time>2013-05-02T11:02:42Z</time>
      </trkpt>
      <trkpt lat="47.69749" lon="-2.70948">
        <ele>47</ele>
        <time>2013-05-02T11:02:43Z</time>
      </trkpt>
      <trkpt lat="47.69751" lon="-2.70949">
        <ele>46</ele>
        <time>2013-05-02T11:02:44Z</time>
      </trkpt>
      <trkpt lat="47.69753" lon="-2.7095">
        <ele>45</ele>
        <time>2013-05-02T11:02:45Z</time>
      </trkpt>
      <trkpt lat="47.69755" lon="-2.70952">
        <ele>44</ele>
        <time>2013-05-02T11:02:46Z</time>
      </trkpt>
      <trkpt lat="47.69756" lon="-2.70952">
        <ele>43</ele>
        <time>2013-05-02T11:02:47Z</time>
      </trkpt>
      <trkpt lat="47.69757" lon="-2.70953">
        <ele>42</ele>
        <time>2013-05-02T11:02:48Z</time>
      </trkpt>
      <trkpt lat="47.69759" lon="-2.70951">
        <ele>40</ele>
        <time>2013-05-02T11:02:50Z</time>
      </trkpt>
      <trkpt lat="47.69762" lon="-2.70951">
        <ele>39</ele>
        <time>2013-05-02T11:02:51Z</time>
      </trkpt>
      <trkpt lat="47.69763" lon="-2.7095">
        <ele>38</ele>
        <time>2013-05-02T11:02:52Z</time>
      </trkpt>
      <trkpt lat="47.69764" lon="-2.70948">
        <ele>37</ele>
        <time>2013-05-02T11:02:53Z</time>
      </trkpt>
      <trkpt lat="47.69765" lon="-2.70947">
        <ele>36</ele>
        <time>2013-05-02T11:02:54Z</time>
      </trkpt>
      <trkpt lat="47.69767" lon="-2.70948">
        <ele>35</ele>
        <time>2013-05-02T11:02:55Z</time>
      </trkpt>
      <trkpt lat="47.6977" lon="-2.7095">
        <ele>34</ele>
        <time>2013-05-02T11:02:56Z</time>
      </trkpt>
      <trkpt lat="47.69772" lon="-2.70951">
        <ele>33</ele>
        <time>2013-05-02T11:02:57Z</time>
      </trkpt>
      <trkpt lat="47.69776" lon="-2.70953">
        <ele>31</ele>
        <time>2013-05-02T11:02:58Z</time>
      </trkpt>
      <trkpt lat="47.6978" lon="-2.70955">
        <ele>30</ele>
        <time>2013-05-02T11:02:59Z</time>
      </trkpt>
      <trkpt lat="47.69784" lon="-2.7096">
        <ele>28</ele>
        <time>2013-05-02T11:03:00Z</time>
      </trkpt>
      <trkpt lat="47.69788" lon="-2.70966">
        <ele>26</ele>
        <time>2013-05-02T11:03:01Z</time>
      </trkpt>
      <trkpt lat="47.69793" lon="-2.70971">
        <ele>24</ele>
        <time>2013-05-02T11:03:02Z</time>
      </trkpt>
      <trkpt lat="47.69799" lon="-2.70977">
        <ele>22</ele>
        <time>2013-05-02T11:03:03Z</time>
      </trkpt>
      <trkpt lat="47.69804" lon="-2.70982">
        <ele>21</ele>
        <time>2013-05-02T11:03:04Z</time>
      </trkpt>
      <trkpt lat="47.69809" lon="-2.70984">
        <ele>20</ele>
        <time>2013-05-02T11:03:05Z</time>
      </trkpt>
      <trkpt lat="47.69812" lon="-2.70979">
        <ele>19</ele>
        <time>2013-05-02T11:03:06Z</time>
      </trkpt>
      <trkpt lat="47.69812" lon="-2.70972">
        <ele>18</ele>
        <time>2013-05-02T11:03:07Z</time>
      </trkpt>
      <trkpt lat="47.6981" lon="-2.70963">
        <ele>17</ele>
        <time>2013-05-02T11:03:08Z</time>
      </trkpt>
      <trkpt lat="47.69823" lon="-2.70958">
        <ele>16</ele>
        <time>2013-05-02T11:03:09Z</time>
      </trkpt>
      <trkpt lat="47.69834" lon="-2.7095">
        <ele>15</ele>
        <time>2013-05-02T11:03:10Z</time>
      </trkpt>
      <trkpt lat="47.69834" lon="-2.70942">
        <ele>15</ele>
        <time>2013-05-02T11:03:11Z</time>
      </trkpt>
      <trkpt lat="47.69833" lon="-2.70936">
        <ele>15</ele>
        <time>2013-05-02T11:03:12Z</time>
      </trkpt>
      <trkpt lat="47.69833" lon="-2.70927">
        <ele>15</ele>
        <time>2013-05-02T11:03:13Z</time>
      </trkpt>
      <trkpt lat="47.69832" lon="-2.70921">
        <ele>16</ele>
        <time>2013-05-02T11:03:14Z</time>
      </trkpt>
      <trkpt lat="47.69831" lon="-2.70917">
        <ele>17</ele>
        <time>2013-05-02T11:03:15Z</time>
      </trkpt>
      <trkpt lat="47.69834" lon="-2.70912">
        <ele>18</ele>
        <time>2013-05-02T11:03:16Z</time>
      </trkpt>
      <trkpt lat="47.69837" lon="-2.70906">
        <ele>19</ele>
        <time>2013-05-02T11:03:17Z</time>
      </trkpt>
      <trkpt lat="47.69838" lon="-2.70901">
        <ele>20</ele>
        <time>2013-05-02T11:03:18Z</time>
      </trkpt>
      <trkpt lat="47.69837" lon="-2.70897">
        <ele>21</ele>
        <time>2013-05-02T11:03:19Z</time>
      </trkpt>
      <trkpt lat="47.69835" lon="-2.70892">
        <ele>23</ele>
        <time>2013-05-02T11:03:20Z</time>
      </trkpt>
      <trkpt lat="47.69832" lon="-2.70887">
        <ele>25</ele>
        <time>2013-05-02T11:03:21Z</time>
      </trkpt>
      <trkpt lat="47.69828" lon="-2.70885">
        <ele>26</ele>
        <time>2013-05-02T11:03:22Z</time>
      </trkpt>
      <trkpt lat="47.69825" lon="-2.70883">
        <ele>28</ele>
        <time>2013-05-02T11:03:23Z</time>
      </trkpt>
      <trkpt lat="47.6982" lon="-2.70881">
        <ele>29</ele>
        <time>2013-05-02T11:03:24Z</time>
      </trkpt>
      <trkpt lat="47.69816" lon="-2.70879">
        <ele>30</ele>
        <time>2013-05-02T11:03:25Z</time>
      </trkpt>
      <trkpt lat="47.69813" lon="-2.70879">
        <ele>31</ele>
        <time>2013-05-02T11:03:26Z</time>
      </trkpt>
      <trkpt lat="47.6981" lon="-2.70879">
        <ele>32</ele>
        <time>2013-05-02T11:03:27Z</time>
      </trkpt>
      <trkpt lat="47.69807" lon="-2.70879">
        <ele>33</ele>
        <time>2013-05-02T11:03:28Z</time>
      </trkpt>
      <trkpt lat="47.69803" lon="-2.70878">
        <ele>34</ele>
        <time>2013-05-02T11:03:29Z</time>
      </trkpt>
      <trkpt lat="47.698" lon="-2.70876">
        <ele>35</ele>
        <time>2013-05-02T11:03:30Z</time>
      </trkpt>
      <trkpt lat="47.69796" lon="-2.70873">
        <ele>36</ele>
        <time>2013-05-02T11:03:31Z</time>
      </trkpt>
      <trkpt lat="47.69793" lon="-2.70871">
        <ele>37</ele>
        <time>2013-05-02T11:03:32Z</time>
      </trkpt>
      <trkpt lat="47.69789" lon="-2.70868">
        <ele>38</ele>
        <time>2013-05-02T11:03:33Z</time>
      </trkpt>
      <trkpt lat="47.69786" lon="-2.70865">
        <ele>39</ele>
        <time>2013-05-02T11:03:34Z</time>
      </trkpt>
      <trkpt lat="47.69784" lon="-2.7086">
        <ele>39</ele>
        <time>2013-05-02T11:03:35Z</time>
      </trkpt>
      <trkpt lat="47.69784" lon="-2.70858">
        <ele>40</ele>
        <time>2013-05-02T11:03:36Z</time>
      </trkpt>
      <trkpt lat="47.69785" lon="-2.70857">
        <ele>40</ele>
        <time>2013-05-02T11:03:37Z</time>
      </trkpt>
      <trkpt lat="47.69787" lon="-2.70857">
        <ele>40</ele>
        <time>2013-05-02T11:03:38Z</time>
      </trkpt>
      <trkpt lat="47.6979" lon="-2.70858">
        <ele>41</ele>
        <time>2013-05-02T11:03:39Z</time>
      </trkpt>
      <trkpt lat="47.69795" lon="-2.70859">
        <ele>41</ele>
        <time>2013-05-02T11:03:40Z</time>
      </trkpt>
      <trkpt lat="47.698" lon="-2.70858">
        <ele>41</ele>
        <time>2013-05-02T11:03:41Z</time>
      </trkpt>
      <trkpt lat="47.69807" lon="-2.70858">
        <ele>41</ele>
        <time>2013-05-02T11:03:42Z</time>
      </trkpt>
      <trkpt lat="47.69811" lon="-2.70859">
        <ele>41</ele>
        <time>2013-05-02T11:03:43Z</time>
      </trkpt>
      <trkpt lat="47.69815" lon="-2.70859">
        <ele>41</ele>
        <time>2013-05-02T11:03:44Z</time>
      </trkpt>
      <trkpt lat="47.69819" lon="-2.70857">
        <ele>41</ele>
        <time>2013-05-02T11:03:45Z</time>
      </trkpt>
      <trkpt lat="47.69825" lon="-2.70856">
        <ele>41</ele>
        <time>2013-05-02T11:03:46Z</time>
      </trkpt>
      <trkpt lat="47.69828" lon="-2.70854">
        <ele>41</ele>
        <time>2013-05-02T11:03:47Z</time>
      </trkpt>
      <trkpt lat="47.69831" lon="-2.70851">
        <ele>41</ele>
        <time>2013-05-02T11:03:48Z</time>
      </trkpt>
      <trkpt lat="47.69833" lon="-2.70848">
        <ele>41</ele>
        <time>2013-05-02T11:03:49Z</time>
      </trkpt>
      <trkpt lat="47.69835" lon="-2.70845">
        <ele>41</ele>
        <time>2013-05-02T11:03:50Z</time>
      </trkpt>
      <trkpt lat="47.69836" lon="-2.70841">
        <ele>41</ele>
        <time>2013-05-02T11:03:51Z</time>
      </trkpt>
      <trkpt lat="47.69836" lon="-2.70836">
        <ele>41</ele>
        <time>2013-05-02T11:03:52Z</time>
      </trkpt>
      <trkpt lat="47.69837" lon="-2.70831">
        <ele>41</ele>
        <time>2013-05-02T11:03:53Z</time>
      </trkpt>
      <trkpt lat="47.69839" lon="-2.70825">
        <ele>41</ele>
        <time>2013-05-02T11:03:54Z</time>
      </trkpt>
      <trkpt lat="47.6984" lon="-2.7082">
        <ele>41</ele>
        <time>2013-05-02T11:03:55Z</time>
      </trkpt>
      <trkpt lat="47.69841" lon="-2.70815">
        <ele>41</ele>
        <time>2013-05-02T11:03:56Z</time>
      </trkpt>
      <trkpt lat="47.69843" lon="-2.70809">
        <ele>41</ele>
        <time>2013-05-02T11:03:57Z</time>
      </trkpt>
      <trkpt lat="47.69844" lon="-2.70803">
        <ele>41</ele>
        <time>2013-05-02T11:03:58Z</time>
      </trkpt>
      <trkpt lat="47.69845" lon="-2.70797">
        <ele>41</ele>
        <time>2013-05-02T11:03:59Z</time>
      </trkpt>
      <trkpt lat="47.69846" lon="-2.7079">
        <ele>41</ele>
        <time>2013-05-02T11:04:00Z</time>
      </trkpt>
      <trkpt lat="47.69848" lon="-2.70785">
        <ele>41</ele>
        <time>2013-05-02T11:04:01Z</time>
      </trkpt>
      <trkpt lat="47.6985" lon="-2.70781">
        <ele>41</ele>
        <time>2013-05-02T11:04:02Z</time>
      </trkpt>
      <trkpt lat="47.69852" lon="-2.70777">
        <ele>41</ele>
        <time>2013-05-02T11:04:03Z</time>
      </trkpt>
      <trkpt lat="47.69855" lon="-2.70771">
        <ele>41</ele>
        <time>2013-05-02T11:04:04Z</time>
      </trkpt>
      <trkpt lat="47.69857" lon="-2.70766">
        <ele>41</ele>
        <time>2013-05-02T11:04:05Z</time>
      </trkpt>
      <trkpt lat="47.6986" lon="-2.70762">
        <ele>41</ele>
        <time>2013-05-02T11:04:06Z</time>
      </trkpt>
      <trkpt lat="47.69862" lon="-2.70758">
        <ele>41</ele>
        <time>2013-05-02T11:04:07Z</time>
      </trkpt>
      <trkpt lat="47.69865" lon="-2.70753">
        <ele>40</ele>
        <time>2013-05-02T11:04:08Z</time>
      </trkpt>
      <trkpt lat="47.69866" lon="-2.70747">
        <ele>40</ele>
        <time>2013-05-02T11:04:09Z</time>
      </trkpt>
      <trkpt lat="47.69866" lon="-2.70741">
        <ele>40</ele>
        <time>2013-05-02T11:04:10Z</time>
      </trkpt>
      <trkpt lat="47.69868" lon="-2.70737">
        <ele>39</ele>
        <time>2013-05-02T11:04:11Z</time>
      </trkpt>
      <trkpt lat="47.69869" lon="-2.70732">
        <ele>39</ele>
        <time>2013-05-02T11:04:12Z</time>
      </trkpt>
      <trkpt lat="47.6987" lon="-2.70728">
        <ele>39</ele>
        <time>2013-05-02T11:04:13Z</time>
      </trkpt>
      <trkpt lat="47.6987" lon="-2.70725">
        <ele>39</ele>
        <time>2013-05-02T11:04:14Z</time>
      </trkpt>
      <trkpt lat="47.69868" lon="-2.70722">
        <ele>39</ele>
        <time>2013-05-02T11:04:15Z</time>
      </trkpt>
      <trkpt lat="47.69867" lon="-2.70718">
        <ele>39</ele>
        <time>2013-05-02T11:04:16Z</time>
      </trkpt>
      <trkpt lat="47.69867" lon="-2.70714">
        <ele>39</ele>
        <time>2013-05-02T11:04:17Z</time>
      </trkpt>
      <trkpt lat="47.69867" lon="-2.7071">
        <ele>39</ele>
        <time>2013-05-02T11:04:18Z</time>
      </trkpt>
      <trkpt lat="47.69869" lon="-2.70708">
        <ele>38</ele>
        <time>2013-05-02T11:04:19Z</time>
      </trkpt>
      <trkpt lat="47.6987" lon="-2.70707">
        <ele>38</ele>
        <time>2013-05-02T11:04:20Z</time>
      </trkpt>
      <trkpt lat="47.69872" lon="-2.70707">
        <ele>38</ele>
        <time>2013-05-02T11:04:21Z</time>
      </trkpt>
      <trkpt lat="47.69874" lon="-2.70708">
        <ele>38</ele>
        <time>2013-05-02T11:04:22Z</time>
      </trkpt>
      <trkpt lat="47.69877" lon="-2.70708">
        <ele>38</ele>
        <time>2013-05-02T11:04:23Z</time>
      </trkpt>
      <trkpt lat="47.69879" lon="-2.70709">
        <ele>38</ele>
        <time>2013-05-02T11:04:24Z</time>
      </trkpt>
      <trkpt lat="47.69882" lon="-2.7071">
        <ele>38</ele>
        <time>2013-05-02T11:04:25Z</time>
      </trkpt>
      <trkpt lat="47.69884" lon="-2.70711">
        <ele>38</ele>
        <time>2013-05-02T11:04:26Z</time>
      </trkpt>
      <trkpt lat="47.69886" lon="-2.70712">
        <ele>38</ele>
        <time>2013-05-02T11:04:27Z</time>
      </trkpt>
      <trkpt lat="47.69888" lon="-2.70713">
        <ele>38</ele>
        <time>2013-05-02T11:04:28Z</time>
      </trkpt>
      <trkpt lat="47.6989" lon="-2.70712">
        <ele>38</ele>
        <time>2013-05-02T11:04:29Z</time>
      </trkpt>
      <trkpt lat="47.69892" lon="-2.70712">
        <ele>38</ele>
        <time>2013-05-02T11:04:30Z</time>
      </trkpt>
      <trkpt lat="47.69894" lon="-2.70712">
        <ele>38</ele>
        <time>2013-05-02T11:04:31Z</time>
      </trkpt>
      <trkpt lat="47.69896" lon="-2.70712">
        <ele>38</ele>
        <time>2013-05-02T11:04:32Z</time>
      </trkpt>
      <trkpt lat="47.69898" lon="-2.70712">
        <ele>38</ele>
        <time>2013-05-02T11:04:33Z</time>
      </trkpt>
      <trkpt lat="47.69901" lon="-2.70712">
        <ele>38</ele>
        <time>2013-05-02T11:04:34Z</time>
      </trkpt>
      <trkpt lat="47.69903" lon="-2.70711">
        <ele>38</ele>
        <time>2013-05-02T11:04:35Z</time>
      </trkpt>
      <trkpt lat="47.69905" lon="-2.7071">
        <ele>38</ele>
        <time>2013-05-02T11:04:36Z</time>
      </trkpt>
      <trkpt lat="47.69907" lon="-2.70708">
        <ele>38</ele>
        <time>2013-05-02T11:04:37Z</time>
      </trkpt>
      <trkpt lat="47.69908" lon="-2.70707">
        <ele>38</ele>
        <time>2013-05-02T11:04:38Z</time>
      </trkpt>
      <trkpt lat="47.69911" lon="-2.70705">
        <ele>38</ele>
        <time>2013-05-02T11:04:39Z</time>
      </trkpt>
      <trkpt lat="47.69913" lon="-2.70704">
        <ele>38</ele>
        <time>2013-05-02T11:04:40Z</time>
      </trkpt>
      <trkpt lat="47.69914" lon="-2.70702">
        <ele>38</ele>
        <time>2013-05-02T11:04:41Z</time>
      </trkpt>
      <trkpt lat="47.69915" lon="-2.707">
        <ele>38</ele>
        <time>2013-05-02T11:04:42Z</time>
      </trkpt>
      <trkpt lat="47.69916" lon="-2.70696">
        <ele>38</ele>
        <time>2013-05-02T11:04:43Z</time>
      </trkpt>
      <trkpt lat="47.69916" lon="-2.70692">
        <ele>38</ele>
        <time>2013-05-02T11:04:44Z</time>
      </trkpt>
      <trkpt lat="47.69917" lon="-2.70688">
        <ele>38</ele>
        <time>2013-05-02T11:04:45Z</time>
      </trkpt>
      <trkpt lat="47.69917" lon="-2.70684">
        <ele>38</ele>
        <time>2013-05-02T11:04:46Z</time>
      </trkpt>
      <trkpt lat="47.69918" lon="-2.70678">
        <ele>38</ele>
        <time>2013-05-02T11:04:47Z</time>
      </trkpt>
      <trkpt lat="47.69918" lon="-2.70673">
        <ele>38</ele>
        <time>2013-05-02T11:04:48Z</time>
      </trkpt>
      <trkpt lat="47.69918" lon="-2.70667">
        <ele>38</ele>
        <time>2013-05-02T11:04:49Z</time>
      </trkpt>
      <trkpt lat="47.69918" lon="-2.70661">
        <ele>38</ele>
        <time>2013-05-02T11:04:50Z</time>
      </trkpt>
      <trkpt lat="47.69918" lon="-2.70654">
        <ele>38</ele>
        <time>2013-05-02T11:04:51Z</time>
      </trkpt>
      <trkpt lat="47.69918" lon="-2.70648">
        <ele>38</ele>
        <time>2013-05-02T11:04:52Z</time>
      </trkpt>
      <trkpt lat="47.6992" lon="-2.70641">
        <ele>38</ele>
        <time>2013-05-02T11:04:53Z</time>
      </trkpt>
      <trkpt lat="47.69921" lon="-2.70634">
        <ele>38</ele>
        <time>2013-05-02T11:04:54Z</time>
      </trkpt>
      <trkpt lat="47.69923" lon="-2.70628">
        <ele>38</ele>
        <time>2013-05-02T11:04:55Z</time>
      </trkpt>
      <trkpt lat="47.69925" lon="-2.70621">
        <ele>38</ele>
        <time>2013-05-02T11:04:56Z</time>
      </trkpt>
      <trkpt lat="47.69928" lon="-2.70616">
        <ele>38</ele>
        <time>2013-05-02T11:04:57Z</time>
      </trkpt>
      <trkpt lat="47.6993" lon="-2.70612">
        <ele>38</ele>
        <time>2013-05-02T11:04:58Z</time>
      </trkpt>
      <trkpt lat="47.69933" lon="-2.70609">
        <ele>38</ele>
        <time>2013-05-02T11:04:59Z</time>
      </trkpt>
      <trkpt lat="47.69936" lon="-2.70606">
        <ele>38</ele>
        <time>2013-05-02T11:05:00Z</time>
      </trkpt>
      <trkpt lat="47.69938" lon="-2.70603">
        <ele>38</ele>
        <time>2013-05-02T11:05:01Z</time>
      </trkpt>
      <trkpt lat="47.69939" lon="-2.70599">
        <ele>38</ele>
        <time>2013-05-02T11:05:02Z</time>
      </trkpt>
      <trkpt lat="47.69942" lon="-2.70596">
        <ele>38</ele>
        <time>2013-05-02T11:05:03Z</time>
      </trkpt>
      <trkpt lat="47.69944" lon="-2.70594">
        <ele>38</ele>
        <time>2013-05-02T11:05:04Z</time>
      </trkpt>
      <trkpt lat="47.69947" lon="-2.70591">
        <ele>38</ele>
        <time>2013-05-02T11:05:05Z</time>
      </trkpt>
      <trkpt lat="47.69949" lon="-2.70589">
        <ele>38</ele>
        <time>2013-05-02T11:05:06Z</time>
      </trkpt>
      <trkpt lat="47.69952" lon="-2.70587">
        <ele>38</ele>
        <time>2013-05-02T11:05:07Z</time>
      </trkpt>
      <trkpt lat="47.69955" lon="-2.70584">
        <ele>38</ele>
        <time>2013-05-02T11:05:08Z</time>
      </trkpt>
      <trkpt lat="47.69958" lon="-2.70581">
        <ele>38</ele>
        <time>2013-05-02T11:05:09Z</time>
      </trkpt>
      <trkpt lat="47.6996" lon="-2.70577">
        <ele>38</ele>
        <time>2013-05-02T11:05:10Z</time>
      </trkpt>
      <trkpt lat="47.69963" lon="-2.70573">
        <ele>39</ele>
        <time>2013-05-02T11:05:11Z</time>
      </trkpt>
      <trkpt lat="47.69965" lon="-2.7057">
        <ele>39</ele>
        <time>2013-05-02T11:05:12Z</time>
      </trkpt>
      <trkpt lat="47.69968" lon="-2.7057">
        <ele>40</ele>
        <time>2013-05-02T11:05:13Z</time>
      </trkpt>
      <trkpt lat="47.6997" lon="-2.70572">
        <ele>40</ele>
        <time>2013-05-02T11:05:14Z</time>
      </trkpt>
      <trkpt lat="47.6997" lon="-2.70574">
        <ele>40</ele>
        <time>2013-05-02T11:05:15Z</time>
      </trkpt>
      <trkpt lat="47.69968" lon="-2.70578">
        <ele>41</ele>
        <time>2013-05-02T11:05:16Z</time>
      </trkpt>
      <trkpt lat="47.69965" lon="-2.70581">
        <ele>41</ele>
        <time>2013-05-02T11:05:17Z</time>
      </trkpt>
      <trkpt lat="47.69963" lon="-2.70585">
        <ele>41</ele>
        <time>2013-05-02T11:05:18Z</time>
      </trkpt>
      <trkpt lat="47.6996" lon="-2.7059">
        <ele>41</ele>
        <time>2013-05-02T11:05:19Z</time>
      </trkpt>
      <trkpt lat="47.69958" lon="-2.70594">
        <ele>41</ele>
        <time>2013-05-02T11:05:20Z</time>
      </trkpt>
      <trkpt lat="47.69956" lon="-2.70599">
        <ele>41</ele>
        <time>2013-05-02T11:05:21Z</time>
      </trkpt>
      <trkpt lat="47.69954" lon="-2.70603">
        <ele>41</ele>
        <time>2013-05-02T11:05:22Z</time>
      </trkpt>
      <trkpt lat="47.69952" lon="-2.70607">
        <ele>41</ele>
        <time>2013-05-02T11:05:23Z</time>
      </trkpt>
      <trkpt lat="47.69951" lon="-2.70612">
        <ele>41</ele>
        <time>2013-05-02T11:05:24Z</time>
      </trkpt>
      <trkpt lat="47.6995" lon="-2.70617">
        <ele>41</ele>
        <time>2013-05-02T11:05:25Z</time>
      </trkpt>
      <trkpt lat="47.69949" lon="-2.70621">
        <ele>41</ele>
        <time>2013-05-02T11:05:26Z</time>
      </trkpt>
      <trkpt lat="47.69948" lon="-2.70625">
        <ele>41</ele>
        <time>2013-05-02T11:05:27Z</time>
      </trkpt>
      <trkpt lat="47.69947" lon="-2.70628">
        <ele>41</ele>
        <time>2013-05-02T11:05:28Z</time>
      </trkpt>
      <trkpt lat="47.69946" lon="-2.70632">
        <ele>41</ele>
        <time>2013-05-02T11:05:29Z</time>
      </trkpt>
      <trkpt lat="47.69944" lon="-2.70636">
        <ele>41</ele>
        <time>2013-05-02T11:05:30Z</time>
      </trkpt>
      <trkpt lat="47.69944" lon="-2.70639">
        <ele>41</ele>
        <time>2013-05-02T11:05:31Z</time>
      </trkpt>
      <trkpt lat="47.69943" lon="-2.70644">
        <ele>41</ele>
        <time>2013-05-02T11:05:32Z</time>
      </trkpt>
      <trkpt lat="47.69942" lon="-2.70648">
        <ele>41</ele>
        <time>2013-05-02T11:05:33Z</time>
      </trkpt>
      <trkpt lat="47.69941" lon="-2.70652">
        <ele>41</ele>
        <time>2013-05-02T11:05:34Z</time>
      </trkpt>
      <trkpt lat="47.6994" lon="-2.70656">
        <ele>41</ele>
        <time>2013-05-02T11:05:35Z</time>
      </trkpt>
      <trkpt lat="47.69939" lon="-2.70661">
        <ele>41</ele>
        <time>2013-05-02T11:05:36Z</time>
      </trkpt>
      <trkpt lat="47.69939" lon="-2.70665">
        <ele>41</ele>
        <time>2013-05-02T11:05:37Z</time>
      </trkpt>
      <trkpt lat="47.69938" lon="-2.70669">
        <ele>41</ele>
        <time>2013-05-02T11:05:38Z</time>
      </trkpt>
      <trkpt lat="47.69938" lon="-2.70673">
        <ele>41</ele>
        <time>2013-05-02T11:05:39Z</time>
      </trkpt>
      <trkpt lat="47.69938" lon="-2.70678">
        <ele>41</ele>
        <time>2013-05-02T11:05:40Z</time>
      </trkpt>
      <trkpt lat="47.69938" lon="-2.70683">
        <ele>41</ele>
        <time>2013-05-02T11:05:41Z</time>
      </trkpt>
      <trkpt lat="47.69938" lon="-2.70688">
        <ele>41</ele>
        <time>2013-05-02T11:05:42Z</time>
      </trkpt>
      <trkpt lat="47.69938" lon="-2.70693">
        <ele>41</ele>
        <time>2013-05-02T11:05:43Z</time>
      </trkpt>
      <trkpt lat="47.69938" lon="-2.70698">
        <ele>41</ele>
        <time>2013-05-02T11:05:44Z</time>
      </trkpt>
      <trkpt lat="47.69938" lon="-2.70703">
        <ele>41</ele>
        <time>2013-05-02T11:05:45Z</time>
      </trkpt>
      <trkpt lat="47.69938" lon="-2.70707">
        <ele>42</ele>
        <time>2013-05-02T11:05:46Z</time>
      </trkpt>
      <trkpt lat="47.69938" lon="-2.70712">
        <ele>42</ele>
        <time>2013-05-02T11:05:47Z</time>
      </trkpt>
      <trkpt lat="47.69939" lon="-2.70716">
        <ele>42</ele>
        <time>2013-05-02T11:05:48Z</time>
      </trkpt>
      <trkpt lat="47.69938" lon="-2.70721">
        <ele>42</ele>
        <time>2013-05-02T11:05:49Z</time>
      </trkpt>
      <trkpt lat="47.69939" lon="-2.70725">
        <ele>43</ele>
        <time>2013-05-02T11:05:50Z</time>
      </trkpt>
      <trkpt lat="47.69939" lon="-2.7073">
        <ele>43</ele>
        <time>2013-05-02T11:05:51Z</time>
      </trkpt>
      <trkpt lat="47.6994" lon="-2.70735">
        <ele>43</ele>
        <time>2013-05-02T11:05:52Z</time>
      </trkpt>
      <trkpt lat="47.69941" lon="-2.7074">
        <ele>44</ele>
        <time>2013-05-02T11:05:53Z</time>
      </trkpt>
      <trkpt lat="47.69942" lon="-2.70744">
        <ele>45</ele>
        <time>2013-05-02T11:05:54Z</time>
      </trkpt>
      <trkpt lat="47.69944" lon="-2.70748">
        <ele>45</ele>
        <time>2013-05-02T11:05:55Z</time>
      </trkpt>
      <trkpt lat="47.69946" lon="-2.7075">
        <ele>46</ele>
        <time>2013-05-02T11:05:56Z</time>
      </trkpt>
      <trkpt lat="47.69948" lon="-2.70752">
        <ele>47</ele>
        <time>2013-05-02T11:05:57Z</time>
      </trkpt>
      <trkpt lat="47.69949" lon="-2.70751">
        <ele>47</ele>
        <time>2013-05-02T11:05:58Z</time>
      </trkpt>
      <trkpt lat="47.69949" lon="-2.70749">
        <ele>47</ele>
        <time>2013-05-02T11:05:59Z</time>
      </trkpt>
      <trkpt lat="47.69949" lon="-2.70746">
        <ele>48</ele>
        <time>2013-05-02T11:06:00Z</time>
      </trkpt>
      <trkpt lat="47.69948" lon="-2.70745">
        <ele>48</ele>
        <time>2013-05-02T11:06:01Z</time>
      </trkpt>
      <trkpt lat="47.69948" lon="-2.70742">
        <ele>48</ele>
        <time>2013-05-02T11:06:02Z</time>
      </trkpt>
      <trkpt lat="47.69947" lon="-2.70739">
        <ele>48</ele>
        <time>2013-05-02T11:06:03Z</time>
      </trkpt>
      <trkpt lat="47.69946" lon="-2.70736">
        <ele>48</ele>
        <time>2013-05-02T11:06:04Z</time>
      </trkpt>
      <trkpt lat="47.69946" lon="-2.70732">
        <ele>48</ele>
        <time>2013-05-02T11:06:05Z</time>
      </trkpt>
      <trkpt lat="47.69945" lon="-2.70727">
        <ele>48</ele>
        <time>2013-05-02T11:06:06Z</time>
      </trkpt>
      <trkpt lat="47.69944" lon="-2.7072">
        <ele>48</ele>
        <time>2013-05-02T11:06:07Z</time>
      </trkpt>
      <trkpt lat="47.69944" lon="-2.70713">
        <ele>48</ele>
        <time>2013-05-02T11:06:08Z</time>
      </trkpt>
      <trkpt lat="47.69944" lon="-2.70706">
        <ele>48</ele>
        <time>2013-05-02T11:06:09Z</time>
      </trkpt>
      <trkpt lat="47.69944" lon="-2.70699">
        <ele>48</ele>
        <time>2013-05-02T11:06:10Z</time>
      </trkpt>
      <trkpt lat="47.69944" lon="-2.70691">
        <ele>48</ele>
        <time>2013-05-02T11:06:11Z</time>
      </trkpt>
      <trkpt lat="47.69946" lon="-2.70684">
        <ele>48</ele>
        <time>2013-05-02T11:06:12Z</time>
      </trkpt>
      <trkpt lat="47.69947" lon="-2.70676">
        <ele>48</ele>
        <time>2013-05-02T11:06:13Z</time>
      </trkpt>
      <trkpt lat="47.69948" lon="-2.70669">
        <ele>48</ele>
        <time>2013-05-02T11:06:14Z</time>
      </trkpt>
      <trkpt lat="47.6995" lon="-2.70661">
        <ele>48</ele>
        <time>2013-05-02T11:06:15Z</time>
      </trkpt>
      <trkpt lat="47.69952" lon="-2.70654">
        <ele>48</ele>
        <time>2013-05-02T11:06:16Z</time>
      </trkpt>
      <trkpt lat="47.69954" lon="-2.70646">
        <ele>48</ele>
        <time>2013-05-02T11:06:17Z</time>
      </trkpt>
      <trkpt lat="47.69956" lon="-2.70639">
        <ele>48</ele>
        <time>2013-05-02T11:06:18Z</time>
      </trkpt>
      <trkpt lat="47.69959" lon="-2.70632">
        <ele>48</ele>
        <time>2013-05-02T11:06:19Z</time>
      </trkpt>
      <trkpt lat="47.69962" lon="-2.70625">
        <ele>48</ele>
        <time>2013-05-02T11:06:20Z</time>
      </trkpt>
      <trkpt lat="47.69965" lon="-2.70617">
        <ele>48</ele>
        <time>2013-05-02T11:06:21Z</time>
      </trkpt>
      <trkpt lat="47.69968" lon="-2.7061">
        <ele>48</ele>
        <time>2013-05-02T11:06:22Z</time>
      </trkpt>
      <trkpt lat="47.69973" lon="-2.70603">
        <ele>48</ele>
        <time>2013-05-02T11:06:23Z</time>
      </trkpt>
      <trkpt lat="47.69978" lon="-2.70597">
        <ele>48</ele>
        <time>2013-05-02T11:06:24Z</time>
      </trkpt>
      <trkpt lat="47.69983" lon="-2.7059">
        <ele>48</ele>
        <time>2013-05-02T11:06:25Z</time>
      </trkpt>
      <trkpt lat="47.69986" lon="-2.70583">
        <ele>48</ele>
        <time>2013-05-02T11:06:26Z</time>
      </trkpt>
      <trkpt lat="47.69991" lon="-2.70577">
        <ele>48</ele>
        <time>2013-05-02T11:06:27Z</time>
      </trkpt>
      <trkpt lat="47.69995" lon="-2.7057">
        <ele>48</ele>
        <time>2013-05-02T11:06:28Z</time>
      </trkpt>
      <trkpt lat="47.69999" lon="-2.70565">
        <ele>48</ele>
        <time>2013-05-02T11:06:29Z</time>
      </trkpt>
      <trkpt lat="47.70002" lon="-2.70562">
        <ele>48</ele>
        <time>2013-05-02T11:06:30Z</time>
      </trkpt>
      <trkpt lat="47.70005" lon="-2.70561">
        <ele>48</ele>
        <time>2013-05-02T11:06:31Z</time>
      </trkpt>
      <trkpt lat="47.70006" lon="-2.70563">
        <ele>48</ele>
        <time>2013-05-02T11:06:33Z</time>
      </trkpt>
      <trkpt lat="47.70008" lon="-2.70565">
        <ele>48</ele>
        <time>2013-05-02T11:06:35Z</time>
      </trkpt>
      <trkpt lat="47.70009" lon="-2.70565">
        <ele>48</ele>
        <time>2013-05-02T11:06:36Z</time>
      </trkpt>
      <trkpt lat="47.70011" lon="-2.70565">
        <ele>48</ele>
        <time>2013-05-02T11:06:37Z</time>
      </trkpt>
      <trkpt lat="47.70013" lon="-2.70565">
        <ele>48</ele>
        <time>2013-05-02T11:06:38Z</time>
      </trkpt>
      <trkpt lat="47.70014" lon="-2.70565">
        <ele>48</ele>
        <time>2013-05-02T11:06:39Z</time>
      </trkpt>
      <trkpt lat="47.70016" lon="-2.70564">
        <ele>48</ele>
        <time>2013-05-02T11:06:41Z</time>
      </trkpt>
      <trkpt lat="47.70019" lon="-2.70564">
        <ele>48</ele>
        <time>2013-05-02T11:06:42Z</time>
      </trkpt>
      <trkpt lat="47.70021" lon="-2.70563">
        <ele>49</ele>
        <time>2013-05-02T11:06:43Z</time>
      </trkpt>
      <trkpt lat="47.70023" lon="-2.70562">
        <ele>49</ele>
        <time>2013-05-02T11:06:44Z</time>
      </trkpt>
      <trkpt lat="47.70024" lon="-2.70561">
        <ele>50</ele>
        <time>2013-05-02T11:06:45Z</time>
      </trkpt>
      <trkpt lat="47.70026" lon="-2.7056">
        <ele>50</ele>
        <time>2013-05-02T11:06:46Z</time>
      </trkpt>
      <trkpt lat="47.70029" lon="-2.7056">
        <ele>50</ele>
        <time>2013-05-02T11:06:47Z</time>
      </trkpt>
      <trkpt lat="47.70031" lon="-2.7056">
        <ele>51</ele>
        <time>2013-05-02T11:06:48Z</time>
      </trkpt>
      <trkpt lat="47.70032" lon="-2.70559">
        <ele>51</ele>
        <time>2013-05-02T11:06:49Z</time>
      </trkpt>
      <trkpt lat="47.70034" lon="-2.70559">
        <ele>51</ele>
        <time>2013-05-02T11:06:50Z</time>
      </trkpt>
      <trkpt lat="47.70037" lon="-2.70557">
        <ele>51</ele>
        <time>2013-05-02T11:06:51Z</time>
      </trkpt>
      <trkpt lat="47.70039" lon="-2.70556">
        <ele>52</ele>
        <time>2013-05-02T11:06:52Z</time>
      </trkpt>
      <trkpt lat="47.7004" lon="-2.70554">
        <ele>52</ele>
        <time>2013-05-02T11:06:53Z</time>
      </trkpt>
      <trkpt lat="47.70042" lon="-2.70553">
        <ele>53</ele>
        <time>2013-05-02T11:06:54Z</time>
      </trkpt>
      <trkpt lat="47.70043" lon="-2.70553">
        <ele>54</ele>
        <time>2013-05-02T11:06:55Z</time>
      </trkpt>
      <trkpt lat="47.70044" lon="-2.70551">
        <ele>55</ele>
        <time>2013-05-02T11:06:56Z</time>
      </trkpt>
      <trkpt lat="47.70045" lon="-2.70549">
        <ele>56</ele>
        <time>2013-05-02T11:06:57Z</time>
      </trkpt>
      <trkpt lat="47.70047" lon="-2.70546">
        <ele>56</ele>
        <time>2013-05-02T11:06:58Z</time>
      </trkpt>
      <trkpt lat="47.70048" lon="-2.70544">
        <ele>57</ele>
        <time>2013-05-02T11:06:59Z</time>
      </trkpt>
      <trkpt lat="47.7005" lon="-2.70541">
        <ele>57</ele>
        <time>2013-05-02T11:07:00Z</time>
      </trkpt>
      <trkpt lat="47.70052" lon="-2.70539">
        <ele>57</ele>
        <time>2013-05-02T11:07:01Z</time>
      </trkpt>
      <trkpt lat="47.70053" lon="-2.70537">
        <ele>57</ele>
        <time>2013-05-02T11:07:02Z</time>
      </trkpt>
      <trkpt lat="47.70054" lon="-2.70534">
        <ele>57</ele>
        <time>2013-05-02T11:07:03Z</time>
      </trkpt>
      <trkpt lat="47.70055" lon="-2.70532">
        <ele>57</ele>
        <time>2013-05-02T11:07:04Z</time>
      </trkpt>
      <trkpt lat="47.70056" lon="-2.7053">
        <ele>58</ele>
        <time>2013-05-02T11:07:05Z</time>
      </trkpt>
      <trkpt lat="47.70057" lon="-2.70528">
        <ele>58</ele>
        <time>2013-05-02T11:07:06Z</time>
      </trkpt>
      <trkpt lat="47.70058" lon="-2.70526">
        <ele>59</ele>
        <time>2013-05-02T11:07:07Z</time>
      </trkpt>
      <trkpt lat="47.7006" lon="-2.70523">
        <ele>59</ele>
        <time>2013-05-02T11:07:08Z</time>
      </trkpt>
      <trkpt lat="47.7006" lon="-2.70521">
        <ele>59</ele>
        <time>2013-05-02T11:07:09Z</time>
      </trkpt>
      <trkpt lat="47.70061" lon="-2.70518">
        <ele>60</ele>
        <time>2013-05-02T11:07:10Z</time>
      </trkpt>
      <trkpt lat="47.70063" lon="-2.70516">
        <ele>60</ele>
        <time>2013-05-02T11:07:11Z</time>
      </trkpt>
      <trkpt lat="47.70064" lon="-2.70515">
        <ele>60</ele>
        <time>2013-05-02T11:07:12Z</time>
      </trkpt>
      <trkpt lat="47.70065" lon="-2.70513">
        <ele>60</ele>
        <time>2013-05-02T11:07:13Z</time>
      </trkpt>
      <trkpt lat="47.70067" lon="-2.70512">
        <ele>61</ele>
        <time>2013-05-02T11:07:14Z</time>
      </trkpt>
      <trkpt lat="47.70068" lon="-2.7051">
        <ele>61</ele>
        <time>2013-05-02T11:07:15Z</time>
      </trkpt>
      <trkpt lat="47.7007" lon="-2.70509">
        <ele>61</ele>
        <time>2013-05-02T11:07:16Z</time>
      </trkpt>
      <trkpt lat="47.70071" lon="-2.70508">
        <ele>62</ele>
        <time>2013-05-02T11:07:17Z</time>
      </trkpt>
      <trkpt lat="47.70073" lon="-2.70507">
        <ele>62</ele>
        <time>2013-05-02T11:07:18Z</time>
      </trkpt>
      <trkpt lat="47.70074" lon="-2.70506">
        <ele>62</ele>
        <time>2013-05-02T11:07:19Z</time>
      </trkpt>
      <trkpt lat="47.70075" lon="-2.70504">
        <ele>62</ele>
        <time>2013-05-02T11:07:20Z</time>
      </trkpt>
      <trkpt lat="47.70077" lon="-2.70503">
        <ele>62</ele>
        <time>2013-05-02T11:07:21Z</time>
      </trkpt>
      <trkpt lat="47.70078" lon="-2.70502">
        <ele>62</ele>
        <time>2013-05-02T11:07:22Z</time>
      </trkpt>
      <trkpt lat="47.70079" lon="-2.705">
        <ele>63</ele>
        <time>2013-05-02T11:07:23Z</time>
      </trkpt>
      <trkpt lat="47.7008" lon="-2.70498">
        <ele>63</ele>
        <time>2013-05-02T11:07:24Z</time>
      </trkpt>
      <trkpt lat="47.70081" lon="-2.70496">
        <ele>63</ele>
        <time>2013-05-02T11:07:25Z</time>
      </trkpt>
      <trkpt lat="47.70082" lon="-2.70495">
        <ele>64</ele>
        <time>2013-05-02T11:07:26Z</time>
      </trkpt>
      <trkpt lat="47.70083" lon="-2.70493">
        <ele>65</ele>
        <time>2013-05-02T11:07:27Z</time>
      </trkpt>
      <trkpt lat="47.70085" lon="-2.70491">
        <ele>65</ele>
        <time>2013-05-02T11:07:28Z</time>
      </trkpt>
      <trkpt lat="47.70086" lon="-2.7049">
        <ele>65</ele>
        <time>2013-05-02T11:07:29Z</time>
      </trkpt>
      <trkpt lat="47.70088" lon="-2.70487">
        <ele>66</ele>
        <time>2013-05-02T11:07:30Z</time>
      </trkpt>
      <trkpt lat="47.70089" lon="-2.70486">
        <ele>66</ele>
        <time>2013-05-02T11:07:31Z</time>
      </trkpt>
      <trkpt lat="47.70092" lon="-2.70485">
        <ele>66</ele>
        <time>2013-05-02T11:07:32Z</time>
      </trkpt>
      <trkpt lat="47.70093" lon="-2.70484">
        <ele>66</ele>
        <time>2013-05-02T11:07:33Z</time>
      </trkpt>
      <trkpt lat="47.70094" lon="-2.70483">
        <ele>66</ele>
        <time>2013-05-02T11:07:34Z</time>
      </trkpt>
      <trkpt lat="47.70095" lon="-2.70481">
        <ele>66</ele>
        <time>2013-05-02T11:07:35Z</time>
      </trkpt>
      <trkpt lat="47.70096" lon="-2.7048">
        <ele>66</ele>
        <time>2013-05-02T11:07:36Z</time>
      </trkpt>
      <trkpt lat="47.70098" lon="-2.70478">
        <ele>66</ele>
        <time>2013-05-02T11:07:37Z</time>
      </trkpt>
      <trkpt lat="47.701" lon="-2.70476">
        <ele>66</ele>
        <time>2013-05-02T11:07:38Z</time>
      </trkpt>
      <trkpt lat="47.701" lon="-2.70474">
        <ele>66</ele>
        <time>2013-05-02T11:07:39Z</time>
      </trkpt>
      <trkpt lat="47.70102" lon="-2.70472">
        <ele>66</ele>
        <time>2013-05-02T11:07:40Z</time>
      </trkpt>
      <trkpt lat="47.70104" lon="-2.7047">
        <ele>66</ele>
        <time>2013-05-02T11:07:41Z</time>
      </trkpt>
      <trkpt lat="47.70105" lon="-2.70469">
        <ele>66</ele>
        <time>2013-05-02T11:07:42Z</time>
      </trkpt>
      <trkpt lat="47.70107" lon="-2.70467">
        <ele>66</ele>
        <time>2013-05-02T11:07:43Z</time>
      </trkpt>
      <trkpt lat="47.70109" lon="-2.70466">
        <ele>66</ele>
        <time>2013-05-02T11:07:44Z</time>
      </trkpt>
      <trkpt lat="47.70111" lon="-2.70465">
        <ele>66</ele>
        <time>2013-05-02T11:07:45Z</time>
      </trkpt>
      <trkpt lat="47.70113" lon="-2.70465">
        <ele>66</ele>
        <time>2013-05-02T11:07:46Z</time>
      </trkpt>
      <trkpt lat="47.70115" lon="-2.70464">
        <ele>66</ele>
        <time>2013-05-02T11:07:47Z</time>
      </trkpt>
      <trkpt lat="47.70117" lon="-2.70463">
        <ele>66</ele>
        <time>2013-05-02T11:07:48Z</time>
      </trkpt>
      <trkpt lat="47.70118" lon="-2.70462">
        <ele>66</ele>
        <time>2013-05-02T11:07:49Z</time>
      </trkpt>
      <trkpt lat="47.7012" lon="-2.70462">
        <ele>66</ele>
        <time>2013-05-02T11:07:50Z</time>
      </trkpt>
      <trkpt lat="47.70122" lon="-2.70459">
        <ele>66</ele>
        <time>2013-05-02T11:07:52Z</time>
      </trkpt>
      <trkpt lat="47.70123" lon="-2.70458">
        <ele>66</ele>
        <time>2013-05-02T11:07:53Z</time>
      </trkpt>
      <trkpt lat="47.70125" lon="-2.70456">
        <ele>66</ele>
        <time>2013-05-02T11:07:54Z</time>
      </trkpt>
      <trkpt lat="47.70127" lon="-2.70454">
        <ele>66</ele>
        <time>2013-05-02T11:07:55Z</time>
      </trkpt>
      <trkpt lat="47.70129" lon="-2.70452">
        <ele>66</ele>
        <time>2013-05-02T11:07:56Z</time>
      </trkpt>
      <trkpt lat="47.70131" lon="-2.7045">
        <ele>66</ele>
        <time>2013-05-02T11:07:57Z</time>
      </trkpt>
      <trkpt lat="47.70133" lon="-2.70449">
        <ele>66</ele>
        <time>2013-05-02T11:07:58Z</time>
      </trkpt>
      <trkpt lat="47.70135" lon="-2.70448">
        <ele>66</ele>
        <time>2013-05-02T11:07:59Z</time>
      </trkpt>
      <trkpt lat="47.70137" lon="-2.70447">
        <ele>66</ele>
        <time>2013-05-02T11:08:00Z</time>
      </trkpt>
      <trkpt lat="47.70138" lon="-2.70445">
        <ele>67</ele>
        <time>2013-05-02T11:08:01Z</time>
      </trkpt>
      <trkpt lat="47.7014" lon="-2.70444">
        <ele>67</ele>
        <time>2013-05-02T11:08:02Z</time>
      </trkpt>
      <trkpt lat="47.70142" lon="-2.70442">
        <ele>67</ele>
        <time>2013-05-02T11:08:03Z</time>
      </trkpt>
      <trkpt lat="47.70144" lon="-2.7044">
        <ele>67</ele>
        <time>2013-05-02T11:08:04Z</time>
      </trkpt>
      <trkpt lat="47.70145" lon="-2.70438">
        <ele>67</ele>
        <time>2013-05-02T11:08:05Z</time>
      </trkpt>
      <trkpt lat="47.70146" lon="-2.70435">
        <ele>67</ele>
        <time>2013-05-02T11:08:06Z</time>
      </trkpt>
      <trkpt lat="47.70147" lon="-2.70433">
        <ele>67</ele>
        <time>2013-05-02T11:08:07Z</time>
      </trkpt>
      <trkpt lat="47.7015" lon="-2.70431">
        <ele>67</ele>
        <time>2013-05-02T11:08:08Z</time>
      </trkpt>
      <trkpt lat="47.70154" lon="-2.70429">
        <ele>67</ele>
        <time>2013-05-02T11:08:09Z</time>
      </trkpt>
      <trkpt lat="47.70157" lon="-2.70427">
        <ele>67</ele>
        <time>2013-05-02T11:08:10Z</time>
      </trkpt>
      <trkpt lat="47.7016" lon="-2.70426">
        <ele>68</ele>
        <time>2013-05-02T11:08:11Z</time>
      </trkpt>
      <trkpt lat="47.70164" lon="-2.70424">
        <ele>68</ele>
        <time>2013-05-02T11:08:12Z</time>
      </trkpt>
      <trkpt lat="47.70167" lon="-2.70423">
        <ele>68</ele>
        <time>2013-05-02T11:08:13Z</time>
      </trkpt>
      <trkpt lat="47.70169" lon="-2.70423">
        <ele>68</ele>
        <time>2013-05-02T11:08:14Z</time>
      </trkpt>
      <trkpt lat="47.70171" lon="-2.7042">
        <ele>68</ele>
        <time>2013-05-02T11:08:15Z</time>
      </trkpt>
      <trkpt lat="47.70174" lon="-2.70418">
        <ele>68</ele>
        <time>2013-05-02T11:08:16Z</time>
      </trkpt>
      <trkpt lat="47.70176" lon="-2.70416">
        <ele>68</ele>
        <time>2013-05-02T11:08:17Z</time>
      </trkpt>
      <trkpt lat="47.70176" lon="-2.70414">
        <ele>69</ele>
        <time>2013-05-02T11:08:18Z</time>
      </trkpt>
      <trkpt lat="47.70178" lon="-2.70412">
        <ele>69</ele>
        <time>2013-05-02T11:08:19Z</time>
      </trkpt>
      <trkpt lat="47.7018" lon="-2.7041">
        <ele>70</ele>
        <time>2013-05-02T11:08:20Z</time>
      </trkpt>
      <trkpt lat="47.70182" lon="-2.7041">
        <ele>70</ele>
        <time>2013-05-02T11:08:21Z</time>
      </trkpt>
      <trkpt lat="47.70186" lon="-2.7041">
        <ele>71</ele>
        <time>2013-05-02T11:08:22Z</time>
      </trkpt>
      <trkpt lat="47.70188" lon="-2.70411">
        <ele>71</ele>
        <time>2013-05-02T11:08:23Z</time>
      </trkpt>
      <trkpt lat="47.70191" lon="-2.70412">
        <ele>71</ele>
        <time>2013-05-02T11:08:24Z</time>
      </trkpt>
      <trkpt lat="47.70194" lon="-2.70413">
        <ele>72</ele>
        <time>2013-05-02T11:08:25Z</time>
      </trkpt>
      <trkpt lat="47.70196" lon="-2.70413">
        <ele>72</ele>
        <time>2013-05-02T11:08:26Z</time>
      </trkpt>
      <trkpt lat="47.70199" lon="-2.70413">
        <ele>73</ele>
        <time>2013-05-02T11:08:27Z</time>
      </trkpt>
      <trkpt lat="47.70202" lon="-2.70413">
        <ele>73</ele>
        <time>2013-05-02T11:08:28Z</time>
      </trkpt>
      <trkpt lat="47.70204" lon="-2.70412">
        <ele>74</ele>
        <time>2013-05-02T11:08:29Z</time>
      </trkpt>
      <trkpt lat="47.70207" lon="-2.70413">
        <ele>74</ele>
        <time>2013-05-02T11:08:30Z</time>
      </trkpt>
      <trkpt lat="47.7021" lon="-2.70414">
        <ele>74</ele>
        <time>2013-05-02T11:08:31Z</time>
      </trkpt>
      <trkpt lat="47.70213" lon="-2.70415">
        <ele>75</ele>
        <time>2013-05-02T11:08:32Z</time>
      </trkpt>
      <trkpt lat="47.70215" lon="-2.70414">
        <ele>76</ele>
        <time>2013-05-02T11:08:33Z</time>
      </trkpt>
      <trkpt lat="47.70217" lon="-2.70414">
        <ele>76</ele>
        <time>2013-05-02T11:08:34Z</time>
      </trkpt>
      <trkpt lat="47.7022" lon="-2.70414">
        <ele>76</ele>
        <time>2013-05-02T11:08:35Z</time>
      </trkpt>
      <trkpt lat="47.70222" lon="-2.70414">
        <ele>77</ele>
        <time>2013-05-02T11:08:36Z</time>
      </trkpt>
      <trkpt lat="47.70224" lon="-2.70413">
        <ele>77</ele>
        <time>2013-05-02T11:08:37Z</time>
      </trkpt>
      <trkpt lat="47.70225" lon="-2.70414">
        <ele>78</ele>
        <time>2013-05-02T11:08:38Z</time>
      </trkpt>
      <trkpt lat="47.70228" lon="-2.70414">
        <ele>78</ele>
        <time>2013-05-02T11:08:39Z</time>
      </trkpt>
      <trkpt lat="47.7023" lon="-2.70414">
        <ele>79</ele>
        <time>2013-05-02T11:08:40Z</time>
      </trkpt>
      <trkpt lat="47.70233" lon="-2.70415">
        <ele>79</ele>
        <time>2013-05-02T11:08:41Z</time>
      </trkpt>
      <trkpt lat="47.70235" lon="-2.70416">
        <ele>79</ele>
        <time>2013-05-02T11:08:42Z</time>
      </trkpt>
      <trkpt lat="47.70237" lon="-2.70416">
        <ele>80</ele>
        <time>2013-05-02T11:08:43Z</time>
      </trkpt>
      <trkpt lat="47.7024" lon="-2.70416">
        <ele>80</ele>
        <time>2013-05-02T11:08:44Z</time>
      </trkpt>
      <trkpt lat="47.70242" lon="-2.70416">
        <ele>80</ele>
        <time>2013-05-02T11:08:45Z</time>
      </trkpt>
      <trkpt lat="47.70244" lon="-2.70415">
        <ele>81</ele>
        <time>2013-05-02T11:08:46Z</time>
      </trkpt>
      <trkpt lat="47.70246" lon="-2.70414">
        <ele>81</ele>
        <time>2013-05-02T11:08:47Z</time>
      </trkpt>
      <trkpt lat="47.70247" lon="-2.70413">
        <ele>81</ele>
        <time>2013-05-02T11:08:48Z</time>
      </trkpt>
      <trkpt lat="47.70249" lon="-2.70411">
        <ele>81</ele>
        <time>2013-05-02T11:08:49Z</time>
      </trkpt>
      <trkpt lat="47.70252" lon="-2.70409">
        <ele>81</ele>
        <time>2013-05-02T11:08:50Z</time>
      </trkpt>
      <trkpt lat="47.70254" lon="-2.70406">
        <ele>82</ele>
        <time>2013-05-02T11:08:51Z</time>
      </trkpt>
      <trkpt lat="47.70256" lon="-2.70401">
        <ele>82</ele>
        <time>2013-05-02T11:08:52Z</time>
      </trkpt>
      <trkpt lat="47.70258" lon="-2.70396">
        <ele>82</ele>
        <time>2013-05-02T11:08:53Z</time>
      </trkpt>
      <trkpt lat="47.7026" lon="-2.70391">
        <ele>82</ele>
        <time>2013-05-02T11:08:54Z</time>
      </trkpt>
      <trkpt lat="47.70262" lon="-2.70386">
        <ele>83</ele>
        <time>2013-05-02T11:08:55Z</time>
      </trkpt>
      <trkpt lat="47.70263" lon="-2.70381">
        <ele>83</ele>
        <time>2013-05-02T11:08:56Z</time>
      </trkpt>
      <trkpt lat="47.70265" lon="-2.70376">
        <ele>83</ele>
        <time>2013-05-02T11:08:57Z</time>
      </trkpt>
      <trkpt lat="47.70267" lon="-2.70372">
        <ele>83</ele>
        <time>2013-05-02T11:08:58Z</time>
      </trkpt>
      <trkpt lat="47.70269" lon="-2.70367">
        <ele>83</ele>
        <time>2013-05-02T11:08:59Z</time>
      </trkpt>
      <trkpt lat="47.7027" lon="-2.70362">
        <ele>83</ele>
        <time>2013-05-02T11:09:00Z</time>
      </trkpt>
      <trkpt lat="47.70271" lon="-2.70356">
        <ele>83</ele>
        <time>2013-05-02T11:09:01Z</time>
      </trkpt>
      <trkpt lat="47.70271" lon="-2.70351">
        <ele>83</ele>
        <time>2013-05-02T11:09:02Z</time>
      </trkpt>
      <trkpt lat="47.70269" lon="-2.70347">
        <ele>84</ele>
        <time>2013-05-02T11:09:03Z</time>
      </trkpt>
      <trkpt lat="47.70268" lon="-2.70342">
        <ele>84</ele>
        <time>2013-05-02T11:09:04Z</time>
      </trkpt>
      <trkpt lat="47.70267" lon="-2.70337">
        <ele>84</ele>
        <time>2013-05-02T11:09:05Z</time>
      </trkpt>
      <trkpt lat="47.70266" lon="-2.70332">
        <ele>84</ele>
        <time>2013-05-02T11:09:06Z</time>
      </trkpt>
      <trkpt lat="47.70264" lon="-2.70328">
        <ele>84</ele>
        <time>2013-05-02T11:09:07Z</time>
      </trkpt>
      <trkpt lat="47.70261" lon="-2.70324">
        <ele>84</ele>
        <time>2013-05-02T11:09:08Z</time>
      </trkpt>
      <trkpt lat="47.70257" lon="-2.7032">
        <ele>84</ele>
        <time>2013-05-02T11:09:09Z</time>
      </trkpt>
      <trkpt lat="47.70253" lon="-2.70315">
        <ele>84</ele>
        <time>2013-05-02T11:09:10Z</time>
      </trkpt>
      <trkpt lat="47.70251" lon="-2.7031">
        <ele>84</ele>
        <time>2013-05-02T11:09:11Z</time>
      </trkpt>
      <trkpt lat="47.7025" lon="-2.70305">
        <ele>84</ele>
        <time>2013-05-02T11:09:12Z</time>
      </trkpt>
      <trkpt lat="47.70249" lon="-2.703">
        <ele>84</ele>
        <time>2013-05-02T11:09:13Z</time>
      </trkpt>
      <trkpt lat="47.70249" lon="-2.70294">
        <ele>84</ele>
        <time>2013-05-02T11:09:14Z</time>
      </trkpt>
      <trkpt lat="47.7025" lon="-2.70288">
        <ele>84</ele>
        <time>2013-05-02T11:09:15Z</time>
      </trkpt>
      <trkpt lat="47.70251" lon="-2.70282">
        <ele>84</ele>
        <time>2013-05-02T11:09:16Z</time>
      </trkpt>
      <trkpt lat="47.70253" lon="-2.70275">
        <ele>84</ele>
        <time>2013-05-02T11:09:17Z</time>
      </trkpt>
      <trkpt lat="47.70254" lon="-2.70269">
        <ele>83</ele>
        <time>2013-05-02T11:09:18Z</time>
      </trkpt>
      <trkpt lat="47.70255" lon="-2.70262">
        <ele>82</ele>
        <time>2013-05-02T11:09:19Z</time>
      </trkpt>
      <trkpt lat="47.70255" lon="-2.70255">
        <ele>81</ele>
        <time>2013-05-02T11:09:20Z</time>
      </trkpt>
      <trkpt lat="47.70255" lon="-2.70249">
        <ele>80</ele>
        <time>2013-05-02T11:09:21Z</time>
      </trkpt>
      <trkpt lat="47.70254" lon="-2.70245">
        <ele>79</ele>
        <time>2013-05-02T11:09:22Z</time>
      </trkpt>
      <trkpt lat="47.70253" lon="-2.70241">
        <ele>78</ele>
        <time>2013-05-02T11:09:23Z</time>
      </trkpt>
      <trkpt lat="47.70254" lon="-2.70239">
        <ele>78</ele>
        <time>2013-05-02T11:09:24Z</time>
      </trkpt>
      <trkpt lat="47.70254" lon="-2.70236">
        <ele>78</ele>
        <time>2013-05-02T11:09:25Z</time>
      </trkpt>
      <trkpt lat="47.70255" lon="-2.70233">
        <ele>78</ele>
        <time>2013-05-02T11:09:26Z</time>
      </trkpt>
      <trkpt lat="47.70257" lon="-2.70229">
        <ele>78</ele>
        <time>2013-05-02T11:09:27Z</time>
      </trkpt>
      <trkpt lat="47.70257" lon="-2.70224">
        <ele>77</ele>
        <time>2013-05-02T11:09:28Z</time>
      </trkpt>
      <trkpt lat="47.70258" lon="-2.7022">
        <ele>77</ele>
        <time>2013-05-02T11:09:29Z</time>
      </trkpt>
      <trkpt lat="47.70259" lon="-2.70215">
        <ele>76</ele>
        <time>2013-05-02T11:09:30Z</time>
      </trkpt>
      <trkpt lat="47.7026" lon="-2.70208">
        <ele>76</ele>
        <time>2013-05-02T11:09:31Z</time>
      </trkpt>
      <trkpt lat="47.70261" lon="-2.70201">
        <ele>76</ele>
        <time>2013-05-02T11:09:32Z</time>
      </trkpt>
      <trkpt lat="47.70262" lon="-2.70194">
        <ele>75</ele>
        <time>2013-05-02T11:09:33Z</time>
      </trkpt>
      <trkpt lat="47.70263" lon="-2.70186">
        <ele>75</ele>
        <time>2013-05-02T11:09:34Z</time>
      </trkpt>
      <trkpt lat="47.70264" lon="-2.7018">
        <ele>75</ele>
        <time>2013-05-02T11:09:35Z</time>
      </trkpt>
      <trkpt lat="47.70267" lon="-2.70176">
        <ele>74</ele>
        <time>2013-05-02T11:09:36Z</time>
      </trkpt>
      <trkpt lat="47.70268" lon="-2.7017">
        <ele>73</ele>
        <time>2013-05-02T11:09:37Z</time>
      </trkpt>
      <trkpt lat="47.7027" lon="-2.70165">
        <ele>73</ele>
        <time>2013-05-02T11:09:38Z</time>
      </trkpt>
      <trkpt lat="47.70273" lon="-2.7016">
        <ele>72</ele>
        <time>2013-05-02T11:09:39Z</time>
      </trkpt>
      <trkpt lat="47.70275" lon="-2.70155">
        <ele>72</ele>
        <time>2013-05-02T11:09:40Z</time>
      </trkpt>
      <trkpt lat="47.70278" lon="-2.70149">
        <ele>71</ele>
        <time>2013-05-02T11:09:41Z</time>
      </trkpt>
      <trkpt lat="47.7028" lon="-2.70145">
        <ele>71</ele>
        <time>2013-05-02T11:09:42Z</time>
      </trkpt>
      <trkpt lat="47.70282" lon="-2.70141">
        <ele>70</ele>
        <time>2013-05-02T11:09:43Z</time>
      </trkpt>
      <trkpt lat="47.70285" lon="-2.70137">
        <ele>70</ele>
        <time>2013-05-02T11:09:44Z</time>
      </trkpt>
      <trkpt lat="47.70287" lon="-2.70133">
        <ele>69</ele>
        <time>2013-05-02T11:09:45Z</time>
      </trkpt>
      <trkpt lat="47.70289" lon="-2.70129">
        <ele>69</ele>
        <time>2013-05-02T11:09:46Z</time>
      </trkpt>
      <trkpt lat="47.70291" lon="-2.70125">
        <ele>69</ele>
        <time>2013-05-02T11:09:47Z</time>
      </trkpt>
      <trkpt lat="47.70292" lon="-2.70122">
        <ele>69</ele>
        <time>2013-05-02T11:09:48Z</time>
      </trkpt>
      <trkpt lat="47.70294" lon="-2.70118">
        <ele>69</ele>
        <time>2013-05-02T11:09:49Z</time>
      </trkpt>
      <trkpt lat="47.70296" lon="-2.70114">
        <ele>69</ele>
        <time>2013-05-02T11:09:50Z</time>
      </trkpt>
      <trkpt lat="47.70298" lon="-2.7011">
        <ele>69</ele>
        <time>2013-05-02T11:09:51Z</time>
      </trkpt>
      <trkpt lat="47.70301" lon="-2.70106">
        <ele>69</ele>
        <time>2013-05-02T11:09:52Z</time>
      </trkpt>
      <trkpt lat="47.70303" lon="-2.70103">
        <ele>69</ele>
        <time>2013-05-02T11:09:53Z</time>
      </trkpt>
      <trkpt lat="47.70306" lon="-2.701">
        <ele>69</ele>
        <time>2013-05-02T11:09:54Z</time>
      </trkpt>
      <trkpt lat="47.70309" lon="-2.70099">
        <ele>69</ele>
        <time>2013-05-02T11:09:55Z</time>
      </trkpt>
      <trkpt lat="47.70311" lon="-2.70097">
        <ele>69</ele>
        <time>2013-05-02T11:09:56Z</time>
      </trkpt>
      <trkpt lat="47.70314" lon="-2.70095">
        <ele>69</ele>
        <time>2013-05-02T11:09:57Z</time>
      </trkpt>
      <trkpt lat="47.70317" lon="-2.70093">
        <ele>69</ele>
        <time>2013-05-02T11:09:58Z</time>
      </trkpt>
      <trkpt lat="47.7032" lon="-2.70091">
        <ele>69</ele>
        <time>2013-05-02T11:09:59Z</time>
      </trkpt>
      <trkpt lat="47.70323" lon="-2.70089">
        <ele>69</ele>
        <time>2013-05-02T11:10:00Z</time>
      </trkpt>
      <trkpt lat="47.70326" lon="-2.70088">
        <ele>69</ele>
        <time>2013-05-02T11:10:01Z</time>
      </trkpt>
      <trkpt lat="47.70329" lon="-2.70086">
        <ele>69</ele>
        <time>2013-05-02T11:10:02Z</time>
      </trkpt>
      <trkpt lat="47.70332" lon="-2.70085">
        <ele>69</ele>
        <time>2013-05-02T11:10:03Z</time>
      </trkpt>
      <trkpt lat="47.70334" lon="-2.70082">
        <ele>69</ele>
        <time>2013-05-02T11:10:04Z</time>
      </trkpt>
      <trkpt lat="47.70337" lon="-2.70081">
        <ele>69</ele>
        <time>2013-05-02T11:10:05Z</time>
      </trkpt>
      <trkpt lat="47.7034" lon="-2.70079">
        <ele>69</ele>
        <time>2013-05-02T11:10:06Z</time>
      </trkpt>
      <trkpt lat="47.70341" lon="-2.70078">
        <ele>69</ele>
        <time>2013-05-02T11:10:07Z</time>
      </trkpt>
      <trkpt lat="47.70344" lon="-2.70077">
        <ele>69</ele>
        <time>2013-05-02T11:10:08Z</time>
      </trkpt>
      <trkpt lat="47.70347" lon="-2.70075">
        <ele>69</ele>
        <time>2013-05-02T11:10:09Z</time>
      </trkpt>
      <trkpt lat="47.7035" lon="-2.70074">
        <ele>69</ele>
        <time>2013-05-02T11:10:10Z</time>
      </trkpt>
      <trkpt lat="47.70354" lon="-2.70072">
        <ele>69</ele>
        <time>2013-05-02T11:10:11Z</time>
      </trkpt>
      <trkpt lat="47.70358" lon="-2.70069">
        <ele>69</ele>
        <time>2013-05-02T11:10:12Z</time>
      </trkpt>
      <trkpt lat="47.70362" lon="-2.70068">
        <ele>69</ele>
        <time>2013-05-02T11:10:13Z</time>
      </trkpt>
      <trkpt lat="47.70367" lon="-2.70068">
        <ele>69</ele>
        <time>2013-05-02T11:10:14Z</time>
      </trkpt>
      <trkpt lat="47.7037" lon="-2.70067">
        <ele>69</ele>
        <time>2013-05-02T11:10:15Z</time>
      </trkpt>
      <trkpt lat="47.70375" lon="-2.70067">
        <ele>69</ele>
        <time>2013-05-02T11:10:16Z</time>
      </trkpt>
      <trkpt lat="47.70378" lon="-2.70067">
        <ele>69</ele>
        <time>2013-05-02T11:10:17Z</time>
      </trkpt>
      <trkpt lat="47.70383" lon="-2.70068">
        <ele>69</ele>
        <time>2013-05-02T11:10:18Z</time>
      </trkpt>
      <trkpt lat="47.70388" lon="-2.7007">
        <ele>69</ele>
        <time>2013-05-02T11:10:19Z</time>
      </trkpt>
      <trkpt lat="47.70393" lon="-2.70072">
        <ele>69</ele>
        <time>2013-05-02T11:10:20Z</time>
      </trkpt>
      <trkpt lat="47.70396" lon="-2.70073">
        <ele>70</ele>
        <time>2013-05-02T11:10:21Z</time>
      </trkpt>
      <trkpt lat="47.704" lon="-2.70075">
        <ele>71</ele>
        <time>2013-05-02T11:10:22Z</time>
      </trkpt>
      <trkpt lat="47.70405" lon="-2.70077">
        <ele>71</ele>
        <time>2013-05-02T11:10:23Z</time>
      </trkpt>
      <trkpt lat="47.70407" lon="-2.70081">
        <ele>72</ele>
        <time>2013-05-02T11:10:24Z</time>
      </trkpt>
      <trkpt lat="47.70411" lon="-2.70084">
        <ele>72</ele>
        <time>2013-05-02T11:10:25Z</time>
      </trkpt>
      <trkpt lat="47.70413" lon="-2.70087">
        <ele>72</ele>
        <time>2013-05-02T11:10:26Z</time>
      </trkpt>
      <trkpt lat="47.70413" lon="-2.70091">
        <ele>72</ele>
        <time>2013-05-02T11:10:27Z</time>
      </trkpt>
      <trkpt lat="47.70415" lon="-2.70093">
        <ele>72</ele>
        <time>2013-05-02T11:10:28Z</time>
      </trkpt>
      <trkpt lat="47.70418" lon="-2.70097">
        <ele>72</ele>
        <time>2013-05-02T11:10:29Z</time>
      </trkpt>
      <trkpt lat="47.7042" lon="-2.70102">
        <ele>72</ele>
        <time>2013-05-02T11:10:30Z</time>
      </trkpt>
      <trkpt lat="47.70424" lon="-2.70106">
        <ele>72</ele>
        <time>2013-05-02T11:10:31Z</time>
      </trkpt>
      <trkpt lat="47.70427" lon="-2.70109">
        <ele>72</ele>
        <time>2013-05-02T11:10:32Z</time>
      </trkpt>
      <trkpt lat="47.7043" lon="-2.70112">
        <ele>72</ele>
        <time>2013-05-02T11:10:33Z</time>
      </trkpt>
      <trkpt lat="47.70433" lon="-2.70115">
        <ele>72</ele>
        <time>2013-05-02T11:10:34Z</time>
      </trkpt>
      <trkpt lat="47.70436" lon="-2.7012">
        <ele>72</ele>
        <time>2013-05-02T11:10:35Z</time>
      </trkpt>
      <trkpt lat="47.70438" lon="-2.70124">
        <ele>72</ele>
        <time>2013-05-02T11:10:36Z</time>
      </trkpt>
      <trkpt lat="47.70441" lon="-2.70128">
        <ele>72</ele>
        <time>2013-05-02T11:10:37Z</time>
      </trkpt>
      <trkpt lat="47.70443" lon="-2.70131">
        <ele>72</ele>
        <time>2013-05-02T11:10:38Z</time>
      </trkpt>
      <trkpt lat="47.70446" lon="-2.70136">
        <ele>73</ele>
        <time>2013-05-02T11:10:39Z</time>
      </trkpt>
      <trkpt lat="47.70448" lon="-2.7014">
        <ele>74</ele>
        <time>2013-05-02T11:10:40Z</time>
      </trkpt>
      <trkpt lat="47.70449" lon="-2.70144">
        <ele>74</ele>
        <time>2013-05-02T11:10:41Z</time>
      </trkpt>
      <trkpt lat="47.70451" lon="-2.70147">
        <ele>75</ele>
        <time>2013-05-02T11:10:42Z</time>
      </trkpt>
      <trkpt lat="47.70454" lon="-2.7015">
        <ele>75</ele>
        <time>2013-05-02T11:10:43Z</time>
      </trkpt>
      <trkpt lat="47.70456" lon="-2.70154">
        <ele>76</ele>
        <time>2013-05-02T11:10:44Z</time>
      </trkpt>
      <trkpt lat="47.70458" lon="-2.70157">
        <ele>76</ele>
        <time>2013-05-02T11:10:45Z</time>
      </trkpt>
      <trkpt lat="47.70462" lon="-2.70161">
        <ele>77</ele>
        <time>2013-05-02T11:10:46Z</time>
      </trkpt>
      <trkpt lat="47.70466" lon="-2.70164">
        <ele>77</ele>
        <time>2013-05-02T11:10:47Z</time>
      </trkpt>
      <trkpt lat="47.70467" lon="-2.70166">
        <ele>78</ele>
        <time>2013-05-02T11:10:48Z</time>
      </trkpt>
      <trkpt lat="47.7047" lon="-2.70169">
        <ele>79</ele>
        <time>2013-05-02T11:10:49Z</time>
      </trkpt>
      <trkpt lat="47.70474" lon="-2.70172">
        <ele>80</ele>
        <time>2013-05-02T11:10:50Z</time>
      </trkpt>
      <trkpt lat="47.70476" lon="-2.70176">
        <ele>81</ele>
        <time>2013-05-02T11:10:51Z</time>
      </trkpt>
      <trkpt lat="47.70476" lon="-2.70179">
        <ele>82</ele>
        <time>2013-05-02T11:10:52Z</time>
      </trkpt>
      <trkpt lat="47.70477" lon="-2.70183">
        <ele>83</ele>
        <time>2013-05-02T11:10:53Z</time>
      </trkpt>
      <trkpt lat="47.70478" lon="-2.70187">
        <ele>84</ele>
        <time>2013-05-02T11:10:54Z</time>
      </trkpt>
      <trkpt lat="47.70479" lon="-2.7019">
        <ele>84</ele>
        <time>2013-05-02T11:10:55Z</time>
      </trkpt>
      <trkpt lat="47.70481" lon="-2.70194">
        <ele>84</ele>
        <time>2013-05-02T11:10:56Z</time>
      </trkpt>
      <trkpt lat="47.70481" lon="-2.70197">
        <ele>84</ele>
        <time>2013-05-02T11:10:57Z</time>
      </trkpt>
      <trkpt lat="47.70481" lon="-2.702">
        <ele>84</ele>
        <time>2013-05-02T11:10:58Z</time>
      </trkpt>
      <trkpt lat="47.70481" lon="-2.70204">
        <ele>84</ele>
        <time>2013-05-02T11:10:59Z</time>
      </trkpt>
      <trkpt lat="47.70483" lon="-2.70208">
        <ele>84</ele>
        <time>2013-05-02T11:11:00Z</time>
      </trkpt>
      <trkpt lat="47.70485" lon="-2.70211">
        <ele>84</ele>
        <time>2013-05-02T11:11:01Z</time>
      </trkpt>
      <trkpt lat="47.70486" lon="-2.70213">
        <ele>84</ele>
        <time>2013-05-02T11:11:02Z</time>
      </trkpt>
      <trkpt lat="47.70486" lon="-2.70216">
        <ele>84</ele>
        <time>2013-05-02T11:11:03Z</time>
      </trkpt>
      <trkpt lat="47.70488" lon="-2.70218">
        <ele>84</ele>
        <time>2013-05-02T11:11:04Z</time>
      </trkpt>
      <trkpt lat="47.70491" lon="-2.70221">
        <ele>84</ele>
        <time>2013-05-02T11:11:05Z</time>
      </trkpt>
      <trkpt lat="47.70493" lon="-2.70225">
        <ele>84</ele>
        <time>2013-05-02T11:11:06Z</time>
      </trkpt>
      <trkpt lat="47.70495" lon="-2.70228">
        <ele>84</ele>
        <time>2013-05-02T11:11:07Z</time>
      </trkpt>
      <trkpt lat="47.70496" lon="-2.70231">
        <ele>85</ele>
        <time>2013-05-02T11:11:08Z</time>
      </trkpt>
      <trkpt lat="47.70498" lon="-2.70234">
        <ele>85</ele>
        <time>2013-05-02T11:11:09Z</time>
      </trkpt>
      <trkpt lat="47.70502" lon="-2.70237">
        <ele>86</ele>
        <time>2013-05-02T11:11:10Z</time>
      </trkpt>
      <trkpt lat="47.70503" lon="-2.7024">
        <ele>86</ele>
        <time>2013-05-02T11:11:11Z</time>
      </trkpt>
      <trkpt lat="47.70504" lon="-2.70242">
        <ele>87</ele>
        <time>2013-05-02T11:11:12Z</time>
      </trkpt>
      <trkpt lat="47.70504" lon="-2.70244">
        <ele>87</ele>
        <time>2013-05-02T11:11:13Z</time>
      </trkpt>
      <trkpt lat="47.70505" lon="-2.70246">
        <ele>88</ele>
        <time>2013-05-02T11:11:14Z</time>
      </trkpt>
      <trkpt lat="47.70506" lon="-2.70249">
        <ele>88</ele>
        <time>2013-05-02T11:11:15Z</time>
      </trkpt>
      <trkpt lat="47.70507" lon="-2.70251">
        <ele>88</ele>
        <time>2013-05-02T11:11:16Z</time>
      </trkpt>
      <trkpt lat="47.70507" lon="-2.70253">
        <ele>88</ele>
        <time>2013-05-02T11:11:17Z</time>
      </trkpt>
      <trkpt lat="47.70507" lon="-2.70255">
        <ele>88</ele>
        <time>2013-05-02T11:11:18Z</time>
      </trkpt>
      <trkpt lat="47.70507" lon="-2.70258">
        <ele>88</ele>
        <time>2013-05-02T11:11:19Z</time>
      </trkpt>
      <trkpt lat="47.70508" lon="-2.70261">
        <ele>88</ele>
        <time>2013-05-02T11:11:20Z</time>
      </trkpt>
      <trkpt lat="47.70508" lon="-2.70265">
        <ele>88</ele>
        <time>2013-05-02T11:11:21Z</time>
      </trkpt>
      <trkpt lat="47.70509" lon="-2.70268">
        <ele>88</ele>
        <time>2013-05-02T11:11:22Z</time>
      </trkpt>
      <trkpt lat="47.7051" lon="-2.7027">
        <ele>88</ele>
        <time>2013-05-02T11:11:23Z</time>
      </trkpt>
      <trkpt lat="47.70511" lon="-2.70272">
        <ele>88</ele>
        <time>2013-05-02T11:11:24Z</time>
      </trkpt>
      <trkpt lat="47.70513" lon="-2.70275">
        <ele>87</ele>
        <time>2013-05-02T11:11:25Z</time>
      </trkpt>
      <trkpt lat="47.70515" lon="-2.70278">
        <ele>87</ele>
        <time>2013-05-02T11:11:26Z</time>
      </trkpt>
      <trkpt lat="47.70517" lon="-2.70281">
        <ele>87</ele>
        <time>2013-05-02T11:11:27Z</time>
      </trkpt>
      <trkpt lat="47.70518" lon="-2.70284">
        <ele>87</ele>
        <time>2013-05-02T11:11:28Z</time>
      </trkpt>
      <trkpt lat="47.7052" lon="-2.70286">
        <ele>87</ele>
        <time>2013-05-02T11:11:29Z</time>
      </trkpt>
      <trkpt lat="47.70521" lon="-2.70288">
        <ele>87</ele>
        <time>2013-05-02T11:11:30Z</time>
      </trkpt>
      <trkpt lat="47.70523" lon="-2.70291">
        <ele>87</ele>
        <time>2013-05-02T11:11:31Z</time>
      </trkpt>
      <trkpt lat="47.70525" lon="-2.70293">
        <ele>87</ele>
        <time>2013-05-02T11:11:32Z</time>
      </trkpt>
      <trkpt lat="47.70526" lon="-2.70296">
        <ele>87</ele>
        <time>2013-05-02T11:11:33Z</time>
      </trkpt>
      <trkpt lat="47.70529" lon="-2.70298">
        <ele>87</ele>
        <time>2013-05-02T11:11:34Z</time>
      </trkpt>
      <trkpt lat="47.70531" lon="-2.70301">
        <ele>87</ele>
        <time>2013-05-02T11:11:35Z</time>
      </trkpt>
      <trkpt lat="47.70533" lon="-2.70303">
        <ele>87</ele>
        <time>2013-05-02T11:11:36Z</time>
      </trkpt>
      <trkpt lat="47.70535" lon="-2.70305">
        <ele>87</ele>
        <time>2013-05-02T11:11:37Z</time>
      </trkpt>
      <trkpt lat="47.70537" lon="-2.70307">
        <ele>87</ele>
        <time>2013-05-02T11:11:38Z</time>
      </trkpt>
      <trkpt lat="47.7054" lon="-2.70309">
        <ele>87</ele>
        <time>2013-05-02T11:11:39Z</time>
      </trkpt>
      <trkpt lat="47.70542" lon="-2.70311">
        <ele>87</ele>
        <time>2013-05-02T11:11:40Z</time>
      </trkpt>
      <trkpt lat="47.70544" lon="-2.70313">
        <ele>87</ele>
        <time>2013-05-02T11:11:41Z</time>
      </trkpt>
      <trkpt lat="47.70547" lon="-2.70315">
        <ele>87</ele>
        <time>2013-05-02T11:11:42Z</time>
      </trkpt>
      <trkpt lat="47.7055" lon="-2.70317">
        <ele>87</ele>
        <time>2013-05-02T11:11:43Z</time>
      </trkpt>
      <trkpt lat="47.70553" lon="-2.70318">
        <ele>87</ele>
        <time>2013-05-02T11:11:44Z</time>
      </trkpt>
      <trkpt lat="47.70556" lon="-2.7032">
        <ele>87</ele>
        <time>2013-05-02T11:11:45Z</time>
      </trkpt>
      <trkpt lat="47.70559" lon="-2.70321">
        <ele>87</ele>
        <time>2013-05-02T11:11:46Z</time>
      </trkpt>
      <trkpt lat="47.70562" lon="-2.70322">
        <ele>87</ele>
        <time>2013-05-02T11:11:47Z</time>
      </trkpt>
      <trkpt lat="47.70564" lon="-2.70324">
        <ele>87</ele>
        <time>2013-05-02T11:11:48Z</time>
      </trkpt>
      <trkpt lat="47.70568" lon="-2.70325">
        <ele>87</ele>
        <time>2013-05-02T11:11:49Z</time>
      </trkpt>
      <trkpt lat="47.70573" lon="-2.70327">
        <ele>87</ele>
        <time>2013-05-02T11:11:50Z</time>
      </trkpt>
      <trkpt lat="47.70577" lon="-2.70329">
        <ele>88</ele>
        <time>2013-05-02T11:11:51Z</time>
      </trkpt>
      <trkpt lat="47.70581" lon="-2.70331">
        <ele>88</ele>
        <time>2013-05-02T11:11:52Z</time>
      </trkpt>
      <trkpt lat="47.70583" lon="-2.70333">
        <ele>89</ele>
        <time>2013-05-02T11:11:53Z</time>
      </trkpt>
      <trkpt lat="47.70584" lon="-2.70335">
        <ele>89</ele>
        <time>2013-05-02T11:11:54Z</time>
      </trkpt>
      <trkpt lat="47.70586" lon="-2.70337">
        <ele>90</ele>
        <time>2013-05-02T11:11:55Z</time>
      </trkpt>
      <trkpt lat="47.70588" lon="-2.7034">
        <ele>90</ele>
        <time>2013-05-02T11:11:56Z</time>
      </trkpt>
      <trkpt lat="47.7059" lon="-2.70342">
        <ele>90</ele>
        <time>2013-05-02T11:11:57Z</time>
      </trkpt>
      <trkpt lat="47.70592" lon="-2.70344">
        <ele>90</ele>
        <time>2013-05-02T11:11:58Z</time>
      </trkpt>
      <trkpt lat="47.70594" lon="-2.70346">
        <ele>91</ele>
        <time>2013-05-02T11:11:59Z</time>
      </trkpt>
      <trkpt lat="47.70596" lon="-2.7035">
        <ele>91</ele>
        <time>2013-05-02T11:12:00Z</time>
      </trkpt>
      <trkpt lat="47.70598" lon="-2.70353">
        <ele>91</ele>
        <time>2013-05-02T11:12:01Z</time>
      </trkpt>
      <trkpt lat="47.706" lon="-2.70356">
        <ele>91</ele>
        <time>2013-05-02T11:12:02Z</time>
      </trkpt>
      <trkpt lat="47.70602" lon="-2.70359">
        <ele>91</ele>
        <time>2013-05-02T11:12:03Z</time>
      </trkpt>
      <trkpt lat="47.70604" lon="-2.70363">
        <ele>91</ele>
        <time>2013-05-02T11:12:04Z</time>
      </trkpt>
      <trkpt lat="47.70607" lon="-2.70366">
        <ele>91</ele>
        <time>2013-05-02T11:12:05Z</time>
      </trkpt>
      <trkpt lat="47.7061" lon="-2.70369">
        <ele>91</ele>
        <time>2013-05-02T11:12:06Z</time>
      </trkpt>
      <trkpt lat="47.70613" lon="-2.70373">
        <ele>92</ele>
        <time>2013-05-02T11:12:07Z</time>
      </trkpt>
      <trkpt lat="47.70615" lon="-2.70376">
        <ele>92</ele>
        <time>2013-05-02T11:12:08Z</time>
      </trkpt>
      <trkpt lat="47.70618" lon="-2.70378">
        <ele>92</ele>
        <time>2013-05-02T11:12:09Z</time>
      </trkpt>
      <trkpt lat="47.7062" lon="-2.70381">
        <ele>93</ele>
        <time>2013-05-02T11:12:10Z</time>
      </trkpt>
      <trkpt lat="47.70621" lon="-2.70384">
        <ele>93</ele>
        <time>2013-05-02T11:12:11Z</time>
      </trkpt>
      <trkpt lat="47.70623" lon="-2.70386">
        <ele>93</ele>
        <time>2013-05-02T11:12:12Z</time>
      </trkpt>
      <trkpt lat="47.70625" lon="-2.70389">
        <ele>93</ele>
        <time>2013-05-02T11:12:13Z</time>
      </trkpt>
      <trkpt lat="47.70626" lon="-2.70392">
        <ele>93</ele>
        <time>2013-05-02T11:12:14Z</time>
      </trkpt>
      <trkpt lat="47.70628" lon="-2.70394">
        <ele>93</ele>
        <time>2013-05-02T11:12:15Z</time>
      </trkpt>
      <trkpt lat="47.70631" lon="-2.70398">
        <ele>94</ele>
        <time>2013-05-02T11:12:16Z</time>
      </trkpt>
      <trkpt lat="47.70633" lon="-2.70402">
        <ele>94</ele>
        <time>2013-05-02T11:12:17Z</time>
      </trkpt>
      <trkpt lat="47.70635" lon="-2.70406">
        <ele>94</ele>
        <time>2013-05-02T11:12:18Z</time>
      </trkpt>
      <trkpt lat="47.70637" lon="-2.70409">
        <ele>95</ele>
        <time>2013-05-02T11:12:19Z</time>
      </trkpt>
      <trkpt lat="47.70639" lon="-2.70413">
        <ele>95</ele>
        <time>2013-05-02T11:12:20Z</time>
      </trkpt>
      <trkpt lat="47.70641" lon="-2.70416">
        <ele>95</ele>
        <time>2013-05-02T11:12:21Z</time>
      </trkpt>
      <trkpt lat="47.70644" lon="-2.7042">
        <ele>95</ele>
        <time>2013-05-02T11:12:22Z</time>
      </trkpt>
      <trkpt lat="47.70645" lon="-2.70424">
        <ele>96</ele>
        <time>2013-05-02T11:12:23Z</time>
      </trkpt>
      <trkpt lat="47.70647" lon="-2.70429">
        <ele>96</ele>
        <time>2013-05-02T11:12:24Z</time>
      </trkpt>
      <trkpt lat="47.70648" lon="-2.70434">
        <ele>97</ele>
        <time>2013-05-02T11:12:25Z</time>
      </trkpt>
      <trkpt lat="47.70648" lon="-2.70438">
        <ele>97</ele>
        <time>2013-05-02T11:12:26Z</time>
      </trkpt>
      <trkpt lat="47.70648" lon="-2.70442">
        <ele>98</ele>
        <time>2013-05-02T11:12:27Z</time>
      </trkpt>
      <trkpt lat="47.7065" lon="-2.70446">
        <ele>98</ele>
        <time>2013-05-02T11:12:28Z</time>
      </trkpt>
      <trkpt lat="47.70652" lon="-2.7045">
        <ele>98</ele>
        <time>2013-05-02T11:12:29Z</time>
      </trkpt>
      <trkpt lat="47.70654" lon="-2.70454">
        <ele>98</ele>
        <time>2013-05-02T11:12:30Z</time>
      </trkpt>
      <trkpt lat="47.70656" lon="-2.70457">
        <ele>98</ele>
        <time>2013-05-02T11:12:31Z</time>
      </trkpt>
      <trkpt lat="47.70659" lon="-2.70461">
        <ele>98</ele>
        <time>2013-05-02T11:12:32Z</time>
      </trkpt>
      <trkpt lat="47.70661" lon="-2.70466">
        <ele>98</ele>
        <time>2013-05-02T11:12:33Z</time>
      </trkpt>
      <trkpt lat="47.70664" lon="-2.7047">
        <ele>98</ele>
        <time>2013-05-02T11:12:34Z</time>
      </trkpt>
      <trkpt lat="47.70667" lon="-2.70475">
        <ele>98</ele>
        <time>2013-05-02T11:12:35Z</time>
      </trkpt>
      <trkpt lat="47.70669" lon="-2.7048">
        <ele>98</ele>
        <time>2013-05-02T11:12:36Z</time>
      </trkpt>
      <trkpt lat="47.70671" lon="-2.70487">
        <ele>98</ele>
        <time>2013-05-02T11:12:37Z</time>
      </trkpt>
      <trkpt lat="47.70672" lon="-2.70494">
        <ele>98</ele>
        <time>2013-05-02T11:12:38Z</time>
      </trkpt>
      <trkpt lat="47.70672" lon="-2.705">
        <ele>98</ele>
        <time>2013-05-02T11:12:39Z</time>
      </trkpt>
      <trkpt lat="47.70673" lon="-2.70506">
        <ele>98</ele>
        <time>2013-05-02T11:12:40Z</time>
      </trkpt>
      <trkpt lat="47.70674" lon="-2.70512">
        <ele>98</ele>
        <time>2013-05-02T11:12:41Z</time>
      </trkpt>
      <trkpt lat="47.70676" lon="-2.70517">
        <ele>98</ele>
        <time>2013-05-02T11:12:42Z</time>
      </trkpt>
      <trkpt lat="47.70677" lon="-2.70522">
        <ele>98</ele>
        <time>2013-05-02T11:12:43Z</time>
      </trkpt>
      <trkpt lat="47.70678" lon="-2.70528">
        <ele>98</ele>
        <time>2013-05-02T11:12:44Z</time>
      </trkpt>
      <trkpt lat="47.70679" lon="-2.70533">
        <ele>98</ele>
        <time>2013-05-02T11:12:45Z</time>
      </trkpt>
      <trkpt lat="47.70681" lon="-2.70539">
        <ele>98</ele>
        <time>2013-05-02T11:12:46Z</time>
      </trkpt>
      <trkpt lat="47.70682" lon="-2.70544">
        <ele>98</ele>
        <time>2013-05-02T11:12:47Z</time>
      </trkpt>
      <trkpt lat="47.70684" lon="-2.70548">
        <ele>98</ele>
        <time>2013-05-02T11:12:48Z</time>
      </trkpt>
      <trkpt lat="47.70688" lon="-2.70552">
        <ele>98</ele>
        <time>2013-05-02T11:12:49Z</time>
      </trkpt>
      <trkpt lat="47.7069" lon="-2.70558">
        <ele>98</ele>
        <time>2013-05-02T11:12:50Z</time>
      </trkpt>
      <trkpt lat="47.70692" lon="-2.70563">
        <ele>98</ele>
        <time>2013-05-02T11:12:51Z</time>
      </trkpt>
      <trkpt lat="47.70692" lon="-2.70568">
        <ele>98</ele>
        <time>2013-05-02T11:12:52Z</time>
      </trkpt>
      <trkpt lat="47.70694" lon="-2.70573">
        <ele>98</ele>
        <time>2013-05-02T11:12:53Z</time>
      </trkpt>
      <trkpt lat="47.70696" lon="-2.70579">
        <ele>98</ele>
        <time>2013-05-02T11:12:54Z</time>
      </trkpt>
      <trkpt lat="47.70697" lon="-2.70584">
        <ele>98</ele>
        <time>2013-05-02T11:12:55Z</time>
      </trkpt>
      <trkpt lat="47.70697" lon="-2.70589">
        <ele>98</ele>
        <time>2013-05-02T11:12:56Z</time>
      </trkpt>
      <trkpt lat="47.70698" lon="-2.70594">
        <ele>98</ele>
        <time>2013-05-02T11:12:57Z</time>
      </trkpt>
      <trkpt lat="47.70697" lon="-2.70599">
        <ele>97</ele>
        <time>2013-05-02T11:12:58Z</time>
      </trkpt>
      <trkpt lat="47.70697" lon="-2.70603">
        <ele>96</ele>
        <time>2013-05-02T11:12:59Z</time>
      </trkpt>
      <trkpt lat="47.70697" lon="-2.70608">
        <ele>95</ele>
        <time>2013-05-02T11:13:00Z</time>
      </trkpt>
      <trkpt lat="47.70698" lon="-2.70613">
        <ele>94</ele>
        <time>2013-05-02T11:13:01Z</time>
      </trkpt>
      <trkpt lat="47.70698" lon="-2.70618">
        <ele>93</ele>
        <time>2013-05-02T11:13:02Z</time>
      </trkpt>
      <trkpt lat="47.70698" lon="-2.70624">
        <ele>92</ele>
        <time>2013-05-02T11:13:03Z</time>
      </trkpt>
      <trkpt lat="47.70699" lon="-2.7063">
        <ele>91</ele>
        <time>2013-05-02T11:13:04Z</time>
      </trkpt>
      <trkpt lat="47.707" lon="-2.70635">
        <ele>90</ele>
        <time>2013-05-02T11:13:05Z</time>
      </trkpt>
      <trkpt lat="47.707" lon="-2.7064">
        <ele>89</ele>
        <time>2013-05-02T11:13:06Z</time>
      </trkpt>
      <trkpt lat="47.70699" lon="-2.70644">
        <ele>88</ele>
        <time>2013-05-02T11:13:07Z</time>
      </trkpt>
      <trkpt lat="47.707" lon="-2.7065">
        <ele>87</ele>
        <time>2013-05-02T11:13:08Z</time>
      </trkpt>
      <trkpt lat="47.70701" lon="-2.70656">
        <ele>86</ele>
        <time>2013-05-02T11:13:09Z</time>
      </trkpt>
      <trkpt lat="47.70701" lon="-2.70661">
        <ele>85</ele>
        <time>2013-05-02T11:13:10Z</time>
      </trkpt>
      <trkpt lat="47.70701" lon="-2.70667">
        <ele>84</ele>
        <time>2013-05-02T11:13:11Z</time>
      </trkpt>
      <trkpt lat="47.707" lon="-2.70673">
        <ele>83</ele>
        <time>2013-05-02T11:13:12Z</time>
      </trkpt>
      <trkpt lat="47.70698" lon="-2.70679">
        <ele>83</ele>
        <time>2013-05-02T11:13:13Z</time>
      </trkpt>
      <trkpt lat="47.70698" lon="-2.70684">
        <ele>83</ele>
        <time>2013-05-02T11:13:14Z</time>
      </trkpt>
      <trkpt lat="47.70699" lon="-2.70689">
        <ele>83</ele>
        <time>2013-05-02T11:13:15Z</time>
      </trkpt>
      <trkpt lat="47.707" lon="-2.70695">
        <ele>83</ele>
        <time>2013-05-02T11:13:16Z</time>
      </trkpt>
      <trkpt lat="47.70701" lon="-2.70701">
        <ele>83</ele>
        <time>2013-05-02T11:13:17Z</time>
      </trkpt>
      <trkpt lat="47.70702" lon="-2.70707">
        <ele>83</ele>
        <time>2013-05-02T11:13:18Z</time>
      </trkpt>
      <trkpt lat="47.70702" lon="-2.70713">
        <ele>83</ele>
        <time>2013-05-02T11:13:19Z</time>
      </trkpt>
      <trkpt lat="47.70701" lon="-2.70719">
        <ele>83</ele>
        <time>2013-05-02T11:13:20Z</time>
      </trkpt>
      <trkpt lat="47.70701" lon="-2.70724">
        <ele>83</ele>
        <time>2013-05-02T11:13:21Z</time>
      </trkpt>
      <trkpt lat="47.70699" lon="-2.70729">
        <ele>83</ele>
        <time>2013-05-02T11:13:22Z</time>
      </trkpt>
      <trkpt lat="47.707" lon="-2.70733">
        <ele>84</ele>
        <time>2013-05-02T11:13:23Z</time>
      </trkpt>
      <trkpt lat="47.707" lon="-2.70737">
        <ele>85</ele>
        <time>2013-05-02T11:13:24Z</time>
      </trkpt>
      <trkpt lat="47.70701" lon="-2.70742">
        <ele>86</ele>
        <time>2013-05-02T11:13:25Z</time>
      </trkpt>
      <trkpt lat="47.70702" lon="-2.70747">
        <ele>86</ele>
        <time>2013-05-02T11:13:26Z</time>
      </trkpt>
      <trkpt lat="47.70702" lon="-2.70752">
        <ele>86</ele>
        <time>2013-05-02T11:13:27Z</time>
      </trkpt>
      <trkpt lat="47.70702" lon="-2.70756">
        <ele>86</ele>
        <time>2013-05-02T11:13:28Z</time>
      </trkpt>
      <trkpt lat="47.707" lon="-2.7076">
        <ele>86</ele>
        <time>2013-05-02T11:13:29Z</time>
      </trkpt>
      <trkpt lat="47.70698" lon="-2.70761">
        <ele>86</ele>
        <time>2013-05-02T11:13:30Z</time>
      </trkpt>
      <trkpt lat="47.70695" lon="-2.70762">
        <ele>86</ele>
        <time>2013-05-02T11:13:31Z</time>
      </trkpt>
      <trkpt lat="47.70694" lon="-2.70763">
        <ele>86</ele>
        <time>2013-05-02T11:13:32Z</time>
      </trkpt>
      <trkpt lat="47.70691" lon="-2.70764">
        <ele>86</ele>
        <time>2013-05-02T11:13:33Z</time>
      </trkpt>
      <trkpt lat="47.7069" lon="-2.70762">
        <ele>86</ele>
        <time>2013-05-02T11:13:34Z</time>
      </trkpt>
      <trkpt lat="47.70688" lon="-2.7076">
        <ele>86</ele>
        <time>2013-05-02T11:13:35Z</time>
      </trkpt>
      <trkpt lat="47.70687" lon="-2.70758">
        <ele>86</ele>
        <time>2013-05-02T11:13:36Z</time>
      </trkpt>
      <trkpt lat="47.70685" lon="-2.70755">
        <ele>86</ele>
        <time>2013-05-02T11:13:37Z</time>
      </trkpt>
      <trkpt lat="47.70683" lon="-2.70753">
        <ele>86</ele>
        <time>2013-05-02T11:13:38Z</time>
      </trkpt>
      <trkpt lat="47.70681" lon="-2.7075">
        <ele>86</ele>
        <time>2013-05-02T11:13:39Z</time>
      </trkpt>
      <trkpt lat="47.70679" lon="-2.70747">
        <ele>86</ele>
        <time>2013-05-02T11:13:40Z</time>
      </trkpt>
      <trkpt lat="47.70677" lon="-2.70744">
        <ele>86</ele>
        <time>2013-05-02T11:13:41Z</time>
      </trkpt>
      <trkpt lat="47.70676" lon="-2.70741">
        <ele>85</ele>
        <time>2013-05-02T11:13:42Z</time>
      </trkpt>
      <trkpt lat="47.70674" lon="-2.70738">
        <ele>85</ele>
        <time>2013-05-02T11:13:43Z</time>
      </trkpt>
      <trkpt lat="47.70673" lon="-2.70736">
        <ele>85</ele>
        <time>2013-05-02T11:13:44Z</time>
      </trkpt>
      <trkpt lat="47.70671" lon="-2.70732">
        <ele>85</ele>
        <time>2013-05-02T11:13:45Z</time>
      </trkpt>
      <trkpt lat="47.70669" lon="-2.70729">
        <ele>85</ele>
        <time>2013-05-02T11:13:46Z</time>
      </trkpt>
      <trkpt lat="47.70667" lon="-2.70727">
        <ele>85</ele>
        <time>2013-05-02T11:13:47Z</time>
      </trkpt>
      <trkpt lat="47.70665" lon="-2.70725">
        <ele>85</ele>
        <time>2013-05-02T11:13:48Z</time>
      </trkpt>
      <trkpt lat="47.70663" lon="-2.70723">
        <ele>85</ele>
        <time>2013-05-02T11:13:49Z</time>
      </trkpt>
      <trkpt lat="47.70662" lon="-2.70722">
        <ele>85</ele>
        <time>2013-05-02T11:13:50Z</time>
      </trkpt>
      <trkpt lat="47.70661" lon="-2.7072">
        <ele>85</ele>
        <time>2013-05-02T11:13:51Z</time>
      </trkpt>
      <trkpt lat="47.70659" lon="-2.70719">
        <ele>85</ele>
        <time>2013-05-02T11:13:52Z</time>
      </trkpt>
      <trkpt lat="47.70657" lon="-2.70718">
        <ele>85</ele>
        <time>2013-05-02T11:13:53Z</time>
      </trkpt>
      <trkpt lat="47.70655" lon="-2.70716">
        <ele>85</ele>
        <time>2013-05-02T11:13:54Z</time>
      </trkpt>
      <trkpt lat="47.70654" lon="-2.70715">
        <ele>85</ele>
        <time>2013-05-02T11:13:55Z</time>
      </trkpt>
      <trkpt lat="47.70653" lon="-2.70714">
        <ele>85</ele>
        <time>2013-05-02T11:13:56Z</time>
      </trkpt>
      <trkpt lat="47.70652" lon="-2.70712">
        <ele>85</ele>
        <time>2013-05-02T11:13:57Z</time>
      </trkpt>
      <trkpt lat="47.7065" lon="-2.70711">
        <ele>85</ele>
        <time>2013-05-02T11:13:58Z</time>
      </trkpt>
      <trkpt lat="47.70649" lon="-2.70709">
        <ele>85</ele>
        <time>2013-05-02T11:13:59Z</time>
      </trkpt>
      <trkpt lat="47.70648" lon="-2.70708">
        <ele>85</ele>
        <time>2013-05-02T11:14:00Z</time>
      </trkpt>
      <trkpt lat="47.70648" lon="-2.70706">
        <ele>85</ele>
        <time>2013-05-02T11:14:01Z</time>
      </trkpt>
      <trkpt lat="47.70647" lon="-2.70704">
        <ele>85</ele>
        <time>2013-05-02T11:14:02Z</time>
      </trkpt>
      <trkpt lat="47.70646" lon="-2.70702">
        <ele>85</ele>
        <time>2013-05-02T11:14:03Z</time>
      </trkpt>
      <trkpt lat="47.70646" lon="-2.707">
        <ele>86</ele>
        <time>2013-05-02T11:14:04Z</time>
      </trkpt>
      <trkpt lat="47.70644" lon="-2.70699">
        <ele>87</ele>
        <time>2013-05-02T11:14:05Z</time>
      </trkpt>
      <trkpt lat="47.70643" lon="-2.707">
        <ele>88</ele>
        <time>2013-05-02T11:14:06Z</time>
      </trkpt>
      <trkpt lat="47.70643" lon="-2.70701">
        <ele>89</ele>
        <time>2013-05-02T11:14:07Z</time>
      </trkpt>
      <trkpt lat="47.70642" lon="-2.70703">
        <ele>91</ele>
        <time>2013-05-02T11:14:09Z</time>
      </trkpt>
      <trkpt lat="47.70641" lon="-2.70706">
        <ele>92</ele>
        <time>2013-05-02T11:14:11Z</time>
      </trkpt>
      <trkpt lat="47.70639" lon="-2.70709">
        <ele>92</ele>
        <time>2013-05-02T11:14:12Z</time>
      </trkpt>
      <trkpt lat="47.70638" lon="-2.70711">
        <ele>92</ele>
        <time>2013-05-02T11:14:13Z</time>
      </trkpt>
      <trkpt lat="47.70636" lon="-2.70715">
        <ele>93</ele>
        <time>2013-05-02T11:14:15Z</time>
      </trkpt>
      <trkpt lat="47.70636" lon="-2.70716">
        <ele>94</ele>
        <time>2013-05-02T11:14:16Z</time>
      </trkpt>
      <trkpt lat="47.70635" lon="-2.70718">
        <ele>95</ele>
        <time>2013-05-02T11:14:17Z</time>
      </trkpt>
      <trkpt lat="47.70636" lon="-2.70721">
        <ele>96</ele>
        <time>2013-05-02T11:14:18Z</time>
      </trkpt>
      <trkpt lat="47.70636" lon="-2.70722">
        <ele>97</ele>
        <time>2013-05-02T11:14:19Z</time>
      </trkpt>
      <trkpt lat="47.70636" lon="-2.70725">
        <ele>97</ele>
        <time>2013-05-02T11:14:20Z</time>
      </trkpt>
      <trkpt lat="47.70634" lon="-2.70728">
        <ele>97</ele>
        <time>2013-05-02T11:14:21Z</time>
      </trkpt>
      <trkpt lat="47.70634" lon="-2.70731">
        <ele>97</ele>
        <time>2013-05-02T11:14:22Z</time>
      </trkpt>
      <trkpt lat="47.70633" lon="-2.70733">
        <ele>97</ele>
        <time>2013-05-02T11:14:23Z</time>
      </trkpt>
      <trkpt lat="47.70633" lon="-2.70735">
        <ele>97</ele>
        <time>2013-05-02T11:14:24Z</time>
      </trkpt>
      <trkpt lat="47.70633" lon="-2.70737">
        <ele>98</ele>
        <time>2013-05-02T11:14:25Z</time>
      </trkpt>
      <trkpt lat="47.70633" lon="-2.70739">
        <ele>98</ele>
        <time>2013-05-02T11:14:26Z</time>
      </trkpt>
      <trkpt lat="47.70632" lon="-2.70741">
        <ele>98</ele>
        <time>2013-05-02T11:14:27Z</time>
      </trkpt>
      <trkpt lat="47.70631" lon="-2.70743">
        <ele>99</ele>
        <time>2013-05-02T11:14:28Z</time>
      </trkpt>
      <trkpt lat="47.7063" lon="-2.70744">
        <ele>99</ele>
        <time>2013-05-02T11:14:29Z</time>
      </trkpt>
      <trkpt lat="47.70628" lon="-2.70747">
        <ele>100</ele>
        <time>2013-05-02T11:14:32Z</time>
      </trkpt>
      <trkpt lat="47.70627" lon="-2.70747">
        <ele>101</ele>
        <time>2013-05-02T11:14:35Z</time>
      </trkpt>
      <trkpt lat="47.70626" lon="-2.70761">
        <ele>102</ele>
        <time>2013-05-02T11:14:37Z</time>
      </trkpt>
      <trkpt lat="47.70625" lon="-2.70764">
        <ele>102</ele>
        <time>2013-05-02T11:14:38Z</time>
      </trkpt>
      <trkpt lat="47.70625" lon="-2.70767">
        <ele>102</ele>
        <time>2013-05-02T11:14:39Z</time>
      </trkpt>
      <trkpt lat="47.70625" lon="-2.7077">
        <ele>102</ele>
        <time>2013-05-02T11:14:40Z</time>
      </trkpt>
      <trkpt lat="47.70624" lon="-2.70773">
        <ele>102</ele>
        <time>2013-05-02T11:14:41Z</time>
      </trkpt>
      <trkpt lat="47.70623" lon="-2.70777">
        <ele>102</ele>
        <time>2013-05-02T11:14:43Z</time>
      </trkpt>
      <trkpt lat="47.70622" lon="-2.70779">
        <ele>102</ele>
        <time>2013-05-02T11:14:44Z</time>
      </trkpt>
      <trkpt lat="47.70623" lon="-2.70781">
        <ele>102</ele>
        <time>2013-05-02T11:14:45Z</time>
      </trkpt>
      <trkpt lat="47.70623" lon="-2.70784">
        <ele>103</ele>
        <time>2013-05-02T11:14:46Z</time>
      </trkpt>
      <trkpt lat="47.70624" lon="-2.70789">
        <ele>104</ele>
        <time>2013-05-02T11:14:47Z</time>
      </trkpt>
      <trkpt lat="47.70625" lon="-2.70793">
        <ele>105</ele>
        <time>2013-05-02T11:14:48Z</time>
      </trkpt>
      <trkpt lat="47.70628" lon="-2.70797">
        <ele>106</ele>
        <time>2013-05-02T11:14:49Z</time>
      </trkpt>
      <trkpt lat="47.70632" lon="-2.70801">
        <ele>106</ele>
        <time>2013-05-02T11:14:50Z</time>
      </trkpt>
      <trkpt lat="47.70637" lon="-2.70805">
        <ele>106</ele>
        <time>2013-05-02T11:14:51Z</time>
      </trkpt>
      <trkpt lat="47.70642" lon="-2.7081">
        <ele>106</ele>
        <time>2013-05-02T11:14:52Z</time>
      </trkpt>
      <trkpt lat="47.70649" lon="-2.70817">
        <ele>106</ele>
        <time>2013-05-02T11:14:53Z</time>
      </trkpt>
      <trkpt lat="47.70656" lon="-2.70824">
        <ele>106</ele>
        <time>2013-05-02T11:14:54Z</time>
      </trkpt>
      <trkpt lat="47.70661" lon="-2.70831">
        <ele>106</ele>
        <time>2013-05-02T11:14:55Z</time>
      </trkpt>
      <trkpt lat="47.70667" lon="-2.70837">
        <ele>106</ele>
        <time>2013-05-02T11:14:56Z</time>
      </trkpt>
      <trkpt lat="47.70673" lon="-2.70843">
        <ele>106</ele>
        <time>2013-05-02T11:14:57Z</time>
      </trkpt>
      <trkpt lat="47.70675" lon="-2.70845">
        <ele>106</ele>
        <time>2013-05-02T11:14:58Z</time>
      </trkpt>
      <trkpt lat="47.70675" lon="-2.70843">
        <ele>106</ele>
        <time>2013-05-02T11:15:01Z</time>
      </trkpt>
      <trkpt lat="47.70676" lon="-2.70841">
        <ele>105</ele>
        <time>2013-05-02T11:15:03Z</time>
      </trkpt>
      <trkpt lat="47.70668" lon="-2.70843">
        <ele>105</ele>
        <time>2013-05-02T11:15:06Z</time>
      </trkpt>
      <trkpt lat="47.70665" lon="-2.70841">
        <ele>105</ele>
        <time>2013-05-02T11:15:07Z</time>
      </trkpt>
      <trkpt lat="47.70664" lon="-2.7084">
        <ele>105</ele>
        <time>2013-05-02T11:15:08Z</time>
      </trkpt>
      <trkpt lat="47.70662" lon="-2.70838">
        <ele>105</ele>
        <time>2013-05-02T11:15:09Z</time>
      </trkpt>
      <trkpt lat="47.70661" lon="-2.70838">
        <ele>104</ele>
        <time>2013-05-02T11:15:11Z</time>
      </trkpt>
      <trkpt lat="47.7066" lon="-2.7084">
        <ele>104</ele>
        <time>2013-05-02T11:15:12Z</time>
      </trkpt>
      <trkpt lat="47.70659" lon="-2.70842">
        <ele>104</ele>
        <time>2013-05-02T11:15:13Z</time>
      </trkpt>
      <trkpt lat="47.70659" lon="-2.70844">
        <ele>104</ele>
        <time>2013-05-02T11:15:14Z</time>
      </trkpt>
      <trkpt lat="47.70657" lon="-2.70847">
        <ele>104</ele>
        <time>2013-05-02T11:15:15Z</time>
      </trkpt>
      <trkpt lat="47.70656" lon="-2.70851">
        <ele>104</ele>
        <time>2013-05-02T11:15:16Z</time>
      </trkpt>
      <trkpt lat="47.70655" lon="-2.70855">
        <ele>104</ele>
        <time>2013-05-02T11:15:17Z</time>
      </trkpt>
      <trkpt lat="47.70656" lon="-2.70859">
        <ele>104</ele>
        <time>2013-05-02T11:15:18Z</time>
      </trkpt>
      <trkpt lat="47.70661" lon="-2.70862">
        <ele>104</ele>
        <time>2013-05-02T11:15:19Z</time>
      </trkpt>
      <trkpt lat="47.70666" lon="-2.70865">
        <ele>104</ele>
        <time>2013-05-02T11:15:20Z</time>
      </trkpt>
      <trkpt lat="47.7067" lon="-2.70868">
        <ele>104</ele>
        <time>2013-05-02T11:15:21Z</time>
      </trkpt>
      <trkpt lat="47.70673" lon="-2.70873">
        <ele>104</ele>
        <time>2013-05-02T11:15:22Z</time>
      </trkpt>
      <trkpt lat="47.70676" lon="-2.70877">
        <ele>104</ele>
        <time>2013-05-02T11:15:23Z</time>
      </trkpt>
      <trkpt lat="47.7068" lon="-2.70881">
        <ele>104</ele>
        <time>2013-05-02T11:15:24Z</time>
      </trkpt>
      <trkpt lat="47.70683" lon="-2.70884">
        <ele>104</ele>
        <time>2013-05-02T11:15:25Z</time>
      </trkpt>
      <trkpt lat="47.70687" lon="-2.70886">
        <ele>104</ele>
        <time>2013-05-02T11:15:26Z</time>
      </trkpt>
      <trkpt lat="47.70692" lon="-2.70888">
        <ele>104</ele>
        <time>2013-05-02T11:15:27Z</time>
      </trkpt>
      <trkpt lat="47.70697" lon="-2.70891">
        <ele>104</ele>
        <time>2013-05-02T11:15:28Z</time>
      </trkpt>
      <trkpt lat="47.70702" lon="-2.70893">
        <ele>104</ele>
        <time>2013-05-02T11:15:29Z</time>
      </trkpt>
      <trkpt lat="47.70708" lon="-2.70895">
        <ele>104</ele>
        <time>2013-05-02T11:15:30Z</time>
      </trkpt>
      <trkpt lat="47.70716" lon="-2.70897">
        <ele>104</ele>
        <time>2013-05-02T11:15:31Z</time>
      </trkpt>
      <trkpt lat="47.70725" lon="-2.70901">
        <ele>104</ele>
        <time>2013-05-02T11:15:32Z</time>
      </trkpt>
      <trkpt lat="47.70734" lon="-2.70906">
        <ele>103</ele>
        <time>2013-05-02T11:15:33Z</time>
      </trkpt>
      <trkpt lat="47.70739" lon="-2.70912">
        <ele>103</ele>
        <time>2013-05-02T11:15:34Z</time>
      </trkpt>
      <trkpt lat="47.70743" lon="-2.70918">
        <ele>103</ele>
        <time>2013-05-02T11:15:35Z</time>
      </trkpt>
      <trkpt lat="47.70748" lon="-2.70923">
        <ele>102</ele>
        <time>2013-05-02T11:15:36Z</time>
      </trkpt>
      <trkpt lat="47.70753" lon="-2.70928">
        <ele>102</ele>
        <time>2013-05-02T11:15:37Z</time>
      </trkpt>
      <trkpt lat="47.70758" lon="-2.70932">
        <ele>102</ele>
        <time>2013-05-02T11:15:38Z</time>
      </trkpt>
      <trkpt lat="47.70761" lon="-2.70936">
        <ele>102</ele>
        <time>2013-05-02T11:15:39Z</time>
      </trkpt>
      <trkpt lat="47.70764" lon="-2.7094">
        <ele>102</ele>
        <time>2013-05-02T11:15:40Z</time>
      </trkpt>
      <trkpt lat="47.70766" lon="-2.70946">
        <ele>102</ele>
        <time>2013-05-02T11:15:41Z</time>
      </trkpt>
      <trkpt lat="47.7077" lon="-2.7095">
        <ele>102</ele>
        <time>2013-05-02T11:15:42Z</time>
      </trkpt>
      <trkpt lat="47.70773" lon="-2.70954">
        <ele>101</ele>
        <time>2013-05-02T11:15:43Z</time>
      </trkpt>
      <trkpt lat="47.70776" lon="-2.70957">
        <ele>100</ele>
        <time>2013-05-02T11:15:44Z</time>
      </trkpt>
      <trkpt lat="47.70777" lon="-2.70961">
        <ele>99</ele>
        <time>2013-05-02T11:15:45Z</time>
      </trkpt>
      <trkpt lat="47.70779" lon="-2.70966">
        <ele>98</ele>
        <time>2013-05-02T11:15:46Z</time>
      </trkpt>
      <trkpt lat="47.70781" lon="-2.70971">
        <ele>98</ele>
        <time>2013-05-02T11:15:47Z</time>
      </trkpt>
      <trkpt lat="47.70782" lon="-2.70977">
        <ele>97</ele>
        <time>2013-05-02T11:15:48Z</time>
      </trkpt>
      <trkpt lat="47.70782" lon="-2.70983">
        <ele>96</ele>
        <time>2013-05-02T11:15:49Z</time>
      </trkpt>
      <trkpt lat="47.70782" lon="-2.7099">
        <ele>96</ele>
        <time>2013-05-02T11:15:50Z</time>
      </trkpt>
      <trkpt lat="47.70783" lon="-2.70995">
        <ele>96</ele>
        <time>2013-05-02T11:15:51Z</time>
      </trkpt>
      <trkpt lat="47.70784" lon="-2.71001">
        <ele>96</ele>
        <time>2013-05-02T11:15:52Z</time>
      </trkpt>
      <trkpt lat="47.70786" lon="-2.71005">
        <ele>96</ele>
        <time>2013-05-02T11:15:53Z</time>
      </trkpt>
      <trkpt lat="47.70787" lon="-2.71008">
        <ele>96</ele>
        <time>2013-05-02T11:15:54Z</time>
      </trkpt>
      <trkpt lat="47.7079" lon="-2.71012">
        <ele>96</ele>
        <time>2013-05-02T11:15:55Z</time>
      </trkpt>
      <trkpt lat="47.70791" lon="-2.71014">
        <ele>95</ele>
        <time>2013-05-02T11:15:56Z</time>
      </trkpt>
      <trkpt lat="47.70791" lon="-2.71018">
        <ele>95</ele>
        <time>2013-05-02T11:15:57Z</time>
      </trkpt>
      <trkpt lat="47.7079" lon="-2.71021">
        <ele>95</ele>
        <time>2013-05-02T11:15:58Z</time>
      </trkpt>
      <trkpt lat="47.70789" lon="-2.71024">
        <ele>95</ele>
        <time>2013-05-02T11:15:59Z</time>
      </trkpt>
      <trkpt lat="47.70788" lon="-2.71028">
        <ele>95</ele>
        <time>2013-05-02T11:16:00Z</time>
      </trkpt>
      <trkpt lat="47.70786" lon="-2.71032">
        <ele>95</ele>
        <time>2013-05-02T11:16:01Z</time>
      </trkpt>
      <trkpt lat="47.70785" lon="-2.71036">
        <ele>95</ele>
        <time>2013-05-02T11:16:02Z</time>
      </trkpt>
      <trkpt lat="47.70784" lon="-2.7104">
        <ele>95</ele>
        <time>2013-05-02T11:16:03Z</time>
      </trkpt>
      <trkpt lat="47.70784" lon="-2.71043">
        <ele>95</ele>
        <time>2013-05-02T11:16:04Z</time>
      </trkpt>
      <trkpt lat="47.70783" lon="-2.71047">
        <ele>95</ele>
        <time>2013-05-02T11:16:05Z</time>
      </trkpt>
      <trkpt lat="47.70784" lon="-2.71051">
        <ele>95</ele>
        <time>2013-05-02T11:16:06Z</time>
      </trkpt>
      <trkpt lat="47.70785" lon="-2.71055">
        <ele>95</ele>
        <time>2013-05-02T11:16:07Z</time>
      </trkpt>
      <trkpt lat="47.70784" lon="-2.71059">
        <ele>95</ele>
        <time>2013-05-02T11:16:08Z</time>
      </trkpt>
      <trkpt lat="47.70784" lon="-2.71063">
        <ele>95</ele>
        <time>2013-05-02T11:16:09Z</time>
      </trkpt>
      <trkpt lat="47.70784" lon="-2.71068">
        <ele>95</ele>
        <time>2013-05-02T11:16:10Z</time>
      </trkpt>
      <trkpt lat="47.70784" lon="-2.71072">
        <ele>95</ele>
        <time>2013-05-02T11:16:11Z</time>
      </trkpt>
      <trkpt lat="47.70784" lon="-2.71076">
        <ele>95</ele>
        <time>2013-05-02T11:16:12Z</time>
      </trkpt>
      <trkpt lat="47.70785" lon="-2.71079">
        <ele>95</ele>
        <time>2013-05-02T11:16:13Z</time>
      </trkpt>
      <trkpt lat="47.70785" lon="-2.71082">
        <ele>95</ele>
        <time>2013-05-02T11:16:14Z</time>
      </trkpt>
      <trkpt lat="47.70783" lon="-2.71086">
        <ele>95</ele>
        <time>2013-05-02T11:16:15Z</time>
      </trkpt>
      <trkpt lat="47.70781" lon="-2.71089">
        <ele>95</ele>
        <time>2013-05-02T11:16:16Z</time>
      </trkpt>
      <trkpt lat="47.7078" lon="-2.71091">
        <ele>95</ele>
        <time>2013-05-02T11:16:17Z</time>
      </trkpt>
      <trkpt lat="47.70778" lon="-2.71094">
        <ele>95</ele>
        <time>2013-05-02T11:16:18Z</time>
      </trkpt>
      <trkpt lat="47.70776" lon="-2.71096">
        <ele>95</ele>
        <time>2013-05-02T11:16:19Z</time>
      </trkpt>
      <trkpt lat="47.70774" lon="-2.71098">
        <ele>95</ele>
        <time>2013-05-02T11:16:20Z</time>
      </trkpt>
      <trkpt lat="47.70773" lon="-2.71101">
        <ele>95</ele>
        <time>2013-05-02T11:16:21Z</time>
      </trkpt>
      <trkpt lat="47.70771" lon="-2.71104">
        <ele>95</ele>
        <time>2013-05-02T11:16:22Z</time>
      </trkpt>
      <trkpt lat="47.70769" lon="-2.71107">
        <ele>95</ele>
        <time>2013-05-02T11:16:23Z</time>
      </trkpt>
      <trkpt lat="47.70768" lon="-2.7111">
        <ele>95</ele>
        <time>2013-05-02T11:16:24Z</time>
      </trkpt>
      <trkpt lat="47.70767" lon="-2.71112">
        <ele>95</ele>
        <time>2013-05-02T11:16:25Z</time>
      </trkpt>
      <trkpt lat="47.70766" lon="-2.71115">
        <ele>95</ele>
        <time>2013-05-02T11:16:26Z</time>
      </trkpt>
      <trkpt lat="47.70765" lon="-2.71117">
        <ele>95</ele>
        <time>2013-05-02T11:16:27Z</time>
      </trkpt>
      <trkpt lat="47.70764" lon="-2.7112">
        <ele>95</ele>
        <time>2013-05-02T11:16:28Z</time>
      </trkpt>
      <trkpt lat="47.70763" lon="-2.71122">
        <ele>96</ele>
        <time>2013-05-02T11:16:29Z</time>
      </trkpt>
      <trkpt lat="47.70761" lon="-2.71125">
        <ele>97</ele>
        <time>2013-05-02T11:16:30Z</time>
      </trkpt>
      <trkpt lat="47.7076" lon="-2.71128">
        <ele>97</ele>
        <time>2013-05-02T11:16:31Z</time>
      </trkpt>
      <trkpt lat="47.70759" lon="-2.7113">
        <ele>98</ele>
        <time>2013-05-02T11:16:32Z</time>
      </trkpt>
      <trkpt lat="47.70757" lon="-2.71133">
        <ele>98</ele>
        <time>2013-05-02T11:16:33Z</time>
      </trkpt>
      <trkpt lat="47.70755" lon="-2.71136">
        <ele>98</ele>
        <time>2013-05-02T11:16:34Z</time>
      </trkpt>
      <trkpt lat="47.70754" lon="-2.71139">
        <ele>99</ele>
        <time>2013-05-02T11:16:35Z</time>
      </trkpt>
      <trkpt lat="47.70753" lon="-2.71142">
        <ele>99</ele>
        <time>2013-05-02T11:16:36Z</time>
      </trkpt>
      <trkpt lat="47.70752" lon="-2.71144">
        <ele>100</ele>
        <time>2013-05-02T11:16:37Z</time>
      </trkpt>
      <trkpt lat="47.7075" lon="-2.71146">
        <ele>100</ele>
        <time>2013-05-02T11:16:38Z</time>
      </trkpt>
      <trkpt lat="47.70749" lon="-2.71148">
        <ele>101</ele>
        <time>2013-05-02T11:16:39Z</time>
      </trkpt>
      <trkpt lat="47.70748" lon="-2.7115">
        <ele>101</ele>
        <time>2013-05-02T11:16:40Z</time>
      </trkpt>
      <trkpt lat="47.70746" lon="-2.71152">
        <ele>101</ele>
        <time>2013-05-02T11:16:41Z</time>
      </trkpt>
      <trkpt lat="47.70745" lon="-2.71155">
        <ele>101</ele>
        <time>2013-05-02T11:16:42Z</time>
      </trkpt>
      <trkpt lat="47.70743" lon="-2.71158">
        <ele>101</ele>
        <time>2013-05-02T11:16:43Z</time>
      </trkpt>
      <trkpt lat="47.70741" lon="-2.7116">
        <ele>101</ele>
        <time>2013-05-02T11:16:44Z</time>
      </trkpt>
      <trkpt lat="47.70739" lon="-2.71163">
        <ele>101</ele>
        <time>2013-05-02T11:16:45Z</time>
      </trkpt>
      <trkpt lat="47.70737" lon="-2.71165">
        <ele>101</ele>
        <time>2013-05-02T11:16:46Z</time>
      </trkpt>
      <trkpt lat="47.70735" lon="-2.71167">
        <ele>101</ele>
        <time>2013-05-02T11:16:47Z</time>
      </trkpt>
      <trkpt lat="47.70733" lon="-2.7117">
        <ele>101</ele>
        <time>2013-05-02T11:16:48Z</time>
      </trkpt>
      <trkpt lat="47.70731" lon="-2.71172">
        <ele>101</ele>
        <time>2013-05-02T11:16:49Z</time>
      </trkpt>
      <trkpt lat="47.70728" lon="-2.71175">
        <ele>101</ele>
        <time>2013-05-02T11:16:50Z</time>
      </trkpt>
      <trkpt lat="47.70726" lon="-2.71178">
        <ele>101</ele>
        <time>2013-05-02T11:16:51Z</time>
      </trkpt>
      <trkpt lat="47.70723" lon="-2.71181">
        <ele>101</ele>
        <time>2013-05-02T11:16:52Z</time>
      </trkpt>
      <trkpt lat="47.7072" lon="-2.71185">
        <ele>101</ele>
        <time>2013-05-02T11:16:53Z</time>
      </trkpt>
      <trkpt lat="47.70718" lon="-2.71189">
        <ele>101</ele>
        <time>2013-05-02T11:16:54Z</time>
      </trkpt>
      <trkpt lat="47.70715" lon="-2.71193">
        <ele>101</ele>
        <time>2013-05-02T11:16:55Z</time>
      </trkpt>
      <trkpt lat="47.70714" lon="-2.71197">
        <ele>101</ele>
        <time>2013-05-02T11:16:56Z</time>
      </trkpt>
      <trkpt lat="47.70714" lon="-2.71201">
        <ele>101</ele>
        <time>2013-05-02T11:16:57Z</time>
      </trkpt>
      <trkpt lat="47.70715" lon="-2.71205">
        <ele>101</ele>
        <time>2013-05-02T11:16:58Z</time>
      </trkpt>
      <trkpt lat="47.70716" lon="-2.7121">
        <ele>101</ele>
        <time>2013-05-02T11:16:59Z</time>
      </trkpt>
      <trkpt lat="47.70717" lon="-2.71215">
        <ele>101</ele>
        <time>2013-05-02T11:17:00Z</time>
      </trkpt>
      <trkpt lat="47.7072" lon="-2.7122">
        <ele>101</ele>
        <time>2013-05-02T11:17:01Z</time>
      </trkpt>
      <trkpt lat="47.70722" lon="-2.71225">
        <ele>101</ele>
        <time>2013-05-02T11:17:02Z</time>
      </trkpt>
      <trkpt lat="47.70724" lon="-2.71229">
        <ele>101</ele>
        <time>2013-05-02T11:17:03Z</time>
      </trkpt>
      <trkpt lat="47.70726" lon="-2.71234">
        <ele>101</ele>
        <time>2013-05-02T11:17:04Z</time>
      </trkpt>
      <trkpt lat="47.70728" lon="-2.71238">
        <ele>101</ele>
        <time>2013-05-02T11:17:05Z</time>
      </trkpt>
      <trkpt lat="47.70729" lon="-2.71243">
        <ele>101</ele>
        <time>2013-05-02T11:17:06Z</time>
      </trkpt>
      <trkpt lat="47.70731" lon="-2.71247">
        <ele>101</ele>
        <time>2013-05-02T11:17:07Z</time>
      </trkpt>
      <trkpt lat="47.70733" lon="-2.71251">
        <ele>101</ele>
        <time>2013-05-02T11:17:08Z</time>
      </trkpt>
      <trkpt lat="47.70734" lon="-2.71254">
        <ele>101</ele>
        <time>2013-05-02T11:17:09Z</time>
      </trkpt>
      <trkpt lat="47.70736" lon="-2.71259">
        <ele>101</ele>
        <time>2013-05-02T11:17:10Z</time>
      </trkpt>
      <trkpt lat="47.70737" lon="-2.71263">
        <ele>101</ele>
        <time>2013-05-02T11:17:11Z</time>
      </trkpt>
      <trkpt lat="47.70738" lon="-2.71268">
        <ele>101</ele>
        <time>2013-05-02T11:17:12Z</time>
      </trkpt>
      <trkpt lat="47.7074" lon="-2.71273">
        <ele>101</ele>
        <time>2013-05-02T11:17:13Z</time>
      </trkpt>
      <trkpt lat="47.70742" lon="-2.71278">
        <ele>101</ele>
        <time>2013-05-02T11:17:14Z</time>
      </trkpt>
      <trkpt lat="47.70744" lon="-2.71283">
        <ele>101</ele>
        <time>2013-05-02T11:17:15Z</time>
      </trkpt>
      <trkpt lat="47.70745" lon="-2.71288">
        <ele>101</ele>
        <time>2013-05-02T11:17:16Z</time>
      </trkpt>
      <trkpt lat="47.70747" lon="-2.71293">
        <ele>101</ele>
        <time>2013-05-02T11:17:17Z</time>
      </trkpt>
      <trkpt lat="47.70749" lon="-2.71298">
        <ele>101</ele>
        <time>2013-05-02T11:17:18Z</time>
      </trkpt>
      <trkpt lat="47.70751" lon="-2.71303">
        <ele>101</ele>
        <time>2013-05-02T11:17:19Z</time>
      </trkpt>
      <trkpt lat="47.70753" lon="-2.71308">
        <ele>101</ele>
        <time>2013-05-02T11:17:20Z</time>
      </trkpt>
      <trkpt lat="47.70755" lon="-2.71314">
        <ele>101</ele>
        <time>2013-05-02T11:17:21Z</time>
      </trkpt>
      <trkpt lat="47.70757" lon="-2.71319">
        <ele>101</ele>
        <time>2013-05-02T11:17:22Z</time>
      </trkpt>
      <trkpt lat="47.70759" lon="-2.71324">
        <ele>101</ele>
        <time>2013-05-02T11:17:23Z</time>
      </trkpt>
      <trkpt lat="47.70761" lon="-2.71329">
        <ele>101</ele>
        <time>2013-05-02T11:17:24Z</time>
      </trkpt>
      <trkpt lat="47.70763" lon="-2.71334">
        <ele>101</ele>
        <time>2013-05-02T11:17:25Z</time>
      </trkpt>
      <trkpt lat="47.70766" lon="-2.71339">
        <ele>101</ele>
        <time>2013-05-02T11:17:26Z</time>
      </trkpt>
      <trkpt lat="47.70768" lon="-2.71344">
        <ele>101</ele>
        <time>2013-05-02T11:17:27Z</time>
      </trkpt>
      <trkpt lat="47.7077" lon="-2.71349">
        <ele>101</ele>
        <time>2013-05-02T11:17:28Z</time>
      </trkpt>
      <trkpt lat="47.70771" lon="-2.71354">
        <ele>101</ele>
        <time>2013-05-02T11:17:29Z</time>
      </trkpt>
      <trkpt lat="47.70773" lon="-2.71359">
        <ele>101</ele>
        <time>2013-05-02T11:17:30Z</time>
      </trkpt>
      <trkpt lat="47.70776" lon="-2.71364">
        <ele>101</ele>
        <time>2013-05-02T11:17:31Z</time>
      </trkpt>
      <trkpt lat="47.70778" lon="-2.71368">
        <ele>101</ele>
        <time>2013-05-02T11:17:32Z</time>
      </trkpt>
      <trkpt lat="47.7078" lon="-2.71372">
        <ele>101</ele>
        <time>2013-05-02T11:17:33Z</time>
      </trkpt>
      <trkpt lat="47.70782" lon="-2.71377">
        <ele>101</ele>
        <time>2013-05-02T11:17:34Z</time>
      </trkpt>
      <trkpt lat="47.70785" lon="-2.71382">
        <ele>101</ele>
        <time>2013-05-02T11:17:35Z</time>
      </trkpt>
      <trkpt lat="47.70788" lon="-2.71387">
        <ele>101</ele>
        <time>2013-05-02T11:17:36Z</time>
      </trkpt>
      <trkpt lat="47.70791" lon="-2.71393">
        <ele>101</ele>
        <time>2013-05-02T11:17:37Z</time>
      </trkpt>
      <trkpt lat="47.70794" lon="-2.71399">
        <ele>101</ele>
        <time>2013-05-02T11:17:38Z</time>
      </trkpt>
      <trkpt lat="47.70797" lon="-2.71406">
        <ele>101</ele>
        <time>2013-05-02T11:17:39Z</time>
      </trkpt>
      <trkpt lat="47.708" lon="-2.71412">
        <ele>101</ele>
        <time>2013-05-02T11:17:40Z</time>
      </trkpt>
      <trkpt lat="47.70804" lon="-2.71417">
        <ele>101</ele>
        <time>2013-05-02T11:17:41Z</time>
      </trkpt>
      <trkpt lat="47.70807" lon="-2.71423">
        <ele>101</ele>
        <time>2013-05-02T11:17:42Z</time>
      </trkpt>
      <trkpt lat="47.7081" lon="-2.71428">
        <ele>101</ele>
        <time>2013-05-02T11:17:43Z</time>
      </trkpt>
      <trkpt lat="47.70813" lon="-2.71432">
        <ele>101</ele>
        <time>2013-05-02T11:17:44Z</time>
      </trkpt>
      <trkpt lat="47.70816" lon="-2.71437">
        <ele>101</ele>
        <time>2013-05-02T11:17:45Z</time>
      </trkpt>
      <trkpt lat="47.70818" lon="-2.71442">
        <ele>101</ele>
        <time>2013-05-02T11:17:46Z</time>
      </trkpt>
      <trkpt lat="47.70821" lon="-2.71446">
        <ele>101</ele>
        <time>2013-05-02T11:17:47Z</time>
      </trkpt>
      <trkpt lat="47.70823" lon="-2.71451">
        <ele>101</ele>
        <time>2013-05-02T11:17:48Z</time>
      </trkpt>
      <trkpt lat="47.70826" lon="-2.71455">
        <ele>101</ele>
        <time>2013-05-02T11:17:49Z</time>
      </trkpt>
      <trkpt lat="47.70828" lon="-2.71459">
        <ele>101</ele>
        <time>2013-05-02T11:17:50Z</time>
      </trkpt>
      <trkpt lat="47.7083" lon="-2.71464">
        <ele>101</ele>
        <time>2013-05-02T11:17:51Z</time>
      </trkpt>
      <trkpt lat="47.70831" lon="-2.71469">
        <ele>101</ele>
        <time>2013-05-02T11:17:52Z</time>
      </trkpt>
      <trkpt lat="47.70832" lon="-2.71474">
        <ele>101</ele>
        <time>2013-05-02T11:17:53Z</time>
      </trkpt>
      <trkpt lat="47.70833" lon="-2.71479">
        <ele>101</ele>
        <time>2013-05-02T11:17:54Z</time>
      </trkpt>
      <trkpt lat="47.70833" lon="-2.71485">
        <ele>101</ele>
        <time>2013-05-02T11:17:55Z</time>
      </trkpt>
      <trkpt lat="47.70834" lon="-2.71491">
        <ele>101</ele>
        <time>2013-05-02T11:17:56Z</time>
      </trkpt>
      <trkpt lat="47.70834" lon="-2.71497">
        <ele>101</ele>
        <time>2013-05-02T11:17:57Z</time>
      </trkpt>
      <trkpt lat="47.70833" lon="-2.71504">
        <ele>101</ele>
        <time>2013-05-02T11:17:58Z</time>
      </trkpt>
      <trkpt lat="47.70834" lon="-2.7151">
        <ele>101</ele>
        <time>2013-05-02T11:17:59Z</time>
      </trkpt>
      <trkpt lat="47.70834" lon="-2.71517">
        <ele>101</ele>
        <time>2013-05-02T11:18:00Z</time>
      </trkpt>
      <trkpt lat="47.70834" lon="-2.71525">
        <ele>101</ele>
        <time>2013-05-02T11:18:01Z</time>
      </trkpt>
      <trkpt lat="47.70834" lon="-2.71532">
        <ele>101</ele>
        <time>2013-05-02T11:18:02Z</time>
      </trkpt>
      <trkpt lat="47.70833" lon="-2.7154">
        <ele>101</ele>
        <time>2013-05-02T11:18:03Z</time>
      </trkpt>
      <trkpt lat="47.70832" lon="-2.71546">
        <ele>101</ele>
        <time>2013-05-02T11:18:04Z</time>
      </trkpt>
      <trkpt lat="47.70832" lon="-2.71552">
        <ele>101</ele>
        <time>2013-05-02T11:18:05Z</time>
      </trkpt>
      <trkpt lat="47.70832" lon="-2.71557">
        <ele>101</ele>
        <time>2013-05-02T11:18:06Z</time>
      </trkpt>
      <trkpt lat="47.70832" lon="-2.71564">
        <ele>101</ele>
        <time>2013-05-02T11:18:07Z</time>
      </trkpt>
      <trkpt lat="47.70833" lon="-2.71569">
        <ele>101</ele>
        <time>2013-05-02T11:18:08Z</time>
      </trkpt>
      <trkpt lat="47.70833" lon="-2.71572">
        <ele>101</ele>
        <time>2013-05-02T11:18:09Z</time>
      </trkpt>
      <trkpt lat="47.70834" lon="-2.71575">
        <ele>101</ele>
        <time>2013-05-02T11:18:10Z</time>
      </trkpt>
      <trkpt lat="47.70834" lon="-2.71577">
        <ele>101</ele>
        <time>2013-05-02T11:18:11Z</time>
      </trkpt>
      <trkpt lat="47.70834" lon="-2.7158">
        <ele>101</ele>
        <time>2013-05-02T11:18:12Z</time>
      </trkpt>
      <trkpt lat="47.70836" lon="-2.71584">
        <ele>101</ele>
        <time>2013-05-02T11:18:13Z</time>
      </trkpt>
      <trkpt lat="47.70838" lon="-2.71589">
        <ele>101</ele>
        <time>2013-05-02T11:18:14Z</time>
      </trkpt>
      <trkpt lat="47.70841" lon="-2.71595">
        <ele>101</ele>
        <time>2013-05-02T11:18:15Z</time>
      </trkpt>
      <trkpt lat="47.70844" lon="-2.71601">
        <ele>101</ele>
        <time>2013-05-02T11:18:16Z</time>
      </trkpt>
      <trkpt lat="47.70848" lon="-2.71607">
        <ele>101</ele>
        <time>2013-05-02T11:18:17Z</time>
      </trkpt>
      <trkpt lat="47.7085" lon="-2.71613">
        <ele>101</ele>
        <time>2013-05-02T11:18:18Z</time>
      </trkpt>
      <trkpt lat="47.70852" lon="-2.71618">
        <ele>101</ele>
        <time>2013-05-02T11:18:19Z</time>
      </trkpt>
      <trkpt lat="47.70854" lon="-2.71622">
        <ele>100</ele>
        <time>2013-05-02T11:18:20Z</time>
      </trkpt>
      <trkpt lat="47.70855" lon="-2.71627">
        <ele>99</ele>
        <time>2013-05-02T11:18:21Z</time>
      </trkpt>
      <trkpt lat="47.70857" lon="-2.71633">
        <ele>98</ele>
        <time>2013-05-02T11:18:22Z</time>
      </trkpt>
      <trkpt lat="47.7086" lon="-2.71639">
        <ele>97</ele>
        <time>2013-05-02T11:18:23Z</time>
      </trkpt>
      <trkpt lat="47.70863" lon="-2.71644">
        <ele>96</ele>
        <time>2013-05-02T11:18:24Z</time>
      </trkpt>
      <trkpt lat="47.70866" lon="-2.7165">
        <ele>95</ele>
        <time>2013-05-02T11:18:25Z</time>
      </trkpt>
      <trkpt lat="47.7087" lon="-2.71656">
        <ele>94</ele>
        <time>2013-05-02T11:18:26Z</time>
      </trkpt>
      <trkpt lat="47.70875" lon="-2.71661">
        <ele>93</ele>
        <time>2013-05-02T11:18:27Z</time>
      </trkpt>
      <trkpt lat="47.7088" lon="-2.71666">
        <ele>92</ele>
        <time>2013-05-02T11:18:28Z</time>
      </trkpt>
      <trkpt lat="47.70886" lon="-2.71673">
        <ele>91</ele>
        <time>2013-05-02T11:18:29Z</time>
      </trkpt>
      <trkpt lat="47.70891" lon="-2.71679">
        <ele>90</ele>
        <time>2013-05-02T11:18:30Z</time>
      </trkpt>
      <trkpt lat="47.70897" lon="-2.71687">
        <ele>89</ele>
        <time>2013-05-02T11:18:31Z</time>
      </trkpt>
      <trkpt lat="47.709" lon="-2.71692">
        <ele>88</ele>
        <time>2013-05-02T11:18:32Z</time>
      </trkpt>
      <trkpt lat="47.70904" lon="-2.71697">
        <ele>87</ele>
        <time>2013-05-02T11:18:33Z</time>
      </trkpt>
      <trkpt lat="47.70908" lon="-2.71703">
        <ele>86</ele>
        <time>2013-05-02T11:18:34Z</time>
      </trkpt>
      <trkpt lat="47.70909" lon="-2.71706">
        <ele>85</ele>
        <time>2013-05-02T11:18:35Z</time>
      </trkpt>
      <trkpt lat="47.70907" lon="-2.71706">
        <ele>84</ele>
        <time>2013-05-02T11:18:36Z</time>
      </trkpt>
      <trkpt lat="47.70905" lon="-2.71707">
        <ele>82</ele>
        <time>2013-05-02T11:18:38Z</time>
      </trkpt>
      <trkpt lat="47.70904" lon="-2.71709">
        <ele>81</ele>
        <time>2013-05-02T11:18:39Z</time>
      </trkpt>
      <trkpt lat="47.70905" lon="-2.71711">
        <ele>80</ele>
        <time>2013-05-02T11:18:41Z</time>
      </trkpt>
      <trkpt lat="47.70904" lon="-2.71712">
        <ele>80</ele>
        <time>2013-05-02T11:18:42Z</time>
      </trkpt>
      <trkpt lat="47.70904" lon="-2.71716">
        <ele>80</ele>
        <time>2013-05-02T11:18:43Z</time>
      </trkpt>
      <trkpt lat="47.70905" lon="-2.7172">
        <ele>79</ele>
        <time>2013-05-02T11:18:44Z</time>
      </trkpt>
      <trkpt lat="47.70905" lon="-2.71726">
        <ele>79</ele>
        <time>2013-05-02T11:18:45Z</time>
      </trkpt>
      <trkpt lat="47.70906" lon="-2.7173">
        <ele>79</ele>
        <time>2013-05-02T11:18:46Z</time>
      </trkpt>
      <trkpt lat="47.70906" lon="-2.71735">
        <ele>79</ele>
        <time>2013-05-02T11:18:47Z</time>
      </trkpt>
      <trkpt lat="47.70908" lon="-2.71741">
        <ele>79</ele>
        <time>2013-05-02T11:18:48Z</time>
      </trkpt>
      <trkpt lat="47.7091" lon="-2.71747">
        <ele>79</ele>
        <time>2013-05-02T11:18:49Z</time>
      </trkpt>
      <trkpt lat="47.70912" lon="-2.71755">
        <ele>79</ele>
        <time>2013-05-02T11:18:50Z</time>
      </trkpt>
      <trkpt lat="47.70914" lon="-2.71765">
        <ele>79</ele>
        <time>2013-05-02T11:18:51Z</time>
      </trkpt>
      <trkpt lat="47.70916" lon="-2.71774">
        <ele>79</ele>
        <time>2013-05-02T11:18:52Z</time>
      </trkpt>
      <trkpt lat="47.70918" lon="-2.71785">
        <ele>78</ele>
        <time>2013-05-02T11:18:53Z</time>
      </trkpt>
      <trkpt lat="47.70919" lon="-2.71796">
        <ele>77</ele>
        <time>2013-05-02T11:18:54Z</time>
      </trkpt>
      <trkpt lat="47.70921" lon="-2.71805">
        <ele>76</ele>
        <time>2013-05-02T11:18:55Z</time>
      </trkpt>
      <trkpt lat="47.70921" lon="-2.71813">
        <ele>75</ele>
        <time>2013-05-02T11:18:56Z</time>
      </trkpt>
      <trkpt lat="47.70922" lon="-2.7182">
        <ele>74</ele>
        <time>2013-05-02T11:18:57Z</time>
      </trkpt>
      <trkpt lat="47.70922" lon="-2.71825">
        <ele>73</ele>
        <time>2013-05-02T11:18:58Z</time>
      </trkpt>
      <trkpt lat="47.70922" lon="-2.7183">
        <ele>72</ele>
        <time>2013-05-02T11:18:59Z</time>
      </trkpt>
      <trkpt lat="47.70923" lon="-2.71835">
        <ele>71</ele>
        <time>2013-05-02T11:19:00Z</time>
      </trkpt>
      <trkpt lat="47.70924" lon="-2.71839">
        <ele>71</ele>
        <time>2013-05-02T11:19:01Z</time>
      </trkpt>
      <trkpt lat="47.70926" lon="-2.71845">
        <ele>70</ele>
        <time>2013-05-02T11:19:02Z</time>
      </trkpt>
      <trkpt lat="47.70926" lon="-2.71849">
        <ele>69</ele>
        <time>2013-05-02T11:19:03Z</time>
      </trkpt>
      <trkpt lat="47.70927" lon="-2.71852">
        <ele>68</ele>
        <time>2013-05-02T11:19:04Z</time>
      </trkpt>
      <trkpt lat="47.70927" lon="-2.71855">
        <ele>67</ele>
        <time>2013-05-02T11:19:05Z</time>
      </trkpt>
      <trkpt lat="47.70927" lon="-2.71857">
        <ele>66</ele>
        <time>2013-05-02T11:19:06Z</time>
      </trkpt>
      <trkpt lat="47.70928" lon="-2.71859">
        <ele>66</ele>
        <time>2013-05-02T11:19:07Z</time>
      </trkpt>
      <trkpt lat="47.70929" lon="-2.71862">
        <ele>65</ele>
        <time>2013-05-02T11:19:08Z</time>
      </trkpt>
      <trkpt lat="47.70931" lon="-2.71866">
        <ele>64</ele>
        <time>2013-05-02T11:19:09Z</time>
      </trkpt>
      <trkpt lat="47.70932" lon="-2.7187">
        <ele>64</ele>
        <time>2013-05-02T11:19:10Z</time>
      </trkpt>
      <trkpt lat="47.70932" lon="-2.71875">
        <ele>63</ele>
        <time>2013-05-02T11:19:11Z</time>
      </trkpt>
      <trkpt lat="47.70931" lon="-2.7188">
        <ele>62</ele>
        <time>2013-05-02T11:19:12Z</time>
      </trkpt>
      <trkpt lat="47.7093" lon="-2.71885">
        <ele>61</ele>
        <time>2013-05-02T11:19:13Z</time>
      </trkpt>
      <trkpt lat="47.70929" lon="-2.7189">
        <ele>60</ele>
        <time>2013-05-02T11:19:14Z</time>
      </trkpt>
      <trkpt lat="47.70927" lon="-2.71896">
        <ele>60</ele>
        <time>2013-05-02T11:19:15Z</time>
      </trkpt>
      <trkpt lat="47.70925" lon="-2.71903">
        <ele>59</ele>
        <time>2013-05-02T11:19:16Z</time>
      </trkpt>
      <trkpt lat="47.70924" lon="-2.71909">
        <ele>59</ele>
        <time>2013-05-02T11:19:17Z</time>
      </trkpt>
      <trkpt lat="47.70923" lon="-2.71915">
        <ele>59</ele>
        <time>2013-05-02T11:19:18Z</time>
      </trkpt>
      <trkpt lat="47.70923" lon="-2.71919">
        <ele>59</ele>
        <time>2013-05-02T11:19:19Z</time>
      </trkpt>
      <trkpt lat="47.70922" lon="-2.71922">
        <ele>59</ele>
        <time>2013-05-02T11:19:20Z</time>
      </trkpt>
      <trkpt lat="47.70921" lon="-2.71925">
        <ele>59</ele>
        <time>2013-05-02T11:19:21Z</time>
      </trkpt>
      <trkpt lat="47.7092" lon="-2.71929">
        <ele>59</ele>
        <time>2013-05-02T11:19:22Z</time>
      </trkpt>
      <trkpt lat="47.70919" lon="-2.71932">
        <ele>59</ele>
        <time>2013-05-02T11:19:23Z</time>
      </trkpt>
      <trkpt lat="47.70917" lon="-2.71935">
        <ele>59</ele>
        <time>2013-05-02T11:19:24Z</time>
      </trkpt>
      <trkpt lat="47.70915" lon="-2.71939">
        <ele>60</ele>
        <time>2013-05-02T11:19:25Z</time>
      </trkpt>
      <trkpt lat="47.70913" lon="-2.71942">
        <ele>61</ele>
        <time>2013-05-02T11:19:26Z</time>
      </trkpt>
      <trkpt lat="47.70911" lon="-2.71946">
        <ele>61</ele>
        <time>2013-05-02T11:19:27Z</time>
      </trkpt>
      <trkpt lat="47.70908" lon="-2.7195">
        <ele>62</ele>
        <time>2013-05-02T11:19:28Z</time>
      </trkpt>
      <trkpt lat="47.7091" lon="-2.71955">
        <ele>62</ele>
        <time>2013-05-02T11:19:29Z</time>
      </trkpt>
      <trkpt lat="47.7091" lon="-2.7196">
        <ele>63</ele>
        <time>2013-05-02T11:19:30Z</time>
      </trkpt>
      <trkpt lat="47.70909" lon="-2.71965">
        <ele>63</ele>
        <time>2013-05-02T11:19:31Z</time>
      </trkpt>
      <trkpt lat="47.70906" lon="-2.7197">
        <ele>64</ele>
        <time>2013-05-02T11:19:32Z</time>
      </trkpt>
      <trkpt lat="47.70903" lon="-2.71975">
        <ele>64</ele>
        <time>2013-05-02T11:19:33Z</time>
      </trkpt>
      <trkpt lat="47.709" lon="-2.7198">
        <ele>65</ele>
        <time>2013-05-02T11:19:34Z</time>
      </trkpt>
      <trkpt lat="47.70898" lon="-2.71985">
        <ele>66</ele>
        <time>2013-05-02T11:19:35Z</time>
      </trkpt>
      <trkpt lat="47.70895" lon="-2.7199">
        <ele>67</ele>
        <time>2013-05-02T11:19:36Z</time>
      </trkpt>
      <trkpt lat="47.70892" lon="-2.71995">
        <ele>68</ele>
        <time>2013-05-02T11:19:37Z</time>
      </trkpt>
      <trkpt lat="47.70889" lon="-2.72">
        <ele>69</ele>
        <time>2013-05-02T11:19:38Z</time>
      </trkpt>
      <trkpt lat="47.70886" lon="-2.72003">
        <ele>70</ele>
        <time>2013-05-02T11:19:39Z</time>
      </trkpt>
      <trkpt lat="47.70884" lon="-2.72006">
        <ele>71</ele>
        <time>2013-05-02T11:19:40Z</time>
      </trkpt>
      <trkpt lat="47.70882" lon="-2.72008">
        <ele>71</ele>
        <time>2013-05-02T11:19:41Z</time>
      </trkpt>
      <trkpt lat="47.7088" lon="-2.72013">
        <ele>72</ele>
        <time>2013-05-02T11:19:42Z</time>
      </trkpt>
      <trkpt lat="47.70878" lon="-2.72018">
        <ele>72</ele>
        <time>2013-05-02T11:19:43Z</time>
      </trkpt>
      <trkpt lat="47.70877" lon="-2.72023">
        <ele>72</ele>
        <time>2013-05-02T11:19:44Z</time>
      </trkpt>
      <trkpt lat="47.70877" lon="-2.72027">
        <ele>72</ele>
        <time>2013-05-02T11:19:45Z</time>
      </trkpt>
      <trkpt lat="47.70878" lon="-2.72032">
        <ele>72</ele>
        <time>2013-05-02T11:19:46Z</time>
      </trkpt>
      <trkpt lat="47.70879" lon="-2.72037">
        <ele>72</ele>
        <time>2013-05-02T11:19:47Z</time>
      </trkpt>
      <trkpt lat="47.70879" lon="-2.72042">
        <ele>72</ele>
        <time>2013-05-02T11:19:48Z</time>
      </trkpt>
      <trkpt lat="47.70881" lon="-2.72048">
        <ele>71</ele>
        <time>2013-05-02T11:19:49Z</time>
      </trkpt>
      <trkpt lat="47.70882" lon="-2.72054">
        <ele>70</ele>
        <time>2013-05-02T11:19:50Z</time>
      </trkpt>
      <trkpt lat="47.70883" lon="-2.72059">
        <ele>69</ele>
        <time>2013-05-02T11:19:51Z</time>
      </trkpt>
      <trkpt lat="47.70887" lon="-2.72064">
        <ele>68</ele>
        <time>2013-05-02T11:19:52Z</time>
      </trkpt>
      <trkpt lat="47.7089" lon="-2.72069">
        <ele>67</ele>
        <time>2013-05-02T11:19:53Z</time>
      </trkpt>
      <trkpt lat="47.70894" lon="-2.72073">
        <ele>66</ele>
        <time>2013-05-02T11:19:54Z</time>
      </trkpt>
      <trkpt lat="47.70897" lon="-2.72078">
        <ele>65</ele>
        <time>2013-05-02T11:19:55Z</time>
      </trkpt>
      <trkpt lat="47.709" lon="-2.72083">
        <ele>64</ele>
        <time>2013-05-02T11:19:56Z</time>
      </trkpt>
      <trkpt lat="47.70903" lon="-2.72088">
        <ele>63</ele>
        <time>2013-05-02T11:19:57Z</time>
      </trkpt>
      <trkpt lat="47.70905" lon="-2.72092">
        <ele>62</ele>
        <time>2013-05-02T11:19:58Z</time>
      </trkpt>
      <trkpt lat="47.70908" lon="-2.72096">
        <ele>61</ele>
        <time>2013-05-02T11:19:59Z</time>
      </trkpt>
      <trkpt lat="47.70911" lon="-2.721">
        <ele>60</ele>
        <time>2013-05-02T11:20:00Z</time>
      </trkpt>
      <trkpt lat="47.70914" lon="-2.72103">
        <ele>59</ele>
        <time>2013-05-02T11:20:01Z</time>
      </trkpt>
      <trkpt lat="47.70916" lon="-2.72106">
        <ele>58</ele>
        <time>2013-05-02T11:20:02Z</time>
      </trkpt>
      <trkpt lat="47.70919" lon="-2.7211">
        <ele>57</ele>
        <time>2013-05-02T11:20:03Z</time>
      </trkpt>
      <trkpt lat="47.7092" lon="-2.72112">
        <ele>57</ele>
        <time>2013-05-02T11:20:04Z</time>
      </trkpt>
      <trkpt lat="47.70921" lon="-2.72114">
        <ele>57</ele>
        <time>2013-05-02T11:20:05Z</time>
      </trkpt>
      <trkpt lat="47.70922" lon="-2.72115">
        <ele>57</ele>
        <time>2013-05-02T11:20:07Z</time>
      </trkpt>
      <trkpt lat="47.70923" lon="-2.72119">
        <ele>57</ele>
        <time>2013-05-02T11:20:09Z</time>
      </trkpt>
      <trkpt lat="47.70931" lon="-2.72112">
        <ele>60</ele>
        <time>2013-05-02T11:20:13Z</time>
      </trkpt>
      <trkpt lat="47.70932" lon="-2.72109">
        <ele>61</ele>
        <time>2013-05-02T11:20:15Z</time>
      </trkpt>
      <trkpt lat="47.70931" lon="-2.72106">
        <ele>62</ele>
        <time>2013-05-02T11:20:16Z</time>
      </trkpt>
      <trkpt lat="47.70932" lon="-2.72104">
        <ele>63</ele>
        <time>2013-05-02T11:20:17Z</time>
      </trkpt>
      <trkpt lat="47.70934" lon="-2.72102">
        <ele>63</ele>
        <time>2013-05-02T11:20:18Z</time>
      </trkpt>
      <trkpt lat="47.70935" lon="-2.72101">
        <ele>64</ele>
        <time>2013-05-02T11:20:19Z</time>
      </trkpt>
      <trkpt lat="47.70937" lon="-2.721">
        <ele>64</ele>
        <time>2013-05-02T11:20:20Z</time>
      </trkpt>
      <trkpt lat="47.70937" lon="-2.72097">
        <ele>64</ele>
        <time>2013-05-02T11:20:21Z</time>
      </trkpt>
      <trkpt lat="47.7094" lon="-2.72095">
        <ele>64</ele>
        <time>2013-05-02T11:20:22Z</time>
      </trkpt>
      <trkpt lat="47.70942" lon="-2.72094">
        <ele>64</ele>
        <time>2013-05-02T11:20:23Z</time>
      </trkpt>
      <trkpt lat="47.70944" lon="-2.72092">
        <ele>64</ele>
        <time>2013-05-02T11:20:24Z</time>
      </trkpt>
      <trkpt lat="47.70946" lon="-2.72089">
        <ele>64</ele>
        <time>2013-05-02T11:20:25Z</time>
      </trkpt>
      <trkpt lat="47.70947" lon="-2.72087">
        <ele>64</ele>
        <time>2013-05-02T11:20:26Z</time>
      </trkpt>
      <trkpt lat="47.70948" lon="-2.72083">
        <ele>64</ele>
        <time>2013-05-02T11:20:27Z</time>
      </trkpt>
      <trkpt lat="47.70949" lon="-2.72081">
        <ele>64</ele>
        <time>2013-05-02T11:20:28Z</time>
      </trkpt>
      <trkpt lat="47.7095" lon="-2.72079">
        <ele>64</ele>
        <time>2013-05-02T11:20:29Z</time>
      </trkpt>
      <trkpt lat="47.70951" lon="-2.72077">
        <ele>64</ele>
        <time>2013-05-02T11:20:30Z</time>
      </trkpt>
      <trkpt lat="47.70951" lon="-2.72073">
        <ele>65</ele>
        <time>2013-05-02T11:20:31Z</time>
      </trkpt>
      <trkpt lat="47.70952" lon="-2.72071">
        <ele>66</ele>
        <time>2013-05-02T11:20:32Z</time>
      </trkpt>
      <trkpt lat="47.70953" lon="-2.72069">
        <ele>67</ele>
        <time>2013-05-02T11:20:33Z</time>
      </trkpt>
      <trkpt lat="47.70953" lon="-2.72066">
        <ele>69</ele>
        <time>2013-05-02T11:20:35Z</time>
      </trkpt>
      <trkpt lat="47.70954" lon="-2.72077">
        <ele>72</ele>
        <time>2013-05-02T11:20:39Z</time>
      </trkpt>
      <trkpt lat="47.70953" lon="-2.7208">
        <ele>72</ele>
        <time>2013-05-02T11:20:40Z</time>
      </trkpt>
      <trkpt lat="47.70952" lon="-2.72083">
        <ele>71</ele>
        <time>2013-05-02T11:20:41Z</time>
      </trkpt>
      <trkpt lat="47.70951" lon="-2.72085">
        <ele>71</ele>
        <time>2013-05-02T11:20:42Z</time>
      </trkpt>
      <trkpt lat="47.70951" lon="-2.72088">
        <ele>71</ele>
        <time>2013-05-02T11:20:43Z</time>
      </trkpt>
      <trkpt lat="47.7095" lon="-2.7209">
        <ele>70</ele>
        <time>2013-05-02T11:20:44Z</time>
      </trkpt>
      <trkpt lat="47.7095" lon="-2.72093">
        <ele>70</ele>
        <time>2013-05-02T11:20:45Z</time>
      </trkpt>
      <trkpt lat="47.7095" lon="-2.72095">
        <ele>70</ele>
        <time>2013-05-02T11:20:46Z</time>
      </trkpt>
      <trkpt lat="47.70949" lon="-2.72098">
        <ele>69</ele>
        <time>2013-05-02T11:20:47Z</time>
      </trkpt>
      <trkpt lat="47.70948" lon="-2.72101">
        <ele>69</ele>
        <time>2013-05-02T11:20:48Z</time>
      </trkpt>
      <trkpt lat="47.70947" lon="-2.72106">
        <ele>69</ele>
        <time>2013-05-02T11:20:49Z</time>
      </trkpt>
      <trkpt lat="47.70947" lon="-2.72109">
        <ele>68</ele>
        <time>2013-05-02T11:20:50Z</time>
      </trkpt>
      <trkpt lat="47.70946" lon="-2.72112">
        <ele>68</ele>
        <time>2013-05-02T11:20:51Z</time>
      </trkpt>
      <trkpt lat="47.70944" lon="-2.72115">
        <ele>68</ele>
        <time>2013-05-02T11:20:52Z</time>
      </trkpt>
      <trkpt lat="47.70943" lon="-2.72117">
        <ele>67</ele>
        <time>2013-05-02T11:20:53Z</time>
      </trkpt>
      <trkpt lat="47.70942" lon="-2.7212">
        <ele>67</ele>
        <time>2013-05-02T11:20:54Z</time>
      </trkpt>
      <trkpt lat="47.70942" lon="-2.72123">
        <ele>67</ele>
        <time>2013-05-02T11:20:55Z</time>
      </trkpt>
      <trkpt lat="47.70941" lon="-2.72125">
        <ele>67</ele>
        <time>2013-05-02T11:20:56Z</time>
      </trkpt>
      <trkpt lat="47.70939" lon="-2.72129">
        <ele>67</ele>
        <time>2013-05-02T11:20:57Z</time>
      </trkpt>
      <trkpt lat="47.70938" lon="-2.72133">
        <ele>67</ele>
        <time>2013-05-02T11:20:58Z</time>
      </trkpt>
      <trkpt lat="47.70936" lon="-2.72136">
        <ele>67</ele>
        <time>2013-05-02T11:20:59Z</time>
      </trkpt>
      <trkpt lat="47.70934" lon="-2.7214">
        <ele>67</ele>
        <time>2013-05-02T11:21:00Z</time>
      </trkpt>
      <trkpt lat="47.70934" lon="-2.72143">
        <ele>67</ele>
        <time>2013-05-02T11:21:01Z</time>
      </trkpt>
      <trkpt lat="47.70933" lon="-2.72146">
        <ele>67</ele>
        <time>2013-05-02T11:21:02Z</time>
      </trkpt>
      <trkpt lat="47.70932" lon="-2.72149">
        <ele>67</ele>
        <time>2013-05-02T11:21:03Z</time>
      </trkpt>
      <trkpt lat="47.70931" lon="-2.72152">
        <ele>67</ele>
        <time>2013-05-02T11:21:04Z</time>
      </trkpt>
      <trkpt lat="47.7093" lon="-2.72156">
        <ele>67</ele>
        <time>2013-05-02T11:21:05Z</time>
      </trkpt>
      <trkpt lat="47.70929" lon="-2.72159">
        <ele>67</ele>
        <time>2013-05-02T11:21:06Z</time>
      </trkpt>
      <trkpt lat="47.70927" lon="-2.72163">
        <ele>67</ele>
        <time>2013-05-02T11:21:07Z</time>
      </trkpt>
      <trkpt lat="47.70926" lon="-2.72166">
        <ele>68</ele>
        <time>2013-05-02T11:21:08Z</time>
      </trkpt>
      <trkpt lat="47.70925" lon="-2.72168">
        <ele>69</ele>
        <time>2013-05-02T11:21:09Z</time>
      </trkpt>
      <trkpt lat="47.70924" lon="-2.72171">
        <ele>69</ele>
        <time>2013-05-02T11:21:10Z</time>
      </trkpt>
      <trkpt lat="47.70922" lon="-2.72175">
        <ele>70</ele>
        <time>2013-05-02T11:21:11Z</time>
      </trkpt>
      <trkpt lat="47.70921" lon="-2.72178">
        <ele>71</ele>
        <time>2013-05-02T11:21:12Z</time>
      </trkpt>
      <trkpt lat="47.70919" lon="-2.72181">
        <ele>71</ele>
        <time>2013-05-02T11:21:13Z</time>
      </trkpt>
      <trkpt lat="47.70917" lon="-2.72184">
        <ele>72</ele>
        <time>2013-05-02T11:21:14Z</time>
      </trkpt>
      <trkpt lat="47.70916" lon="-2.72186">
        <ele>72</ele>
        <time>2013-05-02T11:21:15Z</time>
      </trkpt>
      <trkpt lat="47.70914" lon="-2.72189">
        <ele>73</ele>
        <time>2013-05-02T11:21:16Z</time>
      </trkpt>
      <trkpt lat="47.70913" lon="-2.72192">
        <ele>73</ele>
        <time>2013-05-02T11:21:17Z</time>
      </trkpt>
      <trkpt lat="47.70911" lon="-2.72194">
        <ele>74</ele>
        <time>2013-05-02T11:21:18Z</time>
      </trkpt>
      <trkpt lat="47.70908" lon="-2.72196">
        <ele>75</ele>
        <time>2013-05-02T11:21:19Z</time>
      </trkpt>
      <trkpt lat="47.70905" lon="-2.72198">
        <ele>75</ele>
        <time>2013-05-02T11:21:20Z</time>
      </trkpt>
      <trkpt lat="47.70902" lon="-2.72199">
        <ele>76</ele>
        <time>2013-05-02T11:21:21Z</time>
      </trkpt>
      <trkpt lat="47.709" lon="-2.72201">
        <ele>76</ele>
        <time>2013-05-02T11:21:22Z</time>
      </trkpt>
      <trkpt lat="47.70897" lon="-2.72203">
        <ele>77</ele>
        <time>2013-05-02T11:21:23Z</time>
      </trkpt>
      <trkpt lat="47.70895" lon="-2.72206">
        <ele>77</ele>
        <time>2013-05-02T11:21:24Z</time>
      </trkpt>
      <trkpt lat="47.70893" lon="-2.72209">
        <ele>77</ele>
        <time>2013-05-02T11:21:25Z</time>
      </trkpt>
      <trkpt lat="47.70892" lon="-2.72212">
        <ele>77</ele>
        <time>2013-05-02T11:21:26Z</time>
      </trkpt>
      <trkpt lat="47.70892" lon="-2.72215">
        <ele>77</ele>
        <time>2013-05-02T11:21:27Z</time>
      </trkpt>
      <trkpt lat="47.7089" lon="-2.72218">
        <ele>77</ele>
        <time>2013-05-02T11:21:28Z</time>
      </trkpt>
      <trkpt lat="47.70887" lon="-2.7222">
        <ele>77</ele>
        <time>2013-05-02T11:21:29Z</time>
      </trkpt>
      <trkpt lat="47.70886" lon="-2.72222">
        <ele>77</ele>
        <time>2013-05-02T11:21:30Z</time>
      </trkpt>
      <trkpt lat="47.70884" lon="-2.72224">
        <ele>77</ele>
        <time>2013-05-02T11:21:31Z</time>
      </trkpt>
      <trkpt lat="47.70881" lon="-2.72227">
        <ele>77</ele>
        <time>2013-05-02T11:21:32Z</time>
      </trkpt>
      <trkpt lat="47.70879" lon="-2.72229">
        <ele>77</ele>
        <time>2013-05-02T11:21:33Z</time>
      </trkpt>
      <trkpt lat="47.70878" lon="-2.72231">
        <ele>77</ele>
        <time>2013-05-02T11:21:34Z</time>
      </trkpt>
      <trkpt lat="47.70876" lon="-2.72233">
        <ele>77</ele>
        <time>2013-05-02T11:21:35Z</time>
      </trkpt>
      <trkpt lat="47.70874" lon="-2.72236">
        <ele>77</ele>
        <time>2013-05-02T11:21:36Z</time>
      </trkpt>
      <trkpt lat="47.70872" lon="-2.72239">
        <ele>77</ele>
        <time>2013-05-02T11:21:37Z</time>
      </trkpt>
      <trkpt lat="47.70871" lon="-2.72242">
        <ele>77</ele>
        <time>2013-05-02T11:21:38Z</time>
      </trkpt>
      <trkpt lat="47.70869" lon="-2.72246">
        <ele>77</ele>
        <time>2013-05-02T11:21:39Z</time>
      </trkpt>
      <trkpt lat="47.70868" lon="-2.72249">
        <ele>77</ele>
        <time>2013-05-02T11:21:40Z</time>
      </trkpt>
      <trkpt lat="47.70866" lon="-2.72252">
        <ele>77</ele>
        <time>2013-05-02T11:21:41Z</time>
      </trkpt>
      <trkpt lat="47.70863" lon="-2.72254">
        <ele>77</ele>
        <time>2013-05-02T11:21:42Z</time>
      </trkpt>
      <trkpt lat="47.7086" lon="-2.72257">
        <ele>77</ele>
        <time>2013-05-02T11:21:43Z</time>
      </trkpt>
      <trkpt lat="47.70858" lon="-2.72261">
        <ele>77</ele>
        <time>2013-05-02T11:21:44Z</time>
      </trkpt>
      <trkpt lat="47.70855" lon="-2.72263">
        <ele>77</ele>
        <time>2013-05-02T11:21:45Z</time>
      </trkpt>
      <trkpt lat="47.70853" lon="-2.72266">
        <ele>77</ele>
        <time>2013-05-02T11:21:46Z</time>
      </trkpt>
      <trkpt lat="47.70852" lon="-2.72268">
        <ele>77</ele>
        <time>2013-05-02T11:21:47Z</time>
      </trkpt>
      <trkpt lat="47.7085" lon="-2.7227">
        <ele>77</ele>
        <time>2013-05-02T11:21:48Z</time>
      </trkpt>
      <trkpt lat="47.70848" lon="-2.72272">
        <ele>77</ele>
        <time>2013-05-02T11:21:49Z</time>
      </trkpt>
      <trkpt lat="47.70846" lon="-2.72274">
        <ele>77</ele>
        <time>2013-05-02T11:21:50Z</time>
      </trkpt>
      <trkpt lat="47.70844" lon="-2.72277">
        <ele>77</ele>
        <time>2013-05-02T11:21:51Z</time>
      </trkpt>
      <trkpt lat="47.70841" lon="-2.72279">
        <ele>77</ele>
        <time>2013-05-02T11:21:52Z</time>
      </trkpt>
      <trkpt lat="47.70839" lon="-2.72281">
        <ele>77</ele>
        <time>2013-05-02T11:21:53Z</time>
      </trkpt>
      <trkpt lat="47.70837" lon="-2.72283">
        <ele>77</ele>
        <time>2013-05-02T11:21:54Z</time>
      </trkpt>
      <trkpt lat="47.70834" lon="-2.72285">
        <ele>77</ele>
        <time>2013-05-02T11:21:55Z</time>
      </trkpt>
      <trkpt lat="47.70832" lon="-2.72286">
        <ele>77</ele>
        <time>2013-05-02T11:21:56Z</time>
      </trkpt>
      <trkpt lat="47.7083" lon="-2.72288">
        <ele>77</ele>
        <time>2013-05-02T11:21:57Z</time>
      </trkpt>
      <trkpt lat="47.70829" lon="-2.72289">
        <ele>77</ele>
        <time>2013-05-02T11:21:58Z</time>
      </trkpt>
      <trkpt lat="47.70826" lon="-2.7229">
        <ele>77</ele>
        <time>2013-05-02T11:21:59Z</time>
      </trkpt>
      <trkpt lat="47.70824" lon="-2.72291">
        <ele>77</ele>
        <time>2013-05-02T11:22:00Z</time>
      </trkpt>
      <trkpt lat="47.70822" lon="-2.72293">
        <ele>77</ele>
        <time>2013-05-02T11:22:01Z</time>
      </trkpt>
      <trkpt lat="47.70819" lon="-2.72295">
        <ele>76</ele>
        <time>2013-05-02T11:22:02Z</time>
      </trkpt>
      <trkpt lat="47.70816" lon="-2.72296">
        <ele>75</ele>
        <time>2013-05-02T11:22:03Z</time>
      </trkpt>
      <trkpt lat="47.70813" lon="-2.72298">
        <ele>75</ele>
        <time>2013-05-02T11:22:04Z</time>
      </trkpt>
      <trkpt lat="47.70811" lon="-2.72301">
        <ele>74</ele>
        <time>2013-05-02T11:22:05Z</time>
      </trkpt>
      <trkpt lat="47.70808" lon="-2.72303">
        <ele>74</ele>
        <time>2013-05-02T11:22:06Z</time>
      </trkpt>
      <trkpt lat="47.70807" lon="-2.72306">
        <ele>73</ele>
        <time>2013-05-02T11:22:07Z</time>
      </trkpt>
      <trkpt lat="47.70805" lon="-2.72308">
        <ele>73</ele>
        <time>2013-05-02T11:22:08Z</time>
      </trkpt>
      <trkpt lat="47.70802" lon="-2.7231">
        <ele>73</ele>
        <time>2013-05-02T11:22:09Z</time>
      </trkpt>
      <trkpt lat="47.708" lon="-2.72312">
        <ele>73</ele>
        <time>2013-05-02T11:22:10Z</time>
      </trkpt>
      <trkpt lat="47.70798" lon="-2.72314">
        <ele>73</ele>
        <time>2013-05-02T11:22:11Z</time>
      </trkpt>
      <trkpt lat="47.70795" lon="-2.72316">
        <ele>73</ele>
        <time>2013-05-02T11:22:12Z</time>
      </trkpt>
      <trkpt lat="47.70792" lon="-2.72319">
        <ele>73</ele>
        <time>2013-05-02T11:22:13Z</time>
      </trkpt>
      <trkpt lat="47.70789" lon="-2.7232">
        <ele>73</ele>
        <time>2013-05-02T11:22:14Z</time>
      </trkpt>
      <trkpt lat="47.70786" lon="-2.72323">
        <ele>73</ele>
        <time>2013-05-02T11:22:15Z</time>
      </trkpt>
      <trkpt lat="47.70784" lon="-2.72324">
        <ele>73</ele>
        <time>2013-05-02T11:22:16Z</time>
      </trkpt>
      <trkpt lat="47.70781" lon="-2.72327">
        <ele>73</ele>
        <time>2013-05-02T11:22:17Z</time>
      </trkpt>
      <trkpt lat="47.70779" lon="-2.72328">
        <ele>73</ele>
        <time>2013-05-02T11:22:18Z</time>
      </trkpt>
      <trkpt lat="47.70776" lon="-2.7233">
        <ele>73</ele>
        <time>2013-05-02T11:22:19Z</time>
      </trkpt>
      <trkpt lat="47.70773" lon="-2.72332">
        <ele>74</ele>
        <time>2013-05-02T11:22:20Z</time>
      </trkpt>
      <trkpt lat="47.70771" lon="-2.72334">
        <ele>75</ele>
        <time>2013-05-02T11:22:21Z</time>
      </trkpt>
      <trkpt lat="47.70769" lon="-2.72336">
        <ele>75</ele>
        <time>2013-05-02T11:22:22Z</time>
      </trkpt>
      <trkpt lat="47.70767" lon="-2.72338">
        <ele>76</ele>
        <time>2013-05-02T11:22:23Z</time>
      </trkpt>
      <trkpt lat="47.70766" lon="-2.72341">
        <ele>76</ele>
        <time>2013-05-02T11:22:24Z</time>
      </trkpt>
      <trkpt lat="47.70766" lon="-2.72344">
        <ele>77</ele>
        <time>2013-05-02T11:22:25Z</time>
      </trkpt>
      <trkpt lat="47.70767" lon="-2.72347">
        <ele>77</ele>
        <time>2013-05-02T11:22:26Z</time>
      </trkpt>
      <trkpt lat="47.70768" lon="-2.72349">
        <ele>77</ele>
        <time>2013-05-02T11:22:27Z</time>
      </trkpt>
      <trkpt lat="47.70771" lon="-2.7235">
        <ele>77</ele>
        <time>2013-05-02T11:22:28Z</time>
      </trkpt>
      <trkpt lat="47.70773" lon="-2.7235">
        <ele>78</ele>
        <time>2013-05-02T11:22:29Z</time>
      </trkpt>
      <trkpt lat="47.70775" lon="-2.72349">
        <ele>78</ele>
        <time>2013-05-02T11:22:30Z</time>
      </trkpt>
      <trkpt lat="47.70778" lon="-2.72347">
        <ele>78</ele>
        <time>2013-05-02T11:22:31Z</time>
      </trkpt>
      <trkpt lat="47.7078" lon="-2.72346">
        <ele>79</ele>
        <time>2013-05-02T11:22:32Z</time>
      </trkpt>
      <trkpt lat="47.70784" lon="-2.72344">
        <ele>79</ele>
        <time>2013-05-02T11:22:33Z</time>
      </trkpt>
      <trkpt lat="47.70787" lon="-2.72342">
        <ele>80</ele>
        <time>2013-05-02T11:22:34Z</time>
      </trkpt>
      <trkpt lat="47.70789" lon="-2.7234">
        <ele>80</ele>
        <time>2013-05-02T11:22:35Z</time>
      </trkpt>
      <trkpt lat="47.70793" lon="-2.72339">
        <ele>80</ele>
        <time>2013-05-02T11:22:36Z</time>
      </trkpt>
      <trkpt lat="47.70795" lon="-2.72338">
        <ele>81</ele>
        <time>2013-05-02T11:22:37Z</time>
      </trkpt>
      <trkpt lat="47.70798" lon="-2.72336">
        <ele>81</ele>
        <time>2013-05-02T11:22:38Z</time>
      </trkpt>
      <trkpt lat="47.70801" lon="-2.72336">
        <ele>81</ele>
        <time>2013-05-02T11:22:39Z</time>
      </trkpt>
      <trkpt lat="47.70803" lon="-2.72335">
        <ele>81</ele>
        <time>2013-05-02T11:22:40Z</time>
      </trkpt>
      <trkpt lat="47.70806" lon="-2.72333">
        <ele>81</ele>
        <time>2013-05-02T11:22:41Z</time>
      </trkpt>
      <trkpt lat="47.70809" lon="-2.72332">
        <ele>81</ele>
        <time>2013-05-02T11:22:42Z</time>
      </trkpt>
      <trkpt lat="47.70812" lon="-2.7233">
        <ele>81</ele>
        <time>2013-05-02T11:22:43Z</time>
      </trkpt>
      <trkpt lat="47.70815" lon="-2.72328">
        <ele>81</ele>
        <time>2013-05-02T11:22:44Z</time>
      </trkpt>
      <trkpt lat="47.70818" lon="-2.72326">
        <ele>82</ele>
        <time>2013-05-02T11:22:45Z</time>
      </trkpt>
      <trkpt lat="47.70821" lon="-2.72325">
        <ele>82</ele>
        <time>2013-05-02T11:22:46Z</time>
      </trkpt>
      <trkpt lat="47.70823" lon="-2.72323">
        <ele>82</ele>
        <time>2013-05-02T11:22:47Z</time>
      </trkpt>
      <trkpt lat="47.70826" lon="-2.72323">
        <ele>83</ele>
        <time>2013-05-02T11:22:48Z</time>
      </trkpt>
      <trkpt lat="47.70829" lon="-2.72322">
        <ele>83</ele>
        <time>2013-05-02T11:22:49Z</time>
      </trkpt>
      <trkpt lat="47.70832" lon="-2.72321">
        <ele>83</ele>
        <time>2013-05-02T11:22:50Z</time>
      </trkpt>
      <trkpt lat="47.70834" lon="-2.72319">
        <ele>84</ele>
        <time>2013-05-02T11:22:51Z</time>
      </trkpt>
      <trkpt lat="47.70836" lon="-2.72316">
        <ele>84</ele>
        <time>2013-05-02T11:22:52Z</time>
      </trkpt>
      <trkpt lat="47.70839" lon="-2.72312">
        <ele>84</ele>
        <time>2013-05-02T11:22:53Z</time>
      </trkpt>
      <trkpt lat="47.70842" lon="-2.72308">
        <ele>84</ele>
        <time>2013-05-02T11:22:54Z</time>
      </trkpt>
      <trkpt lat="47.70846" lon="-2.72304">
        <ele>84</ele>
        <time>2013-05-02T11:22:55Z</time>
      </trkpt>
      <trkpt lat="47.7085" lon="-2.72301">
        <ele>84</ele>
        <time>2013-05-02T11:22:56Z</time>
      </trkpt>
      <trkpt lat="47.70853" lon="-2.72299">
        <ele>84</ele>
        <time>2013-05-02T11:22:57Z</time>
      </trkpt>
      <trkpt lat="47.70858" lon="-2.72297">
        <ele>84</ele>
        <time>2013-05-02T11:22:58Z</time>
      </trkpt>
      <trkpt lat="47.70862" lon="-2.72295">
        <ele>84</ele>
        <time>2013-05-02T11:22:59Z</time>
      </trkpt>
      <trkpt lat="47.70866" lon="-2.72293">
        <ele>84</ele>
        <time>2013-05-02T11:23:00Z</time>
      </trkpt>
      <trkpt lat="47.70869" lon="-2.72291">
        <ele>84</ele>
        <time>2013-05-02T11:23:01Z</time>
      </trkpt>
      <trkpt lat="47.70872" lon="-2.7229">
        <ele>84</ele>
        <time>2013-05-02T11:23:02Z</time>
      </trkpt>
      <trkpt lat="47.70874" lon="-2.72288">
        <ele>84</ele>
        <time>2013-05-02T11:23:03Z</time>
      </trkpt>
      <trkpt lat="47.70876" lon="-2.72287">
        <ele>84</ele>
        <time>2013-05-02T11:23:04Z</time>
      </trkpt>
      <trkpt lat="47.70878" lon="-2.72285">
        <ele>84</ele>
        <time>2013-05-02T11:23:05Z</time>
      </trkpt>
      <trkpt lat="47.7088" lon="-2.72283">
        <ele>84</ele>
        <time>2013-05-02T11:23:06Z</time>
      </trkpt>
      <trkpt lat="47.70882" lon="-2.72281">
        <ele>84</ele>
        <time>2013-05-02T11:23:07Z</time>
      </trkpt>
      <trkpt lat="47.70885" lon="-2.72278">
        <ele>84</ele>
        <time>2013-05-02T11:23:08Z</time>
      </trkpt>
      <trkpt lat="47.70887" lon="-2.72276">
        <ele>85</ele>
        <time>2013-05-02T11:23:09Z</time>
      </trkpt>
      <trkpt lat="47.7089" lon="-2.72274">
        <ele>85</ele>
        <time>2013-05-02T11:23:10Z</time>
      </trkpt>
      <trkpt lat="47.70893" lon="-2.72272">
        <ele>85</ele>
        <time>2013-05-02T11:23:11Z</time>
      </trkpt>
      <trkpt lat="47.70895" lon="-2.7227">
        <ele>85</ele>
        <time>2013-05-02T11:23:12Z</time>
      </trkpt>
      <trkpt lat="47.70898" lon="-2.72268">
        <ele>85</ele>
        <time>2013-05-02T11:23:13Z</time>
      </trkpt>
      <trkpt lat="47.709" lon="-2.72266">
        <ele>85</ele>
        <time>2013-05-02T11:23:14Z</time>
      </trkpt>
      <trkpt lat="47.70902" lon="-2.72264">
        <ele>85</ele>
        <time>2013-05-02T11:23:15Z</time>
      </trkpt>
      <trkpt lat="47.70904" lon="-2.72263">
        <ele>85</ele>
        <time>2013-05-02T11:23:16Z</time>
      </trkpt>
      <trkpt lat="47.70907" lon="-2.72261">
        <ele>85</ele>
        <time>2013-05-02T11:23:17Z</time>
      </trkpt>
      <trkpt lat="47.70909" lon="-2.72259">
        <ele>85</ele>
        <time>2013-05-02T11:23:18Z</time>
      </trkpt>
      <trkpt lat="47.7091" lon="-2.72257">
        <ele>85</ele>
        <time>2013-05-02T11:23:19Z</time>
      </trkpt>
      <trkpt lat="47.70912" lon="-2.72255">
        <ele>85</ele>
        <time>2013-05-02T11:23:20Z</time>
      </trkpt>
      <trkpt lat="47.70914" lon="-2.72253">
        <ele>85</ele>
        <time>2013-05-02T11:23:21Z</time>
      </trkpt>
      <trkpt lat="47.70916" lon="-2.72252">
        <ele>85</ele>
        <time>2013-05-02T11:23:22Z</time>
      </trkpt>
      <trkpt lat="47.70918" lon="-2.7225">
        <ele>85</ele>
        <time>2013-05-02T11:23:23Z</time>
      </trkpt>
      <trkpt lat="47.70923" lon="-2.72249">
        <ele>85</ele>
        <time>2013-05-02T11:23:24Z</time>
      </trkpt>
      <trkpt lat="47.70926" lon="-2.72247">
        <ele>86</ele>
        <time>2013-05-02T11:23:25Z</time>
      </trkpt>
      <trkpt lat="47.70928" lon="-2.72246">
        <ele>86</ele>
        <time>2013-05-02T11:23:26Z</time>
      </trkpt>
      <trkpt lat="47.7093" lon="-2.72245">
        <ele>87</ele>
        <time>2013-05-02T11:23:27Z</time>
      </trkpt>
      <trkpt lat="47.70932" lon="-2.72244">
        <ele>88</ele>
        <time>2013-05-02T11:23:28Z</time>
      </trkpt>
      <trkpt lat="47.70933" lon="-2.72243">
        <ele>88</ele>
        <time>2013-05-02T11:23:29Z</time>
      </trkpt>
      <trkpt lat="47.70936" lon="-2.72242">
        <ele>89</ele>
        <time>2013-05-02T11:23:31Z</time>
      </trkpt>
      <trkpt lat="47.70938" lon="-2.72241">
        <ele>89</ele>
        <time>2013-05-02T11:23:32Z</time>
      </trkpt>
      <trkpt lat="47.7094" lon="-2.7224">
        <ele>90</ele>
        <time>2013-05-02T11:23:33Z</time>
      </trkpt>
      <trkpt lat="47.70941" lon="-2.72239">
        <ele>90</ele>
        <time>2013-05-02T11:23:34Z</time>
      </trkpt>
      <trkpt lat="47.70943" lon="-2.72238">
        <ele>90</ele>
        <time>2013-05-02T11:23:35Z</time>
      </trkpt>
      <trkpt lat="47.70945" lon="-2.72237">
        <ele>90</ele>
        <time>2013-05-02T11:23:36Z</time>
      </trkpt>
      <trkpt lat="47.70947" lon="-2.72237">
        <ele>91</ele>
        <time>2013-05-02T11:23:37Z</time>
      </trkpt>
      <trkpt lat="47.70948" lon="-2.72238">
        <ele>91</ele>
        <time>2013-05-02T11:23:38Z</time>
      </trkpt>
      <trkpt lat="47.7095" lon="-2.72239">
        <ele>91</ele>
        <time>2013-05-02T11:23:40Z</time>
      </trkpt>
      <trkpt lat="47.70952" lon="-2.7224">
        <ele>92</ele>
        <time>2013-05-02T11:23:40Z</time>
      </trkpt>
      <trkpt lat="47.70955" lon="-2.7224">
        <ele>92</ele>
        <time>2013-05-02T11:23:41Z</time>
      </trkpt>
      <trkpt lat="47.70956" lon="-2.72238">
        <ele>93</ele>
        <time>2013-05-02T11:23:42Z</time>
      </trkpt>
      <trkpt lat="47.70957" lon="-2.72236">
        <ele>93</ele>
        <time>2013-05-02T11:23:43Z</time>
      </trkpt>
      <trkpt lat="47.70958" lon="-2.72235">
        <ele>93</ele>
        <time>2013-05-02T11:23:44Z</time>
      </trkpt>
      <trkpt lat="47.70959" lon="-2.72232">
        <ele>94</ele>
        <time>2013-05-02T11:23:45Z</time>
      </trkpt>
      <trkpt lat="47.7096" lon="-2.7223">
        <ele>94</ele>
        <time>2013-05-02T11:23:46Z</time>
      </trkpt>
      <trkpt lat="47.70961" lon="-2.72228">
        <ele>95</ele>
        <time>2013-05-02T11:23:47Z</time>
      </trkpt>
      <trkpt lat="47.70961" lon="-2.72226">
        <ele>96</ele>
        <time>2013-05-02T11:23:48Z</time>
      </trkpt>
      <trkpt lat="47.70962" lon="-2.72224">
        <ele>97</ele>
        <time>2013-05-02T11:23:49Z</time>
      </trkpt>
      <trkpt lat="47.70963" lon="-2.72222">
        <ele>98</ele>
        <time>2013-05-02T11:23:50Z</time>
      </trkpt>
      <trkpt lat="47.70963" lon="-2.7222">
        <ele>99</ele>
        <time>2013-05-02T11:23:51Z</time>
      </trkpt>
      <trkpt lat="47.70963" lon="-2.72218">
        <ele>100</ele>
        <time>2013-05-02T11:23:54Z</time>
      </trkpt>
      <trkpt lat="47.70964" lon="-2.72218">
        <ele>109</ele>
        <time>2013-05-02T11:23:56Z</time>
      </trkpt>
      <trkpt lat="47.70966" lon="-2.72217">
        <ele>108</ele>
        <time>2013-05-02T11:23:57Z</time>
      </trkpt>
      <trkpt lat="47.70968" lon="-2.72215">
        <ele>107</ele>
        <time>2013-05-02T11:23:59Z</time>
      </trkpt>
      <trkpt lat="47.70969" lon="-2.72215">
        <ele>106</ele>
        <time>2013-05-02T11:24:00Z</time>
      </trkpt>
      <trkpt lat="47.70971" lon="-2.72214">
        <ele>106</ele>
        <time>2013-05-02T11:24:01Z</time>
      </trkpt>
      <trkpt lat="47.70973" lon="-2.72214">
        <ele>106</ele>
        <time>2013-05-02T11:24:02Z</time>
      </trkpt>
      <trkpt lat="47.70975" lon="-2.72214">
        <ele>106</ele>
        <time>2013-05-02T11:24:03Z</time>
      </trkpt>
      <trkpt lat="47.70977" lon="-2.72215">
        <ele>106</ele>
        <time>2013-05-02T11:24:04Z</time>
      </trkpt>
      <trkpt lat="47.70979" lon="-2.72215">
        <ele>106</ele>
        <time>2013-05-02T11:24:05Z</time>
      </trkpt>
      <trkpt lat="47.7098" lon="-2.72215">
        <ele>106</ele>
        <time>2013-05-02T11:24:06Z</time>
      </trkpt>
      <trkpt lat="47.70982" lon="-2.72215">
        <ele>106</ele>
        <time>2013-05-02T11:24:07Z</time>
      </trkpt>
      <trkpt lat="47.70983" lon="-2.72215">
        <ele>106</ele>
        <time>2013-05-02T11:24:08Z</time>
      </trkpt>
      <trkpt lat="47.70985" lon="-2.72215">
        <ele>106</ele>
        <time>2013-05-02T11:24:09Z</time>
      </trkpt>
      <trkpt lat="47.70986" lon="-2.72216">
        <ele>106</ele>
        <time>2013-05-02T11:24:10Z</time>
      </trkpt>
      <trkpt lat="47.70988" lon="-2.72217">
        <ele>106</ele>
        <time>2013-05-02T11:24:11Z</time>
      </trkpt>
      <trkpt lat="47.7099" lon="-2.72218">
        <ele>106</ele>
        <time>2013-05-02T11:24:12Z</time>
      </trkpt>
      <trkpt lat="47.70991" lon="-2.7222">
        <ele>106</ele>
        <time>2013-05-02T11:24:13Z</time>
      </trkpt>
      <trkpt lat="47.70993" lon="-2.72221">
        <ele>106</ele>
        <time>2013-05-02T11:24:14Z</time>
      </trkpt>
      <trkpt lat="47.70994" lon="-2.72223">
        <ele>106</ele>
        <time>2013-05-02T11:24:15Z</time>
      </trkpt>
      <trkpt lat="47.70995" lon="-2.72223">
        <ele>106</ele>
        <time>2013-05-02T11:24:17Z</time>
      </trkpt>
      <trkpt lat="47.71003" lon="-2.72232">
        <ele>105</ele>
        <time>2013-05-02T11:24:20Z</time>
      </trkpt>
      <trkpt lat="47.71005" lon="-2.72235">
        <ele>105</ele>
        <time>2013-05-02T11:24:21Z</time>
      </trkpt>
      <trkpt lat="47.71006" lon="-2.72239">
        <ele>105</ele>
        <time>2013-05-02T11:24:22Z</time>
      </trkpt>
      <trkpt lat="47.71007" lon="-2.72242">
        <ele>105</ele>
        <time>2013-05-02T11:24:23Z</time>
      </trkpt>
      <trkpt lat="47.71008" lon="-2.72244">
        <ele>105</ele>
        <time>2013-05-02T11:24:24Z</time>
      </trkpt>
      <trkpt lat="47.71008" lon="-2.72247">
        <ele>104</ele>
        <time>2013-05-02T11:24:25Z</time>
      </trkpt>
      <trkpt lat="47.71009" lon="-2.7225">
        <ele>104</ele>
        <time>2013-05-02T11:24:26Z</time>
      </trkpt>
      <trkpt lat="47.71009" lon="-2.72252">
        <ele>104</ele>
        <time>2013-05-02T11:24:27Z</time>
      </trkpt>
      <trkpt lat="47.7101" lon="-2.72255">
        <ele>104</ele>
        <time>2013-05-02T11:24:28Z</time>
      </trkpt>
      <trkpt lat="47.71011" lon="-2.72259">
        <ele>104</ele>
        <time>2013-05-02T11:24:29Z</time>
      </trkpt>
      <trkpt lat="47.71012" lon="-2.72262">
        <ele>104</ele>
        <time>2013-05-02T11:24:30Z</time>
      </trkpt>
      <trkpt lat="47.71012" lon="-2.72265">
        <ele>103</ele>
        <time>2013-05-02T11:24:31Z</time>
      </trkpt>
      <trkpt lat="47.71012" lon="-2.72267">
        <ele>103</ele>
        <time>2013-05-02T11:24:32Z</time>
      </trkpt>
      <trkpt lat="47.71014" lon="-2.7227">
        <ele>103</ele>
        <time>2013-05-02T11:24:34Z</time>
      </trkpt>
      <trkpt lat="47.71014" lon="-2.72272">
        <ele>103</ele>
        <time>2013-05-02T11:24:35Z</time>
      </trkpt>
      <trkpt lat="47.71015" lon="-2.72275">
        <ele>103</ele>
        <time>2013-05-02T11:24:36Z</time>
      </trkpt>
      <trkpt lat="47.71016" lon="-2.72279">
        <ele>103</ele>
        <time>2013-05-02T11:24:37Z</time>
      </trkpt>
      <trkpt lat="47.71017" lon="-2.72282">
        <ele>103</ele>
        <time>2013-05-02T11:24:38Z</time>
      </trkpt>
      <trkpt lat="47.71017" lon="-2.72286">
        <ele>103</ele>
        <time>2013-05-02T11:24:39Z</time>
      </trkpt>
      <trkpt lat="47.71017" lon="-2.7229">
        <ele>103</ele>
        <time>2013-05-02T11:24:40Z</time>
      </trkpt>
      <trkpt lat="47.71018" lon="-2.72293">
        <ele>103</ele>
        <time>2013-05-02T11:24:41Z</time>
      </trkpt>
      <trkpt lat="47.7102" lon="-2.72297">
        <ele>102</ele>
        <time>2013-05-02T11:24:42Z</time>
      </trkpt>
      <trkpt lat="47.71022" lon="-2.72301">
        <ele>102</ele>
        <time>2013-05-02T11:24:43Z</time>
      </trkpt>
      <trkpt lat="47.71025" lon="-2.72305">
        <ele>102</ele>
        <time>2013-05-02T11:24:44Z</time>
      </trkpt>
      <trkpt lat="47.71027" lon="-2.72308">
        <ele>102</ele>
        <time>2013-05-02T11:24:45Z</time>
      </trkpt>
      <trkpt lat="47.7103" lon="-2.7231">
        <ele>102</ele>
        <time>2013-05-02T11:24:46Z</time>
      </trkpt>
      <trkpt lat="47.71032" lon="-2.7231">
        <ele>102</ele>
        <time>2013-05-02T11:24:47Z</time>
      </trkpt>
      <trkpt lat="47.71035" lon="-2.7231">
        <ele>102</ele>
        <time>2013-05-02T11:24:48Z</time>
      </trkpt>
      <trkpt lat="47.71037" lon="-2.72308">
        <ele>102</ele>
        <time>2013-05-02T11:24:49Z</time>
      </trkpt>
      <trkpt lat="47.71039" lon="-2.72306">
        <ele>102</ele>
        <time>2013-05-02T11:24:50Z</time>
      </trkpt>
      <trkpt lat="47.71041" lon="-2.72303">
        <ele>102</ele>
        <time>2013-05-02T11:24:51Z</time>
      </trkpt>
      <trkpt lat="47.71044" lon="-2.72301">
        <ele>102</ele>
        <time>2013-05-02T11:24:52Z</time>
      </trkpt>
      <trkpt lat="47.71046" lon="-2.723">
        <ele>102</ele>
        <time>2013-05-02T11:24:53Z</time>
      </trkpt>
      <trkpt lat="47.71048" lon="-2.72299">
        <ele>102</ele>
        <time>2013-05-02T11:24:54Z</time>
      </trkpt>
      <trkpt lat="47.7105" lon="-2.72299">
        <ele>102</ele>
        <time>2013-05-02T11:24:55Z</time>
      </trkpt>
      <trkpt lat="47.71052" lon="-2.723">
        <ele>102</ele>
        <time>2013-05-02T11:24:56Z</time>
      </trkpt>
      <trkpt lat="47.71054" lon="-2.72302">
        <ele>102</ele>
        <time>2013-05-02T11:24:57Z</time>
      </trkpt>
      <trkpt lat="47.71056" lon="-2.72305">
        <ele>102</ele>
        <time>2013-05-02T11:24:58Z</time>
      </trkpt>
      <trkpt lat="47.71058" lon="-2.72307">
        <ele>102</ele>
        <time>2013-05-02T11:24:59Z</time>
      </trkpt>
      <trkpt lat="47.71059" lon="-2.72309">
        <ele>102</ele>
        <time>2013-05-02T11:25:00Z</time>
      </trkpt>
      <trkpt lat="47.7106" lon="-2.72311">
        <ele>102</ele>
        <time>2013-05-02T11:25:01Z</time>
      </trkpt>
      <trkpt lat="47.71055" lon="-2.72302">
        <ele>102</ele>
        <time>2013-05-02T11:25:06Z</time>
      </trkpt>
      <trkpt lat="47.71053" lon="-2.72299">
        <ele>102</ele>
        <time>2013-05-02T11:25:07Z</time>
      </trkpt>
      <trkpt lat="47.7105" lon="-2.72297">
        <ele>102</ele>
        <time>2013-05-02T11:25:08Z</time>
      </trkpt>
      <trkpt lat="47.71047" lon="-2.72294">
        <ele>102</ele>
        <time>2013-05-02T11:25:09Z</time>
      </trkpt>
      <trkpt lat="47.71046" lon="-2.7229">
        <ele>102</ele>
        <time>2013-05-02T11:25:10Z</time>
      </trkpt>
      <trkpt lat="47.71045" lon="-2.72286">
        <ele>102</ele>
        <time>2013-05-02T11:25:11Z</time>
      </trkpt>
      <trkpt lat="47.71045" lon="-2.72283">
        <ele>102</ele>
        <time>2013-05-02T11:25:12Z</time>
      </trkpt>
      <trkpt lat="47.71045" lon="-2.7228">
        <ele>102</ele>
        <time>2013-05-02T11:25:13Z</time>
      </trkpt>
      <trkpt lat="47.71046" lon="-2.72276">
        <ele>102</ele>
        <time>2013-05-02T11:25:14Z</time>
      </trkpt>
      <trkpt lat="47.71046" lon="-2.72272">
        <ele>102</ele>
        <time>2013-05-02T11:25:15Z</time>
      </trkpt>
      <trkpt lat="47.71047" lon="-2.72269">
        <ele>102</ele>
        <time>2013-05-02T11:25:16Z</time>
      </trkpt>
      <trkpt lat="47.71048" lon="-2.72266">
        <ele>102</ele>
        <time>2013-05-02T11:25:17Z</time>
      </trkpt>
      <trkpt lat="47.71049" lon="-2.72263">
        <ele>102</ele>
        <time>2013-05-02T11:25:18Z</time>
      </trkpt>
      <trkpt lat="47.71051" lon="-2.72261">
        <ele>102</ele>
        <time>2013-05-02T11:25:19Z</time>
      </trkpt>
      <trkpt lat="47.71052" lon="-2.7226">
        <ele>102</ele>
        <time>2013-05-02T11:25:20Z</time>
      </trkpt>
      <trkpt lat="47.71055" lon="-2.72261">
        <ele>102</ele>
        <time>2013-05-02T11:25:21Z</time>
      </trkpt>
      <trkpt lat="47.71056" lon="-2.72262">
        <ele>102</ele>
        <time>2013-05-02T11:25:22Z</time>
      </trkpt>
      <trkpt lat="47.71058" lon="-2.72263">
        <ele>102</ele>
        <time>2013-05-02T11:25:23Z</time>
      </trkpt>
      <trkpt lat="47.71058" lon="-2.72264">
        <ele>102</ele>
        <time>2013-05-02T11:25:25Z</time>
      </trkpt>
      <trkpt lat="47.7106" lon="-2.72265">
        <ele>102</ele>
        <time>2013-05-02T11:25:26Z</time>
      </trkpt>
      <trkpt lat="47.71062" lon="-2.72266">
        <ele>102</ele>
        <time>2013-05-02T11:25:27Z</time>
      </trkpt>
      <trkpt lat="47.71065" lon="-2.72268">
        <ele>102</ele>
        <time>2013-05-02T11:25:28Z</time>
      </trkpt>
      <trkpt lat="47.71067" lon="-2.7227">
        <ele>102</ele>
        <time>2013-05-02T11:25:29Z</time>
      </trkpt>
      <trkpt lat="47.71069" lon="-2.72273">
        <ele>102</ele>
        <time>2013-05-02T11:25:30Z</time>
      </trkpt>
      <trkpt lat="47.71071" lon="-2.72277">
        <ele>102</ele>
        <time>2013-05-02T11:25:31Z</time>
      </trkpt>
      <trkpt lat="47.71073" lon="-2.72281">
        <ele>102</ele>
        <time>2013-05-02T11:25:32Z</time>
      </trkpt>
      <trkpt lat="47.71076" lon="-2.72284">
        <ele>102</ele>
        <time>2013-05-02T11:25:33Z</time>
      </trkpt>
      <trkpt lat="47.71079" lon="-2.72287">
        <ele>102</ele>
        <time>2013-05-02T11:25:34Z</time>
      </trkpt>
      <trkpt lat="47.71082" lon="-2.72289">
        <ele>102</ele>
        <time>2013-05-02T11:25:35Z</time>
      </trkpt>
      <trkpt lat="47.71085" lon="-2.7229">
        <ele>102</ele>
        <time>2013-05-02T11:25:36Z</time>
      </trkpt>
      <trkpt lat="47.71089" lon="-2.72292">
        <ele>102</ele>
        <time>2013-05-02T11:25:37Z</time>
      </trkpt>
      <trkpt lat="47.71092" lon="-2.72294">
        <ele>101</ele>
        <time>2013-05-02T11:25:38Z</time>
      </trkpt>
      <trkpt lat="47.71096" lon="-2.72296">
        <ele>101</ele>
        <time>2013-05-02T11:25:39Z</time>
      </trkpt>
      <trkpt lat="47.71098" lon="-2.72298">
        <ele>101</ele>
        <time>2013-05-02T11:25:40Z</time>
      </trkpt>
      <trkpt lat="47.711" lon="-2.723">
        <ele>101</ele>
        <time>2013-05-02T11:25:41Z</time>
      </trkpt>
      <trkpt lat="47.71101" lon="-2.72302">
        <ele>100</ele>
        <time>2013-05-02T11:25:42Z</time>
      </trkpt>
      <trkpt lat="47.71103" lon="-2.72304">
        <ele>100</ele>
        <time>2013-05-02T11:25:43Z</time>
      </trkpt>
      <trkpt lat="47.71105" lon="-2.72306">
        <ele>100</ele>
        <time>2013-05-02T11:25:44Z</time>
      </trkpt>
      <trkpt lat="47.71109" lon="-2.72307">
        <ele>100</ele>
        <time>2013-05-02T11:25:45Z</time>
      </trkpt>
      <trkpt lat="47.71113" lon="-2.72308">
        <ele>100</ele>
        <time>2013-05-02T11:25:46Z</time>
      </trkpt>
      <trkpt lat="47.71117" lon="-2.72308">
        <ele>100</ele>
        <time>2013-05-02T11:25:47Z</time>
      </trkpt>
      <trkpt lat="47.7112" lon="-2.7231">
        <ele>100</ele>
        <time>2013-05-02T11:25:48Z</time>
      </trkpt>
      <trkpt lat="47.71124" lon="-2.72311">
        <ele>99</ele>
        <time>2013-05-02T11:25:49Z</time>
      </trkpt>
      <trkpt lat="47.71127" lon="-2.72313">
        <ele>99</ele>
        <time>2013-05-02T11:25:50Z</time>
      </trkpt>
      <trkpt lat="47.71129" lon="-2.72315">
        <ele>99</ele>
        <time>2013-05-02T11:25:51Z</time>
      </trkpt>
      <trkpt lat="47.71131" lon="-2.72318">
        <ele>99</ele>
        <time>2013-05-02T11:25:52Z</time>
      </trkpt>
      <trkpt lat="47.71133" lon="-2.72321">
        <ele>99</ele>
        <time>2013-05-02T11:25:53Z</time>
      </trkpt>
      <trkpt lat="47.71136" lon="-2.72325">
        <ele>99</ele>
        <time>2013-05-02T11:25:54Z</time>
      </trkpt>
      <trkpt lat="47.71138" lon="-2.72327">
        <ele>99</ele>
        <time>2013-05-02T11:25:55Z</time>
      </trkpt>
      <trkpt lat="47.71139" lon="-2.72329">
        <ele>99</ele>
        <time>2013-05-02T11:25:57Z</time>
      </trkpt>
      <trkpt lat="47.7114" lon="-2.72329">
        <ele>99</ele>
        <time>2013-05-02T11:25:58Z</time>
      </trkpt>
      <trkpt lat="47.71135" lon="-2.72321">
        <ele>99</ele>
        <time>2013-05-02T11:26:00Z</time>
      </trkpt>
      <trkpt lat="47.71135" lon="-2.72323">
        <ele>99</ele>
        <time>2013-05-02T11:26:04Z</time>
      </trkpt>
      <trkpt lat="47.71137" lon="-2.72325">
        <ele>99</ele>
        <time>2013-05-02T11:26:06Z</time>
      </trkpt>
      <trkpt lat="47.71138" lon="-2.72327">
        <ele>99</ele>
        <time>2013-05-02T11:26:07Z</time>
      </trkpt>
      <trkpt lat="47.71139" lon="-2.72329">
        <ele>99</ele>
        <time>2013-05-02T11:26:08Z</time>
      </trkpt>
      <trkpt lat="47.7114" lon="-2.72332">
        <ele>99</ele>
        <time>2013-05-02T11:26:09Z</time>
      </trkpt>
      <trkpt lat="47.7114" lon="-2.72334">
        <ele>99</ele>
        <time>2013-05-02T11:26:10Z</time>
      </trkpt>
      <trkpt lat="47.71141" lon="-2.72336">
        <ele>99</ele>
        <time>2013-05-02T11:26:11Z</time>
      </trkpt>
      <trkpt lat="47.71142" lon="-2.72339">
        <ele>99</ele>
        <time>2013-05-02T11:26:12Z</time>
      </trkpt>
      <trkpt lat="47.71143" lon="-2.72341">
        <ele>99</ele>
        <time>2013-05-02T11:26:13Z</time>
      </trkpt>
      <trkpt lat="47.71144" lon="-2.72342">
        <ele>99</ele>
        <time>2013-05-02T11:26:14Z</time>
      </trkpt>
      <trkpt lat="47.71146" lon="-2.72344">
        <ele>99</ele>
        <time>2013-05-02T11:26:15Z</time>
      </trkpt>
      <trkpt lat="47.71147" lon="-2.72346">
        <ele>99</ele>
        <time>2013-05-02T11:26:16Z</time>
      </trkpt>
      <trkpt lat="47.71148" lon="-2.72349">
        <ele>99</ele>
        <time>2013-05-02T11:26:17Z</time>
      </trkpt>
      <trkpt lat="47.71151" lon="-2.72352">
        <ele>99</ele>
        <time>2013-05-02T11:26:18Z</time>
      </trkpt>
      <trkpt lat="47.71151" lon="-2.72356">
        <ele>99</ele>
        <time>2013-05-02T11:26:19Z</time>
      </trkpt>
      <trkpt lat="47.71152" lon="-2.7236">
        <ele>99</ele>
        <time>2013-05-02T11:26:20Z</time>
      </trkpt>
      <trkpt lat="47.71153" lon="-2.72364">
        <ele>99</ele>
        <time>2013-05-02T11:26:21Z</time>
      </trkpt>
      <trkpt lat="47.71154" lon="-2.72368">
        <ele>99</ele>
        <time>2013-05-02T11:26:22Z</time>
      </trkpt>
      <trkpt lat="47.71155" lon="-2.72372">
        <ele>99</ele>
        <time>2013-05-02T11:26:23Z</time>
      </trkpt>
      <trkpt lat="47.71156" lon="-2.72375">
        <ele>99</ele>
        <time>2013-05-02T11:26:24Z</time>
      </trkpt>
      <trkpt lat="47.71157" lon="-2.72378">
        <ele>99</ele>
        <time>2013-05-02T11:26:25Z</time>
      </trkpt>
      <trkpt lat="47.71159" lon="-2.72381">
        <ele>99</ele>
        <time>2013-05-02T11:26:26Z</time>
      </trkpt>
      <trkpt lat="47.71161" lon="-2.72385">
        <ele>99</ele>
        <time>2013-05-02T11:26:27Z</time>
      </trkpt>
      <trkpt lat="47.71163" lon="-2.72388">
        <ele>99</ele>
        <time>2013-05-02T11:26:28Z</time>
      </trkpt>
      <trkpt lat="47.71164" lon="-2.7239">
        <ele>99</ele>
        <time>2013-05-02T11:26:29Z</time>
      </trkpt>
      <trkpt lat="47.71166" lon="-2.72391">
        <ele>99</ele>
        <time>2013-05-02T11:26:30Z</time>
      </trkpt>
      <trkpt lat="47.71168" lon="-2.72393">
        <ele>99</ele>
        <time>2013-05-02T11:26:31Z</time>
      </trkpt>
      <trkpt lat="47.7117" lon="-2.72395">
        <ele>99</ele>
        <time>2013-05-02T11:26:32Z</time>
      </trkpt>
      <trkpt lat="47.71171" lon="-2.72399">
        <ele>99</ele>
        <time>2013-05-02T11:26:33Z</time>
      </trkpt>
      <trkpt lat="47.71172" lon="-2.72402">
        <ele>99</ele>
        <time>2013-05-02T11:26:34Z</time>
      </trkpt>
      <trkpt lat="47.71173" lon="-2.72405">
        <ele>99</ele>
        <time>2013-05-02T11:26:35Z</time>
      </trkpt>
      <trkpt lat="47.71176" lon="-2.72408">
        <ele>99</ele>
        <time>2013-05-02T11:26:36Z</time>
      </trkpt>
      <trkpt lat="47.71178" lon="-2.72412">
        <ele>99</ele>
        <time>2013-05-02T11:26:37Z</time>
      </trkpt>
      <trkpt lat="47.7118" lon="-2.72417">
        <ele>99</ele>
        <time>2013-05-02T11:26:38Z</time>
      </trkpt>
      <trkpt lat="47.7118" lon="-2.72422">
        <ele>99</ele>
        <time>2013-05-02T11:26:39Z</time>
      </trkpt>
      <trkpt lat="47.71181" lon="-2.72426">
        <ele>99</ele>
        <time>2013-05-02T11:26:40Z</time>
      </trkpt>
      <trkpt lat="47.71182" lon="-2.72428">
        <ele>99</ele>
        <time>2013-05-02T11:26:41Z</time>
      </trkpt>
      <trkpt lat="47.71183" lon="-2.72432">
        <ele>99</ele>
        <time>2013-05-02T11:26:42Z</time>
      </trkpt>
      <trkpt lat="47.71184" lon="-2.72436">
        <ele>99</ele>
        <time>2013-05-02T11:26:43Z</time>
      </trkpt>
      <trkpt lat="47.71186" lon="-2.72441">
        <ele>99</ele>
        <time>2013-05-02T11:26:44Z</time>
      </trkpt>
      <trkpt lat="47.71188" lon="-2.72446">
        <ele>99</ele>
        <time>2013-05-02T11:26:45Z</time>
      </trkpt>
      <trkpt lat="47.71189" lon="-2.7245">
        <ele>99</ele>
        <time>2013-05-02T11:26:46Z</time>
      </trkpt>
      <trkpt lat="47.7119" lon="-2.72454">
        <ele>99</ele>
        <time>2013-05-02T11:26:47Z</time>
      </trkpt>
      <trkpt lat="47.7119" lon="-2.72457">
        <ele>99</ele>
        <time>2013-05-02T11:26:48Z</time>
      </trkpt>
      <trkpt lat="47.7119" lon="-2.7246">
        <ele>99</ele>
        <time>2013-05-02T11:26:49Z</time>
      </trkpt>
      <trkpt lat="47.7119" lon="-2.72464">
        <ele>99</ele>
        <time>2013-05-02T11:26:50Z</time>
      </trkpt>
      <trkpt lat="47.7119" lon="-2.72467">
        <ele>99</ele>
        <time>2013-05-02T11:26:51Z</time>
      </trkpt>
      <trkpt lat="47.71191" lon="-2.7247">
        <ele>99</ele>
        <time>2013-05-02T11:26:52Z</time>
      </trkpt>
      <trkpt lat="47.71191" lon="-2.72473">
        <ele>99</ele>
        <time>2013-05-02T11:26:53Z</time>
      </trkpt>
      <trkpt lat="47.71192" lon="-2.72475">
        <ele>99</ele>
        <time>2013-05-02T11:26:54Z</time>
      </trkpt>
      <trkpt lat="47.71193" lon="-2.72477">
        <ele>99</ele>
        <time>2013-05-02T11:26:55Z</time>
      </trkpt>
      <trkpt lat="47.71192" lon="-2.7248">
        <ele>99</ele>
        <time>2013-05-02T11:26:56Z</time>
      </trkpt>
      <trkpt lat="47.71192" lon="-2.72482">
        <ele>99</ele>
        <time>2013-05-02T11:26:57Z</time>
      </trkpt>
      <trkpt lat="47.71192" lon="-2.72485">
        <ele>99</ele>
        <time>2013-05-02T11:26:58Z</time>
      </trkpt>
      <trkpt lat="47.71191" lon="-2.72487">
        <ele>99</ele>
        <time>2013-05-02T11:26:59Z</time>
      </trkpt>
      <trkpt lat="47.7119" lon="-2.7249">
        <ele>99</ele>
        <time>2013-05-02T11:27:00Z</time>
      </trkpt>
      <trkpt lat="47.71188" lon="-2.72494">
        <ele>99</ele>
        <time>2013-05-02T11:27:01Z</time>
      </trkpt>
      <trkpt lat="47.71186" lon="-2.72497">
        <ele>99</ele>
        <time>2013-05-02T11:27:02Z</time>
      </trkpt>
      <trkpt lat="47.71185" lon="-2.72499">
        <ele>99</ele>
        <time>2013-05-02T11:27:03Z</time>
      </trkpt>
      <trkpt lat="47.71183" lon="-2.72502">
        <ele>100</ele>
        <time>2013-05-02T11:27:04Z</time>
      </trkpt>
      <trkpt lat="47.71182" lon="-2.72504">
        <ele>101</ele>
        <time>2013-05-02T11:27:05Z</time>
      </trkpt>
      <trkpt lat="47.71182" lon="-2.72506">
        <ele>102</ele>
        <time>2013-05-02T11:27:06Z</time>
      </trkpt>
      <trkpt lat="47.71182" lon="-2.72508">
        <ele>103</ele>
        <time>2013-05-02T11:27:07Z</time>
      </trkpt>
      <trkpt lat="47.71182" lon="-2.7251">
        <ele>104</ele>
        <time>2013-05-02T11:27:08Z</time>
      </trkpt>
      <trkpt lat="47.71181" lon="-2.72512">
        <ele>105</ele>
        <time>2013-05-02T11:27:09Z</time>
      </trkpt>
      <trkpt lat="47.71181" lon="-2.72515">
        <ele>106</ele>
        <time>2013-05-02T11:27:10Z</time>
      </trkpt>
      <trkpt lat="47.71181" lon="-2.72517">
        <ele>106</ele>
        <time>2013-05-02T11:27:11Z</time>
      </trkpt>
      <trkpt lat="47.71181" lon="-2.72519">
        <ele>106</ele>
        <time>2013-05-02T11:27:12Z</time>
      </trkpt>
      <trkpt lat="47.71181" lon="-2.72522">
        <ele>107</ele>
        <time>2013-05-02T11:27:13Z</time>
      </trkpt>
      <trkpt lat="47.71181" lon="-2.72525">
        <ele>107</ele>
        <time>2013-05-02T11:27:14Z</time>
      </trkpt>
      <trkpt lat="47.71182" lon="-2.72528">
        <ele>107</ele>
        <time>2013-05-02T11:27:15Z</time>
      </trkpt>
      <trkpt lat="47.71182" lon="-2.72532">
        <ele>107</ele>
        <time>2013-05-02T11:27:16Z</time>
      </trkpt>
      <trkpt lat="47.71182" lon="-2.72536">
        <ele>108</ele>
        <time>2013-05-02T11:27:17Z</time>
      </trkpt>
      <trkpt lat="47.71182" lon="-2.7254">
        <ele>108</ele>
        <time>2013-05-02T11:27:18Z</time>
      </trkpt>
      <trkpt lat="47.71183" lon="-2.72543">
        <ele>108</ele>
        <time>2013-05-02T11:27:19Z</time>
      </trkpt>
      <trkpt lat="47.71183" lon="-2.72546">
        <ele>109</ele>
        <time>2013-05-02T11:27:20Z</time>
      </trkpt>
      <trkpt lat="47.71185" lon="-2.7255">
        <ele>109</ele>
        <time>2013-05-02T11:27:21Z</time>
      </trkpt>
      <trkpt lat="47.71186" lon="-2.72554">
        <ele>109</ele>
        <time>2013-05-02T11:27:22Z</time>
      </trkpt>
      <trkpt lat="47.71187" lon="-2.72559">
        <ele>109</ele>
        <time>2013-05-02T11:27:23Z</time>
      </trkpt>
      <trkpt lat="47.71187" lon="-2.72564">
        <ele>109</ele>
        <time>2013-05-02T11:27:24Z</time>
      </trkpt>
      <trkpt lat="47.71187" lon="-2.72568">
        <ele>109</ele>
        <time>2013-05-02T11:27:25Z</time>
      </trkpt>
      <trkpt lat="47.71188" lon="-2.72573">
        <ele>109</ele>
        <time>2013-05-02T11:27:26Z</time>
      </trkpt>
      <trkpt lat="47.7119" lon="-2.72577">
        <ele>109</ele>
        <time>2013-05-02T11:27:27Z</time>
      </trkpt>
      <trkpt lat="47.71191" lon="-2.72582">
        <ele>109</ele>
        <time>2013-05-02T11:27:28Z</time>
      </trkpt>
      <trkpt lat="47.71192" lon="-2.72587">
        <ele>109</ele>
        <time>2013-05-02T11:27:29Z</time>
      </trkpt>
      <trkpt lat="47.71192" lon="-2.72593">
        <ele>109</ele>
        <time>2013-05-02T11:27:30Z</time>
      </trkpt>
      <trkpt lat="47.71192" lon="-2.72599">
        <ele>109</ele>
        <time>2013-05-02T11:27:31Z</time>
      </trkpt>
      <trkpt lat="47.71192" lon="-2.72604">
        <ele>109</ele>
        <time>2013-05-02T11:27:32Z</time>
      </trkpt>
      <trkpt lat="47.71192" lon="-2.72611">
        <ele>109</ele>
        <time>2013-05-02T11:27:33Z</time>
      </trkpt>
      <trkpt lat="47.71192" lon="-2.72617">
        <ele>109</ele>
        <time>2013-05-02T11:27:34Z</time>
      </trkpt>
      <trkpt lat="47.71193" lon="-2.72624">
        <ele>109</ele>
        <time>2013-05-02T11:27:35Z</time>
      </trkpt>
      <trkpt lat="47.71193" lon="-2.7263">
        <ele>109</ele>
        <time>2013-05-02T11:27:36Z</time>
      </trkpt>
      <trkpt lat="47.71194" lon="-2.72635">
        <ele>109</ele>
        <time>2013-05-02T11:27:37Z</time>
      </trkpt>
      <trkpt lat="47.71196" lon="-2.72641">
        <ele>109</ele>
        <time>2013-05-02T11:27:38Z</time>
      </trkpt>
      <trkpt lat="47.71198" lon="-2.72648">
        <ele>109</ele>
        <time>2013-05-02T11:27:39Z</time>
      </trkpt>
      <trkpt lat="47.712" lon="-2.72654">
        <ele>109</ele>
        <time>2013-05-02T11:27:40Z</time>
      </trkpt>
      <trkpt lat="47.71201" lon="-2.7266">
        <ele>109</ele>
        <time>2013-05-02T11:27:41Z</time>
      </trkpt>
      <trkpt lat="47.71201" lon="-2.72665">
        <ele>109</ele>
        <time>2013-05-02T11:27:42Z</time>
      </trkpt>
      <trkpt lat="47.71201" lon="-2.72669">
        <ele>109</ele>
        <time>2013-05-02T11:27:43Z</time>
      </trkpt>
      <trkpt lat="47.712" lon="-2.72671">
        <ele>109</ele>
        <time>2013-05-02T11:27:44Z</time>
      </trkpt>
      <trkpt lat="47.71199" lon="-2.72674">
        <ele>109</ele>
        <time>2013-05-02T11:27:45Z</time>
      </trkpt>
      <trkpt lat="47.71199" lon="-2.72676">
        <ele>109</ele>
        <time>2013-05-02T11:27:46Z</time>
      </trkpt>
      <trkpt lat="47.71198" lon="-2.72679">
        <ele>108</ele>
        <time>2013-05-02T11:27:48Z</time>
      </trkpt>
      <trkpt lat="47.71197" lon="-2.7268">
        <ele>108</ele>
        <time>2013-05-02T11:27:50Z</time>
      </trkpt>
      <trkpt lat="47.71196" lon="-2.72682">
        <ele>108</ele>
        <time>2013-05-02T11:27:52Z</time>
      </trkpt>
      <trkpt lat="47.71196" lon="-2.72684">
        <ele>108</ele>
        <time>2013-05-02T11:27:53Z</time>
      </trkpt>
      <trkpt lat="47.71196" lon="-2.72686">
        <ele>108</ele>
        <time>2013-05-02T11:27:54Z</time>
      </trkpt>
      <trkpt lat="47.71194" lon="-2.72688">
        <ele>108</ele>
        <time>2013-05-02T11:27:55Z</time>
      </trkpt>
      <trkpt lat="47.71193" lon="-2.72689">
        <ele>108</ele>
        <time>2013-05-02T11:27:56Z</time>
      </trkpt>
      <trkpt lat="47.71191" lon="-2.72687">
        <ele>108</ele>
        <time>2013-05-02T11:27:58Z</time>
      </trkpt>
      <trkpt lat="47.71193" lon="-2.72684">
        <ele>108</ele>
        <time>2013-05-02T11:28:00Z</time>
      </trkpt>
      <trkpt lat="47.71195" lon="-2.72682">
        <ele>108</ele>
        <time>2013-05-02T11:28:01Z</time>
      </trkpt>
      <trkpt lat="47.71197" lon="-2.7268">
        <ele>108</ele>
        <time>2013-05-02T11:28:02Z</time>
      </trkpt>
      <trkpt lat="47.71198" lon="-2.72678">
        <ele>108</ele>
        <time>2013-05-02T11:28:03Z</time>
      </trkpt>
      <trkpt lat="47.71199" lon="-2.72675">
        <ele>108</ele>
        <time>2013-05-02T11:28:04Z</time>
      </trkpt>
      <trkpt lat="47.71199" lon="-2.7267">
        <ele>108</ele>
        <time>2013-05-02T11:28:05Z</time>
      </trkpt>
      <trkpt lat="47.71199" lon="-2.72667">
        <ele>108</ele>
        <time>2013-05-02T11:28:06Z</time>
      </trkpt>
      <trkpt lat="47.71199" lon="-2.72664">
        <ele>108</ele>
        <time>2013-05-02T11:28:07Z</time>
      </trkpt>
      <trkpt lat="47.712" lon="-2.72664">
        <ele>110</ele>
        <time>2013-05-02T11:28:09Z</time>
      </trkpt>
      <trkpt lat="47.71201" lon="-2.72667">
        <ele>110</ele>
        <time>2013-05-02T11:28:11Z</time>
      </trkpt>
      <trkpt lat="47.71201" lon="-2.72669">
        <ele>110</ele>
        <time>2013-05-02T11:28:12Z</time>
      </trkpt>
      <trkpt lat="47.71201" lon="-2.72671">
        <ele>110</ele>
        <time>2013-05-02T11:28:13Z</time>
      </trkpt>
      <trkpt lat="47.712" lon="-2.72673">
        <ele>110</ele>
        <time>2013-05-02T11:28:14Z</time>
      </trkpt>
      <trkpt lat="47.71199" lon="-2.72675">
        <ele>110</ele>
        <time>2013-05-02T11:28:15Z</time>
      </trkpt>
      <trkpt lat="47.71198" lon="-2.72679">
        <ele>110</ele>
        <time>2013-05-02T11:28:16Z</time>
      </trkpt>
      <trkpt lat="47.71198" lon="-2.72686">
        <ele>110</ele>
        <time>2013-05-02T11:28:17Z</time>
      </trkpt>
      <trkpt lat="47.71196" lon="-2.72692">
        <ele>110</ele>
        <time>2013-05-02T11:28:18Z</time>
      </trkpt>
      <trkpt lat="47.71196" lon="-2.72698">
        <ele>110</ele>
        <time>2013-05-02T11:28:19Z</time>
      </trkpt>
      <trkpt lat="47.71196" lon="-2.72704">
        <ele>110</ele>
        <time>2013-05-02T11:28:20Z</time>
      </trkpt>
      <trkpt lat="47.71195" lon="-2.72705">
        <ele>110</ele>
        <time>2013-05-02T11:28:21Z</time>
      </trkpt>
      <trkpt lat="47.71194" lon="-2.72707">
        <ele>110</ele>
        <time>2013-05-02T11:28:22Z</time>
      </trkpt>
      <trkpt lat="47.71194" lon="-2.72709">
        <ele>110</ele>
        <time>2013-05-02T11:28:24Z</time>
      </trkpt>
      <trkpt lat="47.71195" lon="-2.72711">
        <ele>110</ele>
        <time>2013-05-02T11:28:25Z</time>
      </trkpt>
      <trkpt lat="47.71197" lon="-2.72713">
        <ele>110</ele>
        <time>2013-05-02T11:28:26Z</time>
      </trkpt>
      <trkpt lat="47.71196" lon="-2.72727">
        <ele>108</ele>
        <time>2013-05-02T11:28:30Z</time>
      </trkpt>
      <trkpt lat="47.71196" lon="-2.72732">
        <ele>108</ele>
        <time>2013-05-02T11:28:31Z</time>
      </trkpt>
      <trkpt lat="47.71195" lon="-2.72737">
        <ele>108</ele>
        <time>2013-05-02T11:28:32Z</time>
      </trkpt>
      <trkpt lat="47.71195" lon="-2.72742">
        <ele>108</ele>
        <time>2013-05-02T11:28:33Z</time>
      </trkpt>
      <trkpt lat="47.71194" lon="-2.72747">
        <ele>108</ele>
        <time>2013-05-02T11:28:34Z</time>
      </trkpt>
      <trkpt lat="47.71193" lon="-2.72752">
        <ele>108</ele>
        <time>2013-05-02T11:28:35Z</time>
      </trkpt>
      <trkpt lat="47.71192" lon="-2.72758">
        <ele>108</ele>
        <time>2013-05-02T11:28:36Z</time>
      </trkpt>
      <trkpt lat="47.71191" lon="-2.72763">
        <ele>108</ele>
        <time>2013-05-02T11:28:37Z</time>
      </trkpt>
      <trkpt lat="47.71189" lon="-2.72768">
        <ele>108</ele>
        <time>2013-05-02T11:28:38Z</time>
      </trkpt>
      <trkpt lat="47.71188" lon="-2.72773">
        <ele>108</ele>
        <time>2013-05-02T11:28:39Z</time>
      </trkpt>
      <trkpt lat="47.71186" lon="-2.72778">
        <ele>108</ele>
        <time>2013-05-02T11:28:40Z</time>
      </trkpt>
      <trkpt lat="47.71183" lon="-2.72783">
        <ele>108</ele>
        <time>2013-05-02T11:28:41Z</time>
      </trkpt>
      <trkpt lat="47.71181" lon="-2.72787">
        <ele>108</ele>
        <time>2013-05-02T11:28:42Z</time>
      </trkpt>
      <trkpt lat="47.71179" lon="-2.72792">
        <ele>108</ele>
        <time>2013-05-02T11:28:43Z</time>
      </trkpt>
      <trkpt lat="47.71176" lon="-2.72796">
        <ele>108</ele>
        <time>2013-05-02T11:28:44Z</time>
      </trkpt>
      <trkpt lat="47.71173" lon="-2.72801">
        <ele>108</ele>
        <time>2013-05-02T11:28:45Z</time>
      </trkpt>
      <trkpt lat="47.7117" lon="-2.72804">
        <ele>108</ele>
        <time>2013-05-02T11:28:46Z</time>
      </trkpt>
      <trkpt lat="47.71167" lon="-2.72808">
        <ele>108</ele>
        <time>2013-05-02T11:28:47Z</time>
      </trkpt>
      <trkpt lat="47.71165" lon="-2.72811">
        <ele>108</ele>
        <time>2013-05-02T11:28:48Z</time>
      </trkpt>
      <trkpt lat="47.71162" lon="-2.72814">
        <ele>108</ele>
        <time>2013-05-02T11:28:49Z</time>
      </trkpt>
      <trkpt lat="47.71161" lon="-2.72817">
        <ele>108</ele>
        <time>2013-05-02T11:28:50Z</time>
      </trkpt>
      <trkpt lat="47.71161" lon="-2.7282">
        <ele>108</ele>
        <time>2013-05-02T11:28:51Z</time>
      </trkpt>
      <trkpt lat="47.71161" lon="-2.72822">
        <ele>108</ele>
        <time>2013-05-02T11:28:52Z</time>
      </trkpt>
      <trkpt lat="47.71163" lon="-2.72823">
        <ele>108</ele>
        <time>2013-05-02T11:28:53Z</time>
      </trkpt>
      <trkpt lat="47.71164" lon="-2.72823">
        <ele>108</ele>
        <time>2013-05-02T11:28:54Z</time>
      </trkpt>
      <trkpt lat="47.71165" lon="-2.72828">
        <ele>108</ele>
        <time>2013-05-02T11:28:56Z</time>
      </trkpt>
      <trkpt lat="47.71167" lon="-2.72832">
        <ele>108</ele>
        <time>2013-05-02T11:28:57Z</time>
      </trkpt>
      <trkpt lat="47.71169" lon="-2.72835">
        <ele>108</ele>
        <time>2013-05-02T11:28:58Z</time>
      </trkpt>
      <trkpt lat="47.71172" lon="-2.72838">
        <ele>108</ele>
        <time>2013-05-02T11:28:59Z</time>
      </trkpt>
      <trkpt lat="47.71175" lon="-2.72841">
        <ele>108</ele>
        <time>2013-05-02T11:29:00Z</time>
      </trkpt>
      <trkpt lat="47.71177" lon="-2.72844">
        <ele>108</ele>
        <time>2013-05-02T11:29:01Z</time>
      </trkpt>
      <trkpt lat="47.7118" lon="-2.72847">
        <ele>108</ele>
        <time>2013-05-02T11:29:02Z</time>
      </trkpt>
      <trkpt lat="47.71182" lon="-2.7285">
        <ele>108</ele>
        <time>2013-05-02T11:29:03Z</time>
      </trkpt>
      <trkpt lat="47.71184" lon="-2.72853">
        <ele>108</ele>
        <time>2013-05-02T11:29:04Z</time>
      </trkpt>
      <trkpt lat="47.71186" lon="-2.72857">
        <ele>108</ele>
        <time>2013-05-02T11:29:05Z</time>
      </trkpt>
      <trkpt lat="47.71188" lon="-2.72861">
        <ele>108</ele>
        <time>2013-05-02T11:29:06Z</time>
      </trkpt>
      <trkpt lat="47.7119" lon="-2.72865">
        <ele>108</ele>
        <time>2013-05-02T11:29:07Z</time>
      </trkpt>
      <trkpt lat="47.71192" lon="-2.72869">
        <ele>108</ele>
        <time>2013-05-02T11:29:08Z</time>
      </trkpt>
      <trkpt lat="47.71194" lon="-2.72873">
        <ele>108</ele>
        <time>2013-05-02T11:29:09Z</time>
      </trkpt>
      <trkpt lat="47.71196" lon="-2.72877">
        <ele>108</ele>
        <time>2013-05-02T11:29:10Z</time>
      </trkpt>
      <trkpt lat="47.71198" lon="-2.7288">
        <ele>108</ele>
        <time>2013-05-02T11:29:11Z</time>
      </trkpt>
      <trkpt lat="47.71199" lon="-2.72884">
        <ele>108</ele>
        <time>2013-05-02T11:29:12Z</time>
      </trkpt>
      <trkpt lat="47.71202" lon="-2.72886">
        <ele>108</ele>
        <time>2013-05-02T11:29:13Z</time>
      </trkpt>
      <trkpt lat="47.71204" lon="-2.72887">
        <ele>108</ele>
        <time>2013-05-02T11:29:14Z</time>
      </trkpt>
      <trkpt lat="47.71207" lon="-2.72888">
        <ele>108</ele>
        <time>2013-05-02T11:29:15Z</time>
      </trkpt>
      <trkpt lat="47.71209" lon="-2.72889">
        <ele>108</ele>
        <time>2013-05-02T11:29:16Z</time>
      </trkpt>
      <trkpt lat="47.71211" lon="-2.72891">
        <ele>108</ele>
        <time>2013-05-02T11:29:17Z</time>
      </trkpt>
      <trkpt lat="47.71213" lon="-2.72894">
        <ele>108</ele>
        <time>2013-05-02T11:29:18Z</time>
      </trkpt>
      <trkpt lat="47.71214" lon="-2.72898">
        <ele>108</ele>
        <time>2013-05-02T11:29:19Z</time>
      </trkpt>
      <trkpt lat="47.71215" lon="-2.72902">
        <ele>108</ele>
        <time>2013-05-02T11:29:20Z</time>
      </trkpt>
      <trkpt lat="47.71217" lon="-2.72907">
        <ele>108</ele>
        <time>2013-05-02T11:29:21Z</time>
      </trkpt>
      <trkpt lat="47.71218" lon="-2.72911">
        <ele>108</ele>
        <time>2013-05-02T11:29:22Z</time>
      </trkpt>
      <trkpt lat="47.71219" lon="-2.72916">
        <ele>108</ele>
        <time>2013-05-02T11:29:23Z</time>
      </trkpt>
      <trkpt lat="47.7122" lon="-2.7292">
        <ele>108</ele>
        <time>2013-05-02T11:29:24Z</time>
      </trkpt>
      <trkpt lat="47.71222" lon="-2.72924">
        <ele>108</ele>
        <time>2013-05-02T11:29:25Z</time>
      </trkpt>
      <trkpt lat="47.71223" lon="-2.72929">
        <ele>108</ele>
        <time>2013-05-02T11:29:26Z</time>
      </trkpt>
      <trkpt lat="47.71224" lon="-2.72934">
        <ele>108</ele>
        <time>2013-05-02T11:29:27Z</time>
      </trkpt>
      <trkpt lat="47.71225" lon="-2.72938">
        <ele>108</ele>
        <time>2013-05-02T11:29:28Z</time>
      </trkpt>
      <trkpt lat="47.71226" lon="-2.72942">
        <ele>108</ele>
        <time>2013-05-02T11:29:29Z</time>
      </trkpt>
      <trkpt lat="47.71227" lon="-2.72947">
        <ele>108</ele>
        <time>2013-05-02T11:29:30Z</time>
      </trkpt>
      <trkpt lat="47.71228" lon="-2.72951">
        <ele>108</ele>
        <time>2013-05-02T11:29:31Z</time>
      </trkpt>
      <trkpt lat="47.71229" lon="-2.72956">
        <ele>108</ele>
        <time>2013-05-02T11:29:32Z</time>
      </trkpt>
      <trkpt lat="47.7123" lon="-2.72962">
        <ele>108</ele>
        <time>2013-05-02T11:29:33Z</time>
      </trkpt>
      <trkpt lat="47.7123" lon="-2.72967">
        <ele>108</ele>
        <time>2013-05-02T11:29:34Z</time>
      </trkpt>
      <trkpt lat="47.71231" lon="-2.72972">
        <ele>108</ele>
        <time>2013-05-02T11:29:35Z</time>
      </trkpt>
      <trkpt lat="47.71231" lon="-2.72978">
        <ele>108</ele>
        <time>2013-05-02T11:29:36Z</time>
      </trkpt>
      <trkpt lat="47.71232" lon="-2.72983">
        <ele>108</ele>
        <time>2013-05-02T11:29:37Z</time>
      </trkpt>
      <trkpt lat="47.71233" lon="-2.72988">
        <ele>108</ele>
        <time>2013-05-02T11:29:38Z</time>
      </trkpt>
      <trkpt lat="47.71234" lon="-2.72992">
        <ele>108</ele>
        <time>2013-05-02T11:29:39Z</time>
      </trkpt>
      <trkpt lat="47.71235" lon="-2.72997">
        <ele>108</ele>
        <time>2013-05-02T11:29:40Z</time>
      </trkpt>
      <trkpt lat="47.71236" lon="-2.73002">
        <ele>108</ele>
        <time>2013-05-02T11:29:41Z</time>
      </trkpt>
      <trkpt lat="47.71237" lon="-2.73006">
        <ele>108</ele>
        <time>2013-05-02T11:29:42Z</time>
      </trkpt>
      <trkpt lat="47.71238" lon="-2.73011">
        <ele>108</ele>
        <time>2013-05-02T11:29:43Z</time>
      </trkpt>
      <trkpt lat="47.71238" lon="-2.73015">
        <ele>108</ele>
        <time>2013-05-02T11:29:44Z</time>
      </trkpt>
      <trkpt lat="47.71239" lon="-2.7302">
        <ele>108</ele>
        <time>2013-05-02T11:29:45Z</time>
      </trkpt>
      <trkpt lat="47.7124" lon="-2.73025">
        <ele>108</ele>
        <time>2013-05-02T11:29:46Z</time>
      </trkpt>
      <trkpt lat="47.7124" lon="-2.73029">
        <ele>108</ele>
        <time>2013-05-02T11:29:47Z</time>
      </trkpt>
      <trkpt lat="47.71242" lon="-2.73034">
        <ele>108</ele>
        <time>2013-05-02T11:29:48Z</time>
      </trkpt>
      <trkpt lat="47.71244" lon="-2.73038">
        <ele>108</ele>
        <time>2013-05-02T11:29:49Z</time>
      </trkpt>
      <trkpt lat="47.71246" lon="-2.73041">
        <ele>108</ele>
        <time>2013-05-02T11:29:50Z</time>
      </trkpt>
      <trkpt lat="47.71249" lon="-2.73044">
        <ele>108</ele>
        <time>2013-05-02T11:29:51Z</time>
      </trkpt>
      <trkpt lat="47.71251" lon="-2.73046">
        <ele>108</ele>
        <time>2013-05-02T11:29:52Z</time>
      </trkpt>
      <trkpt lat="47.71254" lon="-2.73048">
        <ele>108</ele>
        <time>2013-05-02T11:29:53Z</time>
      </trkpt>
      <trkpt lat="47.71256" lon="-2.7305">
        <ele>108</ele>
        <time>2013-05-02T11:29:54Z</time>
      </trkpt>
      <trkpt lat="47.71259" lon="-2.73053">
        <ele>108</ele>
        <time>2013-05-02T11:29:55Z</time>
      </trkpt>
      <trkpt lat="47.71262" lon="-2.73056">
        <ele>108</ele>
        <time>2013-05-02T11:29:56Z</time>
      </trkpt>
      <trkpt lat="47.71265" lon="-2.73059">
        <ele>108</ele>
        <time>2013-05-02T11:29:57Z</time>
      </trkpt>
      <trkpt lat="47.71267" lon="-2.73062">
        <ele>108</ele>
        <time>2013-05-02T11:29:58Z</time>
      </trkpt>
      <trkpt lat="47.7127" lon="-2.73065">
        <ele>108</ele>
        <time>2013-05-02T11:29:59Z</time>
      </trkpt>
      <trkpt lat="47.71271" lon="-2.73069">
        <ele>108</ele>
        <time>2013-05-02T11:30:00Z</time>
      </trkpt>
      <trkpt lat="47.71273" lon="-2.73073">
        <ele>108</ele>
        <time>2013-05-02T11:30:01Z</time>
      </trkpt>
      <trkpt lat="47.71274" lon="-2.73075">
        <ele>108</ele>
        <time>2013-05-02T11:30:02Z</time>
      </trkpt>
      <trkpt lat="47.71275" lon="-2.73077">
        <ele>108</ele>
        <time>2013-05-02T11:30:03Z</time>
      </trkpt>
      <trkpt lat="47.71273" lon="-2.7308">
        <ele>108</ele>
        <time>2013-05-02T11:30:05Z</time>
      </trkpt>
      <trkpt lat="47.71273" lon="-2.73081">
        <ele>108</ele>
        <time>2013-05-02T11:30:06Z</time>
      </trkpt>
      <trkpt lat="47.71265" lon="-2.73092">
        <ele>109</ele>
        <time>2013-05-02T11:30:10Z</time>
      </trkpt>
      <trkpt lat="47.71264" lon="-2.73095">
        <ele>109</ele>
        <time>2013-05-02T11:30:11Z</time>
      </trkpt>
      <trkpt lat="47.71262" lon="-2.73098">
        <ele>109</ele>
        <time>2013-05-02T11:30:12Z</time>
      </trkpt>
      <trkpt lat="47.71262" lon="-2.73102">
        <ele>109</ele>
        <time>2013-05-02T11:30:13Z</time>
      </trkpt>
      <trkpt lat="47.71261" lon="-2.73106">
        <ele>109</ele>
        <time>2013-05-02T11:30:14Z</time>
      </trkpt>
      <trkpt lat="47.71261" lon="-2.73108">
        <ele>109</ele>
        <time>2013-05-02T11:30:15Z</time>
      </trkpt>
      <trkpt lat="47.71261" lon="-2.7311">
        <ele>109</ele>
        <time>2013-05-02T11:30:16Z</time>
      </trkpt>
      <trkpt lat="47.71262" lon="-2.73112">
        <ele>109</ele>
        <time>2013-05-02T11:30:18Z</time>
      </trkpt>
      <trkpt lat="47.71262" lon="-2.73114">
        <ele>109</ele>
        <time>2013-05-02T11:30:19Z</time>
      </trkpt>
      <trkpt lat="47.71264" lon="-2.73116">
        <ele>109</ele>
        <time>2013-05-02T11:30:20Z</time>
      </trkpt>
      <trkpt lat="47.71266" lon="-2.73119">
        <ele>109</ele>
        <time>2013-05-02T11:30:21Z</time>
      </trkpt>
      <trkpt lat="47.71268" lon="-2.73122">
        <ele>109</ele>
        <time>2013-05-02T11:30:22Z</time>
      </trkpt>
      <trkpt lat="47.71272" lon="-2.73124">
        <ele>109</ele>
        <time>2013-05-02T11:30:23Z</time>
      </trkpt>
      <trkpt lat="47.71275" lon="-2.73126">
        <ele>109</ele>
        <time>2013-05-02T11:30:24Z</time>
      </trkpt>
      <trkpt lat="47.71277" lon="-2.73129">
        <ele>109</ele>
        <time>2013-05-02T11:30:25Z</time>
      </trkpt>
      <trkpt lat="47.7128" lon="-2.73131">
        <ele>109</ele>
        <time>2013-05-02T11:30:26Z</time>
      </trkpt>
      <trkpt lat="47.71283" lon="-2.73134">
        <ele>109</ele>
        <time>2013-05-02T11:30:27Z</time>
      </trkpt>
      <trkpt lat="47.71285" lon="-2.73137">
        <ele>109</ele>
        <time>2013-05-02T11:30:28Z</time>
      </trkpt>
      <trkpt lat="47.71287" lon="-2.7314">
        <ele>109</ele>
        <time>2013-05-02T11:30:29Z</time>
      </trkpt>
      <trkpt lat="47.71289" lon="-2.73143">
        <ele>109</ele>
        <time>2013-05-02T11:30:30Z</time>
      </trkpt>
      <trkpt lat="47.71291" lon="-2.73146">
        <ele>109</ele>
        <time>2013-05-02T11:30:31Z</time>
      </trkpt>
      <trkpt lat="47.71292" lon="-2.7315">
        <ele>109</ele>
        <time>2013-05-02T11:30:32Z</time>
      </trkpt>
      <trkpt lat="47.71293" lon="-2.73153">
        <ele>109</ele>
        <time>2013-05-02T11:30:33Z</time>
      </trkpt>
      <trkpt lat="47.71295" lon="-2.73157">
        <ele>109</ele>
        <time>2013-05-02T11:30:34Z</time>
      </trkpt>
      <trkpt lat="47.71297" lon="-2.73159">
        <ele>109</ele>
        <time>2013-05-02T11:30:35Z</time>
      </trkpt>
      <trkpt lat="47.713" lon="-2.73162">
        <ele>109</ele>
        <time>2013-05-02T11:30:36Z</time>
      </trkpt>
      <trkpt lat="47.71303" lon="-2.73165">
        <ele>109</ele>
        <time>2013-05-02T11:30:37Z</time>
      </trkpt>
      <trkpt lat="47.71305" lon="-2.73168">
        <ele>109</ele>
        <time>2013-05-02T11:30:38Z</time>
      </trkpt>
      <trkpt lat="47.71307" lon="-2.73172">
        <ele>109</ele>
        <time>2013-05-02T11:30:39Z</time>
      </trkpt>
      <trkpt lat="47.71309" lon="-2.73175">
        <ele>109</ele>
        <time>2013-05-02T11:30:40Z</time>
      </trkpt>
      <trkpt lat="47.71311" lon="-2.73178">
        <ele>109</ele>
        <time>2013-05-02T11:30:41Z</time>
      </trkpt>
      <trkpt lat="47.71313" lon="-2.7318">
        <ele>109</ele>
        <time>2013-05-02T11:30:42Z</time>
      </trkpt>
      <trkpt lat="47.71315" lon="-2.73182">
        <ele>109</ele>
        <time>2013-05-02T11:30:43Z</time>
      </trkpt>
      <trkpt lat="47.71317" lon="-2.73183">
        <ele>109</ele>
        <time>2013-05-02T11:30:44Z</time>
      </trkpt>
      <trkpt lat="47.71318" lon="-2.73183">
        <ele>109</ele>
        <time>2013-05-02T11:30:46Z</time>
      </trkpt>
      <trkpt lat="47.7132" lon="-2.73185">
        <ele>109</ele>
        <time>2013-05-02T11:30:48Z</time>
      </trkpt>
      <trkpt lat="47.71322" lon="-2.73187">
        <ele>109</ele>
        <time>2013-05-02T11:30:49Z</time>
      </trkpt>
      <trkpt lat="47.71323" lon="-2.73191">
        <ele>109</ele>
        <time>2013-05-02T11:30:50Z</time>
      </trkpt>
      <trkpt lat="47.71324" lon="-2.73195">
        <ele>109</ele>
        <time>2013-05-02T11:30:51Z</time>
      </trkpt>
      <trkpt lat="47.71325" lon="-2.73199">
        <ele>109</ele>
        <time>2013-05-02T11:30:52Z</time>
      </trkpt>
      <trkpt lat="47.71325" lon="-2.73203">
        <ele>109</ele>
        <time>2013-05-02T11:30:53Z</time>
      </trkpt>
      <trkpt lat="47.71326" lon="-2.73207">
        <ele>109</ele>
        <time>2013-05-02T11:30:54Z</time>
      </trkpt>
      <trkpt lat="47.71326" lon="-2.73212">
        <ele>109</ele>
        <time>2013-05-02T11:30:55Z</time>
      </trkpt>
      <trkpt lat="47.71327" lon="-2.73216">
        <ele>109</ele>
        <time>2013-05-02T11:30:56Z</time>
      </trkpt>
      <trkpt lat="47.71328" lon="-2.7322">
        <ele>109</ele>
        <time>2013-05-02T11:30:57Z</time>
      </trkpt>
      <trkpt lat="47.71329" lon="-2.73224">
        <ele>109</ele>
        <time>2013-05-02T11:30:58Z</time>
      </trkpt>
      <trkpt lat="47.7133" lon="-2.73229">
        <ele>109</ele>
        <time>2013-05-02T11:30:59Z</time>
      </trkpt>
      <trkpt lat="47.71331" lon="-2.73234">
        <ele>109</ele>
        <time>2013-05-02T11:31:00Z</time>
      </trkpt>
      <trkpt lat="47.71332" lon="-2.73239">
        <ele>109</ele>
        <time>2013-05-02T11:31:01Z</time>
      </trkpt>
      <trkpt lat="47.71333" lon="-2.73244">
        <ele>109</ele>
        <time>2013-05-02T11:31:02Z</time>
      </trkpt>
      <trkpt lat="47.71334" lon="-2.73249">
        <ele>109</ele>
        <time>2013-05-02T11:31:03Z</time>
      </trkpt>
      <trkpt lat="47.71334" lon="-2.73254">
        <ele>109</ele>
        <time>2013-05-02T11:31:04Z</time>
      </trkpt>
      <trkpt lat="47.71335" lon="-2.7326">
        <ele>109</ele>
        <time>2013-05-02T11:31:05Z</time>
      </trkpt>
      <trkpt lat="47.71336" lon="-2.73265">
        <ele>109</ele>
        <time>2013-05-02T11:31:06Z</time>
      </trkpt>
      <trkpt lat="47.71337" lon="-2.73271">
        <ele>109</ele>
        <time>2013-05-02T11:31:07Z</time>
      </trkpt>
      <trkpt lat="47.71339" lon="-2.73277">
        <ele>109</ele>
        <time>2013-05-02T11:31:08Z</time>
      </trkpt>
      <trkpt lat="47.7134" lon="-2.73283">
        <ele>109</ele>
        <time>2013-05-02T11:31:09Z</time>
      </trkpt>
      <trkpt lat="47.71342" lon="-2.73289">
        <ele>109</ele>
        <time>2013-05-02T11:31:10Z</time>
      </trkpt>
      <trkpt lat="47.71344" lon="-2.73295">
        <ele>109</ele>
        <time>2013-05-02T11:31:11Z</time>
      </trkpt>
      <trkpt lat="47.71347" lon="-2.73301">
        <ele>109</ele>
        <time>2013-05-02T11:31:12Z</time>
      </trkpt>
      <trkpt lat="47.71349" lon="-2.73306">
        <ele>109</ele>
        <time>2013-05-02T11:31:13Z</time>
      </trkpt>
      <trkpt lat="47.71351" lon="-2.73311">
        <ele>109</ele>
        <time>2013-05-02T11:31:14Z</time>
      </trkpt>
      <trkpt lat="47.71353" lon="-2.73316">
        <ele>109</ele>
        <time>2013-05-02T11:31:15Z</time>
      </trkpt>
      <trkpt lat="47.71355" lon="-2.7332">
        <ele>109</ele>
        <time>2013-05-02T11:31:16Z</time>
      </trkpt>
      <trkpt lat="47.71357" lon="-2.73325">
        <ele>109</ele>
        <time>2013-05-02T11:31:17Z</time>
      </trkpt>
      <trkpt lat="47.71358" lon="-2.73329">
        <ele>109</ele>
        <time>2013-05-02T11:31:18Z</time>
      </trkpt>
      <trkpt lat="47.71361" lon="-2.73333">
        <ele>109</ele>
        <time>2013-05-02T11:31:19Z</time>
      </trkpt>
      <trkpt lat="47.71363" lon="-2.73338">
        <ele>109</ele>
        <time>2013-05-02T11:31:20Z</time>
      </trkpt>
      <trkpt lat="47.71365" lon="-2.73343">
        <ele>109</ele>
        <time>2013-05-02T11:31:21Z</time>
      </trkpt>
      <trkpt lat="47.71367" lon="-2.73348">
        <ele>109</ele>
        <time>2013-05-02T11:31:22Z</time>
      </trkpt>
      <trkpt lat="47.71369" lon="-2.73353">
        <ele>109</ele>
        <time>2013-05-02T11:31:23Z</time>
      </trkpt>
      <trkpt lat="47.7137" lon="-2.73357">
        <ele>109</ele>
        <time>2013-05-02T11:31:24Z</time>
      </trkpt>
      <trkpt lat="47.71373" lon="-2.73361">
        <ele>109</ele>
        <time>2013-05-02T11:31:25Z</time>
      </trkpt>
      <trkpt lat="47.71376" lon="-2.73363">
        <ele>109</ele>
        <time>2013-05-02T11:31:26Z</time>
      </trkpt>
      <trkpt lat="47.71378" lon="-2.73366">
        <ele>109</ele>
        <time>2013-05-02T11:31:27Z</time>
      </trkpt>
      <trkpt lat="47.71381" lon="-2.73369">
        <ele>109</ele>
        <time>2013-05-02T11:31:28Z</time>
      </trkpt>
      <trkpt lat="47.71384" lon="-2.73373">
        <ele>109</ele>
        <time>2013-05-02T11:31:29Z</time>
      </trkpt>
      <trkpt lat="47.71387" lon="-2.73376">
        <ele>109</ele>
        <time>2013-05-02T11:31:30Z</time>
      </trkpt>
      <trkpt lat="47.71389" lon="-2.73381">
        <ele>109</ele>
        <time>2013-05-02T11:31:31Z</time>
      </trkpt>
      <trkpt lat="47.71392" lon="-2.73386">
        <ele>109</ele>
        <time>2013-05-02T11:31:32Z</time>
      </trkpt>
      <trkpt lat="47.71395" lon="-2.73391">
        <ele>109</ele>
        <time>2013-05-02T11:31:33Z</time>
      </trkpt>
      <trkpt lat="47.71397" lon="-2.73397">
        <ele>109</ele>
        <time>2013-05-02T11:31:34Z</time>
      </trkpt>
      <trkpt lat="47.714" lon="-2.73403">
        <ele>109</ele>
        <time>2013-05-02T11:31:35Z</time>
      </trkpt>
      <trkpt lat="47.71402" lon="-2.73409">
        <ele>109</ele>
        <time>2013-05-02T11:31:36Z</time>
      </trkpt>
      <trkpt lat="47.71405" lon="-2.73414">
        <ele>109</ele>
        <time>2013-05-02T11:31:37Z</time>
      </trkpt>
      <trkpt lat="47.71407" lon="-2.7342">
        <ele>109</ele>
        <time>2013-05-02T11:31:38Z</time>
      </trkpt>
      <trkpt lat="47.7141" lon="-2.73426">
        <ele>109</ele>
        <time>2013-05-02T11:31:39Z</time>
      </trkpt>
      <trkpt lat="47.71413" lon="-2.73432">
        <ele>109</ele>
        <time>2013-05-02T11:31:40Z</time>
      </trkpt>
      <trkpt lat="47.71416" lon="-2.73438">
        <ele>109</ele>
        <time>2013-05-02T11:31:41Z</time>
      </trkpt>
      <trkpt lat="47.71418" lon="-2.73444">
        <ele>109</ele>
        <time>2013-05-02T11:31:42Z</time>
      </trkpt>
      <trkpt lat="47.71421" lon="-2.7345">
        <ele>109</ele>
        <time>2013-05-02T11:31:43Z</time>
      </trkpt>
      <trkpt lat="47.71424" lon="-2.73456">
        <ele>109</ele>
        <time>2013-05-02T11:31:44Z</time>
      </trkpt>
      <trkpt lat="47.71427" lon="-2.73461">
        <ele>109</ele>
        <time>2013-05-02T11:31:45Z</time>
      </trkpt>
      <trkpt lat="47.71429" lon="-2.73465">
        <ele>109</ele>
        <time>2013-05-02T11:31:46Z</time>
      </trkpt>
      <trkpt lat="47.71431" lon="-2.73469">
        <ele>109</ele>
        <time>2013-05-02T11:31:47Z</time>
      </trkpt>
      <trkpt lat="47.71432" lon="-2.73471">
        <ele>109</ele>
        <time>2013-05-02T11:31:48Z</time>
      </trkpt>
      <trkpt lat="47.71434" lon="-2.73472">
        <ele>109</ele>
        <time>2013-05-02T11:31:49Z</time>
      </trkpt>
      <trkpt lat="47.71436" lon="-2.73471">
        <ele>109</ele>
        <time>2013-05-02T11:31:50Z</time>
      </trkpt>
      <trkpt lat="47.71437" lon="-2.73469">
        <ele>109</ele>
        <time>2013-05-02T11:31:51Z</time>
      </trkpt>
      <trkpt lat="47.71438" lon="-2.73466">
        <ele>109</ele>
        <time>2013-05-02T11:31:52Z</time>
      </trkpt>
      <trkpt lat="47.7144" lon="-2.73464">
        <ele>109</ele>
        <time>2013-05-02T11:31:53Z</time>
      </trkpt>
      <trkpt lat="47.71443" lon="-2.73463">
        <ele>109</ele>
        <time>2013-05-02T11:31:54Z</time>
      </trkpt>
      <trkpt lat="47.71445" lon="-2.73462">
        <ele>109</ele>
        <time>2013-05-02T11:31:55Z</time>
      </trkpt>
      <trkpt lat="47.71447" lon="-2.73462">
        <ele>109</ele>
        <time>2013-05-02T11:31:56Z</time>
      </trkpt>
      <trkpt lat="47.71449" lon="-2.73463">
        <ele>109</ele>
        <time>2013-05-02T11:31:57Z</time>
      </trkpt>
      <trkpt lat="47.71451" lon="-2.73464">
        <ele>109</ele>
        <time>2013-05-02T11:31:58Z</time>
      </trkpt>
      <trkpt lat="47.71454" lon="-2.73465">
        <ele>109</ele>
        <time>2013-05-02T11:31:59Z</time>
      </trkpt>
      <trkpt lat="47.71457" lon="-2.73465">
        <ele>109</ele>
        <time>2013-05-02T11:32:00Z</time>
      </trkpt>
      <trkpt lat="47.7146" lon="-2.73466">
        <ele>109</ele>
        <time>2013-05-02T11:32:01Z</time>
      </trkpt>
      <trkpt lat="47.71464" lon="-2.73468">
        <ele>109</ele>
        <time>2013-05-02T11:32:02Z</time>
      </trkpt>
      <trkpt lat="47.71468" lon="-2.73469">
        <ele>109</ele>
        <time>2013-05-02T11:32:03Z</time>
      </trkpt>
      <trkpt lat="47.71471" lon="-2.7347">
        <ele>109</ele>
        <time>2013-05-02T11:32:04Z</time>
      </trkpt>
      <trkpt lat="47.71474" lon="-2.73472">
        <ele>109</ele>
        <time>2013-05-02T11:32:05Z</time>
      </trkpt>
      <trkpt lat="47.71477" lon="-2.73475">
        <ele>109</ele>
        <time>2013-05-02T11:32:06Z</time>
      </trkpt>
      <trkpt lat="47.7148" lon="-2.73477">
        <ele>108</ele>
        <time>2013-05-02T11:32:07Z</time>
      </trkpt>
      <trkpt lat="47.71483" lon="-2.73477">
        <ele>108</ele>
        <time>2013-05-02T11:32:08Z</time>
      </trkpt>
      <trkpt lat="47.71486" lon="-2.73476">
        <ele>108</ele>
        <time>2013-05-02T11:32:09Z</time>
      </trkpt>
      <trkpt lat="47.71489" lon="-2.73474">
        <ele>108</ele>
        <time>2013-05-02T11:32:10Z</time>
      </trkpt>
      <trkpt lat="47.71492" lon="-2.73475">
        <ele>108</ele>
        <time>2013-05-02T11:32:11Z</time>
      </trkpt>
      <trkpt lat="47.71495" lon="-2.73479">
        <ele>107</ele>
        <time>2013-05-02T11:32:12Z</time>
      </trkpt>
      <trkpt lat="47.71497" lon="-2.73483">
        <ele>107</ele>
        <time>2013-05-02T11:32:13Z</time>
      </trkpt>
      <trkpt lat="47.71499" lon="-2.73487">
        <ele>107</ele>
        <time>2013-05-02T11:32:14Z</time>
      </trkpt>
      <trkpt lat="47.71501" lon="-2.73492">
        <ele>107</ele>
        <time>2013-05-02T11:32:15Z</time>
      </trkpt>
      <trkpt lat="47.71503" lon="-2.73496">
        <ele>107</ele>
        <time>2013-05-02T11:32:16Z</time>
      </trkpt>
      <trkpt lat="47.71505" lon="-2.735">
        <ele>106</ele>
        <time>2013-05-02T11:32:17Z</time>
      </trkpt>
      <trkpt lat="47.71507" lon="-2.73503">
        <ele>106</ele>
        <time>2013-05-02T11:32:18Z</time>
      </trkpt>
      <trkpt lat="47.71509" lon="-2.73505">
        <ele>106</ele>
        <time>2013-05-02T11:32:19Z</time>
      </trkpt>
      <trkpt lat="47.71511" lon="-2.73504">
        <ele>106</ele>
        <time>2013-05-02T11:32:20Z</time>
      </trkpt>
      <trkpt lat="47.71516" lon="-2.73504">
        <ele>106</ele>
        <time>2013-05-02T11:32:21Z</time>
      </trkpt>
      <trkpt lat="47.71519" lon="-2.73502">
        <ele>106</ele>
        <time>2013-05-02T11:32:22Z</time>
      </trkpt>
      <trkpt lat="47.71523" lon="-2.73501">
        <ele>106</ele>
        <time>2013-05-02T11:32:23Z</time>
      </trkpt>
      <trkpt lat="47.71526" lon="-2.73501">
        <ele>106</ele>
        <time>2013-05-02T11:32:24Z</time>
      </trkpt>
      <trkpt lat="47.71529" lon="-2.73501">
        <ele>106</ele>
        <time>2013-05-02T11:32:25Z</time>
      </trkpt>
      <trkpt lat="47.71534" lon="-2.73501">
        <ele>106</ele>
        <time>2013-05-02T11:32:26Z</time>
      </trkpt>
      <trkpt lat="47.71539" lon="-2.73501">
        <ele>106</ele>
        <time>2013-05-02T11:32:27Z</time>
      </trkpt>
      <trkpt lat="47.71543" lon="-2.735">
        <ele>106</ele>
        <time>2013-05-02T11:32:28Z</time>
      </trkpt>
      <trkpt lat="47.71547" lon="-2.73498">
        <ele>106</ele>
        <time>2013-05-02T11:32:29Z</time>
      </trkpt>
      <trkpt lat="47.7155" lon="-2.73497">
        <ele>106</ele>
        <time>2013-05-02T11:32:30Z</time>
      </trkpt>
      <trkpt lat="47.71553" lon="-2.73495">
        <ele>105</ele>
        <time>2013-05-02T11:32:31Z</time>
      </trkpt>
      <trkpt lat="47.71555" lon="-2.73492">
        <ele>105</ele>
        <time>2013-05-02T11:32:32Z</time>
      </trkpt>
      <trkpt lat="47.71556" lon="-2.7349">
        <ele>105</ele>
        <time>2013-05-02T11:32:33Z</time>
      </trkpt>
      <trkpt lat="47.71557" lon="-2.73487">
        <ele>104</ele>
        <time>2013-05-02T11:32:34Z</time>
      </trkpt>
      <trkpt lat="47.71558" lon="-2.73486">
        <ele>104</ele>
        <time>2013-05-02T11:32:35Z</time>
      </trkpt>
      <trkpt lat="47.71561" lon="-2.73486">
        <ele>103</ele>
        <time>2013-05-02T11:32:36Z</time>
      </trkpt>
      <trkpt lat="47.71563" lon="-2.73487">
        <ele>102</ele>
        <time>2013-05-02T11:32:37Z</time>
      </trkpt>
      <trkpt lat="47.71564" lon="-2.73488">
        <ele>102</ele>
        <time>2013-05-02T11:32:38Z</time>
      </trkpt>
      <trkpt lat="47.71563" lon="-2.73489">
        <ele>99</ele>
        <time>2013-05-02T11:32:43Z</time>
      </trkpt>
      <trkpt lat="47.71561" lon="-2.73489">
        <ele>99</ele>
        <time>2013-05-02T11:32:44Z</time>
      </trkpt>
      <trkpt lat="47.71559" lon="-2.73488">
        <ele>98</ele>
        <time>2013-05-02T11:32:45Z</time>
      </trkpt>
      <trkpt lat="47.71557" lon="-2.73485">
        <ele>97</ele>
        <time>2013-05-02T11:32:47Z</time>
      </trkpt>
      <trkpt lat="47.71555" lon="-2.73482">
        <ele>96</ele>
        <time>2013-05-02T11:32:48Z</time>
      </trkpt>
      <trkpt lat="47.71554" lon="-2.73478">
        <ele>96</ele>
        <time>2013-05-02T11:32:49Z</time>
      </trkpt>
      <trkpt lat="47.71552" lon="-2.73474">
        <ele>95</ele>
        <time>2013-05-02T11:32:50Z</time>
      </trkpt>
      <trkpt lat="47.7155" lon="-2.7347">
        <ele>95</ele>
        <time>2013-05-02T11:32:51Z</time>
      </trkpt>
      <trkpt lat="47.71547" lon="-2.73468">
        <ele>95</ele>
        <time>2013-05-02T11:32:52Z</time>
      </trkpt>
      <trkpt lat="47.71544" lon="-2.73467">
        <ele>94</ele>
        <time>2013-05-02T11:32:53Z</time>
      </trkpt>
      <trkpt lat="47.7154" lon="-2.73465">
        <ele>94</ele>
        <time>2013-05-02T11:32:54Z</time>
      </trkpt>
      <trkpt lat="47.71537" lon="-2.73462">
        <ele>94</ele>
        <time>2013-05-02T11:32:55Z</time>
      </trkpt>
      <trkpt lat="47.71534" lon="-2.7346">
        <ele>94</ele>
        <time>2013-05-02T11:32:56Z</time>
      </trkpt>
      <trkpt lat="47.71532" lon="-2.73456">
        <ele>94</ele>
        <time>2013-05-02T11:32:57Z</time>
      </trkpt>
      <trkpt lat="47.71529" lon="-2.73451">
        <ele>94</ele>
        <time>2013-05-02T11:32:58Z</time>
      </trkpt>
      <trkpt lat="47.71527" lon="-2.73445">
        <ele>93</ele>
        <time>2013-05-02T11:32:59Z</time>
      </trkpt>
      <trkpt lat="47.71524" lon="-2.7344">
        <ele>93</ele>
        <time>2013-05-02T11:33:00Z</time>
      </trkpt>
      <trkpt lat="47.71521" lon="-2.73434">
        <ele>92</ele>
        <time>2013-05-02T11:33:01Z</time>
      </trkpt>
      <trkpt lat="47.71518" lon="-2.73429">
        <ele>92</ele>
        <time>2013-05-02T11:33:02Z</time>
      </trkpt>
      <trkpt lat="47.71514" lon="-2.73423">
        <ele>91</ele>
        <time>2013-05-02T11:33:03Z</time>
      </trkpt>
      <trkpt lat="47.7151" lon="-2.73419">
        <ele>91</ele>
        <time>2013-05-02T11:33:04Z</time>
      </trkpt>
      <trkpt lat="47.71506" lon="-2.73419">
        <ele>91</ele>
        <time>2013-05-02T11:33:05Z</time>
      </trkpt>
      <trkpt lat="47.71503" lon="-2.73419">
        <ele>91</ele>
        <time>2013-05-02T11:33:06Z</time>
      </trkpt>
      <trkpt lat="47.71499" lon="-2.73417">
        <ele>91</ele>
        <time>2013-05-02T11:33:07Z</time>
      </trkpt>
      <trkpt lat="47.71496" lon="-2.73414">
        <ele>90</ele>
        <time>2013-05-02T11:33:08Z</time>
      </trkpt>
      <trkpt lat="47.71494" lon="-2.73411">
        <ele>90</ele>
        <time>2013-05-02T11:33:09Z</time>
      </trkpt>
      <trkpt lat="47.71493" lon="-2.73407">
        <ele>90</ele>
        <time>2013-05-02T11:33:10Z</time>
      </trkpt>
      <trkpt lat="47.71492" lon="-2.73401">
        <ele>90</ele>
        <time>2013-05-02T11:33:11Z</time>
      </trkpt>
      <trkpt lat="47.71491" lon="-2.73396">
        <ele>89</ele>
        <time>2013-05-02T11:33:12Z</time>
      </trkpt>
      <trkpt lat="47.71489" lon="-2.73391">
        <ele>89</ele>
        <time>2013-05-02T11:33:13Z</time>
      </trkpt>
      <trkpt lat="47.71489" lon="-2.73387">
        <ele>89</ele>
        <time>2013-05-02T11:33:14Z</time>
      </trkpt>
      <trkpt lat="47.71489" lon="-2.73383">
        <ele>89</ele>
        <time>2013-05-02T11:33:15Z</time>
      </trkpt>
      <trkpt lat="47.71492" lon="-2.73378">
        <ele>88</ele>
        <time>2013-05-02T11:33:16Z</time>
      </trkpt>
      <trkpt lat="47.71493" lon="-2.73373">
        <ele>88</ele>
        <time>2013-05-02T11:33:17Z</time>
      </trkpt>
      <trkpt lat="47.71494" lon="-2.73368">
        <ele>88</ele>
        <time>2013-05-02T11:33:18Z</time>
      </trkpt>
      <trkpt lat="47.71494" lon="-2.73362">
        <ele>88</ele>
        <time>2013-05-02T11:33:19Z</time>
      </trkpt>
      <trkpt lat="47.71492" lon="-2.73359">
        <ele>87</ele>
        <time>2013-05-02T11:33:20Z</time>
      </trkpt>
      <trkpt lat="47.7149" lon="-2.73356">
        <ele>87</ele>
        <time>2013-05-02T11:33:21Z</time>
      </trkpt>
      <trkpt lat="47.71489" lon="-2.73353">
        <ele>87</ele>
        <time>2013-05-02T11:33:22Z</time>
      </trkpt>
      <trkpt lat="47.71487" lon="-2.73351">
        <ele>86</ele>
        <time>2013-05-02T11:33:23Z</time>
      </trkpt>
      <trkpt lat="47.71486" lon="-2.73349">
        <ele>86</ele>
        <time>2013-05-02T11:33:24Z</time>
      </trkpt>
      <trkpt lat="47.71484" lon="-2.73348">
        <ele>86</ele>
        <time>2013-05-02T11:33:25Z</time>
      </trkpt>
      <trkpt lat="47.71482" lon="-2.73345">
        <ele>86</ele>
        <time>2013-05-02T11:33:26Z</time>
      </trkpt>
      <trkpt lat="47.7148" lon="-2.73343">
        <ele>86</ele>
        <time>2013-05-02T11:33:27Z</time>
      </trkpt>
      <trkpt lat="47.71478" lon="-2.73342">
        <ele>86</ele>
        <time>2013-05-02T11:33:28Z</time>
      </trkpt>
      <trkpt lat="47.71475" lon="-2.7334">
        <ele>86</ele>
        <time>2013-05-02T11:33:29Z</time>
      </trkpt>
      <trkpt lat="47.71473" lon="-2.73339">
        <ele>86</ele>
        <time>2013-05-02T11:33:30Z</time>
      </trkpt>
      <trkpt lat="47.71472" lon="-2.73337">
        <ele>86</ele>
        <time>2013-05-02T11:33:31Z</time>
      </trkpt>
      <trkpt lat="47.7147" lon="-2.73335">
        <ele>86</ele>
        <time>2013-05-02T11:33:32Z</time>
      </trkpt>
      <trkpt lat="47.71468" lon="-2.73334">
        <ele>86</ele>
        <time>2013-05-02T11:33:33Z</time>
      </trkpt>
      <trkpt lat="47.71467" lon="-2.73331">
        <ele>86</ele>
        <time>2013-05-02T11:33:34Z</time>
      </trkpt>
      <trkpt lat="47.71465" lon="-2.7333">
        <ele>86</ele>
        <time>2013-05-02T11:33:35Z</time>
      </trkpt>
      <trkpt lat="47.71463" lon="-2.73328">
        <ele>86</ele>
        <time>2013-05-02T11:33:36Z</time>
      </trkpt>
      <trkpt lat="47.71462" lon="-2.73327">
        <ele>86</ele>
        <time>2013-05-02T11:33:37Z</time>
      </trkpt>
      <trkpt lat="47.71461" lon="-2.73325">
        <ele>86</ele>
        <time>2013-05-02T11:33:38Z</time>
      </trkpt>
      <trkpt lat="47.71459" lon="-2.73324">
        <ele>86</ele>
        <time>2013-05-02T11:33:39Z</time>
      </trkpt>
      <trkpt lat="47.71457" lon="-2.73322">
        <ele>86</ele>
        <time>2013-05-02T11:33:40Z</time>
      </trkpt>
      <trkpt lat="47.71456" lon="-2.7332">
        <ele>86</ele>
        <time>2013-05-02T11:33:41Z</time>
      </trkpt>
      <trkpt lat="47.71455" lon="-2.73318">
        <ele>86</ele>
        <time>2013-05-02T11:33:42Z</time>
      </trkpt>
      <trkpt lat="47.71453" lon="-2.73317">
        <ele>86</ele>
        <time>2013-05-02T11:33:43Z</time>
      </trkpt>
      <trkpt lat="47.71452" lon="-2.73316">
        <ele>86</ele>
        <time>2013-05-02T11:33:44Z</time>
      </trkpt>
      <trkpt lat="47.71451" lon="-2.73315">
        <ele>88</ele>
        <time>2013-05-02T11:33:47Z</time>
      </trkpt>
      <trkpt lat="47.7145" lon="-2.73315">
        <ele>89</ele>
        <time>2013-05-02T11:33:49Z</time>
      </trkpt>
      <trkpt lat="47.71451" lon="-2.73317">
        <ele>92</ele>
        <time>2013-05-02T11:33:52Z</time>
      </trkpt>
      <trkpt lat="47.71452" lon="-2.73319">
        <ele>92</ele>
        <time>2013-05-02T11:33:54Z</time>
      </trkpt>
      <trkpt lat="47.71452" lon="-2.73321">
        <ele>93</ele>
        <time>2013-05-02T11:33:56Z</time>
      </trkpt>
      <trkpt lat="47.71452" lon="-2.73323">
        <ele>93</ele>
        <time>2013-05-02T11:33:58Z</time>
      </trkpt>
      <trkpt lat="47.71447" lon="-2.73318">
        <ele>96</ele>
        <time>2013-05-02T11:34:01Z</time>
      </trkpt>
      <trkpt lat="47.71446" lon="-2.73317">
        <ele>96</ele>
        <time>2013-05-02T11:34:02Z</time>
      </trkpt>
      <trkpt lat="47.71445" lon="-2.73314">
        <ele>96</ele>
        <time>2013-05-02T11:34:04Z</time>
      </trkpt>
      <trkpt lat="47.71443" lon="-2.73313">
        <ele>96</ele>
        <time>2013-05-02T11:34:06Z</time>
      </trkpt>
      <trkpt lat="47.71442" lon="-2.73312">
        <ele>96</ele>
        <time>2013-05-02T11:34:07Z</time>
      </trkpt>
      <trkpt lat="47.7144" lon="-2.73311">
        <ele>96</ele>
        <time>2013-05-02T11:34:08Z</time>
      </trkpt>
      <trkpt lat="47.71439" lon="-2.73309">
        <ele>96</ele>
        <time>2013-05-02T11:34:09Z</time>
      </trkpt>
      <trkpt lat="47.71437" lon="-2.73306">
        <ele>96</ele>
        <time>2013-05-02T11:34:10Z</time>
      </trkpt>
      <trkpt lat="47.71436" lon="-2.73304">
        <ele>96</ele>
        <time>2013-05-02T11:34:11Z</time>
      </trkpt>
      <trkpt lat="47.71435" lon="-2.73302">
        <ele>97</ele>
        <time>2013-05-02T11:34:12Z</time>
      </trkpt>
      <trkpt lat="47.71434" lon="-2.73299">
        <ele>97</ele>
        <time>2013-05-02T11:34:13Z</time>
      </trkpt>
      <trkpt lat="47.71432" lon="-2.73297">
        <ele>97</ele>
        <time>2013-05-02T11:34:14Z</time>
      </trkpt>
      <trkpt lat="47.71431" lon="-2.73295">
        <ele>97</ele>
        <time>2013-05-02T11:34:15Z</time>
      </trkpt>
      <trkpt lat="47.7143" lon="-2.73292">
        <ele>97</ele>
        <time>2013-05-02T11:34:16Z</time>
      </trkpt>
      <trkpt lat="47.71429" lon="-2.7329">
        <ele>97</ele>
        <time>2013-05-02T11:34:17Z</time>
      </trkpt>
      <trkpt lat="47.71428" lon="-2.73287">
        <ele>97</ele>
        <time>2013-05-02T11:34:18Z</time>
      </trkpt>
      <trkpt lat="47.71426" lon="-2.73283">
        <ele>97</ele>
        <time>2013-05-02T11:34:19Z</time>
      </trkpt>
      <trkpt lat="47.71425" lon="-2.73281">
        <ele>97</ele>
        <time>2013-05-02T11:34:20Z</time>
      </trkpt>
      <trkpt lat="47.71423" lon="-2.73278">
        <ele>97</ele>
        <time>2013-05-02T11:34:21Z</time>
      </trkpt>
      <trkpt lat="47.71423" lon="-2.73276">
        <ele>98</ele>
        <time>2013-05-02T11:34:22Z</time>
      </trkpt>
      <trkpt lat="47.71421" lon="-2.73274">
        <ele>98</ele>
        <time>2013-05-02T11:34:23Z</time>
      </trkpt>
      <trkpt lat="47.71421" lon="-2.73272">
        <ele>98</ele>
        <time>2013-05-02T11:34:24Z</time>
      </trkpt>
      <trkpt lat="47.7142" lon="-2.73271">
        <ele>98</ele>
        <time>2013-05-02T11:34:25Z</time>
      </trkpt>
      <trkpt lat="47.71419" lon="-2.73269">
        <ele>98</ele>
        <time>2013-05-02T11:34:26Z</time>
      </trkpt>
      <trkpt lat="47.71418" lon="-2.73267">
        <ele>99</ele>
        <time>2013-05-02T11:34:27Z</time>
      </trkpt>
      <trkpt lat="47.71417" lon="-2.73265">
        <ele>99</ele>
        <time>2013-05-02T11:34:28Z</time>
      </trkpt>
      <trkpt lat="47.71415" lon="-2.73264">
        <ele>99</ele>
        <time>2013-05-02T11:34:29Z</time>
      </trkpt>
      <trkpt lat="47.71413" lon="-2.73262">
        <ele>99</ele>
        <time>2013-05-02T11:34:30Z</time>
      </trkpt>
      <trkpt lat="47.71412" lon="-2.73262">
        <ele>100</ele>
        <time>2013-05-02T11:34:31Z</time>
      </trkpt>
      <trkpt lat="47.71411" lon="-2.73262">
        <ele>100</ele>
        <time>2013-05-02T11:34:35Z</time>
      </trkpt>
      <trkpt lat="47.71407" lon="-2.7326">
        <ele>102</ele>
        <time>2013-05-02T11:34:38Z</time>
      </trkpt>
      <trkpt lat="47.71401" lon="-2.73252">
        <ele>103</ele>
        <time>2013-05-02T11:34:41Z</time>
      </trkpt>
      <trkpt lat="47.71401" lon="-2.7325">
        <ele>103</ele>
        <time>2013-05-02T11:34:42Z</time>
      </trkpt>
      <trkpt lat="47.71401" lon="-2.73249">
        <ele>103</ele>
        <time>2013-05-02T11:34:43Z</time>
      </trkpt>
      <trkpt lat="47.71401" lon="-2.73247">
        <ele>103</ele>
        <time>2013-05-02T11:34:44Z</time>
      </trkpt>
      <trkpt lat="47.71402" lon="-2.73245">
        <ele>103</ele>
        <time>2013-05-02T11:34:46Z</time>
      </trkpt>
      <trkpt lat="47.71404" lon="-2.73243">
        <ele>103</ele>
        <time>2013-05-02T11:34:48Z</time>
      </trkpt>
      <trkpt lat="47.71405" lon="-2.73243">
        <ele>103</ele>
        <time>2013-05-02T11:34:49Z</time>
      </trkpt>
      <trkpt lat="47.71406" lon="-2.73243">
        <ele>103</ele>
        <time>2013-05-02T11:34:51Z</time>
      </trkpt>
      <trkpt lat="47.71408" lon="-2.73242">
        <ele>103</ele>
        <time>2013-05-02T11:34:53Z</time>
      </trkpt>
      <trkpt lat="47.7141" lon="-2.7324">
        <ele>103</ele>
        <time>2013-05-02T11:34:55Z</time>
      </trkpt>
      <trkpt lat="47.71413" lon="-2.73239">
        <ele>103</ele>
        <time>2013-05-02T11:34:56Z</time>
      </trkpt>
      <trkpt lat="47.71414" lon="-2.73238">
        <ele>103</ele>
        <time>2013-05-02T11:34:57Z</time>
      </trkpt>
      <trkpt lat="47.71416" lon="-2.73237">
        <ele>103</ele>
        <time>2013-05-02T11:34:58Z</time>
      </trkpt>
      <trkpt lat="47.71418" lon="-2.73236">
        <ele>102</ele>
        <time>2013-05-02T11:35:00Z</time>
      </trkpt>
      <trkpt lat="47.71419" lon="-2.73236">
        <ele>101</ele>
        <time>2013-05-02T11:35:01Z</time>
      </trkpt>
      <trkpt lat="47.7142" lon="-2.73236">
        <ele>100</ele>
        <time>2013-05-02T11:35:02Z</time>
      </trkpt>
      <trkpt lat="47.71422" lon="-2.73236">
        <ele>99</ele>
        <time>2013-05-02T11:35:03Z</time>
      </trkpt>
      <trkpt lat="47.71424" lon="-2.73235">
        <ele>98</ele>
        <time>2013-05-02T11:35:04Z</time>
      </trkpt>
      <trkpt lat="47.71428" lon="-2.73235">
        <ele>98</ele>
        <time>2013-05-02T11:35:05Z</time>
      </trkpt>
      <trkpt lat="47.71431" lon="-2.73235">
        <ele>97</ele>
        <time>2013-05-02T11:35:06Z</time>
      </trkpt>
      <trkpt lat="47.71434" lon="-2.73236">
        <ele>97</ele>
        <time>2013-05-02T11:35:07Z</time>
      </trkpt>
      <trkpt lat="47.71436" lon="-2.73236">
        <ele>97</ele>
        <time>2013-05-02T11:35:08Z</time>
      </trkpt>
      <trkpt lat="47.71437" lon="-2.73234">
        <ele>97</ele>
        <time>2013-05-02T11:35:10Z</time>
      </trkpt>
      <trkpt lat="47.71438" lon="-2.73232">
        <ele>97</ele>
        <time>2013-05-02T11:35:12Z</time>
      </trkpt>
      <trkpt lat="47.71439" lon="-2.7323">
        <ele>97</ele>
        <time>2013-05-02T11:35:14Z</time>
      </trkpt>
      <trkpt lat="47.71431" lon="-2.73236">
        <ele>93</ele>
        <time>2013-05-02T11:35:18Z</time>
      </trkpt>
      <trkpt lat="47.71429" lon="-2.73236">
        <ele>93</ele>
        <time>2013-05-02T11:35:19Z</time>
      </trkpt>
      <trkpt lat="47.71428" lon="-2.73236">
        <ele>93</ele>
        <time>2013-05-02T11:35:20Z</time>
      </trkpt>
      <trkpt lat="47.71426" lon="-2.73236">
        <ele>93</ele>
        <time>2013-05-02T11:35:21Z</time>
      </trkpt>
      <trkpt lat="47.71424" lon="-2.73237">
        <ele>93</ele>
        <time>2013-05-02T11:35:22Z</time>
      </trkpt>
      <trkpt lat="47.71423" lon="-2.73236">
        <ele>93</ele>
        <time>2013-05-02T11:35:24Z</time>
      </trkpt>
      <trkpt lat="47.71421" lon="-2.73235">
        <ele>93</ele>
        <time>2013-05-02T11:35:26Z</time>
      </trkpt>
      <trkpt lat="47.71419" lon="-2.73235">
        <ele>93</ele>
        <time>2013-05-02T11:35:29Z</time>
      </trkpt>
      <trkpt lat="47.71418" lon="-2.73234">
        <ele>93</ele>
        <time>2013-05-02T11:35:31Z</time>
      </trkpt>
      <trkpt lat="47.71422" lon="-2.73235">
        <ele>94</ele>
        <time>2013-05-02T11:35:35Z</time>
      </trkpt>
      <trkpt lat="47.71425" lon="-2.73235">
        <ele>94</ele>
        <time>2013-05-02T11:35:37Z</time>
      </trkpt>
      <trkpt lat="47.71426" lon="-2.73236">
        <ele>94</ele>
        <time>2013-05-02T11:35:38Z</time>
      </trkpt>
      <trkpt lat="47.71429" lon="-2.73236">
        <ele>94</ele>
        <time>2013-05-02T11:35:39Z</time>
      </trkpt>
      <trkpt lat="47.71432" lon="-2.73237">
        <ele>94</ele>
        <time>2013-05-02T11:35:40Z</time>
      </trkpt>
      <trkpt lat="47.71434" lon="-2.73237">
        <ele>94</ele>
        <time>2013-05-02T11:35:41Z</time>
      </trkpt>
      <trkpt lat="47.71436" lon="-2.73236">
        <ele>94</ele>
        <time>2013-05-02T11:35:42Z</time>
      </trkpt>
      <trkpt lat="47.71437" lon="-2.73236">
        <ele>94</ele>
        <time>2013-05-02T11:35:44Z</time>
      </trkpt>
      <trkpt lat="47.71436" lon="-2.73237">
        <ele>94</ele>
        <time>2013-05-02T11:35:46Z</time>
      </trkpt>
      <trkpt lat="47.71439" lon="-2.73235">
        <ele>94</ele>
        <time>2013-05-02T11:35:47Z</time>
      </trkpt>
      <trkpt lat="47.71436" lon="-2.73225">
        <ele>96</ele>
        <time>2013-05-02T11:35:48Z</time>
      </trkpt>
      <trkpt lat="47.71435" lon="-2.73222">
        <ele>96</ele>
        <time>2013-05-02T11:35:49Z</time>
      </trkpt>
      <trkpt lat="47.71433" lon="-2.73219">
        <ele>96</ele>
        <time>2013-05-02T11:35:50Z</time>
      </trkpt>
      <trkpt lat="47.71431" lon="-2.73216">
        <ele>96</ele>
        <time>2013-05-02T11:35:51Z</time>
      </trkpt>
      <trkpt lat="47.71429" lon="-2.73214">
        <ele>96</ele>
        <time>2013-05-02T11:35:52Z</time>
      </trkpt>
      <trkpt lat="47.71428" lon="-2.73211">
        <ele>96</ele>
        <time>2013-05-02T11:35:53Z</time>
      </trkpt>
      <trkpt lat="47.71426" lon="-2.73209">
        <ele>96</ele>
        <time>2013-05-02T11:35:54Z</time>
      </trkpt>
      <trkpt lat="47.71426" lon="-2.73207">
        <ele>96</ele>
        <time>2013-05-02T11:35:55Z</time>
      </trkpt>
      <trkpt lat="47.71425" lon="-2.73205">
        <ele>96</ele>
        <time>2013-05-02T11:35:56Z</time>
      </trkpt>
      <trkpt lat="47.71423" lon="-2.73202">
        <ele>96</ele>
        <time>2013-05-02T11:35:57Z</time>
      </trkpt>
      <trkpt lat="47.71423" lon="-2.732">
        <ele>96</ele>
        <time>2013-05-02T11:35:58Z</time>
      </trkpt>
      <trkpt lat="47.71422" lon="-2.73198">
        <ele>96</ele>
        <time>2013-05-02T11:35:59Z</time>
      </trkpt>
      <trkpt lat="47.71421" lon="-2.73196">
        <ele>96</ele>
        <time>2013-05-02T11:36:00Z</time>
      </trkpt>
      <trkpt lat="47.7142" lon="-2.73194">
        <ele>96</ele>
        <time>2013-05-02T11:36:01Z</time>
      </trkpt>
      <trkpt lat="47.71419" lon="-2.73192">
        <ele>96</ele>
        <time>2013-05-02T11:36:02Z</time>
      </trkpt>
      <trkpt lat="47.71418" lon="-2.73189">
        <ele>97</ele>
        <time>2013-05-02T11:36:03Z</time>
      </trkpt>
      <trkpt lat="47.71417" lon="-2.73187">
        <ele>98</ele>
        <time>2013-05-02T11:36:04Z</time>
      </trkpt>
      <trkpt lat="47.71416" lon="-2.73183">
        <ele>98</ele>
        <time>2013-05-02T11:36:05Z</time>
      </trkpt>
      <trkpt lat="47.71416" lon="-2.7318">
        <ele>99</ele>
        <time>2013-05-02T11:36:06Z</time>
      </trkpt>
      <trkpt lat="47.71415" lon="-2.73177">
        <ele>99</ele>
        <time>2013-05-02T11:36:07Z</time>
      </trkpt>
      <trkpt lat="47.71413" lon="-2.73174">
        <ele>100</ele>
        <time>2013-05-02T11:36:08Z</time>
      </trkpt>
      <trkpt lat="47.71412" lon="-2.73173">
        <ele>100</ele>
        <time>2013-05-02T11:36:09Z</time>
      </trkpt>
      <trkpt lat="47.71411" lon="-2.73171">
        <ele>100</ele>
        <time>2013-05-02T11:36:10Z</time>
      </trkpt>
      <trkpt lat="47.7141" lon="-2.73169">
        <ele>101</ele>
        <time>2013-05-02T11:36:11Z</time>
      </trkpt>
      <trkpt lat="47.7141" lon="-2.73166">
        <ele>101</ele>
        <time>2013-05-02T11:36:12Z</time>
      </trkpt>
      <trkpt lat="47.71409" lon="-2.73162">
        <ele>101</ele>
        <time>2013-05-02T11:36:13Z</time>
      </trkpt>
      <trkpt lat="47.71408" lon="-2.73158">
        <ele>102</ele>
        <time>2013-05-02T11:36:14Z</time>
      </trkpt>
      <trkpt lat="47.71409" lon="-2.73153">
        <ele>102</ele>
        <time>2013-05-02T11:36:15Z</time>
      </trkpt>
      <trkpt lat="47.71409" lon="-2.73148">
        <ele>103</ele>
        <time>2013-05-02T11:36:16Z</time>
      </trkpt>
      <trkpt lat="47.71408" lon="-2.73145">
        <ele>103</ele>
        <time>2013-05-02T11:36:17Z</time>
      </trkpt>
      <trkpt lat="47.71408" lon="-2.73141">
        <ele>103</ele>
        <time>2013-05-02T11:36:18Z</time>
      </trkpt>
      <trkpt lat="47.71407" lon="-2.73137">
        <ele>103</ele>
        <time>2013-05-02T11:36:19Z</time>
      </trkpt>
      <trkpt lat="47.71407" lon="-2.73134">
        <ele>103</ele>
        <time>2013-05-02T11:36:20Z</time>
      </trkpt>
      <trkpt lat="47.71406" lon="-2.73132">
        <ele>103</ele>
        <time>2013-05-02T11:36:21Z</time>
      </trkpt>
      <trkpt lat="47.71405" lon="-2.7313">
        <ele>103</ele>
        <time>2013-05-02T11:36:23Z</time>
      </trkpt>
      <trkpt lat="47.71404" lon="-2.73127">
        <ele>103</ele>
        <time>2013-05-02T11:36:25Z</time>
      </trkpt>
      <trkpt lat="47.71403" lon="-2.73124">
        <ele>103</ele>
        <time>2013-05-02T11:36:26Z</time>
      </trkpt>
      <trkpt lat="47.71403" lon="-2.7312">
        <ele>103</ele>
        <time>2013-05-02T11:36:27Z</time>
      </trkpt>
      <trkpt lat="47.71403" lon="-2.73116">
        <ele>103</ele>
        <time>2013-05-02T11:36:28Z</time>
      </trkpt>
      <trkpt lat="47.71403" lon="-2.73112">
        <ele>103</ele>
        <time>2013-05-02T11:36:29Z</time>
      </trkpt>
      <trkpt lat="47.71404" lon="-2.73109">
        <ele>103</ele>
        <time>2013-05-02T11:36:30Z</time>
      </trkpt>
      <trkpt lat="47.71404" lon="-2.73106">
        <ele>103</ele>
        <time>2013-05-02T11:36:31Z</time>
      </trkpt>
      <trkpt lat="47.71404" lon="-2.73104">
        <ele>103</ele>
        <time>2013-05-02T11:36:32Z</time>
      </trkpt>
      <trkpt lat="47.71405" lon="-2.731">
        <ele>103</ele>
        <time>2013-05-02T11:36:34Z</time>
      </trkpt>
      <trkpt lat="47.71405" lon="-2.73097">
        <ele>103</ele>
        <time>2013-05-02T11:36:35Z</time>
      </trkpt>
      <trkpt lat="47.71404" lon="-2.73094">
        <ele>103</ele>
        <time>2013-05-02T11:36:36Z</time>
      </trkpt>
      <trkpt lat="47.71405" lon="-2.73091">
        <ele>103</ele>
        <time>2013-05-02T11:36:37Z</time>
      </trkpt>
      <trkpt lat="47.71405" lon="-2.73089">
        <ele>103</ele>
        <time>2013-05-02T11:36:39Z</time>
      </trkpt>
      <trkpt lat="47.71404" lon="-2.73086">
        <ele>102</ele>
        <time>2013-05-02T11:36:41Z</time>
      </trkpt>
      <trkpt lat="47.71404" lon="-2.73084">
        <ele>102</ele>
        <time>2013-05-02T11:36:42Z</time>
      </trkpt>
      <trkpt lat="47.71403" lon="-2.73082">
        <ele>101</ele>
        <time>2013-05-02T11:36:44Z</time>
      </trkpt>
      <trkpt lat="47.71404" lon="-2.7308">
        <ele>101</ele>
        <time>2013-05-02T11:36:45Z</time>
      </trkpt>
      <trkpt lat="47.71404" lon="-2.73079">
        <ele>101</ele>
        <time>2013-05-02T11:36:46Z</time>
      </trkpt>
      <trkpt lat="47.71404" lon="-2.73077">
        <ele>100</ele>
        <time>2013-05-02T11:36:47Z</time>
      </trkpt>
      <trkpt lat="47.71404" lon="-2.73074">
        <ele>100</ele>
        <time>2013-05-02T11:36:48Z</time>
      </trkpt>
      <trkpt lat="47.71405" lon="-2.73071">
        <ele>100</ele>
        <time>2013-05-02T11:36:49Z</time>
      </trkpt>
      <trkpt lat="47.71405" lon="-2.73068">
        <ele>99</ele>
        <time>2013-05-02T11:36:50Z</time>
      </trkpt>
      <trkpt lat="47.71406" lon="-2.73065">
        <ele>98</ele>
        <time>2013-05-02T11:36:51Z</time>
      </trkpt>
      <trkpt lat="47.71407" lon="-2.73061">
        <ele>98</ele>
        <time>2013-05-02T11:36:52Z</time>
      </trkpt>
      <trkpt lat="47.71407" lon="-2.73057">
        <ele>97</ele>
        <time>2013-05-02T11:36:53Z</time>
      </trkpt>
      <trkpt lat="47.71407" lon="-2.73054">
        <ele>96</ele>
        <time>2013-05-02T11:36:54Z</time>
      </trkpt>
      <trkpt lat="47.71408" lon="-2.7305">
        <ele>95</ele>
        <time>2013-05-02T11:36:55Z</time>
      </trkpt>
      <trkpt lat="47.71409" lon="-2.73046">
        <ele>94</ele>
        <time>2013-05-02T11:36:56Z</time>
      </trkpt>
      <trkpt lat="47.71409" lon="-2.73042">
        <ele>94</ele>
        <time>2013-05-02T11:36:57Z</time>
      </trkpt>
      <trkpt lat="47.7141" lon="-2.73039">
        <ele>94</ele>
        <time>2013-05-02T11:36:58Z</time>
      </trkpt>
      <trkpt lat="47.7141" lon="-2.73036">
        <ele>93</ele>
        <time>2013-05-02T11:36:59Z</time>
      </trkpt>
      <trkpt lat="47.71412" lon="-2.73032">
        <ele>93</ele>
        <time>2013-05-02T11:37:00Z</time>
      </trkpt>
      <trkpt lat="47.71412" lon="-2.73028">
        <ele>93</ele>
        <time>2013-05-02T11:37:01Z</time>
      </trkpt>
      <trkpt lat="47.71412" lon="-2.73025">
        <ele>93</ele>
        <time>2013-05-02T11:37:02Z</time>
      </trkpt>
      <trkpt lat="47.71413" lon="-2.73023">
        <ele>92</ele>
        <time>2013-05-02T11:37:03Z</time>
      </trkpt>
      <trkpt lat="47.71412" lon="-2.73021">
        <ele>92</ele>
        <time>2013-05-02T11:37:04Z</time>
      </trkpt>
      <trkpt lat="47.7141" lon="-2.73019">
        <ele>92</ele>
        <time>2013-05-02T11:37:05Z</time>
      </trkpt>
      <trkpt lat="47.7141" lon="-2.73016">
        <ele>91</ele>
        <time>2013-05-02T11:37:06Z</time>
      </trkpt>
      <trkpt lat="47.71411" lon="-2.73014">
        <ele>91</ele>
        <time>2013-05-02T11:37:07Z</time>
      </trkpt>
      <trkpt lat="47.71412" lon="-2.73014">
        <ele>90</ele>
        <time>2013-05-02T11:37:09Z</time>
      </trkpt>
      <trkpt lat="47.71414" lon="-2.73016">
        <ele>89</ele>
        <time>2013-05-02T11:37:11Z</time>
      </trkpt>
      <trkpt lat="47.71415" lon="-2.73019">
        <ele>88</ele>
        <time>2013-05-02T11:37:13Z</time>
      </trkpt>
      <trkpt lat="47.71415" lon="-2.73021">
        <ele>88</ele>
        <time>2013-05-02T11:37:14Z</time>
      </trkpt>
      <trkpt lat="47.71414" lon="-2.73023">
        <ele>87</ele>
        <time>2013-05-02T11:37:16Z</time>
      </trkpt>
      <trkpt lat="47.71413" lon="-2.73022">
        <ele>86</ele>
        <time>2013-05-02T11:37:18Z</time>
      </trkpt>
      <trkpt lat="47.71413" lon="-2.7302">
        <ele>86</ele>
        <time>2013-05-02T11:37:19Z</time>
      </trkpt>
      <trkpt lat="47.71413" lon="-2.73018">
        <ele>86</ele>
        <time>2013-05-02T11:37:20Z</time>
      </trkpt>
      <trkpt lat="47.71415" lon="-2.73018">
        <ele>86</ele>
        <time>2013-05-02T11:37:22Z</time>
      </trkpt>
      <trkpt lat="47.71416" lon="-2.73021">
        <ele>86</ele>
        <time>2013-05-02T11:37:23Z</time>
      </trkpt>
      <trkpt lat="47.71416" lon="-2.73025">
        <ele>86</ele>
        <time>2013-05-02T11:37:24Z</time>
      </trkpt>
      <trkpt lat="47.71415" lon="-2.73029">
        <ele>86</ele>
        <time>2013-05-02T11:37:25Z</time>
      </trkpt>
      <trkpt lat="47.71415" lon="-2.73033">
        <ele>86</ele>
        <time>2013-05-02T11:37:26Z</time>
      </trkpt>
      <trkpt lat="47.71414" lon="-2.73037">
        <ele>86</ele>
        <time>2013-05-02T11:37:27Z</time>
      </trkpt>
      <trkpt lat="47.71414" lon="-2.7304">
        <ele>86</ele>
        <time>2013-05-02T11:37:28Z</time>
      </trkpt>
      <trkpt lat="47.71415" lon="-2.73037">
        <ele>86</ele>
        <time>2013-05-02T11:37:31Z</time>
      </trkpt>
      <trkpt lat="47.71415" lon="-2.73036">
        <ele>86</ele>
        <time>2013-05-02T11:37:33Z</time>
      </trkpt>
      <trkpt lat="47.71415" lon="-2.73034">
        <ele>86</ele>
        <time>2013-05-02T11:37:35Z</time>
      </trkpt>
      <trkpt lat="47.71418" lon="-2.73023">
        <ele>90</ele>
        <time>2013-05-02T11:37:36Z</time>
      </trkpt>
      <trkpt lat="47.71419" lon="-2.73021">
        <ele>90</ele>
        <time>2013-05-02T11:37:37Z</time>
      </trkpt>
      <trkpt lat="47.71418" lon="-2.73019">
        <ele>90</ele>
        <time>2013-05-02T11:37:39Z</time>
      </trkpt>
      <trkpt lat="47.71419" lon="-2.73019">
        <ele>90</ele>
        <time>2013-05-02T11:37:41Z</time>
      </trkpt>
      <trkpt lat="47.71427" lon="-2.73014">
        <ele>86</ele>
        <time>2013-05-02T11:37:45Z</time>
      </trkpt>
      <trkpt lat="47.7143" lon="-2.73011">
        <ele>86</ele>
        <time>2013-05-02T11:37:46Z</time>
      </trkpt>
      <trkpt lat="47.71434" lon="-2.73008">
        <ele>86</ele>
        <time>2013-05-02T11:37:47Z</time>
      </trkpt>
      <trkpt lat="47.71438" lon="-2.73004">
        <ele>86</ele>
        <time>2013-05-02T11:37:48Z</time>
      </trkpt>
      <trkpt lat="47.71442" lon="-2.73001">
        <ele>86</ele>
        <time>2013-05-02T11:37:49Z</time>
      </trkpt>
      <trkpt lat="47.71447" lon="-2.72997">
        <ele>85</ele>
        <time>2013-05-02T11:37:50Z</time>
      </trkpt>
      <trkpt lat="47.71451" lon="-2.72993">
        <ele>85</ele>
        <time>2013-05-02T11:37:51Z</time>
      </trkpt>
      <trkpt lat="47.71454" lon="-2.7299">
        <ele>85</ele>
        <time>2013-05-02T11:37:52Z</time>
      </trkpt>
      <trkpt lat="47.71456" lon="-2.72986">
        <ele>84</ele>
        <time>2013-05-02T11:37:53Z</time>
      </trkpt>
      <trkpt lat="47.71457" lon="-2.72981">
        <ele>84</ele>
        <time>2013-05-02T11:37:54Z</time>
      </trkpt>
      <trkpt lat="47.71457" lon="-2.72976">
        <ele>83</ele>
        <time>2013-05-02T11:37:55Z</time>
      </trkpt>
      <trkpt lat="47.71456" lon="-2.72972">
        <ele>83</ele>
        <time>2013-05-02T11:37:56Z</time>
      </trkpt>
      <trkpt lat="47.71456" lon="-2.72968">
        <ele>83</ele>
        <time>2013-05-02T11:37:57Z</time>
      </trkpt>
      <trkpt lat="47.71456" lon="-2.72963">
        <ele>83</ele>
        <time>2013-05-02T11:37:58Z</time>
      </trkpt>
      <trkpt lat="47.71457" lon="-2.72959">
        <ele>83</ele>
        <time>2013-05-02T11:37:59Z</time>
      </trkpt>
      <trkpt lat="47.71459" lon="-2.72956">
        <ele>83</ele>
        <time>2013-05-02T11:38:00Z</time>
      </trkpt>
      <trkpt lat="47.71461" lon="-2.72954">
        <ele>83</ele>
        <time>2013-05-02T11:38:01Z</time>
      </trkpt>
      <trkpt lat="47.71464" lon="-2.72952">
        <ele>82</ele>
        <time>2013-05-02T11:38:02Z</time>
      </trkpt>
      <trkpt lat="47.71467" lon="-2.7295">
        <ele>82</ele>
        <time>2013-05-02T11:38:03Z</time>
      </trkpt>
      <trkpt lat="47.71471" lon="-2.72949">
        <ele>82</ele>
        <time>2013-05-02T11:38:04Z</time>
      </trkpt>
      <trkpt lat="47.71474" lon="-2.72947">
        <ele>82</ele>
        <time>2013-05-02T11:38:05Z</time>
      </trkpt>
      <trkpt lat="47.71476" lon="-2.72945">
        <ele>82</ele>
        <time>2013-05-02T11:38:06Z</time>
      </trkpt>
      <trkpt lat="47.71479" lon="-2.72944">
        <ele>82</ele>
        <time>2013-05-02T11:38:07Z</time>
      </trkpt>
      <trkpt lat="47.71481" lon="-2.72942">
        <ele>82</ele>
        <time>2013-05-02T11:38:08Z</time>
      </trkpt>
      <trkpt lat="47.71483" lon="-2.72941">
        <ele>82</ele>
        <time>2013-05-02T11:38:09Z</time>
      </trkpt>
      <trkpt lat="47.71485" lon="-2.72939">
        <ele>82</ele>
        <time>2013-05-02T11:38:10Z</time>
      </trkpt>
      <trkpt lat="47.71486" lon="-2.72937">
        <ele>82</ele>
        <time>2013-05-02T11:38:11Z</time>
      </trkpt>
      <trkpt lat="47.71487" lon="-2.72936">
        <ele>82</ele>
        <time>2013-05-02T11:38:12Z</time>
      </trkpt>
      <trkpt lat="47.71488" lon="-2.72934">
        <ele>82</ele>
        <time>2013-05-02T11:38:13Z</time>
      </trkpt>
      <trkpt lat="47.71489" lon="-2.72932">
        <ele>83</ele>
        <time>2013-05-02T11:38:14Z</time>
      </trkpt>
      <trkpt lat="47.71491" lon="-2.7293">
        <ele>84</ele>
        <time>2013-05-02T11:38:15Z</time>
      </trkpt>
      <trkpt lat="47.71493" lon="-2.72928">
        <ele>85</ele>
        <time>2013-05-02T11:38:16Z</time>
      </trkpt>
      <trkpt lat="47.71495" lon="-2.72926">
        <ele>86</ele>
        <time>2013-05-02T11:38:17Z</time>
      </trkpt>
      <trkpt lat="47.71498" lon="-2.72926">
        <ele>87</ele>
        <time>2013-05-02T11:38:18Z</time>
      </trkpt>
      <trkpt lat="47.715" lon="-2.72926">
        <ele>88</ele>
        <time>2013-05-02T11:38:19Z</time>
      </trkpt>
      <trkpt lat="47.71502" lon="-2.72926">
        <ele>89</ele>
        <time>2013-05-02T11:38:20Z</time>
      </trkpt>
      <trkpt lat="47.71504" lon="-2.72926">
        <ele>90</ele>
        <time>2013-05-02T11:38:21Z</time>
      </trkpt>
      <trkpt lat="47.71506" lon="-2.72925">
        <ele>91</ele>
        <time>2013-05-02T11:38:22Z</time>
      </trkpt>
      <trkpt lat="47.71508" lon="-2.72926">
        <ele>91</ele>
        <time>2013-05-02T11:38:23Z</time>
      </trkpt>
      <trkpt lat="47.7151" lon="-2.72926">
        <ele>91</ele>
        <time>2013-05-02T11:38:24Z</time>
      </trkpt>
      <trkpt lat="47.71513" lon="-2.72926">
        <ele>91</ele>
        <time>2013-05-02T11:38:25Z</time>
      </trkpt>
      <trkpt lat="47.71515" lon="-2.72926">
        <ele>91</ele>
        <time>2013-05-02T11:38:26Z</time>
      </trkpt>
      <trkpt lat="47.71517" lon="-2.72926">
        <ele>91</ele>
        <time>2013-05-02T11:38:27Z</time>
      </trkpt>
      <trkpt lat="47.71519" lon="-2.72926">
        <ele>91</ele>
        <time>2013-05-02T11:38:28Z</time>
      </trkpt>
      <trkpt lat="47.71522" lon="-2.72926">
        <ele>91</ele>
        <time>2013-05-02T11:38:29Z</time>
      </trkpt>
      <trkpt lat="47.71525" lon="-2.72925">
        <ele>91</ele>
        <time>2013-05-02T11:38:30Z</time>
      </trkpt>
      <trkpt lat="47.71527" lon="-2.72925">
        <ele>91</ele>
        <time>2013-05-02T11:38:31Z</time>
      </trkpt>
      <trkpt lat="47.71529" lon="-2.72924">
        <ele>91</ele>
        <time>2013-05-02T11:38:32Z</time>
      </trkpt>
      <trkpt lat="47.71531" lon="-2.72924">
        <ele>91</ele>
        <time>2013-05-02T11:38:33Z</time>
      </trkpt>
      <trkpt lat="47.71534" lon="-2.72924">
        <ele>91</ele>
        <time>2013-05-02T11:38:34Z</time>
      </trkpt>
      <trkpt lat="47.71536" lon="-2.72925">
        <ele>91</ele>
        <time>2013-05-02T11:38:35Z</time>
      </trkpt>
      <trkpt lat="47.71539" lon="-2.72925">
        <ele>91</ele>
        <time>2013-05-02T11:38:36Z</time>
      </trkpt>
      <trkpt lat="47.71542" lon="-2.72925">
        <ele>91</ele>
        <time>2013-05-02T11:38:37Z</time>
      </trkpt>
      <trkpt lat="47.71545" lon="-2.72925">
        <ele>91</ele>
        <time>2013-05-02T11:38:38Z</time>
      </trkpt>
      <trkpt lat="47.71547" lon="-2.72924">
        <ele>91</ele>
        <time>2013-05-02T11:38:39Z</time>
      </trkpt>
      <trkpt lat="47.7155" lon="-2.72923">
        <ele>91</ele>
        <time>2013-05-02T11:38:40Z</time>
      </trkpt>
      <trkpt lat="47.71552" lon="-2.72922">
        <ele>92</ele>
        <time>2013-05-02T11:38:41Z</time>
      </trkpt>
      <trkpt lat="47.71555" lon="-2.72921">
        <ele>92</ele>
        <time>2013-05-02T11:38:42Z</time>
      </trkpt>
      <trkpt lat="47.71556" lon="-2.72921">
        <ele>93</ele>
        <time>2013-05-02T11:38:43Z</time>
      </trkpt>
      <trkpt lat="47.71559" lon="-2.7292">
        <ele>93</ele>
        <time>2013-05-02T11:38:44Z</time>
      </trkpt>
      <trkpt lat="47.71561" lon="-2.72918">
        <ele>93</ele>
        <time>2013-05-02T11:38:45Z</time>
      </trkpt>
      <trkpt lat="47.71563" lon="-2.72917">
        <ele>94</ele>
        <time>2013-05-02T11:38:46Z</time>
      </trkpt>
      <trkpt lat="47.71565" lon="-2.72917">
        <ele>94</ele>
        <time>2013-05-02T11:38:47Z</time>
      </trkpt>
      <trkpt lat="47.71567" lon="-2.72916">
        <ele>94</ele>
        <time>2013-05-02T11:38:48Z</time>
      </trkpt>
      <trkpt lat="47.71569" lon="-2.72916">
        <ele>94</ele>
        <time>2013-05-02T11:38:49Z</time>
      </trkpt>
      <trkpt lat="47.71572" lon="-2.72915">
        <ele>94</ele>
        <time>2013-05-02T11:38:50Z</time>
      </trkpt>
      <trkpt lat="47.71574" lon="-2.72915">
        <ele>94</ele>
        <time>2013-05-02T11:38:51Z</time>
      </trkpt>
      <trkpt lat="47.71576" lon="-2.72915">
        <ele>94</ele>
        <time>2013-05-02T11:38:52Z</time>
      </trkpt>
      <trkpt lat="47.71577" lon="-2.72914">
        <ele>95</ele>
        <time>2013-05-02T11:38:53Z</time>
      </trkpt>
      <trkpt lat="47.71579" lon="-2.72913">
        <ele>95</ele>
        <time>2013-05-02T11:38:54Z</time>
      </trkpt>
      <trkpt lat="47.71581" lon="-2.72913">
        <ele>95</ele>
        <time>2013-05-02T11:38:55Z</time>
      </trkpt>
      <trkpt lat="47.71582" lon="-2.72913">
        <ele>95</ele>
        <time>2013-05-02T11:38:56Z</time>
      </trkpt>
      <trkpt lat="47.71584" lon="-2.72913">
        <ele>95</ele>
        <time>2013-05-02T11:38:57Z</time>
      </trkpt>
      <trkpt lat="47.71586" lon="-2.72913">
        <ele>95</ele>
        <time>2013-05-02T11:38:58Z</time>
      </trkpt>
      <trkpt lat="47.71587" lon="-2.72913">
        <ele>95</ele>
        <time>2013-05-02T11:38:59Z</time>
      </trkpt>
      <trkpt lat="47.71589" lon="-2.72913">
        <ele>95</ele>
        <time>2013-05-02T11:39:00Z</time>
      </trkpt>
      <trkpt lat="47.71591" lon="-2.72914">
        <ele>95</ele>
        <time>2013-05-02T11:39:01Z</time>
      </trkpt>
      <trkpt lat="47.71592" lon="-2.72916">
        <ele>95</ele>
        <time>2013-05-02T11:39:02Z</time>
      </trkpt>
      <trkpt lat="47.71593" lon="-2.72918">
        <ele>95</ele>
        <time>2013-05-02T11:39:03Z</time>
      </trkpt>
      <trkpt lat="47.71594" lon="-2.7292">
        <ele>95</ele>
        <time>2013-05-02T11:39:04Z</time>
      </trkpt>
      <trkpt lat="47.71595" lon="-2.72922">
        <ele>95</ele>
        <time>2013-05-02T11:39:05Z</time>
      </trkpt>
      <trkpt lat="47.71595" lon="-2.72924">
        <ele>95</ele>
        <time>2013-05-02T11:39:06Z</time>
      </trkpt>
      <trkpt lat="47.71596" lon="-2.72927">
        <ele>95</ele>
        <time>2013-05-02T11:39:07Z</time>
      </trkpt>
      <trkpt lat="47.71595" lon="-2.7293">
        <ele>95</ele>
        <time>2013-05-02T11:39:08Z</time>
      </trkpt>
      <trkpt lat="47.71595" lon="-2.72933">
        <ele>95</ele>
        <time>2013-05-02T11:39:09Z</time>
      </trkpt>
      <trkpt lat="47.71594" lon="-2.72937">
        <ele>95</ele>
        <time>2013-05-02T11:39:10Z</time>
      </trkpt>
      <trkpt lat="47.71594" lon="-2.7294">
        <ele>96</ele>
        <time>2013-05-02T11:39:11Z</time>
      </trkpt>
      <trkpt lat="47.71594" lon="-2.72942">
        <ele>96</ele>
        <time>2013-05-02T11:39:12Z</time>
      </trkpt>
      <trkpt lat="47.71595" lon="-2.72944">
        <ele>97</ele>
        <time>2013-05-02T11:39:13Z</time>
      </trkpt>
      <trkpt lat="47.71595" lon="-2.72947">
        <ele>97</ele>
        <time>2013-05-02T11:39:14Z</time>
      </trkpt>
      <trkpt lat="47.71596" lon="-2.72949">
        <ele>98</ele>
        <time>2013-05-02T11:39:15Z</time>
      </trkpt>
      <trkpt lat="47.71596" lon="-2.72952">
        <ele>98</ele>
        <time>2013-05-02T11:39:16Z</time>
      </trkpt>
      <trkpt lat="47.71596" lon="-2.72954">
        <ele>98</ele>
        <time>2013-05-02T11:39:17Z</time>
      </trkpt>
      <trkpt lat="47.71596" lon="-2.72956">
        <ele>99</ele>
        <time>2013-05-02T11:39:18Z</time>
      </trkpt>
      <trkpt lat="47.71595" lon="-2.72958">
        <ele>99</ele>
        <time>2013-05-02T11:39:19Z</time>
      </trkpt>
      <trkpt lat="47.71594" lon="-2.7296">
        <ele>100</ele>
        <time>2013-05-02T11:39:20Z</time>
      </trkpt>
      <trkpt lat="47.71594" lon="-2.72963">
        <ele>100</ele>
        <time>2013-05-02T11:39:21Z</time>
      </trkpt>
      <trkpt lat="47.71593" lon="-2.72965">
        <ele>101</ele>
        <time>2013-05-02T11:39:22Z</time>
      </trkpt>
      <trkpt lat="47.71593" lon="-2.72968">
        <ele>101</ele>
        <time>2013-05-02T11:39:23Z</time>
      </trkpt>
      <trkpt lat="47.71593" lon="-2.72971">
        <ele>102</ele>
        <time>2013-05-02T11:39:24Z</time>
      </trkpt>
      <trkpt lat="47.71592" lon="-2.72975">
        <ele>102</ele>
        <time>2013-05-02T11:39:25Z</time>
      </trkpt>
      <trkpt lat="47.71591" lon="-2.72978">
        <ele>102</ele>
        <time>2013-05-02T11:39:26Z</time>
      </trkpt>
      <trkpt lat="47.71591" lon="-2.72981">
        <ele>102</ele>
        <time>2013-05-02T11:39:27Z</time>
      </trkpt>
      <trkpt lat="47.71591" lon="-2.72984">
        <ele>102</ele>
        <time>2013-05-02T11:39:28Z</time>
      </trkpt>
      <trkpt lat="47.7159" lon="-2.72986">
        <ele>102</ele>
        <time>2013-05-02T11:39:29Z</time>
      </trkpt>
      <trkpt lat="47.7159" lon="-2.72988">
        <ele>102</ele>
        <time>2013-05-02T11:39:30Z</time>
      </trkpt>
      <trkpt lat="47.7159" lon="-2.72992">
        <ele>102</ele>
        <time>2013-05-02T11:39:31Z</time>
      </trkpt>
      <trkpt lat="47.71591" lon="-2.72997">
        <ele>102</ele>
        <time>2013-05-02T11:39:32Z</time>
      </trkpt>
      <trkpt lat="47.7159" lon="-2.73002">
        <ele>102</ele>
        <time>2013-05-02T11:39:33Z</time>
      </trkpt>
      <trkpt lat="47.7159" lon="-2.73006">
        <ele>102</ele>
        <time>2013-05-02T11:39:34Z</time>
      </trkpt>
      <trkpt lat="47.71589" lon="-2.73009">
        <ele>102</ele>
        <time>2013-05-02T11:39:35Z</time>
      </trkpt>
      <trkpt lat="47.71587" lon="-2.73013">
        <ele>102</ele>
        <time>2013-05-02T11:39:36Z</time>
      </trkpt>
      <trkpt lat="47.71584" lon="-2.73017">
        <ele>102</ele>
        <time>2013-05-02T11:39:37Z</time>
      </trkpt>
      <trkpt lat="47.71581" lon="-2.7302">
        <ele>101</ele>
        <time>2013-05-02T11:39:38Z</time>
      </trkpt>
      <trkpt lat="47.71579" lon="-2.73021">
        <ele>101</ele>
        <time>2013-05-02T11:39:39Z</time>
      </trkpt>
      <trkpt lat="47.71577" lon="-2.73021">
        <ele>100</ele>
        <time>2013-05-02T11:39:40Z</time>
      </trkpt>
      <trkpt lat="47.71574" lon="-2.73023">
        <ele>99</ele>
        <time>2013-05-02T11:39:41Z</time>
      </trkpt>
      <trkpt lat="47.71569" lon="-2.73025">
        <ele>99</ele>
        <time>2013-05-02T11:39:42Z</time>
      </trkpt>
      <trkpt lat="47.71565" lon="-2.73028">
        <ele>98</ele>
        <time>2013-05-02T11:39:43Z</time>
      </trkpt>
      <trkpt lat="47.71563" lon="-2.73032">
        <ele>97</ele>
        <time>2013-05-02T11:39:44Z</time>
      </trkpt>
      <trkpt lat="47.71561" lon="-2.73036">
        <ele>96</ele>
        <time>2013-05-02T11:39:45Z</time>
      </trkpt>
      <trkpt lat="47.7156" lon="-2.73041">
        <ele>95</ele>
        <time>2013-05-02T11:39:46Z</time>
      </trkpt>
      <trkpt lat="47.71559" lon="-2.73046">
        <ele>94</ele>
        <time>2013-05-02T11:39:47Z</time>
      </trkpt>
      <trkpt lat="47.71559" lon="-2.73053">
        <ele>93</ele>
        <time>2013-05-02T11:39:48Z</time>
      </trkpt>
      <trkpt lat="47.71559" lon="-2.73058">
        <ele>92</ele>
        <time>2013-05-02T11:39:49Z</time>
      </trkpt>
      <trkpt lat="47.7156" lon="-2.73064">
        <ele>92</ele>
        <time>2013-05-02T11:39:50Z</time>
      </trkpt>
      <trkpt lat="47.71559" lon="-2.73072">
        <ele>91</ele>
        <time>2013-05-02T11:39:51Z</time>
      </trkpt>
      <trkpt lat="47.71559" lon="-2.73079">
        <ele>90</ele>
        <time>2013-05-02T11:39:52Z</time>
      </trkpt>
      <trkpt lat="47.71559" lon="-2.73086">
        <ele>90</ele>
        <time>2013-05-02T11:39:53Z</time>
      </trkpt>
      <trkpt lat="47.71558" lon="-2.73092">
        <ele>89</ele>
        <time>2013-05-02T11:39:54Z</time>
      </trkpt>
      <trkpt lat="47.71557" lon="-2.73098">
        <ele>89</ele>
        <time>2013-05-02T11:39:55Z</time>
      </trkpt>
      <trkpt lat="47.71557" lon="-2.73102">
        <ele>88</ele>
        <time>2013-05-02T11:39:56Z</time>
      </trkpt>
      <trkpt lat="47.71557" lon="-2.73107">
        <ele>87</ele>
        <time>2013-05-02T11:39:57Z</time>
      </trkpt>
      <trkpt lat="47.71558" lon="-2.73111">
        <ele>87</ele>
        <time>2013-05-02T11:39:58Z</time>
      </trkpt>
      <trkpt lat="47.71557" lon="-2.73114">
        <ele>87</ele>
        <time>2013-05-02T11:39:59Z</time>
      </trkpt>
      <trkpt lat="47.71557" lon="-2.73118">
        <ele>87</ele>
        <time>2013-05-02T11:40:00Z</time>
      </trkpt>
      <trkpt lat="47.71557" lon="-2.73124">
        <ele>87</ele>
        <time>2013-05-02T11:40:01Z</time>
      </trkpt>
      <trkpt lat="47.71558" lon="-2.73129">
        <ele>87</ele>
        <time>2013-05-02T11:40:02Z</time>
      </trkpt>
      <trkpt lat="47.71558" lon="-2.73134">
        <ele>87</ele>
        <time>2013-05-02T11:40:03Z</time>
      </trkpt>
      <trkpt lat="47.71559" lon="-2.73138">
        <ele>87</ele>
        <time>2013-05-02T11:40:04Z</time>
      </trkpt>
      <trkpt lat="47.71559" lon="-2.73143">
        <ele>87</ele>
        <time>2013-05-02T11:40:05Z</time>
      </trkpt>
      <trkpt lat="47.7156" lon="-2.73148">
        <ele>87</ele>
        <time>2013-05-02T11:40:06Z</time>
      </trkpt>
      <trkpt lat="47.71561" lon="-2.73152">
        <ele>87</ele>
        <time>2013-05-02T11:40:07Z</time>
      </trkpt>
      <trkpt lat="47.71561" lon="-2.73158">
        <ele>87</ele>
        <time>2013-05-02T11:40:08Z</time>
      </trkpt>
      <trkpt lat="47.71561" lon="-2.73162">
        <ele>87</ele>
        <time>2013-05-02T11:40:09Z</time>
      </trkpt>
      <trkpt lat="47.71563" lon="-2.73167">
        <ele>87</ele>
        <time>2013-05-02T11:40:10Z</time>
      </trkpt>
      <trkpt lat="47.71564" lon="-2.73171">
        <ele>87</ele>
        <time>2013-05-02T11:40:11Z</time>
      </trkpt>
      <trkpt lat="47.71567" lon="-2.73175">
        <ele>87</ele>
        <time>2013-05-02T11:40:12Z</time>
      </trkpt>
      <trkpt lat="47.7157" lon="-2.7318">
        <ele>87</ele>
        <time>2013-05-02T11:40:13Z</time>
      </trkpt>
      <trkpt lat="47.71571" lon="-2.73182">
        <ele>87</ele>
        <time>2013-05-02T11:40:14Z</time>
      </trkpt>
      <trkpt lat="47.71572" lon="-2.73184">
        <ele>87</ele>
        <time>2013-05-02T11:40:15Z</time>
      </trkpt>
      <trkpt lat="47.71574" lon="-2.73187">
        <ele>87</ele>
        <time>2013-05-02T11:40:16Z</time>
      </trkpt>
      <trkpt lat="47.71574" lon="-2.73189">
        <ele>87</ele>
        <time>2013-05-02T11:40:17Z</time>
      </trkpt>
      <trkpt lat="47.71575" lon="-2.73193">
        <ele>87</ele>
        <time>2013-05-02T11:40:18Z</time>
      </trkpt>
      <trkpt lat="47.71576" lon="-2.73198">
        <ele>87</ele>
        <time>2013-05-02T11:40:19Z</time>
      </trkpt>
      <trkpt lat="47.71575" lon="-2.73203">
        <ele>88</ele>
        <time>2013-05-02T11:40:20Z</time>
      </trkpt>
      <trkpt lat="47.71574" lon="-2.73207">
        <ele>88</ele>
        <time>2013-05-02T11:40:21Z</time>
      </trkpt>
      <trkpt lat="47.71573" lon="-2.73211">
        <ele>89</ele>
        <time>2013-05-02T11:40:22Z</time>
      </trkpt>
      <trkpt lat="47.71573" lon="-2.73216">
        <ele>89</ele>
        <time>2013-05-02T11:40:23Z</time>
      </trkpt>
      <trkpt lat="47.71573" lon="-2.7322">
        <ele>89</ele>
        <time>2013-05-02T11:40:24Z</time>
      </trkpt>
      <trkpt lat="47.71574" lon="-2.73224">
        <ele>89</ele>
        <time>2013-05-02T11:40:25Z</time>
      </trkpt>
      <trkpt lat="47.71576" lon="-2.73228">
        <ele>89</ele>
        <time>2013-05-02T11:40:26Z</time>
      </trkpt>
      <trkpt lat="47.71578" lon="-2.73233">
        <ele>89</ele>
        <time>2013-05-02T11:40:27Z</time>
      </trkpt>
      <trkpt lat="47.7158" lon="-2.73237">
        <ele>89</ele>
        <time>2013-05-02T11:40:28Z</time>
      </trkpt>
      <trkpt lat="47.71582" lon="-2.73242">
        <ele>89</ele>
        <time>2013-05-02T11:40:29Z</time>
      </trkpt>
      <trkpt lat="47.71585" lon="-2.73247">
        <ele>89</ele>
        <time>2013-05-02T11:40:30Z</time>
      </trkpt>
      <trkpt lat="47.71586" lon="-2.73253">
        <ele>88</ele>
        <time>2013-05-02T11:40:31Z</time>
      </trkpt>
      <trkpt lat="47.71587" lon="-2.73258">
        <ele>88</ele>
        <time>2013-05-02T11:40:32Z</time>
      </trkpt>
      <trkpt lat="47.71589" lon="-2.73261">
        <ele>88</ele>
        <time>2013-05-02T11:40:33Z</time>
      </trkpt>
      <trkpt lat="47.7159" lon="-2.73265">
        <ele>88</ele>
        <time>2013-05-02T11:40:34Z</time>
      </trkpt>
      <trkpt lat="47.71592" lon="-2.73269">
        <ele>88</ele>
        <time>2013-05-02T11:40:35Z</time>
      </trkpt>
      <trkpt lat="47.71593" lon="-2.73274">
        <ele>88</ele>
        <time>2013-05-02T11:40:36Z</time>
      </trkpt>
      <trkpt lat="47.71594" lon="-2.73278">
        <ele>88</ele>
        <time>2013-05-02T11:40:37Z</time>
      </trkpt>
      <trkpt lat="47.71596" lon="-2.73283">
        <ele>87</ele>
        <time>2013-05-02T11:40:38Z</time>
      </trkpt>
      <trkpt lat="47.71596" lon="-2.73287">
        <ele>86</ele>
        <time>2013-05-02T11:40:39Z</time>
      </trkpt>
      <trkpt lat="47.71598" lon="-2.73291">
        <ele>85</ele>
        <time>2013-05-02T11:40:40Z</time>
      </trkpt>
      <trkpt lat="47.716" lon="-2.73296">
        <ele>84</ele>
        <time>2013-05-02T11:40:41Z</time>
      </trkpt>
      <trkpt lat="47.71601" lon="-2.733">
        <ele>83</ele>
        <time>2013-05-02T11:40:42Z</time>
      </trkpt>
      <trkpt lat="47.71602" lon="-2.73305">
        <ele>83</ele>
        <time>2013-05-02T11:40:43Z</time>
      </trkpt>
      <trkpt lat="47.71603" lon="-2.73309">
        <ele>83</ele>
        <time>2013-05-02T11:40:44Z</time>
      </trkpt>
      <trkpt lat="47.71604" lon="-2.73314">
        <ele>83</ele>
        <time>2013-05-02T11:40:45Z</time>
      </trkpt>
      <trkpt lat="47.71606" lon="-2.73318">
        <ele>83</ele>
        <time>2013-05-02T11:40:46Z</time>
      </trkpt>
      <trkpt lat="47.71608" lon="-2.7332">
        <ele>82</ele>
        <time>2013-05-02T11:40:47Z</time>
      </trkpt>
      <trkpt lat="47.71611" lon="-2.73321">
        <ele>82</ele>
        <time>2013-05-02T11:40:48Z</time>
      </trkpt>
      <trkpt lat="47.71614" lon="-2.7332">
        <ele>82</ele>
        <time>2013-05-02T11:40:49Z</time>
      </trkpt>
      <trkpt lat="47.71616" lon="-2.73319">
        <ele>82</ele>
        <time>2013-05-02T11:40:50Z</time>
      </trkpt>
      <trkpt lat="47.71619" lon="-2.73318">
        <ele>82</ele>
        <time>2013-05-02T11:40:51Z</time>
      </trkpt>
      <trkpt lat="47.71621" lon="-2.73316">
        <ele>82</ele>
        <time>2013-05-02T11:40:52Z</time>
      </trkpt>
      <trkpt lat="47.71623" lon="-2.73315">
        <ele>82</ele>
        <time>2013-05-02T11:40:53Z</time>
      </trkpt>
      <trkpt lat="47.71625" lon="-2.73315">
        <ele>82</ele>
        <time>2013-05-02T11:40:54Z</time>
      </trkpt>
      <trkpt lat="47.71627" lon="-2.73315">
        <ele>82</ele>
        <time>2013-05-02T11:40:55Z</time>
      </trkpt>
      <trkpt lat="47.71629" lon="-2.73313">
        <ele>82</ele>
        <time>2013-05-02T11:40:56Z</time>
      </trkpt>
      <trkpt lat="47.7163" lon="-2.73311">
        <ele>82</ele>
        <time>2013-05-02T11:40:57Z</time>
      </trkpt>
      <trkpt lat="47.71631" lon="-2.7331">
        <ele>82</ele>
        <time>2013-05-02T11:40:58Z</time>
      </trkpt>
      <trkpt lat="47.71633" lon="-2.73307">
        <ele>82</ele>
        <time>2013-05-02T11:40:59Z</time>
      </trkpt>
      <trkpt lat="47.71634" lon="-2.73304">
        <ele>82</ele>
        <time>2013-05-02T11:41:00Z</time>
      </trkpt>
      <trkpt lat="47.71634" lon="-2.733">
        <ele>82</ele>
        <time>2013-05-02T11:41:01Z</time>
      </trkpt>
      <trkpt lat="47.71635" lon="-2.73297">
        <ele>83</ele>
        <time>2013-05-02T11:41:02Z</time>
      </trkpt>
      <trkpt lat="47.71635" lon="-2.73295">
        <ele>84</ele>
        <time>2013-05-02T11:41:03Z</time>
      </trkpt>
      <trkpt lat="47.71636" lon="-2.73292">
        <ele>85</ele>
        <time>2013-05-02T11:41:04Z</time>
      </trkpt>
      <trkpt lat="47.71637" lon="-2.7329">
        <ele>86</ele>
        <time>2013-05-02T11:41:05Z</time>
      </trkpt>
      <trkpt lat="47.71637" lon="-2.73287">
        <ele>87</ele>
        <time>2013-05-02T11:41:06Z</time>
      </trkpt>
      <trkpt lat="47.71637" lon="-2.73284">
        <ele>88</ele>
        <time>2013-05-02T11:41:07Z</time>
      </trkpt>
      <trkpt lat="47.71636" lon="-2.73281">
        <ele>89</ele>
        <time>2013-05-02T11:41:08Z</time>
      </trkpt>
      <trkpt lat="47.71636" lon="-2.73277">
        <ele>90</ele>
        <time>2013-05-02T11:41:09Z</time>
      </trkpt>
      <trkpt lat="47.71637" lon="-2.73273">
        <ele>91</ele>
        <time>2013-05-02T11:41:10Z</time>
      </trkpt>
      <trkpt lat="47.71637" lon="-2.7327">
        <ele>92</ele>
        <time>2013-05-02T11:41:11Z</time>
      </trkpt>
      <trkpt lat="47.71638" lon="-2.73266">
        <ele>93</ele>
        <time>2013-05-02T11:41:12Z</time>
      </trkpt>
      <trkpt lat="47.71638" lon="-2.73263">
        <ele>94</ele>
        <time>2013-05-02T11:41:13Z</time>
      </trkpt>
      <trkpt lat="47.7164" lon="-2.73258">
        <ele>94</ele>
        <time>2013-05-02T11:41:14Z</time>
      </trkpt>
      <trkpt lat="47.71641" lon="-2.73255">
        <ele>95</ele>
        <time>2013-05-02T11:41:15Z</time>
      </trkpt>
      <trkpt lat="47.71642" lon="-2.73251">
        <ele>96</ele>
        <time>2013-05-02T11:41:16Z</time>
      </trkpt>
      <trkpt lat="47.71643" lon="-2.73248">
        <ele>97</ele>
        <time>2013-05-02T11:41:17Z</time>
      </trkpt>
      <trkpt lat="47.71643" lon="-2.73245">
        <ele>98</ele>
        <time>2013-05-02T11:41:18Z</time>
      </trkpt>
      <trkpt lat="47.71643" lon="-2.73242">
        <ele>98</ele>
        <time>2013-05-02T11:41:19Z</time>
      </trkpt>
      <trkpt lat="47.71643" lon="-2.73238">
        <ele>99</ele>
        <time>2013-05-02T11:41:20Z</time>
      </trkpt>
      <trkpt lat="47.71643" lon="-2.73235">
        <ele>100</ele>
        <time>2013-05-02T11:41:21Z</time>
      </trkpt>
      <trkpt lat="47.71643" lon="-2.73233">
        <ele>100</ele>
        <time>2013-05-02T11:41:22Z</time>
      </trkpt>
      <trkpt lat="47.71644" lon="-2.7323">
        <ele>101</ele>
        <time>2013-05-02T11:41:23Z</time>
      </trkpt>
      <trkpt lat="47.71644" lon="-2.73228">
        <ele>102</ele>
        <time>2013-05-02T11:41:24Z</time>
      </trkpt>
      <trkpt lat="47.71644" lon="-2.73226">
        <ele>102</ele>
        <time>2013-05-02T11:41:25Z</time>
      </trkpt>
      <trkpt lat="47.71644" lon="-2.73223">
        <ele>103</ele>
        <time>2013-05-02T11:41:26Z</time>
      </trkpt>
      <trkpt lat="47.71645" lon="-2.73221">
        <ele>103</ele>
        <time>2013-05-02T11:41:27Z</time>
      </trkpt>
      <trkpt lat="47.71646" lon="-2.73219">
        <ele>103</ele>
        <time>2013-05-02T11:41:28Z</time>
      </trkpt>
      <trkpt lat="47.71648" lon="-2.73218">
        <ele>103</ele>
        <time>2013-05-02T11:41:29Z</time>
      </trkpt>
      <trkpt lat="47.7165" lon="-2.73217">
        <ele>103</ele>
        <time>2013-05-02T11:41:30Z</time>
      </trkpt>
      <trkpt lat="47.71651" lon="-2.73218">
        <ele>103</ele>
        <time>2013-05-02T11:41:31Z</time>
      </trkpt>
      <trkpt lat="47.71653" lon="-2.73218">
        <ele>103</ele>
        <time>2013-05-02T11:41:32Z</time>
      </trkpt>
      <trkpt lat="47.71654" lon="-2.73217">
        <ele>103</ele>
        <time>2013-05-02T11:41:33Z</time>
      </trkpt>
      <trkpt lat="47.71656" lon="-2.73216">
        <ele>103</ele>
        <time>2013-05-02T11:41:34Z</time>
      </trkpt>
      <trkpt lat="47.71657" lon="-2.73214">
        <ele>104</ele>
        <time>2013-05-02T11:41:35Z</time>
      </trkpt>
      <trkpt lat="47.71658" lon="-2.73211">
        <ele>104</ele>
        <time>2013-05-02T11:41:36Z</time>
      </trkpt>
      <trkpt lat="47.71659" lon="-2.73208">
        <ele>104</ele>
        <time>2013-05-02T11:41:37Z</time>
      </trkpt>
      <trkpt lat="47.7166" lon="-2.73205">
        <ele>105</ele>
        <time>2013-05-02T11:41:38Z</time>
      </trkpt>
      <trkpt lat="47.7166" lon="-2.73202">
        <ele>105</ele>
        <time>2013-05-02T11:41:39Z</time>
      </trkpt>
      <trkpt lat="47.7166" lon="-2.732">
        <ele>105</ele>
        <time>2013-05-02T11:41:40Z</time>
      </trkpt>
      <trkpt lat="47.7166" lon="-2.73197">
        <ele>105</ele>
        <time>2013-05-02T11:41:41Z</time>
      </trkpt>
      <trkpt lat="47.71661" lon="-2.73195">
        <ele>106</ele>
        <time>2013-05-02T11:41:42Z</time>
      </trkpt>
      <trkpt lat="47.71663" lon="-2.73194">
        <ele>106</ele>
        <time>2013-05-02T11:41:43Z</time>
      </trkpt>
      <trkpt lat="47.71664" lon="-2.73193">
        <ele>106</ele>
        <time>2013-05-02T11:41:44Z</time>
      </trkpt>
      <trkpt lat="47.71666" lon="-2.73193">
        <ele>106</ele>
        <time>2013-05-02T11:41:45Z</time>
      </trkpt>
      <trkpt lat="47.71667" lon="-2.73193">
        <ele>106</ele>
        <time>2013-05-02T11:41:46Z</time>
      </trkpt>
      <trkpt lat="47.71669" lon="-2.73193">
        <ele>106</ele>
        <time>2013-05-02T11:41:47Z</time>
      </trkpt>
      <trkpt lat="47.7167" lon="-2.73193">
        <ele>106</ele>
        <time>2013-05-02T11:41:48Z</time>
      </trkpt>
      <trkpt lat="47.71672" lon="-2.73192">
        <ele>106</ele>
        <time>2013-05-02T11:41:50Z</time>
      </trkpt>
      <trkpt lat="47.71672" lon="-2.7319">
        <ele>106</ele>
        <time>2013-05-02T11:41:52Z</time>
      </trkpt>
      <trkpt lat="47.71674" lon="-2.73187">
        <ele>106</ele>
        <time>2013-05-02T11:41:53Z</time>
      </trkpt>
      <trkpt lat="47.71675" lon="-2.73185">
        <ele>106</ele>
        <time>2013-05-02T11:41:54Z</time>
      </trkpt>
      <trkpt lat="47.71675" lon="-2.73183">
        <ele>106</ele>
        <time>2013-05-02T11:41:55Z</time>
      </trkpt>
      <trkpt lat="47.71676" lon="-2.7318">
        <ele>107</ele>
        <time>2013-05-02T11:41:56Z</time>
      </trkpt>
      <trkpt lat="47.71676" lon="-2.73178">
        <ele>107</ele>
        <time>2013-05-02T11:41:57Z</time>
      </trkpt>
      <trkpt lat="47.71676" lon="-2.73176">
        <ele>108</ele>
        <time>2013-05-02T11:41:58Z</time>
      </trkpt>
      <trkpt lat="47.71677" lon="-2.73172">
        <ele>109</ele>
        <time>2013-05-02T11:42:00Z</time>
      </trkpt>
      <trkpt lat="47.71678" lon="-2.7317">
        <ele>110</ele>
        <time>2013-05-02T11:42:01Z</time>
      </trkpt>
      <trkpt lat="47.71679" lon="-2.73168">
        <ele>110</ele>
        <time>2013-05-02T11:42:02Z</time>
      </trkpt>
      <trkpt lat="47.71681" lon="-2.73168">
        <ele>110</ele>
        <time>2013-05-02T11:42:03Z</time>
      </trkpt>
      <trkpt lat="47.71683" lon="-2.73168">
        <ele>111</ele>
        <time>2013-05-02T11:42:04Z</time>
      </trkpt>
      <trkpt lat="47.71685" lon="-2.73167">
        <ele>112</ele>
        <time>2013-05-02T11:42:05Z</time>
      </trkpt>
      <trkpt lat="47.71687" lon="-2.73167">
        <ele>112</ele>
        <time>2013-05-02T11:42:06Z</time>
      </trkpt>
      <trkpt lat="47.71688" lon="-2.73167">
        <ele>112</ele>
        <time>2013-05-02T11:42:07Z</time>
      </trkpt>
      <trkpt lat="47.7169" lon="-2.73167">
        <ele>113</ele>
        <time>2013-05-02T11:42:08Z</time>
      </trkpt>
      <trkpt lat="47.71692" lon="-2.73168">
        <ele>113</ele>
        <time>2013-05-02T11:42:10Z</time>
      </trkpt>
      <trkpt lat="47.71693" lon="-2.7317">
        <ele>113</ele>
        <time>2013-05-02T11:42:11Z</time>
      </trkpt>
      <trkpt lat="47.71694" lon="-2.73172">
        <ele>113</ele>
        <time>2013-05-02T11:42:12Z</time>
      </trkpt>
      <trkpt lat="47.71695" lon="-2.73175">
        <ele>113</ele>
        <time>2013-05-02T11:42:13Z</time>
      </trkpt>
      <trkpt lat="47.71697" lon="-2.73177">
        <ele>113</ele>
        <time>2013-05-02T11:42:14Z</time>
      </trkpt>
      <trkpt lat="47.71698" lon="-2.7318">
        <ele>113</ele>
        <time>2013-05-02T11:42:15Z</time>
      </trkpt>
      <trkpt lat="47.717" lon="-2.73181">
        <ele>113</ele>
        <time>2013-05-02T11:42:16Z</time>
      </trkpt>
      <trkpt lat="47.71701" lon="-2.73182">
        <ele>113</ele>
        <time>2013-05-02T11:42:17Z</time>
      </trkpt>
      <trkpt lat="47.71704" lon="-2.73183">
        <ele>113</ele>
        <time>2013-05-02T11:42:18Z</time>
      </trkpt>
      <trkpt lat="47.71706" lon="-2.73183">
        <ele>113</ele>
        <time>2013-05-02T11:42:19Z</time>
      </trkpt>
      <trkpt lat="47.71707" lon="-2.73184">
        <ele>113</ele>
        <time>2013-05-02T11:42:20Z</time>
      </trkpt>
      <trkpt lat="47.71708" lon="-2.73185">
        <ele>113</ele>
        <time>2013-05-02T11:42:21Z</time>
      </trkpt>
      <trkpt lat="47.71711" lon="-2.73185">
        <ele>113</ele>
        <time>2013-05-02T11:42:22Z</time>
      </trkpt>
      <trkpt lat="47.71714" lon="-2.73184">
        <ele>113</ele>
        <time>2013-05-02T11:42:23Z</time>
      </trkpt>
      <trkpt lat="47.71716" lon="-2.73184">
        <ele>113</ele>
        <time>2013-05-02T11:42:24Z</time>
      </trkpt>
      <trkpt lat="47.71718" lon="-2.73184">
        <ele>113</ele>
        <time>2013-05-02T11:42:25Z</time>
      </trkpt>
      <trkpt lat="47.7172" lon="-2.73183">
        <ele>113</ele>
        <time>2013-05-02T11:42:27Z</time>
      </trkpt>
      <trkpt lat="47.71721" lon="-2.73184">
        <ele>113</ele>
        <time>2013-05-02T11:42:28Z</time>
      </trkpt>
      <trkpt lat="47.71722" lon="-2.73186">
        <ele>113</ele>
        <time>2013-05-02T11:42:29Z</time>
      </trkpt>
      <trkpt lat="47.71724" lon="-2.73188">
        <ele>113</ele>
        <time>2013-05-02T11:42:30Z</time>
      </trkpt>
      <trkpt lat="47.71725" lon="-2.73191">
        <ele>113</ele>
        <time>2013-05-02T11:42:31Z</time>
      </trkpt>
      <trkpt lat="47.71727" lon="-2.73194">
        <ele>113</ele>
        <time>2013-05-02T11:42:32Z</time>
      </trkpt>
      <trkpt lat="47.71727" lon="-2.73197">
        <ele>112</ele>
        <time>2013-05-02T11:42:33Z</time>
      </trkpt>
      <trkpt lat="47.71727" lon="-2.73201">
        <ele>112</ele>
        <time>2013-05-02T11:42:34Z</time>
      </trkpt>
      <trkpt lat="47.71728" lon="-2.73206">
        <ele>112</ele>
        <time>2013-05-02T11:42:35Z</time>
      </trkpt>
      <trkpt lat="47.7173" lon="-2.7321">
        <ele>112</ele>
        <time>2013-05-02T11:42:36Z</time>
      </trkpt>
      <trkpt lat="47.7173" lon="-2.73215">
        <ele>111</ele>
        <time>2013-05-02T11:42:37Z</time>
      </trkpt>
      <trkpt lat="47.71731" lon="-2.73219">
        <ele>111</ele>
        <time>2013-05-02T11:42:38Z</time>
      </trkpt>
      <trkpt lat="47.71732" lon="-2.73224">
        <ele>110</ele>
        <time>2013-05-02T11:42:39Z</time>
      </trkpt>
      <trkpt lat="47.71734" lon="-2.73228">
        <ele>110</ele>
        <time>2013-05-02T11:42:40Z</time>
      </trkpt>
      <trkpt lat="47.71735" lon="-2.73232">
        <ele>109</ele>
        <time>2013-05-02T11:42:41Z</time>
      </trkpt>
      <trkpt lat="47.71735" lon="-2.73235">
        <ele>108</ele>
        <time>2013-05-02T11:42:42Z</time>
      </trkpt>
      <trkpt lat="47.71736" lon="-2.73238">
        <ele>108</ele>
        <time>2013-05-02T11:42:43Z</time>
      </trkpt>
      <trkpt lat="47.71736" lon="-2.7324">
        <ele>107</ele>
        <time>2013-05-02T11:42:44Z</time>
      </trkpt>
      <trkpt lat="47.71737" lon="-2.73244">
        <ele>107</ele>
        <time>2013-05-02T11:42:45Z</time>
      </trkpt>
      <trkpt lat="47.71738" lon="-2.73247">
        <ele>107</ele>
        <time>2013-05-02T11:42:46Z</time>
      </trkpt>
      <trkpt lat="47.7174" lon="-2.73252">
        <ele>107</ele>
        <time>2013-05-02T11:42:47Z</time>
      </trkpt>
      <trkpt lat="47.71741" lon="-2.73255">
        <ele>107</ele>
        <time>2013-05-02T11:42:48Z</time>
      </trkpt>
      <trkpt lat="47.71742" lon="-2.73259">
        <ele>107</ele>
        <time>2013-05-02T11:42:49Z</time>
      </trkpt>
      <trkpt lat="47.71744" lon="-2.73262">
        <ele>107</ele>
        <time>2013-05-02T11:42:50Z</time>
      </trkpt>
      <trkpt lat="47.71746" lon="-2.73264">
        <ele>107</ele>
        <time>2013-05-02T11:42:51Z</time>
      </trkpt>
      <trkpt lat="47.71749" lon="-2.73267">
        <ele>107</ele>
        <time>2013-05-02T11:42:52Z</time>
      </trkpt>
      <trkpt lat="47.71751" lon="-2.73271">
        <ele>107</ele>
        <time>2013-05-02T11:42:53Z</time>
      </trkpt>
      <trkpt lat="47.71754" lon="-2.73274">
        <ele>107</ele>
        <time>2013-05-02T11:42:54Z</time>
      </trkpt>
      <trkpt lat="47.71756" lon="-2.73278">
        <ele>107</ele>
        <time>2013-05-02T11:42:55Z</time>
      </trkpt>
      <trkpt lat="47.71759" lon="-2.73281">
        <ele>107</ele>
        <time>2013-05-02T11:42:56Z</time>
      </trkpt>
      <trkpt lat="47.71762" lon="-2.73283">
        <ele>107</ele>
        <time>2013-05-02T11:42:57Z</time>
      </trkpt>
      <trkpt lat="47.71765" lon="-2.73285">
        <ele>107</ele>
        <time>2013-05-02T11:42:58Z</time>
      </trkpt>
      <trkpt lat="47.71768" lon="-2.73287">
        <ele>107</ele>
        <time>2013-05-02T11:42:59Z</time>
      </trkpt>
      <trkpt lat="47.71769" lon="-2.7329">
        <ele>107</ele>
        <time>2013-05-02T11:43:00Z</time>
      </trkpt>
      <trkpt lat="47.71771" lon="-2.73294">
        <ele>107</ele>
        <time>2013-05-02T11:43:01Z</time>
      </trkpt>
      <trkpt lat="47.71773" lon="-2.73299">
        <ele>107</ele>
        <time>2013-05-02T11:43:02Z</time>
      </trkpt>
      <trkpt lat="47.71775" lon="-2.73303">
        <ele>107</ele>
        <time>2013-05-02T11:43:03Z</time>
      </trkpt>
      <trkpt lat="47.71777" lon="-2.73307">
        <ele>107</ele>
        <time>2013-05-02T11:43:04Z</time>
      </trkpt>
      <trkpt lat="47.7178" lon="-2.73311">
        <ele>107</ele>
        <time>2013-05-02T11:43:05Z</time>
      </trkpt>
      <trkpt lat="47.71783" lon="-2.73316">
        <ele>107</ele>
        <time>2013-05-02T11:43:06Z</time>
      </trkpt>
      <trkpt lat="47.71785" lon="-2.7332">
        <ele>107</ele>
        <time>2013-05-02T11:43:07Z</time>
      </trkpt>
      <trkpt lat="47.71787" lon="-2.73325">
        <ele>107</ele>
        <time>2013-05-02T11:43:08Z</time>
      </trkpt>
      <trkpt lat="47.71789" lon="-2.73329">
        <ele>107</ele>
        <time>2013-05-02T11:43:09Z</time>
      </trkpt>
      <trkpt lat="47.7179" lon="-2.73334">
        <ele>107</ele>
        <time>2013-05-02T11:43:10Z</time>
      </trkpt>
      <trkpt lat="47.7179" lon="-2.7334">
        <ele>107</ele>
        <time>2013-05-02T11:43:11Z</time>
      </trkpt>
      <trkpt lat="47.7179" lon="-2.73344">
        <ele>107</ele>
        <time>2013-05-02T11:43:12Z</time>
      </trkpt>
      <trkpt lat="47.7179" lon="-2.73348">
        <ele>107</ele>
        <time>2013-05-02T11:43:13Z</time>
      </trkpt>
      <trkpt lat="47.71791" lon="-2.73352">
        <ele>107</ele>
        <time>2013-05-02T11:43:14Z</time>
      </trkpt>
      <trkpt lat="47.71793" lon="-2.73353">
        <ele>107</ele>
        <time>2013-05-02T11:43:15Z</time>
      </trkpt>
      <trkpt lat="47.71796" lon="-2.73354">
        <ele>107</ele>
        <time>2013-05-02T11:43:16Z</time>
      </trkpt>
      <trkpt lat="47.71797" lon="-2.73357">
        <ele>107</ele>
        <time>2013-05-02T11:43:17Z</time>
      </trkpt>
      <trkpt lat="47.71798" lon="-2.73361">
        <ele>107</ele>
        <time>2013-05-02T11:43:18Z</time>
      </trkpt>
      <trkpt lat="47.718" lon="-2.73365">
        <ele>107</ele>
        <time>2013-05-02T11:43:19Z</time>
      </trkpt>
      <trkpt lat="47.71802" lon="-2.73368">
        <ele>107</ele>
        <time>2013-05-02T11:43:20Z</time>
      </trkpt>
      <trkpt lat="47.71806" lon="-2.73369">
        <ele>107</ele>
        <time>2013-05-02T11:43:21Z</time>
      </trkpt>
      <trkpt lat="47.71809" lon="-2.7337">
        <ele>107</ele>
        <time>2013-05-02T11:43:22Z</time>
      </trkpt>
      <trkpt lat="47.71812" lon="-2.7337">
        <ele>107</ele>
        <time>2013-05-02T11:43:23Z</time>
      </trkpt>
      <trkpt lat="47.71815" lon="-2.7337">
        <ele>107</ele>
        <time>2013-05-02T11:43:24Z</time>
      </trkpt>
      <trkpt lat="47.71818" lon="-2.73372">
        <ele>107</ele>
        <time>2013-05-02T11:43:25Z</time>
      </trkpt>
      <trkpt lat="47.7182" lon="-2.73373">
        <ele>107</ele>
        <time>2013-05-02T11:43:26Z</time>
      </trkpt>
      <trkpt lat="47.71822" lon="-2.73375">
        <ele>107</ele>
        <time>2013-05-02T11:43:27Z</time>
      </trkpt>
      <trkpt lat="47.71823" lon="-2.73378">
        <ele>107</ele>
        <time>2013-05-02T11:43:28Z</time>
      </trkpt>
      <trkpt lat="47.71825" lon="-2.73379">
        <ele>107</ele>
        <time>2013-05-02T11:43:29Z</time>
      </trkpt>
      <trkpt lat="47.71827" lon="-2.7338">
        <ele>107</ele>
        <time>2013-05-02T11:43:30Z</time>
      </trkpt>
      <trkpt lat="47.71828" lon="-2.73381">
        <ele>107</ele>
        <time>2013-05-02T11:43:31Z</time>
      </trkpt>
      <trkpt lat="47.7183" lon="-2.73381">
        <ele>107</ele>
        <time>2013-05-02T11:43:32Z</time>
      </trkpt>
      <trkpt lat="47.71833" lon="-2.73381">
        <ele>107</ele>
        <time>2013-05-02T11:43:34Z</time>
      </trkpt>
      <trkpt lat="47.71834" lon="-2.7338">
        <ele>107</ele>
        <time>2013-05-02T11:43:35Z</time>
      </trkpt>
      <trkpt lat="47.71836" lon="-2.73379">
        <ele>107</ele>
        <time>2013-05-02T11:43:36Z</time>
      </trkpt>
      <trkpt lat="47.71839" lon="-2.73378">
        <ele>107</ele>
        <time>2013-05-02T11:43:37Z</time>
      </trkpt>
      <trkpt lat="47.71841" lon="-2.73377">
        <ele>107</ele>
        <time>2013-05-02T11:43:38Z</time>
      </trkpt>
      <trkpt lat="47.71843" lon="-2.73375">
        <ele>107</ele>
        <time>2013-05-02T11:43:39Z</time>
      </trkpt>
      <trkpt lat="47.71845" lon="-2.73374">
        <ele>107</ele>
        <time>2013-05-02T11:43:40Z</time>
      </trkpt>
      <trkpt lat="47.71846" lon="-2.73372">
        <ele>107</ele>
        <time>2013-05-02T11:43:41Z</time>
      </trkpt>
      <trkpt lat="47.71846" lon="-2.7337">
        <ele>107</ele>
        <time>2013-05-02T11:43:42Z</time>
      </trkpt>
      <trkpt lat="47.71848" lon="-2.73369">
        <ele>107</ele>
        <time>2013-05-02T11:43:43Z</time>
      </trkpt>
      <trkpt lat="47.71849" lon="-2.73369">
        <ele>107</ele>
        <time>2013-05-02T11:43:45Z</time>
      </trkpt>
      <trkpt lat="47.71851" lon="-2.73372">
        <ele>107</ele>
        <time>2013-05-02T11:43:47Z</time>
      </trkpt>
      <trkpt lat="47.71852" lon="-2.73374">
        <ele>107</ele>
        <time>2013-05-02T11:43:48Z</time>
      </trkpt>
      <trkpt lat="47.71854" lon="-2.73376">
        <ele>107</ele>
        <time>2013-05-02T11:43:50Z</time>
      </trkpt>
      <trkpt lat="47.71854" lon="-2.73377">
        <ele>107</ele>
        <time>2013-05-02T11:43:53Z</time>
      </trkpt>
      <trkpt lat="47.71862" lon="-2.73384">
        <ele>107</ele>
        <time>2013-05-02T11:43:54Z</time>
      </trkpt>
      <trkpt lat="47.71863" lon="-2.73383">
        <ele>107</ele>
        <time>2013-05-02T11:43:55Z</time>
      </trkpt>
      <trkpt lat="47.71865" lon="-2.73382">
        <ele>107</ele>
        <time>2013-05-02T11:43:56Z</time>
      </trkpt>
      <trkpt lat="47.71868" lon="-2.73381">
        <ele>107</ele>
        <time>2013-05-02T11:43:57Z</time>
      </trkpt>
      <trkpt lat="47.7187" lon="-2.7338">
        <ele>108</ele>
        <time>2013-05-02T11:43:58Z</time>
      </trkpt>
      <trkpt lat="47.71872" lon="-2.73379">
        <ele>108</ele>
        <time>2013-05-02T11:43:59Z</time>
      </trkpt>
      <trkpt lat="47.71874" lon="-2.73379">
        <ele>108</ele>
        <time>2013-05-02T11:44:00Z</time>
      </trkpt>
      <trkpt lat="47.71875" lon="-2.73379">
        <ele>108</ele>
        <time>2013-05-02T11:44:01Z</time>
      </trkpt>
      <trkpt lat="47.71877" lon="-2.7338">
        <ele>108</ele>
        <time>2013-05-02T11:44:02Z</time>
      </trkpt>
      <trkpt lat="47.71879" lon="-2.7338">
        <ele>108</ele>
        <time>2013-05-02T11:44:03Z</time>
      </trkpt>
      <trkpt lat="47.71881" lon="-2.73381">
        <ele>108</ele>
        <time>2013-05-02T11:44:04Z</time>
      </trkpt>
      <trkpt lat="47.71883" lon="-2.73382">
        <ele>108</ele>
        <time>2013-05-02T11:44:05Z</time>
      </trkpt>
      <trkpt lat="47.71886" lon="-2.73384">
        <ele>108</ele>
        <time>2013-05-02T11:44:06Z</time>
      </trkpt>
      <trkpt lat="47.71888" lon="-2.73385">
        <ele>108</ele>
        <time>2013-05-02T11:44:07Z</time>
      </trkpt>
      <trkpt lat="47.71891" lon="-2.73386">
        <ele>108</ele>
        <time>2013-05-02T11:44:08Z</time>
      </trkpt>
      <trkpt lat="47.71893" lon="-2.73387">
        <ele>108</ele>
        <time>2013-05-02T11:44:09Z</time>
      </trkpt>
      <trkpt lat="47.71896" lon="-2.73388">
        <ele>108</ele>
        <time>2013-05-02T11:44:10Z</time>
      </trkpt>
      <trkpt lat="47.71899" lon="-2.7339">
        <ele>108</ele>
        <time>2013-05-02T11:44:11Z</time>
      </trkpt>
      <trkpt lat="47.71901" lon="-2.73392">
        <ele>108</ele>
        <time>2013-05-02T11:44:12Z</time>
      </trkpt>
      <trkpt lat="47.71902" lon="-2.73395">
        <ele>108</ele>
        <time>2013-05-02T11:44:13Z</time>
      </trkpt>
      <trkpt lat="47.71902" lon="-2.73398">
        <ele>108</ele>
        <time>2013-05-02T11:44:14Z</time>
      </trkpt>
      <trkpt lat="47.71901" lon="-2.73402">
        <ele>108</ele>
        <time>2013-05-02T11:44:15Z</time>
      </trkpt>
      <trkpt lat="47.71899" lon="-2.73405">
        <ele>108</ele>
        <time>2013-05-02T11:44:16Z</time>
      </trkpt>
      <trkpt lat="47.71896" lon="-2.73407">
        <ele>108</ele>
        <time>2013-05-02T11:44:17Z</time>
      </trkpt>
      <trkpt lat="47.71894" lon="-2.73407">
        <ele>107</ele>
        <time>2013-05-02T11:44:18Z</time>
      </trkpt>
      <trkpt lat="47.71892" lon="-2.73406">
        <ele>106</ele>
        <time>2013-05-02T11:44:19Z</time>
      </trkpt>
      <trkpt lat="47.7189" lon="-2.73406">
        <ele>106</ele>
        <time>2013-05-02T11:44:20Z</time>
      </trkpt>
      <trkpt lat="47.71888" lon="-2.73405">
        <ele>106</ele>
        <time>2013-05-02T11:44:21Z</time>
      </trkpt>
      <trkpt lat="47.71886" lon="-2.73406">
        <ele>106</ele>
        <time>2013-05-02T11:44:22Z</time>
      </trkpt>
      <trkpt lat="47.71884" lon="-2.73407">
        <ele>106</ele>
        <time>2013-05-02T11:44:23Z</time>
      </trkpt>
      <trkpt lat="47.71881" lon="-2.73408">
        <ele>106</ele>
        <time>2013-05-02T11:44:24Z</time>
      </trkpt>
      <trkpt lat="47.71878" lon="-2.7341">
        <ele>106</ele>
        <time>2013-05-02T11:44:25Z</time>
      </trkpt>
      <trkpt lat="47.71875" lon="-2.73411">
        <ele>106</ele>
        <time>2013-05-02T11:44:26Z</time>
      </trkpt>
      <trkpt lat="47.71873" lon="-2.73412">
        <ele>106</ele>
        <time>2013-05-02T11:44:27Z</time>
      </trkpt>
      <trkpt lat="47.7187" lon="-2.73414">
        <ele>106</ele>
        <time>2013-05-02T11:44:28Z</time>
      </trkpt>
      <trkpt lat="47.71868" lon="-2.73418">
        <ele>106</ele>
        <time>2013-05-02T11:44:29Z</time>
      </trkpt>
      <trkpt lat="47.71864" lon="-2.73421">
        <ele>106</ele>
        <time>2013-05-02T11:44:30Z</time>
      </trkpt>
      <trkpt lat="47.7186" lon="-2.73423">
        <ele>106</ele>
        <time>2013-05-02T11:44:31Z</time>
      </trkpt>
      <trkpt lat="47.71857" lon="-2.73425">
        <ele>106</ele>
        <time>2013-05-02T11:44:32Z</time>
      </trkpt>
      <trkpt lat="47.71854" lon="-2.73425">
        <ele>106</ele>
        <time>2013-05-02T11:44:33Z</time>
      </trkpt>
      <trkpt lat="47.7185" lon="-2.73424">
        <ele>106</ele>
        <time>2013-05-02T11:44:34Z</time>
      </trkpt>
      <trkpt lat="47.71847" lon="-2.73423">
        <ele>106</ele>
        <time>2013-05-02T11:44:35Z</time>
      </trkpt>
      <trkpt lat="47.71845" lon="-2.73423">
        <ele>106</ele>
        <time>2013-05-02T11:44:36Z</time>
      </trkpt>
      <trkpt lat="47.71841" lon="-2.73423">
        <ele>106</ele>
        <time>2013-05-02T11:44:37Z</time>
      </trkpt>
      <trkpt lat="47.71838" lon="-2.73424">
        <ele>106</ele>
        <time>2013-05-02T11:44:38Z</time>
      </trkpt>
      <trkpt lat="47.71835" lon="-2.73425">
        <ele>106</ele>
        <time>2013-05-02T11:44:39Z</time>
      </trkpt>
      <trkpt lat="47.71831" lon="-2.73426">
        <ele>106</ele>
        <time>2013-05-02T11:44:40Z</time>
      </trkpt>
      <trkpt lat="47.71827" lon="-2.73428">
        <ele>106</ele>
        <time>2013-05-02T11:44:41Z</time>
      </trkpt>
      <trkpt lat="47.71822" lon="-2.73429">
        <ele>106</ele>
        <time>2013-05-02T11:44:42Z</time>
      </trkpt>
      <trkpt lat="47.71819" lon="-2.73433">
        <ele>106</ele>
        <time>2013-05-02T11:44:43Z</time>
      </trkpt>
      <trkpt lat="47.71815" lon="-2.73436">
        <ele>106</ele>
        <time>2013-05-02T11:44:44Z</time>
      </trkpt>
      <trkpt lat="47.71812" lon="-2.7344">
        <ele>106</ele>
        <time>2013-05-02T11:44:45Z</time>
      </trkpt>
      <trkpt lat="47.71807" lon="-2.73444">
        <ele>106</ele>
        <time>2013-05-02T11:44:46Z</time>
      </trkpt>
      <trkpt lat="47.71803" lon="-2.73446">
        <ele>106</ele>
        <time>2013-05-02T11:44:47Z</time>
      </trkpt>
      <trkpt lat="47.71799" lon="-2.73447">
        <ele>106</ele>
        <time>2013-05-02T11:44:48Z</time>
      </trkpt>
      <trkpt lat="47.71795" lon="-2.73449">
        <ele>106</ele>
        <time>2013-05-02T11:44:49Z</time>
      </trkpt>
      <trkpt lat="47.7179" lon="-2.73452">
        <ele>106</ele>
        <time>2013-05-02T11:44:50Z</time>
      </trkpt>
      <trkpt lat="47.71786" lon="-2.73455">
        <ele>106</ele>
        <time>2013-05-02T11:44:51Z</time>
      </trkpt>
      <trkpt lat="47.71782" lon="-2.73458">
        <ele>106</ele>
        <time>2013-05-02T11:44:52Z</time>
      </trkpt>
      <trkpt lat="47.71777" lon="-2.73462">
        <ele>106</ele>
        <time>2013-05-02T11:44:53Z</time>
      </trkpt>
      <trkpt lat="47.71772" lon="-2.73465">
        <ele>106</ele>
        <time>2013-05-02T11:44:54Z</time>
      </trkpt>
      <trkpt lat="47.71767" lon="-2.73469">
        <ele>106</ele>
        <time>2013-05-02T11:44:55Z</time>
      </trkpt>
      <trkpt lat="47.71762" lon="-2.73473">
        <ele>106</ele>
        <time>2013-05-02T11:44:56Z</time>
      </trkpt>
      <trkpt lat="47.71757" lon="-2.73475">
        <ele>106</ele>
        <time>2013-05-02T11:44:57Z</time>
      </trkpt>
      <trkpt lat="47.71751" lon="-2.73476">
        <ele>106</ele>
        <time>2013-05-02T11:44:58Z</time>
      </trkpt>
      <trkpt lat="47.71748" lon="-2.73475">
        <ele>106</ele>
        <time>2013-05-02T11:44:59Z</time>
      </trkpt>
      <trkpt lat="47.71746" lon="-2.73469">
        <ele>106</ele>
        <time>2013-05-02T11:45:00Z</time>
      </trkpt>
      <trkpt lat="47.71743" lon="-2.73463">
        <ele>106</ele>
        <time>2013-05-02T11:45:01Z</time>
      </trkpt>
      <trkpt lat="47.7174" lon="-2.73458">
        <ele>105</ele>
        <time>2013-05-02T11:45:02Z</time>
      </trkpt>
      <trkpt lat="47.71737" lon="-2.73452">
        <ele>104</ele>
        <time>2013-05-02T11:45:03Z</time>
      </trkpt>
      <trkpt lat="47.71735" lon="-2.73445">
        <ele>103</ele>
        <time>2013-05-02T11:45:04Z</time>
      </trkpt>
      <trkpt lat="47.71732" lon="-2.73438">
        <ele>102</ele>
        <time>2013-05-02T11:45:05Z</time>
      </trkpt>
      <trkpt lat="47.71729" lon="-2.73432">
        <ele>101</ele>
        <time>2013-05-02T11:45:06Z</time>
      </trkpt>
      <trkpt lat="47.71725" lon="-2.73423">
        <ele>100</ele>
        <time>2013-05-02T11:45:07Z</time>
      </trkpt>
      <trkpt lat="47.71722" lon="-2.73417">
        <ele>99</ele>
        <time>2013-05-02T11:45:08Z</time>
      </trkpt>
      <trkpt lat="47.71717" lon="-2.73411">
        <ele>98</ele>
        <time>2013-05-02T11:45:09Z</time>
      </trkpt>
      <trkpt lat="47.71713" lon="-2.73406">
        <ele>97</ele>
        <time>2013-05-02T11:45:10Z</time>
      </trkpt>
      <trkpt lat="47.7171" lon="-2.73402">
        <ele>97</ele>
        <time>2013-05-02T11:45:11Z</time>
      </trkpt>
      <trkpt lat="47.71707" lon="-2.73397">
        <ele>97</ele>
        <time>2013-05-02T11:45:12Z</time>
      </trkpt>
      <trkpt lat="47.71705" lon="-2.73393">
        <ele>97</ele>
        <time>2013-05-02T11:45:13Z</time>
      </trkpt>
      <trkpt lat="47.71703" lon="-2.73389">
        <ele>97</ele>
        <time>2013-05-02T11:45:14Z</time>
      </trkpt>
      <trkpt lat="47.717" lon="-2.73385">
        <ele>97</ele>
        <time>2013-05-02T11:45:15Z</time>
      </trkpt>
      <trkpt lat="47.71696" lon="-2.73382">
        <ele>97</ele>
        <time>2013-05-02T11:45:16Z</time>
      </trkpt>
      <trkpt lat="47.71693" lon="-2.73379">
        <ele>97</ele>
        <time>2013-05-02T11:45:17Z</time>
      </trkpt>
      <trkpt lat="47.7169" lon="-2.73376">
        <ele>97</ele>
        <time>2013-05-02T11:45:18Z</time>
      </trkpt>
      <trkpt lat="47.71687" lon="-2.73375">
        <ele>97</ele>
        <time>2013-05-02T11:45:19Z</time>
      </trkpt>
      <trkpt lat="47.71684" lon="-2.73375">
        <ele>97</ele>
        <time>2013-05-02T11:45:20Z</time>
      </trkpt>
      <trkpt lat="47.7168" lon="-2.73375">
        <ele>97</ele>
        <time>2013-05-02T11:45:21Z</time>
      </trkpt>
      <trkpt lat="47.71677" lon="-2.73375">
        <ele>97</ele>
        <time>2013-05-02T11:45:22Z</time>
      </trkpt>
      <trkpt lat="47.71674" lon="-2.73378">
        <ele>97</ele>
        <time>2013-05-02T11:45:23Z</time>
      </trkpt>
      <trkpt lat="47.71672" lon="-2.73383">
        <ele>97</ele>
        <time>2013-05-02T11:45:24Z</time>
      </trkpt>
      <trkpt lat="47.71668" lon="-2.73388">
        <ele>97</ele>
        <time>2013-05-02T11:45:25Z</time>
      </trkpt>
      <trkpt lat="47.71665" lon="-2.73394">
        <ele>97</ele>
        <time>2013-05-02T11:45:26Z</time>
      </trkpt>
      <trkpt lat="47.71661" lon="-2.734">
        <ele>97</ele>
        <time>2013-05-02T11:45:27Z</time>
      </trkpt>
      <trkpt lat="47.71658" lon="-2.73408">
        <ele>97</ele>
        <time>2013-05-02T11:45:28Z</time>
      </trkpt>
      <trkpt lat="47.71654" lon="-2.73414">
        <ele>97</ele>
        <time>2013-05-02T11:45:29Z</time>
      </trkpt>
      <trkpt lat="47.71651" lon="-2.7342">
        <ele>97</ele>
        <time>2013-05-02T11:45:30Z</time>
      </trkpt>
      <trkpt lat="47.71649" lon="-2.73426">
        <ele>97</ele>
        <time>2013-05-02T11:45:31Z</time>
      </trkpt>
      <trkpt lat="47.71646" lon="-2.73432">
        <ele>97</ele>
        <time>2013-05-02T11:45:32Z</time>
      </trkpt>
      <trkpt lat="47.71645" lon="-2.73439">
        <ele>97</ele>
        <time>2013-05-02T11:45:33Z</time>
      </trkpt>
      <trkpt lat="47.71643" lon="-2.73445">
        <ele>97</ele>
        <time>2013-05-02T11:45:34Z</time>
      </trkpt>
      <trkpt lat="47.71641" lon="-2.73451">
        <ele>97</ele>
        <time>2013-05-02T11:45:35Z</time>
      </trkpt>
      <trkpt lat="47.71638" lon="-2.73458">
        <ele>97</ele>
        <time>2013-05-02T11:45:36Z</time>
      </trkpt>
      <trkpt lat="47.71636" lon="-2.73463">
        <ele>97</ele>
        <time>2013-05-02T11:45:37Z</time>
      </trkpt>
      <trkpt lat="47.71635" lon="-2.73468">
        <ele>97</ele>
        <time>2013-05-02T11:45:38Z</time>
      </trkpt>
      <trkpt lat="47.71634" lon="-2.73474">
        <ele>97</ele>
        <time>2013-05-02T11:45:39Z</time>
      </trkpt>
      <trkpt lat="47.71632" lon="-2.7348">
        <ele>96</ele>
        <time>2013-05-02T11:45:40Z</time>
      </trkpt>
      <trkpt lat="47.71631" lon="-2.73486">
        <ele>95</ele>
        <time>2013-05-02T11:45:41Z</time>
      </trkpt>
      <trkpt lat="47.71629" lon="-2.73493">
        <ele>94</ele>
        <time>2013-05-02T11:45:42Z</time>
      </trkpt>
      <trkpt lat="47.71627" lon="-2.73498">
        <ele>94</ele>
        <time>2013-05-02T11:45:43Z</time>
      </trkpt>
      <trkpt lat="47.71623" lon="-2.73501">
        <ele>93</ele>
        <time>2013-05-02T11:45:44Z</time>
      </trkpt>
      <trkpt lat="47.7162" lon="-2.73502">
        <ele>93</ele>
        <time>2013-05-02T11:45:45Z</time>
      </trkpt>
      <trkpt lat="47.71616" lon="-2.73502">
        <ele>92</ele>
        <time>2013-05-02T11:45:46Z</time>
      </trkpt>
      <trkpt lat="47.71613" lon="-2.73502">
        <ele>92</ele>
        <time>2013-05-02T11:45:47Z</time>
      </trkpt>
      <trkpt lat="47.71609" lon="-2.73502">
        <ele>92</ele>
        <time>2013-05-02T11:45:48Z</time>
      </trkpt>
      <trkpt lat="47.71605" lon="-2.73501">
        <ele>92</ele>
        <time>2013-05-02T11:45:49Z</time>
      </trkpt>
      <trkpt lat="47.71602" lon="-2.73502">
        <ele>92</ele>
        <time>2013-05-02T11:45:50Z</time>
      </trkpt>
      <trkpt lat="47.716" lon="-2.73504">
        <ele>92</ele>
        <time>2013-05-02T11:45:51Z</time>
      </trkpt>
      <trkpt lat="47.71598" lon="-2.73506">
        <ele>92</ele>
        <time>2013-05-02T11:45:52Z</time>
      </trkpt>
      <trkpt lat="47.71596" lon="-2.73507">
        <ele>92</ele>
        <time>2013-05-02T11:45:53Z</time>
      </trkpt>
      <trkpt lat="47.71595" lon="-2.73509">
        <ele>92</ele>
        <time>2013-05-02T11:45:54Z</time>
      </trkpt>
      <trkpt lat="47.71593" lon="-2.73512">
        <ele>92</ele>
        <time>2013-05-02T11:45:55Z</time>
      </trkpt>
      <trkpt lat="47.71593" lon="-2.73514">
        <ele>92</ele>
        <time>2013-05-02T11:45:56Z</time>
      </trkpt>
      <trkpt lat="47.71593" lon="-2.73517">
        <ele>92</ele>
        <time>2013-05-02T11:45:57Z</time>
      </trkpt>
      <trkpt lat="47.71593" lon="-2.7352">
        <ele>92</ele>
        <time>2013-05-02T11:45:58Z</time>
      </trkpt>
      <trkpt lat="47.71593" lon="-2.73523">
        <ele>92</ele>
        <time>2013-05-02T11:45:59Z</time>
      </trkpt>
      <trkpt lat="47.71594" lon="-2.73527">
        <ele>92</ele>
        <time>2013-05-02T11:46:00Z</time>
      </trkpt>
      <trkpt lat="47.71595" lon="-2.7353">
        <ele>92</ele>
        <time>2013-05-02T11:46:01Z</time>
      </trkpt>
      <trkpt lat="47.71596" lon="-2.73532">
        <ele>92</ele>
        <time>2013-05-02T11:46:02Z</time>
      </trkpt>
      <trkpt lat="47.71597" lon="-2.73535">
        <ele>92</ele>
        <time>2013-05-02T11:46:03Z</time>
      </trkpt>
      <trkpt lat="47.71597" lon="-2.73538">
        <ele>92</ele>
        <time>2013-05-02T11:46:04Z</time>
      </trkpt>
      <trkpt lat="47.71599" lon="-2.73542">
        <ele>92</ele>
        <time>2013-05-02T11:46:05Z</time>
      </trkpt>
      <trkpt lat="47.71601" lon="-2.73545">
        <ele>92</ele>
        <time>2013-05-02T11:46:06Z</time>
      </trkpt>
      <trkpt lat="47.71603" lon="-2.73548">
        <ele>92</ele>
        <time>2013-05-02T11:46:07Z</time>
      </trkpt>
      <trkpt lat="47.71605" lon="-2.73552">
        <ele>92</ele>
        <time>2013-05-02T11:46:08Z</time>
      </trkpt>
      <trkpt lat="47.71606" lon="-2.73556">
        <ele>92</ele>
        <time>2013-05-02T11:46:09Z</time>
      </trkpt>
      <trkpt lat="47.71608" lon="-2.73559">
        <ele>92</ele>
        <time>2013-05-02T11:46:10Z</time>
      </trkpt>
      <trkpt lat="47.71609" lon="-2.73563">
        <ele>92</ele>
        <time>2013-05-02T11:46:11Z</time>
      </trkpt>
      <trkpt lat="47.71611" lon="-2.73567">
        <ele>92</ele>
        <time>2013-05-02T11:46:12Z</time>
      </trkpt>
      <trkpt lat="47.71612" lon="-2.7357">
        <ele>92</ele>
        <time>2013-05-02T11:46:13Z</time>
      </trkpt>
      <trkpt lat="47.71614" lon="-2.73573">
        <ele>92</ele>
        <time>2013-05-02T11:46:14Z</time>
      </trkpt>
      <trkpt lat="47.71615" lon="-2.73577">
        <ele>92</ele>
        <time>2013-05-02T11:46:15Z</time>
      </trkpt>
      <trkpt lat="47.71616" lon="-2.7358">
        <ele>92</ele>
        <time>2013-05-02T11:46:16Z</time>
      </trkpt>
      <trkpt lat="47.71618" lon="-2.73583">
        <ele>92</ele>
        <time>2013-05-02T11:46:17Z</time>
      </trkpt>
      <trkpt lat="47.71619" lon="-2.73586">
        <ele>92</ele>
        <time>2013-05-02T11:46:18Z</time>
      </trkpt>
      <trkpt lat="47.71621" lon="-2.73589">
        <ele>92</ele>
        <time>2013-05-02T11:46:19Z</time>
      </trkpt>
      <trkpt lat="47.71622" lon="-2.73592">
        <ele>92</ele>
        <time>2013-05-02T11:46:20Z</time>
      </trkpt>
      <trkpt lat="47.71623" lon="-2.73594">
        <ele>92</ele>
        <time>2013-05-02T11:46:21Z</time>
      </trkpt>
      <trkpt lat="47.71625" lon="-2.73597">
        <ele>92</ele>
        <time>2013-05-02T11:46:22Z</time>
      </trkpt>
      <trkpt lat="47.71626" lon="-2.736">
        <ele>92</ele>
        <time>2013-05-02T11:46:23Z</time>
      </trkpt>
      <trkpt lat="47.71628" lon="-2.73602">
        <ele>92</ele>
        <time>2013-05-02T11:46:24Z</time>
      </trkpt>
      <trkpt lat="47.7163" lon="-2.73605">
        <ele>92</ele>
        <time>2013-05-02T11:46:25Z</time>
      </trkpt>
      <trkpt lat="47.71632" lon="-2.73608">
        <ele>92</ele>
        <time>2013-05-02T11:46:26Z</time>
      </trkpt>
      <trkpt lat="47.71634" lon="-2.73611">
        <ele>92</ele>
        <time>2013-05-02T11:46:27Z</time>
      </trkpt>
      <trkpt lat="47.71635" lon="-2.73615">
        <ele>92</ele>
        <time>2013-05-02T11:46:28Z</time>
      </trkpt>
      <trkpt lat="47.71636" lon="-2.73618">
        <ele>92</ele>
        <time>2013-05-02T11:46:29Z</time>
      </trkpt>
      <trkpt lat="47.71637" lon="-2.73621">
        <ele>92</ele>
        <time>2013-05-02T11:46:30Z</time>
      </trkpt>
      <trkpt lat="47.71639" lon="-2.73623">
        <ele>92</ele>
        <time>2013-05-02T11:46:31Z</time>
      </trkpt>
      <trkpt lat="47.71641" lon="-2.73625">
        <ele>93</ele>
        <time>2013-05-02T11:46:32Z</time>
      </trkpt>
      <trkpt lat="47.71643" lon="-2.73628">
        <ele>93</ele>
        <time>2013-05-02T11:46:33Z</time>
      </trkpt>
      <trkpt lat="47.71645" lon="-2.73629">
        <ele>93</ele>
        <time>2013-05-02T11:46:34Z</time>
      </trkpt>
      <trkpt lat="47.71648" lon="-2.73631">
        <ele>93</ele>
        <time>2013-05-02T11:46:35Z</time>
      </trkpt>
      <trkpt lat="47.7165" lon="-2.73633">
        <ele>93</ele>
        <time>2013-05-02T11:46:36Z</time>
      </trkpt>
      <trkpt lat="47.71652" lon="-2.73636">
        <ele>93</ele>
        <time>2013-05-02T11:46:37Z</time>
      </trkpt>
      <trkpt lat="47.71654" lon="-2.73637">
        <ele>93</ele>
        <time>2013-05-02T11:46:38Z</time>
      </trkpt>
      <trkpt lat="47.71655" lon="-2.73639">
        <ele>93</ele>
        <time>2013-05-02T11:46:39Z</time>
      </trkpt>
      <trkpt lat="47.71657" lon="-2.73641">
        <ele>93</ele>
        <time>2013-05-02T11:46:41Z</time>
      </trkpt>
      <trkpt lat="47.71659" lon="-2.73643">
        <ele>93</ele>
        <time>2013-05-02T11:46:42Z</time>
      </trkpt>
      <trkpt lat="47.71661" lon="-2.73645">
        <ele>93</ele>
        <time>2013-05-02T11:46:43Z</time>
      </trkpt>
      <trkpt lat="47.71663" lon="-2.73647">
        <ele>93</ele>
        <time>2013-05-02T11:46:44Z</time>
      </trkpt>
      <trkpt lat="47.71665" lon="-2.73649">
        <ele>93</ele>
        <time>2013-05-02T11:46:45Z</time>
      </trkpt>
      <trkpt lat="47.71666" lon="-2.7365">
        <ele>93</ele>
        <time>2013-05-02T11:46:46Z</time>
      </trkpt>
      <trkpt lat="47.71667" lon="-2.73651">
        <ele>93</ele>
        <time>2013-05-02T11:46:47Z</time>
      </trkpt>
      <trkpt lat="47.71668" lon="-2.73652">
        <ele>93</ele>
        <time>2013-05-02T11:46:49Z</time>
      </trkpt>
      <trkpt lat="47.71668" lon="-2.7365">
        <ele>95</ele>
        <time>2013-05-02T11:46:52Z</time>
      </trkpt>
      <trkpt lat="47.71669" lon="-2.73647">
        <ele>97</ele>
        <time>2013-05-02T11:46:54Z</time>
      </trkpt>
      <trkpt lat="47.71672" lon="-2.7365">
        <ele>99</ele>
        <time>2013-05-02T11:46:58Z</time>
      </trkpt>
      <trkpt lat="47.71672" lon="-2.73652">
        <ele>99</ele>
        <time>2013-05-02T11:46:59Z</time>
      </trkpt>
      <trkpt lat="47.71673" lon="-2.73654">
        <ele>99</ele>
        <time>2013-05-02T11:47:00Z</time>
      </trkpt>
      <trkpt lat="47.71676" lon="-2.73655">
        <ele>99</ele>
        <time>2013-05-02T11:47:02Z</time>
      </trkpt>
      <trkpt lat="47.71677" lon="-2.73656">
        <ele>99</ele>
        <time>2013-05-02T11:47:03Z</time>
      </trkpt>
      <trkpt lat="47.7168" lon="-2.73656">
        <ele>99</ele>
        <time>2013-05-02T11:47:04Z</time>
      </trkpt>
      <trkpt lat="47.71682" lon="-2.73657">
        <ele>99</ele>
        <time>2013-05-02T11:47:05Z</time>
      </trkpt>
      <trkpt lat="47.71684" lon="-2.73657">
        <ele>99</ele>
        <time>2013-05-02T11:47:06Z</time>
      </trkpt>
      <trkpt lat="47.71685" lon="-2.73659">
        <ele>99</ele>
        <time>2013-05-02T11:47:07Z</time>
      </trkpt>
      <trkpt lat="47.71686" lon="-2.73663">
        <ele>99</ele>
        <time>2013-05-02T11:47:08Z</time>
      </trkpt>
      <trkpt lat="47.71687" lon="-2.73666">
        <ele>99</ele>
        <time>2013-05-02T11:47:09Z</time>
      </trkpt>
      <trkpt lat="47.71687" lon="-2.73669">
        <ele>99</ele>
        <time>2013-05-02T11:47:10Z</time>
      </trkpt>
      <trkpt lat="47.71687" lon="-2.73671">
        <ele>99</ele>
        <time>2013-05-02T11:47:11Z</time>
      </trkpt>
      <trkpt lat="47.71688" lon="-2.73674">
        <ele>99</ele>
        <time>2013-05-02T11:47:12Z</time>
      </trkpt>
      <trkpt lat="47.71687" lon="-2.73677">
        <ele>99</ele>
        <time>2013-05-02T11:47:13Z</time>
      </trkpt>
      <trkpt lat="47.71687" lon="-2.7368">
        <ele>99</ele>
        <time>2013-05-02T11:47:14Z</time>
      </trkpt>
      <trkpt lat="47.71687" lon="-2.73684">
        <ele>99</ele>
        <time>2013-05-02T11:47:15Z</time>
      </trkpt>
      <trkpt lat="47.71687" lon="-2.73687">
        <ele>99</ele>
        <time>2013-05-02T11:47:16Z</time>
      </trkpt>
      <trkpt lat="47.71686" lon="-2.73688">
        <ele>99</ele>
        <time>2013-05-02T11:47:17Z</time>
      </trkpt>
      <trkpt lat="47.71684" lon="-2.7369">
        <ele>98</ele>
        <time>2013-05-02T11:47:19Z</time>
      </trkpt>
      <trkpt lat="47.71682" lon="-2.7369">
        <ele>98</ele>
        <time>2013-05-02T11:47:20Z</time>
      </trkpt>
      <trkpt lat="47.7168" lon="-2.73691">
        <ele>98</ele>
        <time>2013-05-02T11:47:22Z</time>
      </trkpt>
      <trkpt lat="47.71679" lon="-2.73691">
        <ele>97</ele>
        <time>2013-05-02T11:47:24Z</time>
      </trkpt>
      <trkpt lat="47.71677" lon="-2.73692">
        <ele>97</ele>
        <time>2013-05-02T11:47:26Z</time>
      </trkpt>
      <trkpt lat="47.71675" lon="-2.73692">
        <ele>97</ele>
        <time>2013-05-02T11:47:28Z</time>
      </trkpt>
      <trkpt lat="47.71673" lon="-2.73692">
        <ele>97</ele>
        <time>2013-05-02T11:47:29Z</time>
      </trkpt>
      <trkpt lat="47.71672" lon="-2.73692">
        <ele>97</ele>
        <time>2013-05-02T11:47:30Z</time>
      </trkpt>
      <trkpt lat="47.71669" lon="-2.73693">
        <ele>97</ele>
        <time>2013-05-02T11:47:31Z</time>
      </trkpt>
      <trkpt lat="47.71667" lon="-2.73695">
        <ele>97</ele>
        <time>2013-05-02T11:47:33Z</time>
      </trkpt>
      <trkpt lat="47.71666" lon="-2.73695">
        <ele>97</ele>
        <time>2013-05-02T11:47:34Z</time>
      </trkpt>
      <trkpt lat="47.71664" lon="-2.73696">
        <ele>97</ele>
        <time>2013-05-02T11:47:36Z</time>
      </trkpt>
      <trkpt lat="47.71663" lon="-2.73698">
        <ele>97</ele>
        <time>2013-05-02T11:47:38Z</time>
      </trkpt>
      <trkpt lat="47.71662" lon="-2.737">
        <ele>97</ele>
        <time>2013-05-02T11:47:39Z</time>
      </trkpt>
      <trkpt lat="47.7166" lon="-2.73702">
        <ele>97</ele>
        <time>2013-05-02T11:47:40Z</time>
      </trkpt>
      <trkpt lat="47.71659" lon="-2.73704">
        <ele>97</ele>
        <time>2013-05-02T11:47:41Z</time>
      </trkpt>
      <trkpt lat="47.71659" lon="-2.73705">
        <ele>97</ele>
        <time>2013-05-02T11:47:42Z</time>
      </trkpt>
      <trkpt lat="47.71657" lon="-2.73708">
        <ele>97</ele>
        <time>2013-05-02T11:47:44Z</time>
      </trkpt>
      <trkpt lat="47.71656" lon="-2.7371">
        <ele>97</ele>
        <time>2013-05-02T11:47:46Z</time>
      </trkpt>
      <trkpt lat="47.71656" lon="-2.73711">
        <ele>97</ele>
        <time>2013-05-02T11:47:47Z</time>
      </trkpt>
      <trkpt lat="47.71655" lon="-2.73714">
        <ele>97</ele>
        <time>2013-05-02T11:47:49Z</time>
      </trkpt>
      <trkpt lat="47.71653" lon="-2.73716">
        <ele>97</ele>
        <time>2013-05-02T11:47:50Z</time>
      </trkpt>
      <trkpt lat="47.71653" lon="-2.73719">
        <ele>97</ele>
        <time>2013-05-02T11:47:51Z</time>
      </trkpt>
      <trkpt lat="47.71652" lon="-2.73721">
        <ele>97</ele>
        <time>2013-05-02T11:47:52Z</time>
      </trkpt>
      <trkpt lat="47.71651" lon="-2.73723">
        <ele>97</ele>
        <time>2013-05-02T11:47:53Z</time>
      </trkpt>
      <trkpt lat="47.71649" lon="-2.73724">
        <ele>97</ele>
        <time>2013-05-02T11:47:54Z</time>
      </trkpt>
      <trkpt lat="47.71648" lon="-2.73726">
        <ele>98</ele>
        <time>2013-05-02T11:47:55Z</time>
      </trkpt>
      <trkpt lat="47.71645" lon="-2.73728">
        <ele>98</ele>
        <time>2013-05-02T11:47:56Z</time>
      </trkpt>
      <trkpt lat="47.71644" lon="-2.7373">
        <ele>98</ele>
        <time>2013-05-02T11:47:57Z</time>
      </trkpt>
      <trkpt lat="47.71642" lon="-2.73732">
        <ele>98</ele>
        <time>2013-05-02T11:47:58Z</time>
      </trkpt>
      <trkpt lat="47.71641" lon="-2.73733">
        <ele>98</ele>
        <time>2013-05-02T11:47:59Z</time>
      </trkpt>
      <trkpt lat="47.71639" lon="-2.73735">
        <ele>99</ele>
        <time>2013-05-02T11:48:01Z</time>
      </trkpt>
      <trkpt lat="47.71637" lon="-2.73735">
        <ele>99</ele>
        <time>2013-05-02T11:48:02Z</time>
      </trkpt>
      <trkpt lat="47.71635" lon="-2.73736">
        <ele>99</ele>
        <time>2013-05-02T11:48:03Z</time>
      </trkpt>
      <trkpt lat="47.71634" lon="-2.73737">
        <ele>99</ele>
        <time>2013-05-02T11:48:04Z</time>
      </trkpt>
      <trkpt lat="47.71632" lon="-2.73738">
        <ele>100</ele>
        <time>2013-05-02T11:48:05Z</time>
      </trkpt>
      <trkpt lat="47.7163" lon="-2.7374">
        <ele>100</ele>
        <time>2013-05-02T11:48:06Z</time>
      </trkpt>
      <trkpt lat="47.71629" lon="-2.73742">
        <ele>100</ele>
        <time>2013-05-02T11:48:07Z</time>
      </trkpt>
      <trkpt lat="47.71627" lon="-2.73744">
        <ele>101</ele>
        <time>2013-05-02T11:48:08Z</time>
      </trkpt>
      <trkpt lat="47.71626" lon="-2.73745">
        <ele>101</ele>
        <time>2013-05-02T11:48:09Z</time>
      </trkpt>
      <trkpt lat="47.71624" lon="-2.73747">
        <ele>102</ele>
        <time>2013-05-02T11:48:10Z</time>
      </trkpt>
      <trkpt lat="47.71622" lon="-2.73748">
        <ele>102</ele>
        <time>2013-05-02T11:48:11Z</time>
      </trkpt>
      <trkpt lat="47.71621" lon="-2.73749">
        <ele>102</ele>
        <time>2013-05-02T11:48:12Z</time>
      </trkpt>
      <trkpt lat="47.71619" lon="-2.7375">
        <ele>103</ele>
        <time>2013-05-02T11:48:13Z</time>
      </trkpt>
      <trkpt lat="47.71618" lon="-2.73751">
        <ele>103</ele>
        <time>2013-05-02T11:48:14Z</time>
      </trkpt>
      <trkpt lat="47.71616" lon="-2.73752">
        <ele>104</ele>
        <time>2013-05-02T11:48:15Z</time>
      </trkpt>
      <trkpt lat="47.71613" lon="-2.73755">
        <ele>105</ele>
        <time>2013-05-02T11:48:17Z</time>
      </trkpt>
      <trkpt lat="47.71611" lon="-2.73757">
        <ele>105</ele>
        <time>2013-05-02T11:48:18Z</time>
      </trkpt>
      <trkpt lat="47.71609" lon="-2.73759">
        <ele>105</ele>
        <time>2013-05-02T11:48:19Z</time>
      </trkpt>
      <trkpt lat="47.71606" lon="-2.7376">
        <ele>106</ele>
        <time>2013-05-02T11:48:20Z</time>
      </trkpt>
      <trkpt lat="47.71605" lon="-2.73762">
        <ele>106</ele>
        <time>2013-05-02T11:48:21Z</time>
      </trkpt>
      <trkpt lat="47.71603" lon="-2.73763">
        <ele>106</ele>
        <time>2013-05-02T11:48:22Z</time>
      </trkpt>
      <trkpt lat="47.716" lon="-2.73765">
        <ele>106</ele>
        <time>2013-05-02T11:48:23Z</time>
      </trkpt>
      <trkpt lat="47.71597" lon="-2.73765">
        <ele>106</ele>
        <time>2013-05-02T11:48:24Z</time>
      </trkpt>
      <trkpt lat="47.71594" lon="-2.73766">
        <ele>106</ele>
        <time>2013-05-02T11:48:25Z</time>
      </trkpt>
      <trkpt lat="47.71591" lon="-2.73767">
        <ele>106</ele>
        <time>2013-05-02T11:48:26Z</time>
      </trkpt>
      <trkpt lat="47.71588" lon="-2.73768">
        <ele>106</ele>
        <time>2013-05-02T11:48:27Z</time>
      </trkpt>
      <trkpt lat="47.71585" lon="-2.73769">
        <ele>106</ele>
        <time>2013-05-02T11:48:28Z</time>
      </trkpt>
      <trkpt lat="47.71582" lon="-2.73771">
        <ele>106</ele>
        <time>2013-05-02T11:48:29Z</time>
      </trkpt>
      <trkpt lat="47.71578" lon="-2.73772">
        <ele>107</ele>
        <time>2013-05-02T11:48:30Z</time>
      </trkpt>
      <trkpt lat="47.71575" lon="-2.73774">
        <ele>107</ele>
        <time>2013-05-02T11:48:31Z</time>
      </trkpt>
      <trkpt lat="47.71571" lon="-2.73776">
        <ele>107</ele>
        <time>2013-05-02T11:48:32Z</time>
      </trkpt>
      <trkpt lat="47.71568" lon="-2.73778">
        <ele>107</ele>
        <time>2013-05-02T11:48:33Z</time>
      </trkpt>
      <trkpt lat="47.71565" lon="-2.7378">
        <ele>107</ele>
        <time>2013-05-02T11:48:34Z</time>
      </trkpt>
      <trkpt lat="47.71563" lon="-2.73782">
        <ele>107</ele>
        <time>2013-05-02T11:48:35Z</time>
      </trkpt>
      <trkpt lat="47.7156" lon="-2.73785">
        <ele>107</ele>
        <time>2013-05-02T11:48:36Z</time>
      </trkpt>
      <trkpt lat="47.71557" lon="-2.73788">
        <ele>108</ele>
        <time>2013-05-02T11:48:37Z</time>
      </trkpt>
      <trkpt lat="47.71554" lon="-2.73791">
        <ele>108</ele>
        <time>2013-05-02T11:48:38Z</time>
      </trkpt>
      <trkpt lat="47.71552" lon="-2.73794">
        <ele>108</ele>
        <time>2013-05-02T11:48:39Z</time>
      </trkpt>
      <trkpt lat="47.71549" lon="-2.73796">
        <ele>108</ele>
        <time>2013-05-02T11:48:40Z</time>
      </trkpt>
      <trkpt lat="47.71545" lon="-2.73798">
        <ele>108</ele>
        <time>2013-05-02T11:48:41Z</time>
      </trkpt>
      <trkpt lat="47.71543" lon="-2.738">
        <ele>108</ele>
        <time>2013-05-02T11:48:42Z</time>
      </trkpt>
      <trkpt lat="47.7154" lon="-2.73803">
        <ele>108</ele>
        <time>2013-05-02T11:48:43Z</time>
      </trkpt>
      <trkpt lat="47.71537" lon="-2.73805">
        <ele>108</ele>
        <time>2013-05-02T11:48:44Z</time>
      </trkpt>
      <trkpt lat="47.71534" lon="-2.73808">
        <ele>108</ele>
        <time>2013-05-02T11:48:45Z</time>
      </trkpt>
      <trkpt lat="47.71531" lon="-2.7381">
        <ele>108</ele>
        <time>2013-05-02T11:48:46Z</time>
      </trkpt>
      <trkpt lat="47.71527" lon="-2.73812">
        <ele>108</ele>
        <time>2013-05-02T11:48:47Z</time>
      </trkpt>
      <trkpt lat="47.71524" lon="-2.73814">
        <ele>108</ele>
        <time>2013-05-02T11:48:48Z</time>
      </trkpt>
      <trkpt lat="47.7152" lon="-2.73816">
        <ele>108</ele>
        <time>2013-05-02T11:48:49Z</time>
      </trkpt>
      <trkpt lat="47.71516" lon="-2.73819">
        <ele>108</ele>
        <time>2013-05-02T11:48:50Z</time>
      </trkpt>
      <trkpt lat="47.71513" lon="-2.73821">
        <ele>108</ele>
        <time>2013-05-02T11:48:51Z</time>
      </trkpt>
      <trkpt lat="47.71509" lon="-2.73824">
        <ele>108</ele>
        <time>2013-05-02T11:48:52Z</time>
      </trkpt>
      <trkpt lat="47.71506" lon="-2.73828">
        <ele>108</ele>
        <time>2013-05-02T11:48:53Z</time>
      </trkpt>
      <trkpt lat="47.71503" lon="-2.73832">
        <ele>108</ele>
        <time>2013-05-02T11:48:54Z</time>
      </trkpt>
      <trkpt lat="47.71501" lon="-2.73836">
        <ele>108</ele>
        <time>2013-05-02T11:48:55Z</time>
      </trkpt>
      <trkpt lat="47.71499" lon="-2.73841">
        <ele>108</ele>
        <time>2013-05-02T11:48:56Z</time>
      </trkpt>
      <trkpt lat="47.71497" lon="-2.73847">
        <ele>108</ele>
        <time>2013-05-02T11:48:57Z</time>
      </trkpt>
      <trkpt lat="47.71496" lon="-2.73852">
        <ele>108</ele>
        <time>2013-05-02T11:48:58Z</time>
      </trkpt>
      <trkpt lat="47.71495" lon="-2.73857">
        <ele>108</ele>
        <time>2013-05-02T11:48:59Z</time>
      </trkpt>
      <trkpt lat="47.71493" lon="-2.73862">
        <ele>108</ele>
        <time>2013-05-02T11:49:00Z</time>
      </trkpt>
      <trkpt lat="47.7149" lon="-2.73866">
        <ele>108</ele>
        <time>2013-05-02T11:49:01Z</time>
      </trkpt>
      <trkpt lat="47.71488" lon="-2.7387">
        <ele>108</ele>
        <time>2013-05-02T11:49:02Z</time>
      </trkpt>
      <trkpt lat="47.71484" lon="-2.73874">
        <ele>108</ele>
        <time>2013-05-02T11:49:03Z</time>
      </trkpt>
      <trkpt lat="47.71481" lon="-2.73878">
        <ele>108</ele>
        <time>2013-05-02T11:49:04Z</time>
      </trkpt>
      <trkpt lat="47.71478" lon="-2.73882">
        <ele>108</ele>
        <time>2013-05-02T11:49:05Z</time>
      </trkpt>
      <trkpt lat="47.71474" lon="-2.73886">
        <ele>108</ele>
        <time>2013-05-02T11:49:06Z</time>
      </trkpt>
      <trkpt lat="47.71472" lon="-2.73891">
        <ele>108</ele>
        <time>2013-05-02T11:49:07Z</time>
      </trkpt>
      <trkpt lat="47.71469" lon="-2.73894">
        <ele>108</ele>
        <time>2013-05-02T11:49:08Z</time>
      </trkpt>
      <trkpt lat="47.71468" lon="-2.73895">
        <ele>108</ele>
        <time>2013-05-02T11:49:09Z</time>
      </trkpt>
      <trkpt lat="47.71469" lon="-2.73895">
        <ele>108</ele>
        <time>2013-05-02T11:49:12Z</time>
      </trkpt>
      <trkpt lat="47.71471" lon="-2.73892">
        <ele>108</ele>
        <time>2013-05-02T11:49:14Z</time>
      </trkpt>
      <trkpt lat="47.71472" lon="-2.7389">
        <ele>108</ele>
        <time>2013-05-02T11:49:15Z</time>
      </trkpt>
      <trkpt lat="47.71474" lon="-2.73888">
        <ele>108</ele>
        <time>2013-05-02T11:49:16Z</time>
      </trkpt>
      <trkpt lat="47.71476" lon="-2.73886">
        <ele>108</ele>
        <time>2013-05-02T11:49:17Z</time>
      </trkpt>
      <trkpt lat="47.71478" lon="-2.73885">
        <ele>108</ele>
        <time>2013-05-02T11:49:18Z</time>
      </trkpt>
      <trkpt lat="47.71479" lon="-2.73886">
        <ele>108</ele>
        <time>2013-05-02T11:49:19Z</time>
      </trkpt>
      <trkpt lat="47.71479" lon="-2.73888">
        <ele>108</ele>
        <time>2013-05-02T11:49:20Z</time>
      </trkpt>
      <trkpt lat="47.71479" lon="-2.7389">
        <ele>108</ele>
        <time>2013-05-02T11:49:21Z</time>
      </trkpt>
      <trkpt lat="47.71479" lon="-2.73894">
        <ele>108</ele>
        <time>2013-05-02T11:49:22Z</time>
      </trkpt>
      <trkpt lat="47.7148" lon="-2.73898">
        <ele>108</ele>
        <time>2013-05-02T11:49:23Z</time>
      </trkpt>
      <trkpt lat="47.7148" lon="-2.73903">
        <ele>108</ele>
        <time>2013-05-02T11:49:24Z</time>
      </trkpt>
      <trkpt lat="47.71481" lon="-2.73909">
        <ele>108</ele>
        <time>2013-05-02T11:49:25Z</time>
      </trkpt>
      <trkpt lat="47.71481" lon="-2.73915">
        <ele>108</ele>
        <time>2013-05-02T11:49:26Z</time>
      </trkpt>
      <trkpt lat="47.71482" lon="-2.7392">
        <ele>108</ele>
        <time>2013-05-02T11:49:27Z</time>
      </trkpt>
      <trkpt lat="47.71482" lon="-2.73926">
        <ele>108</ele>
        <time>2013-05-02T11:49:28Z</time>
      </trkpt>
      <trkpt lat="47.71483" lon="-2.73932">
        <ele>108</ele>
        <time>2013-05-02T11:49:29Z</time>
      </trkpt>
      <trkpt lat="47.71484" lon="-2.73938">
        <ele>108</ele>
        <time>2013-05-02T11:49:30Z</time>
      </trkpt>
      <trkpt lat="47.71484" lon="-2.73944">
        <ele>108</ele>
        <time>2013-05-02T11:49:31Z</time>
      </trkpt>
      <trkpt lat="47.71485" lon="-2.73951">
        <ele>108</ele>
        <time>2013-05-02T11:49:32Z</time>
      </trkpt>
      <trkpt lat="47.71486" lon="-2.73958">
        <ele>108</ele>
        <time>2013-05-02T11:49:33Z</time>
      </trkpt>
      <trkpt lat="47.71487" lon="-2.73966">
        <ele>108</ele>
        <time>2013-05-02T11:49:34Z</time>
      </trkpt>
      <trkpt lat="47.71487" lon="-2.73973">
        <ele>108</ele>
        <time>2013-05-02T11:49:35Z</time>
      </trkpt>
      <trkpt lat="47.71489" lon="-2.73981">
        <ele>108</ele>
        <time>2013-05-02T11:49:36Z</time>
      </trkpt>
      <trkpt lat="47.7149" lon="-2.73989">
        <ele>108</ele>
        <time>2013-05-02T11:49:37Z</time>
      </trkpt>
      <trkpt lat="47.71492" lon="-2.73998">
        <ele>108</ele>
        <time>2013-05-02T11:49:38Z</time>
      </trkpt>
      <trkpt lat="47.71493" lon="-2.74006">
        <ele>108</ele>
        <time>2013-05-02T11:49:39Z</time>
      </trkpt>
      <trkpt lat="47.71495" lon="-2.74014">
        <ele>107</ele>
        <time>2013-05-02T11:49:40Z</time>
      </trkpt>
      <trkpt lat="47.71496" lon="-2.74022">
        <ele>106</ele>
        <time>2013-05-02T11:49:41Z</time>
      </trkpt>
      <trkpt lat="47.71497" lon="-2.7403">
        <ele>105</ele>
        <time>2013-05-02T11:49:42Z</time>
      </trkpt>
      <trkpt lat="47.71498" lon="-2.74039">
        <ele>105</ele>
        <time>2013-05-02T11:49:43Z</time>
      </trkpt>
      <trkpt lat="47.71499" lon="-2.74047">
        <ele>105</ele>
        <time>2013-05-02T11:49:44Z</time>
      </trkpt>
      <trkpt lat="47.715" lon="-2.74055">
        <ele>104</ele>
        <time>2013-05-02T11:49:45Z</time>
      </trkpt>
      <trkpt lat="47.71501" lon="-2.74062">
        <ele>104</ele>
        <time>2013-05-02T11:49:46Z</time>
      </trkpt>
      <trkpt lat="47.71501" lon="-2.74069">
        <ele>104</ele>
        <time>2013-05-02T11:49:47Z</time>
      </trkpt>
      <trkpt lat="47.71503" lon="-2.74073">
        <ele>104</ele>
        <time>2013-05-02T11:49:48Z</time>
      </trkpt>
      <trkpt lat="47.71504" lon="-2.74075">
        <ele>103</ele>
        <time>2013-05-02T11:49:49Z</time>
      </trkpt>
      <trkpt lat="47.71505" lon="-2.74077">
        <ele>103</ele>
        <time>2013-05-02T11:49:50Z</time>
      </trkpt>
      <trkpt lat="47.71507" lon="-2.74076">
        <ele>102</ele>
        <time>2013-05-02T11:49:51Z</time>
      </trkpt>
      <trkpt lat="47.71509" lon="-2.74075">
        <ele>102</ele>
        <time>2013-05-02T11:49:52Z</time>
      </trkpt>
      <trkpt lat="47.71512" lon="-2.74074">
        <ele>102</ele>
        <time>2013-05-02T11:49:53Z</time>
      </trkpt>
      <trkpt lat="47.71515" lon="-2.74073">
        <ele>101</ele>
        <time>2013-05-02T11:49:54Z</time>
      </trkpt>
      <trkpt lat="47.71518" lon="-2.74072">
        <ele>101</ele>
        <time>2013-05-02T11:49:55Z</time>
      </trkpt>
      <trkpt lat="47.71522" lon="-2.74072">
        <ele>100</ele>
        <time>2013-05-02T11:49:56Z</time>
      </trkpt>
      <trkpt lat="47.71525" lon="-2.74071">
        <ele>100</ele>
        <time>2013-05-02T11:49:57Z</time>
      </trkpt>
      <trkpt lat="47.71529" lon="-2.7407">
        <ele>100</ele>
        <time>2013-05-02T11:49:58Z</time>
      </trkpt>
      <trkpt lat="47.71532" lon="-2.74069">
        <ele>100</ele>
        <time>2013-05-02T11:49:59Z</time>
      </trkpt>
      <trkpt lat="47.71535" lon="-2.74067">
        <ele>100</ele>
        <time>2013-05-02T11:50:00Z</time>
      </trkpt>
      <trkpt lat="47.71538" lon="-2.74065">
        <ele>100</ele>
        <time>2013-05-02T11:50:01Z</time>
      </trkpt>
      <trkpt lat="47.71541" lon="-2.74064">
        <ele>100</ele>
        <time>2013-05-02T11:50:02Z</time>
      </trkpt>
      <trkpt lat="47.71543" lon="-2.74062">
        <ele>100</ele>
        <time>2013-05-02T11:50:03Z</time>
      </trkpt>
      <trkpt lat="47.71546" lon="-2.74061">
        <ele>99</ele>
        <time>2013-05-02T11:50:04Z</time>
      </trkpt>
      <trkpt lat="47.71549" lon="-2.7406">
        <ele>99</ele>
        <time>2013-05-02T11:50:05Z</time>
      </trkpt>
      <trkpt lat="47.71553" lon="-2.74058">
        <ele>99</ele>
        <time>2013-05-02T11:50:06Z</time>
      </trkpt>
      <trkpt lat="47.71556" lon="-2.74057">
        <ele>99</ele>
        <time>2013-05-02T11:50:07Z</time>
      </trkpt>
      <trkpt lat="47.71559" lon="-2.74056">
        <ele>99</ele>
        <time>2013-05-02T11:50:08Z</time>
      </trkpt>
      <trkpt lat="47.71562" lon="-2.74054">
        <ele>99</ele>
        <time>2013-05-02T11:50:09Z</time>
      </trkpt>
      <trkpt lat="47.71564" lon="-2.74053">
        <ele>99</ele>
        <time>2013-05-02T11:50:10Z</time>
      </trkpt>
      <trkpt lat="47.71567" lon="-2.74051">
        <ele>99</ele>
        <time>2013-05-02T11:50:11Z</time>
      </trkpt>
      <trkpt lat="47.7157" lon="-2.7405">
        <ele>99</ele>
        <time>2013-05-02T11:50:12Z</time>
      </trkpt>
      <trkpt lat="47.71573" lon="-2.74049">
        <ele>99</ele>
        <time>2013-05-02T11:50:13Z</time>
      </trkpt>
      <trkpt lat="47.71576" lon="-2.74048">
        <ele>99</ele>
        <time>2013-05-02T11:50:14Z</time>
      </trkpt>
      <trkpt lat="47.71579" lon="-2.74047">
        <ele>99</ele>
        <time>2013-05-02T11:50:15Z</time>
      </trkpt>
      <trkpt lat="47.71582" lon="-2.74047">
        <ele>99</ele>
        <time>2013-05-02T11:50:16Z</time>
      </trkpt>
      <trkpt lat="47.71585" lon="-2.74047">
        <ele>99</ele>
        <time>2013-05-02T11:50:17Z</time>
      </trkpt>
      <trkpt lat="47.71589" lon="-2.74047">
        <ele>99</ele>
        <time>2013-05-02T11:50:18Z</time>
      </trkpt>
      <trkpt lat="47.71591" lon="-2.74048">
        <ele>99</ele>
        <time>2013-05-02T11:50:19Z</time>
      </trkpt>
      <trkpt lat="47.71594" lon="-2.74048">
        <ele>99</ele>
        <time>2013-05-02T11:50:20Z</time>
      </trkpt>
      <trkpt lat="47.71597" lon="-2.74048">
        <ele>99</ele>
        <time>2013-05-02T11:50:21Z</time>
      </trkpt>
      <trkpt lat="47.71599" lon="-2.74048">
        <ele>99</ele>
        <time>2013-05-02T11:50:22Z</time>
      </trkpt>
      <trkpt lat="47.71601" lon="-2.74048">
        <ele>99</ele>
        <time>2013-05-02T11:50:23Z</time>
      </trkpt>
      <trkpt lat="47.71603" lon="-2.74048">
        <ele>99</ele>
        <time>2013-05-02T11:50:24Z</time>
      </trkpt>
      <trkpt lat="47.71606" lon="-2.74047">
        <ele>99</ele>
        <time>2013-05-02T11:50:25Z</time>
      </trkpt>
      <trkpt lat="47.71608" lon="-2.74046">
        <ele>99</ele>
        <time>2013-05-02T11:50:26Z</time>
      </trkpt>
      <trkpt lat="47.7161" lon="-2.74044">
        <ele>99</ele>
        <time>2013-05-02T11:50:27Z</time>
      </trkpt>
      <trkpt lat="47.71612" lon="-2.74042">
        <ele>99</ele>
        <time>2013-05-02T11:50:28Z</time>
      </trkpt>
      <trkpt lat="47.71614" lon="-2.7404">
        <ele>99</ele>
        <time>2013-05-02T11:50:29Z</time>
      </trkpt>
      <trkpt lat="47.71616" lon="-2.74038">
        <ele>99</ele>
        <time>2013-05-02T11:50:30Z</time>
      </trkpt>
      <trkpt lat="47.71618" lon="-2.74035">
        <ele>99</ele>
        <time>2013-05-02T11:50:31Z</time>
      </trkpt>
      <trkpt lat="47.7162" lon="-2.74032">
        <ele>99</ele>
        <time>2013-05-02T11:50:32Z</time>
      </trkpt>
      <trkpt lat="47.71621" lon="-2.7403">
        <ele>100</ele>
        <time>2013-05-02T11:50:33Z</time>
      </trkpt>
      <trkpt lat="47.71624" lon="-2.74028">
        <ele>100</ele>
        <time>2013-05-02T11:50:34Z</time>
      </trkpt>
      <trkpt lat="47.71626" lon="-2.74027">
        <ele>100</ele>
        <time>2013-05-02T11:50:35Z</time>
      </trkpt>
      <trkpt lat="47.71628" lon="-2.74026">
        <ele>100</ele>
        <time>2013-05-02T11:50:36Z</time>
      </trkpt>
      <trkpt lat="47.71631" lon="-2.74026">
        <ele>100</ele>
        <time>2013-05-02T11:50:37Z</time>
      </trkpt>
      <trkpt lat="47.71633" lon="-2.74026">
        <ele>101</ele>
        <time>2013-05-02T11:50:38Z</time>
      </trkpt>
      <trkpt lat="47.71636" lon="-2.74026">
        <ele>101</ele>
        <time>2013-05-02T11:50:39Z</time>
      </trkpt>
      <trkpt lat="47.71638" lon="-2.74026">
        <ele>101</ele>
        <time>2013-05-02T11:50:40Z</time>
      </trkpt>
      <trkpt lat="47.7164" lon="-2.74027">
        <ele>101</ele>
        <time>2013-05-02T11:50:41Z</time>
      </trkpt>
      <trkpt lat="47.71643" lon="-2.74027">
        <ele>102</ele>
        <time>2013-05-02T11:50:42Z</time>
      </trkpt>
      <trkpt lat="47.71645" lon="-2.74028">
        <ele>102</ele>
        <time>2013-05-02T11:50:43Z</time>
      </trkpt>
      <trkpt lat="47.71647" lon="-2.74028">
        <ele>102</ele>
        <time>2013-05-02T11:50:44Z</time>
      </trkpt>
      <trkpt lat="47.71649" lon="-2.74028">
        <ele>103</ele>
        <time>2013-05-02T11:50:45Z</time>
      </trkpt>
      <trkpt lat="47.71652" lon="-2.74027">
        <ele>103</ele>
        <time>2013-05-02T11:50:46Z</time>
      </trkpt>
      <trkpt lat="47.71655" lon="-2.74025">
        <ele>103</ele>
        <time>2013-05-02T11:50:47Z</time>
      </trkpt>
      <trkpt lat="47.71657" lon="-2.74022">
        <ele>104</ele>
        <time>2013-05-02T11:50:48Z</time>
      </trkpt>
      <trkpt lat="47.71659" lon="-2.74019">
        <ele>104</ele>
        <time>2013-05-02T11:50:49Z</time>
      </trkpt>
      <trkpt lat="47.71661" lon="-2.74016">
        <ele>104</ele>
        <time>2013-05-02T11:50:50Z</time>
      </trkpt>
      <trkpt lat="47.71661" lon="-2.74012">
        <ele>105</ele>
        <time>2013-05-02T11:50:51Z</time>
      </trkpt>
      <trkpt lat="47.71663" lon="-2.74008">
        <ele>105</ele>
        <time>2013-05-02T11:50:52Z</time>
      </trkpt>
      <trkpt lat="47.71664" lon="-2.74004">
        <ele>106</ele>
        <time>2013-05-02T11:50:53Z</time>
      </trkpt>
      <trkpt lat="47.71666" lon="-2.74">
        <ele>106</ele>
        <time>2013-05-02T11:50:54Z</time>
      </trkpt>
      <trkpt lat="47.71668" lon="-2.73997">
        <ele>106</ele>
        <time>2013-05-02T11:50:55Z</time>
      </trkpt>
      <trkpt lat="47.71671" lon="-2.73994">
        <ele>107</ele>
        <time>2013-05-02T11:50:56Z</time>
      </trkpt>
      <trkpt lat="47.71674" lon="-2.73992">
        <ele>107</ele>
        <time>2013-05-02T11:50:57Z</time>
      </trkpt>
      <trkpt lat="47.71676" lon="-2.73989">
        <ele>107</ele>
        <time>2013-05-02T11:50:58Z</time>
      </trkpt>
      <trkpt lat="47.71679" lon="-2.73986">
        <ele>107</ele>
        <time>2013-05-02T11:50:59Z</time>
      </trkpt>
      <trkpt lat="47.71682" lon="-2.73985">
        <ele>108</ele>
        <time>2013-05-02T11:51:00Z</time>
      </trkpt>
      <trkpt lat="47.71685" lon="-2.73984">
        <ele>108</ele>
        <time>2013-05-02T11:51:01Z</time>
      </trkpt>
      <trkpt lat="47.71688" lon="-2.73984">
        <ele>108</ele>
        <time>2013-05-02T11:51:02Z</time>
      </trkpt>
      <trkpt lat="47.71691" lon="-2.73984">
        <ele>108</ele>
        <time>2013-05-02T11:51:03Z</time>
      </trkpt>
      <trkpt lat="47.71694" lon="-2.73983">
        <ele>108</ele>
        <time>2013-05-02T11:51:04Z</time>
      </trkpt>
      <trkpt lat="47.71696" lon="-2.73983">
        <ele>108</ele>
        <time>2013-05-02T11:51:05Z</time>
      </trkpt>
      <trkpt lat="47.71699" lon="-2.73982">
        <ele>108</ele>
        <time>2013-05-02T11:51:06Z</time>
      </trkpt>
      <trkpt lat="47.71703" lon="-2.73981">
        <ele>108</ele>
        <time>2013-05-02T11:51:07Z</time>
      </trkpt>
      <trkpt lat="47.71705" lon="-2.73979">
        <ele>108</ele>
        <time>2013-05-02T11:51:08Z</time>
      </trkpt>
      <trkpt lat="47.71708" lon="-2.73976">
        <ele>108</ele>
        <time>2013-05-02T11:51:09Z</time>
      </trkpt>
      <trkpt lat="47.7171" lon="-2.73972">
        <ele>108</ele>
        <time>2013-05-02T11:51:10Z</time>
      </trkpt>
      <trkpt lat="47.71712" lon="-2.73968">
        <ele>108</ele>
        <time>2013-05-02T11:51:11Z</time>
      </trkpt>
      <trkpt lat="47.71714" lon="-2.73963">
        <ele>108</ele>
        <time>2013-05-02T11:51:12Z</time>
      </trkpt>
      <trkpt lat="47.71716" lon="-2.7396">
        <ele>108</ele>
        <time>2013-05-02T11:51:13Z</time>
      </trkpt>
      <trkpt lat="47.71719" lon="-2.73956">
        <ele>108</ele>
        <time>2013-05-02T11:51:14Z</time>
      </trkpt>
      <trkpt lat="47.71721" lon="-2.73953">
        <ele>108</ele>
        <time>2013-05-02T11:51:15Z</time>
      </trkpt>
      <trkpt lat="47.71723" lon="-2.7395">
        <ele>108</ele>
        <time>2013-05-02T11:51:16Z</time>
      </trkpt>
      <trkpt lat="47.71725" lon="-2.73948">
        <ele>108</ele>
        <time>2013-05-02T11:51:17Z</time>
      </trkpt>
      <trkpt lat="47.71725" lon="-2.73946">
        <ele>109</ele>
        <time>2013-05-02T11:51:18Z</time>
      </trkpt>
      <trkpt lat="47.71731" lon="-2.73939">
        <ele>111</ele>
        <time>2013-05-02T11:51:22Z</time>
      </trkpt>
      <trkpt lat="47.71733" lon="-2.73938">
        <ele>111</ele>
        <time>2013-05-02T11:51:23Z</time>
      </trkpt>
      <trkpt lat="47.71735" lon="-2.73936">
        <ele>111</ele>
        <time>2013-05-02T11:51:24Z</time>
      </trkpt>
      <trkpt lat="47.71737" lon="-2.73934">
        <ele>111</ele>
        <time>2013-05-02T11:51:25Z</time>
      </trkpt>
      <trkpt lat="47.71739" lon="-2.73931">
        <ele>111</ele>
        <time>2013-05-02T11:51:26Z</time>
      </trkpt>
      <trkpt lat="47.71741" lon="-2.73929">
        <ele>111</ele>
        <time>2013-05-02T11:51:27Z</time>
      </trkpt>
      <trkpt lat="47.71743" lon="-2.73927">
        <ele>111</ele>
        <time>2013-05-02T11:51:28Z</time>
      </trkpt>
      <trkpt lat="47.71744" lon="-2.73924">
        <ele>111</ele>
        <time>2013-05-02T11:51:29Z</time>
      </trkpt>
      <trkpt lat="47.71745" lon="-2.73922">
        <ele>111</ele>
        <time>2013-05-02T11:51:30Z</time>
      </trkpt>
      <trkpt lat="47.71746" lon="-2.73919">
        <ele>111</ele>
        <time>2013-05-02T11:51:31Z</time>
      </trkpt>
      <trkpt lat="47.71746" lon="-2.73915">
        <ele>111</ele>
        <time>2013-05-02T11:51:32Z</time>
      </trkpt>
      <trkpt lat="47.71746" lon="-2.7391">
        <ele>111</ele>
        <time>2013-05-02T11:51:33Z</time>
      </trkpt>
      <trkpt lat="47.71747" lon="-2.73906">
        <ele>111</ele>
        <time>2013-05-02T11:51:34Z</time>
      </trkpt>
      <trkpt lat="47.71747" lon="-2.73901">
        <ele>111</ele>
        <time>2013-05-02T11:51:35Z</time>
      </trkpt>
      <trkpt lat="47.71746" lon="-2.73897">
        <ele>111</ele>
        <time>2013-05-02T11:51:36Z</time>
      </trkpt>
      <trkpt lat="47.71745" lon="-2.73892">
        <ele>111</ele>
        <time>2013-05-02T11:51:37Z</time>
      </trkpt>
      <trkpt lat="47.71745" lon="-2.73887">
        <ele>111</ele>
        <time>2013-05-02T11:51:38Z</time>
      </trkpt>
      <trkpt lat="47.71743" lon="-2.73883">
        <ele>110</ele>
        <time>2013-05-02T11:51:39Z</time>
      </trkpt>
      <trkpt lat="47.71741" lon="-2.73879">
        <ele>110</ele>
        <time>2013-05-02T11:51:40Z</time>
      </trkpt>
      <trkpt lat="47.7174" lon="-2.73874">
        <ele>110</ele>
        <time>2013-05-02T11:51:41Z</time>
      </trkpt>
      <trkpt lat="47.71739" lon="-2.73871">
        <ele>110</ele>
        <time>2013-05-02T11:51:42Z</time>
      </trkpt>
      <trkpt lat="47.71738" lon="-2.73867">
        <ele>109</ele>
        <time>2013-05-02T11:51:43Z</time>
      </trkpt>
      <trkpt lat="47.71738" lon="-2.73863">
        <ele>109</ele>
        <time>2013-05-02T11:51:44Z</time>
      </trkpt>
      <trkpt lat="47.71738" lon="-2.73859">
        <ele>109</ele>
        <time>2013-05-02T11:51:45Z</time>
      </trkpt>
      <trkpt lat="47.71739" lon="-2.73856">
        <ele>108</ele>
        <time>2013-05-02T11:51:46Z</time>
      </trkpt>
      <trkpt lat="47.7174" lon="-2.73853">
        <ele>108</ele>
        <time>2013-05-02T11:51:47Z</time>
      </trkpt>
      <trkpt lat="47.71741" lon="-2.73852">
        <ele>108</ele>
        <time>2013-05-02T11:51:48Z</time>
      </trkpt>
      <trkpt lat="47.71742" lon="-2.7385">
        <ele>107</ele>
        <time>2013-05-02T11:51:49Z</time>
      </trkpt>
      <trkpt lat="47.71742" lon="-2.73848">
        <ele>107</ele>
        <time>2013-05-02T11:51:50Z</time>
      </trkpt>
      <trkpt lat="47.71742" lon="-2.73845">
        <ele>107</ele>
        <time>2013-05-02T11:51:51Z</time>
      </trkpt>
      <trkpt lat="47.71741" lon="-2.73841">
        <ele>106</ele>
        <time>2013-05-02T11:51:52Z</time>
      </trkpt>
      <trkpt lat="47.71741" lon="-2.73838">
        <ele>106</ele>
        <time>2013-05-02T11:51:53Z</time>
      </trkpt>
      <trkpt lat="47.7174" lon="-2.73834">
        <ele>106</ele>
        <time>2013-05-02T11:51:54Z</time>
      </trkpt>
      <trkpt lat="47.7174" lon="-2.73831">
        <ele>105</ele>
        <time>2013-05-02T11:51:55Z</time>
      </trkpt>
      <trkpt lat="47.71742" lon="-2.7383">
        <ele>105</ele>
        <time>2013-05-02T11:51:57Z</time>
      </trkpt>
      <trkpt lat="47.71744" lon="-2.73833">
        <ele>104</ele>
        <time>2013-05-02T11:51:59Z</time>
      </trkpt>
      <trkpt lat="47.71746" lon="-2.73834">
        <ele>104</ele>
        <time>2013-05-02T11:52:00Z</time>
      </trkpt>
      <trkpt lat="47.71747" lon="-2.73835">
        <ele>103</ele>
        <time>2013-05-02T11:52:01Z</time>
      </trkpt>
      <trkpt lat="47.71749" lon="-2.73838">
        <ele>102</ele>
        <time>2013-05-02T11:52:03Z</time>
      </trkpt>
      <trkpt lat="47.7175" lon="-2.73839">
        <ele>101</ele>
        <time>2013-05-02T11:52:04Z</time>
      </trkpt>
      <trkpt lat="47.71751" lon="-2.7384">
        <ele>100</ele>
        <time>2013-05-02T11:52:07Z</time>
      </trkpt>
      <trkpt lat="47.71757" lon="-2.7385">
        <ele>100</ele>
        <time>2013-05-02T11:52:08Z</time>
      </trkpt>
      <trkpt lat="47.71758" lon="-2.73853">
        <ele>99</ele>
        <time>2013-05-02T11:52:09Z</time>
      </trkpt>
      <trkpt lat="47.71761" lon="-2.73856">
        <ele>99</ele>
        <time>2013-05-02T11:52:10Z</time>
      </trkpt>
      <trkpt lat="47.71764" lon="-2.73857">
        <ele>99</ele>
        <time>2013-05-02T11:52:11Z</time>
      </trkpt>
      <trkpt lat="47.71768" lon="-2.73858">
        <ele>99</ele>
        <time>2013-05-02T11:52:12Z</time>
      </trkpt>
      <trkpt lat="47.71773" lon="-2.73859">
        <ele>99</ele>
        <time>2013-05-02T11:52:13Z</time>
      </trkpt>
      <trkpt lat="47.71778" lon="-2.73859">
        <ele>99</ele>
        <time>2013-05-02T11:52:14Z</time>
      </trkpt>
      <trkpt lat="47.71784" lon="-2.7386">
        <ele>99</ele>
        <time>2013-05-02T11:52:15Z</time>
      </trkpt>
      <trkpt lat="47.71789" lon="-2.73861">
        <ele>98</ele>
        <time>2013-05-02T11:52:16Z</time>
      </trkpt>
      <trkpt lat="47.71793" lon="-2.73864">
        <ele>98</ele>
        <time>2013-05-02T11:52:17Z</time>
      </trkpt>
      <trkpt lat="47.71798" lon="-2.73867">
        <ele>98</ele>
        <time>2013-05-02T11:52:18Z</time>
      </trkpt>
      <trkpt lat="47.71799" lon="-2.73872">
        <ele>97</ele>
        <time>2013-05-02T11:52:19Z</time>
      </trkpt>
      <trkpt lat="47.71801" lon="-2.73876">
        <ele>97</ele>
        <time>2013-05-02T11:52:20Z</time>
      </trkpt>
      <trkpt lat="47.71803" lon="-2.7388">
        <ele>96</ele>
        <time>2013-05-02T11:52:21Z</time>
      </trkpt>
      <trkpt lat="47.71804" lon="-2.73881">
        <ele>96</ele>
        <time>2013-05-02T11:52:22Z</time>
      </trkpt>
      <trkpt lat="47.71806" lon="-2.73881">
        <ele>95</ele>
        <time>2013-05-02T11:52:23Z</time>
      </trkpt>
      <trkpt lat="47.71808" lon="-2.73879">
        <ele>95</ele>
        <time>2013-05-02T11:52:24Z</time>
      </trkpt>
      <trkpt lat="47.71811" lon="-2.73876">
        <ele>95</ele>
        <time>2013-05-02T11:52:25Z</time>
      </trkpt>
      <trkpt lat="47.71813" lon="-2.73873">
        <ele>95</ele>
        <time>2013-05-02T11:52:26Z</time>
      </trkpt>
      <trkpt lat="47.71815" lon="-2.7387">
        <ele>95</ele>
        <time>2013-05-02T11:52:27Z</time>
      </trkpt>
      <trkpt lat="47.71818" lon="-2.73867">
        <ele>95</ele>
        <time>2013-05-02T11:52:28Z</time>
      </trkpt>
      <trkpt lat="47.7182" lon="-2.73865">
        <ele>95</ele>
        <time>2013-05-02T11:52:29Z</time>
      </trkpt>
      <trkpt lat="47.71824" lon="-2.73862">
        <ele>95</ele>
        <time>2013-05-02T11:52:30Z</time>
      </trkpt>
      <trkpt lat="47.71827" lon="-2.7386">
        <ele>95</ele>
        <time>2013-05-02T11:52:31Z</time>
      </trkpt>
      <trkpt lat="47.7183" lon="-2.73856">
        <ele>95</ele>
        <time>2013-05-02T11:52:32Z</time>
      </trkpt>
      <trkpt lat="47.71833" lon="-2.73854">
        <ele>95</ele>
        <time>2013-05-02T11:52:33Z</time>
      </trkpt>
      <trkpt lat="47.71837" lon="-2.7385">
        <ele>95</ele>
        <time>2013-05-02T11:52:34Z</time>
      </trkpt>
      <trkpt lat="47.71841" lon="-2.73847">
        <ele>95</ele>
        <time>2013-05-02T11:52:35Z</time>
      </trkpt>
      <trkpt lat="47.71844" lon="-2.73844">
        <ele>95</ele>
        <time>2013-05-02T11:52:36Z</time>
      </trkpt>
      <trkpt lat="47.71847" lon="-2.73841">
        <ele>95</ele>
        <time>2013-05-02T11:52:37Z</time>
      </trkpt>
      <trkpt lat="47.7185" lon="-2.73838">
        <ele>95</ele>
        <time>2013-05-02T11:52:38Z</time>
      </trkpt>
      <trkpt lat="47.71853" lon="-2.73836">
        <ele>95</ele>
        <time>2013-05-02T11:52:39Z</time>
      </trkpt>
      <trkpt lat="47.71855" lon="-2.73834">
        <ele>95</ele>
        <time>2013-05-02T11:52:40Z</time>
      </trkpt>
      <trkpt lat="47.71857" lon="-2.73832">
        <ele>95</ele>
        <time>2013-05-02T11:52:41Z</time>
      </trkpt>
      <trkpt lat="47.7186" lon="-2.7383">
        <ele>95</ele>
        <time>2013-05-02T11:52:42Z</time>
      </trkpt>
      <trkpt lat="47.71862" lon="-2.73828">
        <ele>95</ele>
        <time>2013-05-02T11:52:43Z</time>
      </trkpt>
      <trkpt lat="47.71864" lon="-2.73825">
        <ele>95</ele>
        <time>2013-05-02T11:52:44Z</time>
      </trkpt>
      <trkpt lat="47.71867" lon="-2.73823">
        <ele>95</ele>
        <time>2013-05-02T11:52:45Z</time>
      </trkpt>
      <trkpt lat="47.71871" lon="-2.73821">
        <ele>95</ele>
        <time>2013-05-02T11:52:46Z</time>
      </trkpt>
      <trkpt lat="47.71875" lon="-2.73818">
        <ele>95</ele>
        <time>2013-05-02T11:52:47Z</time>
      </trkpt>
      <trkpt lat="47.71878" lon="-2.73816">
        <ele>95</ele>
        <time>2013-05-02T11:52:48Z</time>
      </trkpt>
      <trkpt lat="47.71881" lon="-2.73812">
        <ele>95</ele>
        <time>2013-05-02T11:52:49Z</time>
      </trkpt>
      <trkpt lat="47.71885" lon="-2.73809">
        <ele>95</ele>
        <time>2013-05-02T11:52:50Z</time>
      </trkpt>
      <trkpt lat="47.71888" lon="-2.73806">
        <ele>95</ele>
        <time>2013-05-02T11:52:51Z</time>
      </trkpt>
      <trkpt lat="47.71892" lon="-2.73804">
        <ele>95</ele>
        <time>2013-05-02T11:52:52Z</time>
      </trkpt>
      <trkpt lat="47.71895" lon="-2.73802">
        <ele>95</ele>
        <time>2013-05-02T11:52:53Z</time>
      </trkpt>
      <trkpt lat="47.71897" lon="-2.73799">
        <ele>95</ele>
        <time>2013-05-02T11:52:54Z</time>
      </trkpt>
      <trkpt lat="47.719" lon="-2.73797">
        <ele>95</ele>
        <time>2013-05-02T11:52:55Z</time>
      </trkpt>
      <trkpt lat="47.71903" lon="-2.73794">
        <ele>95</ele>
        <time>2013-05-02T11:52:56Z</time>
      </trkpt>
      <trkpt lat="47.71906" lon="-2.73791">
        <ele>95</ele>
        <time>2013-05-02T11:52:57Z</time>
      </trkpt>
      <trkpt lat="47.7191" lon="-2.73788">
        <ele>95</ele>
        <time>2013-05-02T11:52:58Z</time>
      </trkpt>
      <trkpt lat="47.71913" lon="-2.73785">
        <ele>95</ele>
        <time>2013-05-02T11:52:59Z</time>
      </trkpt>
      <trkpt lat="47.71916" lon="-2.73781">
        <ele>95</ele>
        <time>2013-05-02T11:53:00Z</time>
      </trkpt>
      <trkpt lat="47.7192" lon="-2.73778">
        <ele>95</ele>
        <time>2013-05-02T11:53:01Z</time>
      </trkpt>
      <trkpt lat="47.71924" lon="-2.73775">
        <ele>95</ele>
        <time>2013-05-02T11:53:02Z</time>
      </trkpt>
      <trkpt lat="47.71928" lon="-2.73773">
        <ele>96</ele>
        <time>2013-05-02T11:53:03Z</time>
      </trkpt>
      <trkpt lat="47.7193" lon="-2.73771">
        <ele>96</ele>
        <time>2013-05-02T11:53:04Z</time>
      </trkpt>
      <trkpt lat="47.71932" lon="-2.73768">
        <ele>97</ele>
        <time>2013-05-02T11:53:05Z</time>
      </trkpt>
      <trkpt lat="47.71932" lon="-2.73765">
        <ele>97</ele>
        <time>2013-05-02T11:53:06Z</time>
      </trkpt>
      <trkpt lat="47.71931" lon="-2.73762">
        <ele>98</ele>
        <time>2013-05-02T11:53:07Z</time>
      </trkpt>
      <trkpt lat="47.71928" lon="-2.73761">
        <ele>98</ele>
        <time>2013-05-02T11:53:08Z</time>
      </trkpt>
      <trkpt lat="47.71926" lon="-2.73758">
        <ele>98</ele>
        <time>2013-05-02T11:53:09Z</time>
      </trkpt>
      <trkpt lat="47.71924" lon="-2.73756">
        <ele>99</ele>
        <time>2013-05-02T11:53:10Z</time>
      </trkpt>
      <trkpt lat="47.71922" lon="-2.73754">
        <ele>99</ele>
        <time>2013-05-02T11:53:11Z</time>
      </trkpt>
      <trkpt lat="47.7192" lon="-2.73752">
        <ele>99</ele>
        <time>2013-05-02T11:53:12Z</time>
      </trkpt>
      <trkpt lat="47.71919" lon="-2.7375">
        <ele>99</ele>
        <time>2013-05-02T11:53:13Z</time>
      </trkpt>
      <trkpt lat="47.71918" lon="-2.73746">
        <ele>100</ele>
        <time>2013-05-02T11:53:14Z</time>
      </trkpt>
      <trkpt lat="47.71919" lon="-2.73743">
        <ele>100</ele>
        <time>2013-05-02T11:53:15Z</time>
      </trkpt>
      <trkpt lat="47.7192" lon="-2.7374">
        <ele>100</ele>
        <time>2013-05-02T11:53:16Z</time>
      </trkpt>
      <trkpt lat="47.71922" lon="-2.73737">
        <ele>100</ele>
        <time>2013-05-02T11:53:17Z</time>
      </trkpt>
      <trkpt lat="47.71923" lon="-2.73735">
        <ele>100</ele>
        <time>2013-05-02T11:53:18Z</time>
      </trkpt>
      <trkpt lat="47.71923" lon="-2.73732">
        <ele>100</ele>
        <time>2013-05-02T11:53:19Z</time>
      </trkpt>
      <trkpt lat="47.71923" lon="-2.7373">
        <ele>100</ele>
        <time>2013-05-02T11:53:20Z</time>
      </trkpt>
      <trkpt lat="47.71925" lon="-2.73726">
        <ele>101</ele>
        <time>2013-05-02T11:53:21Z</time>
      </trkpt>
      <trkpt lat="47.71926" lon="-2.73724">
        <ele>101</ele>
        <time>2013-05-02T11:53:22Z</time>
      </trkpt>
      <trkpt lat="47.71927" lon="-2.73721">
        <ele>101</ele>
        <time>2013-05-02T11:53:23Z</time>
      </trkpt>
      <trkpt lat="47.71928" lon="-2.73718">
        <ele>101</ele>
        <time>2013-05-02T11:53:24Z</time>
      </trkpt>
      <trkpt lat="47.71929" lon="-2.73716">
        <ele>101</ele>
        <time>2013-05-02T11:53:25Z</time>
      </trkpt>
      <trkpt lat="47.71931" lon="-2.73714">
        <ele>101</ele>
        <time>2013-05-02T11:53:26Z</time>
      </trkpt>
      <trkpt lat="47.71933" lon="-2.73712">
        <ele>101</ele>
        <time>2013-05-02T11:53:27Z</time>
      </trkpt>
      <trkpt lat="47.71936" lon="-2.7371">
        <ele>101</ele>
        <time>2013-05-02T11:53:28Z</time>
      </trkpt>
      <trkpt lat="47.71938" lon="-2.73707">
        <ele>101</ele>
        <time>2013-05-02T11:53:29Z</time>
      </trkpt>
      <trkpt lat="47.71941" lon="-2.73705">
        <ele>101</ele>
        <time>2013-05-02T11:53:30Z</time>
      </trkpt>
      <trkpt lat="47.71943" lon="-2.73703">
        <ele>101</ele>
        <time>2013-05-02T11:53:31Z</time>
      </trkpt>
      <trkpt lat="47.71945" lon="-2.73702">
        <ele>101</ele>
        <time>2013-05-02T11:53:32Z</time>
      </trkpt>
      <trkpt lat="47.71947" lon="-2.73699">
        <ele>101</ele>
        <time>2013-05-02T11:53:33Z</time>
      </trkpt>
      <trkpt lat="47.71949" lon="-2.73697">
        <ele>101</ele>
        <time>2013-05-02T11:53:34Z</time>
      </trkpt>
      <trkpt lat="47.71951" lon="-2.73694">
        <ele>101</ele>
        <time>2013-05-02T11:53:35Z</time>
      </trkpt>
      <trkpt lat="47.71952" lon="-2.73692">
        <ele>101</ele>
        <time>2013-05-02T11:53:36Z</time>
      </trkpt>
      <trkpt lat="47.71953" lon="-2.7369">
        <ele>101</ele>
        <time>2013-05-02T11:53:37Z</time>
      </trkpt>
      <trkpt lat="47.71953" lon="-2.73688">
        <ele>101</ele>
        <time>2013-05-02T11:53:38Z</time>
      </trkpt>
      <trkpt lat="47.71954" lon="-2.73684">
        <ele>101</ele>
        <time>2013-05-02T11:53:39Z</time>
      </trkpt>
      <trkpt lat="47.71954" lon="-2.73681">
        <ele>101</ele>
        <time>2013-05-02T11:53:40Z</time>
      </trkpt>
      <trkpt lat="47.71954" lon="-2.73678">
        <ele>101</ele>
        <time>2013-05-02T11:53:41Z</time>
      </trkpt>
      <trkpt lat="47.71954" lon="-2.73675">
        <ele>101</ele>
        <time>2013-05-02T11:53:42Z</time>
      </trkpt>
      <trkpt lat="47.71954" lon="-2.73672">
        <ele>101</ele>
        <time>2013-05-02T11:53:43Z</time>
      </trkpt>
      <trkpt lat="47.71954" lon="-2.73667">
        <ele>101</ele>
        <time>2013-05-02T11:53:44Z</time>
      </trkpt>
      <trkpt lat="47.71954" lon="-2.73664">
        <ele>101</ele>
        <time>2013-05-02T11:53:45Z</time>
      </trkpt>
      <trkpt lat="47.71954" lon="-2.73661">
        <ele>102</ele>
        <time>2013-05-02T11:53:46Z</time>
      </trkpt>
      <trkpt lat="47.71954" lon="-2.73658">
        <ele>103</ele>
        <time>2013-05-02T11:53:47Z</time>
      </trkpt>
      <trkpt lat="47.71954" lon="-2.73655">
        <ele>103</ele>
        <time>2013-05-02T11:53:48Z</time>
      </trkpt>
      <trkpt lat="47.71953" lon="-2.73651">
        <ele>104</ele>
        <time>2013-05-02T11:53:49Z</time>
      </trkpt>
      <trkpt lat="47.71953" lon="-2.73649">
        <ele>104</ele>
        <time>2013-05-02T11:53:50Z</time>
      </trkpt>
      <trkpt lat="47.71954" lon="-2.73646">
        <ele>104</ele>
        <time>2013-05-02T11:53:51Z</time>
      </trkpt>
      <trkpt lat="47.71954" lon="-2.73643">
        <ele>104</ele>
        <time>2013-05-02T11:53:52Z</time>
      </trkpt>
      <trkpt lat="47.71953" lon="-2.7364">
        <ele>105</ele>
        <time>2013-05-02T11:53:53Z</time>
      </trkpt>
      <trkpt lat="47.71954" lon="-2.73637">
        <ele>105</ele>
        <time>2013-05-02T11:53:54Z</time>
      </trkpt>
      <trkpt lat="47.71954" lon="-2.73635">
        <ele>105</ele>
        <time>2013-05-02T11:53:55Z</time>
      </trkpt>
      <trkpt lat="47.71954" lon="-2.73632">
        <ele>105</ele>
        <time>2013-05-02T11:53:56Z</time>
      </trkpt>
      <trkpt lat="47.71955" lon="-2.73629">
        <ele>105</ele>
        <time>2013-05-02T11:53:57Z</time>
      </trkpt>
      <trkpt lat="47.71957" lon="-2.73627">
        <ele>105</ele>
        <time>2013-05-02T11:53:58Z</time>
      </trkpt>
      <trkpt lat="47.71957" lon="-2.73624">
        <ele>105</ele>
        <time>2013-05-02T11:53:59Z</time>
      </trkpt>
      <trkpt lat="47.71958" lon="-2.73622">
        <ele>105</ele>
        <time>2013-05-02T11:54:00Z</time>
      </trkpt>
      <trkpt lat="47.7196" lon="-2.7362">
        <ele>105</ele>
        <time>2013-05-02T11:54:01Z</time>
      </trkpt>
      <trkpt lat="47.71962" lon="-2.73617">
        <ele>106</ele>
        <time>2013-05-02T11:54:02Z</time>
      </trkpt>
      <trkpt lat="47.71963" lon="-2.73615">
        <ele>106</ele>
        <time>2013-05-02T11:54:03Z</time>
      </trkpt>
      <trkpt lat="47.71964" lon="-2.73612">
        <ele>107</ele>
        <time>2013-05-02T11:54:04Z</time>
      </trkpt>
      <trkpt lat="47.71966" lon="-2.7361">
        <ele>107</ele>
        <time>2013-05-02T11:54:05Z</time>
      </trkpt>
      <trkpt lat="47.71967" lon="-2.73607">
        <ele>107</ele>
        <time>2013-05-02T11:54:06Z</time>
      </trkpt>
      <trkpt lat="47.71969" lon="-2.73604">
        <ele>107</ele>
        <time>2013-05-02T11:54:07Z</time>
      </trkpt>
      <trkpt lat="47.7197" lon="-2.73602">
        <ele>108</ele>
        <time>2013-05-02T11:54:08Z</time>
      </trkpt>
      <trkpt lat="47.71972" lon="-2.73599">
        <ele>108</ele>
        <time>2013-05-02T11:54:09Z</time>
      </trkpt>
      <trkpt lat="47.71973" lon="-2.73597">
        <ele>108</ele>
        <time>2013-05-02T11:54:10Z</time>
      </trkpt>
      <trkpt lat="47.71974" lon="-2.73595">
        <ele>108</ele>
        <time>2013-05-02T11:54:11Z</time>
      </trkpt>
      <trkpt lat="47.71975" lon="-2.73593">
        <ele>108</ele>
        <time>2013-05-02T11:54:12Z</time>
      </trkpt>
      <trkpt lat="47.71977" lon="-2.7359">
        <ele>109</ele>
        <time>2013-05-02T11:54:14Z</time>
      </trkpt>
      <trkpt lat="47.71978" lon="-2.73587">
        <ele>109</ele>
        <time>2013-05-02T11:54:15Z</time>
      </trkpt>
      <trkpt lat="47.71978" lon="-2.73586">
        <ele>109</ele>
        <time>2013-05-02T11:54:16Z</time>
      </trkpt>
      <trkpt lat="47.7198" lon="-2.73584">
        <ele>109</ele>
        <time>2013-05-02T11:54:17Z</time>
      </trkpt>
      <trkpt lat="47.71981" lon="-2.73584">
        <ele>109</ele>
        <time>2013-05-02T11:54:18Z</time>
      </trkpt>
      <trkpt lat="47.71982" lon="-2.73583">
        <ele>109</ele>
        <time>2013-05-02T11:54:19Z</time>
      </trkpt>
      <trkpt lat="47.71983" lon="-2.73582">
        <ele>109</ele>
        <time>2013-05-02T11:54:20Z</time>
      </trkpt>
      <trkpt lat="47.71985" lon="-2.73581">
        <ele>109</ele>
        <time>2013-05-02T11:54:21Z</time>
      </trkpt>
      <trkpt lat="47.71986" lon="-2.7358">
        <ele>109</ele>
        <time>2013-05-02T11:54:22Z</time>
      </trkpt>
      <trkpt lat="47.71988" lon="-2.73579">
        <ele>109</ele>
        <time>2013-05-02T11:54:23Z</time>
      </trkpt>
      <trkpt lat="47.71989" lon="-2.73577">
        <ele>109</ele>
        <time>2013-05-02T11:54:24Z</time>
      </trkpt>
      <trkpt lat="47.71991" lon="-2.73576">
        <ele>109</ele>
        <time>2013-05-02T11:54:25Z</time>
      </trkpt>
      <trkpt lat="47.71992" lon="-2.73574">
        <ele>109</ele>
        <time>2013-05-02T11:54:26Z</time>
      </trkpt>
      <trkpt lat="47.71994" lon="-2.73572">
        <ele>109</ele>
        <time>2013-05-02T11:54:27Z</time>
      </trkpt>
      <trkpt lat="47.71995" lon="-2.7357">
        <ele>109</ele>
        <time>2013-05-02T11:54:28Z</time>
      </trkpt>
      <trkpt lat="47.71996" lon="-2.73568">
        <ele>109</ele>
        <time>2013-05-02T11:54:29Z</time>
      </trkpt>
      <trkpt lat="47.71997" lon="-2.73566">
        <ele>110</ele>
        <time>2013-05-02T11:54:30Z</time>
      </trkpt>
      <trkpt lat="47.71999" lon="-2.73565">
        <ele>110</ele>
        <time>2013-05-02T11:54:31Z</time>
      </trkpt>
      <trkpt lat="47.72" lon="-2.73563">
        <ele>111</ele>
        <time>2013-05-02T11:54:32Z</time>
      </trkpt>
      <trkpt lat="47.72001" lon="-2.7356">
        <ele>111</ele>
        <time>2013-05-02T11:54:33Z</time>
      </trkpt>
      <trkpt lat="47.72002" lon="-2.73559">
        <ele>111</ele>
        <time>2013-05-02T11:54:34Z</time>
      </trkpt>
      <trkpt lat="47.72004" lon="-2.73558">
        <ele>111</ele>
        <time>2013-05-02T11:54:35Z</time>
      </trkpt>
      <trkpt lat="47.72006" lon="-2.73555">
        <ele>111</ele>
        <time>2013-05-02T11:54:36Z</time>
      </trkpt>
      <trkpt lat="47.72008" lon="-2.73552">
        <ele>111</ele>
        <time>2013-05-02T11:54:37Z</time>
      </trkpt>
      <trkpt lat="47.7201" lon="-2.7355">
        <ele>111</ele>
        <time>2013-05-02T11:54:38Z</time>
      </trkpt>
      <trkpt lat="47.72012" lon="-2.73548">
        <ele>112</ele>
        <time>2013-05-02T11:54:39Z</time>
      </trkpt>
      <trkpt lat="47.72014" lon="-2.73546">
        <ele>112</ele>
        <time>2013-05-02T11:54:40Z</time>
      </trkpt>
      <trkpt lat="47.72016" lon="-2.73544">
        <ele>112</ele>
        <time>2013-05-02T11:54:41Z</time>
      </trkpt>
      <trkpt lat="47.72018" lon="-2.73543">
        <ele>112</ele>
        <time>2013-05-02T11:54:42Z</time>
      </trkpt>
      <trkpt lat="47.7202" lon="-2.73541">
        <ele>112</ele>
        <time>2013-05-02T11:54:43Z</time>
      </trkpt>
      <trkpt lat="47.72022" lon="-2.7354">
        <ele>112</ele>
        <time>2013-05-02T11:54:44Z</time>
      </trkpt>
      <trkpt lat="47.72025" lon="-2.73538">
        <ele>112</ele>
        <time>2013-05-02T11:54:45Z</time>
      </trkpt>
      <trkpt lat="47.72027" lon="-2.73537">
        <ele>112</ele>
        <time>2013-05-02T11:54:46Z</time>
      </trkpt>
      <trkpt lat="47.72029" lon="-2.73535">
        <ele>112</ele>
        <time>2013-05-02T11:54:47Z</time>
      </trkpt>
      <trkpt lat="47.72032" lon="-2.73534">
        <ele>112</ele>
        <time>2013-05-02T11:54:48Z</time>
      </trkpt>
      <trkpt lat="47.72034" lon="-2.73533">
        <ele>112</ele>
        <time>2013-05-02T11:54:49Z</time>
      </trkpt>
      <trkpt lat="47.72037" lon="-2.73532">
        <ele>112</ele>
        <time>2013-05-02T11:54:50Z</time>
      </trkpt>
      <trkpt lat="47.72039" lon="-2.7353">
        <ele>112</ele>
        <time>2013-05-02T11:54:51Z</time>
      </trkpt>
      <trkpt lat="47.72042" lon="-2.73529">
        <ele>112</ele>
        <time>2013-05-02T11:54:52Z</time>
      </trkpt>
      <trkpt lat="47.72044" lon="-2.73527">
        <ele>112</ele>
        <time>2013-05-02T11:54:53Z</time>
      </trkpt>
      <trkpt lat="47.72047" lon="-2.73526">
        <ele>112</ele>
        <time>2013-05-02T11:54:54Z</time>
      </trkpt>
      <trkpt lat="47.72049" lon="-2.73524">
        <ele>112</ele>
        <time>2013-05-02T11:54:55Z</time>
      </trkpt>
      <trkpt lat="47.72051" lon="-2.73523">
        <ele>113</ele>
        <time>2013-05-02T11:54:56Z</time>
      </trkpt>
      <trkpt lat="47.72054" lon="-2.73522">
        <ele>113</ele>
        <time>2013-05-02T11:54:57Z</time>
      </trkpt>
      <trkpt lat="47.72055" lon="-2.73521">
        <ele>113</ele>
        <time>2013-05-02T11:54:58Z</time>
      </trkpt>
      <trkpt lat="47.72058" lon="-2.73519">
        <ele>113</ele>
        <time>2013-05-02T11:54:59Z</time>
      </trkpt>
      <trkpt lat="47.7206" lon="-2.73518">
        <ele>113</ele>
        <time>2013-05-02T11:55:00Z</time>
      </trkpt>
      <trkpt lat="47.72062" lon="-2.73516">
        <ele>113</ele>
        <time>2013-05-02T11:55:01Z</time>
      </trkpt>
      <trkpt lat="47.72064" lon="-2.73514">
        <ele>113</ele>
        <time>2013-05-02T11:55:02Z</time>
      </trkpt>
      <trkpt lat="47.72066" lon="-2.73513">
        <ele>113</ele>
        <time>2013-05-02T11:55:03Z</time>
      </trkpt>
      <trkpt lat="47.72068" lon="-2.73511">
        <ele>113</ele>
        <time>2013-05-02T11:55:04Z</time>
      </trkpt>
      <trkpt lat="47.7207" lon="-2.7351">
        <ele>113</ele>
        <time>2013-05-02T11:55:05Z</time>
      </trkpt>
      <trkpt lat="47.72073" lon="-2.73508">
        <ele>113</ele>
        <time>2013-05-02T11:55:06Z</time>
      </trkpt>
      <trkpt lat="47.72075" lon="-2.73506">
        <ele>113</ele>
        <time>2013-05-02T11:55:07Z</time>
      </trkpt>
      <trkpt lat="47.72078" lon="-2.73505">
        <ele>113</ele>
        <time>2013-05-02T11:55:08Z</time>
      </trkpt>
      <trkpt lat="47.7208" lon="-2.73503">
        <ele>113</ele>
        <time>2013-05-02T11:55:09Z</time>
      </trkpt>
      <trkpt lat="47.72083" lon="-2.73502">
        <ele>113</ele>
        <time>2013-05-02T11:55:10Z</time>
      </trkpt>
      <trkpt lat="47.72086" lon="-2.735">
        <ele>113</ele>
        <time>2013-05-02T11:55:11Z</time>
      </trkpt>
      <trkpt lat="47.72089" lon="-2.73499">
        <ele>113</ele>
        <time>2013-05-02T11:55:12Z</time>
      </trkpt>
      <trkpt lat="47.72092" lon="-2.73497">
        <ele>113</ele>
        <time>2013-05-02T11:55:13Z</time>
      </trkpt>
      <trkpt lat="47.72095" lon="-2.73495">
        <ele>113</ele>
        <time>2013-05-02T11:55:14Z</time>
      </trkpt>
      <trkpt lat="47.72098" lon="-2.73494">
        <ele>113</ele>
        <time>2013-05-02T11:55:15Z</time>
      </trkpt>
      <trkpt lat="47.72101" lon="-2.73493">
        <ele>113</ele>
        <time>2013-05-02T11:55:16Z</time>
      </trkpt>
      <trkpt lat="47.72103" lon="-2.73492">
        <ele>113</ele>
        <time>2013-05-02T11:55:17Z</time>
      </trkpt>
      <trkpt lat="47.72105" lon="-2.73491">
        <ele>113</ele>
        <time>2013-05-02T11:55:18Z</time>
      </trkpt>
      <trkpt lat="47.72107" lon="-2.7349">
        <ele>113</ele>
        <time>2013-05-02T11:55:19Z</time>
      </trkpt>
      <trkpt lat="47.7211" lon="-2.73489">
        <ele>113</ele>
        <time>2013-05-02T11:55:20Z</time>
      </trkpt>
      <trkpt lat="47.72112" lon="-2.73488">
        <ele>113</ele>
        <time>2013-05-02T11:55:21Z</time>
      </trkpt>
      <trkpt lat="47.72114" lon="-2.73486">
        <ele>113</ele>
        <time>2013-05-02T11:55:22Z</time>
      </trkpt>
      <trkpt lat="47.72117" lon="-2.73485">
        <ele>113</ele>
        <time>2013-05-02T11:55:23Z</time>
      </trkpt>
      <trkpt lat="47.72119" lon="-2.73484">
        <ele>113</ele>
        <time>2013-05-02T11:55:24Z</time>
      </trkpt>
      <trkpt lat="47.72122" lon="-2.73484">
        <ele>113</ele>
        <time>2013-05-02T11:55:25Z</time>
      </trkpt>
      <trkpt lat="47.72124" lon="-2.73483">
        <ele>113</ele>
        <time>2013-05-02T11:55:26Z</time>
      </trkpt>
      <trkpt lat="47.72126" lon="-2.73482">
        <ele>113</ele>
        <time>2013-05-02T11:55:27Z</time>
      </trkpt>
      <trkpt lat="47.72129" lon="-2.73481">
        <ele>113</ele>
        <time>2013-05-02T11:55:28Z</time>
      </trkpt>
      <trkpt lat="47.72131" lon="-2.7348">
        <ele>113</ele>
        <time>2013-05-02T11:55:29Z</time>
      </trkpt>
      <trkpt lat="47.72133" lon="-2.73479">
        <ele>113</ele>
        <time>2013-05-02T11:55:30Z</time>
      </trkpt>
      <trkpt lat="47.72135" lon="-2.73478">
        <ele>113</ele>
        <time>2013-05-02T11:55:31Z</time>
      </trkpt>
      <trkpt lat="47.72137" lon="-2.73477">
        <ele>113</ele>
        <time>2013-05-02T11:55:32Z</time>
      </trkpt>
      <trkpt lat="47.7214" lon="-2.73475">
        <ele>113</ele>
        <time>2013-05-02T11:55:33Z</time>
      </trkpt>
      <trkpt lat="47.72142" lon="-2.73474">
        <ele>113</ele>
        <time>2013-05-02T11:55:34Z</time>
      </trkpt>
      <trkpt lat="47.72145" lon="-2.73473">
        <ele>113</ele>
        <time>2013-05-02T11:55:35Z</time>
      </trkpt>
      <trkpt lat="47.72147" lon="-2.73472">
        <ele>113</ele>
        <time>2013-05-02T11:55:36Z</time>
      </trkpt>
      <trkpt lat="47.72149" lon="-2.73471">
        <ele>113</ele>
        <time>2013-05-02T11:55:37Z</time>
      </trkpt>
      <trkpt lat="47.72151" lon="-2.7347">
        <ele>113</ele>
        <time>2013-05-02T11:55:38Z</time>
      </trkpt>
      <trkpt lat="47.72153" lon="-2.73469">
        <ele>114</ele>
        <time>2013-05-02T11:55:39Z</time>
      </trkpt>
      <trkpt lat="47.72155" lon="-2.73468">
        <ele>114</ele>
        <time>2013-05-02T11:55:40Z</time>
      </trkpt>
      <trkpt lat="47.72156" lon="-2.73468">
        <ele>114</ele>
        <time>2013-05-02T11:55:41Z</time>
      </trkpt>
      <trkpt lat="47.72158" lon="-2.73468">
        <ele>114</ele>
        <time>2013-05-02T11:55:43Z</time>
      </trkpt>
      <trkpt lat="47.72159" lon="-2.73468">
        <ele>114</ele>
        <time>2013-05-02T11:55:44Z</time>
      </trkpt>
      <trkpt lat="47.72161" lon="-2.73468">
        <ele>114</ele>
        <time>2013-05-02T11:55:45Z</time>
      </trkpt>
      <trkpt lat="47.72163" lon="-2.73467">
        <ele>114</ele>
        <time>2013-05-02T11:55:46Z</time>
      </trkpt>
      <trkpt lat="47.72165" lon="-2.73466">
        <ele>114</ele>
        <time>2013-05-02T11:55:47Z</time>
      </trkpt>
      <trkpt lat="47.72167" lon="-2.73465">
        <ele>114</ele>
        <time>2013-05-02T11:55:48Z</time>
      </trkpt>
      <trkpt lat="47.72169" lon="-2.73464">
        <ele>114</ele>
        <time>2013-05-02T11:55:49Z</time>
      </trkpt>
      <trkpt lat="47.72171" lon="-2.73464">
        <ele>114</ele>
        <time>2013-05-02T11:55:50Z</time>
      </trkpt>
      <trkpt lat="47.72174" lon="-2.73464">
        <ele>114</ele>
        <time>2013-05-02T11:55:51Z</time>
      </trkpt>
      <trkpt lat="47.72176" lon="-2.73463">
        <ele>114</ele>
        <time>2013-05-02T11:55:52Z</time>
      </trkpt>
      <trkpt lat="47.72179" lon="-2.73462">
        <ele>114</ele>
        <time>2013-05-02T11:55:53Z</time>
      </trkpt>
      <trkpt lat="47.72181" lon="-2.73462">
        <ele>114</ele>
        <time>2013-05-02T11:55:54Z</time>
      </trkpt>
      <trkpt lat="47.72184" lon="-2.73461">
        <ele>114</ele>
        <time>2013-05-02T11:55:55Z</time>
      </trkpt>
      <trkpt lat="47.72186" lon="-2.73461">
        <ele>114</ele>
        <time>2013-05-02T11:55:56Z</time>
      </trkpt>
      <trkpt lat="47.72188" lon="-2.7346">
        <ele>114</ele>
        <time>2013-05-02T11:55:57Z</time>
      </trkpt>
      <trkpt lat="47.72191" lon="-2.7346">
        <ele>114</ele>
        <time>2013-05-02T11:55:58Z</time>
      </trkpt>
      <trkpt lat="47.72194" lon="-2.7346">
        <ele>114</ele>
        <time>2013-05-02T11:55:59Z</time>
      </trkpt>
      <trkpt lat="47.72197" lon="-2.7346">
        <ele>114</ele>
        <time>2013-05-02T11:56:00Z</time>
      </trkpt>
      <trkpt lat="47.722" lon="-2.73461">
        <ele>115</ele>
        <time>2013-05-02T11:56:01Z</time>
      </trkpt>
      <trkpt lat="47.72203" lon="-2.7346">
        <ele>115</ele>
        <time>2013-05-02T11:56:02Z</time>
      </trkpt>
      <trkpt lat="47.72205" lon="-2.73458">
        <ele>115</ele>
        <time>2013-05-02T11:56:03Z</time>
      </trkpt>
      <trkpt lat="47.72208" lon="-2.73457">
        <ele>116</ele>
        <time>2013-05-02T11:56:04Z</time>
      </trkpt>
      <trkpt lat="47.7221" lon="-2.73457">
        <ele>116</ele>
        <time>2013-05-02T11:56:05Z</time>
      </trkpt>
      <trkpt lat="47.72211" lon="-2.73458">
        <ele>116</ele>
        <time>2013-05-02T11:56:06Z</time>
      </trkpt>
      <trkpt lat="47.72214" lon="-2.73459">
        <ele>116</ele>
        <time>2013-05-02T11:56:07Z</time>
      </trkpt>
      <trkpt lat="47.72217" lon="-2.73459">
        <ele>116</ele>
        <time>2013-05-02T11:56:08Z</time>
      </trkpt>
      <trkpt lat="47.72219" lon="-2.7346">
        <ele>116</ele>
        <time>2013-05-02T11:56:09Z</time>
      </trkpt>
      <trkpt lat="47.72222" lon="-2.7346">
        <ele>116</ele>
        <time>2013-05-02T11:56:10Z</time>
      </trkpt>
      <trkpt lat="47.72225" lon="-2.73459">
        <ele>116</ele>
        <time>2013-05-02T11:56:11Z</time>
      </trkpt>
      <trkpt lat="47.72228" lon="-2.73458">
        <ele>116</ele>
        <time>2013-05-02T11:56:12Z</time>
      </trkpt>
      <trkpt lat="47.72231" lon="-2.73458">
        <ele>116</ele>
        <time>2013-05-02T11:56:13Z</time>
      </trkpt>
      <trkpt lat="47.72234" lon="-2.73457">
        <ele>116</ele>
        <time>2013-05-02T11:56:14Z</time>
      </trkpt>
      <trkpt lat="47.72238" lon="-2.73455">
        <ele>116</ele>
        <time>2013-05-02T11:56:15Z</time>
      </trkpt>
      <trkpt lat="47.72242" lon="-2.73454">
        <ele>116</ele>
        <time>2013-05-02T11:56:16Z</time>
      </trkpt>
      <trkpt lat="47.72245" lon="-2.73452">
        <ele>116</ele>
        <time>2013-05-02T11:56:17Z</time>
      </trkpt>
      <trkpt lat="47.72248" lon="-2.73451">
        <ele>116</ele>
        <time>2013-05-02T11:56:18Z</time>
      </trkpt>
      <trkpt lat="47.72253" lon="-2.7345">
        <ele>116</ele>
        <time>2013-05-02T11:56:19Z</time>
      </trkpt>
      <trkpt lat="47.72256" lon="-2.73447">
        <ele>116</ele>
        <time>2013-05-02T11:56:20Z</time>
      </trkpt>
      <trkpt lat="47.72259" lon="-2.73445">
        <ele>116</ele>
        <time>2013-05-02T11:56:21Z</time>
      </trkpt>
      <trkpt lat="47.72263" lon="-2.73443">
        <ele>116</ele>
        <time>2013-05-02T11:56:22Z</time>
      </trkpt>
      <trkpt lat="47.72266" lon="-2.73441">
        <ele>116</ele>
        <time>2013-05-02T11:56:23Z</time>
      </trkpt>
      <trkpt lat="47.72268" lon="-2.7344">
        <ele>116</ele>
        <time>2013-05-02T11:56:24Z</time>
      </trkpt>
      <trkpt lat="47.72271" lon="-2.73438">
        <ele>116</ele>
        <time>2013-05-02T11:56:25Z</time>
      </trkpt>
      <trkpt lat="47.72274" lon="-2.73439">
        <ele>116</ele>
        <time>2013-05-02T11:56:26Z</time>
      </trkpt>
      <trkpt lat="47.72277" lon="-2.73438">
        <ele>116</ele>
        <time>2013-05-02T11:56:27Z</time>
      </trkpt>
      <trkpt lat="47.7228" lon="-2.73439">
        <ele>116</ele>
        <time>2013-05-02T11:56:28Z</time>
      </trkpt>
      <trkpt lat="47.72283" lon="-2.73438">
        <ele>116</ele>
        <time>2013-05-02T11:56:29Z</time>
      </trkpt>
      <trkpt lat="47.72286" lon="-2.73437">
        <ele>116</ele>
        <time>2013-05-02T11:56:30Z</time>
      </trkpt>
      <trkpt lat="47.72288" lon="-2.73436">
        <ele>116</ele>
        <time>2013-05-02T11:56:31Z</time>
      </trkpt>
      <trkpt lat="47.7229" lon="-2.73434">
        <ele>116</ele>
        <time>2013-05-02T11:56:32Z</time>
      </trkpt>
      <trkpt lat="47.72293" lon="-2.73432">
        <ele>116</ele>
        <time>2013-05-02T11:56:33Z</time>
      </trkpt>
      <trkpt lat="47.72296" lon="-2.7343">
        <ele>116</ele>
        <time>2013-05-02T11:56:34Z</time>
      </trkpt>
      <trkpt lat="47.723" lon="-2.7343">
        <ele>116</ele>
        <time>2013-05-02T11:56:35Z</time>
      </trkpt>
      <trkpt lat="47.72303" lon="-2.7343">
        <ele>116</ele>
        <time>2013-05-02T11:56:36Z</time>
      </trkpt>
      <trkpt lat="47.72306" lon="-2.73432">
        <ele>116</ele>
        <time>2013-05-02T11:56:37Z</time>
      </trkpt>
      <trkpt lat="47.72308" lon="-2.73436">
        <ele>116</ele>
        <time>2013-05-02T11:56:38Z</time>
      </trkpt>
      <trkpt lat="47.7231" lon="-2.73441">
        <ele>116</ele>
        <time>2013-05-02T11:56:39Z</time>
      </trkpt>
      <trkpt lat="47.72311" lon="-2.73445">
        <ele>116</ele>
        <time>2013-05-02T11:56:40Z</time>
      </trkpt>
      <trkpt lat="47.72314" lon="-2.73449">
        <ele>116</ele>
        <time>2013-05-02T11:56:41Z</time>
      </trkpt>
      <trkpt lat="47.72316" lon="-2.73454">
        <ele>116</ele>
        <time>2013-05-02T11:56:42Z</time>
      </trkpt>
      <trkpt lat="47.72319" lon="-2.73459">
        <ele>116</ele>
        <time>2013-05-02T11:56:43Z</time>
      </trkpt>
      <trkpt lat="47.72322" lon="-2.73464">
        <ele>116</ele>
        <time>2013-05-02T11:56:44Z</time>
      </trkpt>
      <trkpt lat="47.72326" lon="-2.73469">
        <ele>116</ele>
        <time>2013-05-02T11:56:45Z</time>
      </trkpt>
      <trkpt lat="47.72329" lon="-2.73475">
        <ele>116</ele>
        <time>2013-05-02T11:56:46Z</time>
      </trkpt>
      <trkpt lat="47.72332" lon="-2.73479">
        <ele>116</ele>
        <time>2013-05-02T11:56:47Z</time>
      </trkpt>
      <trkpt lat="47.72336" lon="-2.73483">
        <ele>116</ele>
        <time>2013-05-02T11:56:48Z</time>
      </trkpt>
      <trkpt lat="47.72339" lon="-2.73488">
        <ele>116</ele>
        <time>2013-05-02T11:56:49Z</time>
      </trkpt>
      <trkpt lat="47.72342" lon="-2.73492">
        <ele>116</ele>
        <time>2013-05-02T11:56:50Z</time>
      </trkpt>
      <trkpt lat="47.72345" lon="-2.73494">
        <ele>116</ele>
        <time>2013-05-02T11:56:51Z</time>
      </trkpt>
      <trkpt lat="47.72348" lon="-2.73494">
        <ele>116</ele>
        <time>2013-05-02T11:56:52Z</time>
      </trkpt>
      <trkpt lat="47.72351" lon="-2.73494">
        <ele>116</ele>
        <time>2013-05-02T11:56:53Z</time>
      </trkpt>
      <trkpt lat="47.72354" lon="-2.73494">
        <ele>117</ele>
        <time>2013-05-02T11:56:54Z</time>
      </trkpt>
      <trkpt lat="47.72356" lon="-2.73492">
        <ele>117</ele>
        <time>2013-05-02T11:56:55Z</time>
      </trkpt>
      <trkpt lat="47.72357" lon="-2.7349">
        <ele>117</ele>
        <time>2013-05-02T11:56:56Z</time>
      </trkpt>
      <trkpt lat="47.72358" lon="-2.73488">
        <ele>117</ele>
        <time>2013-05-02T11:56:57Z</time>
      </trkpt>
      <trkpt lat="47.72358" lon="-2.73487">
        <ele>118</ele>
        <time>2013-05-02T11:56:58Z</time>
      </trkpt>
      <trkpt lat="47.72359" lon="-2.73485">
        <ele>118</ele>
        <time>2013-05-02T11:56:59Z</time>
      </trkpt>
      <trkpt lat="47.72361" lon="-2.73485">
        <ele>118</ele>
        <time>2013-05-02T11:57:00Z</time>
      </trkpt>
      <trkpt lat="47.72364" lon="-2.73488">
        <ele>118</ele>
        <time>2013-05-02T11:57:01Z</time>
      </trkpt>
      <trkpt lat="47.72366" lon="-2.73492">
        <ele>118</ele>
        <time>2013-05-02T11:57:02Z</time>
      </trkpt>
      <trkpt lat="47.72368" lon="-2.73496">
        <ele>118</ele>
        <time>2013-05-02T11:57:03Z</time>
      </trkpt>
      <trkpt lat="47.72371" lon="-2.73502">
        <ele>118</ele>
        <time>2013-05-02T11:57:04Z</time>
      </trkpt>
      <trkpt lat="47.72374" lon="-2.73507">
        <ele>118</ele>
        <time>2013-05-02T11:57:05Z</time>
      </trkpt>
      <trkpt lat="47.72377" lon="-2.73512">
        <ele>118</ele>
        <time>2013-05-02T11:57:06Z</time>
      </trkpt>
      <trkpt lat="47.72379" lon="-2.73517">
        <ele>118</ele>
        <time>2013-05-02T11:57:07Z</time>
      </trkpt>
      <trkpt lat="47.72382" lon="-2.73521">
        <ele>118</ele>
        <time>2013-05-02T11:57:08Z</time>
      </trkpt>
      <trkpt lat="47.72385" lon="-2.73525">
        <ele>118</ele>
        <time>2013-05-02T11:57:09Z</time>
      </trkpt>
      <trkpt lat="47.72388" lon="-2.73528">
        <ele>118</ele>
        <time>2013-05-02T11:57:10Z</time>
      </trkpt>
      <trkpt lat="47.72392" lon="-2.7353">
        <ele>118</ele>
        <time>2013-05-02T11:57:11Z</time>
      </trkpt>
      <trkpt lat="47.72396" lon="-2.73531">
        <ele>118</ele>
        <time>2013-05-02T11:57:12Z</time>
      </trkpt>
      <trkpt lat="47.72401" lon="-2.73533">
        <ele>118</ele>
        <time>2013-05-02T11:57:13Z</time>
      </trkpt>
      <trkpt lat="47.72405" lon="-2.73536">
        <ele>118</ele>
        <time>2013-05-02T11:57:14Z</time>
      </trkpt>
      <trkpt lat="47.7241" lon="-2.73539">
        <ele>118</ele>
        <time>2013-05-02T11:57:15Z</time>
      </trkpt>
      <trkpt lat="47.72414" lon="-2.73542">
        <ele>118</ele>
        <time>2013-05-02T11:57:16Z</time>
      </trkpt>
      <trkpt lat="47.72419" lon="-2.73545">
        <ele>118</ele>
        <time>2013-05-02T11:57:17Z</time>
      </trkpt>
      <trkpt lat="47.72424" lon="-2.73548">
        <ele>118</ele>
        <time>2013-05-02T11:57:18Z</time>
      </trkpt>
      <trkpt lat="47.72428" lon="-2.73551">
        <ele>118</ele>
        <time>2013-05-02T11:57:19Z</time>
      </trkpt>
      <trkpt lat="47.72433" lon="-2.73554">
        <ele>118</ele>
        <time>2013-05-02T11:57:20Z</time>
      </trkpt>
      <trkpt lat="47.72437" lon="-2.73558">
        <ele>118</ele>
        <time>2013-05-02T11:57:21Z</time>
      </trkpt>
      <trkpt lat="47.72441" lon="-2.73563">
        <ele>118</ele>
        <time>2013-05-02T11:57:22Z</time>
      </trkpt>
      <trkpt lat="47.72446" lon="-2.73567">
        <ele>118</ele>
        <time>2013-05-02T11:57:23Z</time>
      </trkpt>
      <trkpt lat="47.72449" lon="-2.73572">
        <ele>118</ele>
        <time>2013-05-02T11:57:24Z</time>
      </trkpt>
      <trkpt lat="47.72453" lon="-2.73577">
        <ele>118</ele>
        <time>2013-05-02T11:57:25Z</time>
      </trkpt>
      <trkpt lat="47.72456" lon="-2.73582">
        <ele>118</ele>
        <time>2013-05-02T11:57:26Z</time>
      </trkpt>
      <trkpt lat="47.72459" lon="-2.73586">
        <ele>118</ele>
        <time>2013-05-02T11:57:27Z</time>
      </trkpt>
      <trkpt lat="47.72461" lon="-2.7359">
        <ele>118</ele>
        <time>2013-05-02T11:57:28Z</time>
      </trkpt>
      <trkpt lat="47.72464" lon="-2.73595">
        <ele>118</ele>
        <time>2013-05-02T11:57:29Z</time>
      </trkpt>
      <trkpt lat="47.72467" lon="-2.736">
        <ele>118</ele>
        <time>2013-05-02T11:57:30Z</time>
      </trkpt>
      <trkpt lat="47.7247" lon="-2.73605">
        <ele>118</ele>
        <time>2013-05-02T11:57:31Z</time>
      </trkpt>
      <trkpt lat="47.72472" lon="-2.73611">
        <ele>118</ele>
        <time>2013-05-02T11:57:32Z</time>
      </trkpt>
      <trkpt lat="47.72475" lon="-2.73616">
        <ele>118</ele>
        <time>2013-05-02T11:57:33Z</time>
      </trkpt>
      <trkpt lat="47.72478" lon="-2.73621">
        <ele>118</ele>
        <time>2013-05-02T11:57:34Z</time>
      </trkpt>
      <trkpt lat="47.72482" lon="-2.73627">
        <ele>118</ele>
        <time>2013-05-02T11:57:35Z</time>
      </trkpt>
      <trkpt lat="47.72485" lon="-2.73633">
        <ele>118</ele>
        <time>2013-05-02T11:57:36Z</time>
      </trkpt>
      <trkpt lat="47.72489" lon="-2.7364">
        <ele>118</ele>
        <time>2013-05-02T11:57:37Z</time>
      </trkpt>
      <trkpt lat="47.72492" lon="-2.73646">
        <ele>118</ele>
        <time>2013-05-02T11:57:38Z</time>
      </trkpt>
      <trkpt lat="47.72495" lon="-2.73652">
        <ele>118</ele>
        <time>2013-05-02T11:57:39Z</time>
      </trkpt>
      <trkpt lat="47.72498" lon="-2.73657">
        <ele>118</ele>
        <time>2013-05-02T11:57:40Z</time>
      </trkpt>
      <trkpt lat="47.72501" lon="-2.73661">
        <ele>118</ele>
        <time>2013-05-02T11:57:41Z</time>
      </trkpt>
      <trkpt lat="47.72505" lon="-2.73665">
        <ele>118</ele>
        <time>2013-05-02T11:57:42Z</time>
      </trkpt>
      <trkpt lat="47.72508" lon="-2.7367">
        <ele>118</ele>
        <time>2013-05-02T11:57:43Z</time>
      </trkpt>
      <trkpt lat="47.72511" lon="-2.73676">
        <ele>118</ele>
        <time>2013-05-02T11:57:44Z</time>
      </trkpt>
      <trkpt lat="47.72513" lon="-2.73682">
        <ele>118</ele>
        <time>2013-05-02T11:57:45Z</time>
      </trkpt>
      <trkpt lat="47.72516" lon="-2.73689">
        <ele>118</ele>
        <time>2013-05-02T11:57:46Z</time>
      </trkpt>
      <trkpt lat="47.72519" lon="-2.73694">
        <ele>118</ele>
        <time>2013-05-02T11:57:47Z</time>
      </trkpt>
      <trkpt lat="47.72522" lon="-2.737">
        <ele>118</ele>
        <time>2013-05-02T11:57:48Z</time>
      </trkpt>
      <trkpt lat="47.72525" lon="-2.73706">
        <ele>118</ele>
        <time>2013-05-02T11:57:49Z</time>
      </trkpt>
      <trkpt lat="47.72529" lon="-2.73711">
        <ele>118</ele>
        <time>2013-05-02T11:57:50Z</time>
      </trkpt>
      <trkpt lat="47.72533" lon="-2.73717">
        <ele>118</ele>
        <time>2013-05-02T11:57:51Z</time>
      </trkpt>
      <trkpt lat="47.72536" lon="-2.73723">
        <ele>118</ele>
        <time>2013-05-02T11:57:52Z</time>
      </trkpt>
      <trkpt lat="47.7254" lon="-2.73728">
        <ele>118</ele>
        <time>2013-05-02T11:57:53Z</time>
      </trkpt>
      <trkpt lat="47.72543" lon="-2.73734">
        <ele>118</ele>
        <time>2013-05-02T11:57:54Z</time>
      </trkpt>
      <trkpt lat="47.72546" lon="-2.73739">
        <ele>118</ele>
        <time>2013-05-02T11:57:55Z</time>
      </trkpt>
      <trkpt lat="47.72549" lon="-2.73745">
        <ele>118</ele>
        <time>2013-05-02T11:57:56Z</time>
      </trkpt>
      <trkpt lat="47.72552" lon="-2.73751">
        <ele>118</ele>
        <time>2013-05-02T11:57:57Z</time>
      </trkpt>
      <trkpt lat="47.72555" lon="-2.73757">
        <ele>118</ele>
        <time>2013-05-02T11:57:58Z</time>
      </trkpt>
      <trkpt lat="47.72558" lon="-2.73763">
        <ele>119</ele>
        <time>2013-05-02T11:57:59Z</time>
      </trkpt>
      <trkpt lat="47.72562" lon="-2.73769">
        <ele>119</ele>
        <time>2013-05-02T11:58:00Z</time>
      </trkpt>
      <trkpt lat="47.72566" lon="-2.73774">
        <ele>119</ele>
        <time>2013-05-02T11:58:01Z</time>
      </trkpt>
      <trkpt lat="47.72569" lon="-2.73778">
        <ele>119</ele>
        <time>2013-05-02T11:58:02Z</time>
      </trkpt>
      <trkpt lat="47.72572" lon="-2.73782">
        <ele>119</ele>
        <time>2013-05-02T11:58:03Z</time>
      </trkpt>
      <trkpt lat="47.72575" lon="-2.73785">
        <ele>119</ele>
        <time>2013-05-02T11:58:04Z</time>
      </trkpt>
      <trkpt lat="47.72579" lon="-2.73788">
        <ele>119</ele>
        <time>2013-05-02T11:58:05Z</time>
      </trkpt>
      <trkpt lat="47.72584" lon="-2.7379">
        <ele>119</ele>
        <time>2013-05-02T11:58:06Z</time>
      </trkpt>
      <trkpt lat="47.72588" lon="-2.7379">
        <ele>119</ele>
        <time>2013-05-02T11:58:07Z</time>
      </trkpt>
      <trkpt lat="47.72593" lon="-2.7379">
        <ele>119</ele>
        <time>2013-05-02T11:58:08Z</time>
      </trkpt>
      <trkpt lat="47.72597" lon="-2.7379">
        <ele>119</ele>
        <time>2013-05-02T11:58:09Z</time>
      </trkpt>
      <trkpt lat="47.72601" lon="-2.73789">
        <ele>119</ele>
        <time>2013-05-02T11:58:10Z</time>
      </trkpt>
      <trkpt lat="47.72606" lon="-2.73787">
        <ele>120</ele>
        <time>2013-05-02T11:58:11Z</time>
      </trkpt>
      <trkpt lat="47.7261" lon="-2.73785">
        <ele>120</ele>
        <time>2013-05-02T11:58:12Z</time>
      </trkpt>
      <trkpt lat="47.72613" lon="-2.73782">
        <ele>120</ele>
        <time>2013-05-02T11:58:13Z</time>
      </trkpt>
      <trkpt lat="47.72616" lon="-2.73781">
        <ele>120</ele>
        <time>2013-05-02T11:58:14Z</time>
      </trkpt>
      <trkpt lat="47.72619" lon="-2.7378">
        <ele>120</ele>
        <time>2013-05-02T11:58:15Z</time>
      </trkpt>
      <trkpt lat="47.72622" lon="-2.73779">
        <ele>120</ele>
        <time>2013-05-02T11:58:16Z</time>
      </trkpt>
      <trkpt lat="47.72625" lon="-2.73777">
        <ele>120</ele>
        <time>2013-05-02T11:58:17Z</time>
      </trkpt>
      <trkpt lat="47.72628" lon="-2.73774">
        <ele>120</ele>
        <time>2013-05-02T11:58:18Z</time>
      </trkpt>
      <trkpt lat="47.72632" lon="-2.73769">
        <ele>120</ele>
        <time>2013-05-02T11:58:19Z</time>
      </trkpt>
      <trkpt lat="47.72636" lon="-2.73765">
        <ele>120</ele>
        <time>2013-05-02T11:58:20Z</time>
      </trkpt>
      <trkpt lat="47.72641" lon="-2.73762">
        <ele>120</ele>
        <time>2013-05-02T11:58:21Z</time>
      </trkpt>
      <trkpt lat="47.72644" lon="-2.73757">
        <ele>120</ele>
        <time>2013-05-02T11:58:22Z</time>
      </trkpt>
      <trkpt lat="47.72647" lon="-2.73752">
        <ele>120</ele>
        <time>2013-05-02T11:58:23Z</time>
      </trkpt>
      <trkpt lat="47.72649" lon="-2.73746">
        <ele>120</ele>
        <time>2013-05-02T11:58:24Z</time>
      </trkpt>
      <trkpt lat="47.72651" lon="-2.7374">
        <ele>120</ele>
        <time>2013-05-02T11:58:25Z</time>
      </trkpt>
      <trkpt lat="47.72654" lon="-2.73733">
        <ele>120</ele>
        <time>2013-05-02T11:58:26Z</time>
      </trkpt>
      <trkpt lat="47.72655" lon="-2.73727">
        <ele>120</ele>
        <time>2013-05-02T11:58:27Z</time>
      </trkpt>
      <trkpt lat="47.72657" lon="-2.7372">
        <ele>120</ele>
        <time>2013-05-02T11:58:28Z</time>
      </trkpt>
      <trkpt lat="47.7266" lon="-2.73714">
        <ele>120</ele>
        <time>2013-05-02T11:58:29Z</time>
      </trkpt>
      <trkpt lat="47.72662" lon="-2.73708">
        <ele>120</ele>
        <time>2013-05-02T11:58:30Z</time>
      </trkpt>
      <trkpt lat="47.72664" lon="-2.73701">
        <ele>120</ele>
        <time>2013-05-02T11:58:31Z</time>
      </trkpt>
      <trkpt lat="47.72665" lon="-2.73696">
        <ele>121</ele>
        <time>2013-05-02T11:58:32Z</time>
      </trkpt>
      <trkpt lat="47.72667" lon="-2.7369">
        <ele>121</ele>
        <time>2013-05-02T11:58:33Z</time>
      </trkpt>
      <trkpt lat="47.72668" lon="-2.73686">
        <ele>121</ele>
        <time>2013-05-02T11:58:34Z</time>
      </trkpt>
      <trkpt lat="47.7267" lon="-2.73682">
        <ele>121</ele>
        <time>2013-05-02T11:58:35Z</time>
      </trkpt>
      <trkpt lat="47.72672" lon="-2.73676">
        <ele>122</ele>
        <time>2013-05-02T11:58:36Z</time>
      </trkpt>
      <trkpt lat="47.72674" lon="-2.73671">
        <ele>122</ele>
        <time>2013-05-02T11:58:37Z</time>
      </trkpt>
      <trkpt lat="47.72676" lon="-2.73665">
        <ele>122</ele>
        <time>2013-05-02T11:58:38Z</time>
      </trkpt>
      <trkpt lat="47.72679" lon="-2.73659">
        <ele>122</ele>
        <time>2013-05-02T11:58:39Z</time>
      </trkpt>
      <trkpt lat="47.72681" lon="-2.73653">
        <ele>122</ele>
        <time>2013-05-02T11:58:40Z</time>
      </trkpt>
      <trkpt lat="47.72683" lon="-2.73647">
        <ele>122</ele>
        <time>2013-05-02T11:58:41Z</time>
      </trkpt>
      <trkpt lat="47.72684" lon="-2.7364">
        <ele>122</ele>
        <time>2013-05-02T11:58:42Z</time>
      </trkpt>
      <trkpt lat="47.72686" lon="-2.73633">
        <ele>122</ele>
        <time>2013-05-02T11:58:43Z</time>
      </trkpt>
      <trkpt lat="47.72687" lon="-2.73626">
        <ele>122</ele>
        <time>2013-05-02T11:58:44Z</time>
      </trkpt>
      <trkpt lat="47.72689" lon="-2.7362">
        <ele>122</ele>
        <time>2013-05-02T11:58:45Z</time>
      </trkpt>
      <trkpt lat="47.72691" lon="-2.73613">
        <ele>122</ele>
        <time>2013-05-02T11:58:46Z</time>
      </trkpt>
      <trkpt lat="47.72692" lon="-2.73606">
        <ele>122</ele>
        <time>2013-05-02T11:58:47Z</time>
      </trkpt>
      <trkpt lat="47.72694" lon="-2.73599">
        <ele>122</ele>
        <time>2013-05-02T11:58:48Z</time>
      </trkpt>
      <trkpt lat="47.72695" lon="-2.73592">
        <ele>122</ele>
        <time>2013-05-02T11:58:49Z</time>
      </trkpt>
      <trkpt lat="47.72697" lon="-2.73586">
        <ele>122</ele>
        <time>2013-05-02T11:58:50Z</time>
      </trkpt>
      <trkpt lat="47.72699" lon="-2.73579">
        <ele>122</ele>
        <time>2013-05-02T11:58:51Z</time>
      </trkpt>
      <trkpt lat="47.72702" lon="-2.73573">
        <ele>122</ele>
        <time>2013-05-02T11:58:52Z</time>
      </trkpt>
      <trkpt lat="47.72704" lon="-2.73567">
        <ele>122</ele>
        <time>2013-05-02T11:58:53Z</time>
      </trkpt>
      <trkpt lat="47.72706" lon="-2.73562">
        <ele>122</ele>
        <time>2013-05-02T11:58:54Z</time>
      </trkpt>
      <trkpt lat="47.72707" lon="-2.73555">
        <ele>122</ele>
        <time>2013-05-02T11:58:55Z</time>
      </trkpt>
      <trkpt lat="47.72709" lon="-2.7355">
        <ele>122</ele>
        <time>2013-05-02T11:58:56Z</time>
      </trkpt>
      <trkpt lat="47.72709" lon="-2.73543">
        <ele>122</ele>
        <time>2013-05-02T11:58:57Z</time>
      </trkpt>
      <trkpt lat="47.72708" lon="-2.73535">
        <ele>122</ele>
        <time>2013-05-02T11:58:58Z</time>
      </trkpt>
      <trkpt lat="47.72707" lon="-2.7353">
        <ele>122</ele>
        <time>2013-05-02T11:58:59Z</time>
      </trkpt>
      <trkpt lat="47.72706" lon="-2.73524">
        <ele>122</ele>
        <time>2013-05-02T11:59:00Z</time>
      </trkpt>
      <trkpt lat="47.72708" lon="-2.7352">
        <ele>122</ele>
        <time>2013-05-02T11:59:01Z</time>
      </trkpt>
      <trkpt lat="47.72711" lon="-2.73518">
        <ele>122</ele>
        <time>2013-05-02T11:59:02Z</time>
      </trkpt>
      <trkpt lat="47.72715" lon="-2.73517">
        <ele>122</ele>
        <time>2013-05-02T11:59:03Z</time>
      </trkpt>
      <trkpt lat="47.7272" lon="-2.73517">
        <ele>122</ele>
        <time>2013-05-02T11:59:04Z</time>
      </trkpt>
      <trkpt lat="47.72724" lon="-2.73517">
        <ele>122</ele>
        <time>2013-05-02T11:59:05Z</time>
      </trkpt>
      <trkpt lat="47.72729" lon="-2.73516">
        <ele>122</ele>
        <time>2013-05-02T11:59:06Z</time>
      </trkpt>
      <trkpt lat="47.72734" lon="-2.73515">
        <ele>122</ele>
        <time>2013-05-02T11:59:07Z</time>
      </trkpt>
      <trkpt lat="47.72739" lon="-2.73514">
        <ele>122</ele>
        <time>2013-05-02T11:59:08Z</time>
      </trkpt>
      <trkpt lat="47.72744" lon="-2.73513">
        <ele>122</ele>
        <time>2013-05-02T11:59:09Z</time>
      </trkpt>
      <trkpt lat="47.72748" lon="-2.73511">
        <ele>122</ele>
        <time>2013-05-02T11:59:10Z</time>
      </trkpt>
      <trkpt lat="47.72753" lon="-2.73509">
        <ele>122</ele>
        <time>2013-05-02T11:59:11Z</time>
      </trkpt>
      <trkpt lat="47.72758" lon="-2.73508">
        <ele>122</ele>
        <time>2013-05-02T11:59:12Z</time>
      </trkpt>
      <trkpt lat="47.72762" lon="-2.73508">
        <ele>122</ele>
        <time>2013-05-02T11:59:13Z</time>
      </trkpt>
      <trkpt lat="47.72767" lon="-2.73507">
        <ele>122</ele>
        <time>2013-05-02T11:59:14Z</time>
      </trkpt>
      <trkpt lat="47.72772" lon="-2.73507">
        <ele>122</ele>
        <time>2013-05-02T11:59:15Z</time>
      </trkpt>
      <trkpt lat="47.72777" lon="-2.73505">
        <ele>122</ele>
        <time>2013-05-02T11:59:16Z</time>
      </trkpt>
      <trkpt lat="47.72781" lon="-2.73504">
        <ele>122</ele>
        <time>2013-05-02T11:59:17Z</time>
      </trkpt>
      <trkpt lat="47.72786" lon="-2.73502">
        <ele>122</ele>
        <time>2013-05-02T11:59:18Z</time>
      </trkpt>
      <trkpt lat="47.72792" lon="-2.73501">
        <ele>122</ele>
        <time>2013-05-02T11:59:19Z</time>
      </trkpt>
      <trkpt lat="47.72796" lon="-2.735">
        <ele>122</ele>
        <time>2013-05-02T11:59:20Z</time>
      </trkpt>
      <trkpt lat="47.72801" lon="-2.73499">
        <ele>122</ele>
        <time>2013-05-02T11:59:21Z</time>
      </trkpt>
      <trkpt lat="47.72806" lon="-2.73499">
        <ele>122</ele>
        <time>2013-05-02T11:59:22Z</time>
      </trkpt>
      <trkpt lat="47.72811" lon="-2.73498">
        <ele>122</ele>
        <time>2013-05-02T11:59:23Z</time>
      </trkpt>
      <trkpt lat="47.72815" lon="-2.73496">
        <ele>122</ele>
        <time>2013-05-02T11:59:24Z</time>
      </trkpt>
      <trkpt lat="47.7282" lon="-2.73495">
        <ele>122</ele>
        <time>2013-05-02T11:59:25Z</time>
      </trkpt>
      <trkpt lat="47.72824" lon="-2.73494">
        <ele>122</ele>
        <time>2013-05-02T11:59:26Z</time>
      </trkpt>
      <trkpt lat="47.72828" lon="-2.73493">
        <ele>122</ele>
        <time>2013-05-02T11:59:27Z</time>
      </trkpt>
      <trkpt lat="47.72832" lon="-2.73492">
        <ele>123</ele>
        <time>2013-05-02T11:59:28Z</time>
      </trkpt>
      <trkpt lat="47.72837" lon="-2.73491">
        <ele>123</ele>
        <time>2013-05-02T11:59:29Z</time>
      </trkpt>
      <trkpt lat="47.72841" lon="-2.73491">
        <ele>123</ele>
        <time>2013-05-02T11:59:30Z</time>
      </trkpt>
      <trkpt lat="47.72845" lon="-2.7349">
        <ele>123</ele>
        <time>2013-05-02T11:59:31Z</time>
      </trkpt>
      <trkpt lat="47.72849" lon="-2.73489">
        <ele>123</ele>
        <time>2013-05-02T11:59:32Z</time>
      </trkpt>
      <trkpt lat="47.72853" lon="-2.73487">
        <ele>123</ele>
        <time>2013-05-02T11:59:33Z</time>
      </trkpt>
      <trkpt lat="47.72858" lon="-2.73485">
        <ele>123</ele>
        <time>2013-05-02T11:59:34Z</time>
      </trkpt>
      <trkpt lat="47.72862" lon="-2.73482">
        <ele>123</ele>
        <time>2013-05-02T11:59:35Z</time>
      </trkpt>
      <trkpt lat="47.72866" lon="-2.73479">
        <ele>123</ele>
        <time>2013-05-02T11:59:36Z</time>
      </trkpt>
      <trkpt lat="47.7287" lon="-2.73474">
        <ele>123</ele>
        <time>2013-05-02T11:59:37Z</time>
      </trkpt>
      <trkpt lat="47.72873" lon="-2.73468">
        <ele>124</ele>
        <time>2013-05-02T11:59:38Z</time>
      </trkpt>
      <trkpt lat="47.72875" lon="-2.73463">
        <ele>124</ele>
        <time>2013-05-02T11:59:39Z</time>
      </trkpt>
      <trkpt lat="47.72878" lon="-2.73457">
        <ele>124</ele>
        <time>2013-05-02T11:59:40Z</time>
      </trkpt>
      <trkpt lat="47.72879" lon="-2.7345">
        <ele>124</ele>
        <time>2013-05-02T11:59:41Z</time>
      </trkpt>
      <trkpt lat="47.72881" lon="-2.73445">
        <ele>124</ele>
        <time>2013-05-02T11:59:42Z</time>
      </trkpt>
      <trkpt lat="47.72883" lon="-2.7344">
        <ele>125</ele>
        <time>2013-05-02T11:59:43Z</time>
      </trkpt>
      <trkpt lat="47.72886" lon="-2.73436">
        <ele>125</ele>
        <time>2013-05-02T11:59:44Z</time>
      </trkpt>
      <trkpt lat="47.72888" lon="-2.73433">
        <ele>125</ele>
        <time>2013-05-02T11:59:45Z</time>
      </trkpt>
      <trkpt lat="47.7289" lon="-2.73431">
        <ele>125</ele>
        <time>2013-05-02T11:59:46Z</time>
      </trkpt>
      <trkpt lat="47.72893" lon="-2.73429">
        <ele>125</ele>
        <time>2013-05-02T11:59:47Z</time>
      </trkpt>
      <trkpt lat="47.72897" lon="-2.73427">
        <ele>125</ele>
        <time>2013-05-02T11:59:48Z</time>
      </trkpt>
      <trkpt lat="47.729" lon="-2.73426">
        <ele>125</ele>
        <time>2013-05-02T11:59:49Z</time>
      </trkpt>
      <trkpt lat="47.72903" lon="-2.73424">
        <ele>125</ele>
        <time>2013-05-02T11:59:50Z</time>
      </trkpt>
      <trkpt lat="47.72907" lon="-2.73424">
        <ele>125</ele>
        <time>2013-05-02T11:59:51Z</time>
      </trkpt>
      <trkpt lat="47.72911" lon="-2.73423">
        <ele>125</ele>
        <time>2013-05-02T11:59:52Z</time>
      </trkpt>
      <trkpt lat="47.72917" lon="-2.73422">
        <ele>125</ele>
        <time>2013-05-02T11:59:53Z</time>
      </trkpt>
      <trkpt lat="47.72921" lon="-2.7342">
        <ele>126</ele>
        <time>2013-05-02T11:59:54Z</time>
      </trkpt>
      <trkpt lat="47.72925" lon="-2.73418">
        <ele>126</ele>
        <time>2013-05-02T11:59:55Z</time>
      </trkpt>
      <trkpt lat="47.72929" lon="-2.73416">
        <ele>126</ele>
        <time>2013-05-02T11:59:56Z</time>
      </trkpt>
      <trkpt lat="47.72933" lon="-2.73413">
        <ele>126</ele>
        <time>2013-05-02T11:59:57Z</time>
      </trkpt>
      <trkpt lat="47.72937" lon="-2.7341">
        <ele>126</ele>
        <time>2013-05-02T11:59:58Z</time>
      </trkpt>
      <trkpt lat="47.72941" lon="-2.73406">
        <ele>126</ele>
        <time>2013-05-02T11:59:59Z</time>
      </trkpt>
      <trkpt lat="47.72944" lon="-2.73401">
        <ele>126</ele>
        <time>2013-05-02T12:00:00Z</time>
      </trkpt>
      <trkpt lat="47.72948" lon="-2.73397">
        <ele>126</ele>
        <time>2013-05-02T12:00:01Z</time>
      </trkpt>
      <trkpt lat="47.72952" lon="-2.73393">
        <ele>126</ele>
        <time>2013-05-02T12:00:02Z</time>
      </trkpt>
      <trkpt lat="47.72955" lon="-2.7339">
        <ele>126</ele>
        <time>2013-05-02T12:00:03Z</time>
      </trkpt>
      <trkpt lat="47.72959" lon="-2.73386">
        <ele>126</ele>
        <time>2013-05-02T12:00:04Z</time>
      </trkpt>
      <trkpt lat="47.72963" lon="-2.73383">
        <ele>126</ele>
        <time>2013-05-02T12:00:05Z</time>
      </trkpt>
      <trkpt lat="47.72967" lon="-2.73379">
        <ele>126</ele>
        <time>2013-05-02T12:00:06Z</time>
      </trkpt>
      <trkpt lat="47.72971" lon="-2.73376">
        <ele>126</ele>
        <time>2013-05-02T12:00:07Z</time>
      </trkpt>
      <trkpt lat="47.72974" lon="-2.73371">
        <ele>126</ele>
        <time>2013-05-02T12:00:08Z</time>
      </trkpt>
      <trkpt lat="47.72978" lon="-2.73367">
        <ele>126</ele>
        <time>2013-05-02T12:00:09Z</time>
      </trkpt>
      <trkpt lat="47.72981" lon="-2.73362">
        <ele>126</ele>
        <time>2013-05-02T12:00:10Z</time>
      </trkpt>
      <trkpt lat="47.72984" lon="-2.73357">
        <ele>126</ele>
        <time>2013-05-02T12:00:11Z</time>
      </trkpt>
      <trkpt lat="47.72986" lon="-2.73352">
        <ele>126</ele>
        <time>2013-05-02T12:00:12Z</time>
      </trkpt>
      <trkpt lat="47.72989" lon="-2.73346">
        <ele>126</ele>
        <time>2013-05-02T12:00:13Z</time>
      </trkpt>
      <trkpt lat="47.72992" lon="-2.73341">
        <ele>126</ele>
        <time>2013-05-02T12:00:14Z</time>
      </trkpt>
      <trkpt lat="47.72995" lon="-2.73336">
        <ele>126</ele>
        <time>2013-05-02T12:00:15Z</time>
      </trkpt>
      <trkpt lat="47.72998" lon="-2.73332">
        <ele>126</ele>
        <time>2013-05-02T12:00:16Z</time>
      </trkpt>
      <trkpt lat="47.73002" lon="-2.7333">
        <ele>126</ele>
        <time>2013-05-02T12:00:17Z</time>
      </trkpt>
      <trkpt lat="47.73006" lon="-2.73332">
        <ele>126</ele>
        <time>2013-05-02T12:00:18Z</time>
      </trkpt>
      <trkpt lat="47.73008" lon="-2.73336">
        <ele>126</ele>
        <time>2013-05-02T12:00:19Z</time>
      </trkpt>
      <trkpt lat="47.7301" lon="-2.73339">
        <ele>126</ele>
        <time>2013-05-02T12:00:20Z</time>
      </trkpt>
      <trkpt lat="47.73011" lon="-2.73343">
        <ele>126</ele>
        <time>2013-05-02T12:00:21Z</time>
      </trkpt>
      <trkpt lat="47.73012" lon="-2.73347">
        <ele>126</ele>
        <time>2013-05-02T12:00:22Z</time>
      </trkpt>
      <trkpt lat="47.73014" lon="-2.73353">
        <ele>126</ele>
        <time>2013-05-02T12:00:23Z</time>
      </trkpt>
      <trkpt lat="47.73015" lon="-2.73359">
        <ele>126</ele>
        <time>2013-05-02T12:00:24Z</time>
      </trkpt>
      <trkpt lat="47.73017" lon="-2.73364">
        <ele>126</ele>
        <time>2013-05-02T12:00:25Z</time>
      </trkpt>
      <trkpt lat="47.73019" lon="-2.7337">
        <ele>126</ele>
        <time>2013-05-02T12:00:26Z</time>
      </trkpt>
      <trkpt lat="47.7302" lon="-2.73375">
        <ele>126</ele>
        <time>2013-05-02T12:00:27Z</time>
      </trkpt>
      <trkpt lat="47.7302" lon="-2.73381">
        <ele>126</ele>
        <time>2013-05-02T12:00:28Z</time>
      </trkpt>
      <trkpt lat="47.73022" lon="-2.73388">
        <ele>126</ele>
        <time>2013-05-02T12:00:29Z</time>
      </trkpt>
      <trkpt lat="47.73025" lon="-2.73393">
        <ele>126</ele>
        <time>2013-05-02T12:00:30Z</time>
      </trkpt>
      <trkpt lat="47.73026" lon="-2.73399">
        <ele>126</ele>
        <time>2013-05-02T12:00:31Z</time>
      </trkpt>
      <trkpt lat="47.73029" lon="-2.73405">
        <ele>125</ele>
        <time>2013-05-02T12:00:32Z</time>
      </trkpt>
      <trkpt lat="47.73031" lon="-2.73411">
        <ele>125</ele>
        <time>2013-05-02T12:00:33Z</time>
      </trkpt>
      <trkpt lat="47.73034" lon="-2.73418">
        <ele>125</ele>
        <time>2013-05-02T12:00:34Z</time>
      </trkpt>
      <trkpt lat="47.73037" lon="-2.73424">
        <ele>125</ele>
        <time>2013-05-02T12:00:35Z</time>
      </trkpt>
      <trkpt lat="47.73038" lon="-2.73429">
        <ele>125</ele>
        <time>2013-05-02T12:00:36Z</time>
      </trkpt>
      <trkpt lat="47.7304" lon="-2.73433">
        <ele>125</ele>
        <time>2013-05-02T12:00:37Z</time>
      </trkpt>
      <trkpt lat="47.73041" lon="-2.73436">
        <ele>125</ele>
        <time>2013-05-02T12:00:38Z</time>
      </trkpt>
      <trkpt lat="47.73042" lon="-2.7344">
        <ele>125</ele>
        <time>2013-05-02T12:00:39Z</time>
      </trkpt>
      <trkpt lat="47.73041" lon="-2.73444">
        <ele>125</ele>
        <time>2013-05-02T12:00:40Z</time>
      </trkpt>
      <trkpt lat="47.7304" lon="-2.73448">
        <ele>125</ele>
        <time>2013-05-02T12:00:41Z</time>
      </trkpt>
      <trkpt lat="47.73038" lon="-2.73452">
        <ele>125</ele>
        <time>2013-05-02T12:00:42Z</time>
      </trkpt>
      <trkpt lat="47.73036" lon="-2.73457">
        <ele>125</ele>
        <time>2013-05-02T12:00:43Z</time>
      </trkpt>
      <trkpt lat="47.73034" lon="-2.73463">
        <ele>125</ele>
        <time>2013-05-02T12:00:44Z</time>
      </trkpt>
      <trkpt lat="47.7303" lon="-2.73469">
        <ele>125</ele>
        <time>2013-05-02T12:00:45Z</time>
      </trkpt>
      <trkpt lat="47.73028" lon="-2.73475">
        <ele>125</ele>
        <time>2013-05-02T12:00:46Z</time>
      </trkpt>
      <trkpt lat="47.73026" lon="-2.73481">
        <ele>125</ele>
        <time>2013-05-02T12:00:47Z</time>
      </trkpt>
      <trkpt lat="47.73024" lon="-2.73487">
        <ele>125</ele>
        <time>2013-05-02T12:00:48Z</time>
      </trkpt>
      <trkpt lat="47.73021" lon="-2.73494">
        <ele>125</ele>
        <time>2013-05-02T12:00:49Z</time>
      </trkpt>
      <trkpt lat="47.73019" lon="-2.735">
        <ele>125</ele>
        <time>2013-05-02T12:00:50Z</time>
      </trkpt>
      <trkpt lat="47.73017" lon="-2.73506">
        <ele>125</ele>
        <time>2013-05-02T12:00:51Z</time>
      </trkpt>
      <trkpt lat="47.73014" lon="-2.73513">
        <ele>125</ele>
        <time>2013-05-02T12:00:52Z</time>
      </trkpt>
      <trkpt lat="47.73012" lon="-2.73519">
        <ele>125</ele>
        <time>2013-05-02T12:00:53Z</time>
      </trkpt>
      <trkpt lat="47.73009" lon="-2.73526">
        <ele>125</ele>
        <time>2013-05-02T12:00:54Z</time>
      </trkpt>
      <trkpt lat="47.73006" lon="-2.73532">
        <ele>125</ele>
        <time>2013-05-02T12:00:55Z</time>
      </trkpt>
      <trkpt lat="47.73004" lon="-2.73538">
        <ele>125</ele>
        <time>2013-05-02T12:00:56Z</time>
      </trkpt>
      <trkpt lat="47.73001" lon="-2.73544">
        <ele>125</ele>
        <time>2013-05-02T12:00:57Z</time>
      </trkpt>
      <trkpt lat="47.72998" lon="-2.7355">
        <ele>125</ele>
        <time>2013-05-02T12:00:58Z</time>
      </trkpt>
      <trkpt lat="47.72996" lon="-2.73556">
        <ele>125</ele>
        <time>2013-05-02T12:00:59Z</time>
      </trkpt>
      <trkpt lat="47.72993" lon="-2.73563">
        <ele>125</ele>
        <time>2013-05-02T12:01:00Z</time>
      </trkpt>
      <trkpt lat="47.72991" lon="-2.73569">
        <ele>125</ele>
        <time>2013-05-02T12:01:01Z</time>
      </trkpt>
      <trkpt lat="47.72989" lon="-2.73575">
        <ele>125</ele>
        <time>2013-05-02T12:01:02Z</time>
      </trkpt>
      <trkpt lat="47.72986" lon="-2.73582">
        <ele>125</ele>
        <time>2013-05-02T12:01:03Z</time>
      </trkpt>
      <trkpt lat="47.72984" lon="-2.73589">
        <ele>125</ele>
        <time>2013-05-02T12:01:04Z</time>
      </trkpt>
      <trkpt lat="47.72981" lon="-2.73595">
        <ele>125</ele>
        <time>2013-05-02T12:01:05Z</time>
      </trkpt>
      <trkpt lat="47.72979" lon="-2.73602">
        <ele>125</ele>
        <time>2013-05-02T12:01:06Z</time>
      </trkpt>
      <trkpt lat="47.72976" lon="-2.73608">
        <ele>125</ele>
        <time>2013-05-02T12:01:07Z</time>
      </trkpt>
      <trkpt lat="47.72974" lon="-2.73615">
        <ele>125</ele>
        <time>2013-05-02T12:01:08Z</time>
      </trkpt>
      <trkpt lat="47.72972" lon="-2.73621">
        <ele>125</ele>
        <time>2013-05-02T12:01:09Z</time>
      </trkpt>
      <trkpt lat="47.7297" lon="-2.73626">
        <ele>125</ele>
        <time>2013-05-02T12:01:10Z</time>
      </trkpt>
      <trkpt lat="47.72968" lon="-2.73633">
        <ele>125</ele>
        <time>2013-05-02T12:01:11Z</time>
      </trkpt>
      <trkpt lat="47.72965" lon="-2.73639">
        <ele>125</ele>
        <time>2013-05-02T12:01:12Z</time>
      </trkpt>
      <trkpt lat="47.72963" lon="-2.73644">
        <ele>124</ele>
        <time>2013-05-02T12:01:13Z</time>
      </trkpt>
      <trkpt lat="47.7296" lon="-2.7365">
        <ele>124</ele>
        <time>2013-05-02T12:01:14Z</time>
      </trkpt>
      <trkpt lat="47.72958" lon="-2.73656">
        <ele>124</ele>
        <time>2013-05-02T12:01:15Z</time>
      </trkpt>
      <trkpt lat="47.72956" lon="-2.73661">
        <ele>124</ele>
        <time>2013-05-02T12:01:16Z</time>
      </trkpt>
      <trkpt lat="47.72954" lon="-2.73666">
        <ele>124</ele>
        <time>2013-05-02T12:01:17Z</time>
      </trkpt>
      <trkpt lat="47.72952" lon="-2.73671">
        <ele>124</ele>
        <time>2013-05-02T12:01:18Z</time>
      </trkpt>
      <trkpt lat="47.7295" lon="-2.73675">
        <ele>124</ele>
        <time>2013-05-02T12:01:19Z</time>
      </trkpt>
      <trkpt lat="47.72949" lon="-2.73679">
        <ele>124</ele>
        <time>2013-05-02T12:01:20Z</time>
      </trkpt>
      <trkpt lat="47.72947" lon="-2.73683">
        <ele>124</ele>
        <time>2013-05-02T12:01:21Z</time>
      </trkpt>
      <trkpt lat="47.72946" lon="-2.73686">
        <ele>124</ele>
        <time>2013-05-02T12:01:22Z</time>
      </trkpt>
      <trkpt lat="47.72945" lon="-2.73689">
        <ele>124</ele>
        <time>2013-05-02T12:01:23Z</time>
      </trkpt>
      <trkpt lat="47.72944" lon="-2.73693">
        <ele>124</ele>
        <time>2013-05-02T12:01:24Z</time>
      </trkpt>
      <trkpt lat="47.72943" lon="-2.73696">
        <ele>124</ele>
        <time>2013-05-02T12:01:25Z</time>
      </trkpt>
      <trkpt lat="47.72942" lon="-2.737">
        <ele>124</ele>
        <time>2013-05-02T12:01:26Z</time>
      </trkpt>
      <trkpt lat="47.7294" lon="-2.73705">
        <ele>124</ele>
        <time>2013-05-02T12:01:27Z</time>
      </trkpt>
      <trkpt lat="47.72939" lon="-2.73708">
        <ele>124</ele>
        <time>2013-05-02T12:01:28Z</time>
      </trkpt>
      <trkpt lat="47.72938" lon="-2.7371">
        <ele>124</ele>
        <time>2013-05-02T12:01:29Z</time>
      </trkpt>
      <trkpt lat="47.72938" lon="-2.73712">
        <ele>124</ele>
        <time>2013-05-02T12:01:30Z</time>
      </trkpt>
      <trkpt lat="47.72937" lon="-2.73713">
        <ele>124</ele>
        <time>2013-05-02T12:01:32Z</time>
      </trkpt>
      <trkpt lat="47.72934" lon="-2.73726">
        <ele>124</ele>
        <time>2013-05-02T12:01:36Z</time>
      </trkpt>
      <trkpt lat="47.72932" lon="-2.73731">
        <ele>124</ele>
        <time>2013-05-02T12:01:37Z</time>
      </trkpt>
      <trkpt lat="47.72931" lon="-2.73736">
        <ele>124</ele>
        <time>2013-05-02T12:01:38Z</time>
      </trkpt>
      <trkpt lat="47.72928" lon="-2.73742">
        <ele>124</ele>
        <time>2013-05-02T12:01:39Z</time>
      </trkpt>
      <trkpt lat="47.72926" lon="-2.73748">
        <ele>124</ele>
        <time>2013-05-02T12:01:40Z</time>
      </trkpt>
      <trkpt lat="47.72923" lon="-2.73755">
        <ele>124</ele>
        <time>2013-05-02T12:01:41Z</time>
      </trkpt>
      <trkpt lat="47.72921" lon="-2.7376">
        <ele>124</ele>
        <time>2013-05-02T12:01:42Z</time>
      </trkpt>
      <trkpt lat="47.72919" lon="-2.73766">
        <ele>124</ele>
        <time>2013-05-02T12:01:43Z</time>
      </trkpt>
      <trkpt lat="47.72917" lon="-2.73772">
        <ele>124</ele>
        <time>2013-05-02T12:01:44Z</time>
      </trkpt>
      <trkpt lat="47.72915" lon="-2.73777">
        <ele>124</ele>
        <time>2013-05-02T12:01:45Z</time>
      </trkpt>
      <trkpt lat="47.72913" lon="-2.73782">
        <ele>124</ele>
        <time>2013-05-02T12:01:46Z</time>
      </trkpt>
      <trkpt lat="47.72911" lon="-2.73788">
        <ele>124</ele>
        <time>2013-05-02T12:01:47Z</time>
      </trkpt>
      <trkpt lat="47.72909" lon="-2.73794">
        <ele>124</ele>
        <time>2013-05-02T12:01:48Z</time>
      </trkpt>
      <trkpt lat="47.72906" lon="-2.738">
        <ele>124</ele>
        <time>2013-05-02T12:01:49Z</time>
      </trkpt>
      <trkpt lat="47.72904" lon="-2.73806">
        <ele>124</ele>
        <time>2013-05-02T12:01:50Z</time>
      </trkpt>
      <trkpt lat="47.72902" lon="-2.73812">
        <ele>124</ele>
        <time>2013-05-02T12:01:51Z</time>
      </trkpt>
      <trkpt lat="47.72899" lon="-2.73818">
        <ele>124</ele>
        <time>2013-05-02T12:01:52Z</time>
      </trkpt>
      <trkpt lat="47.72897" lon="-2.73823">
        <ele>124</ele>
        <time>2013-05-02T12:01:53Z</time>
      </trkpt>
      <trkpt lat="47.72894" lon="-2.73829">
        <ele>124</ele>
        <time>2013-05-02T12:01:54Z</time>
      </trkpt>
      <trkpt lat="47.72891" lon="-2.73834">
        <ele>124</ele>
        <time>2013-05-02T12:01:55Z</time>
      </trkpt>
      <trkpt lat="47.72889" lon="-2.7384">
        <ele>124</ele>
        <time>2013-05-02T12:01:56Z</time>
      </trkpt>
      <trkpt lat="47.72887" lon="-2.73845">
        <ele>124</ele>
        <time>2013-05-02T12:01:57Z</time>
      </trkpt>
      <trkpt lat="47.72885" lon="-2.7385">
        <ele>124</ele>
        <time>2013-05-02T12:01:58Z</time>
      </trkpt>
      <trkpt lat="47.72883" lon="-2.73856">
        <ele>124</ele>
        <time>2013-05-02T12:01:59Z</time>
      </trkpt>
      <trkpt lat="47.72881" lon="-2.73861">
        <ele>124</ele>
        <time>2013-05-02T12:02:00Z</time>
      </trkpt>
      <trkpt lat="47.72878" lon="-2.73867">
        <ele>124</ele>
        <time>2013-05-02T12:02:01Z</time>
      </trkpt>
      <trkpt lat="47.72876" lon="-2.73872">
        <ele>124</ele>
        <time>2013-05-02T12:02:02Z</time>
      </trkpt>
      <trkpt lat="47.72874" lon="-2.73878">
        <ele>124</ele>
        <time>2013-05-02T12:02:03Z</time>
      </trkpt>
      <trkpt lat="47.72872" lon="-2.73883">
        <ele>124</ele>
        <time>2013-05-02T12:02:04Z</time>
      </trkpt>
      <trkpt lat="47.7287" lon="-2.73888">
        <ele>124</ele>
        <time>2013-05-02T12:02:05Z</time>
      </trkpt>
      <trkpt lat="47.72868" lon="-2.73893">
        <ele>124</ele>
        <time>2013-05-02T12:02:06Z</time>
      </trkpt>
      <trkpt lat="47.72866" lon="-2.73899">
        <ele>124</ele>
        <time>2013-05-02T12:02:07Z</time>
      </trkpt>
      <trkpt lat="47.72865" lon="-2.73905">
        <ele>124</ele>
        <time>2013-05-02T12:02:08Z</time>
      </trkpt>
      <trkpt lat="47.72863" lon="-2.7391">
        <ele>124</ele>
        <time>2013-05-02T12:02:09Z</time>
      </trkpt>
      <trkpt lat="47.7286" lon="-2.73916">
        <ele>124</ele>
        <time>2013-05-02T12:02:10Z</time>
      </trkpt>
      <trkpt lat="47.72858" lon="-2.73921">
        <ele>124</ele>
        <time>2013-05-02T12:02:11Z</time>
      </trkpt>
      <trkpt lat="47.72855" lon="-2.73926">
        <ele>124</ele>
        <time>2013-05-02T12:02:12Z</time>
      </trkpt>
      <trkpt lat="47.72853" lon="-2.73932">
        <ele>124</ele>
        <time>2013-05-02T12:02:13Z</time>
      </trkpt>
      <trkpt lat="47.7285" lon="-2.73937">
        <ele>124</ele>
        <time>2013-05-02T12:02:14Z</time>
      </trkpt>
      <trkpt lat="47.72847" lon="-2.73941">
        <ele>124</ele>
        <time>2013-05-02T12:02:15Z</time>
      </trkpt>
      <trkpt lat="47.72844" lon="-2.73946">
        <ele>124</ele>
        <time>2013-05-02T12:02:16Z</time>
      </trkpt>
      <trkpt lat="47.72842" lon="-2.7395">
        <ele>124</ele>
        <time>2013-05-02T12:02:17Z</time>
      </trkpt>
      <trkpt lat="47.72839" lon="-2.73953">
        <ele>124</ele>
        <time>2013-05-02T12:02:18Z</time>
      </trkpt>
      <trkpt lat="47.72836" lon="-2.73957">
        <ele>123</ele>
        <time>2013-05-02T12:02:19Z</time>
      </trkpt>
      <trkpt lat="47.72834" lon="-2.7396">
        <ele>123</ele>
        <time>2013-05-02T12:02:20Z</time>
      </trkpt>
      <trkpt lat="47.72831" lon="-2.73963">
        <ele>122</ele>
        <time>2013-05-02T12:02:21Z</time>
      </trkpt>
      <trkpt lat="47.72828" lon="-2.73967">
        <ele>122</ele>
        <time>2013-05-02T12:02:22Z</time>
      </trkpt>
      <trkpt lat="47.72824" lon="-2.73972">
        <ele>121</ele>
        <time>2013-05-02T12:02:23Z</time>
      </trkpt>
      <trkpt lat="47.72821" lon="-2.73976">
        <ele>121</ele>
        <time>2013-05-02T12:02:24Z</time>
      </trkpt>
      <trkpt lat="47.72817" lon="-2.73981">
        <ele>121</ele>
        <time>2013-05-02T12:02:25Z</time>
      </trkpt>
      <trkpt lat="47.72813" lon="-2.73986">
        <ele>120</ele>
        <time>2013-05-02T12:02:26Z</time>
      </trkpt>
      <trkpt lat="47.72808" lon="-2.73992">
        <ele>120</ele>
        <time>2013-05-02T12:02:27Z</time>
      </trkpt>
      <trkpt lat="47.72804" lon="-2.73996">
        <ele>120</ele>
        <time>2013-05-02T12:02:28Z</time>
      </trkpt>
      <trkpt lat="47.728" lon="-2.74">
        <ele>119</ele>
        <time>2013-05-02T12:02:29Z</time>
      </trkpt>
      <trkpt lat="47.72795" lon="-2.74005">
        <ele>119</ele>
        <time>2013-05-02T12:02:30Z</time>
      </trkpt>
      <trkpt lat="47.72791" lon="-2.74009">
        <ele>118</ele>
        <time>2013-05-02T12:02:31Z</time>
      </trkpt>
      <trkpt lat="47.72786" lon="-2.74014">
        <ele>118</ele>
        <time>2013-05-02T12:02:32Z</time>
      </trkpt>
      <trkpt lat="47.7278" lon="-2.74018">
        <ele>118</ele>
        <time>2013-05-02T12:02:33Z</time>
      </trkpt>
      <trkpt lat="47.72775" lon="-2.74022">
        <ele>117</ele>
        <time>2013-05-02T12:02:34Z</time>
      </trkpt>
      <trkpt lat="47.7277" lon="-2.74026">
        <ele>117</ele>
        <time>2013-05-02T12:02:35Z</time>
      </trkpt>
      <trkpt lat="47.72764" lon="-2.7403">
        <ele>116</ele>
        <time>2013-05-02T12:02:36Z</time>
      </trkpt>
      <trkpt lat="47.72759" lon="-2.74035">
        <ele>116</ele>
        <time>2013-05-02T12:02:37Z</time>
      </trkpt>
      <trkpt lat="47.72753" lon="-2.74039">
        <ele>116</ele>
        <time>2013-05-02T12:02:38Z</time>
      </trkpt>
      <trkpt lat="47.72747" lon="-2.74043">
        <ele>116</ele>
        <time>2013-05-02T12:02:39Z</time>
      </trkpt>
      <trkpt lat="47.72742" lon="-2.74047">
        <ele>116</ele>
        <time>2013-05-02T12:02:40Z</time>
      </trkpt>
      <trkpt lat="47.72737" lon="-2.74051">
        <ele>115</ele>
        <time>2013-05-02T12:02:41Z</time>
      </trkpt>
      <trkpt lat="47.72731" lon="-2.74056">
        <ele>115</ele>
        <time>2013-05-02T12:02:42Z</time>
      </trkpt>
      <trkpt lat="47.72726" lon="-2.7406">
        <ele>115</ele>
        <time>2013-05-02T12:02:43Z</time>
      </trkpt>
      <trkpt lat="47.72721" lon="-2.74063">
        <ele>115</ele>
        <time>2013-05-02T12:02:44Z</time>
      </trkpt>
      <trkpt lat="47.72717" lon="-2.74067">
        <ele>115</ele>
        <time>2013-05-02T12:02:45Z</time>
      </trkpt>
      <trkpt lat="47.72712" lon="-2.74071">
        <ele>115</ele>
        <time>2013-05-02T12:02:46Z</time>
      </trkpt>
      <trkpt lat="47.72707" lon="-2.74075">
        <ele>115</ele>
        <time>2013-05-02T12:02:47Z</time>
      </trkpt>
      <trkpt lat="47.72701" lon="-2.74079">
        <ele>115</ele>
        <time>2013-05-02T12:02:48Z</time>
      </trkpt>
      <trkpt lat="47.72696" lon="-2.74083">
        <ele>115</ele>
        <time>2013-05-02T12:02:49Z</time>
      </trkpt>
      <trkpt lat="47.72691" lon="-2.74087">
        <ele>115</ele>
        <time>2013-05-02T12:02:50Z</time>
      </trkpt>
      <trkpt lat="47.72686" lon="-2.74091">
        <ele>115</ele>
        <time>2013-05-02T12:02:51Z</time>
      </trkpt>
      <trkpt lat="47.72681" lon="-2.74095">
        <ele>115</ele>
        <time>2013-05-02T12:02:52Z</time>
      </trkpt>
      <trkpt lat="47.72675" lon="-2.74099">
        <ele>115</ele>
        <time>2013-05-02T12:02:53Z</time>
      </trkpt>
      <trkpt lat="47.7267" lon="-2.74104">
        <ele>115</ele>
        <time>2013-05-02T12:02:54Z</time>
      </trkpt>
      <trkpt lat="47.72664" lon="-2.74108">
        <ele>115</ele>
        <time>2013-05-02T12:02:55Z</time>
      </trkpt>
      <trkpt lat="47.72659" lon="-2.74119">
        <ele>115</ele>
        <time>2013-05-02T12:02:58Z</time>
      </trkpt>
      <trkpt lat="47.72654" lon="-2.74125">
        <ele>114</ele>
        <time>2013-05-02T12:02:59Z</time>
      </trkpt>
      <trkpt lat="47.72648" lon="-2.74128">
        <ele>114</ele>
        <time>2013-05-02T12:03:00Z</time>
      </trkpt>
      <trkpt lat="47.72643" lon="-2.74131">
        <ele>113</ele>
        <time>2013-05-02T12:03:01Z</time>
      </trkpt>
      <trkpt lat="47.72637" lon="-2.74135">
        <ele>112</ele>
        <time>2013-05-02T12:03:02Z</time>
      </trkpt>
      <trkpt lat="47.72631" lon="-2.74139">
        <ele>112</ele>
        <time>2013-05-02T12:03:03Z</time>
      </trkpt>
      <trkpt lat="47.72625" lon="-2.74144">
        <ele>112</ele>
        <time>2013-05-02T12:03:04Z</time>
      </trkpt>
      <trkpt lat="47.7262" lon="-2.74148">
        <ele>112</ele>
        <time>2013-05-02T12:03:05Z</time>
      </trkpt>
      <trkpt lat="47.72615" lon="-2.74153">
        <ele>112</ele>
        <time>2013-05-02T12:03:06Z</time>
      </trkpt>
      <trkpt lat="47.7261" lon="-2.74157">
        <ele>112</ele>
        <time>2013-05-02T12:03:07Z</time>
      </trkpt>
      <trkpt lat="47.72604" lon="-2.74163">
        <ele>112</ele>
        <time>2013-05-02T12:03:08Z</time>
      </trkpt>
      <trkpt lat="47.726" lon="-2.74168">
        <ele>112</ele>
        <time>2013-05-02T12:03:09Z</time>
      </trkpt>
      <trkpt lat="47.72596" lon="-2.74171">
        <ele>112</ele>
        <time>2013-05-02T12:03:10Z</time>
      </trkpt>
      <trkpt lat="47.72592" lon="-2.74175">
        <ele>112</ele>
        <time>2013-05-02T12:03:11Z</time>
      </trkpt>
      <trkpt lat="47.72586" lon="-2.7418">
        <ele>112</ele>
        <time>2013-05-02T12:03:12Z</time>
      </trkpt>
      <trkpt lat="47.72579" lon="-2.74185">
        <ele>112</ele>
        <time>2013-05-02T12:03:13Z</time>
      </trkpt>
      <trkpt lat="47.72574" lon="-2.7419">
        <ele>112</ele>
        <time>2013-05-02T12:03:14Z</time>
      </trkpt>
      <trkpt lat="47.72569" lon="-2.74196">
        <ele>112</ele>
        <time>2013-05-02T12:03:15Z</time>
      </trkpt>
      <trkpt lat="47.72565" lon="-2.74202">
        <ele>112</ele>
        <time>2013-05-02T12:03:16Z</time>
      </trkpt>
      <trkpt lat="47.72561" lon="-2.74207">
        <ele>112</ele>
        <time>2013-05-02T12:03:17Z</time>
      </trkpt>
      <trkpt lat="47.72557" lon="-2.74213">
        <ele>112</ele>
        <time>2013-05-02T12:03:18Z</time>
      </trkpt>
      <trkpt lat="47.72554" lon="-2.74217">
        <ele>112</ele>
        <time>2013-05-02T12:03:19Z</time>
      </trkpt>
      <trkpt lat="47.72552" lon="-2.74221">
        <ele>112</ele>
        <time>2013-05-02T12:03:20Z</time>
      </trkpt>
      <trkpt lat="47.7255" lon="-2.74225">
        <ele>112</ele>
        <time>2013-05-02T12:03:21Z</time>
      </trkpt>
      <trkpt lat="47.72548" lon="-2.74227">
        <ele>112</ele>
        <time>2013-05-02T12:03:22Z</time>
      </trkpt>
      <trkpt lat="47.72546" lon="-2.7423">
        <ele>112</ele>
        <time>2013-05-02T12:03:23Z</time>
      </trkpt>
      <trkpt lat="47.72544" lon="-2.74232">
        <ele>112</ele>
        <time>2013-05-02T12:03:24Z</time>
      </trkpt>
      <trkpt lat="47.72542" lon="-2.74234">
        <ele>112</ele>
        <time>2013-05-02T12:03:25Z</time>
      </trkpt>
      <trkpt lat="47.72541" lon="-2.74237">
        <ele>112</ele>
        <time>2013-05-02T12:03:26Z</time>
      </trkpt>
      <trkpt lat="47.72538" lon="-2.7424">
        <ele>112</ele>
        <time>2013-05-02T12:03:27Z</time>
      </trkpt>
      <trkpt lat="47.72536" lon="-2.74243">
        <ele>112</ele>
        <time>2013-05-02T12:03:28Z</time>
      </trkpt>
      <trkpt lat="47.72535" lon="-2.74245">
        <ele>112</ele>
        <time>2013-05-02T12:03:29Z</time>
      </trkpt>
      <trkpt lat="47.72533" lon="-2.74248">
        <ele>112</ele>
        <time>2013-05-02T12:03:30Z</time>
      </trkpt>
      <trkpt lat="47.72532" lon="-2.74251">
        <ele>112</ele>
        <time>2013-05-02T12:03:31Z</time>
      </trkpt>
      <trkpt lat="47.7253" lon="-2.74253">
        <ele>112</ele>
        <time>2013-05-02T12:03:32Z</time>
      </trkpt>
      <trkpt lat="47.72527" lon="-2.74255">
        <ele>112</ele>
        <time>2013-05-02T12:03:33Z</time>
      </trkpt>
      <trkpt lat="47.72525" lon="-2.74258">
        <ele>112</ele>
        <time>2013-05-02T12:03:34Z</time>
      </trkpt>
      <trkpt lat="47.72523" lon="-2.74261">
        <ele>112</ele>
        <time>2013-05-02T12:03:35Z</time>
      </trkpt>
      <trkpt lat="47.72521" lon="-2.74266">
        <ele>112</ele>
        <time>2013-05-02T12:03:36Z</time>
      </trkpt>
      <trkpt lat="47.72518" lon="-2.7427">
        <ele>112</ele>
        <time>2013-05-02T12:03:37Z</time>
      </trkpt>
      <trkpt lat="47.72516" lon="-2.74274">
        <ele>112</ele>
        <time>2013-05-02T12:03:38Z</time>
      </trkpt>
      <trkpt lat="47.72513" lon="-2.74278">
        <ele>112</ele>
        <time>2013-05-02T12:03:39Z</time>
      </trkpt>
      <trkpt lat="47.7251" lon="-2.74283">
        <ele>112</ele>
        <time>2013-05-02T12:03:40Z</time>
      </trkpt>
      <trkpt lat="47.72507" lon="-2.74288">
        <ele>112</ele>
        <time>2013-05-02T12:03:41Z</time>
      </trkpt>
      <trkpt lat="47.72504" lon="-2.74292">
        <ele>112</ele>
        <time>2013-05-02T12:03:42Z</time>
      </trkpt>
      <trkpt lat="47.72501" lon="-2.74297">
        <ele>112</ele>
        <time>2013-05-02T12:03:43Z</time>
      </trkpt>
      <trkpt lat="47.72497" lon="-2.74302">
        <ele>112</ele>
        <time>2013-05-02T12:03:44Z</time>
      </trkpt>
      <trkpt lat="47.72494" lon="-2.74307">
        <ele>111</ele>
        <time>2013-05-02T12:03:45Z</time>
      </trkpt>
      <trkpt lat="47.72491" lon="-2.74312">
        <ele>111</ele>
        <time>2013-05-02T12:03:46Z</time>
      </trkpt>
      <trkpt lat="47.72488" lon="-2.74318">
        <ele>111</ele>
        <time>2013-05-02T12:03:47Z</time>
      </trkpt>
      <trkpt lat="47.72484" lon="-2.74323">
        <ele>111</ele>
        <time>2013-05-02T12:03:48Z</time>
      </trkpt>
      <trkpt lat="47.7248" lon="-2.74328">
        <ele>111</ele>
        <time>2013-05-02T12:03:49Z</time>
      </trkpt>
      <trkpt lat="47.72477" lon="-2.74334">
        <ele>111</ele>
        <time>2013-05-02T12:03:50Z</time>
      </trkpt>
      <trkpt lat="47.72473" lon="-2.74339">
        <ele>111</ele>
        <time>2013-05-02T12:03:51Z</time>
      </trkpt>
      <trkpt lat="47.72469" lon="-2.74345">
        <ele>111</ele>
        <time>2013-05-02T12:03:52Z</time>
      </trkpt>
      <trkpt lat="47.72466" lon="-2.7435">
        <ele>110</ele>
        <time>2013-05-02T12:03:53Z</time>
      </trkpt>
      <trkpt lat="47.72462" lon="-2.74356">
        <ele>110</ele>
        <time>2013-05-02T12:03:54Z</time>
      </trkpt>
      <trkpt lat="47.72458" lon="-2.74361">
        <ele>110</ele>
        <time>2013-05-02T12:03:55Z</time>
      </trkpt>
      <trkpt lat="47.72453" lon="-2.74367">
        <ele>110</ele>
        <time>2013-05-02T12:03:56Z</time>
      </trkpt>
      <trkpt lat="47.72448" lon="-2.74372">
        <ele>109</ele>
        <time>2013-05-02T12:03:57Z</time>
      </trkpt>
      <trkpt lat="47.72444" lon="-2.74378">
        <ele>109</ele>
        <time>2013-05-02T12:03:58Z</time>
      </trkpt>
      <trkpt lat="47.7244" lon="-2.74383">
        <ele>109</ele>
        <time>2013-05-02T12:03:59Z</time>
      </trkpt>
      <trkpt lat="47.72435" lon="-2.74389">
        <ele>109</ele>
        <time>2013-05-02T12:04:00Z</time>
      </trkpt>
      <trkpt lat="47.7243" lon="-2.74394">
        <ele>109</ele>
        <time>2013-05-02T12:04:01Z</time>
      </trkpt>
      <trkpt lat="47.72426" lon="-2.74399">
        <ele>109</ele>
        <time>2013-05-02T12:04:02Z</time>
      </trkpt>
      <trkpt lat="47.72421" lon="-2.74405">
        <ele>109</ele>
        <time>2013-05-02T12:04:03Z</time>
      </trkpt>
      <trkpt lat="47.72416" lon="-2.74411">
        <ele>109</ele>
        <time>2013-05-02T12:04:04Z</time>
      </trkpt>
      <trkpt lat="47.72411" lon="-2.74416">
        <ele>109</ele>
        <time>2013-05-02T12:04:05Z</time>
      </trkpt>
      <trkpt lat="47.72406" lon="-2.74421">
        <ele>109</ele>
        <time>2013-05-02T12:04:06Z</time>
      </trkpt>
      <trkpt lat="47.72401" lon="-2.74427">
        <ele>109</ele>
        <time>2013-05-02T12:04:07Z</time>
      </trkpt>
      <trkpt lat="47.72397" lon="-2.74431">
        <ele>109</ele>
        <time>2013-05-02T12:04:08Z</time>
      </trkpt>
      <trkpt lat="47.72393" lon="-2.74436">
        <ele>109</ele>
        <time>2013-05-02T12:04:09Z</time>
      </trkpt>
      <trkpt lat="47.72388" lon="-2.74441">
        <ele>109</ele>
        <time>2013-05-02T12:04:10Z</time>
      </trkpt>
      <trkpt lat="47.72382" lon="-2.74446">
        <ele>109</ele>
        <time>2013-05-02T12:04:11Z</time>
      </trkpt>
      <trkpt lat="47.72379" lon="-2.7445">
        <ele>109</ele>
        <time>2013-05-02T12:04:12Z</time>
      </trkpt>
      <trkpt lat="47.72375" lon="-2.74454">
        <ele>109</ele>
        <time>2013-05-02T12:04:13Z</time>
      </trkpt>
      <trkpt lat="47.72371" lon="-2.74458">
        <ele>109</ele>
        <time>2013-05-02T12:04:14Z</time>
      </trkpt>
      <trkpt lat="47.72366" lon="-2.74463">
        <ele>108</ele>
        <time>2013-05-02T12:04:15Z</time>
      </trkpt>
      <trkpt lat="47.72361" lon="-2.74468">
        <ele>108</ele>
        <time>2013-05-02T12:04:16Z</time>
      </trkpt>
      <trkpt lat="47.72356" lon="-2.74474">
        <ele>108</ele>
        <time>2013-05-02T12:04:17Z</time>
      </trkpt>
      <trkpt lat="47.72351" lon="-2.7448">
        <ele>107</ele>
        <time>2013-05-02T12:04:18Z</time>
      </trkpt>
      <trkpt lat="47.72347" lon="-2.74486">
        <ele>107</ele>
        <time>2013-05-02T12:04:19Z</time>
      </trkpt>
      <trkpt lat="47.72343" lon="-2.74493">
        <ele>107</ele>
        <time>2013-05-02T12:04:20Z</time>
      </trkpt>
      <trkpt lat="47.7234" lon="-2.74499">
        <ele>106</ele>
        <time>2013-05-02T12:04:21Z</time>
      </trkpt>
      <trkpt lat="47.72336" lon="-2.74504">
        <ele>106</ele>
        <time>2013-05-02T12:04:22Z</time>
      </trkpt>
      <trkpt lat="47.72333" lon="-2.7451">
        <ele>105</ele>
        <time>2013-05-02T12:04:23Z</time>
      </trkpt>
      <trkpt lat="47.7233" lon="-2.74515">
        <ele>105</ele>
        <time>2013-05-02T12:04:24Z</time>
      </trkpt>
      <trkpt lat="47.72329" lon="-2.74518">
        <ele>105</ele>
        <time>2013-05-02T12:04:25Z</time>
      </trkpt>
      <trkpt lat="47.72327" lon="-2.74522">
        <ele>105</ele>
        <time>2013-05-02T12:04:26Z</time>
      </trkpt>
      <trkpt lat="47.72324" lon="-2.74526">
        <ele>105</ele>
        <time>2013-05-02T12:04:27Z</time>
      </trkpt>
      <trkpt lat="47.72322" lon="-2.74531">
        <ele>105</ele>
        <time>2013-05-02T12:04:28Z</time>
      </trkpt>
      <trkpt lat="47.72321" lon="-2.74536">
        <ele>105</ele>
        <time>2013-05-02T12:04:29Z</time>
      </trkpt>
      <trkpt lat="47.72321" lon="-2.74542">
        <ele>105</ele>
        <time>2013-05-02T12:04:30Z</time>
      </trkpt>
      <trkpt lat="47.72321" lon="-2.74547">
        <ele>105</ele>
        <time>2013-05-02T12:04:31Z</time>
      </trkpt>
      <trkpt lat="47.72321" lon="-2.74553">
        <ele>105</ele>
        <time>2013-05-02T12:04:32Z</time>
      </trkpt>
      <trkpt lat="47.72321" lon="-2.74557">
        <ele>105</ele>
        <time>2013-05-02T12:04:33Z</time>
      </trkpt>
      <trkpt lat="47.72321" lon="-2.74563">
        <ele>105</ele>
        <time>2013-05-02T12:04:34Z</time>
      </trkpt>
      <trkpt lat="47.7232" lon="-2.74568">
        <ele>105</ele>
        <time>2013-05-02T12:04:35Z</time>
      </trkpt>
      <trkpt lat="47.72319" lon="-2.74574">
        <ele>105</ele>
        <time>2013-05-02T12:04:36Z</time>
      </trkpt>
      <trkpt lat="47.72319" lon="-2.74578">
        <ele>105</ele>
        <time>2013-05-02T12:04:37Z</time>
      </trkpt>
      <trkpt lat="47.72319" lon="-2.74584">
        <ele>105</ele>
        <time>2013-05-02T12:04:38Z</time>
      </trkpt>
      <trkpt lat="47.72318" lon="-2.74588">
        <ele>105</ele>
        <time>2013-05-02T12:04:39Z</time>
      </trkpt>
      <trkpt lat="47.72317" lon="-2.74592">
        <ele>105</ele>
        <time>2013-05-02T12:04:40Z</time>
      </trkpt>
      <trkpt lat="47.72315" lon="-2.74596">
        <ele>105</ele>
        <time>2013-05-02T12:04:41Z</time>
      </trkpt>
      <trkpt lat="47.72314" lon="-2.74601">
        <ele>105</ele>
        <time>2013-05-02T12:04:42Z</time>
      </trkpt>
      <trkpt lat="47.72313" lon="-2.74606">
        <ele>106</ele>
        <time>2013-05-02T12:04:43Z</time>
      </trkpt>
      <trkpt lat="47.72311" lon="-2.74611">
        <ele>106</ele>
        <time>2013-05-02T12:04:44Z</time>
      </trkpt>
      <trkpt lat="47.7231" lon="-2.74617">
        <ele>107</ele>
        <time>2013-05-02T12:04:45Z</time>
      </trkpt>
      <trkpt lat="47.72309" lon="-2.74622">
        <ele>107</ele>
        <time>2013-05-02T12:04:46Z</time>
      </trkpt>
      <trkpt lat="47.72309" lon="-2.74627">
        <ele>107</ele>
        <time>2013-05-02T12:04:47Z</time>
      </trkpt>
      <trkpt lat="47.72309" lon="-2.74633">
        <ele>107</ele>
        <time>2013-05-02T12:04:48Z</time>
      </trkpt>
      <trkpt lat="47.72309" lon="-2.74637">
        <ele>107</ele>
        <time>2013-05-02T12:04:49Z</time>
      </trkpt>
      <trkpt lat="47.7231" lon="-2.7464">
        <ele>107</ele>
        <time>2013-05-02T12:04:50Z</time>
      </trkpt>
      <trkpt lat="47.72312" lon="-2.74642">
        <ele>107</ele>
        <time>2013-05-02T12:04:51Z</time>
      </trkpt>
      <trkpt lat="47.72314" lon="-2.74643">
        <ele>107</ele>
        <time>2013-05-02T12:04:52Z</time>
      </trkpt>
      <trkpt lat="47.72317" lon="-2.74644">
        <ele>108</ele>
        <time>2013-05-02T12:04:53Z</time>
      </trkpt>
      <trkpt lat="47.7232" lon="-2.74646">
        <ele>108</ele>
        <time>2013-05-02T12:04:54Z</time>
      </trkpt>
      <trkpt lat="47.72322" lon="-2.74648">
        <ele>108</ele>
        <time>2013-05-02T12:04:55Z</time>
      </trkpt>
      <trkpt lat="47.72324" lon="-2.7465">
        <ele>109</ele>
        <time>2013-05-02T12:04:56Z</time>
      </trkpt>
      <trkpt lat="47.72326" lon="-2.74652">
        <ele>109</ele>
        <time>2013-05-02T12:04:57Z</time>
      </trkpt>
      <trkpt lat="47.72327" lon="-2.74654">
        <ele>110</ele>
        <time>2013-05-02T12:04:58Z</time>
      </trkpt>
      <trkpt lat="47.72328" lon="-2.74657">
        <ele>111</ele>
        <time>2013-05-02T12:04:59Z</time>
      </trkpt>
      <trkpt lat="47.72329" lon="-2.74659">
        <ele>111</ele>
        <time>2013-05-02T12:05:00Z</time>
      </trkpt>
      <trkpt lat="47.7233" lon="-2.74662">
        <ele>112</ele>
        <time>2013-05-02T12:05:01Z</time>
      </trkpt>
      <trkpt lat="47.72332" lon="-2.74664">
        <ele>112</ele>
        <time>2013-05-02T12:05:02Z</time>
      </trkpt>
      <trkpt lat="47.72333" lon="-2.74667">
        <ele>112</ele>
        <time>2013-05-02T12:05:03Z</time>
      </trkpt>
      <trkpt lat="47.72335" lon="-2.7467">
        <ele>112</ele>
        <time>2013-05-02T12:05:04Z</time>
      </trkpt>
      <trkpt lat="47.72336" lon="-2.74673">
        <ele>113</ele>
        <time>2013-05-02T12:05:05Z</time>
      </trkpt>
      <trkpt lat="47.72336" lon="-2.74676">
        <ele>113</ele>
        <time>2013-05-02T12:05:06Z</time>
      </trkpt>
      <trkpt lat="47.72337" lon="-2.74678">
        <ele>113</ele>
        <time>2013-05-02T12:05:07Z</time>
      </trkpt>
      <trkpt lat="47.72338" lon="-2.74681">
        <ele>114</ele>
        <time>2013-05-02T12:05:08Z</time>
      </trkpt>
      <trkpt lat="47.7234" lon="-2.74685">
        <ele>114</ele>
        <time>2013-05-02T12:05:09Z</time>
      </trkpt>
      <trkpt lat="47.72341" lon="-2.74689">
        <ele>114</ele>
        <time>2013-05-02T12:05:10Z</time>
      </trkpt>
      <trkpt lat="47.72342" lon="-2.74694">
        <ele>114</ele>
        <time>2013-05-02T12:05:11Z</time>
      </trkpt>
      <trkpt lat="47.72343" lon="-2.74698">
        <ele>115</ele>
        <time>2013-05-02T12:05:12Z</time>
      </trkpt>
      <trkpt lat="47.72343" lon="-2.74703">
        <ele>115</ele>
        <time>2013-05-02T12:05:13Z</time>
      </trkpt>
      <trkpt lat="47.72345" lon="-2.74706">
        <ele>115</ele>
        <time>2013-05-02T12:05:14Z</time>
      </trkpt>
      <trkpt lat="47.72346" lon="-2.74711">
        <ele>115</ele>
        <time>2013-05-02T12:05:15Z</time>
      </trkpt>
      <trkpt lat="47.72348" lon="-2.74714">
        <ele>115</ele>
        <time>2013-05-02T12:05:16Z</time>
      </trkpt>
      <trkpt lat="47.72348" lon="-2.74719">
        <ele>115</ele>
        <time>2013-05-02T12:05:17Z</time>
      </trkpt>
      <trkpt lat="47.72349" lon="-2.74723">
        <ele>115</ele>
        <time>2013-05-02T12:05:18Z</time>
      </trkpt>
      <trkpt lat="47.72349" lon="-2.74728">
        <ele>115</ele>
        <time>2013-05-02T12:05:19Z</time>
      </trkpt>
      <trkpt lat="47.72349" lon="-2.74732">
        <ele>115</ele>
        <time>2013-05-02T12:05:20Z</time>
      </trkpt>
      <trkpt lat="47.72349" lon="-2.74737">
        <ele>115</ele>
        <time>2013-05-02T12:05:21Z</time>
      </trkpt>
      <trkpt lat="47.72349" lon="-2.74741">
        <ele>115</ele>
        <time>2013-05-02T12:05:22Z</time>
      </trkpt>
      <trkpt lat="47.72349" lon="-2.74745">
        <ele>115</ele>
        <time>2013-05-02T12:05:23Z</time>
      </trkpt>
      <trkpt lat="47.72347" lon="-2.74748">
        <ele>115</ele>
        <time>2013-05-02T12:05:24Z</time>
      </trkpt>
      <trkpt lat="47.72346" lon="-2.74752">
        <ele>115</ele>
        <time>2013-05-02T12:05:25Z</time>
      </trkpt>
      <trkpt lat="47.72345" lon="-2.74754">
        <ele>115</ele>
        <time>2013-05-02T12:05:26Z</time>
      </trkpt>
      <trkpt lat="47.72343" lon="-2.74756">
        <ele>115</ele>
        <time>2013-05-02T12:05:27Z</time>
      </trkpt>
      <trkpt lat="47.7234" lon="-2.74757">
        <ele>115</ele>
        <time>2013-05-02T12:05:28Z</time>
      </trkpt>
      <trkpt lat="47.72338" lon="-2.74758">
        <ele>115</ele>
        <time>2013-05-02T12:05:29Z</time>
      </trkpt>
      <trkpt lat="47.72335" lon="-2.7476">
        <ele>115</ele>
        <time>2013-05-02T12:05:30Z</time>
      </trkpt>
      <trkpt lat="47.72332" lon="-2.74761">
        <ele>115</ele>
        <time>2013-05-02T12:05:31Z</time>
      </trkpt>
      <trkpt lat="47.72329" lon="-2.74762">
        <ele>115</ele>
        <time>2013-05-02T12:05:32Z</time>
      </trkpt>
      <trkpt lat="47.72327" lon="-2.74765">
        <ele>115</ele>
        <time>2013-05-02T12:05:33Z</time>
      </trkpt>
      <trkpt lat="47.72325" lon="-2.74769">
        <ele>115</ele>
        <time>2013-05-02T12:05:34Z</time>
      </trkpt>
      <trkpt lat="47.72325" lon="-2.74773">
        <ele>115</ele>
        <time>2013-05-02T12:05:35Z</time>
      </trkpt>
      <trkpt lat="47.72325" lon="-2.74776">
        <ele>115</ele>
        <time>2013-05-02T12:05:36Z</time>
      </trkpt>
      <trkpt lat="47.72325" lon="-2.7478">
        <ele>115</ele>
        <time>2013-05-02T12:05:37Z</time>
      </trkpt>
      <trkpt lat="47.72326" lon="-2.74785">
        <ele>115</ele>
        <time>2013-05-02T12:05:38Z</time>
      </trkpt>
      <trkpt lat="47.72326" lon="-2.74789">
        <ele>115</ele>
        <time>2013-05-02T12:05:39Z</time>
      </trkpt>
      <trkpt lat="47.72327" lon="-2.74794">
        <ele>115</ele>
        <time>2013-05-02T12:05:40Z</time>
      </trkpt>
      <trkpt lat="47.72327" lon="-2.748">
        <ele>115</ele>
        <time>2013-05-02T12:05:41Z</time>
      </trkpt>
      <trkpt lat="47.72328" lon="-2.74805">
        <ele>115</ele>
        <time>2013-05-02T12:05:42Z</time>
      </trkpt>
      <trkpt lat="47.72329" lon="-2.74811">
        <ele>115</ele>
        <time>2013-05-02T12:05:43Z</time>
      </trkpt>
      <trkpt lat="47.72329" lon="-2.74816">
        <ele>115</ele>
        <time>2013-05-02T12:05:44Z</time>
      </trkpt>
      <trkpt lat="47.7233" lon="-2.74822">
        <ele>115</ele>
        <time>2013-05-02T12:05:46Z</time>
      </trkpt>
      <trkpt lat="47.72331" lon="-2.74827">
        <ele>115</ele>
        <time>2013-05-02T12:05:46Z</time>
      </trkpt>
      <trkpt lat="47.72332" lon="-2.74833">
        <ele>115</ele>
        <time>2013-05-02T12:05:47Z</time>
      </trkpt>
      <trkpt lat="47.72332" lon="-2.7484">
        <ele>115</ele>
        <time>2013-05-02T12:05:48Z</time>
      </trkpt>
      <trkpt lat="47.72334" lon="-2.74846">
        <ele>115</ele>
        <time>2013-05-02T12:05:49Z</time>
      </trkpt>
      <trkpt lat="47.72335" lon="-2.74852">
        <ele>115</ele>
        <time>2013-05-02T12:05:50Z</time>
      </trkpt>
      <trkpt lat="47.72336" lon="-2.74858">
        <ele>115</ele>
        <time>2013-05-02T12:05:51Z</time>
      </trkpt>
      <trkpt lat="47.72336" lon="-2.74864">
        <ele>115</ele>
        <time>2013-05-02T12:05:52Z</time>
      </trkpt>
      <trkpt lat="47.72337" lon="-2.74869">
        <ele>115</ele>
        <time>2013-05-02T12:05:53Z</time>
      </trkpt>
      <trkpt lat="47.72337" lon="-2.74876">
        <ele>115</ele>
        <time>2013-05-02T12:05:54Z</time>
      </trkpt>
      <trkpt lat="47.72338" lon="-2.74883">
        <ele>115</ele>
        <time>2013-05-02T12:05:55Z</time>
      </trkpt>
      <trkpt lat="47.72339" lon="-2.7489">
        <ele>115</ele>
        <time>2013-05-02T12:05:56Z</time>
      </trkpt>
      <trkpt lat="47.7234" lon="-2.74897">
        <ele>115</ele>
        <time>2013-05-02T12:05:57Z</time>
      </trkpt>
      <trkpt lat="47.72341" lon="-2.74904">
        <ele>115</ele>
        <time>2013-05-02T12:05:58Z</time>
      </trkpt>
      <trkpt lat="47.72342" lon="-2.7491">
        <ele>115</ele>
        <time>2013-05-02T12:05:59Z</time>
      </trkpt>
      <trkpt lat="47.72342" lon="-2.74915">
        <ele>115</ele>
        <time>2013-05-02T12:06:00Z</time>
      </trkpt>
      <trkpt lat="47.72343" lon="-2.7492">
        <ele>115</ele>
        <time>2013-05-02T12:06:01Z</time>
      </trkpt>
      <trkpt lat="47.72343" lon="-2.74923">
        <ele>115</ele>
        <time>2013-05-02T12:06:02Z</time>
      </trkpt>
      <trkpt lat="47.72344" lon="-2.74928">
        <ele>115</ele>
        <time>2013-05-02T12:06:03Z</time>
      </trkpt>
      <trkpt lat="47.72345" lon="-2.74934">
        <ele>115</ele>
        <time>2013-05-02T12:06:04Z</time>
      </trkpt>
      <trkpt lat="47.72347" lon="-2.7494">
        <ele>115</ele>
        <time>2013-05-02T12:06:05Z</time>
      </trkpt>
      <trkpt lat="47.72349" lon="-2.74946">
        <ele>115</ele>
        <time>2013-05-02T12:06:06Z</time>
      </trkpt>
      <trkpt lat="47.72351" lon="-2.74951">
        <ele>115</ele>
        <time>2013-05-02T12:06:07Z</time>
      </trkpt>
      <trkpt lat="47.72354" lon="-2.74955">
        <ele>115</ele>
        <time>2013-05-02T12:06:08Z</time>
      </trkpt>
      <trkpt lat="47.72356" lon="-2.74958">
        <ele>115</ele>
        <time>2013-05-02T12:06:09Z</time>
      </trkpt>
      <trkpt lat="47.72358" lon="-2.74962">
        <ele>115</ele>
        <time>2013-05-02T12:06:10Z</time>
      </trkpt>
      <trkpt lat="47.72361" lon="-2.74966">
        <ele>115</ele>
        <time>2013-05-02T12:06:11Z</time>
      </trkpt>
      <trkpt lat="47.72363" lon="-2.74971">
        <ele>115</ele>
        <time>2013-05-02T12:06:12Z</time>
      </trkpt>
      <trkpt lat="47.72366" lon="-2.74976">
        <ele>115</ele>
        <time>2013-05-02T12:06:13Z</time>
      </trkpt>
      <trkpt lat="47.72367" lon="-2.74981">
        <ele>115</ele>
        <time>2013-05-02T12:06:14Z</time>
      </trkpt>
      <trkpt lat="47.72368" lon="-2.74985">
        <ele>115</ele>
        <time>2013-05-02T12:06:15Z</time>
      </trkpt>
      <trkpt lat="47.72369" lon="-2.7499">
        <ele>115</ele>
        <time>2013-05-02T12:06:16Z</time>
      </trkpt>
      <trkpt lat="47.7237" lon="-2.74996">
        <ele>115</ele>
        <time>2013-05-02T12:06:17Z</time>
      </trkpt>
      <trkpt lat="47.72371" lon="-2.75002">
        <ele>115</ele>
        <time>2013-05-02T12:06:18Z</time>
      </trkpt>
      <trkpt lat="47.72371" lon="-2.75009">
        <ele>115</ele>
        <time>2013-05-02T12:06:19Z</time>
      </trkpt>
      <trkpt lat="47.72371" lon="-2.75016">
        <ele>115</ele>
        <time>2013-05-02T12:06:20Z</time>
      </trkpt>
      <trkpt lat="47.72372" lon="-2.75023">
        <ele>115</ele>
        <time>2013-05-02T12:06:21Z</time>
      </trkpt>
      <trkpt lat="47.72372" lon="-2.75029">
        <ele>115</ele>
        <time>2013-05-02T12:06:22Z</time>
      </trkpt>
      <trkpt lat="47.72372" lon="-2.75036">
        <ele>115</ele>
        <time>2013-05-02T12:06:23Z</time>
      </trkpt>
      <trkpt lat="47.72373" lon="-2.75041">
        <ele>115</ele>
        <time>2013-05-02T12:06:24Z</time>
      </trkpt>
      <trkpt lat="47.72373" lon="-2.75043">
        <ele>115</ele>
        <time>2013-05-02T12:06:25Z</time>
      </trkpt>
      <trkpt lat="47.72374" lon="-2.75045">
        <ele>115</ele>
        <time>2013-05-02T12:06:29Z</time>
      </trkpt>
      <trkpt lat="47.72384" lon="-2.75044">
        <ele>117</ele>
        <time>2013-05-02T12:06:39Z</time>
      </trkpt>
      <trkpt lat="47.72375" lon="-2.75052">
        <ele>116</ele>
        <time>2013-05-02T12:06:44Z</time>
      </trkpt>
      <trkpt lat="47.72375" lon="-2.75053">
        <ele>116</ele>
        <time>2013-05-02T12:06:47Z</time>
      </trkpt>
      <trkpt lat="47.72387" lon="-2.75055">
        <ele>115</ele>
        <time>2013-05-02T12:06:53Z</time>
      </trkpt>
      <trkpt lat="47.72387" lon="-2.75059">
        <ele>115</ele>
        <time>2013-05-02T12:06:54Z</time>
      </trkpt>
      <trkpt lat="47.72388" lon="-2.75063">
        <ele>115</ele>
        <time>2013-05-02T12:06:55Z</time>
      </trkpt>
      <trkpt lat="47.7239" lon="-2.75067">
        <ele>115</ele>
        <time>2013-05-02T12:06:56Z</time>
      </trkpt>
      <trkpt lat="47.72392" lon="-2.75072">
        <ele>115</ele>
        <time>2013-05-02T12:06:57Z</time>
      </trkpt>
      <trkpt lat="47.72394" lon="-2.75078">
        <ele>115</ele>
        <time>2013-05-02T12:06:58Z</time>
      </trkpt>
      <trkpt lat="47.72395" lon="-2.75083">
        <ele>115</ele>
        <time>2013-05-02T12:06:59Z</time>
      </trkpt>
      <trkpt lat="47.72397" lon="-2.75088">
        <ele>115</ele>
        <time>2013-05-02T12:07:00Z</time>
      </trkpt>
      <trkpt lat="47.72399" lon="-2.75093">
        <ele>115</ele>
        <time>2013-05-02T12:07:01Z</time>
      </trkpt>
      <trkpt lat="47.72401" lon="-2.75098">
        <ele>115</ele>
        <time>2013-05-02T12:07:02Z</time>
      </trkpt>
      <trkpt lat="47.72403" lon="-2.75103">
        <ele>115</ele>
        <time>2013-05-02T12:07:03Z</time>
      </trkpt>
      <trkpt lat="47.72404" lon="-2.75108">
        <ele>115</ele>
        <time>2013-05-02T12:07:04Z</time>
      </trkpt>
      <trkpt lat="47.72407" lon="-2.75114">
        <ele>115</ele>
        <time>2013-05-02T12:07:05Z</time>
      </trkpt>
      <trkpt lat="47.7241" lon="-2.75119">
        <ele>115</ele>
        <time>2013-05-02T12:07:06Z</time>
      </trkpt>
      <trkpt lat="47.72412" lon="-2.75125">
        <ele>115</ele>
        <time>2013-05-02T12:07:07Z</time>
      </trkpt>
      <trkpt lat="47.72414" lon="-2.7513">
        <ele>115</ele>
        <time>2013-05-02T12:07:08Z</time>
      </trkpt>
      <trkpt lat="47.72417" lon="-2.75135">
        <ele>115</ele>
        <time>2013-05-02T12:07:09Z</time>
      </trkpt>
      <trkpt lat="47.7242" lon="-2.75141">
        <ele>115</ele>
        <time>2013-05-02T12:07:10Z</time>
      </trkpt>
      <trkpt lat="47.72423" lon="-2.75146">
        <ele>115</ele>
        <time>2013-05-02T12:07:11Z</time>
      </trkpt>
      <trkpt lat="47.72426" lon="-2.75151">
        <ele>115</ele>
        <time>2013-05-02T12:07:12Z</time>
      </trkpt>
      <trkpt lat="47.72429" lon="-2.75157">
        <ele>115</ele>
        <time>2013-05-02T12:07:13Z</time>
      </trkpt>
      <trkpt lat="47.72431" lon="-2.75162">
        <ele>115</ele>
        <time>2013-05-02T12:07:14Z</time>
      </trkpt>
      <trkpt lat="47.72433" lon="-2.75167">
        <ele>115</ele>
        <time>2013-05-02T12:07:15Z</time>
      </trkpt>
      <trkpt lat="47.72435" lon="-2.75172">
        <ele>115</ele>
        <time>2013-05-02T12:07:16Z</time>
      </trkpt>
      <trkpt lat="47.72436" lon="-2.75178">
        <ele>115</ele>
        <time>2013-05-02T12:07:17Z</time>
      </trkpt>
      <trkpt lat="47.72438" lon="-2.75184">
        <ele>115</ele>
        <time>2013-05-02T12:07:18Z</time>
      </trkpt>
      <trkpt lat="47.72439" lon="-2.75189">
        <ele>115</ele>
        <time>2013-05-02T12:07:19Z</time>
      </trkpt>
      <trkpt lat="47.7244" lon="-2.75194">
        <ele>115</ele>
        <time>2013-05-02T12:07:20Z</time>
      </trkpt>
      <trkpt lat="47.72441" lon="-2.75198">
        <ele>115</ele>
        <time>2013-05-02T12:07:21Z</time>
      </trkpt>
      <trkpt lat="47.72442" lon="-2.75202">
        <ele>115</ele>
        <time>2013-05-02T12:07:22Z</time>
      </trkpt>
      <trkpt lat="47.72443" lon="-2.75205">
        <ele>115</ele>
        <time>2013-05-02T12:07:23Z</time>
      </trkpt>
      <trkpt lat="47.72444" lon="-2.75209">
        <ele>115</ele>
        <time>2013-05-02T12:07:24Z</time>
      </trkpt>
      <trkpt lat="47.72446" lon="-2.75213">
        <ele>115</ele>
        <time>2013-05-02T12:07:25Z</time>
      </trkpt>
      <trkpt lat="47.72447" lon="-2.75217">
        <ele>115</ele>
        <time>2013-05-02T12:07:26Z</time>
      </trkpt>
      <trkpt lat="47.72448" lon="-2.7522">
        <ele>115</ele>
        <time>2013-05-02T12:07:27Z</time>
      </trkpt>
      <trkpt lat="47.72449" lon="-2.75223">
        <ele>115</ele>
        <time>2013-05-02T12:07:28Z</time>
      </trkpt>
      <trkpt lat="47.7245" lon="-2.75225">
        <ele>115</ele>
        <time>2013-05-02T12:07:29Z</time>
      </trkpt>
      <trkpt lat="47.72451" lon="-2.75226">
        <ele>115</ele>
        <time>2013-05-02T12:07:31Z</time>
      </trkpt>
      <trkpt lat="47.72446" lon="-2.75212">
        <ele>115</ele>
        <time>2013-05-02T12:07:35Z</time>
      </trkpt>
      <trkpt lat="47.72444" lon="-2.75208">
        <ele>115</ele>
        <time>2013-05-02T12:07:36Z</time>
      </trkpt>
      <trkpt lat="47.72443" lon="-2.75204">
        <ele>115</ele>
        <time>2013-05-02T12:07:37Z</time>
      </trkpt>
      <trkpt lat="47.72442" lon="-2.75201">
        <ele>115</ele>
        <time>2013-05-02T12:07:38Z</time>
      </trkpt>
      <trkpt lat="47.72441" lon="-2.75198">
        <ele>115</ele>
        <time>2013-05-02T12:07:39Z</time>
      </trkpt>
      <trkpt lat="47.7244" lon="-2.75194">
        <ele>115</ele>
        <time>2013-05-02T12:07:40Z</time>
      </trkpt>
      <trkpt lat="47.72439" lon="-2.75188">
        <ele>115</ele>
        <time>2013-05-02T12:07:41Z</time>
      </trkpt>
      <trkpt lat="47.72438" lon="-2.75182">
        <ele>115</ele>
        <time>2013-05-02T12:07:42Z</time>
      </trkpt>
      <trkpt lat="47.72437" lon="-2.75176">
        <ele>115</ele>
        <time>2013-05-02T12:07:43Z</time>
      </trkpt>
      <trkpt lat="47.72434" lon="-2.7517">
        <ele>115</ele>
        <time>2013-05-02T12:07:44Z</time>
      </trkpt>
      <trkpt lat="47.72432" lon="-2.75164">
        <ele>115</ele>
        <time>2013-05-02T12:07:45Z</time>
      </trkpt>
      <trkpt lat="47.7243" lon="-2.75159">
        <ele>115</ele>
        <time>2013-05-02T12:07:46Z</time>
      </trkpt>
      <trkpt lat="47.72428" lon="-2.75154">
        <ele>115</ele>
        <time>2013-05-02T12:07:47Z</time>
      </trkpt>
      <trkpt lat="47.72426" lon="-2.75149">
        <ele>115</ele>
        <time>2013-05-02T12:07:48Z</time>
      </trkpt>
      <trkpt lat="47.72423" lon="-2.75145">
        <ele>115</ele>
        <time>2013-05-02T12:07:49Z</time>
      </trkpt>
      <trkpt lat="47.72421" lon="-2.7514">
        <ele>115</ele>
        <time>2013-05-02T12:07:50Z</time>
      </trkpt>
      <trkpt lat="47.72418" lon="-2.75136">
        <ele>115</ele>
        <time>2013-05-02T12:07:51Z</time>
      </trkpt>
      <trkpt lat="47.72415" lon="-2.75131">
        <ele>115</ele>
        <time>2013-05-02T12:07:52Z</time>
      </trkpt>
      <trkpt lat="47.72413" lon="-2.75127">
        <ele>115</ele>
        <time>2013-05-02T12:07:53Z</time>
      </trkpt>
      <trkpt lat="47.72411" lon="-2.75123">
        <ele>115</ele>
        <time>2013-05-02T12:07:54Z</time>
      </trkpt>
      <trkpt lat="47.72409" lon="-2.75119">
        <ele>115</ele>
        <time>2013-05-02T12:07:55Z</time>
      </trkpt>
      <trkpt lat="47.72407" lon="-2.75115">
        <ele>115</ele>
        <time>2013-05-02T12:07:56Z</time>
      </trkpt>
      <trkpt lat="47.72404" lon="-2.75109">
        <ele>115</ele>
        <time>2013-05-02T12:07:57Z</time>
      </trkpt>
      <trkpt lat="47.72402" lon="-2.75103">
        <ele>115</ele>
        <time>2013-05-02T12:07:58Z</time>
      </trkpt>
      <trkpt lat="47.72399" lon="-2.75097">
        <ele>115</ele>
        <time>2013-05-02T12:07:59Z</time>
      </trkpt>
      <trkpt lat="47.72396" lon="-2.75091">
        <ele>115</ele>
        <time>2013-05-02T12:08:00Z</time>
      </trkpt>
      <trkpt lat="47.72395" lon="-2.75084">
        <ele>115</ele>
        <time>2013-05-02T12:08:01Z</time>
      </trkpt>
      <trkpt lat="47.72393" lon="-2.75079">
        <ele>115</ele>
        <time>2013-05-02T12:08:02Z</time>
      </trkpt>
      <trkpt lat="47.72391" lon="-2.75074">
        <ele>115</ele>
        <time>2013-05-02T12:08:03Z</time>
      </trkpt>
      <trkpt lat="47.7239" lon="-2.75071">
        <ele>115</ele>
        <time>2013-05-02T12:08:04Z</time>
      </trkpt>
      <trkpt lat="47.72387" lon="-2.75067">
        <ele>115</ele>
        <time>2013-05-02T12:08:05Z</time>
      </trkpt>
      <trkpt lat="47.72386" lon="-2.75063">
        <ele>115</ele>
        <time>2013-05-02T12:08:06Z</time>
      </trkpt>
      <trkpt lat="47.72385" lon="-2.75059">
        <ele>115</ele>
        <time>2013-05-02T12:08:07Z</time>
      </trkpt>
      <trkpt lat="47.72383" lon="-2.75055">
        <ele>115</ele>
        <time>2013-05-02T12:08:08Z</time>
      </trkpt>
      <trkpt lat="47.72381" lon="-2.75051">
        <ele>115</ele>
        <time>2013-05-02T12:08:09Z</time>
      </trkpt>
      <trkpt lat="47.7238" lon="-2.75049">
        <ele>115</ele>
        <time>2013-05-02T12:08:10Z</time>
      </trkpt>
      <trkpt lat="47.72379" lon="-2.75045">
        <ele>115</ele>
        <time>2013-05-02T12:08:11Z</time>
      </trkpt>
      <trkpt lat="47.72379" lon="-2.75043">
        <ele>115</ele>
        <time>2013-05-02T12:08:12Z</time>
      </trkpt>
      <trkpt lat="47.72382" lon="-2.75041">
        <ele>115</ele>
        <time>2013-05-02T12:08:14Z</time>
      </trkpt>
      <trkpt lat="47.72384" lon="-2.7504">
        <ele>115</ele>
        <time>2013-05-02T12:08:15Z</time>
      </trkpt>
      <trkpt lat="47.72387" lon="-2.75038">
        <ele>115</ele>
        <time>2013-05-02T12:08:16Z</time>
      </trkpt>
      <trkpt lat="47.72389" lon="-2.75037">
        <ele>115</ele>
        <time>2013-05-02T12:08:17Z</time>
      </trkpt>
      <trkpt lat="47.72392" lon="-2.75035">
        <ele>115</ele>
        <time>2013-05-02T12:08:18Z</time>
      </trkpt>
      <trkpt lat="47.72395" lon="-2.75033">
        <ele>115</ele>
        <time>2013-05-02T12:08:19Z</time>
      </trkpt>
      <trkpt lat="47.72398" lon="-2.75031">
        <ele>115</ele>
        <time>2013-05-02T12:08:20Z</time>
      </trkpt>
      <trkpt lat="47.724" lon="-2.75029">
        <ele>115</ele>
        <time>2013-05-02T12:08:21Z</time>
      </trkpt>
      <trkpt lat="47.72402" lon="-2.75027">
        <ele>115</ele>
        <time>2013-05-02T12:08:22Z</time>
      </trkpt>
      <trkpt lat="47.72405" lon="-2.75025">
        <ele>115</ele>
        <time>2013-05-02T12:08:23Z</time>
      </trkpt>
      <trkpt lat="47.72408" lon="-2.75023">
        <ele>115</ele>
        <time>2013-05-02T12:08:24Z</time>
      </trkpt>
      <trkpt lat="47.72412" lon="-2.7502">
        <ele>115</ele>
        <time>2013-05-02T12:08:25Z</time>
      </trkpt>
      <trkpt lat="47.72415" lon="-2.75017">
        <ele>115</ele>
        <time>2013-05-02T12:08:26Z</time>
      </trkpt>
      <trkpt lat="47.72418" lon="-2.75014">
        <ele>115</ele>
        <time>2013-05-02T12:08:27Z</time>
      </trkpt>
      <trkpt lat="47.72421" lon="-2.75011">
        <ele>115</ele>
        <time>2013-05-02T12:08:28Z</time>
      </trkpt>
      <trkpt lat="47.72424" lon="-2.75007">
        <ele>115</ele>
        <time>2013-05-02T12:08:29Z</time>
      </trkpt>
      <trkpt lat="47.72427" lon="-2.75004">
        <ele>115</ele>
        <time>2013-05-02T12:08:30Z</time>
      </trkpt>
      <trkpt lat="47.72431" lon="-2.75002">
        <ele>115</ele>
        <time>2013-05-02T12:08:31Z</time>
      </trkpt>
      <trkpt lat="47.72434" lon="-2.75001">
        <ele>115</ele>
        <time>2013-05-02T12:08:32Z</time>
      </trkpt>
      <trkpt lat="47.72438" lon="-2.75001">
        <ele>115</ele>
        <time>2013-05-02T12:08:33Z</time>
      </trkpt>
      <trkpt lat="47.72441" lon="-2.75">
        <ele>115</ele>
        <time>2013-05-02T12:08:34Z</time>
      </trkpt>
      <trkpt lat="47.72444" lon="-2.74999">
        <ele>115</ele>
        <time>2013-05-02T12:08:35Z</time>
      </trkpt>
      <trkpt lat="47.72447" lon="-2.74998">
        <ele>115</ele>
        <time>2013-05-02T12:08:36Z</time>
      </trkpt>
      <trkpt lat="47.7245" lon="-2.74996">
        <ele>115</ele>
        <time>2013-05-02T12:08:37Z</time>
      </trkpt>
      <trkpt lat="47.72454" lon="-2.74994">
        <ele>115</ele>
        <time>2013-05-02T12:08:38Z</time>
      </trkpt>
      <trkpt lat="47.72456" lon="-2.74992">
        <ele>115</ele>
        <time>2013-05-02T12:08:39Z</time>
      </trkpt>
      <trkpt lat="47.72459" lon="-2.7499">
        <ele>115</ele>
        <time>2013-05-02T12:08:40Z</time>
      </trkpt>
      <trkpt lat="47.7246" lon="-2.74989">
        <ele>115</ele>
        <time>2013-05-02T12:08:41Z</time>
      </trkpt>
      <trkpt lat="47.72462" lon="-2.74989">
        <ele>115</ele>
        <time>2013-05-02T12:08:43Z</time>
      </trkpt>
      <trkpt lat="47.72463" lon="-2.74991">
        <ele>115</ele>
        <time>2013-05-02T12:08:47Z</time>
      </trkpt>
      <trkpt lat="47.72463" lon="-2.74994">
        <ele>115</ele>
        <time>2013-05-02T12:08:48Z</time>
      </trkpt>
      <trkpt lat="47.72464" lon="-2.74997">
        <ele>116</ele>
        <time>2013-05-02T12:08:49Z</time>
      </trkpt>
      <trkpt lat="47.72466" lon="-2.75">
        <ele>116</ele>
        <time>2013-05-02T12:08:50Z</time>
      </trkpt>
      <trkpt lat="47.72469" lon="-2.75003">
        <ele>116</ele>
        <time>2013-05-02T12:08:51Z</time>
      </trkpt>
      <trkpt lat="47.72471" lon="-2.75006">
        <ele>116</ele>
        <time>2013-05-02T12:08:52Z</time>
      </trkpt>
      <trkpt lat="47.72473" lon="-2.7501">
        <ele>116</ele>
        <time>2013-05-02T12:08:53Z</time>
      </trkpt>
      <trkpt lat="47.72475" lon="-2.75014">
        <ele>116</ele>
        <time>2013-05-02T12:08:54Z</time>
      </trkpt>
      <trkpt lat="47.72476" lon="-2.75018">
        <ele>116</ele>
        <time>2013-05-02T12:08:55Z</time>
      </trkpt>
      <trkpt lat="47.72478" lon="-2.75022">
        <ele>116</ele>
        <time>2013-05-02T12:08:56Z</time>
      </trkpt>
      <trkpt lat="47.7248" lon="-2.75026">
        <ele>116</ele>
        <time>2013-05-02T12:08:57Z</time>
      </trkpt>
      <trkpt lat="47.72481" lon="-2.7503">
        <ele>116</ele>
        <time>2013-05-02T12:08:58Z</time>
      </trkpt>
      <trkpt lat="47.72483" lon="-2.75034">
        <ele>116</ele>
        <time>2013-05-02T12:08:59Z</time>
      </trkpt>
      <trkpt lat="47.72484" lon="-2.75037">
        <ele>116</ele>
        <time>2013-05-02T12:09:00Z</time>
      </trkpt>
      <trkpt lat="47.72486" lon="-2.75041">
        <ele>116</ele>
        <time>2013-05-02T12:09:01Z</time>
      </trkpt>
      <trkpt lat="47.72487" lon="-2.75045">
        <ele>116</ele>
        <time>2013-05-02T12:09:02Z</time>
      </trkpt>
      <trkpt lat="47.72488" lon="-2.75049">
        <ele>116</ele>
        <time>2013-05-02T12:09:03Z</time>
      </trkpt>
      <trkpt lat="47.72489" lon="-2.75053">
        <ele>116</ele>
        <time>2013-05-02T12:09:04Z</time>
      </trkpt>
      <trkpt lat="47.7249" lon="-2.75057">
        <ele>116</ele>
        <time>2013-05-02T12:09:05Z</time>
      </trkpt>
      <trkpt lat="47.72491" lon="-2.75061">
        <ele>116</ele>
        <time>2013-05-02T12:09:06Z</time>
      </trkpt>
      <trkpt lat="47.72492" lon="-2.75065">
        <ele>117</ele>
        <time>2013-05-02T12:09:07Z</time>
      </trkpt>
      <trkpt lat="47.72493" lon="-2.75069">
        <ele>117</ele>
        <time>2013-05-02T12:09:08Z</time>
      </trkpt>
      <trkpt lat="47.72494" lon="-2.75072">
        <ele>118</ele>
        <time>2013-05-02T12:09:09Z</time>
      </trkpt>
      <trkpt lat="47.72495" lon="-2.75075">
        <ele>118</ele>
        <time>2013-05-02T12:09:10Z</time>
      </trkpt>
      <trkpt lat="47.72496" lon="-2.75078">
        <ele>119</ele>
        <time>2013-05-02T12:09:11Z</time>
      </trkpt>
      <trkpt lat="47.72496" lon="-2.75079">
        <ele>119</ele>
        <time>2013-05-02T12:09:12Z</time>
      </trkpt>
      <trkpt lat="47.72498" lon="-2.7508">
        <ele>119</ele>
        <time>2013-05-02T12:09:14Z</time>
      </trkpt>
      <trkpt lat="47.72492" lon="-2.75081">
        <ele>121</ele>
        <time>2013-05-02T12:09:22Z</time>
      </trkpt>
      <trkpt lat="47.72489" lon="-2.75074">
        <ele>123</ele>
        <time>2013-05-02T12:09:24Z</time>
      </trkpt>
      <trkpt lat="47.72489" lon="-2.75071">
        <ele>123</ele>
        <time>2013-05-02T12:09:25Z</time>
      </trkpt>
      <trkpt lat="47.72488" lon="-2.75067">
        <ele>123</ele>
        <time>2013-05-02T12:09:26Z</time>
      </trkpt>
      <trkpt lat="47.72487" lon="-2.75063">
        <ele>123</ele>
        <time>2013-05-02T12:09:27Z</time>
      </trkpt>
      <trkpt lat="47.72486" lon="-2.75058">
        <ele>123</ele>
        <time>2013-05-02T12:09:28Z</time>
      </trkpt>
      <trkpt lat="47.72485" lon="-2.75053">
        <ele>123</ele>
        <time>2013-05-02T12:09:29Z</time>
      </trkpt>
      <trkpt lat="47.72483" lon="-2.75048">
        <ele>123</ele>
        <time>2013-05-02T12:09:30Z</time>
      </trkpt>
      <trkpt lat="47.72483" lon="-2.75044">
        <ele>123</ele>
        <time>2013-05-02T12:09:31Z</time>
      </trkpt>
      <trkpt lat="47.72481" lon="-2.75039">
        <ele>123</ele>
        <time>2013-05-02T12:09:32Z</time>
      </trkpt>
      <trkpt lat="47.7248" lon="-2.75034">
        <ele>123</ele>
        <time>2013-05-02T12:09:33Z</time>
      </trkpt>
      <trkpt lat="47.72477" lon="-2.75029">
        <ele>123</ele>
        <time>2013-05-02T12:09:34Z</time>
      </trkpt>
      <trkpt lat="47.72475" lon="-2.75025">
        <ele>123</ele>
        <time>2013-05-02T12:09:35Z</time>
      </trkpt>
      <trkpt lat="47.72474" lon="-2.7502">
        <ele>123</ele>
        <time>2013-05-02T12:09:36Z</time>
      </trkpt>
      <trkpt lat="47.72472" lon="-2.75014">
        <ele>123</ele>
        <time>2013-05-02T12:09:37Z</time>
      </trkpt>
      <trkpt lat="47.72469" lon="-2.75008">
        <ele>123</ele>
        <time>2013-05-02T12:09:38Z</time>
      </trkpt>
      <trkpt lat="47.72467" lon="-2.75003">
        <ele>123</ele>
        <time>2013-05-02T12:09:39Z</time>
      </trkpt>
      <trkpt lat="47.72465" lon="-2.74998">
        <ele>123</ele>
        <time>2013-05-02T12:09:40Z</time>
      </trkpt>
      <trkpt lat="47.72464" lon="-2.74994">
        <ele>123</ele>
        <time>2013-05-02T12:09:41Z</time>
      </trkpt>
      <trkpt lat="47.72462" lon="-2.7499">
        <ele>123</ele>
        <time>2013-05-02T12:09:42Z</time>
      </trkpt>
      <trkpt lat="47.72463" lon="-2.74987">
        <ele>123</ele>
        <time>2013-05-02T12:09:43Z</time>
      </trkpt>
      <trkpt lat="47.72464" lon="-2.74984">
        <ele>123</ele>
        <time>2013-05-02T12:09:44Z</time>
      </trkpt>
      <trkpt lat="47.72467" lon="-2.74982">
        <ele>123</ele>
        <time>2013-05-02T12:09:45Z</time>
      </trkpt>
      <trkpt lat="47.7247" lon="-2.7498">
        <ele>123</ele>
        <time>2013-05-02T12:09:46Z</time>
      </trkpt>
      <trkpt lat="47.72474" lon="-2.74979">
        <ele>123</ele>
        <time>2013-05-02T12:09:47Z</time>
      </trkpt>
      <trkpt lat="47.72477" lon="-2.74978">
        <ele>122</ele>
        <time>2013-05-02T12:09:48Z</time>
      </trkpt>
      <trkpt lat="47.72481" lon="-2.74976">
        <ele>122</ele>
        <time>2013-05-02T12:09:49Z</time>
      </trkpt>
      <trkpt lat="47.72484" lon="-2.74975">
        <ele>122</ele>
        <time>2013-05-02T12:09:50Z</time>
      </trkpt>
      <trkpt lat="47.72488" lon="-2.74974">
        <ele>121</ele>
        <time>2013-05-02T12:09:51Z</time>
      </trkpt>
      <trkpt lat="47.72492" lon="-2.74974">
        <ele>121</ele>
        <time>2013-05-02T12:09:52Z</time>
      </trkpt>
      <trkpt lat="47.72495" lon="-2.74973">
        <ele>121</ele>
        <time>2013-05-02T12:09:53Z</time>
      </trkpt>
      <trkpt lat="47.72499" lon="-2.74972">
        <ele>121</ele>
        <time>2013-05-02T12:09:54Z</time>
      </trkpt>
      <trkpt lat="47.72503" lon="-2.74973">
        <ele>120</ele>
        <time>2013-05-02T12:09:55Z</time>
      </trkpt>
      <trkpt lat="47.72506" lon="-2.74973">
        <ele>120</ele>
        <time>2013-05-02T12:09:56Z</time>
      </trkpt>
      <trkpt lat="47.72509" lon="-2.74972">
        <ele>120</ele>
        <time>2013-05-02T12:09:57Z</time>
      </trkpt>
      <trkpt lat="47.72512" lon="-2.74971">
        <ele>120</ele>
        <time>2013-05-02T12:09:58Z</time>
      </trkpt>
      <trkpt lat="47.72516" lon="-2.74971">
        <ele>120</ele>
        <time>2013-05-02T12:09:59Z</time>
      </trkpt>
      <trkpt lat="47.72519" lon="-2.74971">
        <ele>120</ele>
        <time>2013-05-02T12:10:00Z</time>
      </trkpt>
      <trkpt lat="47.72522" lon="-2.74971">
        <ele>120</ele>
        <time>2013-05-02T12:10:01Z</time>
      </trkpt>
      <trkpt lat="47.72525" lon="-2.74972">
        <ele>120</ele>
        <time>2013-05-02T12:10:02Z</time>
      </trkpt>
      <trkpt lat="47.72527" lon="-2.74973">
        <ele>120</ele>
        <time>2013-05-02T12:10:03Z</time>
      </trkpt>
      <trkpt lat="47.72529" lon="-2.74975">
        <ele>120</ele>
        <time>2013-05-02T12:10:04Z</time>
      </trkpt>
      <trkpt lat="47.72531" lon="-2.74978">
        <ele>120</ele>
        <time>2013-05-02T12:10:05Z</time>
      </trkpt>
      <trkpt lat="47.72533" lon="-2.74981">
        <ele>120</ele>
        <time>2013-05-02T12:10:06Z</time>
      </trkpt>
      <trkpt lat="47.72536" lon="-2.74984">
        <ele>120</ele>
        <time>2013-05-02T12:10:07Z</time>
      </trkpt>
      <trkpt lat="47.72538" lon="-2.74988">
        <ele>120</ele>
        <time>2013-05-02T12:10:08Z</time>
      </trkpt>
      <trkpt lat="47.7254" lon="-2.74991">
        <ele>120</ele>
        <time>2013-05-02T12:10:09Z</time>
      </trkpt>
      <trkpt lat="47.72542" lon="-2.74996">
        <ele>120</ele>
        <time>2013-05-02T12:10:10Z</time>
      </trkpt>
      <trkpt lat="47.72544" lon="-2.75">
        <ele>120</ele>
        <time>2013-05-02T12:10:11Z</time>
      </trkpt>
      <trkpt lat="47.72548" lon="-2.75004">
        <ele>120</ele>
        <time>2013-05-02T12:10:12Z</time>
      </trkpt>
      <trkpt lat="47.72551" lon="-2.75008">
        <ele>120</ele>
        <time>2013-05-02T12:10:13Z</time>
      </trkpt>
      <trkpt lat="47.72555" lon="-2.75013">
        <ele>120</ele>
        <time>2013-05-02T12:10:14Z</time>
      </trkpt>
      <trkpt lat="47.72559" lon="-2.75018">
        <ele>120</ele>
        <time>2013-05-02T12:10:15Z</time>
      </trkpt>
      <trkpt lat="47.72562" lon="-2.75022">
        <ele>120</ele>
        <time>2013-05-02T12:10:16Z</time>
      </trkpt>
      <trkpt lat="47.72566" lon="-2.75025">
        <ele>120</ele>
        <time>2013-05-02T12:10:17Z</time>
      </trkpt>
      <trkpt lat="47.72569" lon="-2.75029">
        <ele>120</ele>
        <time>2013-05-02T12:10:18Z</time>
      </trkpt>
      <trkpt lat="47.72572" lon="-2.75035">
        <ele>120</ele>
        <time>2013-05-02T12:10:19Z</time>
      </trkpt>
      <trkpt lat="47.72575" lon="-2.75041">
        <ele>120</ele>
        <time>2013-05-02T12:10:20Z</time>
      </trkpt>
      <trkpt lat="47.72578" lon="-2.75047">
        <ele>120</ele>
        <time>2013-05-02T12:10:21Z</time>
      </trkpt>
      <trkpt lat="47.72582" lon="-2.75053">
        <ele>120</ele>
        <time>2013-05-02T12:10:22Z</time>
      </trkpt>
      <trkpt lat="47.72584" lon="-2.75058">
        <ele>120</ele>
        <time>2013-05-02T12:10:23Z</time>
      </trkpt>
      <trkpt lat="47.72587" lon="-2.75064">
        <ele>120</ele>
        <time>2013-05-02T12:10:24Z</time>
      </trkpt>
      <trkpt lat="47.7259" lon="-2.7507">
        <ele>120</ele>
        <time>2013-05-02T12:10:25Z</time>
      </trkpt>
      <trkpt lat="47.72593" lon="-2.75076">
        <ele>120</ele>
        <time>2013-05-02T12:10:26Z</time>
      </trkpt>
      <trkpt lat="47.72596" lon="-2.75081">
        <ele>120</ele>
        <time>2013-05-02T12:10:27Z</time>
      </trkpt>
      <trkpt lat="47.72599" lon="-2.75087">
        <ele>120</ele>
        <time>2013-05-02T12:10:28Z</time>
      </trkpt>
      <trkpt lat="47.72601" lon="-2.75093">
        <ele>120</ele>
        <time>2013-05-02T12:10:29Z</time>
      </trkpt>
      <trkpt lat="47.72604" lon="-2.75099">
        <ele>120</ele>
        <time>2013-05-02T12:10:30Z</time>
      </trkpt>
      <trkpt lat="47.72607" lon="-2.75105">
        <ele>120</ele>
        <time>2013-05-02T12:10:31Z</time>
      </trkpt>
      <trkpt lat="47.72609" lon="-2.75112">
        <ele>120</ele>
        <time>2013-05-02T12:10:32Z</time>
      </trkpt>
      <trkpt lat="47.72612" lon="-2.75118">
        <ele>120</ele>
        <time>2013-05-02T12:10:33Z</time>
      </trkpt>
      <trkpt lat="47.72613" lon="-2.75124">
        <ele>120</ele>
        <time>2013-05-02T12:10:34Z</time>
      </trkpt>
      <trkpt lat="47.72615" lon="-2.75129">
        <ele>120</ele>
        <time>2013-05-02T12:10:35Z</time>
      </trkpt>
      <trkpt lat="47.72617" lon="-2.75135">
        <ele>120</ele>
        <time>2013-05-02T12:10:36Z</time>
      </trkpt>
      <trkpt lat="47.72619" lon="-2.75139">
        <ele>120</ele>
        <time>2013-05-02T12:10:37Z</time>
      </trkpt>
      <trkpt lat="47.72622" lon="-2.75145">
        <ele>120</ele>
        <time>2013-05-02T12:10:38Z</time>
      </trkpt>
      <trkpt lat="47.72625" lon="-2.7515">
        <ele>121</ele>
        <time>2013-05-02T12:10:39Z</time>
      </trkpt>
      <trkpt lat="47.72628" lon="-2.75155">
        <ele>121</ele>
        <time>2013-05-02T12:10:40Z</time>
      </trkpt>
      <trkpt lat="47.72631" lon="-2.7516">
        <ele>121</ele>
        <time>2013-05-02T12:10:41Z</time>
      </trkpt>
      <trkpt lat="47.72634" lon="-2.75166">
        <ele>121</ele>
        <time>2013-05-02T12:10:42Z</time>
      </trkpt>
      <trkpt lat="47.72636" lon="-2.75171">
        <ele>121</ele>
        <time>2013-05-02T12:10:43Z</time>
      </trkpt>
      <trkpt lat="47.72639" lon="-2.75176">
        <ele>121</ele>
        <time>2013-05-02T12:10:44Z</time>
      </trkpt>
      <trkpt lat="47.72641" lon="-2.75181">
        <ele>121</ele>
        <time>2013-05-02T12:10:45Z</time>
      </trkpt>
      <trkpt lat="47.72644" lon="-2.75185">
        <ele>121</ele>
        <time>2013-05-02T12:10:46Z</time>
      </trkpt>
      <trkpt lat="47.72646" lon="-2.7519">
        <ele>121</ele>
        <time>2013-05-02T12:10:47Z</time>
      </trkpt>
      <trkpt lat="47.72648" lon="-2.75195">
        <ele>121</ele>
        <time>2013-05-02T12:10:48Z</time>
      </trkpt>
      <trkpt lat="47.7265" lon="-2.752">
        <ele>121</ele>
        <time>2013-05-02T12:10:49Z</time>
      </trkpt>
      <trkpt lat="47.72652" lon="-2.75204">
        <ele>121</ele>
        <time>2013-05-02T12:10:50Z</time>
      </trkpt>
      <trkpt lat="47.72654" lon="-2.75209">
        <ele>121</ele>
        <time>2013-05-02T12:10:51Z</time>
      </trkpt>
      <trkpt lat="47.72657" lon="-2.75214">
        <ele>121</ele>
        <time>2013-05-02T12:10:52Z</time>
      </trkpt>
      <trkpt lat="47.72659" lon="-2.75219">
        <ele>121</ele>
        <time>2013-05-02T12:10:53Z</time>
      </trkpt>
      <trkpt lat="47.72662" lon="-2.75223">
        <ele>121</ele>
        <time>2013-05-02T12:10:54Z</time>
      </trkpt>
      <trkpt lat="47.72664" lon="-2.75227">
        <ele>121</ele>
        <time>2013-05-02T12:10:55Z</time>
      </trkpt>
      <trkpt lat="47.72666" lon="-2.75232">
        <ele>121</ele>
        <time>2013-05-02T12:10:56Z</time>
      </trkpt>
      <trkpt lat="47.72667" lon="-2.75235">
        <ele>121</ele>
        <time>2013-05-02T12:10:57Z</time>
      </trkpt>
      <trkpt lat="47.72668" lon="-2.75238">
        <ele>121</ele>
        <time>2013-05-02T12:10:58Z</time>
      </trkpt>
      <trkpt lat="47.72667" lon="-2.75239">
        <ele>121</ele>
        <time>2013-05-02T12:10:59Z</time>
      </trkpt>
      <trkpt lat="47.72666" lon="-2.75242">
        <ele>121</ele>
        <time>2013-05-02T12:11:00Z</time>
      </trkpt>
      <trkpt lat="47.72664" lon="-2.75244">
        <ele>121</ele>
        <time>2013-05-02T12:11:01Z</time>
      </trkpt>
      <trkpt lat="47.72661" lon="-2.75247">
        <ele>121</ele>
        <time>2013-05-02T12:11:02Z</time>
      </trkpt>
      <trkpt lat="47.72658" lon="-2.75251">
        <ele>121</ele>
        <time>2013-05-02T12:11:03Z</time>
      </trkpt>
      <trkpt lat="47.72654" lon="-2.75255">
        <ele>121</ele>
        <time>2013-05-02T12:11:04Z</time>
      </trkpt>
      <trkpt lat="47.72651" lon="-2.75259">
        <ele>121</ele>
        <time>2013-05-02T12:11:05Z</time>
      </trkpt>
      <trkpt lat="47.72647" lon="-2.75262">
        <ele>121</ele>
        <time>2013-05-02T12:11:06Z</time>
      </trkpt>
      <trkpt lat="47.72643" lon="-2.75266">
        <ele>121</ele>
        <time>2013-05-02T12:11:07Z</time>
      </trkpt>
      <trkpt lat="47.7264" lon="-2.75269">
        <ele>121</ele>
        <time>2013-05-02T12:11:08Z</time>
      </trkpt>
      <trkpt lat="47.72637" lon="-2.75272">
        <ele>121</ele>
        <time>2013-05-02T12:11:09Z</time>
      </trkpt>
      <trkpt lat="47.72633" lon="-2.75276">
        <ele>121</ele>
        <time>2013-05-02T12:11:10Z</time>
      </trkpt>
      <trkpt lat="47.72629" lon="-2.7528">
        <ele>121</ele>
        <time>2013-05-02T12:11:11Z</time>
      </trkpt>
      <trkpt lat="47.72625" lon="-2.75283">
        <ele>121</ele>
        <time>2013-05-02T12:11:12Z</time>
      </trkpt>
      <trkpt lat="47.72621" lon="-2.75287">
        <ele>121</ele>
        <time>2013-05-02T12:11:13Z</time>
      </trkpt>
      <trkpt lat="47.72617" lon="-2.7529">
        <ele>121</ele>
        <time>2013-05-02T12:11:14Z</time>
      </trkpt>
      <trkpt lat="47.72614" lon="-2.75293">
        <ele>121</ele>
        <time>2013-05-02T12:11:15Z</time>
      </trkpt>
      <trkpt lat="47.7261" lon="-2.75297">
        <ele>121</ele>
        <time>2013-05-02T12:11:16Z</time>
      </trkpt>
      <trkpt lat="47.72607" lon="-2.75301">
        <ele>121</ele>
        <time>2013-05-02T12:11:17Z</time>
      </trkpt>
      <trkpt lat="47.72603" lon="-2.75304">
        <ele>121</ele>
        <time>2013-05-02T12:11:18Z</time>
      </trkpt>
      <trkpt lat="47.726" lon="-2.75306">
        <ele>121</ele>
        <time>2013-05-02T12:11:19Z</time>
      </trkpt>
      <trkpt lat="47.72597" lon="-2.75308">
        <ele>121</ele>
        <time>2013-05-02T12:11:20Z</time>
      </trkpt>
      <trkpt lat="47.72594" lon="-2.75311">
        <ele>121</ele>
        <time>2013-05-02T12:11:21Z</time>
      </trkpt>
      <trkpt lat="47.72591" lon="-2.75314">
        <ele>121</ele>
        <time>2013-05-02T12:11:22Z</time>
      </trkpt>
      <trkpt lat="47.72587" lon="-2.75317">
        <ele>121</ele>
        <time>2013-05-02T12:11:23Z</time>
      </trkpt>
      <trkpt lat="47.72583" lon="-2.7532">
        <ele>121</ele>
        <time>2013-05-02T12:11:24Z</time>
      </trkpt>
      <trkpt lat="47.72579" lon="-2.75322">
        <ele>121</ele>
        <time>2013-05-02T12:11:25Z</time>
      </trkpt>
      <trkpt lat="47.72575" lon="-2.75325">
        <ele>121</ele>
        <time>2013-05-02T12:11:26Z</time>
      </trkpt>
      <trkpt lat="47.72571" lon="-2.75327">
        <ele>121</ele>
        <time>2013-05-02T12:11:27Z</time>
      </trkpt>
      <trkpt lat="47.72567" lon="-2.75329">
        <ele>121</ele>
        <time>2013-05-02T12:11:28Z</time>
      </trkpt>
      <trkpt lat="47.72563" lon="-2.75333">
        <ele>121</ele>
        <time>2013-05-02T12:11:29Z</time>
      </trkpt>
      <trkpt lat="47.7256" lon="-2.75338">
        <ele>121</ele>
        <time>2013-05-02T12:11:30Z</time>
      </trkpt>
      <trkpt lat="47.72558" lon="-2.75343">
        <ele>121</ele>
        <time>2013-05-02T12:11:31Z</time>
      </trkpt>
      <trkpt lat="47.72557" lon="-2.75349">
        <ele>121</ele>
        <time>2013-05-02T12:11:32Z</time>
      </trkpt>
      <trkpt lat="47.72557" lon="-2.75355">
        <ele>121</ele>
        <time>2013-05-02T12:11:33Z</time>
      </trkpt>
      <trkpt lat="47.72557" lon="-2.7536">
        <ele>121</ele>
        <time>2013-05-02T12:11:34Z</time>
      </trkpt>
      <trkpt lat="47.72556" lon="-2.75363">
        <ele>121</ele>
        <time>2013-05-02T12:11:35Z</time>
      </trkpt>
      <trkpt lat="47.72555" lon="-2.75365">
        <ele>121</ele>
        <time>2013-05-02T12:11:36Z</time>
      </trkpt>
      <trkpt lat="47.72553" lon="-2.75366">
        <ele>121</ele>
        <time>2013-05-02T12:11:39Z</time>
      </trkpt>
      <trkpt lat="47.72551" lon="-2.75367">
        <ele>121</ele>
        <time>2013-05-02T12:11:40Z</time>
      </trkpt>
      <trkpt lat="47.72547" lon="-2.75369">
        <ele>121</ele>
        <time>2013-05-02T12:11:41Z</time>
      </trkpt>
      <trkpt lat="47.72543" lon="-2.75371">
        <ele>121</ele>
        <time>2013-05-02T12:11:42Z</time>
      </trkpt>
      <trkpt lat="47.72539" lon="-2.75373">
        <ele>121</ele>
        <time>2013-05-02T12:11:43Z</time>
      </trkpt>
      <trkpt lat="47.72535" lon="-2.75375">
        <ele>121</ele>
        <time>2013-05-02T12:11:44Z</time>
      </trkpt>
      <trkpt lat="47.72531" lon="-2.75378">
        <ele>121</ele>
        <time>2013-05-02T12:11:45Z</time>
      </trkpt>
      <trkpt lat="47.72528" lon="-2.75381">
        <ele>121</ele>
        <time>2013-05-02T12:11:46Z</time>
      </trkpt>
      <trkpt lat="47.72524" lon="-2.75383">
        <ele>121</ele>
        <time>2013-05-02T12:11:47Z</time>
      </trkpt>
      <trkpt lat="47.72521" lon="-2.75385">
        <ele>121</ele>
        <time>2013-05-02T12:11:48Z</time>
      </trkpt>
      <trkpt lat="47.72519" lon="-2.75387">
        <ele>121</ele>
        <time>2013-05-02T12:11:49Z</time>
      </trkpt>
      <trkpt lat="47.72517" lon="-2.75388">
        <ele>121</ele>
        <time>2013-05-02T12:11:50Z</time>
      </trkpt>
      <trkpt lat="47.72514" lon="-2.7539">
        <ele>121</ele>
        <time>2013-05-02T12:11:51Z</time>
      </trkpt>
      <trkpt lat="47.72512" lon="-2.75392">
        <ele>121</ele>
        <time>2013-05-02T12:11:52Z</time>
      </trkpt>
      <trkpt lat="47.7251" lon="-2.75393">
        <ele>121</ele>
        <time>2013-05-02T12:11:53Z</time>
      </trkpt>
      <trkpt lat="47.72507" lon="-2.75395">
        <ele>121</ele>
        <time>2013-05-02T12:11:54Z</time>
      </trkpt>
      <trkpt lat="47.72505" lon="-2.75396">
        <ele>121</ele>
        <time>2013-05-02T12:11:55Z</time>
      </trkpt>
      <trkpt lat="47.72503" lon="-2.75397">
        <ele>121</ele>
        <time>2013-05-02T12:11:56Z</time>
      </trkpt>
      <trkpt lat="47.72501" lon="-2.75399">
        <ele>121</ele>
        <time>2013-05-02T12:11:57Z</time>
      </trkpt>
      <trkpt lat="47.72499" lon="-2.754">
        <ele>120</ele>
        <time>2013-05-02T12:11:58Z</time>
      </trkpt>
      <trkpt lat="47.72495" lon="-2.75401">
        <ele>120</ele>
        <time>2013-05-02T12:11:59Z</time>
      </trkpt>
      <trkpt lat="47.72491" lon="-2.75403">
        <ele>120</ele>
        <time>2013-05-02T12:12:00Z</time>
      </trkpt>
      <trkpt lat="47.72487" lon="-2.75405">
        <ele>120</ele>
        <time>2013-05-02T12:12:01Z</time>
      </trkpt>
      <trkpt lat="47.72483" lon="-2.75406">
        <ele>120</ele>
        <time>2013-05-02T12:12:02Z</time>
      </trkpt>
      <trkpt lat="47.7248" lon="-2.75408">
        <ele>119</ele>
        <time>2013-05-02T12:12:03Z</time>
      </trkpt>
      <trkpt lat="47.72477" lon="-2.7541">
        <ele>119</ele>
        <time>2013-05-02T12:12:04Z</time>
      </trkpt>
      <trkpt lat="47.72473" lon="-2.75411">
        <ele>119</ele>
        <time>2013-05-02T12:12:05Z</time>
      </trkpt>
      <trkpt lat="47.72469" lon="-2.75413">
        <ele>118</ele>
        <time>2013-05-02T12:12:06Z</time>
      </trkpt>
      <trkpt lat="47.72465" lon="-2.75416">
        <ele>118</ele>
        <time>2013-05-02T12:12:07Z</time>
      </trkpt>
      <trkpt lat="47.72461" lon="-2.75418">
        <ele>118</ele>
        <time>2013-05-02T12:12:08Z</time>
      </trkpt>
      <trkpt lat="47.72457" lon="-2.7542">
        <ele>117</ele>
        <time>2013-05-02T12:12:09Z</time>
      </trkpt>
      <trkpt lat="47.72454" lon="-2.75422">
        <ele>117</ele>
        <time>2013-05-02T12:12:10Z</time>
      </trkpt>
      <trkpt lat="47.72453" lon="-2.75423">
        <ele>117</ele>
        <time>2013-05-02T12:12:11Z</time>
      </trkpt>
      <trkpt lat="47.72451" lon="-2.75424">
        <ele>116</ele>
        <time>2013-05-02T12:12:12Z</time>
      </trkpt>
      <trkpt lat="47.72449" lon="-2.75426">
        <ele>116</ele>
        <time>2013-05-02T12:12:13Z</time>
      </trkpt>
      <trkpt lat="47.72446" lon="-2.75429">
        <ele>116</ele>
        <time>2013-05-02T12:12:14Z</time>
      </trkpt>
      <trkpt lat="47.72445" lon="-2.7543">
        <ele>116</ele>
        <time>2013-05-02T12:12:15Z</time>
      </trkpt>
      <trkpt lat="47.72443" lon="-2.75431">
        <ele>116</ele>
        <time>2013-05-02T12:12:16Z</time>
      </trkpt>
      <trkpt lat="47.72442" lon="-2.75431">
        <ele>115</ele>
        <time>2013-05-02T12:12:18Z</time>
      </trkpt>
      <trkpt lat="47.72432" lon="-2.75438">
        <ele>113</ele>
        <time>2013-05-02T12:12:22Z</time>
      </trkpt>
      <trkpt lat="47.7243" lon="-2.7544">
        <ele>113</ele>
        <time>2013-05-02T12:12:23Z</time>
      </trkpt>
      <trkpt lat="47.7243" lon="-2.75442">
        <ele>113</ele>
        <time>2013-05-02T12:12:24Z</time>
      </trkpt>
      <trkpt lat="47.72428" lon="-2.75444">
        <ele>113</ele>
        <time>2013-05-02T12:12:25Z</time>
      </trkpt>
      <trkpt lat="47.72427" lon="-2.75446">
        <ele>113</ele>
        <time>2013-05-02T12:12:26Z</time>
      </trkpt>
      <trkpt lat="47.72426" lon="-2.75448">
        <ele>113</ele>
        <time>2013-05-02T12:12:27Z</time>
      </trkpt>
      <trkpt lat="47.72424" lon="-2.7545">
        <ele>113</ele>
        <time>2013-05-02T12:12:28Z</time>
      </trkpt>
      <trkpt lat="47.72422" lon="-2.75451">
        <ele>113</ele>
        <time>2013-05-02T12:12:29Z</time>
      </trkpt>
      <trkpt lat="47.7242" lon="-2.75453">
        <ele>113</ele>
        <time>2013-05-02T12:12:30Z</time>
      </trkpt>
      <trkpt lat="47.72418" lon="-2.75455">
        <ele>113</ele>
        <time>2013-05-02T12:12:31Z</time>
      </trkpt>
      <trkpt lat="47.72417" lon="-2.75457">
        <ele>112</ele>
        <time>2013-05-02T12:12:32Z</time>
      </trkpt>
      <trkpt lat="47.72415" lon="-2.75459">
        <ele>112</ele>
        <time>2013-05-02T12:12:33Z</time>
      </trkpt>
      <trkpt lat="47.72413" lon="-2.7546">
        <ele>112</ele>
        <time>2013-05-02T12:12:34Z</time>
      </trkpt>
      <trkpt lat="47.72411" lon="-2.75461">
        <ele>112</ele>
        <time>2013-05-02T12:12:35Z</time>
      </trkpt>
      <trkpt lat="47.72409" lon="-2.7546">
        <ele>112</ele>
        <time>2013-05-02T12:12:36Z</time>
      </trkpt>
      <trkpt lat="47.72407" lon="-2.75459">
        <ele>111</ele>
        <time>2013-05-02T12:12:37Z</time>
      </trkpt>
      <trkpt lat="47.72405" lon="-2.75457">
        <ele>111</ele>
        <time>2013-05-02T12:12:38Z</time>
      </trkpt>
      <trkpt lat="47.72403" lon="-2.75454">
        <ele>111</ele>
        <time>2013-05-02T12:12:39Z</time>
      </trkpt>
      <trkpt lat="47.72402" lon="-2.75451">
        <ele>111</ele>
        <time>2013-05-02T12:12:40Z</time>
      </trkpt>
      <trkpt lat="47.72399" lon="-2.75448">
        <ele>110</ele>
        <time>2013-05-02T12:12:41Z</time>
      </trkpt>
      <trkpt lat="47.72397" lon="-2.75444">
        <ele>110</ele>
        <time>2013-05-02T12:12:42Z</time>
      </trkpt>
      <trkpt lat="47.72395" lon="-2.75439">
        <ele>110</ele>
        <time>2013-05-02T12:12:43Z</time>
      </trkpt>
      <trkpt lat="47.72392" lon="-2.75435">
        <ele>109</ele>
        <time>2013-05-02T12:12:44Z</time>
      </trkpt>
      <trkpt lat="47.72388" lon="-2.75431">
        <ele>109</ele>
        <time>2013-05-02T12:12:45Z</time>
      </trkpt>
      <trkpt lat="47.72385" lon="-2.75429">
        <ele>109</ele>
        <time>2013-05-02T12:12:46Z</time>
      </trkpt>
      <trkpt lat="47.72382" lon="-2.75427">
        <ele>109</ele>
        <time>2013-05-02T12:12:47Z</time>
      </trkpt>
      <trkpt lat="47.7238" lon="-2.75426">
        <ele>109</ele>
        <time>2013-05-02T12:12:48Z</time>
      </trkpt>
      <trkpt lat="47.72379" lon="-2.75424">
        <ele>108</ele>
        <time>2013-05-02T12:12:49Z</time>
      </trkpt>
      <trkpt lat="47.72378" lon="-2.75422">
        <ele>108</ele>
        <time>2013-05-02T12:12:50Z</time>
      </trkpt>
      <trkpt lat="47.72377" lon="-2.7542">
        <ele>108</ele>
        <time>2013-05-02T12:12:55Z</time>
      </trkpt>
      <trkpt lat="47.72377" lon="-2.75418">
        <ele>108</ele>
        <time>2013-05-02T12:12:56Z</time>
      </trkpt>
      <trkpt lat="47.72371" lon="-2.75398">
        <ele>107</ele>
        <time>2013-05-02T12:12:58Z</time>
      </trkpt>
      <trkpt lat="47.72368" lon="-2.75392">
        <ele>107</ele>
        <time>2013-05-02T12:12:59Z</time>
      </trkpt>
      <trkpt lat="47.72365" lon="-2.75386">
        <ele>107</ele>
        <time>2013-05-02T12:13:00Z</time>
      </trkpt>
      <trkpt lat="47.72362" lon="-2.7538">
        <ele>107</ele>
        <time>2013-05-02T12:13:01Z</time>
      </trkpt>
      <trkpt lat="47.72358" lon="-2.75373">
        <ele>107</ele>
        <time>2013-05-02T12:13:02Z</time>
      </trkpt>
      <trkpt lat="47.72355" lon="-2.75367">
        <ele>107</ele>
        <time>2013-05-02T12:13:03Z</time>
      </trkpt>
      <trkpt lat="47.72351" lon="-2.75361">
        <ele>107</ele>
        <time>2013-05-02T12:13:04Z</time>
      </trkpt>
      <trkpt lat="47.72347" lon="-2.75355">
        <ele>107</ele>
        <time>2013-05-02T12:13:05Z</time>
      </trkpt>
      <trkpt lat="47.72343" lon="-2.75351">
        <ele>107</ele>
        <time>2013-05-02T12:13:06Z</time>
      </trkpt>
      <trkpt lat="47.72339" lon="-2.75348">
        <ele>107</ele>
        <time>2013-05-02T12:13:07Z</time>
      </trkpt>
      <trkpt lat="47.72336" lon="-2.75346">
        <ele>107</ele>
        <time>2013-05-02T12:13:08Z</time>
      </trkpt>
      <trkpt lat="47.72333" lon="-2.75346">
        <ele>107</ele>
        <time>2013-05-02T12:13:09Z</time>
      </trkpt>
      <trkpt lat="47.72331" lon="-2.75347">
        <ele>107</ele>
        <time>2013-05-02T12:13:10Z</time>
      </trkpt>
      <trkpt lat="47.72328" lon="-2.75348">
        <ele>107</ele>
        <time>2013-05-02T12:13:11Z</time>
      </trkpt>
      <trkpt lat="47.72326" lon="-2.75351">
        <ele>107</ele>
        <time>2013-05-02T12:13:12Z</time>
      </trkpt>
      <trkpt lat="47.72322" lon="-2.75352">
        <ele>107</ele>
        <time>2013-05-02T12:13:13Z</time>
      </trkpt>
      <trkpt lat="47.7232" lon="-2.75352">
        <ele>107</ele>
        <time>2013-05-02T12:13:14Z</time>
      </trkpt>
      <trkpt lat="47.72317" lon="-2.75354">
        <ele>107</ele>
        <time>2013-05-02T12:13:15Z</time>
      </trkpt>
      <trkpt lat="47.72314" lon="-2.75357">
        <ele>107</ele>
        <time>2013-05-02T12:13:16Z</time>
      </trkpt>
      <trkpt lat="47.72311" lon="-2.75358">
        <ele>107</ele>
        <time>2013-05-02T12:13:17Z</time>
      </trkpt>
      <trkpt lat="47.72306" lon="-2.75358">
        <ele>107</ele>
        <time>2013-05-02T12:13:18Z</time>
      </trkpt>
      <trkpt lat="47.72302" lon="-2.75359">
        <ele>107</ele>
        <time>2013-05-02T12:13:19Z</time>
      </trkpt>
      <trkpt lat="47.72298" lon="-2.7536">
        <ele>107</ele>
        <time>2013-05-02T12:13:20Z</time>
      </trkpt>
      <trkpt lat="47.72295" lon="-2.75359">
        <ele>107</ele>
        <time>2013-05-02T12:13:21Z</time>
      </trkpt>
      <trkpt lat="47.72292" lon="-2.75358">
        <ele>107</ele>
        <time>2013-05-02T12:13:22Z</time>
      </trkpt>
      <trkpt lat="47.72288" lon="-2.75353">
        <ele>107</ele>
        <time>2013-05-02T12:13:23Z</time>
      </trkpt>
      <trkpt lat="47.72284" lon="-2.75348">
        <ele>107</ele>
        <time>2013-05-02T12:13:24Z</time>
      </trkpt>
      <trkpt lat="47.72281" lon="-2.75341">
        <ele>106</ele>
        <time>2013-05-02T12:13:25Z</time>
      </trkpt>
      <trkpt lat="47.72278" lon="-2.75335">
        <ele>106</ele>
        <time>2013-05-02T12:13:26Z</time>
      </trkpt>
      <trkpt lat="47.72276" lon="-2.75328">
        <ele>106</ele>
        <time>2013-05-02T12:13:27Z</time>
      </trkpt>
      <trkpt lat="47.72274" lon="-2.75325">
        <ele>106</ele>
        <time>2013-05-02T12:13:28Z</time>
      </trkpt>
      <trkpt lat="47.72272" lon="-2.75321">
        <ele>106</ele>
        <time>2013-05-02T12:13:29Z</time>
      </trkpt>
      <trkpt lat="47.72271" lon="-2.75318">
        <ele>106</ele>
        <time>2013-05-02T12:13:30Z</time>
      </trkpt>
      <trkpt lat="47.7227" lon="-2.75316">
        <ele>106</ele>
        <time>2013-05-02T12:13:31Z</time>
      </trkpt>
      <trkpt lat="47.72269" lon="-2.75314">
        <ele>106</ele>
        <time>2013-05-02T12:13:33Z</time>
      </trkpt>
      <trkpt lat="47.72263" lon="-2.75294">
        <ele>106</ele>
        <time>2013-05-02T12:13:38Z</time>
      </trkpt>
      <trkpt lat="47.72261" lon="-2.75289">
        <ele>106</ele>
        <time>2013-05-02T12:13:39Z</time>
      </trkpt>
      <trkpt lat="47.7226" lon="-2.75284">
        <ele>106</ele>
        <time>2013-05-02T12:13:40Z</time>
      </trkpt>
      <trkpt lat="47.72257" lon="-2.75278">
        <ele>106</ele>
        <time>2013-05-02T12:13:41Z</time>
      </trkpt>
      <trkpt lat="47.72254" lon="-2.75274">
        <ele>106</ele>
        <time>2013-05-02T12:13:42Z</time>
      </trkpt>
      <trkpt lat="47.7225" lon="-2.7527">
        <ele>106</ele>
        <time>2013-05-02T12:13:43Z</time>
      </trkpt>
      <trkpt lat="47.72247" lon="-2.75266">
        <ele>106</ele>
        <time>2013-05-02T12:13:44Z</time>
      </trkpt>
      <trkpt lat="47.72243" lon="-2.75263">
        <ele>106</ele>
        <time>2013-05-02T12:13:45Z</time>
      </trkpt>
      <trkpt lat="47.72239" lon="-2.75258">
        <ele>106</ele>
        <time>2013-05-02T12:13:46Z</time>
      </trkpt>
      <trkpt lat="47.72236" lon="-2.75254">
        <ele>106</ele>
        <time>2013-05-02T12:13:47Z</time>
      </trkpt>
      <trkpt lat="47.72232" lon="-2.7525">
        <ele>106</ele>
        <time>2013-05-02T12:13:48Z</time>
      </trkpt>
      <trkpt lat="47.72228" lon="-2.75247">
        <ele>106</ele>
        <time>2013-05-02T12:13:49Z</time>
      </trkpt>
      <trkpt lat="47.72224" lon="-2.75243">
        <ele>106</ele>
        <time>2013-05-02T12:13:50Z</time>
      </trkpt>
      <trkpt lat="47.72221" lon="-2.7524">
        <ele>106</ele>
        <time>2013-05-02T12:13:51Z</time>
      </trkpt>
      <trkpt lat="47.72217" lon="-2.75237">
        <ele>106</ele>
        <time>2013-05-02T12:13:52Z</time>
      </trkpt>
      <trkpt lat="47.72214" lon="-2.75235">
        <ele>106</ele>
        <time>2013-05-02T12:13:53Z</time>
      </trkpt>
      <trkpt lat="47.72211" lon="-2.75234">
        <ele>106</ele>
        <time>2013-05-02T12:13:54Z</time>
      </trkpt>
      <trkpt lat="47.72208" lon="-2.75233">
        <ele>106</ele>
        <time>2013-05-02T12:13:55Z</time>
      </trkpt>
      <trkpt lat="47.72205" lon="-2.75231">
        <ele>106</ele>
        <time>2013-05-02T12:13:56Z</time>
      </trkpt>
      <trkpt lat="47.72203" lon="-2.7523">
        <ele>106</ele>
        <time>2013-05-02T12:13:57Z</time>
      </trkpt>
      <trkpt lat="47.722" lon="-2.75228">
        <ele>106</ele>
        <time>2013-05-02T12:13:58Z</time>
      </trkpt>
      <trkpt lat="47.72197" lon="-2.75227">
        <ele>106</ele>
        <time>2013-05-02T12:13:59Z</time>
      </trkpt>
      <trkpt lat="47.72195" lon="-2.75225">
        <ele>106</ele>
        <time>2013-05-02T12:14:00Z</time>
      </trkpt>
      <trkpt lat="47.72193" lon="-2.75223">
        <ele>106</ele>
        <time>2013-05-02T12:14:01Z</time>
      </trkpt>
      <trkpt lat="47.7219" lon="-2.75221">
        <ele>106</ele>
        <time>2013-05-02T12:14:02Z</time>
      </trkpt>
      <trkpt lat="47.72188" lon="-2.75219">
        <ele>106</ele>
        <time>2013-05-02T12:14:03Z</time>
      </trkpt>
      <trkpt lat="47.72185" lon="-2.75216">
        <ele>106</ele>
        <time>2013-05-02T12:14:04Z</time>
      </trkpt>
      <trkpt lat="47.72181" lon="-2.75213">
        <ele>106</ele>
        <time>2013-05-02T12:14:05Z</time>
      </trkpt>
      <trkpt lat="47.72178" lon="-2.75212">
        <ele>106</ele>
        <time>2013-05-02T12:14:06Z</time>
      </trkpt>
      <trkpt lat="47.72175" lon="-2.75211">
        <ele>106</ele>
        <time>2013-05-02T12:14:07Z</time>
      </trkpt>
      <trkpt lat="47.72172" lon="-2.7521">
        <ele>106</ele>
        <time>2013-05-02T12:14:08Z</time>
      </trkpt>
      <trkpt lat="47.72169" lon="-2.7521">
        <ele>106</ele>
        <time>2013-05-02T12:14:09Z</time>
      </trkpt>
      <trkpt lat="47.72165" lon="-2.75211">
        <ele>106</ele>
        <time>2013-05-02T12:14:10Z</time>
      </trkpt>
      <trkpt lat="47.72162" lon="-2.75212">
        <ele>106</ele>
        <time>2013-05-02T12:14:11Z</time>
      </trkpt>
      <trkpt lat="47.72159" lon="-2.75213">
        <ele>106</ele>
        <time>2013-05-02T12:14:12Z</time>
      </trkpt>
      <trkpt lat="47.72155" lon="-2.75214">
        <ele>106</ele>
        <time>2013-05-02T12:14:13Z</time>
      </trkpt>
      <trkpt lat="47.72152" lon="-2.75215">
        <ele>106</ele>
        <time>2013-05-02T12:14:14Z</time>
      </trkpt>
      <trkpt lat="47.72149" lon="-2.75216">
        <ele>107</ele>
        <time>2013-05-02T12:14:15Z</time>
      </trkpt>
      <trkpt lat="47.72146" lon="-2.75217">
        <ele>107</ele>
        <time>2013-05-02T12:14:16Z</time>
      </trkpt>
      <trkpt lat="47.72143" lon="-2.75218">
        <ele>108</ele>
        <time>2013-05-02T12:14:17Z</time>
      </trkpt>
      <trkpt lat="47.7214" lon="-2.75219">
        <ele>108</ele>
        <time>2013-05-02T12:14:18Z</time>
      </trkpt>
      <trkpt lat="47.72137" lon="-2.7522">
        <ele>109</ele>
        <time>2013-05-02T12:14:19Z</time>
      </trkpt>
      <trkpt lat="47.72135" lon="-2.75221">
        <ele>110</ele>
        <time>2013-05-02T12:14:20Z</time>
      </trkpt>
      <trkpt lat="47.72132" lon="-2.75222">
        <ele>111</ele>
        <time>2013-05-02T12:14:21Z</time>
      </trkpt>
      <trkpt lat="47.72129" lon="-2.75222">
        <ele>112</ele>
        <time>2013-05-02T12:14:22Z</time>
      </trkpt>
      <trkpt lat="47.72126" lon="-2.75222">
        <ele>113</ele>
        <time>2013-05-02T12:14:23Z</time>
      </trkpt>
      <trkpt lat="47.72123" lon="-2.75222">
        <ele>113</ele>
        <time>2013-05-02T12:14:24Z</time>
      </trkpt>
      <trkpt lat="47.7212" lon="-2.75221">
        <ele>113</ele>
        <time>2013-05-02T12:14:25Z</time>
      </trkpt>
      <trkpt lat="47.72116" lon="-2.75221">
        <ele>114</ele>
        <time>2013-05-02T12:14:26Z</time>
      </trkpt>
      <trkpt lat="47.72113" lon="-2.75221">
        <ele>114</ele>
        <time>2013-05-02T12:14:27Z</time>
      </trkpt>
      <trkpt lat="47.7211" lon="-2.75221">
        <ele>114</ele>
        <time>2013-05-02T12:14:28Z</time>
      </trkpt>
      <trkpt lat="47.72106" lon="-2.75222">
        <ele>115</ele>
        <time>2013-05-02T12:14:29Z</time>
      </trkpt>
      <trkpt lat="47.72103" lon="-2.75223">
        <ele>115</ele>
        <time>2013-05-02T12:14:30Z</time>
      </trkpt>
      <trkpt lat="47.72099" lon="-2.75223">
        <ele>115</ele>
        <time>2013-05-02T12:14:31Z</time>
      </trkpt>
      <trkpt lat="47.72096" lon="-2.75223">
        <ele>115</ele>
        <time>2013-05-02T12:14:32Z</time>
      </trkpt>
      <trkpt lat="47.72092" lon="-2.75223">
        <ele>116</ele>
        <time>2013-05-02T12:14:33Z</time>
      </trkpt>
      <trkpt lat="47.72089" lon="-2.75224">
        <ele>116</ele>
        <time>2013-05-02T12:14:34Z</time>
      </trkpt>
      <trkpt lat="47.72085" lon="-2.75223">
        <ele>116</ele>
        <time>2013-05-02T12:14:35Z</time>
      </trkpt>
      <trkpt lat="47.72083" lon="-2.75223">
        <ele>116</ele>
        <time>2013-05-02T12:14:36Z</time>
      </trkpt>
      <trkpt lat="47.72081" lon="-2.75222">
        <ele>116</ele>
        <time>2013-05-02T12:14:37Z</time>
      </trkpt>
      <trkpt lat="47.72077" lon="-2.75222">
        <ele>116</ele>
        <time>2013-05-02T12:14:38Z</time>
      </trkpt>
      <trkpt lat="47.72073" lon="-2.75221">
        <ele>117</ele>
        <time>2013-05-02T12:14:39Z</time>
      </trkpt>
      <trkpt lat="47.72069" lon="-2.75219">
        <ele>117</ele>
        <time>2013-05-02T12:14:40Z</time>
      </trkpt>
      <trkpt lat="47.72065" lon="-2.75219">
        <ele>117</ele>
        <time>2013-05-02T12:14:41Z</time>
      </trkpt>
      <trkpt lat="47.72061" lon="-2.75218">
        <ele>117</ele>
        <time>2013-05-02T12:14:42Z</time>
      </trkpt>
      <trkpt lat="47.72056" lon="-2.75217">
        <ele>117</ele>
        <time>2013-05-02T12:14:43Z</time>
      </trkpt>
      <trkpt lat="47.72052" lon="-2.75215">
        <ele>117</ele>
        <time>2013-05-02T12:14:44Z</time>
      </trkpt>
      <trkpt lat="47.72047" lon="-2.75214">
        <ele>117</ele>
        <time>2013-05-02T12:14:45Z</time>
      </trkpt>
      <trkpt lat="47.72043" lon="-2.75213">
        <ele>117</ele>
        <time>2013-05-02T12:14:46Z</time>
      </trkpt>
      <trkpt lat="47.72039" lon="-2.75212">
        <ele>117</ele>
        <time>2013-05-02T12:14:47Z</time>
      </trkpt>
      <trkpt lat="47.72035" lon="-2.75211">
        <ele>117</ele>
        <time>2013-05-02T12:14:48Z</time>
      </trkpt>
      <trkpt lat="47.72031" lon="-2.75211">
        <ele>117</ele>
        <time>2013-05-02T12:14:49Z</time>
      </trkpt>
      <trkpt lat="47.72026" lon="-2.75211">
        <ele>117</ele>
        <time>2013-05-02T12:14:50Z</time>
      </trkpt>
      <trkpt lat="47.72022" lon="-2.7521">
        <ele>117</ele>
        <time>2013-05-02T12:14:51Z</time>
      </trkpt>
      <trkpt lat="47.72018" lon="-2.75209">
        <ele>117</ele>
        <time>2013-05-02T12:14:52Z</time>
      </trkpt>
      <trkpt lat="47.72013" lon="-2.75209">
        <ele>117</ele>
        <time>2013-05-02T12:14:53Z</time>
      </trkpt>
      <trkpt lat="47.72009" lon="-2.7521">
        <ele>117</ele>
        <time>2013-05-02T12:14:54Z</time>
      </trkpt>
      <trkpt lat="47.72004" lon="-2.75209">
        <ele>117</ele>
        <time>2013-05-02T12:14:55Z</time>
      </trkpt>
      <trkpt lat="47.72" lon="-2.75209">
        <ele>117</ele>
        <time>2013-05-02T12:14:56Z</time>
      </trkpt>
      <trkpt lat="47.71995" lon="-2.75209">
        <ele>117</ele>
        <time>2013-05-02T12:14:57Z</time>
      </trkpt>
      <trkpt lat="47.71991" lon="-2.75209">
        <ele>117</ele>
        <time>2013-05-02T12:14:58Z</time>
      </trkpt>
      <trkpt lat="47.71985" lon="-2.75209">
        <ele>117</ele>
        <time>2013-05-02T12:14:59Z</time>
      </trkpt>
      <trkpt lat="47.71981" lon="-2.75207">
        <ele>117</ele>
        <time>2013-05-02T12:15:00Z</time>
      </trkpt>
      <trkpt lat="47.71976" lon="-2.75206">
        <ele>117</ele>
        <time>2013-05-02T12:15:01Z</time>
      </trkpt>
      <trkpt lat="47.7197" lon="-2.75203">
        <ele>117</ele>
        <time>2013-05-02T12:15:02Z</time>
      </trkpt>
      <trkpt lat="47.71966" lon="-2.752">
        <ele>117</ele>
        <time>2013-05-02T12:15:03Z</time>
      </trkpt>
      <trkpt lat="47.71961" lon="-2.75197">
        <ele>117</ele>
        <time>2013-05-02T12:15:04Z</time>
      </trkpt>
      <trkpt lat="47.71956" lon="-2.75194">
        <ele>117</ele>
        <time>2013-05-02T12:15:05Z</time>
      </trkpt>
      <trkpt lat="47.71951" lon="-2.75191">
        <ele>117</ele>
        <time>2013-05-02T12:15:06Z</time>
      </trkpt>
      <trkpt lat="47.71947" lon="-2.75188">
        <ele>117</ele>
        <time>2013-05-02T12:15:07Z</time>
      </trkpt>
      <trkpt lat="47.71944" lon="-2.75187">
        <ele>117</ele>
        <time>2013-05-02T12:15:08Z</time>
      </trkpt>
      <trkpt lat="47.71942" lon="-2.75186">
        <ele>117</ele>
        <time>2013-05-02T12:15:09Z</time>
      </trkpt>
      <trkpt lat="47.7194" lon="-2.75186">
        <ele>117</ele>
        <time>2013-05-02T12:15:10Z</time>
      </trkpt>
      <trkpt lat="47.71938" lon="-2.75187">
        <ele>117</ele>
        <time>2013-05-02T12:15:11Z</time>
      </trkpt>
      <trkpt lat="47.71938" lon="-2.7519">
        <ele>117</ele>
        <time>2013-05-02T12:15:12Z</time>
      </trkpt>
      <trkpt lat="47.71939" lon="-2.75192">
        <ele>117</ele>
        <time>2013-05-02T12:15:13Z</time>
      </trkpt>
      <trkpt lat="47.71941" lon="-2.75192">
        <ele>117</ele>
        <time>2013-05-02T12:15:14Z</time>
      </trkpt>
      <trkpt lat="47.71942" lon="-2.75191">
        <ele>117</ele>
        <time>2013-05-02T12:15:15Z</time>
      </trkpt>
      <trkpt lat="47.71944" lon="-2.75189">
        <ele>117</ele>
        <time>2013-05-02T12:15:16Z</time>
      </trkpt>
      <trkpt lat="47.71945" lon="-2.75185">
        <ele>117</ele>
        <time>2013-05-02T12:15:17Z</time>
      </trkpt>
      <trkpt lat="47.71946" lon="-2.75181">
        <ele>117</ele>
        <time>2013-05-02T12:15:18Z</time>
      </trkpt>
      <trkpt lat="47.71947" lon="-2.75175">
        <ele>117</ele>
        <time>2013-05-02T12:15:19Z</time>
      </trkpt>
      <trkpt lat="47.71948" lon="-2.7517">
        <ele>117</ele>
        <time>2013-05-02T12:15:20Z</time>
      </trkpt>
      <trkpt lat="47.7195" lon="-2.75165">
        <ele>117</ele>
        <time>2013-05-02T12:15:21Z</time>
      </trkpt>
      <trkpt lat="47.71951" lon="-2.7516">
        <ele>117</ele>
        <time>2013-05-02T12:15:22Z</time>
      </trkpt>
      <trkpt lat="47.71951" lon="-2.75154">
        <ele>117</ele>
        <time>2013-05-02T12:15:23Z</time>
      </trkpt>
      <trkpt lat="47.71951" lon="-2.75149">
        <ele>117</ele>
        <time>2013-05-02T12:15:24Z</time>
      </trkpt>
      <trkpt lat="47.71951" lon="-2.75144">
        <ele>117</ele>
        <time>2013-05-02T12:15:25Z</time>
      </trkpt>
      <trkpt lat="47.7195" lon="-2.75138">
        <ele>116</ele>
        <time>2013-05-02T12:15:26Z</time>
      </trkpt>
      <trkpt lat="47.7195" lon="-2.75132">
        <ele>116</ele>
        <time>2013-05-02T12:15:27Z</time>
      </trkpt>
      <trkpt lat="47.71949" lon="-2.75127">
        <ele>116</ele>
        <time>2013-05-02T12:15:28Z</time>
      </trkpt>
      <trkpt lat="47.71947" lon="-2.75122">
        <ele>116</ele>
        <time>2013-05-02T12:15:29Z</time>
      </trkpt>
      <trkpt lat="47.71945" lon="-2.75117">
        <ele>116</ele>
        <time>2013-05-02T12:15:30Z</time>
      </trkpt>
      <trkpt lat="47.71944" lon="-2.75112">
        <ele>116</ele>
        <time>2013-05-02T12:15:31Z</time>
      </trkpt>
      <trkpt lat="47.71942" lon="-2.75107">
        <ele>116</ele>
        <time>2013-05-02T12:15:32Z</time>
      </trkpt>
      <trkpt lat="47.7194" lon="-2.75102">
        <ele>116</ele>
        <time>2013-05-02T12:15:33Z</time>
      </trkpt>
      <trkpt lat="47.71937" lon="-2.75097">
        <ele>116</ele>
        <time>2013-05-02T12:15:34Z</time>
      </trkpt>
      <trkpt lat="47.71935" lon="-2.75092">
        <ele>116</ele>
        <time>2013-05-02T12:15:35Z</time>
      </trkpt>
      <trkpt lat="47.71933" lon="-2.75088">
        <ele>116</ele>
        <time>2013-05-02T12:15:36Z</time>
      </trkpt>
      <trkpt lat="47.71931" lon="-2.75083">
        <ele>116</ele>
        <time>2013-05-02T12:15:37Z</time>
      </trkpt>
      <trkpt lat="47.7193" lon="-2.75077">
        <ele>116</ele>
        <time>2013-05-02T12:15:38Z</time>
      </trkpt>
      <trkpt lat="47.71929" lon="-2.7507">
        <ele>116</ele>
        <time>2013-05-02T12:15:39Z</time>
      </trkpt>
      <trkpt lat="47.71928" lon="-2.75063">
        <ele>115</ele>
        <time>2013-05-02T12:15:40Z</time>
      </trkpt>
      <trkpt lat="47.71927" lon="-2.75055">
        <ele>115</ele>
        <time>2013-05-02T12:15:41Z</time>
      </trkpt>
      <trkpt lat="47.71926" lon="-2.75047">
        <ele>115</ele>
        <time>2013-05-02T12:15:42Z</time>
      </trkpt>
      <trkpt lat="47.71925" lon="-2.7504">
        <ele>115</ele>
        <time>2013-05-02T12:15:43Z</time>
      </trkpt>
      <trkpt lat="47.71924" lon="-2.75032">
        <ele>115</ele>
        <time>2013-05-02T12:15:44Z</time>
      </trkpt>
      <trkpt lat="47.71923" lon="-2.75025">
        <ele>115</ele>
        <time>2013-05-02T12:15:45Z</time>
      </trkpt>
      <trkpt lat="47.7192" lon="-2.75018">
        <ele>114</ele>
        <time>2013-05-02T12:15:46Z</time>
      </trkpt>
      <trkpt lat="47.71917" lon="-2.7501">
        <ele>114</ele>
        <time>2013-05-02T12:15:47Z</time>
      </trkpt>
      <trkpt lat="47.71915" lon="-2.75002">
        <ele>113</ele>
        <time>2013-05-02T12:15:48Z</time>
      </trkpt>
      <trkpt lat="47.71912" lon="-2.74994">
        <ele>113</ele>
        <time>2013-05-02T12:15:49Z</time>
      </trkpt>
      <trkpt lat="47.71911" lon="-2.74986">
        <ele>113</ele>
        <time>2013-05-02T12:15:50Z</time>
      </trkpt>
      <trkpt lat="47.71909" lon="-2.74979">
        <ele>113</ele>
        <time>2013-05-02T12:15:51Z</time>
      </trkpt>
      <trkpt lat="47.71908" lon="-2.74973">
        <ele>113</ele>
        <time>2013-05-02T12:15:52Z</time>
      </trkpt>
      <trkpt lat="47.71907" lon="-2.74966">
        <ele>112</ele>
        <time>2013-05-02T12:15:53Z</time>
      </trkpt>
      <trkpt lat="47.71908" lon="-2.74959">
        <ele>112</ele>
        <time>2013-05-02T12:15:54Z</time>
      </trkpt>
      <trkpt lat="47.71909" lon="-2.74953">
        <ele>111</ele>
        <time>2013-05-02T12:15:55Z</time>
      </trkpt>
      <trkpt lat="47.71912" lon="-2.74949">
        <ele>110</ele>
        <time>2013-05-02T12:15:56Z</time>
      </trkpt>
      <trkpt lat="47.71916" lon="-2.74946">
        <ele>109</ele>
        <time>2013-05-02T12:15:57Z</time>
      </trkpt>
      <trkpt lat="47.71922" lon="-2.74943">
        <ele>108</ele>
        <time>2013-05-02T12:15:58Z</time>
      </trkpt>
      <trkpt lat="47.71928" lon="-2.74942">
        <ele>107</ele>
        <time>2013-05-02T12:15:59Z</time>
      </trkpt>
      <trkpt lat="47.71935" lon="-2.74941">
        <ele>106</ele>
        <time>2013-05-02T12:16:00Z</time>
      </trkpt>
      <trkpt lat="47.71941" lon="-2.74941">
        <ele>105</ele>
        <time>2013-05-02T12:16:01Z</time>
      </trkpt>
      <trkpt lat="47.71946" lon="-2.74941">
        <ele>104</ele>
        <time>2013-05-02T12:16:02Z</time>
      </trkpt>
      <trkpt lat="47.71952" lon="-2.74941">
        <ele>103</ele>
        <time>2013-05-02T12:16:03Z</time>
      </trkpt>
      <trkpt lat="47.71956" lon="-2.74942">
        <ele>103</ele>
        <time>2013-05-02T12:16:04Z</time>
      </trkpt>
      <trkpt lat="47.71961" lon="-2.74942">
        <ele>103</ele>
        <time>2013-05-02T12:16:05Z</time>
      </trkpt>
      <trkpt lat="47.71967" lon="-2.74942">
        <ele>103</ele>
        <time>2013-05-02T12:16:06Z</time>
      </trkpt>
      <trkpt lat="47.71972" lon="-2.74941">
        <ele>103</ele>
        <time>2013-05-02T12:16:07Z</time>
      </trkpt>
      <trkpt lat="47.71977" lon="-2.74939">
        <ele>103</ele>
        <time>2013-05-02T12:16:08Z</time>
      </trkpt>
      <trkpt lat="47.71982" lon="-2.74938">
        <ele>103</ele>
        <time>2013-05-02T12:16:09Z</time>
      </trkpt>
      <trkpt lat="47.71986" lon="-2.74935">
        <ele>103</ele>
        <time>2013-05-02T12:16:10Z</time>
      </trkpt>
      <trkpt lat="47.7199" lon="-2.74932">
        <ele>103</ele>
        <time>2013-05-02T12:16:11Z</time>
      </trkpt>
      <trkpt lat="47.71993" lon="-2.74929">
        <ele>103</ele>
        <time>2013-05-02T12:16:12Z</time>
      </trkpt>
      <trkpt lat="47.71995" lon="-2.74926">
        <ele>103</ele>
        <time>2013-05-02T12:16:13Z</time>
      </trkpt>
      <trkpt lat="47.71997" lon="-2.74925">
        <ele>103</ele>
        <time>2013-05-02T12:16:14Z</time>
      </trkpt>
      <trkpt lat="47.71999" lon="-2.74926">
        <ele>103</ele>
        <time>2013-05-02T12:16:15Z</time>
      </trkpt>
      <trkpt lat="47.72001" lon="-2.7493">
        <ele>102</ele>
        <time>2013-05-02T12:16:16Z</time>
      </trkpt>
      <trkpt lat="47.72005" lon="-2.74936">
        <ele>102</ele>
        <time>2013-05-02T12:16:17Z</time>
      </trkpt>
      <trkpt lat="47.72009" lon="-2.74942">
        <ele>101</ele>
        <time>2013-05-02T12:16:18Z</time>
      </trkpt>
      <trkpt lat="47.72013" lon="-2.74948">
        <ele>100</ele>
        <time>2013-05-02T12:16:19Z</time>
      </trkpt>
      <trkpt lat="47.72018" lon="-2.74952">
        <ele>99</ele>
        <time>2013-05-02T12:16:20Z</time>
      </trkpt>
      <trkpt lat="47.72023" lon="-2.74955">
        <ele>98</ele>
        <time>2013-05-02T12:16:21Z</time>
      </trkpt>
      <trkpt lat="47.72029" lon="-2.74956">
        <ele>97</ele>
        <time>2013-05-02T12:16:22Z</time>
      </trkpt>
      <trkpt lat="47.72035" lon="-2.74957">
        <ele>96</ele>
        <time>2013-05-02T12:16:23Z</time>
      </trkpt>
      <trkpt lat="47.72041" lon="-2.74958">
        <ele>95</ele>
        <time>2013-05-02T12:16:24Z</time>
      </trkpt>
      <trkpt lat="47.72046" lon="-2.7496">
        <ele>94</ele>
        <time>2013-05-02T12:16:25Z</time>
      </trkpt>
      <trkpt lat="47.72052" lon="-2.74962">
        <ele>93</ele>
        <time>2013-05-02T12:16:26Z</time>
      </trkpt>
      <trkpt lat="47.72059" lon="-2.74964">
        <ele>92</ele>
        <time>2013-05-02T12:16:27Z</time>
      </trkpt>
      <trkpt lat="47.72067" lon="-2.74966">
        <ele>91</ele>
        <time>2013-05-02T12:16:28Z</time>
      </trkpt>
      <trkpt lat="47.72075" lon="-2.74968">
        <ele>91</ele>
        <time>2013-05-02T12:16:29Z</time>
      </trkpt>
      <trkpt lat="47.72083" lon="-2.74971">
        <ele>91</ele>
        <time>2013-05-02T12:16:30Z</time>
      </trkpt>
      <trkpt lat="47.72091" lon="-2.74974">
        <ele>91</ele>
        <time>2013-05-02T12:16:31Z</time>
      </trkpt>
      <trkpt lat="47.72098" lon="-2.74976">
        <ele>91</ele>
        <time>2013-05-02T12:16:32Z</time>
      </trkpt>
      <trkpt lat="47.72105" lon="-2.74977">
        <ele>91</ele>
        <time>2013-05-02T12:16:33Z</time>
      </trkpt>
      <trkpt lat="47.72111" lon="-2.74977">
        <ele>91</ele>
        <time>2013-05-02T12:16:34Z</time>
      </trkpt>
      <trkpt lat="47.72116" lon="-2.74977">
        <ele>91</ele>
        <time>2013-05-02T12:16:35Z</time>
      </trkpt>
      <trkpt lat="47.72121" lon="-2.74977">
        <ele>91</ele>
        <time>2013-05-02T12:16:36Z</time>
      </trkpt>
      <trkpt lat="47.72126" lon="-2.74976">
        <ele>91</ele>
        <time>2013-05-02T12:16:37Z</time>
      </trkpt>
      <trkpt lat="47.7213" lon="-2.74976">
        <ele>91</ele>
        <time>2013-05-02T12:16:38Z</time>
      </trkpt>
      <trkpt lat="47.72135" lon="-2.74975">
        <ele>91</ele>
        <time>2013-05-02T12:16:39Z</time>
      </trkpt>
      <trkpt lat="47.72139" lon="-2.74975">
        <ele>91</ele>
        <time>2013-05-02T12:16:40Z</time>
      </trkpt>
      <trkpt lat="47.72142" lon="-2.74974">
        <ele>91</ele>
        <time>2013-05-02T12:16:41Z</time>
      </trkpt>
      <trkpt lat="47.72145" lon="-2.74974">
        <ele>91</ele>
        <time>2013-05-02T12:16:42Z</time>
      </trkpt>
      <trkpt lat="47.72147" lon="-2.74973">
        <ele>91</ele>
        <time>2013-05-02T12:16:43Z</time>
      </trkpt>
      <trkpt lat="47.72149" lon="-2.74973">
        <ele>91</ele>
        <time>2013-05-02T12:16:44Z</time>
      </trkpt>
      <trkpt lat="47.72151" lon="-2.74972">
        <ele>91</ele>
        <time>2013-05-02T12:16:45Z</time>
      </trkpt>
      <trkpt lat="47.72154" lon="-2.74971">
        <ele>91</ele>
        <time>2013-05-02T12:16:46Z</time>
      </trkpt>
      <trkpt lat="47.72156" lon="-2.7497">
        <ele>91</ele>
        <time>2013-05-02T12:16:47Z</time>
      </trkpt>
      <trkpt lat="47.72159" lon="-2.74968">
        <ele>91</ele>
        <time>2013-05-02T12:16:48Z</time>
      </trkpt>
      <trkpt lat="47.72162" lon="-2.74965">
        <ele>91</ele>
        <time>2013-05-02T12:16:49Z</time>
      </trkpt>
      <trkpt lat="47.72166" lon="-2.74963">
        <ele>91</ele>
        <time>2013-05-02T12:16:50Z</time>
      </trkpt>
      <trkpt lat="47.72169" lon="-2.74961">
        <ele>91</ele>
        <time>2013-05-02T12:16:51Z</time>
      </trkpt>
      <trkpt lat="47.72173" lon="-2.74958">
        <ele>91</ele>
        <time>2013-05-02T12:16:52Z</time>
      </trkpt>
      <trkpt lat="47.72175" lon="-2.74955">
        <ele>91</ele>
        <time>2013-05-02T12:16:53Z</time>
      </trkpt>
      <trkpt lat="47.72178" lon="-2.74953">
        <ele>91</ele>
        <time>2013-05-02T12:16:54Z</time>
      </trkpt>
      <trkpt lat="47.72181" lon="-2.74951">
        <ele>91</ele>
        <time>2013-05-02T12:16:55Z</time>
      </trkpt>
      <trkpt lat="47.72184" lon="-2.74948">
        <ele>91</ele>
        <time>2013-05-02T12:16:56Z</time>
      </trkpt>
      <trkpt lat="47.72187" lon="-2.74946">
        <ele>91</ele>
        <time>2013-05-02T12:16:57Z</time>
      </trkpt>
      <trkpt lat="47.7219" lon="-2.74943">
        <ele>91</ele>
        <time>2013-05-02T12:16:58Z</time>
      </trkpt>
      <trkpt lat="47.72194" lon="-2.74941">
        <ele>91</ele>
        <time>2013-05-02T12:16:59Z</time>
      </trkpt>
      <trkpt lat="47.72197" lon="-2.7494">
        <ele>91</ele>
        <time>2013-05-02T12:17:00Z</time>
      </trkpt>
      <trkpt lat="47.72199" lon="-2.74938">
        <ele>91</ele>
        <time>2013-05-02T12:17:01Z</time>
      </trkpt>
      <trkpt lat="47.72202" lon="-2.74937">
        <ele>91</ele>
        <time>2013-05-02T12:17:02Z</time>
      </trkpt>
      <trkpt lat="47.72205" lon="-2.74936">
        <ele>91</ele>
        <time>2013-05-02T12:17:03Z</time>
      </trkpt>
      <trkpt lat="47.72208" lon="-2.74934">
        <ele>91</ele>
        <time>2013-05-02T12:17:04Z</time>
      </trkpt>
      <trkpt lat="47.72211" lon="-2.74933">
        <ele>91</ele>
        <time>2013-05-02T12:17:05Z</time>
      </trkpt>
      <trkpt lat="47.72215" lon="-2.74931">
        <ele>91</ele>
        <time>2013-05-02T12:17:06Z</time>
      </trkpt>
      <trkpt lat="47.72218" lon="-2.74928">
        <ele>91</ele>
        <time>2013-05-02T12:17:07Z</time>
      </trkpt>
      <trkpt lat="47.7222" lon="-2.74926">
        <ele>92</ele>
        <time>2013-05-02T12:17:08Z</time>
      </trkpt>
      <trkpt lat="47.72223" lon="-2.74924">
        <ele>93</ele>
        <time>2013-05-02T12:17:09Z</time>
      </trkpt>
      <trkpt lat="47.72226" lon="-2.74922">
        <ele>94</ele>
        <time>2013-05-02T12:17:10Z</time>
      </trkpt>
      <trkpt lat="47.72228" lon="-2.74921">
        <ele>95</ele>
        <time>2013-05-02T12:17:11Z</time>
      </trkpt>
      <trkpt lat="47.7223" lon="-2.74919">
        <ele>96</ele>
        <time>2013-05-02T12:17:12Z</time>
      </trkpt>
      <trkpt lat="47.72232" lon="-2.74918">
        <ele>97</ele>
        <time>2013-05-02T12:17:13Z</time>
      </trkpt>
      <trkpt lat="47.72234" lon="-2.74917">
        <ele>98</ele>
        <time>2013-05-02T12:17:14Z</time>
      </trkpt>
      <trkpt lat="47.72237" lon="-2.74915">
        <ele>99</ele>
        <time>2013-05-02T12:17:15Z</time>
      </trkpt>
      <trkpt lat="47.72239" lon="-2.74914">
        <ele>100</ele>
        <time>2013-05-02T12:17:16Z</time>
      </trkpt>
      <trkpt lat="47.72241" lon="-2.74913">
        <ele>100</ele>
        <time>2013-05-02T12:17:17Z</time>
      </trkpt>
      <trkpt lat="47.72242" lon="-2.74912">
        <ele>101</ele>
        <time>2013-05-02T12:17:18Z</time>
      </trkpt>
      <trkpt lat="47.72245" lon="-2.74911">
        <ele>102</ele>
        <time>2013-05-02T12:17:19Z</time>
      </trkpt>
      <trkpt lat="47.72247" lon="-2.7491">
        <ele>102</ele>
        <time>2013-05-02T12:17:20Z</time>
      </trkpt>
      <trkpt lat="47.72248" lon="-2.74909">
        <ele>103</ele>
        <time>2013-05-02T12:17:21Z</time>
      </trkpt>
      <trkpt lat="47.7225" lon="-2.74909">
        <ele>103</ele>
        <time>2013-05-02T12:17:22Z</time>
      </trkpt>
      <trkpt lat="47.72252" lon="-2.74908">
        <ele>104</ele>
        <time>2013-05-02T12:17:23Z</time>
      </trkpt>
      <trkpt lat="47.72253" lon="-2.74907">
        <ele>104</ele>
        <time>2013-05-02T12:17:24Z</time>
      </trkpt>
      <trkpt lat="47.72255" lon="-2.74906">
        <ele>105</ele>
        <time>2013-05-02T12:17:25Z</time>
      </trkpt>
      <trkpt lat="47.72257" lon="-2.74905">
        <ele>105</ele>
        <time>2013-05-02T12:17:26Z</time>
      </trkpt>
      <trkpt lat="47.72259" lon="-2.74904">
        <ele>106</ele>
        <time>2013-05-02T12:17:27Z</time>
      </trkpt>
      <trkpt lat="47.72261" lon="-2.74903">
        <ele>106</ele>
        <time>2013-05-02T12:17:28Z</time>
      </trkpt>
      <trkpt lat="47.72263" lon="-2.74903">
        <ele>107</ele>
        <time>2013-05-02T12:17:29Z</time>
      </trkpt>
      <trkpt lat="47.72264" lon="-2.74902">
        <ele>107</ele>
        <time>2013-05-02T12:17:30Z</time>
      </trkpt>
      <trkpt lat="47.72266" lon="-2.74901">
        <ele>108</ele>
        <time>2013-05-02T12:17:31Z</time>
      </trkpt>
      <trkpt lat="47.72268" lon="-2.749">
        <ele>108</ele>
        <time>2013-05-02T12:17:32Z</time>
      </trkpt>
      <trkpt lat="47.7227" lon="-2.74898">
        <ele>108</ele>
        <time>2013-05-02T12:17:33Z</time>
      </trkpt>
      <trkpt lat="47.7227" lon="-2.74896">
        <ele>108</ele>
        <time>2013-05-02T12:17:34Z</time>
      </trkpt>
      <trkpt lat="47.7227" lon="-2.74892">
        <ele>109</ele>
        <time>2013-05-02T12:17:35Z</time>
      </trkpt>
      <trkpt lat="47.72269" lon="-2.74889">
        <ele>109</ele>
        <time>2013-05-02T12:17:36Z</time>
      </trkpt>
      <trkpt lat="47.72268" lon="-2.74886">
        <ele>109</ele>
        <time>2013-05-02T12:17:37Z</time>
      </trkpt>
      <trkpt lat="47.72267" lon="-2.74883">
        <ele>109</ele>
        <time>2013-05-02T12:17:38Z</time>
      </trkpt>
      <trkpt lat="47.72266" lon="-2.7488">
        <ele>109</ele>
        <time>2013-05-02T12:17:39Z</time>
      </trkpt>
      <trkpt lat="47.72265" lon="-2.74876">
        <ele>109</ele>
        <time>2013-05-02T12:17:40Z</time>
      </trkpt>
      <trkpt lat="47.72264" lon="-2.74873">
        <ele>109</ele>
        <time>2013-05-02T12:17:41Z</time>
      </trkpt>
      <trkpt lat="47.72263" lon="-2.74869">
        <ele>109</ele>
        <time>2013-05-02T12:17:42Z</time>
      </trkpt>
      <trkpt lat="47.72262" lon="-2.74865">
        <ele>109</ele>
        <time>2013-05-02T12:17:43Z</time>
      </trkpt>
      <trkpt lat="47.72261" lon="-2.74861">
        <ele>109</ele>
        <time>2013-05-02T12:17:44Z</time>
      </trkpt>
      <trkpt lat="47.72261" lon="-2.74857">
        <ele>109</ele>
        <time>2013-05-02T12:17:45Z</time>
      </trkpt>
      <trkpt lat="47.72259" lon="-2.74852">
        <ele>109</ele>
        <time>2013-05-02T12:17:46Z</time>
      </trkpt>
      <trkpt lat="47.72258" lon="-2.74848">
        <ele>109</ele>
        <time>2013-05-02T12:17:47Z</time>
      </trkpt>
      <trkpt lat="47.72257" lon="-2.74843">
        <ele>109</ele>
        <time>2013-05-02T12:17:48Z</time>
      </trkpt>
      <trkpt lat="47.72256" lon="-2.74838">
        <ele>109</ele>
        <time>2013-05-02T12:17:49Z</time>
      </trkpt>
      <trkpt lat="47.72255" lon="-2.74832">
        <ele>109</ele>
        <time>2013-05-02T12:17:50Z</time>
      </trkpt>
      <trkpt lat="47.72254" lon="-2.74827">
        <ele>109</ele>
        <time>2013-05-02T12:17:51Z</time>
      </trkpt>
      <trkpt lat="47.72252" lon="-2.74821">
        <ele>109</ele>
        <time>2013-05-02T12:17:52Z</time>
      </trkpt>
      <trkpt lat="47.72251" lon="-2.74816">
        <ele>109</ele>
        <time>2013-05-02T12:17:53Z</time>
      </trkpt>
      <trkpt lat="47.72249" lon="-2.74811">
        <ele>109</ele>
        <time>2013-05-02T12:17:54Z</time>
      </trkpt>
      <trkpt lat="47.72248" lon="-2.74806">
        <ele>109</ele>
        <time>2013-05-02T12:17:55Z</time>
      </trkpt>
      <trkpt lat="47.72247" lon="-2.74801">
        <ele>109</ele>
        <time>2013-05-02T12:17:56Z</time>
      </trkpt>
      <trkpt lat="47.72246" lon="-2.74797">
        <ele>109</ele>
        <time>2013-05-02T12:17:57Z</time>
      </trkpt>
      <trkpt lat="47.72245" lon="-2.74793">
        <ele>109</ele>
        <time>2013-05-02T12:17:58Z</time>
      </trkpt>
      <trkpt lat="47.72244" lon="-2.7479">
        <ele>109</ele>
        <time>2013-05-02T12:17:59Z</time>
      </trkpt>
      <trkpt lat="47.72244" lon="-2.74786">
        <ele>109</ele>
        <time>2013-05-02T12:18:00Z</time>
      </trkpt>
      <trkpt lat="47.72243" lon="-2.74783">
        <ele>109</ele>
        <time>2013-05-02T12:18:01Z</time>
      </trkpt>
      <trkpt lat="47.72243" lon="-2.7478">
        <ele>109</ele>
        <time>2013-05-02T12:18:02Z</time>
      </trkpt>
      <trkpt lat="47.72242" lon="-2.74777">
        <ele>109</ele>
        <time>2013-05-02T12:18:03Z</time>
      </trkpt>
      <trkpt lat="47.7224" lon="-2.74773">
        <ele>109</ele>
        <time>2013-05-02T12:18:04Z</time>
      </trkpt>
      <trkpt lat="47.7224" lon="-2.74769">
        <ele>109</ele>
        <time>2013-05-02T12:18:05Z</time>
      </trkpt>
      <trkpt lat="47.72238" lon="-2.74766">
        <ele>109</ele>
        <time>2013-05-02T12:18:06Z</time>
      </trkpt>
      <trkpt lat="47.72237" lon="-2.74761">
        <ele>109</ele>
        <time>2013-05-02T12:18:07Z</time>
      </trkpt>
      <trkpt lat="47.72236" lon="-2.74757">
        <ele>109</ele>
        <time>2013-05-02T12:18:08Z</time>
      </trkpt>
      <trkpt lat="47.72234" lon="-2.74751">
        <ele>109</ele>
        <time>2013-05-02T12:18:09Z</time>
      </trkpt>
      <trkpt lat="47.72233" lon="-2.74747">
        <ele>109</ele>
        <time>2013-05-02T12:18:10Z</time>
      </trkpt>
      <trkpt lat="47.72233" lon="-2.74743">
        <ele>109</ele>
        <time>2013-05-02T12:18:11Z</time>
      </trkpt>
      <trkpt lat="47.72232" lon="-2.74739">
        <ele>109</ele>
        <time>2013-05-02T12:18:12Z</time>
      </trkpt>
      <trkpt lat="47.72232" lon="-2.74735">
        <ele>109</ele>
        <time>2013-05-02T12:18:13Z</time>
      </trkpt>
      <trkpt lat="47.72232" lon="-2.74731">
        <ele>109</ele>
        <time>2013-05-02T12:18:14Z</time>
      </trkpt>
      <trkpt lat="47.72232" lon="-2.74727">
        <ele>109</ele>
        <time>2013-05-02T12:18:15Z</time>
      </trkpt>
      <trkpt lat="47.72233" lon="-2.74723">
        <ele>109</ele>
        <time>2013-05-02T12:18:16Z</time>
      </trkpt>
      <trkpt lat="47.72234" lon="-2.7472">
        <ele>109</ele>
        <time>2013-05-02T12:18:17Z</time>
      </trkpt>
      <trkpt lat="47.72235" lon="-2.74716">
        <ele>109</ele>
        <time>2013-05-02T12:18:18Z</time>
      </trkpt>
      <trkpt lat="47.72236" lon="-2.74713">
        <ele>109</ele>
        <time>2013-05-02T12:18:19Z</time>
      </trkpt>
      <trkpt lat="47.72237" lon="-2.7471">
        <ele>109</ele>
        <time>2013-05-02T12:18:20Z</time>
      </trkpt>
      <trkpt lat="47.72239" lon="-2.74706">
        <ele>109</ele>
        <time>2013-05-02T12:18:21Z</time>
      </trkpt>
      <trkpt lat="47.7224" lon="-2.74702">
        <ele>109</ele>
        <time>2013-05-02T12:18:22Z</time>
      </trkpt>
      <trkpt lat="47.72242" lon="-2.74698">
        <ele>109</ele>
        <time>2013-05-02T12:18:23Z</time>
      </trkpt>
      <trkpt lat="47.72245" lon="-2.74695">
        <ele>109</ele>
        <time>2013-05-02T12:18:24Z</time>
      </trkpt>
      <trkpt lat="47.72247" lon="-2.74692">
        <ele>109</ele>
        <time>2013-05-02T12:18:25Z</time>
      </trkpt>
      <trkpt lat="47.72249" lon="-2.74688">
        <ele>109</ele>
        <time>2013-05-02T12:18:26Z</time>
      </trkpt>
      <trkpt lat="47.72251" lon="-2.74684">
        <ele>109</ele>
        <time>2013-05-02T12:18:27Z</time>
      </trkpt>
      <trkpt lat="47.72253" lon="-2.7468">
        <ele>109</ele>
        <time>2013-05-02T12:18:28Z</time>
      </trkpt>
      <trkpt lat="47.72255" lon="-2.74677">
        <ele>109</ele>
        <time>2013-05-02T12:18:29Z</time>
      </trkpt>
      <trkpt lat="47.72256" lon="-2.74674">
        <ele>109</ele>
        <time>2013-05-02T12:18:30Z</time>
      </trkpt>
      <trkpt lat="47.72258" lon="-2.7467">
        <ele>109</ele>
        <time>2013-05-02T12:18:31Z</time>
      </trkpt>
      <trkpt lat="47.7226" lon="-2.74667">
        <ele>109</ele>
        <time>2013-05-02T12:18:32Z</time>
      </trkpt>
      <trkpt lat="47.72261" lon="-2.74664">
        <ele>109</ele>
        <time>2013-05-02T12:18:33Z</time>
      </trkpt>
      <trkpt lat="47.72263" lon="-2.74661">
        <ele>109</ele>
        <time>2013-05-02T12:18:34Z</time>
      </trkpt>
      <trkpt lat="47.72265" lon="-2.74658">
        <ele>109</ele>
        <time>2013-05-02T12:18:35Z</time>
      </trkpt>
      <trkpt lat="47.72268" lon="-2.74655">
        <ele>109</ele>
        <time>2013-05-02T12:18:36Z</time>
      </trkpt>
      <trkpt lat="47.7227" lon="-2.74653">
        <ele>109</ele>
        <time>2013-05-02T12:18:37Z</time>
      </trkpt>
      <trkpt lat="47.72272" lon="-2.7465">
        <ele>109</ele>
        <time>2013-05-02T12:18:38Z</time>
      </trkpt>
      <trkpt lat="47.72274" lon="-2.74647">
        <ele>109</ele>
        <time>2013-05-02T12:18:39Z</time>
      </trkpt>
      <trkpt lat="47.72276" lon="-2.74645">
        <ele>109</ele>
        <time>2013-05-02T12:18:40Z</time>
      </trkpt>
      <trkpt lat="47.72277" lon="-2.74644">
        <ele>109</ele>
        <time>2013-05-02T12:18:41Z</time>
      </trkpt>
      <trkpt lat="47.72278" lon="-2.74641">
        <ele>109</ele>
        <time>2013-05-02T12:18:43Z</time>
      </trkpt>
      <trkpt lat="47.72277" lon="-2.74639">
        <ele>109</ele>
        <time>2013-05-02T12:18:44Z</time>
      </trkpt>
      <trkpt lat="47.72276" lon="-2.74637">
        <ele>109</ele>
        <time>2013-05-02T12:18:45Z</time>
      </trkpt>
      <trkpt lat="47.72275" lon="-2.74635">
        <ele>109</ele>
        <time>2013-05-02T12:18:46Z</time>
      </trkpt>
      <trkpt lat="47.72274" lon="-2.74633">
        <ele>109</ele>
        <time>2013-05-02T12:18:47Z</time>
      </trkpt>
      <trkpt lat="47.72272" lon="-2.74631">
        <ele>109</ele>
        <time>2013-05-02T12:18:48Z</time>
      </trkpt>
      <trkpt lat="47.7227" lon="-2.74628">
        <ele>109</ele>
        <time>2013-05-02T12:18:49Z</time>
      </trkpt>
      <trkpt lat="47.72269" lon="-2.74626">
        <ele>109</ele>
        <time>2013-05-02T12:18:50Z</time>
      </trkpt>
      <trkpt lat="47.72267" lon="-2.74623">
        <ele>108</ele>
        <time>2013-05-02T12:18:51Z</time>
      </trkpt>
      <trkpt lat="47.72265" lon="-2.7462">
        <ele>108</ele>
        <time>2013-05-02T12:18:52Z</time>
      </trkpt>
      <trkpt lat="47.72264" lon="-2.74616">
        <ele>107</ele>
        <time>2013-05-02T12:18:53Z</time>
      </trkpt>
      <trkpt lat="47.72261" lon="-2.74611">
        <ele>107</ele>
        <time>2013-05-02T12:18:54Z</time>
      </trkpt>
      <trkpt lat="47.72259" lon="-2.74607">
        <ele>106</ele>
        <time>2013-05-02T12:18:55Z</time>
      </trkpt>
      <trkpt lat="47.72258" lon="-2.74605">
        <ele>105</ele>
        <time>2013-05-02T12:18:56Z</time>
      </trkpt>
      <trkpt lat="47.72258" lon="-2.74603">
        <ele>104</ele>
        <time>2013-05-02T12:18:57Z</time>
      </trkpt>
      <trkpt lat="47.72258" lon="-2.746">
        <ele>104</ele>
        <time>2013-05-02T12:18:58Z</time>
      </trkpt>
      <trkpt lat="47.7226" lon="-2.74598">
        <ele>104</ele>
        <time>2013-05-02T12:18:59Z</time>
      </trkpt>
      <trkpt lat="47.72261" lon="-2.74596">
        <ele>104</ele>
        <time>2013-05-02T12:19:00Z</time>
      </trkpt>
      <trkpt lat="47.72264" lon="-2.74594">
        <ele>103</ele>
        <time>2013-05-02T12:19:01Z</time>
      </trkpt>
      <trkpt lat="47.72266" lon="-2.74592">
        <ele>103</ele>
        <time>2013-05-02T12:19:02Z</time>
      </trkpt>
      <trkpt lat="47.72269" lon="-2.7459">
        <ele>103</ele>
        <time>2013-05-02T12:19:03Z</time>
      </trkpt>
      <trkpt lat="47.72273" lon="-2.74587">
        <ele>103</ele>
        <time>2013-05-02T12:19:04Z</time>
      </trkpt>
      <trkpt lat="47.72276" lon="-2.74585">
        <ele>102</ele>
        <time>2013-05-02T12:19:05Z</time>
      </trkpt>
      <trkpt lat="47.72279" lon="-2.74583">
        <ele>102</ele>
        <time>2013-05-02T12:19:06Z</time>
      </trkpt>
      <trkpt lat="47.72282" lon="-2.7458">
        <ele>102</ele>
        <time>2013-05-02T12:19:07Z</time>
      </trkpt>
      <trkpt lat="47.72285" lon="-2.74578">
        <ele>102</ele>
        <time>2013-05-02T12:19:08Z</time>
      </trkpt>
      <trkpt lat="47.72288" lon="-2.74575">
        <ele>102</ele>
        <time>2013-05-02T12:19:09Z</time>
      </trkpt>
      <trkpt lat="47.72291" lon="-2.74572">
        <ele>102</ele>
        <time>2013-05-02T12:19:10Z</time>
      </trkpt>
      <trkpt lat="47.72294" lon="-2.7457">
        <ele>102</ele>
        <time>2013-05-02T12:19:11Z</time>
      </trkpt>
      <trkpt lat="47.72297" lon="-2.74566">
        <ele>102</ele>
        <time>2013-05-02T12:19:12Z</time>
      </trkpt>
      <trkpt lat="47.72299" lon="-2.74563">
        <ele>102</ele>
        <time>2013-05-02T12:19:13Z</time>
      </trkpt>
      <trkpt lat="47.72301" lon="-2.7456">
        <ele>102</ele>
        <time>2013-05-02T12:19:14Z</time>
      </trkpt>
      <trkpt lat="47.72304" lon="-2.74557">
        <ele>102</ele>
        <time>2013-05-02T12:19:15Z</time>
      </trkpt>
      <trkpt lat="47.72306" lon="-2.74555">
        <ele>102</ele>
        <time>2013-05-02T12:19:16Z</time>
      </trkpt>
      <trkpt lat="47.72309" lon="-2.74553">
        <ele>102</ele>
        <time>2013-05-02T12:19:17Z</time>
      </trkpt>
      <trkpt lat="47.72311" lon="-2.7455">
        <ele>102</ele>
        <time>2013-05-02T12:19:18Z</time>
      </trkpt>
      <trkpt lat="47.72314" lon="-2.74548">
        <ele>102</ele>
        <time>2013-05-02T12:19:19Z</time>
      </trkpt>
      <trkpt lat="47.72316" lon="-2.74545">
        <ele>102</ele>
        <time>2013-05-02T12:19:20Z</time>
      </trkpt>
      <trkpt lat="47.72317" lon="-2.74541">
        <ele>102</ele>
        <time>2013-05-02T12:19:21Z</time>
      </trkpt>
      <trkpt lat="47.72319" lon="-2.74537">
        <ele>102</ele>
        <time>2013-05-02T12:19:22Z</time>
      </trkpt>
      <trkpt lat="47.72321" lon="-2.74533">
        <ele>102</ele>
        <time>2013-05-02T12:19:23Z</time>
      </trkpt>
      <trkpt lat="47.72323" lon="-2.74529">
        <ele>102</ele>
        <time>2013-05-02T12:19:24Z</time>
      </trkpt>
      <trkpt lat="47.72325" lon="-2.74524">
        <ele>102</ele>
        <time>2013-05-02T12:19:25Z</time>
      </trkpt>
      <trkpt lat="47.72327" lon="-2.7452">
        <ele>102</ele>
        <time>2013-05-02T12:19:26Z</time>
      </trkpt>
      <trkpt lat="47.72329" lon="-2.74516">
        <ele>102</ele>
        <time>2013-05-02T12:19:27Z</time>
      </trkpt>
      <trkpt lat="47.72331" lon="-2.74512">
        <ele>102</ele>
        <time>2013-05-02T12:19:28Z</time>
      </trkpt>
      <trkpt lat="47.72334" lon="-2.74508">
        <ele>102</ele>
        <time>2013-05-02T12:19:29Z</time>
      </trkpt>
      <trkpt lat="47.72336" lon="-2.74504">
        <ele>102</ele>
        <time>2013-05-02T12:19:30Z</time>
      </trkpt>
      <trkpt lat="47.72337" lon="-2.74499">
        <ele>103</ele>
        <time>2013-05-02T12:19:31Z</time>
      </trkpt>
      <trkpt lat="47.72337" lon="-2.74495">
        <ele>103</ele>
        <time>2013-05-02T12:19:32Z</time>
      </trkpt>
      <trkpt lat="47.72335" lon="-2.7449">
        <ele>103</ele>
        <time>2013-05-02T12:19:33Z</time>
      </trkpt>
      <trkpt lat="47.72333" lon="-2.74486">
        <ele>103</ele>
        <time>2013-05-02T12:19:34Z</time>
      </trkpt>
      <trkpt lat="47.7233" lon="-2.74483">
        <ele>103</ele>
        <time>2013-05-02T12:19:35Z</time>
      </trkpt>
      <trkpt lat="47.72327" lon="-2.74483">
        <ele>103</ele>
        <time>2013-05-02T12:19:36Z</time>
      </trkpt>
      <trkpt lat="47.72323" lon="-2.74484">
        <ele>103</ele>
        <time>2013-05-02T12:19:37Z</time>
      </trkpt>
      <trkpt lat="47.72319" lon="-2.74486">
        <ele>103</ele>
        <time>2013-05-02T12:19:38Z</time>
      </trkpt>
      <trkpt lat="47.72315" lon="-2.74488">
        <ele>103</ele>
        <time>2013-05-02T12:19:39Z</time>
      </trkpt>
      <trkpt lat="47.72312" lon="-2.7449">
        <ele>103</ele>
        <time>2013-05-02T12:19:40Z</time>
      </trkpt>
      <trkpt lat="47.72308" lon="-2.74492">
        <ele>103</ele>
        <time>2013-05-02T12:19:41Z</time>
      </trkpt>
      <trkpt lat="47.72305" lon="-2.74494">
        <ele>103</ele>
        <time>2013-05-02T12:19:42Z</time>
      </trkpt>
      <trkpt lat="47.723" lon="-2.74496">
        <ele>103</ele>
        <time>2013-05-02T12:19:43Z</time>
      </trkpt>
      <trkpt lat="47.72296" lon="-2.74497">
        <ele>103</ele>
        <time>2013-05-02T12:19:44Z</time>
      </trkpt>
      <trkpt lat="47.72292" lon="-2.74498">
        <ele>103</ele>
        <time>2013-05-02T12:19:45Z</time>
      </trkpt>
      <trkpt lat="47.72287" lon="-2.745">
        <ele>103</ele>
        <time>2013-05-02T12:19:46Z</time>
      </trkpt>
      <trkpt lat="47.72283" lon="-2.74501">
        <ele>103</ele>
        <time>2013-05-02T12:19:47Z</time>
      </trkpt>
      <trkpt lat="47.72279" lon="-2.74502">
        <ele>103</ele>
        <time>2013-05-02T12:19:48Z</time>
      </trkpt>
      <trkpt lat="47.72276" lon="-2.74504">
        <ele>103</ele>
        <time>2013-05-02T12:19:49Z</time>
      </trkpt>
      <trkpt lat="47.72271" lon="-2.74507">
        <ele>103</ele>
        <time>2013-05-02T12:19:50Z</time>
      </trkpt>
      <trkpt lat="47.72265" lon="-2.74509">
        <ele>103</ele>
        <time>2013-05-02T12:19:51Z</time>
      </trkpt>
      <trkpt lat="47.7226" lon="-2.74511">
        <ele>103</ele>
        <time>2013-05-02T12:19:52Z</time>
      </trkpt>
      <trkpt lat="47.72254" lon="-2.74514">
        <ele>103</ele>
        <time>2013-05-02T12:19:53Z</time>
      </trkpt>
      <trkpt lat="47.72248" lon="-2.74517">
        <ele>103</ele>
        <time>2013-05-02T12:19:54Z</time>
      </trkpt>
      <trkpt lat="47.72243" lon="-2.7452">
        <ele>103</ele>
        <time>2013-05-02T12:19:55Z</time>
      </trkpt>
      <trkpt lat="47.72239" lon="-2.74522">
        <ele>103</ele>
        <time>2013-05-02T12:19:56Z</time>
      </trkpt>
      <trkpt lat="47.72235" lon="-2.74525">
        <ele>103</ele>
        <time>2013-05-02T12:19:57Z</time>
      </trkpt>
      <trkpt lat="47.7223" lon="-2.74528">
        <ele>103</ele>
        <time>2013-05-02T12:19:58Z</time>
      </trkpt>
      <trkpt lat="47.72226" lon="-2.74531">
        <ele>103</ele>
        <time>2013-05-02T12:19:59Z</time>
      </trkpt>
      <trkpt lat="47.72223" lon="-2.74534">
        <ele>103</ele>
        <time>2013-05-02T12:20:00Z</time>
      </trkpt>
      <trkpt lat="47.72218" lon="-2.74536">
        <ele>103</ele>
        <time>2013-05-02T12:20:01Z</time>
      </trkpt>
      <trkpt lat="47.72214" lon="-2.74539">
        <ele>102</ele>
        <time>2013-05-02T12:20:02Z</time>
      </trkpt>
      <trkpt lat="47.72211" lon="-2.74543">
        <ele>102</ele>
        <time>2013-05-02T12:20:03Z</time>
      </trkpt>
      <trkpt lat="47.72207" lon="-2.74545">
        <ele>102</ele>
        <time>2013-05-02T12:20:04Z</time>
      </trkpt>
      <trkpt lat="47.72203" lon="-2.74548">
        <ele>102</ele>
        <time>2013-05-02T12:20:05Z</time>
      </trkpt>
      <trkpt lat="47.72198" lon="-2.7455">
        <ele>102</ele>
        <time>2013-05-02T12:20:06Z</time>
      </trkpt>
      <trkpt lat="47.72193" lon="-2.74553">
        <ele>102</ele>
        <time>2013-05-02T12:20:07Z</time>
      </trkpt>
      <trkpt lat="47.72189" lon="-2.74556">
        <ele>102</ele>
        <time>2013-05-02T12:20:08Z</time>
      </trkpt>
      <trkpt lat="47.72184" lon="-2.74558">
        <ele>102</ele>
        <time>2013-05-02T12:20:09Z</time>
      </trkpt>
      <trkpt lat="47.72179" lon="-2.7456">
        <ele>102</ele>
        <time>2013-05-02T12:20:10Z</time>
      </trkpt>
      <trkpt lat="47.72173" lon="-2.74562">
        <ele>102</ele>
        <time>2013-05-02T12:20:11Z</time>
      </trkpt>
      <trkpt lat="47.72168" lon="-2.74563">
        <ele>102</ele>
        <time>2013-05-02T12:20:12Z</time>
      </trkpt>
      <trkpt lat="47.72163" lon="-2.74564">
        <ele>102</ele>
        <time>2013-05-02T12:20:13Z</time>
      </trkpt>
      <trkpt lat="47.72157" lon="-2.74566">
        <ele>102</ele>
        <time>2013-05-02T12:20:14Z</time>
      </trkpt>
      <trkpt lat="47.72151" lon="-2.74566">
        <ele>102</ele>
        <time>2013-05-02T12:20:15Z</time>
      </trkpt>
      <trkpt lat="47.72145" lon="-2.74566">
        <ele>102</ele>
        <time>2013-05-02T12:20:16Z</time>
      </trkpt>
      <trkpt lat="47.7214" lon="-2.74564">
        <ele>102</ele>
        <time>2013-05-02T12:20:17Z</time>
      </trkpt>
      <trkpt lat="47.72134" lon="-2.74563">
        <ele>102</ele>
        <time>2013-05-02T12:20:18Z</time>
      </trkpt>
      <trkpt lat="47.72128" lon="-2.74562">
        <ele>102</ele>
        <time>2013-05-02T12:20:19Z</time>
      </trkpt>
      <trkpt lat="47.72122" lon="-2.7456">
        <ele>102</ele>
        <time>2013-05-02T12:20:20Z</time>
      </trkpt>
      <trkpt lat="47.72115" lon="-2.74559">
        <ele>102</ele>
        <time>2013-05-02T12:20:21Z</time>
      </trkpt>
      <trkpt lat="47.7211" lon="-2.74556">
        <ele>102</ele>
        <time>2013-05-02T12:20:22Z</time>
      </trkpt>
      <trkpt lat="47.72105" lon="-2.74551">
        <ele>102</ele>
        <time>2013-05-02T12:20:23Z</time>
      </trkpt>
      <trkpt lat="47.721" lon="-2.74546">
        <ele>102</ele>
        <time>2013-05-02T12:20:24Z</time>
      </trkpt>
      <trkpt lat="47.72096" lon="-2.74541">
        <ele>101</ele>
        <time>2013-05-02T12:20:25Z</time>
      </trkpt>
      <trkpt lat="47.72091" lon="-2.74535">
        <ele>101</ele>
        <time>2013-05-02T12:20:26Z</time>
      </trkpt>
      <trkpt lat="47.72086" lon="-2.74529">
        <ele>101</ele>
        <time>2013-05-02T12:20:27Z</time>
      </trkpt>
      <trkpt lat="47.72082" lon="-2.74523">
        <ele>100</ele>
        <time>2013-05-02T12:20:28Z</time>
      </trkpt>
      <trkpt lat="47.72078" lon="-2.74517">
        <ele>100</ele>
        <time>2013-05-02T12:20:29Z</time>
      </trkpt>
      <trkpt lat="47.72075" lon="-2.7451">
        <ele>100</ele>
        <time>2013-05-02T12:20:30Z</time>
      </trkpt>
      <trkpt lat="47.72071" lon="-2.74502">
        <ele>100</ele>
        <time>2013-05-02T12:20:31Z</time>
      </trkpt>
      <trkpt lat="47.72067" lon="-2.74496">
        <ele>100</ele>
        <time>2013-05-02T12:20:32Z</time>
      </trkpt>
      <trkpt lat="47.72064" lon="-2.7449">
        <ele>100</ele>
        <time>2013-05-02T12:20:33Z</time>
      </trkpt>
      <trkpt lat="47.72062" lon="-2.74484">
        <ele>100</ele>
        <time>2013-05-02T12:20:34Z</time>
      </trkpt>
      <trkpt lat="47.7206" lon="-2.74476">
        <ele>100</ele>
        <time>2013-05-02T12:20:35Z</time>
      </trkpt>
      <trkpt lat="47.72058" lon="-2.74469">
        <ele>99</ele>
        <time>2013-05-02T12:20:36Z</time>
      </trkpt>
      <trkpt lat="47.72057" lon="-2.74461">
        <ele>99</ele>
        <time>2013-05-02T12:20:37Z</time>
      </trkpt>
      <trkpt lat="47.72055" lon="-2.74453">
        <ele>99</ele>
        <time>2013-05-02T12:20:38Z</time>
      </trkpt>
      <trkpt lat="47.72055" lon="-2.74444">
        <ele>98</ele>
        <time>2013-05-02T12:20:39Z</time>
      </trkpt>
      <trkpt lat="47.72055" lon="-2.74436">
        <ele>98</ele>
        <time>2013-05-02T12:20:40Z</time>
      </trkpt>
      <trkpt lat="47.72054" lon="-2.74428">
        <ele>98</ele>
        <time>2013-05-02T12:20:41Z</time>
      </trkpt>
      <trkpt lat="47.72054" lon="-2.74419">
        <ele>98</ele>
        <time>2013-05-02T12:20:42Z</time>
      </trkpt>
      <trkpt lat="47.72055" lon="-2.74411">
        <ele>98</ele>
        <time>2013-05-02T12:20:43Z</time>
      </trkpt>
      <trkpt lat="47.72055" lon="-2.74403">
        <ele>97</ele>
        <time>2013-05-02T12:20:44Z</time>
      </trkpt>
      <trkpt lat="47.72054" lon="-2.74396">
        <ele>97</ele>
        <time>2013-05-02T12:20:45Z</time>
      </trkpt>
      <trkpt lat="47.72054" lon="-2.74388">
        <ele>97</ele>
        <time>2013-05-02T12:20:46Z</time>
      </trkpt>
      <trkpt lat="47.72052" lon="-2.7438">
        <ele>97</ele>
        <time>2013-05-02T12:20:47Z</time>
      </trkpt>
      <trkpt lat="47.72051" lon="-2.74371">
        <ele>97</ele>
        <time>2013-05-02T12:20:48Z</time>
      </trkpt>
      <trkpt lat="47.7205" lon="-2.74362">
        <ele>97</ele>
        <time>2013-05-02T12:20:49Z</time>
      </trkpt>
      <trkpt lat="47.72049" lon="-2.74353">
        <ele>97</ele>
        <time>2013-05-02T12:20:50Z</time>
      </trkpt>
      <trkpt lat="47.72049" lon="-2.74343">
        <ele>97</ele>
        <time>2013-05-02T12:20:51Z</time>
      </trkpt>
      <trkpt lat="47.72049" lon="-2.74335">
        <ele>97</ele>
        <time>2013-05-02T12:20:52Z</time>
      </trkpt>
      <trkpt lat="47.72048" lon="-2.74326">
        <ele>96</ele>
        <time>2013-05-02T12:20:53Z</time>
      </trkpt>
      <trkpt lat="47.72048" lon="-2.74318">
        <ele>96</ele>
        <time>2013-05-02T12:20:54Z</time>
      </trkpt>
      <trkpt lat="47.72047" lon="-2.74309">
        <ele>96</ele>
        <time>2013-05-02T12:20:55Z</time>
      </trkpt>
      <trkpt lat="47.72046" lon="-2.743">
        <ele>96</ele>
        <time>2013-05-02T12:20:56Z</time>
      </trkpt>
      <trkpt lat="47.72046" lon="-2.74291">
        <ele>96</ele>
        <time>2013-05-02T12:20:57Z</time>
      </trkpt>
      <trkpt lat="47.72045" lon="-2.74283">
        <ele>96</ele>
        <time>2013-05-02T12:20:58Z</time>
      </trkpt>
      <trkpt lat="47.72044" lon="-2.74275">
        <ele>96</ele>
        <time>2013-05-02T12:20:59Z</time>
      </trkpt>
      <trkpt lat="47.72043" lon="-2.74267">
        <ele>96</ele>
        <time>2013-05-02T12:21:00Z</time>
      </trkpt>
      <trkpt lat="47.72042" lon="-2.7426">
        <ele>96</ele>
        <time>2013-05-02T12:21:01Z</time>
      </trkpt>
      <trkpt lat="47.72041" lon="-2.74254">
        <ele>96</ele>
        <time>2013-05-02T12:21:02Z</time>
      </trkpt>
      <trkpt lat="47.72041" lon="-2.74247">
        <ele>96</ele>
        <time>2013-05-02T12:21:03Z</time>
      </trkpt>
      <trkpt lat="47.72041" lon="-2.7424">
        <ele>96</ele>
        <time>2013-05-02T12:21:04Z</time>
      </trkpt>
      <trkpt lat="47.72039" lon="-2.74234">
        <ele>96</ele>
        <time>2013-05-02T12:21:05Z</time>
      </trkpt>
      <trkpt lat="47.72036" lon="-2.74227">
        <ele>96</ele>
        <time>2013-05-02T12:21:06Z</time>
      </trkpt>
      <trkpt lat="47.72033" lon="-2.74221">
        <ele>96</ele>
        <time>2013-05-02T12:21:07Z</time>
      </trkpt>
      <trkpt lat="47.72029" lon="-2.74215">
        <ele>96</ele>
        <time>2013-05-02T12:21:08Z</time>
      </trkpt>
      <trkpt lat="47.72026" lon="-2.74209">
        <ele>96</ele>
        <time>2013-05-02T12:21:09Z</time>
      </trkpt>
      <trkpt lat="47.72022" lon="-2.74203">
        <ele>96</ele>
        <time>2013-05-02T12:21:10Z</time>
      </trkpt>
      <trkpt lat="47.72018" lon="-2.74197">
        <ele>96</ele>
        <time>2013-05-02T12:21:11Z</time>
      </trkpt>
      <trkpt lat="47.72014" lon="-2.74192">
        <ele>96</ele>
        <time>2013-05-02T12:21:12Z</time>
      </trkpt>
      <trkpt lat="47.7201" lon="-2.74187">
        <ele>96</ele>
        <time>2013-05-02T12:21:13Z</time>
      </trkpt>
      <trkpt lat="47.72004" lon="-2.74182">
        <ele>96</ele>
        <time>2013-05-02T12:21:14Z</time>
      </trkpt>
      <trkpt lat="47.71999" lon="-2.74177">
        <ele>96</ele>
        <time>2013-05-02T12:21:15Z</time>
      </trkpt>
      <trkpt lat="47.71994" lon="-2.74171">
        <ele>96</ele>
        <time>2013-05-02T12:21:16Z</time>
      </trkpt>
      <trkpt lat="47.71989" lon="-2.74166">
        <ele>96</ele>
        <time>2013-05-02T12:21:17Z</time>
      </trkpt>
      <trkpt lat="47.71984" lon="-2.74161">
        <ele>96</ele>
        <time>2013-05-02T12:21:18Z</time>
      </trkpt>
      <trkpt lat="47.71979" lon="-2.74158">
        <ele>96</ele>
        <time>2013-05-02T12:21:19Z</time>
      </trkpt>
      <trkpt lat="47.71973" lon="-2.74157">
        <ele>96</ele>
        <time>2013-05-02T12:21:20Z</time>
      </trkpt>
      <trkpt lat="47.71968" lon="-2.74157">
        <ele>96</ele>
        <time>2013-05-02T12:21:21Z</time>
      </trkpt>
      <trkpt lat="47.71962" lon="-2.74158">
        <ele>96</ele>
        <time>2013-05-02T12:21:22Z</time>
      </trkpt>
      <trkpt lat="47.71957" lon="-2.74158">
        <ele>96</ele>
        <time>2013-05-02T12:21:23Z</time>
      </trkpt>
      <trkpt lat="47.71951" lon="-2.74159">
        <ele>96</ele>
        <time>2013-05-02T12:21:24Z</time>
      </trkpt>
      <trkpt lat="47.71946" lon="-2.74159">
        <ele>96</ele>
        <time>2013-05-02T12:21:25Z</time>
      </trkpt>
      <trkpt lat="47.71941" lon="-2.74159">
        <ele>96</ele>
        <time>2013-05-02T12:21:26Z</time>
      </trkpt>
      <trkpt lat="47.71936" lon="-2.74161">
        <ele>96</ele>
        <time>2013-05-02T12:21:27Z</time>
      </trkpt>
      <trkpt lat="47.7193" lon="-2.74164">
        <ele>96</ele>
        <time>2013-05-02T12:21:28Z</time>
      </trkpt>
      <trkpt lat="47.71925" lon="-2.74166">
        <ele>96</ele>
        <time>2013-05-02T12:21:29Z</time>
      </trkpt>
      <trkpt lat="47.7192" lon="-2.74169">
        <ele>96</ele>
        <time>2013-05-02T12:21:30Z</time>
      </trkpt>
      <trkpt lat="47.71915" lon="-2.74173">
        <ele>96</ele>
        <time>2013-05-02T12:21:31Z</time>
      </trkpt>
      <trkpt lat="47.71911" lon="-2.74176">
        <ele>96</ele>
        <time>2013-05-02T12:21:32Z</time>
      </trkpt>
      <trkpt lat="47.71906" lon="-2.7418">
        <ele>96</ele>
        <time>2013-05-02T12:21:33Z</time>
      </trkpt>
      <trkpt lat="47.71901" lon="-2.74183">
        <ele>96</ele>
        <time>2013-05-02T12:21:34Z</time>
      </trkpt>
      <trkpt lat="47.71896" lon="-2.74188">
        <ele>96</ele>
        <time>2013-05-02T12:21:35Z</time>
      </trkpt>
      <trkpt lat="47.71893" lon="-2.74193">
        <ele>96</ele>
        <time>2013-05-02T12:21:36Z</time>
      </trkpt>
      <trkpt lat="47.71889" lon="-2.74199">
        <ele>96</ele>
        <time>2013-05-02T12:21:37Z</time>
      </trkpt>
      <trkpt lat="47.71886" lon="-2.74205">
        <ele>96</ele>
        <time>2013-05-02T12:21:38Z</time>
      </trkpt>
      <trkpt lat="47.71883" lon="-2.74212">
        <ele>96</ele>
        <time>2013-05-02T12:21:39Z</time>
      </trkpt>
      <trkpt lat="47.7188" lon="-2.74219">
        <ele>96</ele>
        <time>2013-05-02T12:21:40Z</time>
      </trkpt>
      <trkpt lat="47.71877" lon="-2.74227">
        <ele>96</ele>
        <time>2013-05-02T12:21:41Z</time>
      </trkpt>
      <trkpt lat="47.71876" lon="-2.74235">
        <ele>96</ele>
        <time>2013-05-02T12:21:42Z</time>
      </trkpt>
      <trkpt lat="47.71874" lon="-2.74244">
        <ele>96</ele>
        <time>2013-05-02T12:21:43Z</time>
      </trkpt>
      <trkpt lat="47.71872" lon="-2.74251">
        <ele>96</ele>
        <time>2013-05-02T12:21:44Z</time>
      </trkpt>
      <trkpt lat="47.71869" lon="-2.74255">
        <ele>96</ele>
        <time>2013-05-02T12:21:45Z</time>
      </trkpt>
      <trkpt lat="47.71865" lon="-2.74259">
        <ele>96</ele>
        <time>2013-05-02T12:21:46Z</time>
      </trkpt>
      <trkpt lat="47.71862" lon="-2.74265">
        <ele>96</ele>
        <time>2013-05-02T12:21:47Z</time>
      </trkpt>
      <trkpt lat="47.7186" lon="-2.74271">
        <ele>96</ele>
        <time>2013-05-02T12:21:48Z</time>
      </trkpt>
      <trkpt lat="47.71861" lon="-2.74277">
        <ele>96</ele>
        <time>2013-05-02T12:21:49Z</time>
      </trkpt>
      <trkpt lat="47.71861" lon="-2.74284">
        <ele>96</ele>
        <time>2013-05-02T12:21:50Z</time>
      </trkpt>
      <trkpt lat="47.71862" lon="-2.7429">
        <ele>96</ele>
        <time>2013-05-02T12:21:51Z</time>
      </trkpt>
      <trkpt lat="47.71862" lon="-2.74297">
        <ele>96</ele>
        <time>2013-05-02T12:21:52Z</time>
      </trkpt>
      <trkpt lat="47.71864" lon="-2.74304">
        <ele>96</ele>
        <time>2013-05-02T12:21:53Z</time>
      </trkpt>
      <trkpt lat="47.71865" lon="-2.74312">
        <ele>96</ele>
        <time>2013-05-02T12:21:54Z</time>
      </trkpt>
      <trkpt lat="47.71867" lon="-2.7432">
        <ele>96</ele>
        <time>2013-05-02T12:21:55Z</time>
      </trkpt>
      <trkpt lat="47.7187" lon="-2.74328">
        <ele>96</ele>
        <time>2013-05-02T12:21:56Z</time>
      </trkpt>
      <trkpt lat="47.71872" lon="-2.74336">
        <ele>96</ele>
        <time>2013-05-02T12:21:57Z</time>
      </trkpt>
      <trkpt lat="47.71874" lon="-2.74344">
        <ele>96</ele>
        <time>2013-05-02T12:21:58Z</time>
      </trkpt>
      <trkpt lat="47.71876" lon="-2.74353">
        <ele>96</ele>
        <time>2013-05-02T12:21:59Z</time>
      </trkpt>
      <trkpt lat="47.71878" lon="-2.7436">
        <ele>96</ele>
        <time>2013-05-02T12:22:00Z</time>
      </trkpt>
      <trkpt lat="47.71881" lon="-2.74368">
        <ele>96</ele>
        <time>2013-05-02T12:22:01Z</time>
      </trkpt>
      <trkpt lat="47.71884" lon="-2.74376">
        <ele>96</ele>
        <time>2013-05-02T12:22:02Z</time>
      </trkpt>
      <trkpt lat="47.71886" lon="-2.74384">
        <ele>96</ele>
        <time>2013-05-02T12:22:03Z</time>
      </trkpt>
      <trkpt lat="47.71889" lon="-2.74393">
        <ele>96</ele>
        <time>2013-05-02T12:22:04Z</time>
      </trkpt>
      <trkpt lat="47.71891" lon="-2.74401">
        <ele>96</ele>
        <time>2013-05-02T12:22:05Z</time>
      </trkpt>
      <trkpt lat="47.71893" lon="-2.74409">
        <ele>96</ele>
        <time>2013-05-02T12:22:06Z</time>
      </trkpt>
      <trkpt lat="47.71894" lon="-2.74418">
        <ele>96</ele>
        <time>2013-05-02T12:22:07Z</time>
      </trkpt>
      <trkpt lat="47.71894" lon="-2.74428">
        <ele>96</ele>
        <time>2013-05-02T12:22:08Z</time>
      </trkpt>
      <trkpt lat="47.71894" lon="-2.74437">
        <ele>96</ele>
        <time>2013-05-02T12:22:09Z</time>
      </trkpt>
      <trkpt lat="47.71893" lon="-2.74446">
        <ele>96</ele>
        <time>2013-05-02T12:22:10Z</time>
      </trkpt>
      <trkpt lat="47.71893" lon="-2.74455">
        <ele>96</ele>
        <time>2013-05-02T12:22:11Z</time>
      </trkpt>
      <trkpt lat="47.71893" lon="-2.74465">
        <ele>96</ele>
        <time>2013-05-02T12:22:12Z</time>
      </trkpt>
      <trkpt lat="47.71891" lon="-2.74474">
        <ele>96</ele>
        <time>2013-05-02T12:22:13Z</time>
      </trkpt>
      <trkpt lat="47.7189" lon="-2.74484">
        <ele>96</ele>
        <time>2013-05-02T12:22:14Z</time>
      </trkpt>
      <trkpt lat="47.71888" lon="-2.74493">
        <ele>96</ele>
        <time>2013-05-02T12:22:15Z</time>
      </trkpt>
      <trkpt lat="47.71886" lon="-2.74501">
        <ele>96</ele>
        <time>2013-05-02T12:22:16Z</time>
      </trkpt>
      <trkpt lat="47.71883" lon="-2.74509">
        <ele>96</ele>
        <time>2013-05-02T12:22:17Z</time>
      </trkpt>
      <trkpt lat="47.71881" lon="-2.74517">
        <ele>96</ele>
        <time>2013-05-02T12:22:18Z</time>
      </trkpt>
      <trkpt lat="47.71878" lon="-2.74525">
        <ele>96</ele>
        <time>2013-05-02T12:22:19Z</time>
      </trkpt>
      <trkpt lat="47.71874" lon="-2.74532">
        <ele>96</ele>
        <time>2013-05-02T12:22:20Z</time>
      </trkpt>
      <trkpt lat="47.71872" lon="-2.7454">
        <ele>95</ele>
        <time>2013-05-02T12:22:21Z</time>
      </trkpt>
      <trkpt lat="47.71869" lon="-2.74548">
        <ele>95</ele>
        <time>2013-05-02T12:22:22Z</time>
      </trkpt>
      <trkpt lat="47.71867" lon="-2.74557">
        <ele>94</ele>
        <time>2013-05-02T12:22:23Z</time>
      </trkpt>
      <trkpt lat="47.71866" lon="-2.74566">
        <ele>93</ele>
        <time>2013-05-02T12:22:24Z</time>
      </trkpt>
      <trkpt lat="47.71864" lon="-2.74575">
        <ele>93</ele>
        <time>2013-05-02T12:22:25Z</time>
      </trkpt>
      <trkpt lat="47.71863" lon="-2.74585">
        <ele>93</ele>
        <time>2013-05-02T12:22:26Z</time>
      </trkpt>
      <trkpt lat="47.71863" lon="-2.74594">
        <ele>92</ele>
        <time>2013-05-02T12:22:27Z</time>
      </trkpt>
      <trkpt lat="47.71862" lon="-2.74604">
        <ele>92</ele>
        <time>2013-05-02T12:22:28Z</time>
      </trkpt>
      <trkpt lat="47.71862" lon="-2.74614">
        <ele>92</ele>
        <time>2013-05-02T12:22:29Z</time>
      </trkpt>
      <trkpt lat="47.71863" lon="-2.74623">
        <ele>91</ele>
        <time>2013-05-02T12:22:30Z</time>
      </trkpt>
      <trkpt lat="47.71863" lon="-2.74631">
        <ele>91</ele>
        <time>2013-05-02T12:22:31Z</time>
      </trkpt>
      <trkpt lat="47.71864" lon="-2.7464">
        <ele>90</ele>
        <time>2013-05-02T12:22:32Z</time>
      </trkpt>
      <trkpt lat="47.71864" lon="-2.74647">
        <ele>90</ele>
        <time>2013-05-02T12:22:33Z</time>
      </trkpt>
      <trkpt lat="47.71862" lon="-2.74654">
        <ele>90</ele>
        <time>2013-05-02T12:22:34Z</time>
      </trkpt>
      <trkpt lat="47.71861" lon="-2.7466">
        <ele>89</ele>
        <time>2013-05-02T12:22:35Z</time>
      </trkpt>
      <trkpt lat="47.71858" lon="-2.74666">
        <ele>89</ele>
        <time>2013-05-02T12:22:36Z</time>
      </trkpt>
      <trkpt lat="47.71855" lon="-2.74671">
        <ele>89</ele>
        <time>2013-05-02T12:22:37Z</time>
      </trkpt>
      <trkpt lat="47.71852" lon="-2.74675">
        <ele>89</ele>
        <time>2013-05-02T12:22:38Z</time>
      </trkpt>
      <trkpt lat="47.7185" lon="-2.74679">
        <ele>89</ele>
        <time>2013-05-02T12:22:39Z</time>
      </trkpt>
      <trkpt lat="47.71846" lon="-2.74685">
        <ele>89</ele>
        <time>2013-05-02T12:22:40Z</time>
      </trkpt>
      <trkpt lat="47.71841" lon="-2.74691">
        <ele>89</ele>
        <time>2013-05-02T12:22:41Z</time>
      </trkpt>
      <trkpt lat="47.71835" lon="-2.74695">
        <ele>89</ele>
        <time>2013-05-02T12:22:42Z</time>
      </trkpt>
      <trkpt lat="47.7183" lon="-2.74698">
        <ele>89</ele>
        <time>2013-05-02T12:22:43Z</time>
      </trkpt>
      <trkpt lat="47.71823" lon="-2.747">
        <ele>89</ele>
        <time>2013-05-02T12:22:44Z</time>
      </trkpt>
      <trkpt lat="47.71818" lon="-2.74701">
        <ele>89</ele>
        <time>2013-05-02T12:22:45Z</time>
      </trkpt>
      <trkpt lat="47.71812" lon="-2.74703">
        <ele>89</ele>
        <time>2013-05-02T12:22:46Z</time>
      </trkpt>
      <trkpt lat="47.71806" lon="-2.74705">
        <ele>89</ele>
        <time>2013-05-02T12:22:47Z</time>
      </trkpt>
      <trkpt lat="47.71801" lon="-2.74707">
        <ele>89</ele>
        <time>2013-05-02T12:22:48Z</time>
      </trkpt>
      <trkpt lat="47.71796" lon="-2.74707">
        <ele>89</ele>
        <time>2013-05-02T12:22:49Z</time>
      </trkpt>
      <trkpt lat="47.7179" lon="-2.74709">
        <ele>89</ele>
        <time>2013-05-02T12:22:50Z</time>
      </trkpt>
      <trkpt lat="47.71785" lon="-2.74709">
        <ele>89</ele>
        <time>2013-05-02T12:22:51Z</time>
      </trkpt>
      <trkpt lat="47.71778" lon="-2.74709">
        <ele>89</ele>
        <time>2013-05-02T12:22:52Z</time>
      </trkpt>
      <trkpt lat="47.7177" lon="-2.74709">
        <ele>88</ele>
        <time>2013-05-02T12:22:53Z</time>
      </trkpt>
      <trkpt lat="47.71762" lon="-2.74709">
        <ele>87</ele>
        <time>2013-05-02T12:22:54Z</time>
      </trkpt>
      <trkpt lat="47.71755" lon="-2.74708">
        <ele>87</ele>
        <time>2013-05-02T12:22:55Z</time>
      </trkpt>
      <trkpt lat="47.71749" lon="-2.74708">
        <ele>86</ele>
        <time>2013-05-02T12:22:56Z</time>
      </trkpt>
      <trkpt lat="47.71743" lon="-2.74707">
        <ele>86</ele>
        <time>2013-05-02T12:22:57Z</time>
      </trkpt>
      <trkpt lat="47.71738" lon="-2.74706">
        <ele>86</ele>
        <time>2013-05-02T12:22:58Z</time>
      </trkpt>
      <trkpt lat="47.71732" lon="-2.74704">
        <ele>86</ele>
        <time>2013-05-02T12:22:59Z</time>
      </trkpt>
      <trkpt lat="47.71727" lon="-2.74703">
        <ele>86</ele>
        <time>2013-05-02T12:23:00Z</time>
      </trkpt>
      <trkpt lat="47.71721" lon="-2.74703">
        <ele>86</ele>
        <time>2013-05-02T12:23:01Z</time>
      </trkpt>
      <trkpt lat="47.71715" lon="-2.74705">
        <ele>86</ele>
        <time>2013-05-02T12:23:02Z</time>
      </trkpt>
      <trkpt lat="47.71708" lon="-2.74705">
        <ele>86</ele>
        <time>2013-05-02T12:23:03Z</time>
      </trkpt>
      <trkpt lat="47.717" lon="-2.74706">
        <ele>86</ele>
        <time>2013-05-02T12:23:04Z</time>
      </trkpt>
      <trkpt lat="47.71693" lon="-2.74705">
        <ele>86</ele>
        <time>2013-05-02T12:23:05Z</time>
      </trkpt>
      <trkpt lat="47.71687" lon="-2.74706">
        <ele>86</ele>
        <time>2013-05-02T12:23:06Z</time>
      </trkpt>
      <trkpt lat="47.7168" lon="-2.74708">
        <ele>86</ele>
        <time>2013-05-02T12:23:07Z</time>
      </trkpt>
      <trkpt lat="47.71674" lon="-2.7471">
        <ele>86</ele>
        <time>2013-05-02T12:23:08Z</time>
      </trkpt>
      <trkpt lat="47.71668" lon="-2.74712">
        <ele>86</ele>
        <time>2013-05-02T12:23:09Z</time>
      </trkpt>
      <trkpt lat="47.7166" lon="-2.74717">
        <ele>86</ele>
        <time>2013-05-02T12:23:10Z</time>
      </trkpt>
      <trkpt lat="47.71653" lon="-2.74719">
        <ele>86</ele>
        <time>2013-05-02T12:23:11Z</time>
      </trkpt>
      <trkpt lat="47.71646" lon="-2.74723">
        <ele>86</ele>
        <time>2013-05-02T12:23:12Z</time>
      </trkpt>
      <trkpt lat="47.7164" lon="-2.74726">
        <ele>86</ele>
        <time>2013-05-02T12:23:13Z</time>
      </trkpt>
      <trkpt lat="47.71634" lon="-2.74731">
        <ele>86</ele>
        <time>2013-05-02T12:23:14Z</time>
      </trkpt>
      <trkpt lat="47.71627" lon="-2.74736">
        <ele>86</ele>
        <time>2013-05-02T12:23:15Z</time>
      </trkpt>
      <trkpt lat="47.7162" lon="-2.74741">
        <ele>86</ele>
        <time>2013-05-02T12:23:16Z</time>
      </trkpt>
      <trkpt lat="47.71613" lon="-2.74745">
        <ele>85</ele>
        <time>2013-05-02T12:23:17Z</time>
      </trkpt>
      <trkpt lat="47.71606" lon="-2.74749">
        <ele>84</ele>
        <time>2013-05-02T12:23:18Z</time>
      </trkpt>
      <trkpt lat="47.71599" lon="-2.74753">
        <ele>84</ele>
        <time>2013-05-02T12:23:19Z</time>
      </trkpt>
      <trkpt lat="47.71592" lon="-2.74757">
        <ele>84</ele>
        <time>2013-05-02T12:23:20Z</time>
      </trkpt>
      <trkpt lat="47.71587" lon="-2.7476">
        <ele>83</ele>
        <time>2013-05-02T12:23:21Z</time>
      </trkpt>
      <trkpt lat="47.71581" lon="-2.74763">
        <ele>83</ele>
        <time>2013-05-02T12:23:22Z</time>
      </trkpt>
      <trkpt lat="47.71575" lon="-2.74765">
        <ele>82</ele>
        <time>2013-05-02T12:23:23Z</time>
      </trkpt>
      <trkpt lat="47.71571" lon="-2.74766">
        <ele>81</ele>
        <time>2013-05-02T12:23:24Z</time>
      </trkpt>
      <trkpt lat="47.71567" lon="-2.74768">
        <ele>81</ele>
        <time>2013-05-02T12:23:25Z</time>
      </trkpt>
      <trkpt lat="47.71563" lon="-2.74769">
        <ele>80</ele>
        <time>2013-05-02T12:23:26Z</time>
      </trkpt>
      <trkpt lat="47.7156" lon="-2.74771">
        <ele>80</ele>
        <time>2013-05-02T12:23:27Z</time>
      </trkpt>
      <trkpt lat="47.71556" lon="-2.74772">
        <ele>79</ele>
        <time>2013-05-02T12:23:28Z</time>
      </trkpt>
      <trkpt lat="47.71554" lon="-2.74774">
        <ele>79</ele>
        <time>2013-05-02T12:23:29Z</time>
      </trkpt>
      <trkpt lat="47.71552" lon="-2.74776">
        <ele>79</ele>
        <time>2013-05-02T12:23:30Z</time>
      </trkpt>
      <trkpt lat="47.7155" lon="-2.74777">
        <ele>78</ele>
        <time>2013-05-02T12:23:31Z</time>
      </trkpt>
      <trkpt lat="47.71549" lon="-2.74776">
        <ele>78</ele>
        <time>2013-05-02T12:23:33Z</time>
      </trkpt>
      <trkpt lat="47.71552" lon="-2.74775">
        <ele>78</ele>
        <time>2013-05-02T12:23:38Z</time>
      </trkpt>
      <trkpt lat="47.71555" lon="-2.74773">
        <ele>78</ele>
        <time>2013-05-02T12:23:39Z</time>
      </trkpt>
      <trkpt lat="47.71558" lon="-2.74771">
        <ele>78</ele>
        <time>2013-05-02T12:23:40Z</time>
      </trkpt>
      <trkpt lat="47.71561" lon="-2.7477">
        <ele>78</ele>
        <time>2013-05-02T12:23:41Z</time>
      </trkpt>
      <trkpt lat="47.71564" lon="-2.74769">
        <ele>78</ele>
        <time>2013-05-02T12:23:42Z</time>
      </trkpt>
      <trkpt lat="47.71568" lon="-2.74767">
        <ele>78</ele>
        <time>2013-05-02T12:23:43Z</time>
      </trkpt>
      <trkpt lat="47.71572" lon="-2.74766">
        <ele>78</ele>
        <time>2013-05-02T12:23:44Z</time>
      </trkpt>
      <trkpt lat="47.71575" lon="-2.74764">
        <ele>78</ele>
        <time>2013-05-02T12:23:45Z</time>
      </trkpt>
      <trkpt lat="47.71577" lon="-2.74765">
        <ele>78</ele>
        <time>2013-05-02T12:23:46Z</time>
      </trkpt>
      <trkpt lat="47.71579" lon="-2.74768">
        <ele>78</ele>
        <time>2013-05-02T12:23:48Z</time>
      </trkpt>
      <trkpt lat="47.71581" lon="-2.74769">
        <ele>78</ele>
        <time>2013-05-02T12:23:49Z</time>
      </trkpt>
      <trkpt lat="47.71581" lon="-2.74772">
        <ele>78</ele>
        <time>2013-05-02T12:23:50Z</time>
      </trkpt>
      <trkpt lat="47.71581" lon="-2.74773">
        <ele>78</ele>
        <time>2013-05-02T12:23:51Z</time>
      </trkpt>
      <trkpt lat="47.71581" lon="-2.74775">
        <ele>78</ele>
        <time>2013-05-02T12:23:52Z</time>
      </trkpt>
      <trkpt lat="47.7158" lon="-2.74778">
        <ele>78</ele>
        <time>2013-05-02T12:23:53Z</time>
      </trkpt>
      <trkpt lat="47.71579" lon="-2.74781">
        <ele>78</ele>
        <time>2013-05-02T12:23:54Z</time>
      </trkpt>
      <trkpt lat="47.71578" lon="-2.74784">
        <ele>78</ele>
        <time>2013-05-02T12:23:55Z</time>
      </trkpt>
      <trkpt lat="47.71576" lon="-2.74788">
        <ele>78</ele>
        <time>2013-05-02T12:23:56Z</time>
      </trkpt>
      <trkpt lat="47.71575" lon="-2.7479">
        <ele>78</ele>
        <time>2013-05-02T12:23:57Z</time>
      </trkpt>
      <trkpt lat="47.71573" lon="-2.7479">
        <ele>78</ele>
        <time>2013-05-02T12:23:58Z</time>
      </trkpt>
      <trkpt lat="47.71572" lon="-2.74791">
        <ele>78</ele>
        <time>2013-05-02T12:23:59Z</time>
      </trkpt>
      <trkpt lat="47.71571" lon="-2.74793">
        <ele>78</ele>
        <time>2013-05-02T12:24:00Z</time>
      </trkpt>
      <trkpt lat="47.71571" lon="-2.74796">
        <ele>78</ele>
        <time>2013-05-02T12:24:01Z</time>
      </trkpt>
      <trkpt lat="47.71571" lon="-2.74801">
        <ele>78</ele>
        <time>2013-05-02T12:24:02Z</time>
      </trkpt>
      <trkpt lat="47.71571" lon="-2.74806">
        <ele>78</ele>
        <time>2013-05-02T12:24:03Z</time>
      </trkpt>
      <trkpt lat="47.71573" lon="-2.7481">
        <ele>78</ele>
        <time>2013-05-02T12:24:04Z</time>
      </trkpt>
      <trkpt lat="47.71574" lon="-2.74814">
        <ele>78</ele>
        <time>2013-05-02T12:24:05Z</time>
      </trkpt>
      <trkpt lat="47.71574" lon="-2.74818">
        <ele>78</ele>
        <time>2013-05-02T12:24:06Z</time>
      </trkpt>
      <trkpt lat="47.71575" lon="-2.74822">
        <ele>78</ele>
        <time>2013-05-02T12:24:07Z</time>
      </trkpt>
      <trkpt lat="47.71576" lon="-2.74825">
        <ele>78</ele>
        <time>2013-05-02T12:24:08Z</time>
      </trkpt>
      <trkpt lat="47.71576" lon="-2.7483">
        <ele>78</ele>
        <time>2013-05-02T12:24:09Z</time>
      </trkpt>
      <trkpt lat="47.71578" lon="-2.74834">
        <ele>78</ele>
        <time>2013-05-02T12:24:10Z</time>
      </trkpt>
      <trkpt lat="47.71579" lon="-2.74838">
        <ele>78</ele>
        <time>2013-05-02T12:24:11Z</time>
      </trkpt>
      <trkpt lat="47.71579" lon="-2.74843">
        <ele>78</ele>
        <time>2013-05-02T12:24:12Z</time>
      </trkpt>
      <trkpt lat="47.71581" lon="-2.74847">
        <ele>78</ele>
        <time>2013-05-02T12:24:13Z</time>
      </trkpt>
      <trkpt lat="47.71581" lon="-2.7485">
        <ele>77</ele>
        <time>2013-05-02T12:24:14Z</time>
      </trkpt>
      <trkpt lat="47.71582" lon="-2.74854">
        <ele>77</ele>
        <time>2013-05-02T12:24:15Z</time>
      </trkpt>
      <trkpt lat="47.71582" lon="-2.74857">
        <ele>77</ele>
        <time>2013-05-02T12:24:16Z</time>
      </trkpt>
      <trkpt lat="47.71581" lon="-2.74861">
        <ele>76</ele>
        <time>2013-05-02T12:24:17Z</time>
      </trkpt>
      <trkpt lat="47.71582" lon="-2.74864">
        <ele>75</ele>
        <time>2013-05-02T12:24:18Z</time>
      </trkpt>
      <trkpt lat="47.71582" lon="-2.74866">
        <ele>74</ele>
        <time>2013-05-02T12:24:19Z</time>
      </trkpt>
      <trkpt lat="47.71582" lon="-2.74868">
        <ele>74</ele>
        <time>2013-05-02T12:24:20Z</time>
      </trkpt>
      <trkpt lat="47.71581" lon="-2.7487">
        <ele>74</ele>
        <time>2013-05-02T12:24:21Z</time>
      </trkpt>
      <trkpt lat="47.71579" lon="-2.74871">
        <ele>74</ele>
        <time>2013-05-02T12:24:22Z</time>
      </trkpt>
      <trkpt lat="47.71577" lon="-2.74872">
        <ele>74</ele>
        <time>2013-05-02T12:24:23Z</time>
      </trkpt>
      <trkpt lat="47.71574" lon="-2.74874">
        <ele>74</ele>
        <time>2013-05-02T12:24:24Z</time>
      </trkpt>
      <trkpt lat="47.71571" lon="-2.74875">
        <ele>73</ele>
        <time>2013-05-02T12:24:25Z</time>
      </trkpt>
      <trkpt lat="47.71568" lon="-2.74876">
        <ele>73</ele>
        <time>2013-05-02T12:24:26Z</time>
      </trkpt>
      <trkpt lat="47.71564" lon="-2.74878">
        <ele>73</ele>
        <time>2013-05-02T12:24:27Z</time>
      </trkpt>
      <trkpt lat="47.71558" lon="-2.7488">
        <ele>73</ele>
        <time>2013-05-02T12:24:28Z</time>
      </trkpt>
      <trkpt lat="47.71554" lon="-2.74883">
        <ele>73</ele>
        <time>2013-05-02T12:24:29Z</time>
      </trkpt>
      <trkpt lat="47.71549" lon="-2.74885">
        <ele>73</ele>
        <time>2013-05-02T12:24:30Z</time>
      </trkpt>
      <trkpt lat="47.71544" lon="-2.74887">
        <ele>73</ele>
        <time>2013-05-02T12:24:31Z</time>
      </trkpt>
      <trkpt lat="47.71539" lon="-2.7489">
        <ele>73</ele>
        <time>2013-05-02T12:24:32Z</time>
      </trkpt>
      <trkpt lat="47.71533" lon="-2.74893">
        <ele>73</ele>
        <time>2013-05-02T12:24:33Z</time>
      </trkpt>
      <trkpt lat="47.71528" lon="-2.74895">
        <ele>73</ele>
        <time>2013-05-02T12:24:34Z</time>
      </trkpt>
      <trkpt lat="47.71524" lon="-2.74898">
        <ele>73</ele>
        <time>2013-05-02T12:24:35Z</time>
      </trkpt>
      <trkpt lat="47.71519" lon="-2.74902">
        <ele>73</ele>
        <time>2013-05-02T12:24:36Z</time>
      </trkpt>
      <trkpt lat="47.71514" lon="-2.74905">
        <ele>73</ele>
        <time>2013-05-02T12:24:37Z</time>
      </trkpt>
      <trkpt lat="47.71509" lon="-2.74909">
        <ele>73</ele>
        <time>2013-05-02T12:24:38Z</time>
      </trkpt>
      <trkpt lat="47.71503" lon="-2.74912">
        <ele>73</ele>
        <time>2013-05-02T12:24:39Z</time>
      </trkpt>
      <trkpt lat="47.71498" lon="-2.74917">
        <ele>73</ele>
        <time>2013-05-02T12:24:40Z</time>
      </trkpt>
      <trkpt lat="47.71492" lon="-2.74921">
        <ele>73</ele>
        <time>2013-05-02T12:24:41Z</time>
      </trkpt>
      <trkpt lat="47.71487" lon="-2.74925">
        <ele>73</ele>
        <time>2013-05-02T12:24:42Z</time>
      </trkpt>
      <trkpt lat="47.71482" lon="-2.74929">
        <ele>73</ele>
        <time>2013-05-02T12:24:43Z</time>
      </trkpt>
      <trkpt lat="47.71476" lon="-2.74934">
        <ele>73</ele>
        <time>2013-05-02T12:24:44Z</time>
      </trkpt>
      <trkpt lat="47.7147" lon="-2.7494">
        <ele>73</ele>
        <time>2013-05-02T12:24:45Z</time>
      </trkpt>
      <trkpt lat="47.71465" lon="-2.74945">
        <ele>73</ele>
        <time>2013-05-02T12:24:46Z</time>
      </trkpt>
      <trkpt lat="47.7146" lon="-2.7495">
        <ele>73</ele>
        <time>2013-05-02T12:24:47Z</time>
      </trkpt>
      <trkpt lat="47.71455" lon="-2.74956">
        <ele>73</ele>
        <time>2013-05-02T12:24:48Z</time>
      </trkpt>
      <trkpt lat="47.7145" lon="-2.74961">
        <ele>73</ele>
        <time>2013-05-02T12:24:49Z</time>
      </trkpt>
      <trkpt lat="47.71445" lon="-2.74966">
        <ele>73</ele>
        <time>2013-05-02T12:24:50Z</time>
      </trkpt>
      <trkpt lat="47.71441" lon="-2.74972">
        <ele>73</ele>
        <time>2013-05-02T12:24:51Z</time>
      </trkpt>
      <trkpt lat="47.71436" lon="-2.74979">
        <ele>72</ele>
        <time>2013-05-02T12:24:52Z</time>
      </trkpt>
      <trkpt lat="47.71432" lon="-2.74987">
        <ele>71</ele>
        <time>2013-05-02T12:24:53Z</time>
      </trkpt>
      <trkpt lat="47.71429" lon="-2.74995">
        <ele>70</ele>
        <time>2013-05-02T12:24:54Z</time>
      </trkpt>
      <trkpt lat="47.71425" lon="-2.75005">
        <ele>70</ele>
        <time>2013-05-02T12:24:55Z</time>
      </trkpt>
      <trkpt lat="47.71422" lon="-2.75011">
        <ele>70</ele>
        <time>2013-05-02T12:24:56Z</time>
      </trkpt>
      <trkpt lat="47.71418" lon="-2.75017">
        <ele>70</ele>
        <time>2013-05-02T12:24:57Z</time>
      </trkpt>
      <trkpt lat="47.71415" lon="-2.75024">
        <ele>70</ele>
        <time>2013-05-02T12:24:58Z</time>
      </trkpt>
      <trkpt lat="47.71411" lon="-2.7503">
        <ele>70</ele>
        <time>2013-05-02T12:24:59Z</time>
      </trkpt>
      <trkpt lat="47.71407" lon="-2.75037">
        <ele>69</ele>
        <time>2013-05-02T12:25:00Z</time>
      </trkpt>
      <trkpt lat="47.71404" lon="-2.75045">
        <ele>69</ele>
        <time>2013-05-02T12:25:01Z</time>
      </trkpt>
      <trkpt lat="47.714" lon="-2.75054">
        <ele>69</ele>
        <time>2013-05-02T12:25:02Z</time>
      </trkpt>
      <trkpt lat="47.71398" lon="-2.75063">
        <ele>69</ele>
        <time>2013-05-02T12:25:03Z</time>
      </trkpt>
      <trkpt lat="47.71397" lon="-2.75072">
        <ele>69</ele>
        <time>2013-05-02T12:25:04Z</time>
      </trkpt>
      <trkpt lat="47.71394" lon="-2.75083">
        <ele>69</ele>
        <time>2013-05-02T12:25:05Z</time>
      </trkpt>
      <trkpt lat="47.71393" lon="-2.75095">
        <ele>69</ele>
        <time>2013-05-02T12:25:06Z</time>
      </trkpt>
      <trkpt lat="47.71392" lon="-2.75105">
        <ele>69</ele>
        <time>2013-05-02T12:25:07Z</time>
      </trkpt>
      <trkpt lat="47.71391" lon="-2.75114">
        <ele>69</ele>
        <time>2013-05-02T12:25:08Z</time>
      </trkpt>
      <trkpt lat="47.71387" lon="-2.75125">
        <ele>69</ele>
        <time>2013-05-02T12:25:09Z</time>
      </trkpt>
      <trkpt lat="47.71384" lon="-2.75134">
        <ele>69</ele>
        <time>2013-05-02T12:25:10Z</time>
      </trkpt>
      <trkpt lat="47.71382" lon="-2.75144">
        <ele>69</ele>
        <time>2013-05-02T12:25:11Z</time>
      </trkpt>
      <trkpt lat="47.7138" lon="-2.75153">
        <ele>69</ele>
        <time>2013-05-02T12:25:12Z</time>
      </trkpt>
      <trkpt lat="47.71379" lon="-2.75162">
        <ele>69</ele>
        <time>2013-05-02T12:25:13Z</time>
      </trkpt>
      <trkpt lat="47.71378" lon="-2.75168">
        <ele>69</ele>
        <time>2013-05-02T12:25:14Z</time>
      </trkpt>
      <trkpt lat="47.71376" lon="-2.75174">
        <ele>69</ele>
        <time>2013-05-02T12:25:15Z</time>
      </trkpt>
      <trkpt lat="47.71377" lon="-2.75178">
        <ele>69</ele>
        <time>2013-05-02T12:25:16Z</time>
      </trkpt>
      <trkpt lat="47.71375" lon="-2.75183">
        <ele>69</ele>
        <time>2013-05-02T12:25:17Z</time>
      </trkpt>
      <trkpt lat="47.71372" lon="-2.75188">
        <ele>69</ele>
        <time>2013-05-02T12:25:18Z</time>
      </trkpt>
      <trkpt lat="47.7137" lon="-2.75194">
        <ele>69</ele>
        <time>2013-05-02T12:25:19Z</time>
      </trkpt>
      <trkpt lat="47.71367" lon="-2.75199">
        <ele>69</ele>
        <time>2013-05-02T12:25:20Z</time>
      </trkpt>
      <trkpt lat="47.71366" lon="-2.75204">
        <ele>69</ele>
        <time>2013-05-02T12:25:21Z</time>
      </trkpt>
      <trkpt lat="47.71365" lon="-2.75209">
        <ele>69</ele>
        <time>2013-05-02T12:25:22Z</time>
      </trkpt>
      <trkpt lat="47.71364" lon="-2.75214">
        <ele>69</ele>
        <time>2013-05-02T12:25:23Z</time>
      </trkpt>
      <trkpt lat="47.71364" lon="-2.75219">
        <ele>69</ele>
        <time>2013-05-02T12:25:24Z</time>
      </trkpt>
      <trkpt lat="47.71365" lon="-2.75224">
        <ele>69</ele>
        <time>2013-05-02T12:25:25Z</time>
      </trkpt>
      <trkpt lat="47.71366" lon="-2.7523">
        <ele>69</ele>
        <time>2013-05-02T12:25:26Z</time>
      </trkpt>
      <trkpt lat="47.71368" lon="-2.75235">
        <ele>69</ele>
        <time>2013-05-02T12:25:27Z</time>
      </trkpt>
      <trkpt lat="47.71369" lon="-2.75241">
        <ele>69</ele>
        <time>2013-05-02T12:25:28Z</time>
      </trkpt>
      <trkpt lat="47.7137" lon="-2.75247">
        <ele>69</ele>
        <time>2013-05-02T12:25:29Z</time>
      </trkpt>
      <trkpt lat="47.71371" lon="-2.75253">
        <ele>69</ele>
        <time>2013-05-02T12:25:30Z</time>
      </trkpt>
      <trkpt lat="47.71372" lon="-2.75259">
        <ele>69</ele>
        <time>2013-05-02T12:25:31Z</time>
      </trkpt>
      <trkpt lat="47.71373" lon="-2.75265">
        <ele>69</ele>
        <time>2013-05-02T12:25:32Z</time>
      </trkpt>
      <trkpt lat="47.71374" lon="-2.7527">
        <ele>69</ele>
        <time>2013-05-02T12:25:33Z</time>
      </trkpt>
      <trkpt lat="47.71375" lon="-2.75276">
        <ele>69</ele>
        <time>2013-05-02T12:25:34Z</time>
      </trkpt>
      <trkpt lat="47.71376" lon="-2.75283">
        <ele>69</ele>
        <time>2013-05-02T12:25:35Z</time>
      </trkpt>
      <trkpt lat="47.71377" lon="-2.75289">
        <ele>69</ele>
        <time>2013-05-02T12:25:36Z</time>
      </trkpt>
      <trkpt lat="47.71378" lon="-2.75296">
        <ele>69</ele>
        <time>2013-05-02T12:25:37Z</time>
      </trkpt>
      <trkpt lat="47.7138" lon="-2.75304">
        <ele>69</ele>
        <time>2013-05-02T12:25:38Z</time>
      </trkpt>
      <trkpt lat="47.71381" lon="-2.75311">
        <ele>69</ele>
        <time>2013-05-02T12:25:39Z</time>
      </trkpt>
      <trkpt lat="47.71383" lon="-2.75319">
        <ele>69</ele>
        <time>2013-05-02T12:25:40Z</time>
      </trkpt>
      <trkpt lat="47.71384" lon="-2.75326">
        <ele>69</ele>
        <time>2013-05-02T12:25:41Z</time>
      </trkpt>
      <trkpt lat="47.71385" lon="-2.75333">
        <ele>69</ele>
        <time>2013-05-02T12:25:42Z</time>
      </trkpt>
      <trkpt lat="47.71386" lon="-2.75341">
        <ele>69</ele>
        <time>2013-05-02T12:25:43Z</time>
      </trkpt>
      <trkpt lat="47.71388" lon="-2.75348">
        <ele>69</ele>
        <time>2013-05-02T12:25:44Z</time>
      </trkpt>
      <trkpt lat="47.7139" lon="-2.75355">
        <ele>69</ele>
        <time>2013-05-02T12:25:45Z</time>
      </trkpt>
      <trkpt lat="47.71391" lon="-2.75361">
        <ele>69</ele>
        <time>2013-05-02T12:25:46Z</time>
      </trkpt>
      <trkpt lat="47.71392" lon="-2.75368">
        <ele>69</ele>
        <time>2013-05-02T12:25:47Z</time>
      </trkpt>
      <trkpt lat="47.71393" lon="-2.75376">
        <ele>69</ele>
        <time>2013-05-02T12:25:48Z</time>
      </trkpt>
      <trkpt lat="47.71394" lon="-2.75383">
        <ele>69</ele>
        <time>2013-05-02T12:25:49Z</time>
      </trkpt>
      <trkpt lat="47.71394" lon="-2.7539">
        <ele>69</ele>
        <time>2013-05-02T12:25:50Z</time>
      </trkpt>
      <trkpt lat="47.71395" lon="-2.75398">
        <ele>69</ele>
        <time>2013-05-02T12:25:51Z</time>
      </trkpt>
      <trkpt lat="47.71397" lon="-2.75405">
        <ele>69</ele>
        <time>2013-05-02T12:25:52Z</time>
      </trkpt>
      <trkpt lat="47.71398" lon="-2.75412">
        <ele>69</ele>
        <time>2013-05-02T12:25:53Z</time>
      </trkpt>
      <trkpt lat="47.71397" lon="-2.75418">
        <ele>69</ele>
        <time>2013-05-02T12:25:54Z</time>
      </trkpt>
      <trkpt lat="47.71394" lon="-2.75423">
        <ele>69</ele>
        <time>2013-05-02T12:25:55Z</time>
      </trkpt>
      <trkpt lat="47.71391" lon="-2.75427">
        <ele>69</ele>
        <time>2013-05-02T12:25:56Z</time>
      </trkpt>
      <trkpt lat="47.71387" lon="-2.75431">
        <ele>69</ele>
        <time>2013-05-02T12:25:57Z</time>
      </trkpt>
      <trkpt lat="47.71382" lon="-2.75435">
        <ele>68</ele>
        <time>2013-05-02T12:25:58Z</time>
      </trkpt>
      <trkpt lat="47.71377" lon="-2.75438">
        <ele>68</ele>
        <time>2013-05-02T12:25:59Z</time>
      </trkpt>
      <trkpt lat="47.71371" lon="-2.75441">
        <ele>67</ele>
        <time>2013-05-02T12:26:00Z</time>
      </trkpt>
      <trkpt lat="47.71366" lon="-2.75444">
        <ele>67</ele>
        <time>2013-05-02T12:26:01Z</time>
      </trkpt>
      <trkpt lat="47.7136" lon="-2.75446">
        <ele>67</ele>
        <time>2013-05-02T12:26:02Z</time>
      </trkpt>
      <trkpt lat="47.71354" lon="-2.75448">
        <ele>66</ele>
        <time>2013-05-02T12:26:03Z</time>
      </trkpt>
      <trkpt lat="47.71349" lon="-2.7545">
        <ele>66</ele>
        <time>2013-05-02T12:26:04Z</time>
      </trkpt>
      <trkpt lat="47.71343" lon="-2.75451">
        <ele>66</ele>
        <time>2013-05-02T12:26:05Z</time>
      </trkpt>
      <trkpt lat="47.71337" lon="-2.75453">
        <ele>65</ele>
        <time>2013-05-02T12:26:06Z</time>
      </trkpt>
      <trkpt lat="47.71331" lon="-2.75455">
        <ele>65</ele>
        <time>2013-05-02T12:26:07Z</time>
      </trkpt>
      <trkpt lat="47.71325" lon="-2.75456">
        <ele>65</ele>
        <time>2013-05-02T12:26:08Z</time>
      </trkpt>
      <trkpt lat="47.71319" lon="-2.75458">
        <ele>64</ele>
        <time>2013-05-02T12:26:09Z</time>
      </trkpt>
      <trkpt lat="47.71313" lon="-2.7546">
        <ele>64</ele>
        <time>2013-05-02T12:26:10Z</time>
      </trkpt>
      <trkpt lat="47.71307" lon="-2.75462">
        <ele>64</ele>
        <time>2013-05-02T12:26:11Z</time>
      </trkpt>
      <trkpt lat="47.71302" lon="-2.75464">
        <ele>64</ele>
        <time>2013-05-02T12:26:12Z</time>
      </trkpt>
      <trkpt lat="47.71296" lon="-2.75466">
        <ele>64</ele>
        <time>2013-05-02T12:26:13Z</time>
      </trkpt>
      <trkpt lat="47.71291" lon="-2.75468">
        <ele>64</ele>
        <time>2013-05-02T12:26:14Z</time>
      </trkpt>
      <trkpt lat="47.71286" lon="-2.7547">
        <ele>64</ele>
        <time>2013-05-02T12:26:15Z</time>
      </trkpt>
      <trkpt lat="47.71281" lon="-2.75472">
        <ele>64</ele>
        <time>2013-05-02T12:26:16Z</time>
      </trkpt>
      <trkpt lat="47.71275" lon="-2.75475">
        <ele>63</ele>
        <time>2013-05-02T12:26:17Z</time>
      </trkpt>
      <trkpt lat="47.7127" lon="-2.75477">
        <ele>63</ele>
        <time>2013-05-02T12:26:18Z</time>
      </trkpt>
      <trkpt lat="47.71265" lon="-2.75479">
        <ele>63</ele>
        <time>2013-05-02T12:26:19Z</time>
      </trkpt>
      <trkpt lat="47.7126" lon="-2.75482">
        <ele>63</ele>
        <time>2013-05-02T12:26:20Z</time>
      </trkpt>
      <trkpt lat="47.71255" lon="-2.75484">
        <ele>63</ele>
        <time>2013-05-02T12:26:21Z</time>
      </trkpt>
      <trkpt lat="47.7125" lon="-2.75488">
        <ele>63</ele>
        <time>2013-05-02T12:26:22Z</time>
      </trkpt>
      <trkpt lat="47.71245" lon="-2.75493">
        <ele>63</ele>
        <time>2013-05-02T12:26:23Z</time>
      </trkpt>
      <trkpt lat="47.71241" lon="-2.75498">
        <ele>63</ele>
        <time>2013-05-02T12:26:24Z</time>
      </trkpt>
      <trkpt lat="47.71236" lon="-2.75504">
        <ele>63</ele>
        <time>2013-05-02T12:26:25Z</time>
      </trkpt>
      <trkpt lat="47.71233" lon="-2.75512">
        <ele>63</ele>
        <time>2013-05-02T12:26:26Z</time>
      </trkpt>
      <trkpt lat="47.71229" lon="-2.75519">
        <ele>63</ele>
        <time>2013-05-02T12:26:27Z</time>
      </trkpt>
      <trkpt lat="47.71226" lon="-2.75527">
        <ele>63</ele>
        <time>2013-05-02T12:26:28Z</time>
      </trkpt>
      <trkpt lat="47.71223" lon="-2.75534">
        <ele>63</ele>
        <time>2013-05-02T12:26:29Z</time>
      </trkpt>
      <trkpt lat="47.7122" lon="-2.75542">
        <ele>63</ele>
        <time>2013-05-02T12:26:30Z</time>
      </trkpt>
      <trkpt lat="47.71217" lon="-2.7555">
        <ele>62</ele>
        <time>2013-05-02T12:26:31Z</time>
      </trkpt>
      <trkpt lat="47.71214" lon="-2.75558">
        <ele>62</ele>
        <time>2013-05-02T12:26:32Z</time>
      </trkpt>
      <trkpt lat="47.7121" lon="-2.75566">
        <ele>62</ele>
        <time>2013-05-02T12:26:33Z</time>
      </trkpt>
      <trkpt lat="47.71208" lon="-2.75573">
        <ele>62</ele>
        <time>2013-05-02T12:26:34Z</time>
      </trkpt>
      <trkpt lat="47.71205" lon="-2.7558">
        <ele>62</ele>
        <time>2013-05-02T12:26:35Z</time>
      </trkpt>
      <trkpt lat="47.71202" lon="-2.75587">
        <ele>62</ele>
        <time>2013-05-02T12:26:36Z</time>
      </trkpt>
      <trkpt lat="47.71199" lon="-2.75594">
        <ele>62</ele>
        <time>2013-05-02T12:26:37Z</time>
      </trkpt>
      <trkpt lat="47.71196" lon="-2.75601">
        <ele>62</ele>
        <time>2013-05-02T12:26:38Z</time>
      </trkpt>
      <trkpt lat="47.71193" lon="-2.75607">
        <ele>62</ele>
        <time>2013-05-02T12:26:39Z</time>
      </trkpt>
      <trkpt lat="47.71189" lon="-2.75614">
        <ele>62</ele>
        <time>2013-05-02T12:26:40Z</time>
      </trkpt>
      <trkpt lat="47.71185" lon="-2.7562">
        <ele>62</ele>
        <time>2013-05-02T12:26:41Z</time>
      </trkpt>
      <trkpt lat="47.7118" lon="-2.75625">
        <ele>62</ele>
        <time>2013-05-02T12:26:42Z</time>
      </trkpt>
      <trkpt lat="47.71175" lon="-2.75629">
        <ele>62</ele>
        <time>2013-05-02T12:26:43Z</time>
      </trkpt>
      <trkpt lat="47.71169" lon="-2.75633">
        <ele>62</ele>
        <time>2013-05-02T12:26:44Z</time>
      </trkpt>
      <trkpt lat="47.71164" lon="-2.75637">
        <ele>62</ele>
        <time>2013-05-02T12:26:45Z</time>
      </trkpt>
      <trkpt lat="47.71158" lon="-2.75641">
        <ele>62</ele>
        <time>2013-05-02T12:26:46Z</time>
      </trkpt>
      <trkpt lat="47.71153" lon="-2.75644">
        <ele>62</ele>
        <time>2013-05-02T12:26:47Z</time>
      </trkpt>
      <trkpt lat="47.71147" lon="-2.75647">
        <ele>62</ele>
        <time>2013-05-02T12:26:48Z</time>
      </trkpt>
      <trkpt lat="47.71142" lon="-2.75651">
        <ele>62</ele>
        <time>2013-05-02T12:26:49Z</time>
      </trkpt>
      <trkpt lat="47.71137" lon="-2.75654">
        <ele>62</ele>
        <time>2013-05-02T12:26:50Z</time>
      </trkpt>
      <trkpt lat="47.71132" lon="-2.75657">
        <ele>62</ele>
        <time>2013-05-02T12:26:51Z</time>
      </trkpt>
      <trkpt lat="47.71127" lon="-2.75659">
        <ele>62</ele>
        <time>2013-05-02T12:26:52Z</time>
      </trkpt>
      <trkpt lat="47.71121" lon="-2.75662">
        <ele>62</ele>
        <time>2013-05-02T12:26:53Z</time>
      </trkpt>
      <trkpt lat="47.71116" lon="-2.75664">
        <ele>62</ele>
        <time>2013-05-02T12:26:54Z</time>
      </trkpt>
      <trkpt lat="47.71112" lon="-2.75668">
        <ele>62</ele>
        <time>2013-05-02T12:26:55Z</time>
      </trkpt>
      <trkpt lat="47.71107" lon="-2.75673">
        <ele>62</ele>
        <time>2013-05-02T12:26:56Z</time>
      </trkpt>
      <trkpt lat="47.71103" lon="-2.75677">
        <ele>62</ele>
        <time>2013-05-02T12:26:57Z</time>
      </trkpt>
      <trkpt lat="47.71098" lon="-2.75681">
        <ele>62</ele>
        <time>2013-05-02T12:26:58Z</time>
      </trkpt>
      <trkpt lat="47.71093" lon="-2.75685">
        <ele>62</ele>
        <time>2013-05-02T12:26:59Z</time>
      </trkpt>
      <trkpt lat="47.71088" lon="-2.75687">
        <ele>62</ele>
        <time>2013-05-02T12:27:00Z</time>
      </trkpt>
      <trkpt lat="47.71083" lon="-2.7569">
        <ele>62</ele>
        <time>2013-05-02T12:27:01Z</time>
      </trkpt>
      <trkpt lat="47.71078" lon="-2.75692">
        <ele>62</ele>
        <time>2013-05-02T12:27:02Z</time>
      </trkpt>
      <trkpt lat="47.71074" lon="-2.75693">
        <ele>62</ele>
        <time>2013-05-02T12:27:03Z</time>
      </trkpt>
      <trkpt lat="47.71069" lon="-2.75694">
        <ele>62</ele>
        <time>2013-05-02T12:27:04Z</time>
      </trkpt>
      <trkpt lat="47.71064" lon="-2.75694">
        <ele>62</ele>
        <time>2013-05-02T12:27:05Z</time>
      </trkpt>
      <trkpt lat="47.7106" lon="-2.75695">
        <ele>62</ele>
        <time>2013-05-02T12:27:06Z</time>
      </trkpt>
      <trkpt lat="47.71055" lon="-2.75695">
        <ele>62</ele>
        <time>2013-05-02T12:27:07Z</time>
      </trkpt>
      <trkpt lat="47.7105" lon="-2.75696">
        <ele>62</ele>
        <time>2013-05-02T12:27:08Z</time>
      </trkpt>
      <trkpt lat="47.71045" lon="-2.75696">
        <ele>62</ele>
        <time>2013-05-02T12:27:09Z</time>
      </trkpt>
      <trkpt lat="47.7104" lon="-2.75696">
        <ele>62</ele>
        <time>2013-05-02T12:27:10Z</time>
      </trkpt>
      <trkpt lat="47.71035" lon="-2.75696">
        <ele>62</ele>
        <time>2013-05-02T12:27:11Z</time>
      </trkpt>
      <trkpt lat="47.71031" lon="-2.75696">
        <ele>62</ele>
        <time>2013-05-02T12:27:12Z</time>
      </trkpt>
      <trkpt lat="47.71025" lon="-2.75696">
        <ele>62</ele>
        <time>2013-05-02T12:27:13Z</time>
      </trkpt>
      <trkpt lat="47.7102" lon="-2.75696">
        <ele>62</ele>
        <time>2013-05-02T12:27:14Z</time>
      </trkpt>
      <trkpt lat="47.71015" lon="-2.75697">
        <ele>62</ele>
        <time>2013-05-02T12:27:15Z</time>
      </trkpt>
      <trkpt lat="47.71009" lon="-2.75698">
        <ele>62</ele>
        <time>2013-05-02T12:27:16Z</time>
      </trkpt>
      <trkpt lat="47.71003" lon="-2.75699">
        <ele>62</ele>
        <time>2013-05-02T12:27:17Z</time>
      </trkpt>
      <trkpt lat="47.70998" lon="-2.757">
        <ele>62</ele>
        <time>2013-05-02T12:27:18Z</time>
      </trkpt>
      <trkpt lat="47.70993" lon="-2.757">
        <ele>62</ele>
        <time>2013-05-02T12:27:19Z</time>
      </trkpt>
      <trkpt lat="47.70988" lon="-2.757">
        <ele>62</ele>
        <time>2013-05-02T12:27:20Z</time>
      </trkpt>
      <trkpt lat="47.70982" lon="-2.757">
        <ele>62</ele>
        <time>2013-05-02T12:27:21Z</time>
      </trkpt>
      <trkpt lat="47.70976" lon="-2.75699">
        <ele>62</ele>
        <time>2013-05-02T12:27:22Z</time>
      </trkpt>
      <trkpt lat="47.7097" lon="-2.75698">
        <ele>62</ele>
        <time>2013-05-02T12:27:23Z</time>
      </trkpt>
      <trkpt lat="47.70965" lon="-2.75698">
        <ele>62</ele>
        <time>2013-05-02T12:27:24Z</time>
      </trkpt>
      <trkpt lat="47.70959" lon="-2.75698">
        <ele>62</ele>
        <time>2013-05-02T12:27:25Z</time>
      </trkpt>
      <trkpt lat="47.70953" lon="-2.757">
        <ele>62</ele>
        <time>2013-05-02T12:27:26Z</time>
      </trkpt>
      <trkpt lat="47.70947" lon="-2.75701">
        <ele>62</ele>
        <time>2013-05-02T12:27:27Z</time>
      </trkpt>
      <trkpt lat="47.70942" lon="-2.75703">
        <ele>61</ele>
        <time>2013-05-02T12:27:28Z</time>
      </trkpt>
      <trkpt lat="47.70936" lon="-2.75705">
        <ele>61</ele>
        <time>2013-05-02T12:27:29Z</time>
      </trkpt>
      <trkpt lat="47.7093" lon="-2.75707">
        <ele>61</ele>
        <time>2013-05-02T12:27:30Z</time>
      </trkpt>
      <trkpt lat="47.70924" lon="-2.75708">
        <ele>61</ele>
        <time>2013-05-02T12:27:31Z</time>
      </trkpt>
      <trkpt lat="47.70917" lon="-2.7571">
        <ele>61</ele>
        <time>2013-05-02T12:27:32Z</time>
      </trkpt>
      <trkpt lat="47.7091" lon="-2.75712">
        <ele>61</ele>
        <time>2013-05-02T12:27:33Z</time>
      </trkpt>
      <trkpt lat="47.70903" lon="-2.75716">
        <ele>61</ele>
        <time>2013-05-02T12:27:34Z</time>
      </trkpt>
      <trkpt lat="47.70896" lon="-2.7572">
        <ele>61</ele>
        <time>2013-05-02T12:27:35Z</time>
      </trkpt>
      <trkpt lat="47.70888" lon="-2.75725">
        <ele>61</ele>
        <time>2013-05-02T12:27:36Z</time>
      </trkpt>
      <trkpt lat="47.70881" lon="-2.75729">
        <ele>60</ele>
        <time>2013-05-02T12:27:37Z</time>
      </trkpt>
      <trkpt lat="47.70874" lon="-2.75734">
        <ele>60</ele>
        <time>2013-05-02T12:27:38Z</time>
      </trkpt>
      <trkpt lat="47.70867" lon="-2.75738">
        <ele>60</ele>
        <time>2013-05-02T12:27:39Z</time>
      </trkpt>
      <trkpt lat="47.7086" lon="-2.75742">
        <ele>60</ele>
        <time>2013-05-02T12:27:40Z</time>
      </trkpt>
      <trkpt lat="47.70855" lon="-2.75746">
        <ele>59</ele>
        <time>2013-05-02T12:27:41Z</time>
      </trkpt>
      <trkpt lat="47.70849" lon="-2.75751">
        <ele>59</ele>
        <time>2013-05-02T12:27:42Z</time>
      </trkpt>
      <trkpt lat="47.70844" lon="-2.75756">
        <ele>59</ele>
        <time>2013-05-02T12:27:43Z</time>
      </trkpt>
      <trkpt lat="47.7084" lon="-2.75762">
        <ele>59</ele>
        <time>2013-05-02T12:27:44Z</time>
      </trkpt>
      <trkpt lat="47.70836" lon="-2.75768">
        <ele>58</ele>
        <time>2013-05-02T12:27:45Z</time>
      </trkpt>
      <trkpt lat="47.70833" lon="-2.75776">
        <ele>58</ele>
        <time>2013-05-02T12:27:46Z</time>
      </trkpt>
      <trkpt lat="47.70832" lon="-2.75785">
        <ele>58</ele>
        <time>2013-05-02T12:27:47Z</time>
      </trkpt>
      <trkpt lat="47.7083" lon="-2.75792">
        <ele>58</ele>
        <time>2013-05-02T12:27:48Z</time>
      </trkpt>
      <trkpt lat="47.70828" lon="-2.75798">
        <ele>58</ele>
        <time>2013-05-02T12:27:49Z</time>
      </trkpt>
      <trkpt lat="47.70825" lon="-2.75803">
        <ele>58</ele>
        <time>2013-05-02T12:27:50Z</time>
      </trkpt>
      <trkpt lat="47.70823" lon="-2.75809">
        <ele>58</ele>
        <time>2013-05-02T12:27:51Z</time>
      </trkpt>
      <trkpt lat="47.7082" lon="-2.75814">
        <ele>58</ele>
        <time>2013-05-02T12:27:52Z</time>
      </trkpt>
      <trkpt lat="47.70817" lon="-2.7582">
        <ele>57</ele>
        <time>2013-05-02T12:27:53Z</time>
      </trkpt>
      <trkpt lat="47.70813" lon="-2.75826">
        <ele>57</ele>
        <time>2013-05-02T12:27:54Z</time>
      </trkpt>
      <trkpt lat="47.7081" lon="-2.75832">
        <ele>57</ele>
        <time>2013-05-02T12:27:55Z</time>
      </trkpt>
      <trkpt lat="47.70807" lon="-2.75837">
        <ele>57</ele>
        <time>2013-05-02T12:27:56Z</time>
      </trkpt>
      <trkpt lat="47.70804" lon="-2.75842">
        <ele>57</ele>
        <time>2013-05-02T12:27:57Z</time>
      </trkpt>
      <trkpt lat="47.708" lon="-2.75848">
        <ele>57</ele>
        <time>2013-05-02T12:27:58Z</time>
      </trkpt>
      <trkpt lat="47.70797" lon="-2.75855">
        <ele>57</ele>
        <time>2013-05-02T12:27:59Z</time>
      </trkpt>
      <trkpt lat="47.70794" lon="-2.75861">
        <ele>57</ele>
        <time>2013-05-02T12:28:00Z</time>
      </trkpt>
      <trkpt lat="47.7079" lon="-2.75867">
        <ele>57</ele>
        <time>2013-05-02T12:28:01Z</time>
      </trkpt>
      <trkpt lat="47.70787" lon="-2.75873">
        <ele>57</ele>
        <time>2013-05-02T12:28:02Z</time>
      </trkpt>
      <trkpt lat="47.70782" lon="-2.75879">
        <ele>57</ele>
        <time>2013-05-02T12:28:03Z</time>
      </trkpt>
      <trkpt lat="47.70779" lon="-2.75886">
        <ele>57</ele>
        <time>2013-05-02T12:28:04Z</time>
      </trkpt>
      <trkpt lat="47.70776" lon="-2.75893">
        <ele>57</ele>
        <time>2013-05-02T12:28:05Z</time>
      </trkpt>
      <trkpt lat="47.70772" lon="-2.759">
        <ele>57</ele>
        <time>2013-05-02T12:28:06Z</time>
      </trkpt>
      <trkpt lat="47.70769" lon="-2.75906">
        <ele>57</ele>
        <time>2013-05-02T12:28:07Z</time>
      </trkpt>
      <trkpt lat="47.70766" lon="-2.75914">
        <ele>57</ele>
        <time>2013-05-02T12:28:08Z</time>
      </trkpt>
      <trkpt lat="47.70763" lon="-2.7592">
        <ele>57</ele>
        <time>2013-05-02T12:28:09Z</time>
      </trkpt>
      <trkpt lat="47.70759" lon="-2.75926">
        <ele>57</ele>
        <time>2013-05-02T12:28:10Z</time>
      </trkpt>
      <trkpt lat="47.70756" lon="-2.75933">
        <ele>57</ele>
        <time>2013-05-02T12:28:11Z</time>
      </trkpt>
      <trkpt lat="47.70753" lon="-2.75939">
        <ele>57</ele>
        <time>2013-05-02T12:28:12Z</time>
      </trkpt>
      <trkpt lat="47.7075" lon="-2.75946">
        <ele>57</ele>
        <time>2013-05-02T12:28:13Z</time>
      </trkpt>
      <trkpt lat="47.70747" lon="-2.75954">
        <ele>57</ele>
        <time>2013-05-02T12:28:14Z</time>
      </trkpt>
      <trkpt lat="47.70745" lon="-2.7596">
        <ele>57</ele>
        <time>2013-05-02T12:28:15Z</time>
      </trkpt>
      <trkpt lat="47.70744" lon="-2.75967">
        <ele>57</ele>
        <time>2013-05-02T12:28:16Z</time>
      </trkpt>
      <trkpt lat="47.70742" lon="-2.75974">
        <ele>57</ele>
        <time>2013-05-02T12:28:17Z</time>
      </trkpt>
      <trkpt lat="47.7074" lon="-2.75981">
        <ele>57</ele>
        <time>2013-05-02T12:28:18Z</time>
      </trkpt>
      <trkpt lat="47.70738" lon="-2.75988">
        <ele>57</ele>
        <time>2013-05-02T12:28:19Z</time>
      </trkpt>
      <trkpt lat="47.70736" lon="-2.75995">
        <ele>57</ele>
        <time>2013-05-02T12:28:20Z</time>
      </trkpt>
      <trkpt lat="47.70734" lon="-2.76002">
        <ele>57</ele>
        <time>2013-05-02T12:28:21Z</time>
      </trkpt>
      <trkpt lat="47.70732" lon="-2.76009">
        <ele>57</ele>
        <time>2013-05-02T12:28:22Z</time>
      </trkpt>
      <trkpt lat="47.7073" lon="-2.76016">
        <ele>57</ele>
        <time>2013-05-02T12:28:23Z</time>
      </trkpt>
      <trkpt lat="47.70728" lon="-2.76023">
        <ele>57</ele>
        <time>2013-05-02T12:28:24Z</time>
      </trkpt>
      <trkpt lat="47.70727" lon="-2.76029">
        <ele>57</ele>
        <time>2013-05-02T12:28:25Z</time>
      </trkpt>
      <trkpt lat="47.70725" lon="-2.76036">
        <ele>57</ele>
        <time>2013-05-02T12:28:26Z</time>
      </trkpt>
      <trkpt lat="47.70723" lon="-2.76043">
        <ele>57</ele>
        <time>2013-05-02T12:28:27Z</time>
      </trkpt>
      <trkpt lat="47.70722" lon="-2.7605">
        <ele>57</ele>
        <time>2013-05-02T12:28:28Z</time>
      </trkpt>
      <trkpt lat="47.70721" lon="-2.76057">
        <ele>57</ele>
        <time>2013-05-02T12:28:29Z</time>
      </trkpt>
      <trkpt lat="47.70719" lon="-2.76064">
        <ele>57</ele>
        <time>2013-05-02T12:28:30Z</time>
      </trkpt>
      <trkpt lat="47.70717" lon="-2.76071">
        <ele>57</ele>
        <time>2013-05-02T12:28:31Z</time>
      </trkpt>
      <trkpt lat="47.70716" lon="-2.76078">
        <ele>57</ele>
        <time>2013-05-02T12:28:32Z</time>
      </trkpt>
      <trkpt lat="47.70715" lon="-2.76085">
        <ele>57</ele>
        <time>2013-05-02T12:28:33Z</time>
      </trkpt>
      <trkpt lat="47.70714" lon="-2.76091">
        <ele>57</ele>
        <time>2013-05-02T12:28:34Z</time>
      </trkpt>
      <trkpt lat="47.70713" lon="-2.76097">
        <ele>57</ele>
        <time>2013-05-02T12:28:35Z</time>
      </trkpt>
      <trkpt lat="47.70712" lon="-2.76103">
        <ele>57</ele>
        <time>2013-05-02T12:28:36Z</time>
      </trkpt>
      <trkpt lat="47.7071" lon="-2.76111">
        <ele>57</ele>
        <time>2013-05-02T12:28:37Z</time>
      </trkpt>
      <trkpt lat="47.70709" lon="-2.76118">
        <ele>57</ele>
        <time>2013-05-02T12:28:38Z</time>
      </trkpt>
      <trkpt lat="47.70707" lon="-2.76125">
        <ele>57</ele>
        <time>2013-05-02T12:28:39Z</time>
      </trkpt>
      <trkpt lat="47.70705" lon="-2.76131">
        <ele>57</ele>
        <time>2013-05-02T12:28:40Z</time>
      </trkpt>
      <trkpt lat="47.70704" lon="-2.76138">
        <ele>58</ele>
        <time>2013-05-02T12:28:41Z</time>
      </trkpt>
      <trkpt lat="47.70703" lon="-2.76145">
        <ele>58</ele>
        <time>2013-05-02T12:28:42Z</time>
      </trkpt>
      <trkpt lat="47.70701" lon="-2.76151">
        <ele>58</ele>
        <time>2013-05-02T12:28:43Z</time>
      </trkpt>
      <trkpt lat="47.70699" lon="-2.76158">
        <ele>58</ele>
        <time>2013-05-02T12:28:44Z</time>
      </trkpt>
      <trkpt lat="47.70699" lon="-2.76164">
        <ele>58</ele>
        <time>2013-05-02T12:28:45Z</time>
      </trkpt>
      <trkpt lat="47.70697" lon="-2.7617">
        <ele>58</ele>
        <time>2013-05-02T12:28:46Z</time>
      </trkpt>
      <trkpt lat="47.70697" lon="-2.76175">
        <ele>59</ele>
        <time>2013-05-02T12:28:47Z</time>
      </trkpt>
      <trkpt lat="47.70695" lon="-2.7618">
        <ele>59</ele>
        <time>2013-05-02T12:28:48Z</time>
      </trkpt>
      <trkpt lat="47.70693" lon="-2.76182">
        <ele>59</ele>
        <time>2013-05-02T12:28:49Z</time>
      </trkpt>
      <trkpt lat="47.70691" lon="-2.76182">
        <ele>59</ele>
        <time>2013-05-02T12:28:50Z</time>
      </trkpt>
      <trkpt lat="47.70688" lon="-2.76181">
        <ele>59</ele>
        <time>2013-05-02T12:28:51Z</time>
      </trkpt>
      <trkpt lat="47.70685" lon="-2.76178">
        <ele>59</ele>
        <time>2013-05-02T12:28:52Z</time>
      </trkpt>
      <trkpt lat="47.70682" lon="-2.76176">
        <ele>59</ele>
        <time>2013-05-02T12:28:53Z</time>
      </trkpt>
      <trkpt lat="47.70679" lon="-2.76173">
        <ele>59</ele>
        <time>2013-05-02T12:28:54Z</time>
      </trkpt>
      <trkpt lat="47.70675" lon="-2.76169">
        <ele>59</ele>
        <time>2013-05-02T12:28:55Z</time>
      </trkpt>
      <trkpt lat="47.70672" lon="-2.76166">
        <ele>59</ele>
        <time>2013-05-02T12:28:56Z</time>
      </trkpt>
      <trkpt lat="47.70668" lon="-2.76164">
        <ele>59</ele>
        <time>2013-05-02T12:28:57Z</time>
      </trkpt>
      <trkpt lat="47.70665" lon="-2.76161">
        <ele>59</ele>
        <time>2013-05-02T12:28:58Z</time>
      </trkpt>
      <trkpt lat="47.70662" lon="-2.76157">
        <ele>59</ele>
        <time>2013-05-02T12:28:59Z</time>
      </trkpt>
      <trkpt lat="47.70658" lon="-2.76154">
        <ele>59</ele>
        <time>2013-05-02T12:29:00Z</time>
      </trkpt>
      <trkpt lat="47.70655" lon="-2.76151">
        <ele>59</ele>
        <time>2013-05-02T12:29:01Z</time>
      </trkpt>
      <trkpt lat="47.70653" lon="-2.76148">
        <ele>59</ele>
        <time>2013-05-02T12:29:02Z</time>
      </trkpt>
      <trkpt lat="47.70649" lon="-2.76144">
        <ele>59</ele>
        <time>2013-05-02T12:29:03Z</time>
      </trkpt>
      <trkpt lat="47.70646" lon="-2.76139">
        <ele>59</ele>
        <time>2013-05-02T12:29:04Z</time>
      </trkpt>
      <trkpt lat="47.70642" lon="-2.76134">
        <ele>59</ele>
        <time>2013-05-02T12:29:05Z</time>
      </trkpt>
      <trkpt lat="47.70639" lon="-2.7613">
        <ele>59</ele>
        <time>2013-05-02T12:29:06Z</time>
      </trkpt>
      <trkpt lat="47.70636" lon="-2.76125">
        <ele>59</ele>
        <time>2013-05-02T12:29:07Z</time>
      </trkpt>
      <trkpt lat="47.70633" lon="-2.7612">
        <ele>59</ele>
        <time>2013-05-02T12:29:08Z</time>
      </trkpt>
      <trkpt lat="47.70629" lon="-2.76115">
        <ele>59</ele>
        <time>2013-05-02T12:29:09Z</time>
      </trkpt>
      <trkpt lat="47.70626" lon="-2.76111">
        <ele>59</ele>
        <time>2013-05-02T12:29:10Z</time>
      </trkpt>
      <trkpt lat="47.70624" lon="-2.76107">
        <ele>59</ele>
        <time>2013-05-02T12:29:11Z</time>
      </trkpt>
      <trkpt lat="47.70622" lon="-2.76103">
        <ele>59</ele>
        <time>2013-05-02T12:29:12Z</time>
      </trkpt>
      <trkpt lat="47.7062" lon="-2.76099">
        <ele>59</ele>
        <time>2013-05-02T12:29:13Z</time>
      </trkpt>
      <trkpt lat="47.70617" lon="-2.76094">
        <ele>59</ele>
        <time>2013-05-02T12:29:14Z</time>
      </trkpt>
      <trkpt lat="47.70615" lon="-2.7609">
        <ele>59</ele>
        <time>2013-05-02T12:29:15Z</time>
      </trkpt>
      <trkpt lat="47.70611" lon="-2.76084">
        <ele>59</ele>
        <time>2013-05-02T12:29:16Z</time>
      </trkpt>
      <trkpt lat="47.70608" lon="-2.76079">
        <ele>59</ele>
        <time>2013-05-02T12:29:17Z</time>
      </trkpt>
      <trkpt lat="47.70605" lon="-2.76074">
        <ele>59</ele>
        <time>2013-05-02T12:29:18Z</time>
      </trkpt>
      <trkpt lat="47.70602" lon="-2.76068">
        <ele>59</ele>
        <time>2013-05-02T12:29:19Z</time>
      </trkpt>
      <trkpt lat="47.70598" lon="-2.76064">
        <ele>59</ele>
        <time>2013-05-02T12:29:20Z</time>
      </trkpt>
      <trkpt lat="47.70595" lon="-2.76059">
        <ele>59</ele>
        <time>2013-05-02T12:29:21Z</time>
      </trkpt>
      <trkpt lat="47.70591" lon="-2.76054">
        <ele>59</ele>
        <time>2013-05-02T12:29:22Z</time>
      </trkpt>
      <trkpt lat="47.70588" lon="-2.76049">
        <ele>59</ele>
        <time>2013-05-02T12:29:23Z</time>
      </trkpt>
      <trkpt lat="47.70585" lon="-2.76045">
        <ele>59</ele>
        <time>2013-05-02T12:29:24Z</time>
      </trkpt>
      <trkpt lat="47.70581" lon="-2.76041">
        <ele>59</ele>
        <time>2013-05-02T12:29:25Z</time>
      </trkpt>
      <trkpt lat="47.70578" lon="-2.76037">
        <ele>59</ele>
        <time>2013-05-02T12:29:26Z</time>
      </trkpt>
      <trkpt lat="47.70574" lon="-2.76033">
        <ele>59</ele>
        <time>2013-05-02T12:29:27Z</time>
      </trkpt>
      <trkpt lat="47.7057" lon="-2.76028">
        <ele>59</ele>
        <time>2013-05-02T12:29:28Z</time>
      </trkpt>
      <trkpt lat="47.70567" lon="-2.76024">
        <ele>59</ele>
        <time>2013-05-02T12:29:29Z</time>
      </trkpt>
      <trkpt lat="47.70564" lon="-2.76021">
        <ele>59</ele>
        <time>2013-05-02T12:29:30Z</time>
      </trkpt>
      <trkpt lat="47.7056" lon="-2.76017">
        <ele>59</ele>
        <time>2013-05-02T12:29:31Z</time>
      </trkpt>
      <trkpt lat="47.70556" lon="-2.76012">
        <ele>59</ele>
        <time>2013-05-02T12:29:32Z</time>
      </trkpt>
      <trkpt lat="47.70552" lon="-2.76008">
        <ele>59</ele>
        <time>2013-05-02T12:29:33Z</time>
      </trkpt>
      <trkpt lat="47.70549" lon="-2.76003">
        <ele>59</ele>
        <time>2013-05-02T12:29:34Z</time>
      </trkpt>
      <trkpt lat="47.70545" lon="-2.75998">
        <ele>59</ele>
        <time>2013-05-02T12:29:35Z</time>
      </trkpt>
      <trkpt lat="47.70542" lon="-2.75994">
        <ele>59</ele>
        <time>2013-05-02T12:29:36Z</time>
      </trkpt>
      <trkpt lat="47.70539" lon="-2.75989">
        <ele>59</ele>
        <time>2013-05-02T12:29:37Z</time>
      </trkpt>
      <trkpt lat="47.70536" lon="-2.75985">
        <ele>59</ele>
        <time>2013-05-02T12:29:38Z</time>
      </trkpt>
      <trkpt lat="47.70532" lon="-2.7598">
        <ele>59</ele>
        <time>2013-05-02T12:29:39Z</time>
      </trkpt>
      <trkpt lat="47.70528" lon="-2.75975">
        <ele>59</ele>
        <time>2013-05-02T12:29:40Z</time>
      </trkpt>
      <trkpt lat="47.70523" lon="-2.75971">
        <ele>59</ele>
        <time>2013-05-02T12:29:41Z</time>
      </trkpt>
      <trkpt lat="47.70518" lon="-2.75965">
        <ele>59</ele>
        <time>2013-05-02T12:29:42Z</time>
      </trkpt>
      <trkpt lat="47.70514" lon="-2.7596">
        <ele>58</ele>
        <time>2013-05-02T12:29:43Z</time>
      </trkpt>
      <trkpt lat="47.7051" lon="-2.75957">
        <ele>58</ele>
        <time>2013-05-02T12:29:44Z</time>
      </trkpt>
      <trkpt lat="47.70507" lon="-2.75955">
        <ele>58</ele>
        <time>2013-05-02T12:29:45Z</time>
      </trkpt>
      <trkpt lat="47.70505" lon="-2.75953">
        <ele>58</ele>
        <time>2013-05-02T12:29:46Z</time>
      </trkpt>
      <trkpt lat="47.70503" lon="-2.75951">
        <ele>58</ele>
        <time>2013-05-02T12:29:47Z</time>
      </trkpt>
      <trkpt lat="47.70501" lon="-2.75949">
        <ele>57</ele>
        <time>2013-05-02T12:29:48Z</time>
      </trkpt>
      <trkpt lat="47.70499" lon="-2.75947">
        <ele>57</ele>
        <time>2013-05-02T12:29:49Z</time>
      </trkpt>
      <trkpt lat="47.70497" lon="-2.75946">
        <ele>57</ele>
        <time>2013-05-02T12:29:50Z</time>
      </trkpt>
      <trkpt lat="47.70495" lon="-2.75947">
        <ele>57</ele>
        <time>2013-05-02T12:29:51Z</time>
      </trkpt>
      <trkpt lat="47.70493" lon="-2.7595">
        <ele>57</ele>
        <time>2013-05-02T12:29:52Z</time>
      </trkpt>
      <trkpt lat="47.70492" lon="-2.75952">
        <ele>57</ele>
        <time>2013-05-02T12:29:53Z</time>
      </trkpt>
      <trkpt lat="47.7049" lon="-2.75952">
        <ele>57</ele>
        <time>2013-05-02T12:29:54Z</time>
      </trkpt>
      <trkpt lat="47.70487" lon="-2.75951">
        <ele>57</ele>
        <time>2013-05-02T12:29:55Z</time>
      </trkpt>
      <trkpt lat="47.70486" lon="-2.75949">
        <ele>57</ele>
        <time>2013-05-02T12:29:56Z</time>
      </trkpt>
      <trkpt lat="47.70484" lon="-2.75947">
        <ele>57</ele>
        <time>2013-05-02T12:29:57Z</time>
      </trkpt>
      <trkpt lat="47.70482" lon="-2.75945">
        <ele>57</ele>
        <time>2013-05-02T12:29:58Z</time>
      </trkpt>
      <trkpt lat="47.7048" lon="-2.75943">
        <ele>57</ele>
        <time>2013-05-02T12:29:59Z</time>
      </trkpt>
      <trkpt lat="47.70479" lon="-2.7594">
        <ele>57</ele>
        <time>2013-05-02T12:30:00Z</time>
      </trkpt>
      <trkpt lat="47.70477" lon="-2.75938">
        <ele>57</ele>
        <time>2013-05-02T12:30:01Z</time>
      </trkpt>
      <trkpt lat="47.70475" lon="-2.75936">
        <ele>57</ele>
        <time>2013-05-02T12:30:02Z</time>
      </trkpt>
      <trkpt lat="47.70472" lon="-2.75935">
        <ele>57</ele>
        <time>2013-05-02T12:30:03Z</time>
      </trkpt>
      <trkpt lat="47.70469" lon="-2.75934">
        <ele>57</ele>
        <time>2013-05-02T12:30:04Z</time>
      </trkpt>
      <trkpt lat="47.70467" lon="-2.75934">
        <ele>57</ele>
        <time>2013-05-02T12:30:05Z</time>
      </trkpt>
      <trkpt lat="47.70464" lon="-2.75933">
        <ele>57</ele>
        <time>2013-05-02T12:30:06Z</time>
      </trkpt>
      <trkpt lat="47.70461" lon="-2.75931">
        <ele>57</ele>
        <time>2013-05-02T12:30:07Z</time>
      </trkpt>
      <trkpt lat="47.70458" lon="-2.75929">
        <ele>57</ele>
        <time>2013-05-02T12:30:08Z</time>
      </trkpt>
      <trkpt lat="47.70455" lon="-2.75928">
        <ele>57</ele>
        <time>2013-05-02T12:30:09Z</time>
      </trkpt>
      <trkpt lat="47.70451" lon="-2.75926">
        <ele>57</ele>
        <time>2013-05-02T12:30:10Z</time>
      </trkpt>
      <trkpt lat="47.70448" lon="-2.75925">
        <ele>57</ele>
        <time>2013-05-02T12:30:11Z</time>
      </trkpt>
      <trkpt lat="47.70444" lon="-2.75924">
        <ele>57</ele>
        <time>2013-05-02T12:30:12Z</time>
      </trkpt>
      <trkpt lat="47.7044" lon="-2.75923">
        <ele>57</ele>
        <time>2013-05-02T12:30:13Z</time>
      </trkpt>
      <trkpt lat="47.70436" lon="-2.75922">
        <ele>57</ele>
        <time>2013-05-02T12:30:14Z</time>
      </trkpt>
      <trkpt lat="47.70432" lon="-2.7592">
        <ele>57</ele>
        <time>2013-05-02T12:30:15Z</time>
      </trkpt>
      <trkpt lat="47.70429" lon="-2.75919">
        <ele>57</ele>
        <time>2013-05-02T12:30:16Z</time>
      </trkpt>
      <trkpt lat="47.70426" lon="-2.75917">
        <ele>57</ele>
        <time>2013-05-02T12:30:17Z</time>
      </trkpt>
      <trkpt lat="47.70423" lon="-2.75914">
        <ele>57</ele>
        <time>2013-05-02T12:30:18Z</time>
      </trkpt>
      <trkpt lat="47.7042" lon="-2.75911">
        <ele>57</ele>
        <time>2013-05-02T12:30:19Z</time>
      </trkpt>
      <trkpt lat="47.70416" lon="-2.75909">
        <ele>57</ele>
        <time>2013-05-02T12:30:20Z</time>
      </trkpt>
      <trkpt lat="47.70412" lon="-2.75907">
        <ele>57</ele>
        <time>2013-05-02T12:30:21Z</time>
      </trkpt>
      <trkpt lat="47.70407" lon="-2.75905">
        <ele>57</ele>
        <time>2013-05-02T12:30:22Z</time>
      </trkpt>
      <trkpt lat="47.70403" lon="-2.75904">
        <ele>57</ele>
        <time>2013-05-02T12:30:23Z</time>
      </trkpt>
      <trkpt lat="47.70398" lon="-2.75903">
        <ele>57</ele>
        <time>2013-05-02T12:30:24Z</time>
      </trkpt>
      <trkpt lat="47.70392" lon="-2.75901">
        <ele>57</ele>
        <time>2013-05-02T12:30:25Z</time>
      </trkpt>
      <trkpt lat="47.70387" lon="-2.759">
        <ele>57</ele>
        <time>2013-05-02T12:30:26Z</time>
      </trkpt>
      <trkpt lat="47.70381" lon="-2.75898">
        <ele>57</ele>
        <time>2013-05-02T12:30:27Z</time>
      </trkpt>
      <trkpt lat="47.70375" lon="-2.75897">
        <ele>57</ele>
        <time>2013-05-02T12:30:28Z</time>
      </trkpt>
      <trkpt lat="47.7037" lon="-2.75896">
        <ele>57</ele>
        <time>2013-05-02T12:30:29Z</time>
      </trkpt>
      <trkpt lat="47.70364" lon="-2.75895">
        <ele>57</ele>
        <time>2013-05-02T12:30:30Z</time>
      </trkpt>
      <trkpt lat="47.70359" lon="-2.75895">
        <ele>56</ele>
        <time>2013-05-02T12:30:31Z</time>
      </trkpt>
      <trkpt lat="47.70353" lon="-2.75895">
        <ele>55</ele>
        <time>2013-05-02T12:30:32Z</time>
      </trkpt>
      <trkpt lat="47.70348" lon="-2.75894">
        <ele>55</ele>
        <time>2013-05-02T12:30:33Z</time>
      </trkpt>
      <trkpt lat="47.70341" lon="-2.75894">
        <ele>55</ele>
        <time>2013-05-02T12:30:34Z</time>
      </trkpt>
      <trkpt lat="47.70335" lon="-2.75893">
        <ele>55</ele>
        <time>2013-05-02T12:30:35Z</time>
      </trkpt>
      <trkpt lat="47.70328" lon="-2.75893">
        <ele>54</ele>
        <time>2013-05-02T12:30:36Z</time>
      </trkpt>
      <trkpt lat="47.70321" lon="-2.75892">
        <ele>54</ele>
        <time>2013-05-02T12:30:37Z</time>
      </trkpt>
      <trkpt lat="47.70314" lon="-2.75892">
        <ele>54</ele>
        <time>2013-05-02T12:30:38Z</time>
      </trkpt>
      <trkpt lat="47.70307" lon="-2.75891">
        <ele>54</ele>
        <time>2013-05-02T12:30:39Z</time>
      </trkpt>
      <trkpt lat="47.70301" lon="-2.75891">
        <ele>53</ele>
        <time>2013-05-02T12:30:40Z</time>
      </trkpt>
      <trkpt lat="47.70295" lon="-2.75892">
        <ele>53</ele>
        <time>2013-05-02T12:30:41Z</time>
      </trkpt>
      <trkpt lat="47.70288" lon="-2.75894">
        <ele>53</ele>
        <time>2013-05-02T12:30:42Z</time>
      </trkpt>
      <trkpt lat="47.70282" lon="-2.75895">
        <ele>53</ele>
        <time>2013-05-02T12:30:43Z</time>
      </trkpt>
      <trkpt lat="47.70275" lon="-2.75895">
        <ele>53</ele>
        <time>2013-05-02T12:30:44Z</time>
      </trkpt>
      <trkpt lat="47.7027" lon="-2.75894">
        <ele>53</ele>
        <time>2013-05-02T12:30:45Z</time>
      </trkpt>
      <trkpt lat="47.70264" lon="-2.75892">
        <ele>53</ele>
        <time>2013-05-02T12:30:46Z</time>
      </trkpt>
      <trkpt lat="47.7026" lon="-2.75888">
        <ele>53</ele>
        <time>2013-05-02T12:30:47Z</time>
      </trkpt>
      <trkpt lat="47.70256" lon="-2.75884">
        <ele>53</ele>
        <time>2013-05-02T12:30:48Z</time>
      </trkpt>
      <trkpt lat="47.70252" lon="-2.75877">
        <ele>53</ele>
        <time>2013-05-02T12:30:49Z</time>
      </trkpt>
      <trkpt lat="47.70249" lon="-2.75868">
        <ele>52</ele>
        <time>2013-05-02T12:30:50Z</time>
      </trkpt>
      <trkpt lat="47.70244" lon="-2.7586">
        <ele>52</ele>
        <time>2013-05-02T12:30:51Z</time>
      </trkpt>
      <trkpt lat="47.7024" lon="-2.75852">
        <ele>51</ele>
        <time>2013-05-02T12:30:52Z</time>
      </trkpt>
      <trkpt lat="47.70236" lon="-2.75846">
        <ele>50</ele>
        <time>2013-05-02T12:30:53Z</time>
      </trkpt>
      <trkpt lat="47.70234" lon="-2.7584">
        <ele>50</ele>
        <time>2013-05-02T12:30:54Z</time>
      </trkpt>
      <trkpt lat="47.70232" lon="-2.75837">
        <ele>50</ele>
        <time>2013-05-02T12:30:55Z</time>
      </trkpt>
      <trkpt lat="47.70232" lon="-2.75834">
        <ele>49</ele>
        <time>2013-05-02T12:30:56Z</time>
      </trkpt>
      <trkpt lat="47.70232" lon="-2.75832">
        <ele>49</ele>
        <time>2013-05-02T12:30:57Z</time>
      </trkpt>
      <trkpt lat="47.70232" lon="-2.75829">
        <ele>49</ele>
        <time>2013-05-02T12:30:58Z</time>
      </trkpt>
      <trkpt lat="47.70235" lon="-2.75827">
        <ele>49</ele>
        <time>2013-05-02T12:30:59Z</time>
      </trkpt>
      <trkpt lat="47.70238" lon="-2.75826">
        <ele>49</ele>
        <time>2013-05-02T12:31:00Z</time>
      </trkpt>
      <trkpt lat="47.70242" lon="-2.75824">
        <ele>49</ele>
        <time>2013-05-02T12:31:01Z</time>
      </trkpt>
      <trkpt lat="47.70245" lon="-2.75822">
        <ele>49</ele>
        <time>2013-05-02T12:31:02Z</time>
      </trkpt>
      <trkpt lat="47.70247" lon="-2.75817">
        <ele>48</ele>
        <time>2013-05-02T12:31:03Z</time>
      </trkpt>
      <trkpt lat="47.70247" lon="-2.7581">
        <ele>48</ele>
        <time>2013-05-02T12:31:04Z</time>
      </trkpt>
      <trkpt lat="47.70244" lon="-2.75803">
        <ele>48</ele>
        <time>2013-05-02T12:31:05Z</time>
      </trkpt>
      <trkpt lat="47.7024" lon="-2.75796">
        <ele>48</ele>
        <time>2013-05-02T12:31:06Z</time>
      </trkpt>
      <trkpt lat="47.70236" lon="-2.75788">
        <ele>47</ele>
        <time>2013-05-02T12:31:07Z</time>
      </trkpt>
      <trkpt lat="47.70232" lon="-2.7578">
        <ele>47</ele>
        <time>2013-05-02T12:31:08Z</time>
      </trkpt>
      <trkpt lat="47.70229" lon="-2.75772">
        <ele>47</ele>
        <time>2013-05-02T12:31:09Z</time>
      </trkpt>
      <trkpt lat="47.70227" lon="-2.75763">
        <ele>47</ele>
        <time>2013-05-02T12:31:10Z</time>
      </trkpt>
      <trkpt lat="47.70224" lon="-2.75754">
        <ele>47</ele>
        <time>2013-05-02T12:31:11Z</time>
      </trkpt>
      <trkpt lat="47.70222" lon="-2.75745">
        <ele>47</ele>
        <time>2013-05-02T12:31:12Z</time>
      </trkpt>
      <trkpt lat="47.7022" lon="-2.75736">
        <ele>47</ele>
        <time>2013-05-02T12:31:13Z</time>
      </trkpt>
      <trkpt lat="47.70218" lon="-2.75728">
        <ele>47</ele>
        <time>2013-05-02T12:31:14Z</time>
      </trkpt>
      <trkpt lat="47.70216" lon="-2.7572">
        <ele>47</ele>
        <time>2013-05-02T12:31:15Z</time>
      </trkpt>
      <trkpt lat="47.70214" lon="-2.75713">
        <ele>47</ele>
        <time>2013-05-02T12:31:16Z</time>
      </trkpt>
      <trkpt lat="47.70213" lon="-2.75706">
        <ele>47</ele>
        <time>2013-05-02T12:31:17Z</time>
      </trkpt>
      <trkpt lat="47.70212" lon="-2.757">
        <ele>47</ele>
        <time>2013-05-02T12:31:18Z</time>
      </trkpt>
      <trkpt lat="47.7021" lon="-2.75694">
        <ele>47</ele>
        <time>2013-05-02T12:31:19Z</time>
      </trkpt>
      <trkpt lat="47.70209" lon="-2.75688">
        <ele>47</ele>
        <time>2013-05-02T12:31:20Z</time>
      </trkpt>
      <trkpt lat="47.70208" lon="-2.75682">
        <ele>47</ele>
        <time>2013-05-02T12:31:21Z</time>
      </trkpt>
      <trkpt lat="47.70207" lon="-2.75676">
        <ele>47</ele>
        <time>2013-05-02T12:31:22Z</time>
      </trkpt>
      <trkpt lat="47.70206" lon="-2.7567">
        <ele>47</ele>
        <time>2013-05-02T12:31:23Z</time>
      </trkpt>
      <trkpt lat="47.70206" lon="-2.75663">
        <ele>47</ele>
        <time>2013-05-02T12:31:24Z</time>
      </trkpt>
      <trkpt lat="47.70206" lon="-2.75656">
        <ele>47</ele>
        <time>2013-05-02T12:31:25Z</time>
      </trkpt>
      <trkpt lat="47.70205" lon="-2.75649">
        <ele>47</ele>
        <time>2013-05-02T12:31:26Z</time>
      </trkpt>
      <trkpt lat="47.70205" lon="-2.75642">
        <ele>47</ele>
        <time>2013-05-02T12:31:27Z</time>
      </trkpt>
      <trkpt lat="47.70204" lon="-2.75635">
        <ele>47</ele>
        <time>2013-05-02T12:31:28Z</time>
      </trkpt>
      <trkpt lat="47.70203" lon="-2.75627">
        <ele>47</ele>
        <time>2013-05-02T12:31:29Z</time>
      </trkpt>
      <trkpt lat="47.70203" lon="-2.75621">
        <ele>46</ele>
        <time>2013-05-02T12:31:30Z</time>
      </trkpt>
      <trkpt lat="47.70202" lon="-2.75614">
        <ele>46</ele>
        <time>2013-05-02T12:31:31Z</time>
      </trkpt>
      <trkpt lat="47.70202" lon="-2.75608">
        <ele>46</ele>
        <time>2013-05-02T12:31:32Z</time>
      </trkpt>
      <trkpt lat="47.70201" lon="-2.75603">
        <ele>45</ele>
        <time>2013-05-02T12:31:33Z</time>
      </trkpt>
      <trkpt lat="47.70201" lon="-2.75596">
        <ele>45</ele>
        <time>2013-05-02T12:31:34Z</time>
      </trkpt>
      <trkpt lat="47.702" lon="-2.75589">
        <ele>45</ele>
        <time>2013-05-02T12:31:35Z</time>
      </trkpt>
      <trkpt lat="47.70199" lon="-2.75583">
        <ele>44</ele>
        <time>2013-05-02T12:31:36Z</time>
      </trkpt>
      <trkpt lat="47.70198" lon="-2.75577">
        <ele>44</ele>
        <time>2013-05-02T12:31:37Z</time>
      </trkpt>
      <trkpt lat="47.70197" lon="-2.75571">
        <ele>44</ele>
        <time>2013-05-02T12:31:38Z</time>
      </trkpt>
      <trkpt lat="47.70197" lon="-2.75565">
        <ele>44</ele>
        <time>2013-05-02T12:31:39Z</time>
      </trkpt>
      <trkpt lat="47.70197" lon="-2.75559">
        <ele>44</ele>
        <time>2013-05-02T12:31:40Z</time>
      </trkpt>
      <trkpt lat="47.70197" lon="-2.75554">
        <ele>44</ele>
        <time>2013-05-02T12:31:41Z</time>
      </trkpt>
      <trkpt lat="47.70196" lon="-2.75548">
        <ele>44</ele>
        <time>2013-05-02T12:31:42Z</time>
      </trkpt>
      <trkpt lat="47.70195" lon="-2.75543">
        <ele>44</ele>
        <time>2013-05-02T12:31:43Z</time>
      </trkpt>
      <trkpt lat="47.70195" lon="-2.75537">
        <ele>44</ele>
        <time>2013-05-02T12:31:44Z</time>
      </trkpt>
      <trkpt lat="47.70195" lon="-2.75532">
        <ele>44</ele>
        <time>2013-05-02T12:31:45Z</time>
      </trkpt>
      <trkpt lat="47.70196" lon="-2.75525">
        <ele>44</ele>
        <time>2013-05-02T12:31:46Z</time>
      </trkpt>
      <trkpt lat="47.70198" lon="-2.75519">
        <ele>44</ele>
        <time>2013-05-02T12:31:47Z</time>
      </trkpt>
      <trkpt lat="47.70199" lon="-2.75513">
        <ele>44</ele>
        <time>2013-05-02T12:31:48Z</time>
      </trkpt>
      <trkpt lat="47.70201" lon="-2.75507">
        <ele>44</ele>
        <time>2013-05-02T12:31:49Z</time>
      </trkpt>
      <trkpt lat="47.70202" lon="-2.755">
        <ele>44</ele>
        <time>2013-05-02T12:31:50Z</time>
      </trkpt>
      <trkpt lat="47.70203" lon="-2.75494">
        <ele>44</ele>
        <time>2013-05-02T12:31:51Z</time>
      </trkpt>
      <trkpt lat="47.70204" lon="-2.75488">
        <ele>44</ele>
        <time>2013-05-02T12:31:52Z</time>
      </trkpt>
      <trkpt lat="47.70204" lon="-2.75483">
        <ele>44</ele>
        <time>2013-05-02T12:31:53Z</time>
      </trkpt>
      <trkpt lat="47.70206" lon="-2.75478">
        <ele>44</ele>
        <time>2013-05-02T12:31:54Z</time>
      </trkpt>
      <trkpt lat="47.70209" lon="-2.75476">
        <ele>44</ele>
        <time>2013-05-02T12:31:55Z</time>
      </trkpt>
      <trkpt lat="47.70212" lon="-2.75473">
        <ele>44</ele>
        <time>2013-05-02T12:31:56Z</time>
      </trkpt>
      <trkpt lat="47.70216" lon="-2.75469">
        <ele>44</ele>
        <time>2013-05-02T12:31:57Z</time>
      </trkpt>
      <trkpt lat="47.70218" lon="-2.75465">
        <ele>44</ele>
        <time>2013-05-02T12:31:58Z</time>
      </trkpt>
      <trkpt lat="47.70219" lon="-2.75461">
        <ele>44</ele>
        <time>2013-05-02T12:31:59Z</time>
      </trkpt>
      <trkpt lat="47.70221" lon="-2.75455">
        <ele>44</ele>
        <time>2013-05-02T12:32:00Z</time>
      </trkpt>
      <trkpt lat="47.70222" lon="-2.7545">
        <ele>44</ele>
        <time>2013-05-02T12:32:01Z</time>
      </trkpt>
      <trkpt lat="47.70222" lon="-2.75445">
        <ele>44</ele>
        <time>2013-05-02T12:32:02Z</time>
      </trkpt>
      <trkpt lat="47.70222" lon="-2.7544">
        <ele>44</ele>
        <time>2013-05-02T12:32:03Z</time>
      </trkpt>
      <trkpt lat="47.70222" lon="-2.75434">
        <ele>44</ele>
        <time>2013-05-02T12:32:04Z</time>
      </trkpt>
      <trkpt lat="47.70221" lon="-2.75428">
        <ele>44</ele>
        <time>2013-05-02T12:32:05Z</time>
      </trkpt>
      <trkpt lat="47.70218" lon="-2.75422">
        <ele>44</ele>
        <time>2013-05-02T12:32:06Z</time>
      </trkpt>
      <trkpt lat="47.70216" lon="-2.75417">
        <ele>44</ele>
        <time>2013-05-02T12:32:07Z</time>
      </trkpt>
      <trkpt lat="47.70213" lon="-2.75413">
        <ele>44</ele>
        <time>2013-05-02T12:32:08Z</time>
      </trkpt>
      <trkpt lat="47.70211" lon="-2.7541">
        <ele>45</ele>
        <time>2013-05-02T12:32:09Z</time>
      </trkpt>
      <trkpt lat="47.7021" lon="-2.75407">
        <ele>46</ele>
        <time>2013-05-02T12:32:10Z</time>
      </trkpt>
      <trkpt lat="47.7021" lon="-2.75405">
        <ele>47</ele>
        <time>2013-05-02T12:32:11Z</time>
      </trkpt>
      <trkpt lat="47.70209" lon="-2.75402">
        <ele>48</ele>
        <time>2013-05-02T12:32:12Z</time>
      </trkpt>
      <trkpt lat="47.70208" lon="-2.75399">
        <ele>49</ele>
        <time>2013-05-02T12:32:13Z</time>
      </trkpt>
      <trkpt lat="47.70209" lon="-2.75395">
        <ele>49</ele>
        <time>2013-05-02T12:32:14Z</time>
      </trkpt>
      <trkpt lat="47.70209" lon="-2.75392">
        <ele>50</ele>
        <time>2013-05-02T12:32:15Z</time>
      </trkpt>
      <trkpt lat="47.7021" lon="-2.75389">
        <ele>50</ele>
        <time>2013-05-02T12:32:16Z</time>
      </trkpt>
      <trkpt lat="47.7021" lon="-2.75385">
        <ele>50</ele>
        <time>2013-05-02T12:32:17Z</time>
      </trkpt>
      <trkpt lat="47.70211" lon="-2.75382">
        <ele>51</ele>
        <time>2013-05-02T12:32:18Z</time>
      </trkpt>
      <trkpt lat="47.70211" lon="-2.75379">
        <ele>51</ele>
        <time>2013-05-02T12:32:19Z</time>
      </trkpt>
      <trkpt lat="47.70213" lon="-2.75376">
        <ele>52</ele>
        <time>2013-05-02T12:32:20Z</time>
      </trkpt>
      <trkpt lat="47.70213" lon="-2.75372">
        <ele>52</ele>
        <time>2013-05-02T12:32:21Z</time>
      </trkpt>
      <trkpt lat="47.70214" lon="-2.75369">
        <ele>52</ele>
        <time>2013-05-02T12:32:22Z</time>
      </trkpt>
      <trkpt lat="47.70215" lon="-2.75364">
        <ele>53</ele>
        <time>2013-05-02T12:32:23Z</time>
      </trkpt>
      <trkpt lat="47.70215" lon="-2.7536">
        <ele>53</ele>
        <time>2013-05-02T12:32:24Z</time>
      </trkpt>
      <trkpt lat="47.70215" lon="-2.75356">
        <ele>53</ele>
        <time>2013-05-02T12:32:25Z</time>
      </trkpt>
      <trkpt lat="47.70214" lon="-2.75352">
        <ele>53</ele>
        <time>2013-05-02T12:32:26Z</time>
      </trkpt>
      <trkpt lat="47.70213" lon="-2.75349">
        <ele>53</ele>
        <time>2013-05-02T12:32:27Z</time>
      </trkpt>
      <trkpt lat="47.70213" lon="-2.75345">
        <ele>53</ele>
        <time>2013-05-02T12:32:28Z</time>
      </trkpt>
      <trkpt lat="47.70211" lon="-2.75342">
        <ele>53</ele>
        <time>2013-05-02T12:32:29Z</time>
      </trkpt>
      <trkpt lat="47.7021" lon="-2.75339">
        <ele>53</ele>
        <time>2013-05-02T12:32:30Z</time>
      </trkpt>
      <trkpt lat="47.70208" lon="-2.75335">
        <ele>53</ele>
        <time>2013-05-02T12:32:31Z</time>
      </trkpt>
      <trkpt lat="47.70207" lon="-2.7533">
        <ele>53</ele>
        <time>2013-05-02T12:32:32Z</time>
      </trkpt>
      <trkpt lat="47.70205" lon="-2.75326">
        <ele>53</ele>
        <time>2013-05-02T12:32:33Z</time>
      </trkpt>
      <trkpt lat="47.70203" lon="-2.75321">
        <ele>53</ele>
        <time>2013-05-02T12:32:34Z</time>
      </trkpt>
      <trkpt lat="47.70201" lon="-2.75317">
        <ele>53</ele>
        <time>2013-05-02T12:32:35Z</time>
      </trkpt>
      <trkpt lat="47.70199" lon="-2.75313">
        <ele>53</ele>
        <time>2013-05-02T12:32:36Z</time>
      </trkpt>
      <trkpt lat="47.70197" lon="-2.75309">
        <ele>53</ele>
        <time>2013-05-02T12:32:37Z</time>
      </trkpt>
      <trkpt lat="47.70195" lon="-2.75305">
        <ele>53</ele>
        <time>2013-05-02T12:32:38Z</time>
      </trkpt>
      <trkpt lat="47.70192" lon="-2.75301">
        <ele>53</ele>
        <time>2013-05-02T12:32:39Z</time>
      </trkpt>
      <trkpt lat="47.70189" lon="-2.75297">
        <ele>53</ele>
        <time>2013-05-02T12:32:40Z</time>
      </trkpt>
      <trkpt lat="47.70187" lon="-2.75293">
        <ele>53</ele>
        <time>2013-05-02T12:32:41Z</time>
      </trkpt>
      <trkpt lat="47.70186" lon="-2.75288">
        <ele>53</ele>
        <time>2013-05-02T12:32:42Z</time>
      </trkpt>
      <trkpt lat="47.70184" lon="-2.75283">
        <ele>53</ele>
        <time>2013-05-02T12:32:43Z</time>
      </trkpt>
      <trkpt lat="47.70182" lon="-2.75277">
        <ele>53</ele>
        <time>2013-05-02T12:32:44Z</time>
      </trkpt>
      <trkpt lat="47.7018" lon="-2.75272">
        <ele>53</ele>
        <time>2013-05-02T12:32:45Z</time>
      </trkpt>
      <trkpt lat="47.70178" lon="-2.75267">
        <ele>53</ele>
        <time>2013-05-02T12:32:46Z</time>
      </trkpt>
      <trkpt lat="47.70176" lon="-2.75262">
        <ele>53</ele>
        <time>2013-05-02T12:32:47Z</time>
      </trkpt>
      <trkpt lat="47.70175" lon="-2.75257">
        <ele>53</ele>
        <time>2013-05-02T12:32:48Z</time>
      </trkpt>
      <trkpt lat="47.70173" lon="-2.75252">
        <ele>53</ele>
        <time>2013-05-02T12:32:49Z</time>
      </trkpt>
      <trkpt lat="47.70171" lon="-2.75246">
        <ele>53</ele>
        <time>2013-05-02T12:32:50Z</time>
      </trkpt>
      <trkpt lat="47.70169" lon="-2.7524">
        <ele>53</ele>
        <time>2013-05-02T12:32:51Z</time>
      </trkpt>
      <trkpt lat="47.70168" lon="-2.75235">
        <ele>53</ele>
        <time>2013-05-02T12:32:52Z</time>
      </trkpt>
      <trkpt lat="47.70166" lon="-2.75229">
        <ele>53</ele>
        <time>2013-05-02T12:32:53Z</time>
      </trkpt>
      <trkpt lat="47.70165" lon="-2.75222">
        <ele>53</ele>
        <time>2013-05-02T12:32:54Z</time>
      </trkpt>
      <trkpt lat="47.70163" lon="-2.75216">
        <ele>53</ele>
        <time>2013-05-02T12:32:55Z</time>
      </trkpt>
      <trkpt lat="47.70161" lon="-2.7521">
        <ele>53</ele>
        <time>2013-05-02T12:32:56Z</time>
      </trkpt>
      <trkpt lat="47.70159" lon="-2.75204">
        <ele>53</ele>
        <time>2013-05-02T12:32:57Z</time>
      </trkpt>
      <trkpt lat="47.70157" lon="-2.75198">
        <ele>53</ele>
        <time>2013-05-02T12:32:58Z</time>
      </trkpt>
      <trkpt lat="47.70155" lon="-2.75192">
        <ele>52</ele>
        <time>2013-05-02T12:32:59Z</time>
      </trkpt>
      <trkpt lat="47.70153" lon="-2.75185">
        <ele>52</ele>
        <time>2013-05-02T12:33:00Z</time>
      </trkpt>
      <trkpt lat="47.70151" lon="-2.75179">
        <ele>52</ele>
        <time>2013-05-02T12:33:01Z</time>
      </trkpt>
      <trkpt lat="47.70149" lon="-2.75172">
        <ele>52</ele>
        <time>2013-05-02T12:33:02Z</time>
      </trkpt>
      <trkpt lat="47.70147" lon="-2.75166">
        <ele>52</ele>
        <time>2013-05-02T12:33:03Z</time>
      </trkpt>
      <trkpt lat="47.70145" lon="-2.75159">
        <ele>52</ele>
        <time>2013-05-02T12:33:04Z</time>
      </trkpt>
      <trkpt lat="47.70143" lon="-2.75151">
        <ele>52</ele>
        <time>2013-05-02T12:33:05Z</time>
      </trkpt>
      <trkpt lat="47.70141" lon="-2.75145">
        <ele>52</ele>
        <time>2013-05-02T12:33:06Z</time>
      </trkpt>
      <trkpt lat="47.70139" lon="-2.75138">
        <ele>52</ele>
        <time>2013-05-02T12:33:07Z</time>
      </trkpt>
      <trkpt lat="47.70137" lon="-2.75132">
        <ele>52</ele>
        <time>2013-05-02T12:33:08Z</time>
      </trkpt>
      <trkpt lat="47.70134" lon="-2.75125">
        <ele>52</ele>
        <time>2013-05-02T12:33:09Z</time>
      </trkpt>
      <trkpt lat="47.70133" lon="-2.75118">
        <ele>52</ele>
        <time>2013-05-02T12:33:10Z</time>
      </trkpt>
      <trkpt lat="47.7013" lon="-2.75111">
        <ele>52</ele>
        <time>2013-05-02T12:33:11Z</time>
      </trkpt>
      <trkpt lat="47.70128" lon="-2.75104">
        <ele>52</ele>
        <time>2013-05-02T12:33:12Z</time>
      </trkpt>
      <trkpt lat="47.70126" lon="-2.75098">
        <ele>52</ele>
        <time>2013-05-02T12:33:13Z</time>
      </trkpt>
      <trkpt lat="47.70124" lon="-2.75091">
        <ele>52</ele>
        <time>2013-05-02T12:33:14Z</time>
      </trkpt>
      <trkpt lat="47.70122" lon="-2.75084">
        <ele>52</ele>
        <time>2013-05-02T12:33:15Z</time>
      </trkpt>
      <trkpt lat="47.7012" lon="-2.75077">
        <ele>52</ele>
        <time>2013-05-02T12:33:16Z</time>
      </trkpt>
      <trkpt lat="47.70118" lon="-2.7507">
        <ele>52</ele>
        <time>2013-05-02T12:33:17Z</time>
      </trkpt>
      <trkpt lat="47.70116" lon="-2.75063">
        <ele>52</ele>
        <time>2013-05-02T12:33:18Z</time>
      </trkpt>
      <trkpt lat="47.70113" lon="-2.75057">
        <ele>52</ele>
        <time>2013-05-02T12:33:19Z</time>
      </trkpt>
      <trkpt lat="47.70111" lon="-2.75051">
        <ele>52</ele>
        <time>2013-05-02T12:33:20Z</time>
      </trkpt>
      <trkpt lat="47.70108" lon="-2.75045">
        <ele>52</ele>
        <time>2013-05-02T12:33:21Z</time>
      </trkpt>
      <trkpt lat="47.70106" lon="-2.75039">
        <ele>52</ele>
        <time>2013-05-02T12:33:22Z</time>
      </trkpt>
      <trkpt lat="47.70104" lon="-2.75032">
        <ele>52</ele>
        <time>2013-05-02T12:33:23Z</time>
      </trkpt>
      <trkpt lat="47.70101" lon="-2.75026">
        <ele>52</ele>
        <time>2013-05-02T12:33:24Z</time>
      </trkpt>
      <trkpt lat="47.70099" lon="-2.75019">
        <ele>52</ele>
        <time>2013-05-02T12:33:25Z</time>
      </trkpt>
      <trkpt lat="47.70097" lon="-2.75013">
        <ele>52</ele>
        <time>2013-05-02T12:33:26Z</time>
      </trkpt>
      <trkpt lat="47.70094" lon="-2.75006">
        <ele>52</ele>
        <time>2013-05-02T12:33:27Z</time>
      </trkpt>
      <trkpt lat="47.70092" lon="-2.75001">
        <ele>52</ele>
        <time>2013-05-02T12:33:28Z</time>
      </trkpt>
      <trkpt lat="47.70089" lon="-2.74998">
        <ele>52</ele>
        <time>2013-05-02T12:33:29Z</time>
      </trkpt>
      <trkpt lat="47.70086" lon="-2.74998">
        <ele>52</ele>
        <time>2013-05-02T12:33:30Z</time>
      </trkpt>
      <trkpt lat="47.70081" lon="-2.75001">
        <ele>52</ele>
        <time>2013-05-02T12:33:31Z</time>
      </trkpt>
      <trkpt lat="47.70077" lon="-2.75004">
        <ele>52</ele>
        <time>2013-05-02T12:33:32Z</time>
      </trkpt>
      <trkpt lat="47.70073" lon="-2.75006">
        <ele>52</ele>
        <time>2013-05-02T12:33:33Z</time>
      </trkpt>
      <trkpt lat="47.70069" lon="-2.75009">
        <ele>52</ele>
        <time>2013-05-02T12:33:34Z</time>
      </trkpt>
      <trkpt lat="47.70065" lon="-2.75011">
        <ele>52</ele>
        <time>2013-05-02T12:33:35Z</time>
      </trkpt>
      <trkpt lat="47.70061" lon="-2.75014">
        <ele>52</ele>
        <time>2013-05-02T12:33:36Z</time>
      </trkpt>
      <trkpt lat="47.70056" lon="-2.75016">
        <ele>52</ele>
        <time>2013-05-02T12:33:37Z</time>
      </trkpt>
      <trkpt lat="47.70052" lon="-2.75019">
        <ele>52</ele>
        <time>2013-05-02T12:33:38Z</time>
      </trkpt>
      <trkpt lat="47.70047" lon="-2.75022">
        <ele>52</ele>
        <time>2013-05-02T12:33:39Z</time>
      </trkpt>
      <trkpt lat="47.70042" lon="-2.75025">
        <ele>52</ele>
        <time>2013-05-02T12:33:40Z</time>
      </trkpt>
      <trkpt lat="47.70037" lon="-2.75029">
        <ele>52</ele>
        <time>2013-05-02T12:33:41Z</time>
      </trkpt>
      <trkpt lat="47.70032" lon="-2.75033">
        <ele>52</ele>
        <time>2013-05-02T12:33:42Z</time>
      </trkpt>
      <trkpt lat="47.70026" lon="-2.75037">
        <ele>52</ele>
        <time>2013-05-02T12:33:43Z</time>
      </trkpt>
      <trkpt lat="47.70021" lon="-2.75041">
        <ele>52</ele>
        <time>2013-05-02T12:33:44Z</time>
      </trkpt>
      <trkpt lat="47.70015" lon="-2.75045">
        <ele>52</ele>
        <time>2013-05-02T12:33:45Z</time>
      </trkpt>
      <trkpt lat="47.7001" lon="-2.75049">
        <ele>52</ele>
        <time>2013-05-02T12:33:46Z</time>
      </trkpt>
      <trkpt lat="47.70004" lon="-2.75052">
        <ele>52</ele>
        <time>2013-05-02T12:33:47Z</time>
      </trkpt>
      <trkpt lat="47.69998" lon="-2.75056">
        <ele>52</ele>
        <time>2013-05-02T12:33:48Z</time>
      </trkpt>
      <trkpt lat="47.69993" lon="-2.75061">
        <ele>52</ele>
        <time>2013-05-02T12:33:49Z</time>
      </trkpt>
      <trkpt lat="47.69987" lon="-2.75065">
        <ele>52</ele>
        <time>2013-05-02T12:33:50Z</time>
      </trkpt>
      <trkpt lat="47.69982" lon="-2.75069">
        <ele>52</ele>
        <time>2013-05-02T12:33:51Z</time>
      </trkpt>
      <trkpt lat="47.69977" lon="-2.75073">
        <ele>52</ele>
        <time>2013-05-02T12:33:52Z</time>
      </trkpt>
      <trkpt lat="47.69971" lon="-2.75076">
        <ele>52</ele>
        <time>2013-05-02T12:33:53Z</time>
      </trkpt>
      <trkpt lat="47.69966" lon="-2.75078">
        <ele>52</ele>
        <time>2013-05-02T12:33:54Z</time>
      </trkpt>
      <trkpt lat="47.69961" lon="-2.75079">
        <ele>52</ele>
        <time>2013-05-02T12:33:55Z</time>
      </trkpt>
      <trkpt lat="47.69956" lon="-2.75079">
        <ele>52</ele>
        <time>2013-05-02T12:33:56Z</time>
      </trkpt>
      <trkpt lat="47.69952" lon="-2.75076">
        <ele>52</ele>
        <time>2013-05-02T12:33:57Z</time>
      </trkpt>
      <trkpt lat="47.69949" lon="-2.75073">
        <ele>52</ele>
        <time>2013-05-02T12:33:58Z</time>
      </trkpt>
      <trkpt lat="47.69946" lon="-2.7507">
        <ele>52</ele>
        <time>2013-05-02T12:33:59Z</time>
      </trkpt>
      <trkpt lat="47.69943" lon="-2.75067">
        <ele>52</ele>
        <time>2013-05-02T12:34:00Z</time>
      </trkpt>
      <trkpt lat="47.69939" lon="-2.75063">
        <ele>52</ele>
        <time>2013-05-02T12:34:01Z</time>
      </trkpt>
      <trkpt lat="47.69935" lon="-2.7506">
        <ele>52</ele>
        <time>2013-05-02T12:34:02Z</time>
      </trkpt>
      <trkpt lat="47.69929" lon="-2.75056">
        <ele>51</ele>
        <time>2013-05-02T12:34:03Z</time>
      </trkpt>
      <trkpt lat="47.69923" lon="-2.75051">
        <ele>51</ele>
        <time>2013-05-02T12:34:04Z</time>
      </trkpt>
      <trkpt lat="47.69918" lon="-2.75048">
        <ele>50</ele>
        <time>2013-05-02T12:34:05Z</time>
      </trkpt>
      <trkpt lat="47.69912" lon="-2.75046">
        <ele>49</ele>
        <time>2013-05-02T12:34:06Z</time>
      </trkpt>
      <trkpt lat="47.69906" lon="-2.75045">
        <ele>49</ele>
        <time>2013-05-02T12:34:07Z</time>
      </trkpt>
      <trkpt lat="47.699" lon="-2.75044">
        <ele>48</ele>
        <time>2013-05-02T12:34:08Z</time>
      </trkpt>
      <trkpt lat="47.69894" lon="-2.75044">
        <ele>48</ele>
        <time>2013-05-02T12:34:09Z</time>
      </trkpt>
      <trkpt lat="47.69889" lon="-2.75046">
        <ele>48</ele>
        <time>2013-05-02T12:34:10Z</time>
      </trkpt>
      <trkpt lat="47.69884" lon="-2.75049">
        <ele>48</ele>
        <time>2013-05-02T12:34:11Z</time>
      </trkpt>
      <trkpt lat="47.6988" lon="-2.75053">
        <ele>48</ele>
        <time>2013-05-02T12:34:12Z</time>
      </trkpt>
      <trkpt lat="47.69876" lon="-2.75057">
        <ele>48</ele>
        <time>2013-05-02T12:34:13Z</time>
      </trkpt>
      <trkpt lat="47.69872" lon="-2.75062">
        <ele>48</ele>
        <time>2013-05-02T12:34:14Z</time>
      </trkpt>
      <trkpt lat="47.69869" lon="-2.75066">
        <ele>48</ele>
        <time>2013-05-02T12:34:15Z</time>
      </trkpt>
      <trkpt lat="47.69865" lon="-2.75071">
        <ele>48</ele>
        <time>2013-05-02T12:34:16Z</time>
      </trkpt>
      <trkpt lat="47.69862" lon="-2.75077">
        <ele>48</ele>
        <time>2013-05-02T12:34:17Z</time>
      </trkpt>
      <trkpt lat="47.69859" lon="-2.75082">
        <ele>48</ele>
        <time>2013-05-02T12:34:18Z</time>
      </trkpt>
      <trkpt lat="47.69856" lon="-2.75088">
        <ele>48</ele>
        <time>2013-05-02T12:34:19Z</time>
      </trkpt>
      <trkpt lat="47.69852" lon="-2.75097">
        <ele>48</ele>
        <time>2013-05-02T12:34:20Z</time>
      </trkpt>
      <trkpt lat="47.69849" lon="-2.75104">
        <ele>48</ele>
        <time>2013-05-02T12:34:21Z</time>
      </trkpt>
      <trkpt lat="47.69845" lon="-2.75109">
        <ele>48</ele>
        <time>2013-05-02T12:34:22Z</time>
      </trkpt>
      <trkpt lat="47.69841" lon="-2.75114">
        <ele>48</ele>
        <time>2013-05-02T12:34:23Z</time>
      </trkpt>
      <trkpt lat="47.69837" lon="-2.75118">
        <ele>48</ele>
        <time>2013-05-02T12:34:24Z</time>
      </trkpt>
      <trkpt lat="47.69832" lon="-2.75119">
        <ele>48</ele>
        <time>2013-05-02T12:34:25Z</time>
      </trkpt>
      <trkpt lat="47.69828" lon="-2.75118">
        <ele>48</ele>
        <time>2013-05-02T12:34:26Z</time>
      </trkpt>
      <trkpt lat="47.69824" lon="-2.75116">
        <ele>48</ele>
        <time>2013-05-02T12:34:27Z</time>
      </trkpt>
      <trkpt lat="47.6982" lon="-2.75115">
        <ele>48</ele>
        <time>2013-05-02T12:34:28Z</time>
      </trkpt>
      <trkpt lat="47.69817" lon="-2.75114">
        <ele>48</ele>
        <time>2013-05-02T12:34:29Z</time>
      </trkpt>
      <trkpt lat="47.69813" lon="-2.75116">
        <ele>48</ele>
        <time>2013-05-02T12:34:30Z</time>
      </trkpt>
      <trkpt lat="47.6981" lon="-2.75119">
        <ele>48</ele>
        <time>2013-05-02T12:34:31Z</time>
      </trkpt>
      <trkpt lat="47.69807" lon="-2.75122">
        <ele>48</ele>
        <time>2013-05-02T12:34:32Z</time>
      </trkpt>
      <trkpt lat="47.69804" lon="-2.75125">
        <ele>48</ele>
        <time>2013-05-02T12:34:33Z</time>
      </trkpt>
      <trkpt lat="47.698" lon="-2.75129">
        <ele>48</ele>
        <time>2013-05-02T12:34:34Z</time>
      </trkpt>
      <trkpt lat="47.69796" lon="-2.75132">
        <ele>48</ele>
        <time>2013-05-02T12:34:35Z</time>
      </trkpt>
      <trkpt lat="47.69792" lon="-2.75135">
        <ele>48</ele>
        <time>2013-05-02T12:34:36Z</time>
      </trkpt>
      <trkpt lat="47.69788" lon="-2.75138">
        <ele>48</ele>
        <time>2013-05-02T12:34:37Z</time>
      </trkpt>
      <trkpt lat="47.69784" lon="-2.75142">
        <ele>48</ele>
        <time>2013-05-02T12:34:38Z</time>
      </trkpt>
      <trkpt lat="47.6978" lon="-2.75146">
        <ele>48</ele>
        <time>2013-05-02T12:34:39Z</time>
      </trkpt>
      <trkpt lat="47.69775" lon="-2.75149">
        <ele>48</ele>
        <time>2013-05-02T12:34:40Z</time>
      </trkpt>
      <trkpt lat="47.69771" lon="-2.75151">
        <ele>48</ele>
        <time>2013-05-02T12:34:41Z</time>
      </trkpt>
      <trkpt lat="47.69767" lon="-2.75154">
        <ele>48</ele>
        <time>2013-05-02T12:34:42Z</time>
      </trkpt>
      <trkpt lat="47.69764" lon="-2.75156">
        <ele>48</ele>
        <time>2013-05-02T12:34:43Z</time>
      </trkpt>
      <trkpt lat="47.69761" lon="-2.75157">
        <ele>48</ele>
        <time>2013-05-02T12:34:44Z</time>
      </trkpt>
      <trkpt lat="47.69758" lon="-2.75158">
        <ele>48</ele>
        <time>2013-05-02T12:34:45Z</time>
      </trkpt>
      <trkpt lat="47.69756" lon="-2.75157">
        <ele>48</ele>
        <time>2013-05-02T12:34:46Z</time>
      </trkpt>
      <trkpt lat="47.69754" lon="-2.75154">
        <ele>48</ele>
        <time>2013-05-02T12:34:47Z</time>
      </trkpt>
      <trkpt lat="47.69753" lon="-2.7515">
        <ele>48</ele>
        <time>2013-05-02T12:34:48Z</time>
      </trkpt>
      <trkpt lat="47.69753" lon="-2.75146">
        <ele>48</ele>
        <time>2013-05-02T12:34:49Z</time>
      </trkpt>
      <trkpt lat="47.69752" lon="-2.75141">
        <ele>48</ele>
        <time>2013-05-02T12:34:50Z</time>
      </trkpt>
      <trkpt lat="47.69751" lon="-2.75135">
        <ele>48</ele>
        <time>2013-05-02T12:34:51Z</time>
      </trkpt>
      <trkpt lat="47.6975" lon="-2.7513">
        <ele>48</ele>
        <time>2013-05-02T12:34:52Z</time>
      </trkpt>
      <trkpt lat="47.69749" lon="-2.75124">
        <ele>48</ele>
        <time>2013-05-02T12:34:53Z</time>
      </trkpt>
      <trkpt lat="47.69748" lon="-2.75118">
        <ele>48</ele>
        <time>2013-05-02T12:34:54Z</time>
      </trkpt>
      <trkpt lat="47.69747" lon="-2.75112">
        <ele>48</ele>
        <time>2013-05-02T12:34:55Z</time>
      </trkpt>
      <trkpt lat="47.69746" lon="-2.75106">
        <ele>48</ele>
        <time>2013-05-02T12:34:56Z</time>
      </trkpt>
      <trkpt lat="47.69745" lon="-2.75099">
        <ele>48</ele>
        <time>2013-05-02T12:34:57Z</time>
      </trkpt>
      <trkpt lat="47.69743" lon="-2.75093">
        <ele>48</ele>
        <time>2013-05-02T12:34:58Z</time>
      </trkpt>
      <trkpt lat="47.69742" lon="-2.75086">
        <ele>48</ele>
        <time>2013-05-02T12:34:59Z</time>
      </trkpt>
      <trkpt lat="47.69741" lon="-2.75079">
        <ele>48</ele>
        <time>2013-05-02T12:35:00Z</time>
      </trkpt>
      <trkpt lat="47.6974" lon="-2.75073">
        <ele>48</ele>
        <time>2013-05-02T12:35:01Z</time>
      </trkpt>
      <trkpt lat="47.69739" lon="-2.75066">
        <ele>48</ele>
        <time>2013-05-02T12:35:02Z</time>
      </trkpt>
      <trkpt lat="47.69737" lon="-2.75061">
        <ele>48</ele>
        <time>2013-05-02T12:35:03Z</time>
      </trkpt>
      <trkpt lat="47.69734" lon="-2.75056">
        <ele>49</ele>
        <time>2013-05-02T12:35:04Z</time>
      </trkpt>
      <trkpt lat="47.69731" lon="-2.75054">
        <ele>49</ele>
        <time>2013-05-02T12:35:05Z</time>
      </trkpt>
      <trkpt lat="47.69727" lon="-2.75054">
        <ele>49</ele>
        <time>2013-05-02T12:35:06Z</time>
      </trkpt>
      <trkpt lat="47.69723" lon="-2.75055">
        <ele>49</ele>
        <time>2013-05-02T12:35:07Z</time>
      </trkpt>
      <trkpt lat="47.69719" lon="-2.75057">
        <ele>49</ele>
        <time>2013-05-02T12:35:08Z</time>
      </trkpt>
      <trkpt lat="47.69715" lon="-2.75058">
        <ele>49</ele>
        <time>2013-05-02T12:35:09Z</time>
      </trkpt>
      <trkpt lat="47.69711" lon="-2.7506">
        <ele>49</ele>
        <time>2013-05-02T12:35:10Z</time>
      </trkpt>
      <trkpt lat="47.69707" lon="-2.75061">
        <ele>49</ele>
        <time>2013-05-02T12:35:11Z</time>
      </trkpt>
      <trkpt lat="47.69703" lon="-2.75063">
        <ele>49</ele>
        <time>2013-05-02T12:35:12Z</time>
      </trkpt>
      <trkpt lat="47.69698" lon="-2.75065">
        <ele>49</ele>
        <time>2013-05-02T12:35:13Z</time>
      </trkpt>
      <trkpt lat="47.69695" lon="-2.75067">
        <ele>49</ele>
        <time>2013-05-02T12:35:14Z</time>
      </trkpt>
      <trkpt lat="47.69691" lon="-2.75069">
        <ele>49</ele>
        <time>2013-05-02T12:35:15Z</time>
      </trkpt>
      <trkpt lat="47.69687" lon="-2.75071">
        <ele>49</ele>
        <time>2013-05-02T12:35:16Z</time>
      </trkpt>
      <trkpt lat="47.69684" lon="-2.75072">
        <ele>49</ele>
        <time>2013-05-02T12:35:17Z</time>
      </trkpt>
      <trkpt lat="47.69681" lon="-2.75074">
        <ele>49</ele>
        <time>2013-05-02T12:35:18Z</time>
      </trkpt>
      <trkpt lat="47.69679" lon="-2.75075">
        <ele>49</ele>
        <time>2013-05-02T12:35:19Z</time>
      </trkpt>
      <trkpt lat="47.69677" lon="-2.75076">
        <ele>49</ele>
        <time>2013-05-02T12:35:20Z</time>
      </trkpt>
      <trkpt lat="47.69676" lon="-2.75076">
        <ele>49</ele>
        <time>2013-05-02T12:35:21Z</time>
      </trkpt>
      <trkpt lat="47.69674" lon="-2.75076">
        <ele>49</ele>
        <time>2013-05-02T12:35:22Z</time>
      </trkpt>
      <trkpt lat="47.69672" lon="-2.75073">
        <ele>49</ele>
        <time>2013-05-02T12:35:23Z</time>
      </trkpt>
      <trkpt lat="47.69671" lon="-2.75069">
        <ele>49</ele>
        <time>2013-05-02T12:35:24Z</time>
      </trkpt>
      <trkpt lat="47.6967" lon="-2.75065">
        <ele>49</ele>
        <time>2013-05-02T12:35:25Z</time>
      </trkpt>
      <trkpt lat="47.6967" lon="-2.75062">
        <ele>49</ele>
        <time>2013-05-02T12:35:26Z</time>
      </trkpt>
      <trkpt lat="47.6967" lon="-2.75058">
        <ele>49</ele>
        <time>2013-05-02T12:35:27Z</time>
      </trkpt>
      <trkpt lat="47.6967" lon="-2.75054">
        <ele>49</ele>
        <time>2013-05-02T12:35:28Z</time>
      </trkpt>
      <trkpt lat="47.6967" lon="-2.7505">
        <ele>49</ele>
        <time>2013-05-02T12:35:29Z</time>
      </trkpt>
      <trkpt lat="47.69671" lon="-2.75047">
        <ele>49</ele>
        <time>2013-05-02T12:35:30Z</time>
      </trkpt>
      <trkpt lat="47.6967" lon="-2.75043">
        <ele>49</ele>
        <time>2013-05-02T12:35:31Z</time>
      </trkpt>
      <trkpt lat="47.6967" lon="-2.75039">
        <ele>49</ele>
        <time>2013-05-02T12:35:32Z</time>
      </trkpt>
      <trkpt lat="47.6967" lon="-2.75034">
        <ele>49</ele>
        <time>2013-05-02T12:35:33Z</time>
      </trkpt>
      <trkpt lat="47.6967" lon="-2.7503">
        <ele>49</ele>
        <time>2013-05-02T12:35:34Z</time>
      </trkpt>
      <trkpt lat="47.69669" lon="-2.75025">
        <ele>49</ele>
        <time>2013-05-02T12:35:35Z</time>
      </trkpt>
      <trkpt lat="47.69669" lon="-2.7502">
        <ele>49</ele>
        <time>2013-05-02T12:35:36Z</time>
      </trkpt>
      <trkpt lat="47.69668" lon="-2.75015">
        <ele>49</ele>
        <time>2013-05-02T12:35:37Z</time>
      </trkpt>
      <trkpt lat="47.69668" lon="-2.7501">
        <ele>49</ele>
        <time>2013-05-02T12:35:38Z</time>
      </trkpt>
      <trkpt lat="47.69668" lon="-2.75007">
        <ele>49</ele>
        <time>2013-05-02T12:35:39Z</time>
      </trkpt>
      <trkpt lat="47.69667" lon="-2.75005">
        <ele>49</ele>
        <time>2013-05-02T12:35:40Z</time>
      </trkpt>
      <trkpt lat="47.69666" lon="-2.75004">
        <ele>49</ele>
        <time>2013-05-02T12:35:41Z</time>
      </trkpt>
      <trkpt lat="47.69664" lon="-2.75004">
        <ele>49</ele>
        <time>2013-05-02T12:35:42Z</time>
      </trkpt>
      <trkpt lat="47.69662" lon="-2.75005">
        <ele>49</ele>
        <time>2013-05-02T12:35:43Z</time>
      </trkpt>
      <trkpt lat="47.69661" lon="-2.75006">
        <ele>49</ele>
        <time>2013-05-02T12:35:44Z</time>
      </trkpt>
      <trkpt lat="47.69659" lon="-2.75007">
        <ele>49</ele>
        <time>2013-05-02T12:35:45Z</time>
      </trkpt>
      <trkpt lat="47.69657" lon="-2.75008">
        <ele>49</ele>
        <time>2013-05-02T12:35:46Z</time>
      </trkpt>
      <trkpt lat="47.69655" lon="-2.75009">
        <ele>49</ele>
        <time>2013-05-02T12:35:47Z</time>
      </trkpt>
      <trkpt lat="47.69653" lon="-2.7501">
        <ele>49</ele>
        <time>2013-05-02T12:35:48Z</time>
      </trkpt>
      <trkpt lat="47.6965" lon="-2.7501">
        <ele>49</ele>
        <time>2013-05-02T12:35:49Z</time>
      </trkpt>
      <trkpt lat="47.69647" lon="-2.75012">
        <ele>49</ele>
        <time>2013-05-02T12:35:50Z</time>
      </trkpt>
      <trkpt lat="47.69644" lon="-2.75013">
        <ele>49</ele>
        <time>2013-05-02T12:35:51Z</time>
      </trkpt>
      <trkpt lat="47.69641" lon="-2.75015">
        <ele>49</ele>
        <time>2013-05-02T12:35:52Z</time>
      </trkpt>
      <trkpt lat="47.69638" lon="-2.75016">
        <ele>49</ele>
        <time>2013-05-02T12:35:53Z</time>
      </trkpt>
      <trkpt lat="47.69635" lon="-2.75018">
        <ele>49</ele>
        <time>2013-05-02T12:35:54Z</time>
      </trkpt>
      <trkpt lat="47.69631" lon="-2.75019">
        <ele>49</ele>
        <time>2013-05-02T12:35:55Z</time>
      </trkpt>
      <trkpt lat="47.69627" lon="-2.75021">
        <ele>49</ele>
        <time>2013-05-02T12:35:56Z</time>
      </trkpt>
      <trkpt lat="47.69624" lon="-2.75022">
        <ele>49</ele>
        <time>2013-05-02T12:35:57Z</time>
      </trkpt>
      <trkpt lat="47.6962" lon="-2.75024">
        <ele>49</ele>
        <time>2013-05-02T12:35:58Z</time>
      </trkpt>
      <trkpt lat="47.69616" lon="-2.75026">
        <ele>49</ele>
        <time>2013-05-02T12:35:59Z</time>
      </trkpt>
      <trkpt lat="47.69612" lon="-2.75027">
        <ele>49</ele>
        <time>2013-05-02T12:36:00Z</time>
      </trkpt>
      <trkpt lat="47.69608" lon="-2.75029">
        <ele>49</ele>
        <time>2013-05-02T12:36:01Z</time>
      </trkpt>
      <trkpt lat="47.69605" lon="-2.7503">
        <ele>49</ele>
        <time>2013-05-02T12:36:02Z</time>
      </trkpt>
      <trkpt lat="47.69601" lon="-2.75031">
        <ele>49</ele>
        <time>2013-05-02T12:36:03Z</time>
      </trkpt>
      <trkpt lat="47.69598" lon="-2.75033">
        <ele>49</ele>
        <time>2013-05-02T12:36:04Z</time>
      </trkpt>
      <trkpt lat="47.69595" lon="-2.75036">
        <ele>49</ele>
        <time>2013-05-02T12:36:05Z</time>
      </trkpt>
      <trkpt lat="47.69591" lon="-2.75038">
        <ele>50</ele>
        <time>2013-05-02T12:36:06Z</time>
      </trkpt>
      <trkpt lat="47.69587" lon="-2.75039">
        <ele>50</ele>
        <time>2013-05-02T12:36:07Z</time>
      </trkpt>
      <trkpt lat="47.69583" lon="-2.7504">
        <ele>50</ele>
        <time>2013-05-02T12:36:08Z</time>
      </trkpt>
      <trkpt lat="47.69579" lon="-2.75041">
        <ele>50</ele>
        <time>2013-05-02T12:36:09Z</time>
      </trkpt>
      <trkpt lat="47.69575" lon="-2.75043">
        <ele>50</ele>
        <time>2013-05-02T12:36:10Z</time>
      </trkpt>
      <trkpt lat="47.69571" lon="-2.75045">
        <ele>50</ele>
        <time>2013-05-02T12:36:11Z</time>
      </trkpt>
      <trkpt lat="47.69566" lon="-2.75047">
        <ele>50</ele>
        <time>2013-05-02T12:36:12Z</time>
      </trkpt>
      <trkpt lat="47.69561" lon="-2.75048">
        <ele>50</ele>
        <time>2013-05-02T12:36:13Z</time>
      </trkpt>
      <trkpt lat="47.69556" lon="-2.7505">
        <ele>50</ele>
        <time>2013-05-02T12:36:14Z</time>
      </trkpt>
      <trkpt lat="47.69551" lon="-2.75052">
        <ele>50</ele>
        <time>2013-05-02T12:36:15Z</time>
      </trkpt>
      <trkpt lat="47.69546" lon="-2.75055">
        <ele>50</ele>
        <time>2013-05-02T12:36:16Z</time>
      </trkpt>
      <trkpt lat="47.6954" lon="-2.75058">
        <ele>50</ele>
        <time>2013-05-02T12:36:17Z</time>
      </trkpt>
      <trkpt lat="47.69535" lon="-2.75061">
        <ele>50</ele>
        <time>2013-05-02T12:36:18Z</time>
      </trkpt>
      <trkpt lat="47.69531" lon="-2.75063">
        <ele>50</ele>
        <time>2013-05-02T12:36:19Z</time>
      </trkpt>
      <trkpt lat="47.69527" lon="-2.75065">
        <ele>50</ele>
        <time>2013-05-02T12:36:20Z</time>
      </trkpt>
      <trkpt lat="47.69523" lon="-2.75067">
        <ele>50</ele>
        <time>2013-05-02T12:36:21Z</time>
      </trkpt>
      <trkpt lat="47.69519" lon="-2.75067">
        <ele>50</ele>
        <time>2013-05-02T12:36:22Z</time>
      </trkpt>
      <trkpt lat="47.69516" lon="-2.75068">
        <ele>50</ele>
        <time>2013-05-02T12:36:23Z</time>
      </trkpt>
      <trkpt lat="47.69513" lon="-2.75068">
        <ele>50</ele>
        <time>2013-05-02T12:36:24Z</time>
      </trkpt>
      <trkpt lat="47.69509" lon="-2.75069">
        <ele>50</ele>
        <time>2013-05-02T12:36:25Z</time>
      </trkpt>
      <trkpt lat="47.69504" lon="-2.75071">
        <ele>50</ele>
        <time>2013-05-02T12:36:26Z</time>
      </trkpt>
      <trkpt lat="47.695" lon="-2.75073">
        <ele>50</ele>
        <time>2013-05-02T12:36:27Z</time>
      </trkpt>
      <trkpt lat="47.69496" lon="-2.75076">
        <ele>50</ele>
        <time>2013-05-02T12:36:28Z</time>
      </trkpt>
      <trkpt lat="47.69492" lon="-2.75078">
        <ele>50</ele>
        <time>2013-05-02T12:36:29Z</time>
      </trkpt>
      <trkpt lat="47.69487" lon="-2.7508">
        <ele>50</ele>
        <time>2013-05-02T12:36:30Z</time>
      </trkpt>
      <trkpt lat="47.69483" lon="-2.75082">
        <ele>50</ele>
        <time>2013-05-02T12:36:31Z</time>
      </trkpt>
      <trkpt lat="47.69479" lon="-2.75084">
        <ele>50</ele>
        <time>2013-05-02T12:36:32Z</time>
      </trkpt>
      <trkpt lat="47.69475" lon="-2.75087">
        <ele>50</ele>
        <time>2013-05-02T12:36:33Z</time>
      </trkpt>
      <trkpt lat="47.69473" lon="-2.75091">
        <ele>50</ele>
        <time>2013-05-02T12:36:34Z</time>
      </trkpt>
      <trkpt lat="47.69471" lon="-2.75097">
        <ele>50</ele>
        <time>2013-05-02T12:36:35Z</time>
      </trkpt>
      <trkpt lat="47.69471" lon="-2.75102">
        <ele>50</ele>
        <time>2013-05-02T12:36:36Z</time>
      </trkpt>
      <trkpt lat="47.69471" lon="-2.75108">
        <ele>50</ele>
        <time>2013-05-02T12:36:37Z</time>
      </trkpt>
      <trkpt lat="47.69473" lon="-2.75113">
        <ele>50</ele>
        <time>2013-05-02T12:36:38Z</time>
      </trkpt>
      <trkpt lat="47.69475" lon="-2.75118">
        <ele>50</ele>
        <time>2013-05-02T12:36:39Z</time>
      </trkpt>
      <trkpt lat="47.69477" lon="-2.75122">
        <ele>50</ele>
        <time>2013-05-02T12:36:40Z</time>
      </trkpt>
      <trkpt lat="47.69478" lon="-2.75127">
        <ele>50</ele>
        <time>2013-05-02T12:36:41Z</time>
      </trkpt>
      <trkpt lat="47.69478" lon="-2.75132">
        <ele>50</ele>
        <time>2013-05-02T12:36:42Z</time>
      </trkpt>
      <trkpt lat="47.69477" lon="-2.75135">
        <ele>50</ele>
        <time>2013-05-02T12:36:43Z</time>
      </trkpt>
      <trkpt lat="47.69475" lon="-2.75137">
        <ele>50</ele>
        <time>2013-05-02T12:36:44Z</time>
      </trkpt>
      <trkpt lat="47.69473" lon="-2.75139">
        <ele>49</ele>
        <time>2013-05-02T12:36:45Z</time>
      </trkpt>
      <trkpt lat="47.6947" lon="-2.75141">
        <ele>49</ele>
        <time>2013-05-02T12:36:46Z</time>
      </trkpt>
      <trkpt lat="47.69468" lon="-2.75142">
        <ele>49</ele>
        <time>2013-05-02T12:36:47Z</time>
      </trkpt>
      <trkpt lat="47.69465" lon="-2.75143">
        <ele>49</ele>
        <time>2013-05-02T12:36:48Z</time>
      </trkpt>
      <trkpt lat="47.69461" lon="-2.75144">
        <ele>49</ele>
        <time>2013-05-02T12:36:49Z</time>
      </trkpt>
      <trkpt lat="47.69459" lon="-2.75146">
        <ele>49</ele>
        <time>2013-05-02T12:36:50Z</time>
      </trkpt>
      <trkpt lat="47.69456" lon="-2.75148">
        <ele>49</ele>
        <time>2013-05-02T12:36:51Z</time>
      </trkpt>
      <trkpt lat="47.69454" lon="-2.75149">
        <ele>49</ele>
        <time>2013-05-02T12:36:52Z</time>
      </trkpt>
      <trkpt lat="47.69452" lon="-2.75149">
        <ele>49</ele>
        <time>2013-05-02T12:36:53Z</time>
      </trkpt>
      <trkpt lat="47.6945" lon="-2.7515">
        <ele>49</ele>
        <time>2013-05-02T12:36:54Z</time>
      </trkpt>
      <trkpt lat="47.69448" lon="-2.7515">
        <ele>49</ele>
        <time>2013-05-02T12:36:55Z</time>
      </trkpt>
      <trkpt lat="47.69447" lon="-2.75152">
        <ele>49</ele>
        <time>2013-05-02T12:36:58Z</time>
      </trkpt>
      <trkpt lat="47.69447" lon="-2.75154">
        <ele>49</ele>
        <time>2013-05-02T12:36:59Z</time>
      </trkpt>
      <trkpt lat="47.69445" lon="-2.75156">
        <ele>49</ele>
        <time>2013-05-02T12:37:00Z</time>
      </trkpt>
      <trkpt lat="47.69443" lon="-2.75158">
        <ele>49</ele>
        <time>2013-05-02T12:37:01Z</time>
      </trkpt>
      <trkpt lat="47.6944" lon="-2.75162">
        <ele>49</ele>
        <time>2013-05-02T12:37:02Z</time>
      </trkpt>
      <trkpt lat="47.69437" lon="-2.75166">
        <ele>49</ele>
        <time>2013-05-02T12:37:03Z</time>
      </trkpt>
      <trkpt lat="47.69436" lon="-2.75169">
        <ele>49</ele>
        <time>2013-05-02T12:37:04Z</time>
      </trkpt>
      <trkpt lat="47.69434" lon="-2.75173">
        <ele>49</ele>
        <time>2013-05-02T12:37:05Z</time>
      </trkpt>
      <trkpt lat="47.69432" lon="-2.75177">
        <ele>49</ele>
        <time>2013-05-02T12:37:06Z</time>
      </trkpt>
      <trkpt lat="47.69432" lon="-2.7518">
        <ele>49</ele>
        <time>2013-05-02T12:37:07Z</time>
      </trkpt>
      <trkpt lat="47.69432" lon="-2.75184">
        <ele>49</ele>
        <time>2013-05-02T12:37:08Z</time>
      </trkpt>
      <trkpt lat="47.69432" lon="-2.75188">
        <ele>49</ele>
        <time>2013-05-02T12:37:09Z</time>
      </trkpt>
      <trkpt lat="47.69434" lon="-2.75191">
        <ele>49</ele>
        <time>2013-05-02T12:37:10Z</time>
      </trkpt>
      <trkpt lat="47.69434" lon="-2.75195">
        <ele>49</ele>
        <time>2013-05-02T12:37:11Z</time>
      </trkpt>
      <trkpt lat="47.69435" lon="-2.75199">
        <ele>49</ele>
        <time>2013-05-02T12:37:12Z</time>
      </trkpt>
      <trkpt lat="47.69437" lon="-2.75204">
        <ele>49</ele>
        <time>2013-05-02T12:37:13Z</time>
      </trkpt>
      <trkpt lat="47.69438" lon="-2.75208">
        <ele>49</ele>
        <time>2013-05-02T12:37:14Z</time>
      </trkpt>
      <trkpt lat="47.6944" lon="-2.75213">
        <ele>49</ele>
        <time>2013-05-02T12:37:15Z</time>
      </trkpt>
      <trkpt lat="47.69443" lon="-2.75217">
        <ele>49</ele>
        <time>2013-05-02T12:37:16Z</time>
      </trkpt>
      <trkpt lat="47.69445" lon="-2.75223">
        <ele>49</ele>
        <time>2013-05-02T12:37:17Z</time>
      </trkpt>
      <trkpt lat="47.69445" lon="-2.75228">
        <ele>49</ele>
        <time>2013-05-02T12:37:18Z</time>
      </trkpt>
      <trkpt lat="47.69446" lon="-2.75234">
        <ele>49</ele>
        <time>2013-05-02T12:37:19Z</time>
      </trkpt>
      <trkpt lat="47.69447" lon="-2.75239">
        <ele>50</ele>
        <time>2013-05-02T12:37:20Z</time>
      </trkpt>
      <trkpt lat="47.69447" lon="-2.75245">
        <ele>50</ele>
        <time>2013-05-02T12:37:21Z</time>
      </trkpt>
      <trkpt lat="47.69448" lon="-2.7525">
        <ele>50</ele>
        <time>2013-05-02T12:37:22Z</time>
      </trkpt>
      <trkpt lat="47.69448" lon="-2.75256">
        <ele>50</ele>
        <time>2013-05-02T12:37:23Z</time>
      </trkpt>
      <trkpt lat="47.69449" lon="-2.75262">
        <ele>50</ele>
        <time>2013-05-02T12:37:24Z</time>
      </trkpt>
      <trkpt lat="47.6945" lon="-2.75267">
        <ele>50</ele>
        <time>2013-05-02T12:37:25Z</time>
      </trkpt>
      <trkpt lat="47.69453" lon="-2.75272">
        <ele>51</ele>
        <time>2013-05-02T12:37:26Z</time>
      </trkpt>
      <trkpt lat="47.69455" lon="-2.75277">
        <ele>51</ele>
        <time>2013-05-02T12:37:27Z</time>
      </trkpt>
      <trkpt lat="47.69457" lon="-2.75282">
        <ele>52</ele>
        <time>2013-05-02T12:37:28Z</time>
      </trkpt>
      <trkpt lat="47.69458" lon="-2.75289">
        <ele>52</ele>
        <time>2013-05-02T12:37:29Z</time>
      </trkpt>
      <trkpt lat="47.6946" lon="-2.75295">
        <ele>53</ele>
        <time>2013-05-02T12:37:30Z</time>
      </trkpt>
      <trkpt lat="47.69461" lon="-2.75302">
        <ele>54</ele>
        <time>2013-05-02T12:37:31Z</time>
      </trkpt>
      <trkpt lat="47.69463" lon="-2.75308">
        <ele>54</ele>
        <time>2013-05-02T12:37:32Z</time>
      </trkpt>
      <trkpt lat="47.69464" lon="-2.75315">
        <ele>55</ele>
        <time>2013-05-02T12:37:33Z</time>
      </trkpt>
      <trkpt lat="47.69466" lon="-2.75322">
        <ele>55</ele>
        <time>2013-05-02T12:37:34Z</time>
      </trkpt>
      <trkpt lat="47.69467" lon="-2.75329">
        <ele>55</ele>
        <time>2013-05-02T12:37:35Z</time>
      </trkpt>
      <trkpt lat="47.69469" lon="-2.75335">
        <ele>55</ele>
        <time>2013-05-02T12:37:36Z</time>
      </trkpt>
      <trkpt lat="47.69471" lon="-2.75342">
        <ele>56</ele>
        <time>2013-05-02T12:37:37Z</time>
      </trkpt>
      <trkpt lat="47.69472" lon="-2.75348">
        <ele>56</ele>
        <time>2013-05-02T12:37:38Z</time>
      </trkpt>
      <trkpt lat="47.69474" lon="-2.75355">
        <ele>56</ele>
        <time>2013-05-02T12:37:39Z</time>
      </trkpt>
      <trkpt lat="47.69475" lon="-2.75361">
        <ele>56</ele>
        <time>2013-05-02T12:37:40Z</time>
      </trkpt>
      <trkpt lat="47.69477" lon="-2.75367">
        <ele>56</ele>
        <time>2013-05-02T12:37:41Z</time>
      </trkpt>
      <trkpt lat="47.69479" lon="-2.75374">
        <ele>56</ele>
        <time>2013-05-02T12:37:42Z</time>
      </trkpt>
      <trkpt lat="47.6948" lon="-2.75381">
        <ele>56</ele>
        <time>2013-05-02T12:37:43Z</time>
      </trkpt>
      <trkpt lat="47.69482" lon="-2.75388">
        <ele>56</ele>
        <time>2013-05-02T12:37:44Z</time>
      </trkpt>
      <trkpt lat="47.69484" lon="-2.75395">
        <ele>56</ele>
        <time>2013-05-02T12:37:45Z</time>
      </trkpt>
      <trkpt lat="47.69486" lon="-2.75401">
        <ele>56</ele>
        <time>2013-05-02T12:37:46Z</time>
      </trkpt>
      <trkpt lat="47.69487" lon="-2.75408">
        <ele>56</ele>
        <time>2013-05-02T12:37:47Z</time>
      </trkpt>
      <trkpt lat="47.69489" lon="-2.75415">
        <ele>56</ele>
        <time>2013-05-02T12:37:48Z</time>
      </trkpt>
      <trkpt lat="47.69491" lon="-2.75421">
        <ele>56</ele>
        <time>2013-05-02T12:37:49Z</time>
      </trkpt>
      <trkpt lat="47.69493" lon="-2.75429">
        <ele>56</ele>
        <time>2013-05-02T12:37:50Z</time>
      </trkpt>
      <trkpt lat="47.69495" lon="-2.75436">
        <ele>56</ele>
        <time>2013-05-02T12:37:51Z</time>
      </trkpt>
      <trkpt lat="47.69497" lon="-2.75443">
        <ele>56</ele>
        <time>2013-05-02T12:37:52Z</time>
      </trkpt>
      <trkpt lat="47.69499" lon="-2.75451">
        <ele>56</ele>
        <time>2013-05-02T12:37:53Z</time>
      </trkpt>
      <trkpt lat="47.69501" lon="-2.75459">
        <ele>56</ele>
        <time>2013-05-02T12:37:54Z</time>
      </trkpt>
      <trkpt lat="47.69503" lon="-2.75466">
        <ele>56</ele>
        <time>2013-05-02T12:37:55Z</time>
      </trkpt>
      <trkpt lat="47.69505" lon="-2.75474">
        <ele>56</ele>
        <time>2013-05-02T12:37:56Z</time>
      </trkpt>
      <trkpt lat="47.69507" lon="-2.75481">
        <ele>56</ele>
        <time>2013-05-02T12:37:57Z</time>
      </trkpt>
      <trkpt lat="47.69508" lon="-2.75488">
        <ele>56</ele>
        <time>2013-05-02T12:37:58Z</time>
      </trkpt>
      <trkpt lat="47.6951" lon="-2.75496">
        <ele>56</ele>
        <time>2013-05-02T12:37:59Z</time>
      </trkpt>
      <trkpt lat="47.69512" lon="-2.75502">
        <ele>56</ele>
        <time>2013-05-02T12:38:00Z</time>
      </trkpt>
      <trkpt lat="47.69514" lon="-2.7551">
        <ele>56</ele>
        <time>2013-05-02T12:38:01Z</time>
      </trkpt>
      <trkpt lat="47.69516" lon="-2.75516">
        <ele>56</ele>
        <time>2013-05-02T12:38:02Z</time>
      </trkpt>
      <trkpt lat="47.69518" lon="-2.75523">
        <ele>56</ele>
        <time>2013-05-02T12:38:03Z</time>
      </trkpt>
      <trkpt lat="47.69519" lon="-2.7553">
        <ele>56</ele>
        <time>2013-05-02T12:38:04Z</time>
      </trkpt>
      <trkpt lat="47.69521" lon="-2.75537">
        <ele>56</ele>
        <time>2013-05-02T12:38:05Z</time>
      </trkpt>
      <trkpt lat="47.69524" lon="-2.75545">
        <ele>56</ele>
        <time>2013-05-02T12:38:06Z</time>
      </trkpt>
      <trkpt lat="47.69526" lon="-2.75551">
        <ele>56</ele>
        <time>2013-05-02T12:38:07Z</time>
      </trkpt>
      <trkpt lat="47.69528" lon="-2.75557">
        <ele>56</ele>
        <time>2013-05-02T12:38:08Z</time>
      </trkpt>
      <trkpt lat="47.6953" lon="-2.75563">
        <ele>56</ele>
        <time>2013-05-02T12:38:09Z</time>
      </trkpt>
      <trkpt lat="47.69531" lon="-2.75568">
        <ele>56</ele>
        <time>2013-05-02T12:38:10Z</time>
      </trkpt>
      <trkpt lat="47.69533" lon="-2.75573">
        <ele>56</ele>
        <time>2013-05-02T12:38:11Z</time>
      </trkpt>
      <trkpt lat="47.69535" lon="-2.75578">
        <ele>55</ele>
        <time>2013-05-02T12:38:12Z</time>
      </trkpt>
      <trkpt lat="47.69536" lon="-2.75584">
        <ele>55</ele>
        <time>2013-05-02T12:38:13Z</time>
      </trkpt>
      <trkpt lat="47.69537" lon="-2.7559">
        <ele>55</ele>
        <time>2013-05-02T12:38:14Z</time>
      </trkpt>
      <trkpt lat="47.6954" lon="-2.75596">
        <ele>55</ele>
        <time>2013-05-02T12:38:15Z</time>
      </trkpt>
      <trkpt lat="47.69542" lon="-2.75602">
        <ele>55</ele>
        <time>2013-05-02T12:38:16Z</time>
      </trkpt>
      <trkpt lat="47.69543" lon="-2.75609">
        <ele>55</ele>
        <time>2013-05-02T12:38:17Z</time>
      </trkpt>
      <trkpt lat="47.69545" lon="-2.75616">
        <ele>55</ele>
        <time>2013-05-02T12:38:18Z</time>
      </trkpt>
      <trkpt lat="47.69547" lon="-2.75623">
        <ele>55</ele>
        <time>2013-05-02T12:38:19Z</time>
      </trkpt>
      <trkpt lat="47.69549" lon="-2.7563">
        <ele>55</ele>
        <time>2013-05-02T12:38:20Z</time>
      </trkpt>
      <trkpt lat="47.69551" lon="-2.75637">
        <ele>55</ele>
        <time>2013-05-02T12:38:21Z</time>
      </trkpt>
      <trkpt lat="47.69553" lon="-2.75644">
        <ele>55</ele>
        <time>2013-05-02T12:38:22Z</time>
      </trkpt>
      <trkpt lat="47.69555" lon="-2.75652">
        <ele>55</ele>
        <time>2013-05-02T12:38:23Z</time>
      </trkpt>
      <trkpt lat="47.69558" lon="-2.7566">
        <ele>54</ele>
        <time>2013-05-02T12:38:24Z</time>
      </trkpt>
      <trkpt lat="47.6956" lon="-2.7567">
        <ele>54</ele>
        <time>2013-05-02T12:38:25Z</time>
      </trkpt>
      <trkpt lat="47.69562" lon="-2.7568">
        <ele>53</ele>
        <time>2013-05-02T12:38:26Z</time>
      </trkpt>
      <trkpt lat="47.69565" lon="-2.75688">
        <ele>53</ele>
        <time>2013-05-02T12:38:27Z</time>
      </trkpt>
      <trkpt lat="47.69569" lon="-2.75694">
        <ele>53</ele>
        <time>2013-05-02T12:38:28Z</time>
      </trkpt>
      <trkpt lat="47.69572" lon="-2.75699">
        <ele>53</ele>
        <time>2013-05-02T12:38:29Z</time>
      </trkpt>
      <trkpt lat="47.69575" lon="-2.75703">
        <ele>53</ele>
        <time>2013-05-02T12:38:30Z</time>
      </trkpt>
      <trkpt lat="47.69577" lon="-2.75706">
        <ele>53</ele>
        <time>2013-05-02T12:38:31Z</time>
      </trkpt>
      <trkpt lat="47.69579" lon="-2.75709">
        <ele>52</ele>
        <time>2013-05-02T12:38:32Z</time>
      </trkpt>
      <trkpt lat="47.69578" lon="-2.75713">
        <ele>52</ele>
        <time>2013-05-02T12:38:33Z</time>
      </trkpt>
      <trkpt lat="47.69577" lon="-2.75717">
        <ele>52</ele>
        <time>2013-05-02T12:38:34Z</time>
      </trkpt>
      <trkpt lat="47.69577" lon="-2.75721">
        <ele>52</ele>
        <time>2013-05-02T12:38:35Z</time>
      </trkpt>
      <trkpt lat="47.69574" lon="-2.75723">
        <ele>52</ele>
        <time>2013-05-02T12:38:36Z</time>
      </trkpt>
      <trkpt lat="47.69572" lon="-2.75726">
        <ele>51</ele>
        <time>2013-05-02T12:38:37Z</time>
      </trkpt>
      <trkpt lat="47.69569" lon="-2.75729">
        <ele>51</ele>
        <time>2013-05-02T12:38:38Z</time>
      </trkpt>
      <trkpt lat="47.69566" lon="-2.75732">
        <ele>50</ele>
        <time>2013-05-02T12:38:39Z</time>
      </trkpt>
      <trkpt lat="47.69562" lon="-2.75735">
        <ele>49</ele>
        <time>2013-05-02T12:38:40Z</time>
      </trkpt>
      <trkpt lat="47.69558" lon="-2.75739">
        <ele>48</ele>
        <time>2013-05-02T12:38:41Z</time>
      </trkpt>
      <trkpt lat="47.69553" lon="-2.75742">
        <ele>48</ele>
        <time>2013-05-02T12:38:42Z</time>
      </trkpt>
      <trkpt lat="47.69549" lon="-2.75745">
        <ele>47</ele>
        <time>2013-05-02T12:38:43Z</time>
      </trkpt>
      <trkpt lat="47.69545" lon="-2.75748">
        <ele>47</ele>
        <time>2013-05-02T12:38:44Z</time>
      </trkpt>
      <trkpt lat="47.69542" lon="-2.75752">
        <ele>46</ele>
        <time>2013-05-02T12:38:45Z</time>
      </trkpt>
      <trkpt lat="47.6954" lon="-2.75757">
        <ele>46</ele>
        <time>2013-05-02T12:38:46Z</time>
      </trkpt>
      <trkpt lat="47.69537" lon="-2.75764">
        <ele>46</ele>
        <time>2013-05-02T12:38:47Z</time>
      </trkpt>
      <trkpt lat="47.69535" lon="-2.7577">
        <ele>46</ele>
        <time>2013-05-02T12:38:48Z</time>
      </trkpt>
      <trkpt lat="47.69531" lon="-2.75776">
        <ele>46</ele>
        <time>2013-05-02T12:38:49Z</time>
      </trkpt>
      <trkpt lat="47.69527" lon="-2.75782">
        <ele>46</ele>
        <time>2013-05-02T12:38:50Z</time>
      </trkpt>
      <trkpt lat="47.69522" lon="-2.75788">
        <ele>46</ele>
        <time>2013-05-02T12:38:51Z</time>
      </trkpt>
      <trkpt lat="47.69518" lon="-2.75794">
        <ele>46</ele>
        <time>2013-05-02T12:38:52Z</time>
      </trkpt>
      <trkpt lat="47.69513" lon="-2.758">
        <ele>45</ele>
        <time>2013-05-02T12:38:53Z</time>
      </trkpt>
      <trkpt lat="47.6951" lon="-2.75806">
        <ele>45</ele>
        <time>2013-05-02T12:38:54Z</time>
      </trkpt>
      <trkpt lat="47.69505" lon="-2.75812">
        <ele>45</ele>
        <time>2013-05-02T12:38:55Z</time>
      </trkpt>
      <trkpt lat="47.69501" lon="-2.75817">
        <ele>44</ele>
        <time>2013-05-02T12:38:56Z</time>
      </trkpt>
      <trkpt lat="47.69498" lon="-2.75822">
        <ele>44</ele>
        <time>2013-05-02T12:38:57Z</time>
      </trkpt>
      <trkpt lat="47.69493" lon="-2.75828">
        <ele>44</ele>
        <time>2013-05-02T12:38:58Z</time>
      </trkpt>
      <trkpt lat="47.69489" lon="-2.75833">
        <ele>43</ele>
        <time>2013-05-02T12:38:59Z</time>
      </trkpt>
      <trkpt lat="47.69485" lon="-2.75838">
        <ele>43</ele>
        <time>2013-05-02T12:39:00Z</time>
      </trkpt>
      <trkpt lat="47.69482" lon="-2.75843">
        <ele>43</ele>
        <time>2013-05-02T12:39:01Z</time>
      </trkpt>
      <trkpt lat="47.69478" lon="-2.75846">
        <ele>43</ele>
        <time>2013-05-02T12:39:02Z</time>
      </trkpt>
      <trkpt lat="47.69476" lon="-2.7585">
        <ele>43</ele>
        <time>2013-05-02T12:39:03Z</time>
      </trkpt>
      <trkpt lat="47.69476" lon="-2.75854">
        <ele>43</ele>
        <time>2013-05-02T12:39:04Z</time>
      </trkpt>
      <trkpt lat="47.69476" lon="-2.75859">
        <ele>43</ele>
        <time>2013-05-02T12:39:05Z</time>
      </trkpt>
      <trkpt lat="47.69479" lon="-2.75862">
        <ele>43</ele>
        <time>2013-05-02T12:39:06Z</time>
      </trkpt>
      <trkpt lat="47.69482" lon="-2.75867">
        <ele>43</ele>
        <time>2013-05-02T12:39:07Z</time>
      </trkpt>
      <trkpt lat="47.69486" lon="-2.75872">
        <ele>43</ele>
        <time>2013-05-02T12:39:08Z</time>
      </trkpt>
      <trkpt lat="47.69489" lon="-2.75877">
        <ele>43</ele>
        <time>2013-05-02T12:39:09Z</time>
      </trkpt>
      <trkpt lat="47.69492" lon="-2.75883">
        <ele>43</ele>
        <time>2013-05-02T12:39:10Z</time>
      </trkpt>
      <trkpt lat="47.69495" lon="-2.75887">
        <ele>43</ele>
        <time>2013-05-02T12:39:11Z</time>
      </trkpt>
      <trkpt lat="47.69498" lon="-2.7589">
        <ele>43</ele>
        <time>2013-05-02T12:39:12Z</time>
      </trkpt>
      <trkpt lat="47.69501" lon="-2.75894">
        <ele>43</ele>
        <time>2013-05-02T12:39:13Z</time>
      </trkpt>
      <trkpt lat="47.69503" lon="-2.75896">
        <ele>43</ele>
        <time>2013-05-02T12:39:14Z</time>
      </trkpt>
      <trkpt lat="47.69503" lon="-2.75898">
        <ele>43</ele>
        <time>2013-05-02T12:39:15Z</time>
      </trkpt>
      <trkpt lat="47.69498" lon="-2.75902">
        <ele>43</ele>
        <time>2013-05-02T12:39:16Z</time>
      </trkpt>
      <trkpt lat="47.69495" lon="-2.75904">
        <ele>43</ele>
        <time>2013-05-02T12:39:17Z</time>
      </trkpt>
      <trkpt lat="47.69492" lon="-2.75907">
        <ele>43</ele>
        <time>2013-05-02T12:39:18Z</time>
      </trkpt>
      <trkpt lat="47.69489" lon="-2.75911">
        <ele>42</ele>
        <time>2013-05-02T12:39:19Z</time>
      </trkpt>
      <trkpt lat="47.69487" lon="-2.75915">
        <ele>41</ele>
        <time>2013-05-02T12:39:20Z</time>
      </trkpt>
      <trkpt lat="47.69485" lon="-2.75919">
        <ele>40</ele>
        <time>2013-05-02T12:39:21Z</time>
      </trkpt>
      <trkpt lat="47.69483" lon="-2.75923">
        <ele>39</ele>
        <time>2013-05-02T12:39:22Z</time>
      </trkpt>
      <trkpt lat="47.69482" lon="-2.75927">
        <ele>39</ele>
        <time>2013-05-02T12:39:23Z</time>
      </trkpt>
      <trkpt lat="47.69481" lon="-2.75931">
        <ele>38</ele>
        <time>2013-05-02T12:39:24Z</time>
      </trkpt>
      <trkpt lat="47.69481" lon="-2.75936">
        <ele>38</ele>
        <time>2013-05-02T12:39:25Z</time>
      </trkpt>
      <trkpt lat="47.69481" lon="-2.75941">
        <ele>38</ele>
        <time>2013-05-02T12:39:26Z</time>
      </trkpt>
      <trkpt lat="47.6948" lon="-2.75945">
        <ele>38</ele>
        <time>2013-05-02T12:39:27Z</time>
      </trkpt>
      <trkpt lat="47.6948" lon="-2.7595">
        <ele>38</ele>
        <time>2013-05-02T12:39:28Z</time>
      </trkpt>
      <trkpt lat="47.69481" lon="-2.75954">
        <ele>38</ele>
        <time>2013-05-02T12:39:29Z</time>
      </trkpt>
      <trkpt lat="47.6948" lon="-2.75958">
        <ele>38</ele>
        <time>2013-05-02T12:39:30Z</time>
      </trkpt>
      <trkpt lat="47.69479" lon="-2.75963">
        <ele>38</ele>
        <time>2013-05-02T12:39:31Z</time>
      </trkpt>
      <trkpt lat="47.69478" lon="-2.75968">
        <ele>38</ele>
        <time>2013-05-02T12:39:32Z</time>
      </trkpt>
      <trkpt lat="47.69479" lon="-2.75973">
        <ele>38</ele>
        <time>2013-05-02T12:39:33Z</time>
      </trkpt>
      <trkpt lat="47.6948" lon="-2.75977">
        <ele>38</ele>
        <time>2013-05-02T12:39:34Z</time>
      </trkpt>
      <trkpt lat="47.69481" lon="-2.75982">
        <ele>38</ele>
        <time>2013-05-02T12:39:35Z</time>
      </trkpt>
      <trkpt lat="47.69482" lon="-2.75986">
        <ele>38</ele>
        <time>2013-05-02T12:39:36Z</time>
      </trkpt>
      <trkpt lat="47.69482" lon="-2.75991">
        <ele>38</ele>
        <time>2013-05-02T12:39:37Z</time>
      </trkpt>
      <trkpt lat="47.69484" lon="-2.75994">
        <ele>38</ele>
        <time>2013-05-02T12:39:38Z</time>
      </trkpt>
      <trkpt lat="47.69486" lon="-2.75996">
        <ele>38</ele>
        <time>2013-05-02T12:39:39Z</time>
      </trkpt>
      <trkpt lat="47.69489" lon="-2.75997">
        <ele>38</ele>
        <time>2013-05-02T12:39:40Z</time>
      </trkpt>
      <trkpt lat="47.69491" lon="-2.75999">
        <ele>38</ele>
        <time>2013-05-02T12:39:41Z</time>
      </trkpt>
      <trkpt lat="47.69494" lon="-2.76">
        <ele>38</ele>
        <time>2013-05-02T12:39:42Z</time>
      </trkpt>
      <trkpt lat="47.69497" lon="-2.76">
        <ele>39</ele>
        <time>2013-05-02T12:39:43Z</time>
      </trkpt>
      <trkpt lat="47.695" lon="-2.76002">
        <ele>39</ele>
        <time>2013-05-02T12:39:44Z</time>
      </trkpt>
      <trkpt lat="47.69502" lon="-2.76004">
        <ele>40</ele>
        <time>2013-05-02T12:39:45Z</time>
      </trkpt>
      <trkpt lat="47.69505" lon="-2.76005">
        <ele>41</ele>
        <time>2013-05-02T12:39:46Z</time>
      </trkpt>
      <trkpt lat="47.69508" lon="-2.76005">
        <ele>41</ele>
        <time>2013-05-02T12:39:47Z</time>
      </trkpt>
      <trkpt lat="47.69511" lon="-2.76005">
        <ele>42</ele>
        <time>2013-05-02T12:39:48Z</time>
      </trkpt>
      <trkpt lat="47.69514" lon="-2.76005">
        <ele>42</ele>
        <time>2013-05-02T12:39:49Z</time>
      </trkpt>
      <trkpt lat="47.69517" lon="-2.76005">
        <ele>42</ele>
        <time>2013-05-02T12:39:50Z</time>
      </trkpt>
      <trkpt lat="47.69519" lon="-2.76005">
        <ele>43</ele>
        <time>2013-05-02T12:39:51Z</time>
      </trkpt>
      <trkpt lat="47.69522" lon="-2.76006">
        <ele>43</ele>
        <time>2013-05-02T12:39:52Z</time>
      </trkpt>
      <trkpt lat="47.69525" lon="-2.76007">
        <ele>44</ele>
        <time>2013-05-02T12:39:53Z</time>
      </trkpt>
      <trkpt lat="47.69527" lon="-2.76009">
        <ele>44</ele>
        <time>2013-05-02T12:39:54Z</time>
      </trkpt>
      <trkpt lat="47.69529" lon="-2.76012">
        <ele>45</ele>
        <time>2013-05-02T12:39:55Z</time>
      </trkpt>
      <trkpt lat="47.6953" lon="-2.76016">
        <ele>45</ele>
        <time>2013-05-02T12:39:56Z</time>
      </trkpt>
      <trkpt lat="47.69532" lon="-2.7602">
        <ele>45</ele>
        <time>2013-05-02T12:39:57Z</time>
      </trkpt>
      <trkpt lat="47.69533" lon="-2.76025">
        <ele>46</ele>
        <time>2013-05-02T12:39:58Z</time>
      </trkpt>
      <trkpt lat="47.69534" lon="-2.7603">
        <ele>46</ele>
        <time>2013-05-02T12:39:59Z</time>
      </trkpt>
      <trkpt lat="47.69536" lon="-2.76035">
        <ele>46</ele>
        <time>2013-05-02T12:40:00Z</time>
      </trkpt>
      <trkpt lat="47.69537" lon="-2.76041">
        <ele>46</ele>
        <time>2013-05-02T12:40:01Z</time>
      </trkpt>
      <trkpt lat="47.69538" lon="-2.76045">
        <ele>46</ele>
        <time>2013-05-02T12:40:02Z</time>
      </trkpt>
      <trkpt lat="47.69538" lon="-2.76051">
        <ele>46</ele>
        <time>2013-05-02T12:40:03Z</time>
      </trkpt>
      <trkpt lat="47.69538" lon="-2.76056">
        <ele>46</ele>
        <time>2013-05-02T12:40:04Z</time>
      </trkpt>
      <trkpt lat="47.69538" lon="-2.76061">
        <ele>46</ele>
        <time>2013-05-02T12:40:05Z</time>
      </trkpt>
      <trkpt lat="47.69537" lon="-2.76065">
        <ele>46</ele>
        <time>2013-05-02T12:40:06Z</time>
      </trkpt>
      <trkpt lat="47.69536" lon="-2.76069">
        <ele>46</ele>
        <time>2013-05-02T12:40:07Z</time>
      </trkpt>
      <trkpt lat="47.69535" lon="-2.76073">
        <ele>46</ele>
        <time>2013-05-02T12:40:08Z</time>
      </trkpt>
      <trkpt lat="47.69535" lon="-2.76077">
        <ele>46</ele>
        <time>2013-05-02T12:40:09Z</time>
      </trkpt>
      <trkpt lat="47.69534" lon="-2.76082">
        <ele>46</ele>
        <time>2013-05-02T12:40:10Z</time>
      </trkpt>
      <trkpt lat="47.69533" lon="-2.76088">
        <ele>46</ele>
        <time>2013-05-02T12:40:11Z</time>
      </trkpt>
      <trkpt lat="47.69533" lon="-2.76092">
        <ele>46</ele>
        <time>2013-05-02T12:40:12Z</time>
      </trkpt>
      <trkpt lat="47.69532" lon="-2.76096">
        <ele>46</ele>
        <time>2013-05-02T12:40:13Z</time>
      </trkpt>
      <trkpt lat="47.69531" lon="-2.76099">
        <ele>46</ele>
        <time>2013-05-02T12:40:14Z</time>
      </trkpt>
      <trkpt lat="47.6953" lon="-2.76102">
        <ele>46</ele>
        <time>2013-05-02T12:40:15Z</time>
      </trkpt>
      <trkpt lat="47.69529" lon="-2.76106">
        <ele>46</ele>
        <time>2013-05-02T12:40:16Z</time>
      </trkpt>
      <trkpt lat="47.69529" lon="-2.7611">
        <ele>46</ele>
        <time>2013-05-02T12:40:17Z</time>
      </trkpt>
      <trkpt lat="47.69527" lon="-2.76114">
        <ele>46</ele>
        <time>2013-05-02T12:40:18Z</time>
      </trkpt>
      <trkpt lat="47.69526" lon="-2.76117">
        <ele>46</ele>
        <time>2013-05-02T12:40:19Z</time>
      </trkpt>
      <trkpt lat="47.69524" lon="-2.76121">
        <ele>46</ele>
        <time>2013-05-02T12:40:20Z</time>
      </trkpt>
      <trkpt lat="47.69521" lon="-2.76125">
        <ele>46</ele>
        <time>2013-05-02T12:40:21Z</time>
      </trkpt>
      <trkpt lat="47.69519" lon="-2.76129">
        <ele>46</ele>
        <time>2013-05-02T12:40:22Z</time>
      </trkpt>
      <trkpt lat="47.69518" lon="-2.76134">
        <ele>46</ele>
        <time>2013-05-02T12:40:23Z</time>
      </trkpt>
      <trkpt lat="47.69515" lon="-2.76139">
        <ele>46</ele>
        <time>2013-05-02T12:40:24Z</time>
      </trkpt>
      <trkpt lat="47.69513" lon="-2.76145">
        <ele>46</ele>
        <time>2013-05-02T12:40:25Z</time>
      </trkpt>
      <trkpt lat="47.69511" lon="-2.7615">
        <ele>46</ele>
        <time>2013-05-02T12:40:26Z</time>
      </trkpt>
      <trkpt lat="47.69508" lon="-2.76156">
        <ele>46</ele>
        <time>2013-05-02T12:40:27Z</time>
      </trkpt>
      <trkpt lat="47.69506" lon="-2.76162">
        <ele>46</ele>
        <time>2013-05-02T12:40:28Z</time>
      </trkpt>
      <trkpt lat="47.69504" lon="-2.76166">
        <ele>46</ele>
        <time>2013-05-02T12:40:29Z</time>
      </trkpt>
      <trkpt lat="47.69505" lon="-2.76168">
        <ele>46</ele>
        <time>2013-05-02T12:40:31Z</time>
      </trkpt>
      <trkpt lat="47.69507" lon="-2.76168">
        <ele>47</ele>
        <time>2013-05-02T12:40:33Z</time>
      </trkpt>
      <trkpt lat="47.69509" lon="-2.76168">
        <ele>47</ele>
        <time>2013-05-02T12:40:34Z</time>
      </trkpt>
      <trkpt lat="47.69511" lon="-2.76169">
        <ele>47</ele>
        <time>2013-05-02T12:40:35Z</time>
      </trkpt>
      <trkpt lat="47.69512" lon="-2.76172">
        <ele>47</ele>
        <time>2013-05-02T12:40:36Z</time>
      </trkpt>
      <trkpt lat="47.69512" lon="-2.76176">
        <ele>47</ele>
        <time>2013-05-02T12:40:37Z</time>
      </trkpt>
      <trkpt lat="47.69513" lon="-2.7618">
        <ele>47</ele>
        <time>2013-05-02T12:40:38Z</time>
      </trkpt>
      <trkpt lat="47.69513" lon="-2.76185">
        <ele>48</ele>
        <time>2013-05-02T12:40:39Z</time>
      </trkpt>
      <trkpt lat="47.69513" lon="-2.76189">
        <ele>48</ele>
        <time>2013-05-02T12:40:40Z</time>
      </trkpt>
      <trkpt lat="47.69514" lon="-2.76194">
        <ele>48</ele>
        <time>2013-05-02T12:40:41Z</time>
      </trkpt>
      <trkpt lat="47.69514" lon="-2.76198">
        <ele>48</ele>
        <time>2013-05-02T12:40:42Z</time>
      </trkpt>
      <trkpt lat="47.69515" lon="-2.76202">
        <ele>48</ele>
        <time>2013-05-02T12:40:43Z</time>
      </trkpt>
      <trkpt lat="47.69515" lon="-2.76207">
        <ele>49</ele>
        <time>2013-05-02T12:40:44Z</time>
      </trkpt>
      <trkpt lat="47.69516" lon="-2.76211">
        <ele>49</ele>
        <time>2013-05-02T12:40:45Z</time>
      </trkpt>
      <trkpt lat="47.69515" lon="-2.76216">
        <ele>49</ele>
        <time>2013-05-02T12:40:46Z</time>
      </trkpt>
      <trkpt lat="47.69515" lon="-2.76221">
        <ele>49</ele>
        <time>2013-05-02T12:40:47Z</time>
      </trkpt>
      <trkpt lat="47.69516" lon="-2.76226">
        <ele>49</ele>
        <time>2013-05-02T12:40:48Z</time>
      </trkpt>
      <trkpt lat="47.69517" lon="-2.7623">
        <ele>49</ele>
        <time>2013-05-02T12:40:49Z</time>
      </trkpt>
      <trkpt lat="47.69518" lon="-2.76235">
        <ele>49</ele>
        <time>2013-05-02T12:40:50Z</time>
      </trkpt>
      <trkpt lat="47.69519" lon="-2.7624">
        <ele>49</ele>
        <time>2013-05-02T12:40:51Z</time>
      </trkpt>
      <trkpt lat="47.6952" lon="-2.76245">
        <ele>49</ele>
        <time>2013-05-02T12:40:52Z</time>
      </trkpt>
      <trkpt lat="47.69522" lon="-2.76251">
        <ele>49</ele>
        <time>2013-05-02T12:40:53Z</time>
      </trkpt>
      <trkpt lat="47.69524" lon="-2.76256">
        <ele>49</ele>
        <time>2013-05-02T12:40:54Z</time>
      </trkpt>
      <trkpt lat="47.69525" lon="-2.76262">
        <ele>49</ele>
        <time>2013-05-02T12:40:55Z</time>
      </trkpt>
      <trkpt lat="47.69527" lon="-2.76268">
        <ele>49</ele>
        <time>2013-05-02T12:40:56Z</time>
      </trkpt>
      <trkpt lat="47.69529" lon="-2.76274">
        <ele>49</ele>
        <time>2013-05-02T12:40:57Z</time>
      </trkpt>
      <trkpt lat="47.6953" lon="-2.7628">
        <ele>50</ele>
        <time>2013-05-02T12:40:58Z</time>
      </trkpt>
      <trkpt lat="47.69531" lon="-2.76286">
        <ele>50</ele>
        <time>2013-05-02T12:40:59Z</time>
      </trkpt>
      <trkpt lat="47.69532" lon="-2.76291">
        <ele>50</ele>
        <time>2013-05-02T12:41:00Z</time>
      </trkpt>
      <trkpt lat="47.69534" lon="-2.76297">
        <ele>50</ele>
        <time>2013-05-02T12:41:01Z</time>
      </trkpt>
      <trkpt lat="47.69537" lon="-2.76303">
        <ele>51</ele>
        <time>2013-05-02T12:41:02Z</time>
      </trkpt>
      <trkpt lat="47.6954" lon="-2.76309">
        <ele>51</ele>
        <time>2013-05-02T12:41:03Z</time>
      </trkpt>
      <trkpt lat="47.69543" lon="-2.76314">
        <ele>51</ele>
        <time>2013-05-02T12:41:04Z</time>
      </trkpt>
      <trkpt lat="47.69547" lon="-2.76319">
        <ele>52</ele>
        <time>2013-05-02T12:41:05Z</time>
      </trkpt>
      <trkpt lat="47.6955" lon="-2.76323">
        <ele>52</ele>
        <time>2013-05-02T12:41:06Z</time>
      </trkpt>
      <trkpt lat="47.69553" lon="-2.76327">
        <ele>53</ele>
        <time>2013-05-02T12:41:07Z</time>
      </trkpt>
      <trkpt lat="47.69558" lon="-2.7633">
        <ele>53</ele>
        <time>2013-05-02T12:41:08Z</time>
      </trkpt>
      <trkpt lat="47.69562" lon="-2.76333">
        <ele>54</ele>
        <time>2013-05-02T12:41:09Z</time>
      </trkpt>
      <trkpt lat="47.69565" lon="-2.76337">
        <ele>54</ele>
        <time>2013-05-02T12:41:10Z</time>
      </trkpt>
      <trkpt lat="47.69569" lon="-2.76339">
        <ele>55</ele>
        <time>2013-05-02T12:41:11Z</time>
      </trkpt>
      <trkpt lat="47.69573" lon="-2.76342">
        <ele>56</ele>
        <time>2013-05-02T12:41:12Z</time>
      </trkpt>
      <trkpt lat="47.69577" lon="-2.76346">
        <ele>56</ele>
        <time>2013-05-02T12:41:13Z</time>
      </trkpt>
      <trkpt lat="47.6958" lon="-2.76351">
        <ele>56</ele>
        <time>2013-05-02T12:41:14Z</time>
      </trkpt>
      <trkpt lat="47.69583" lon="-2.76356">
        <ele>56</ele>
        <time>2013-05-02T12:41:15Z</time>
      </trkpt>
      <trkpt lat="47.69585" lon="-2.7636">
        <ele>56</ele>
        <time>2013-05-02T12:41:16Z</time>
      </trkpt>
      <trkpt lat="47.69586" lon="-2.76361">
        <ele>56</ele>
        <time>2013-05-02T12:41:17Z</time>
      </trkpt>
      <trkpt lat="47.69584" lon="-2.76363">
        <ele>56</ele>
        <time>2013-05-02T12:41:18Z</time>
      </trkpt>
      <trkpt lat="47.69582" lon="-2.76363">
        <ele>56</ele>
        <time>2013-05-02T12:41:19Z</time>
      </trkpt>
      <trkpt lat="47.6958" lon="-2.76362">
        <ele>56</ele>
        <time>2013-05-02T12:41:20Z</time>
      </trkpt>
      <trkpt lat="47.69577" lon="-2.76362">
        <ele>56</ele>
        <time>2013-05-02T12:41:21Z</time>
      </trkpt>
      <trkpt lat="47.69575" lon="-2.76361">
        <ele>56</ele>
        <time>2013-05-02T12:41:22Z</time>
      </trkpt>
      <trkpt lat="47.69572" lon="-2.7636">
        <ele>56</ele>
        <time>2013-05-02T12:41:23Z</time>
      </trkpt>
      <trkpt lat="47.69568" lon="-2.76359">
        <ele>55</ele>
        <time>2013-05-02T12:41:24Z</time>
      </trkpt>
      <trkpt lat="47.69564" lon="-2.76358">
        <ele>54</ele>
        <time>2013-05-02T12:41:25Z</time>
      </trkpt>
      <trkpt lat="47.69559" lon="-2.76357">
        <ele>54</ele>
        <time>2013-05-02T12:41:26Z</time>
      </trkpt>
      <trkpt lat="47.69554" lon="-2.76358">
        <ele>53</ele>
        <time>2013-05-02T12:41:27Z</time>
      </trkpt>
      <trkpt lat="47.69548" lon="-2.76359">
        <ele>53</ele>
        <time>2013-05-02T12:41:28Z</time>
      </trkpt>
      <trkpt lat="47.69542" lon="-2.76361">
        <ele>53</ele>
        <time>2013-05-02T12:41:29Z</time>
      </trkpt>
      <trkpt lat="47.69536" lon="-2.76363">
        <ele>52</ele>
        <time>2013-05-02T12:41:30Z</time>
      </trkpt>
      <trkpt lat="47.69531" lon="-2.76364">
        <ele>52</ele>
        <time>2013-05-02T12:41:31Z</time>
      </trkpt>
      <trkpt lat="47.69525" lon="-2.76364">
        <ele>52</ele>
        <time>2013-05-02T12:41:32Z</time>
      </trkpt>
      <trkpt lat="47.69519" lon="-2.76362">
        <ele>52</ele>
        <time>2013-05-02T12:41:33Z</time>
      </trkpt>
      <trkpt lat="47.69512" lon="-2.76361">
        <ele>52</ele>
        <time>2013-05-02T12:41:34Z</time>
      </trkpt>
      <trkpt lat="47.69508" lon="-2.7636">
        <ele>51</ele>
        <time>2013-05-02T12:41:35Z</time>
      </trkpt>
      <trkpt lat="47.69503" lon="-2.76358">
        <ele>51</ele>
        <time>2013-05-02T12:41:36Z</time>
      </trkpt>
      <trkpt lat="47.69499" lon="-2.76355">
        <ele>50</ele>
        <time>2013-05-02T12:41:37Z</time>
      </trkpt>
      <trkpt lat="47.69495" lon="-2.76351">
        <ele>49</ele>
        <time>2013-05-02T12:41:38Z</time>
      </trkpt>
      <trkpt lat="47.69492" lon="-2.76347">
        <ele>48</ele>
        <time>2013-05-02T12:41:39Z</time>
      </trkpt>
      <trkpt lat="47.69489" lon="-2.76343">
        <ele>47</ele>
        <time>2013-05-02T12:41:40Z</time>
      </trkpt>
      <trkpt lat="47.69488" lon="-2.76335">
        <ele>47</ele>
        <time>2013-05-02T12:41:41Z</time>
      </trkpt>
      <trkpt lat="47.69487" lon="-2.76326">
        <ele>46</ele>
        <time>2013-05-02T12:41:42Z</time>
      </trkpt>
      <trkpt lat="47.69487" lon="-2.76316">
        <ele>46</ele>
        <time>2013-05-02T12:41:43Z</time>
      </trkpt>
      <trkpt lat="47.69487" lon="-2.76308">
        <ele>46</ele>
        <time>2013-05-02T12:41:44Z</time>
      </trkpt>
      <trkpt lat="47.69486" lon="-2.76298">
        <ele>46</ele>
        <time>2013-05-02T12:41:45Z</time>
      </trkpt>
      <trkpt lat="47.69483" lon="-2.76287">
        <ele>46</ele>
        <time>2013-05-02T12:41:46Z</time>
      </trkpt>
      <trkpt lat="47.6948" lon="-2.76276">
        <ele>46</ele>
        <time>2013-05-02T12:41:47Z</time>
      </trkpt>
      <trkpt lat="47.69479" lon="-2.76266">
        <ele>46</ele>
        <time>2013-05-02T12:41:48Z</time>
      </trkpt>
      <trkpt lat="47.69477" lon="-2.76257">
        <ele>46</ele>
        <time>2013-05-02T12:41:49Z</time>
      </trkpt>
      <trkpt lat="47.69476" lon="-2.76249">
        <ele>47</ele>
        <time>2013-05-02T12:41:50Z</time>
      </trkpt>
      <trkpt lat="47.69474" lon="-2.76241">
        <ele>48</ele>
        <time>2013-05-02T12:41:51Z</time>
      </trkpt>
      <trkpt lat="47.69473" lon="-2.76235">
        <ele>49</ele>
        <time>2013-05-02T12:41:52Z</time>
      </trkpt>
      <trkpt lat="47.69472" lon="-2.76228">
        <ele>50</ele>
        <time>2013-05-02T12:41:53Z</time>
      </trkpt>
      <trkpt lat="47.6947" lon="-2.76222">
        <ele>51</ele>
        <time>2013-05-02T12:41:54Z</time>
      </trkpt>
      <trkpt lat="47.69469" lon="-2.76214">
        <ele>52</ele>
        <time>2013-05-02T12:41:55Z</time>
      </trkpt>
      <trkpt lat="47.69469" lon="-2.76206">
        <ele>52</ele>
        <time>2013-05-02T12:41:56Z</time>
      </trkpt>
      <trkpt lat="47.69467" lon="-2.76198">
        <ele>52</ele>
        <time>2013-05-02T12:41:57Z</time>
      </trkpt>
      <trkpt lat="47.69465" lon="-2.76189">
        <ele>53</ele>
        <time>2013-05-02T12:41:58Z</time>
      </trkpt>
      <trkpt lat="47.69464" lon="-2.76181">
        <ele>53</ele>
        <time>2013-05-02T12:41:59Z</time>
      </trkpt>
      <trkpt lat="47.69463" lon="-2.76172">
        <ele>53</ele>
        <time>2013-05-02T12:42:00Z</time>
      </trkpt>
      <trkpt lat="47.69462" lon="-2.76164">
        <ele>53</ele>
        <time>2013-05-02T12:42:01Z</time>
      </trkpt>
      <trkpt lat="47.69458" lon="-2.76154">
        <ele>53</ele>
        <time>2013-05-02T12:42:02Z</time>
      </trkpt>
      <trkpt lat="47.69455" lon="-2.76146">
        <ele>53</ele>
        <time>2013-05-02T12:42:03Z</time>
      </trkpt>
      <trkpt lat="47.6945" lon="-2.76138">
        <ele>53</ele>
        <time>2013-05-02T12:42:04Z</time>
      </trkpt>
      <trkpt lat="47.69445" lon="-2.76131">
        <ele>53</ele>
        <time>2013-05-02T12:42:05Z</time>
      </trkpt>
      <trkpt lat="47.69439" lon="-2.76125">
        <ele>53</ele>
        <time>2013-05-02T12:42:06Z</time>
      </trkpt>
      <trkpt lat="47.69435" lon="-2.76122">
        <ele>53</ele>
        <time>2013-05-02T12:42:07Z</time>
      </trkpt>
      <trkpt lat="47.69434" lon="-2.76125">
        <ele>53</ele>
        <time>2013-05-02T12:42:08Z</time>
      </trkpt>
      <trkpt lat="47.69432" lon="-2.76132">
        <ele>53</ele>
        <time>2013-05-02T12:42:09Z</time>
      </trkpt>
      <trkpt lat="47.69426" lon="-2.76139">
        <ele>53</ele>
        <time>2013-05-02T12:42:10Z</time>
      </trkpt>
      <trkpt lat="47.6942" lon="-2.76145">
        <ele>53</ele>
        <time>2013-05-02T12:42:11Z</time>
      </trkpt>
      <trkpt lat="47.69416" lon="-2.7615">
        <ele>53</ele>
        <time>2013-05-02T12:42:12Z</time>
      </trkpt>
      <trkpt lat="47.69412" lon="-2.76154">
        <ele>53</ele>
        <time>2013-05-02T12:42:13Z</time>
      </trkpt>
      <trkpt lat="47.69408" lon="-2.76159">
        <ele>53</ele>
        <time>2013-05-02T12:42:14Z</time>
      </trkpt>
      <trkpt lat="47.69404" lon="-2.76164">
        <ele>53</ele>
        <time>2013-05-02T12:42:15Z</time>
      </trkpt>
      <trkpt lat="47.694" lon="-2.7617">
        <ele>52</ele>
        <time>2013-05-02T12:42:16Z</time>
      </trkpt>
      <trkpt lat="47.69395" lon="-2.76176">
        <ele>52</ele>
        <time>2013-05-02T12:42:17Z</time>
      </trkpt>
      <trkpt lat="47.69389" lon="-2.76181">
        <ele>52</ele>
        <time>2013-05-02T12:42:18Z</time>
      </trkpt>
      <trkpt lat="47.69383" lon="-2.76187">
        <ele>52</ele>
        <time>2013-05-02T12:42:19Z</time>
      </trkpt>
      <trkpt lat="47.69378" lon="-2.76193">
        <ele>52</ele>
        <time>2013-05-02T12:42:20Z</time>
      </trkpt>
      <trkpt lat="47.69373" lon="-2.76196">
        <ele>52</ele>
        <time>2013-05-02T12:42:21Z</time>
      </trkpt>
      <trkpt lat="47.69368" lon="-2.76199">
        <ele>52</ele>
        <time>2013-05-02T12:42:22Z</time>
      </trkpt>
      <trkpt lat="47.69363" lon="-2.76201">
        <ele>51</ele>
        <time>2013-05-02T12:42:23Z</time>
      </trkpt>
      <trkpt lat="47.69359" lon="-2.762">
        <ele>51</ele>
        <time>2013-05-02T12:42:24Z</time>
      </trkpt>
      <trkpt lat="47.69355" lon="-2.76196">
        <ele>50</ele>
        <time>2013-05-02T12:42:25Z</time>
      </trkpt>
      <trkpt lat="47.69351" lon="-2.76192">
        <ele>49</ele>
        <time>2013-05-02T12:42:26Z</time>
      </trkpt>
      <trkpt lat="47.69348" lon="-2.76188">
        <ele>48</ele>
        <time>2013-05-02T12:42:27Z</time>
      </trkpt>
      <trkpt lat="47.69344" lon="-2.76184">
        <ele>47</ele>
        <time>2013-05-02T12:42:28Z</time>
      </trkpt>
      <trkpt lat="47.69342" lon="-2.7618">
        <ele>46</ele>
        <time>2013-05-02T12:42:29Z</time>
      </trkpt>
      <trkpt lat="47.69339" lon="-2.76172">
        <ele>46</ele>
        <time>2013-05-02T12:42:30Z</time>
      </trkpt>
      <trkpt lat="47.69336" lon="-2.76166">
        <ele>46</ele>
        <time>2013-05-02T12:42:31Z</time>
      </trkpt>
      <trkpt lat="47.69334" lon="-2.76161">
        <ele>46</ele>
        <time>2013-05-02T12:42:32Z</time>
      </trkpt>
      <trkpt lat="47.69333" lon="-2.76158">
        <ele>46</ele>
        <time>2013-05-02T12:42:33Z</time>
      </trkpt>
      <trkpt lat="47.69331" lon="-2.76155">
        <ele>46</ele>
        <time>2013-05-02T12:42:34Z</time>
      </trkpt>
      <trkpt lat="47.69329" lon="-2.76153">
        <ele>46</ele>
        <time>2013-05-02T12:42:35Z</time>
      </trkpt>
      <trkpt lat="47.69328" lon="-2.76151">
        <ele>46</ele>
        <time>2013-05-02T12:42:36Z</time>
      </trkpt>
      <trkpt lat="47.69327" lon="-2.76149">
        <ele>46</ele>
        <time>2013-05-02T12:42:37Z</time>
      </trkpt>
      <trkpt lat="47.69329" lon="-2.76146">
        <ele>47</ele>
        <time>2013-05-02T12:42:38Z</time>
      </trkpt>
      <trkpt lat="47.69329" lon="-2.76143">
        <ele>47</ele>
        <time>2013-05-02T12:42:39Z</time>
      </trkpt>
      <trkpt lat="47.69329" lon="-2.76139">
        <ele>47</ele>
        <time>2013-05-02T12:42:40Z</time>
      </trkpt>
      <trkpt lat="47.6933" lon="-2.76136">
        <ele>47</ele>
        <time>2013-05-02T12:42:41Z</time>
      </trkpt>
      <trkpt lat="47.69331" lon="-2.76132">
        <ele>47</ele>
        <time>2013-05-02T12:42:42Z</time>
      </trkpt>
      <trkpt lat="47.69332" lon="-2.76128">
        <ele>47</ele>
        <time>2013-05-02T12:42:43Z</time>
      </trkpt>
      <trkpt lat="47.69334" lon="-2.76124">
        <ele>47</ele>
        <time>2013-05-02T12:42:44Z</time>
      </trkpt>
      <trkpt lat="47.69337" lon="-2.7612">
        <ele>47</ele>
        <time>2013-05-02T12:42:45Z</time>
      </trkpt>
      <trkpt lat="47.6934" lon="-2.76115">
        <ele>47</ele>
        <time>2013-05-02T12:42:46Z</time>
      </trkpt>
      <trkpt lat="47.69343" lon="-2.76109">
        <ele>47</ele>
        <time>2013-05-02T12:42:47Z</time>
      </trkpt>
      <trkpt lat="47.69346" lon="-2.76103">
        <ele>47</ele>
        <time>2013-05-02T12:42:48Z</time>
      </trkpt>
      <trkpt lat="47.6935" lon="-2.76097">
        <ele>47</ele>
        <time>2013-05-02T12:42:49Z</time>
      </trkpt>
      <trkpt lat="47.69352" lon="-2.76092">
        <ele>48</ele>
        <time>2013-05-02T12:42:50Z</time>
      </trkpt>
      <trkpt lat="47.69355" lon="-2.76084">
        <ele>48</ele>
        <time>2013-05-02T12:42:51Z</time>
      </trkpt>
      <trkpt lat="47.69356" lon="-2.76077">
        <ele>48</ele>
        <time>2013-05-02T12:42:52Z</time>
      </trkpt>
      <trkpt lat="47.69354" lon="-2.76072">
        <ele>48</ele>
        <time>2013-05-02T12:42:53Z</time>
      </trkpt>
      <trkpt lat="47.69352" lon="-2.76066">
        <ele>48</ele>
        <time>2013-05-02T12:42:54Z</time>
      </trkpt>
      <trkpt lat="47.69349" lon="-2.76061">
        <ele>48</ele>
        <time>2013-05-02T12:42:55Z</time>
      </trkpt>
      <trkpt lat="47.69346" lon="-2.76055">
        <ele>48</ele>
        <time>2013-05-02T12:42:56Z</time>
      </trkpt>
      <trkpt lat="47.69343" lon="-2.76049">
        <ele>48</ele>
        <time>2013-05-02T12:42:57Z</time>
      </trkpt>
      <trkpt lat="47.69339" lon="-2.76044">
        <ele>48</ele>
        <time>2013-05-02T12:42:58Z</time>
      </trkpt>
      <trkpt lat="47.69334" lon="-2.76038">
        <ele>48</ele>
        <time>2013-05-02T12:42:59Z</time>
      </trkpt>
      <trkpt lat="47.69329" lon="-2.76032">
        <ele>47</ele>
        <time>2013-05-02T12:43:00Z</time>
      </trkpt>
      <trkpt lat="47.69324" lon="-2.76026">
        <ele>46</ele>
        <time>2013-05-02T12:43:01Z</time>
      </trkpt>
      <trkpt lat="47.69321" lon="-2.76021">
        <ele>45</ele>
        <time>2013-05-02T12:43:02Z</time>
      </trkpt>
      <trkpt lat="47.69316" lon="-2.76016">
        <ele>44</ele>
        <time>2013-05-02T12:43:03Z</time>
      </trkpt>
      <trkpt lat="47.69312" lon="-2.76011">
        <ele>43</ele>
        <time>2013-05-02T12:43:04Z</time>
      </trkpt>
      <trkpt lat="47.69307" lon="-2.76007">
        <ele>42</ele>
        <time>2013-05-02T12:43:05Z</time>
      </trkpt>
      <trkpt lat="47.69302" lon="-2.76003">
        <ele>41</ele>
        <time>2013-05-02T12:43:06Z</time>
      </trkpt>
      <trkpt lat="47.69297" lon="-2.76">
        <ele>40</ele>
        <time>2013-05-02T12:43:07Z</time>
      </trkpt>
      <trkpt lat="47.69292" lon="-2.75997">
        <ele>39</ele>
        <time>2013-05-02T12:43:08Z</time>
      </trkpt>
      <trkpt lat="47.69287" lon="-2.75994">
        <ele>38</ele>
        <time>2013-05-02T12:43:09Z</time>
      </trkpt>
      <trkpt lat="47.69281" lon="-2.75992">
        <ele>37</ele>
        <time>2013-05-02T12:43:10Z</time>
      </trkpt>
      <trkpt lat="47.69276" lon="-2.7599">
        <ele>36</ele>
        <time>2013-05-02T12:43:11Z</time>
      </trkpt>
      <trkpt lat="47.69271" lon="-2.75988">
        <ele>35</ele>
        <time>2013-05-02T12:43:12Z</time>
      </trkpt>
      <trkpt lat="47.69266" lon="-2.75985">
        <ele>34</ele>
        <time>2013-05-02T12:43:13Z</time>
      </trkpt>
      <trkpt lat="47.69262" lon="-2.75981">
        <ele>33</ele>
        <time>2013-05-02T12:43:14Z</time>
      </trkpt>
      <trkpt lat="47.69257" lon="-2.75977">
        <ele>32</ele>
        <time>2013-05-02T12:43:15Z</time>
      </trkpt>
      <trkpt lat="47.69251" lon="-2.75973">
        <ele>31</ele>
        <time>2013-05-02T12:43:16Z</time>
      </trkpt>
      <trkpt lat="47.69247" lon="-2.75969">
        <ele>30</ele>
        <time>2013-05-02T12:43:17Z</time>
      </trkpt>
      <trkpt lat="47.69243" lon="-2.75965">
        <ele>30</ele>
        <time>2013-05-02T12:43:18Z</time>
      </trkpt>
      <trkpt lat="47.69239" lon="-2.75962">
        <ele>30</ele>
        <time>2013-05-02T12:43:19Z</time>
      </trkpt>
      <trkpt lat="47.69234" lon="-2.75958">
        <ele>30</ele>
        <time>2013-05-02T12:43:20Z</time>
      </trkpt>
      <trkpt lat="47.69228" lon="-2.75951">
        <ele>30</ele>
        <time>2013-05-02T12:43:21Z</time>
      </trkpt>
      <trkpt lat="47.69225" lon="-2.75946">
        <ele>30</ele>
        <time>2013-05-02T12:43:22Z</time>
      </trkpt>
      <trkpt lat="47.69221" lon="-2.7594">
        <ele>30</ele>
        <time>2013-05-02T12:43:23Z</time>
      </trkpt>
      <trkpt lat="47.69217" lon="-2.75931">
        <ele>30</ele>
        <time>2013-05-02T12:43:24Z</time>
      </trkpt>
      <trkpt lat="47.69213" lon="-2.75925">
        <ele>30</ele>
        <time>2013-05-02T12:43:25Z</time>
      </trkpt>
      <trkpt lat="47.69209" lon="-2.75919">
        <ele>30</ele>
        <time>2013-05-02T12:43:26Z</time>
      </trkpt>
      <trkpt lat="47.69206" lon="-2.75913">
        <ele>30</ele>
        <time>2013-05-02T12:43:27Z</time>
      </trkpt>
      <trkpt lat="47.69203" lon="-2.75908">
        <ele>30</ele>
        <time>2013-05-02T12:43:28Z</time>
      </trkpt>
      <trkpt lat="47.69199" lon="-2.75903">
        <ele>30</ele>
        <time>2013-05-02T12:43:29Z</time>
      </trkpt>
      <trkpt lat="47.69194" lon="-2.75898">
        <ele>30</ele>
        <time>2013-05-02T12:43:30Z</time>
      </trkpt>
      <trkpt lat="47.6919" lon="-2.75894">
        <ele>30</ele>
        <time>2013-05-02T12:43:31Z</time>
      </trkpt>
      <trkpt lat="47.69186" lon="-2.75889">
        <ele>29</ele>
        <time>2013-05-02T12:43:32Z</time>
      </trkpt>
      <trkpt lat="47.69182" lon="-2.75884">
        <ele>28</ele>
        <time>2013-05-02T12:43:33Z</time>
      </trkpt>
      <trkpt lat="47.69178" lon="-2.75878">
        <ele>27</ele>
        <time>2013-05-02T12:43:34Z</time>
      </trkpt>
      <trkpt lat="47.69175" lon="-2.75872">
        <ele>26</ele>
        <time>2013-05-02T12:43:35Z</time>
      </trkpt>
      <trkpt lat="47.69171" lon="-2.75868">
        <ele>26</ele>
        <time>2013-05-02T12:43:36Z</time>
      </trkpt>
      <trkpt lat="47.69168" lon="-2.75863">
        <ele>25</ele>
        <time>2013-05-02T12:43:37Z</time>
      </trkpt>
      <trkpt lat="47.69164" lon="-2.75857">
        <ele>25</ele>
        <time>2013-05-02T12:43:38Z</time>
      </trkpt>
      <trkpt lat="47.6916" lon="-2.75852">
        <ele>25</ele>
        <time>2013-05-02T12:43:39Z</time>
      </trkpt>
      <trkpt lat="47.69157" lon="-2.75845">
        <ele>25</ele>
        <time>2013-05-02T12:43:40Z</time>
      </trkpt>
      <trkpt lat="47.69153" lon="-2.7584">
        <ele>25</ele>
        <time>2013-05-02T12:43:41Z</time>
      </trkpt>
      <trkpt lat="47.6915" lon="-2.75835">
        <ele>25</ele>
        <time>2013-05-02T12:43:42Z</time>
      </trkpt>
      <trkpt lat="47.69147" lon="-2.75831">
        <ele>25</ele>
        <time>2013-05-02T12:43:43Z</time>
      </trkpt>
      <trkpt lat="47.69144" lon="-2.75825">
        <ele>25</ele>
        <time>2013-05-02T12:43:44Z</time>
      </trkpt>
      <trkpt lat="47.6914" lon="-2.75819">
        <ele>25</ele>
        <time>2013-05-02T12:43:45Z</time>
      </trkpt>
      <trkpt lat="47.69136" lon="-2.75813">
        <ele>25</ele>
        <time>2013-05-02T12:43:46Z</time>
      </trkpt>
      <trkpt lat="47.69132" lon="-2.75807">
        <ele>25</ele>
        <time>2013-05-02T12:43:47Z</time>
      </trkpt>
      <trkpt lat="47.69128" lon="-2.758">
        <ele>25</ele>
        <time>2013-05-02T12:43:48Z</time>
      </trkpt>
      <trkpt lat="47.69124" lon="-2.75794">
        <ele>25</ele>
        <time>2013-05-02T12:43:49Z</time>
      </trkpt>
      <trkpt lat="47.69119" lon="-2.75787">
        <ele>25</ele>
        <time>2013-05-02T12:43:50Z</time>
      </trkpt>
      <trkpt lat="47.69115" lon="-2.75781">
        <ele>25</ele>
        <time>2013-05-02T12:43:51Z</time>
      </trkpt>
      <trkpt lat="47.69109" lon="-2.75774">
        <ele>25</ele>
        <time>2013-05-02T12:43:52Z</time>
      </trkpt>
      <trkpt lat="47.69106" lon="-2.75768">
        <ele>25</ele>
        <time>2013-05-02T12:43:53Z</time>
      </trkpt>
      <trkpt lat="47.69106" lon="-2.75762">
        <ele>25</ele>
        <time>2013-05-02T12:43:54Z</time>
      </trkpt>
      <trkpt lat="47.69107" lon="-2.75758">
        <ele>25</ele>
        <time>2013-05-02T12:43:55Z</time>
      </trkpt>
      <trkpt lat="47.69109" lon="-2.75757">
        <ele>25</ele>
        <time>2013-05-02T12:43:56Z</time>
      </trkpt>
      <trkpt lat="47.69111" lon="-2.75756">
        <ele>25</ele>
        <time>2013-05-02T12:43:57Z</time>
      </trkpt>
      <trkpt lat="47.69113" lon="-2.75754">
        <ele>25</ele>
        <time>2013-05-02T12:43:58Z</time>
      </trkpt>
      <trkpt lat="47.69115" lon="-2.75753">
        <ele>25</ele>
        <time>2013-05-02T12:43:59Z</time>
      </trkpt>
      <trkpt lat="47.69118" lon="-2.75751">
        <ele>25</ele>
        <time>2013-05-02T12:44:00Z</time>
      </trkpt>
      <trkpt lat="47.69122" lon="-2.75749">
        <ele>25</ele>
        <time>2013-05-02T12:44:01Z</time>
      </trkpt>
      <trkpt lat="47.69125" lon="-2.75747">
        <ele>25</ele>
        <time>2013-05-02T12:44:02Z</time>
      </trkpt>
      <trkpt lat="47.69129" lon="-2.75745">
        <ele>25</ele>
        <time>2013-05-02T12:44:03Z</time>
      </trkpt>
      <trkpt lat="47.69132" lon="-2.75743">
        <ele>25</ele>
        <time>2013-05-02T12:44:04Z</time>
      </trkpt>
      <trkpt lat="47.69136" lon="-2.75742">
        <ele>25</ele>
        <time>2013-05-02T12:44:05Z</time>
      </trkpt>
      <trkpt lat="47.69138" lon="-2.7574">
        <ele>26</ele>
        <time>2013-05-02T12:44:06Z</time>
      </trkpt>
      <trkpt lat="47.69141" lon="-2.7574">
        <ele>26</ele>
        <time>2013-05-02T12:44:07Z</time>
      </trkpt>
      <trkpt lat="47.69144" lon="-2.75739">
        <ele>26</ele>
        <time>2013-05-02T12:44:08Z</time>
      </trkpt>
      <trkpt lat="47.69147" lon="-2.75738">
        <ele>26</ele>
        <time>2013-05-02T12:44:09Z</time>
      </trkpt>
      <trkpt lat="47.69151" lon="-2.75737">
        <ele>26</ele>
        <time>2013-05-02T12:44:10Z</time>
      </trkpt>
      <trkpt lat="47.69154" lon="-2.75736">
        <ele>26</ele>
        <time>2013-05-02T12:44:11Z</time>
      </trkpt>
      <trkpt lat="47.69159" lon="-2.75735">
        <ele>26</ele>
        <time>2013-05-02T12:44:12Z</time>
      </trkpt>
      <trkpt lat="47.69163" lon="-2.75734">
        <ele>26</ele>
        <time>2013-05-02T12:44:13Z</time>
      </trkpt>
      <trkpt lat="47.69167" lon="-2.75733">
        <ele>26</ele>
        <time>2013-05-02T12:44:14Z</time>
      </trkpt>
      <trkpt lat="47.69172" lon="-2.75732">
        <ele>27</ele>
        <time>2013-05-02T12:44:15Z</time>
      </trkpt>
      <trkpt lat="47.69176" lon="-2.75731">
        <ele>27</ele>
        <time>2013-05-02T12:44:16Z</time>
      </trkpt>
      <trkpt lat="47.6918" lon="-2.75729">
        <ele>28</ele>
        <time>2013-05-02T12:44:17Z</time>
      </trkpt>
      <trkpt lat="47.69184" lon="-2.75728">
        <ele>28</ele>
        <time>2013-05-02T12:44:18Z</time>
      </trkpt>
      <trkpt lat="47.69188" lon="-2.75726">
        <ele>28</ele>
        <time>2013-05-02T12:44:19Z</time>
      </trkpt>
      <trkpt lat="47.69191" lon="-2.75725">
        <ele>29</ele>
        <time>2013-05-02T12:44:20Z</time>
      </trkpt>
      <trkpt lat="47.69194" lon="-2.75724">
        <ele>30</ele>
        <time>2013-05-02T12:44:21Z</time>
      </trkpt>
      <trkpt lat="47.69197" lon="-2.75723">
        <ele>30</ele>
        <time>2013-05-02T12:44:22Z</time>
      </trkpt>
      <trkpt lat="47.69198" lon="-2.75723">
        <ele>31</ele>
        <time>2013-05-02T12:44:23Z</time>
      </trkpt>
      <trkpt lat="47.692" lon="-2.75723">
        <ele>31</ele>
        <time>2013-05-02T12:44:24Z</time>
      </trkpt>
      <trkpt lat="47.692" lon="-2.75725">
        <ele>32</ele>
        <time>2013-05-02T12:44:25Z</time>
      </trkpt>
      <trkpt lat="47.69202" lon="-2.75728">
        <ele>32</ele>
        <time>2013-05-02T12:44:27Z</time>
      </trkpt>
      <trkpt lat="47.69203" lon="-2.75729">
        <ele>33</ele>
        <time>2013-05-02T12:44:28Z</time>
      </trkpt>
      <trkpt lat="47.69205" lon="-2.75729">
        <ele>33</ele>
        <time>2013-05-02T12:44:29Z</time>
      </trkpt>
      <trkpt lat="47.69207" lon="-2.7573">
        <ele>34</ele>
        <time>2013-05-02T12:44:30Z</time>
      </trkpt>
      <trkpt lat="47.69209" lon="-2.75733">
        <ele>35</ele>
        <time>2013-05-02T12:44:32Z</time>
      </trkpt>
      <trkpt lat="47.6921" lon="-2.75735">
        <ele>36</ele>
        <time>2013-05-02T12:44:34Z</time>
      </trkpt>
      <trkpt lat="47.69212" lon="-2.75738">
        <ele>37</ele>
        <time>2013-05-02T12:44:38Z</time>
      </trkpt>
      <trkpt lat="47.69213" lon="-2.75739">
        <ele>37</ele>
        <time>2013-05-02T12:44:39Z</time>
      </trkpt>
      <trkpt lat="47.69215" lon="-2.75741">
        <ele>37</ele>
        <time>2013-05-02T12:44:40Z</time>
      </trkpt>
      <trkpt lat="47.69217" lon="-2.75742">
        <ele>37</ele>
        <time>2013-05-02T12:44:41Z</time>
      </trkpt>
      <trkpt lat="47.69219" lon="-2.75743">
        <ele>37</ele>
        <time>2013-05-02T12:44:42Z</time>
      </trkpt>
      <trkpt lat="47.69221" lon="-2.75745">
        <ele>37</ele>
        <time>2013-05-02T12:44:43Z</time>
      </trkpt>
      <trkpt lat="47.69223" lon="-2.75747">
        <ele>37</ele>
        <time>2013-05-02T12:44:44Z</time>
      </trkpt>
      <trkpt lat="47.69225" lon="-2.75748">
        <ele>37</ele>
        <time>2013-05-02T12:44:45Z</time>
      </trkpt>
      <trkpt lat="47.69226" lon="-2.75749">
        <ele>37</ele>
        <time>2013-05-02T12:44:46Z</time>
      </trkpt>
      <trkpt lat="47.69228" lon="-2.7575">
        <ele>37</ele>
        <time>2013-05-02T12:44:47Z</time>
      </trkpt>
      <trkpt lat="47.69228" lon="-2.75752">
        <ele>37</ele>
        <time>2013-05-02T12:44:48Z</time>
      </trkpt>
      <trkpt lat="47.69228" lon="-2.75754">
        <ele>37</ele>
        <time>2013-05-02T12:44:50Z</time>
      </trkpt>
      <trkpt lat="47.6923" lon="-2.75755">
        <ele>37</ele>
        <time>2013-05-02T12:44:52Z</time>
      </trkpt>
      <trkpt lat="47.69232" lon="-2.75757">
        <ele>37</ele>
        <time>2013-05-02T12:44:54Z</time>
      </trkpt>
      <trkpt lat="47.69234" lon="-2.75759">
        <ele>37</ele>
        <time>2013-05-02T12:44:55Z</time>
      </trkpt>
      <trkpt lat="47.69235" lon="-2.75762">
        <ele>37</ele>
        <time>2013-05-02T12:44:56Z</time>
      </trkpt>
      <trkpt lat="47.69237" lon="-2.75765">
        <ele>37</ele>
        <time>2013-05-02T12:44:57Z</time>
      </trkpt>
      <trkpt lat="47.69239" lon="-2.75767">
        <ele>37</ele>
        <time>2013-05-02T12:44:58Z</time>
      </trkpt>
      <trkpt lat="47.6924" lon="-2.75768">
        <ele>37</ele>
        <time>2013-05-02T12:44:59Z</time>
      </trkpt>
      <trkpt lat="47.6924" lon="-2.75769">
        <ele>37</ele>
        <time>2013-05-02T12:45:00Z</time>
      </trkpt>
      <trkpt lat="47.69239" lon="-2.75768">
        <ele>37</ele>
        <time>2013-05-02T12:45:04Z</time>
      </trkpt>
      <trkpt lat="47.69238" lon="-2.75766">
        <ele>37</ele>
        <time>2013-05-02T12:45:05Z</time>
      </trkpt>
      <trkpt lat="47.69236" lon="-2.75764">
        <ele>37</ele>
        <time>2013-05-02T12:45:06Z</time>
      </trkpt>
      <trkpt lat="47.69234" lon="-2.75761">
        <ele>37</ele>
        <time>2013-05-02T12:45:07Z</time>
      </trkpt>
      <trkpt lat="47.69231" lon="-2.75759">
        <ele>37</ele>
        <time>2013-05-02T12:45:08Z</time>
      </trkpt>
      <trkpt lat="47.69229" lon="-2.75757">
        <ele>37</ele>
        <time>2013-05-02T12:45:09Z</time>
      </trkpt>
      <trkpt lat="47.69226" lon="-2.75753">
        <ele>37</ele>
        <time>2013-05-02T12:45:10Z</time>
      </trkpt>
      <trkpt lat="47.69223" lon="-2.7575">
        <ele>38</ele>
        <time>2013-05-02T12:45:11Z</time>
      </trkpt>
      <trkpt lat="47.69218" lon="-2.75745">
        <ele>38</ele>
        <time>2013-05-02T12:45:12Z</time>
      </trkpt>
      <trkpt lat="47.69213" lon="-2.75742">
        <ele>38</ele>
        <time>2013-05-02T12:45:13Z</time>
      </trkpt>
      <trkpt lat="47.69209" lon="-2.75739">
        <ele>38</ele>
        <time>2013-05-02T12:45:14Z</time>
      </trkpt>
      <trkpt lat="47.69205" lon="-2.75736">
        <ele>38</ele>
        <time>2013-05-02T12:45:15Z</time>
      </trkpt>
      <trkpt lat="47.69201" lon="-2.75732">
        <ele>38</ele>
        <time>2013-05-02T12:45:16Z</time>
      </trkpt>
      <trkpt lat="47.69197" lon="-2.75726">
        <ele>38</ele>
        <time>2013-05-02T12:45:17Z</time>
      </trkpt>
      <trkpt lat="47.69193" lon="-2.75721">
        <ele>38</ele>
        <time>2013-05-02T12:45:18Z</time>
      </trkpt>
      <trkpt lat="47.69188" lon="-2.75717">
        <ele>38</ele>
        <time>2013-05-02T12:45:19Z</time>
      </trkpt>
      <trkpt lat="47.69184" lon="-2.75713">
        <ele>38</ele>
        <time>2013-05-02T12:45:20Z</time>
      </trkpt>
      <trkpt lat="47.6918" lon="-2.75709">
        <ele>38</ele>
        <time>2013-05-02T12:45:21Z</time>
      </trkpt>
      <trkpt lat="47.69177" lon="-2.75705">
        <ele>38</ele>
        <time>2013-05-02T12:45:22Z</time>
      </trkpt>
      <trkpt lat="47.69173" lon="-2.75701">
        <ele>38</ele>
        <time>2013-05-02T12:45:23Z</time>
      </trkpt>
      <trkpt lat="47.69169" lon="-2.75696">
        <ele>38</ele>
        <time>2013-05-02T12:45:24Z</time>
      </trkpt>
      <trkpt lat="47.69165" lon="-2.75691">
        <ele>38</ele>
        <time>2013-05-02T12:45:25Z</time>
      </trkpt>
      <trkpt lat="47.69161" lon="-2.75685">
        <ele>39</ele>
        <time>2013-05-02T12:45:26Z</time>
      </trkpt>
      <trkpt lat="47.69156" lon="-2.7568">
        <ele>40</ele>
        <time>2013-05-02T12:45:27Z</time>
      </trkpt>
      <trkpt lat="47.69153" lon="-2.75675">
        <ele>40</ele>
        <time>2013-05-02T12:45:28Z</time>
      </trkpt>
      <trkpt lat="47.69149" lon="-2.75668">
        <ele>41</ele>
        <time>2013-05-02T12:45:29Z</time>
      </trkpt>
      <trkpt lat="47.69144" lon="-2.7566">
        <ele>42</ele>
        <time>2013-05-02T12:45:30Z</time>
      </trkpt>
      <trkpt lat="47.69141" lon="-2.75653">
        <ele>43</ele>
        <time>2013-05-02T12:45:31Z</time>
      </trkpt>
      <trkpt lat="47.69139" lon="-2.75646">
        <ele>43</ele>
        <time>2013-05-02T12:45:32Z</time>
      </trkpt>
      <trkpt lat="47.69138" lon="-2.75639">
        <ele>44</ele>
        <time>2013-05-02T12:45:33Z</time>
      </trkpt>
      <trkpt lat="47.69137" lon="-2.75632">
        <ele>44</ele>
        <time>2013-05-02T12:45:34Z</time>
      </trkpt>
      <trkpt lat="47.69137" lon="-2.75626">
        <ele>44</ele>
        <time>2013-05-02T12:45:35Z</time>
      </trkpt>
      <trkpt lat="47.69136" lon="-2.75622">
        <ele>44</ele>
        <time>2013-05-02T12:45:36Z</time>
      </trkpt>
      <trkpt lat="47.69136" lon="-2.75617">
        <ele>44</ele>
        <time>2013-05-02T12:45:37Z</time>
      </trkpt>
      <trkpt lat="47.69135" lon="-2.75611">
        <ele>44</ele>
        <time>2013-05-02T12:45:38Z</time>
      </trkpt>
      <trkpt lat="47.69135" lon="-2.75605">
        <ele>44</ele>
        <time>2013-05-02T12:45:39Z</time>
      </trkpt>
      <trkpt lat="47.69135" lon="-2.75598">
        <ele>44</ele>
        <time>2013-05-02T12:45:40Z</time>
      </trkpt>
      <trkpt lat="47.69136" lon="-2.75591">
        <ele>44</ele>
        <time>2013-05-02T12:45:41Z</time>
      </trkpt>
      <trkpt lat="47.69136" lon="-2.75586">
        <ele>44</ele>
        <time>2013-05-02T12:45:42Z</time>
      </trkpt>
      <trkpt lat="47.69136" lon="-2.7558">
        <ele>44</ele>
        <time>2013-05-02T12:45:43Z</time>
      </trkpt>
      <trkpt lat="47.69136" lon="-2.75573">
        <ele>44</ele>
        <time>2013-05-02T12:45:44Z</time>
      </trkpt>
      <trkpt lat="47.69136" lon="-2.75568">
        <ele>44</ele>
        <time>2013-05-02T12:45:45Z</time>
      </trkpt>
      <trkpt lat="47.69138" lon="-2.75564">
        <ele>44</ele>
        <time>2013-05-02T12:45:46Z</time>
      </trkpt>
      <trkpt lat="47.6914" lon="-2.7556">
        <ele>44</ele>
        <time>2013-05-02T12:45:47Z</time>
      </trkpt>
      <trkpt lat="47.69141" lon="-2.75555">
        <ele>44</ele>
        <time>2013-05-02T12:45:48Z</time>
      </trkpt>
      <trkpt lat="47.69143" lon="-2.7555">
        <ele>44</ele>
        <time>2013-05-02T12:45:49Z</time>
      </trkpt>
      <trkpt lat="47.69144" lon="-2.75545">
        <ele>44</ele>
        <time>2013-05-02T12:45:50Z</time>
      </trkpt>
      <trkpt lat="47.69144" lon="-2.75538">
        <ele>44</ele>
        <time>2013-05-02T12:45:51Z</time>
      </trkpt>
      <trkpt lat="47.69145" lon="-2.75534">
        <ele>45</ele>
        <time>2013-05-02T12:45:52Z</time>
      </trkpt>
      <trkpt lat="47.69147" lon="-2.7553">
        <ele>46</ele>
        <time>2013-05-02T12:45:53Z</time>
      </trkpt>
      <trkpt lat="47.69147" lon="-2.75525">
        <ele>47</ele>
        <time>2013-05-02T12:45:54Z</time>
      </trkpt>
      <trkpt lat="47.69148" lon="-2.75521">
        <ele>48</ele>
        <time>2013-05-02T12:45:55Z</time>
      </trkpt>
      <trkpt lat="47.69149" lon="-2.75518">
        <ele>49</ele>
        <time>2013-05-02T12:45:56Z</time>
      </trkpt>
      <trkpt lat="47.69149" lon="-2.75514">
        <ele>49</ele>
        <time>2013-05-02T12:45:57Z</time>
      </trkpt>
      <trkpt lat="47.69149" lon="-2.75509">
        <ele>49</ele>
        <time>2013-05-02T12:45:58Z</time>
      </trkpt>
      <trkpt lat="47.69149" lon="-2.75504">
        <ele>49</ele>
        <time>2013-05-02T12:45:59Z</time>
      </trkpt>
      <trkpt lat="47.69148" lon="-2.75501">
        <ele>49</ele>
        <time>2013-05-02T12:46:00Z</time>
      </trkpt>
      <trkpt lat="47.69147" lon="-2.75498">
        <ele>49</ele>
        <time>2013-05-02T12:46:01Z</time>
      </trkpt>
      <trkpt lat="47.69145" lon="-2.75495">
        <ele>49</ele>
        <time>2013-05-02T12:46:02Z</time>
      </trkpt>
      <trkpt lat="47.69143" lon="-2.75492">
        <ele>49</ele>
        <time>2013-05-02T12:46:03Z</time>
      </trkpt>
      <trkpt lat="47.69142" lon="-2.75488">
        <ele>49</ele>
        <time>2013-05-02T12:46:04Z</time>
      </trkpt>
      <trkpt lat="47.6914" lon="-2.75485">
        <ele>49</ele>
        <time>2013-05-02T12:46:05Z</time>
      </trkpt>
      <trkpt lat="47.69138" lon="-2.75481">
        <ele>49</ele>
        <time>2013-05-02T12:46:06Z</time>
      </trkpt>
      <trkpt lat="47.69135" lon="-2.75478">
        <ele>49</ele>
        <time>2013-05-02T12:46:07Z</time>
      </trkpt>
      <trkpt lat="47.69133" lon="-2.75474">
        <ele>49</ele>
        <time>2013-05-02T12:46:08Z</time>
      </trkpt>
      <trkpt lat="47.69131" lon="-2.7547">
        <ele>49</ele>
        <time>2013-05-02T12:46:09Z</time>
      </trkpt>
      <trkpt lat="47.6913" lon="-2.75467">
        <ele>49</ele>
        <time>2013-05-02T12:46:10Z</time>
      </trkpt>
      <trkpt lat="47.69129" lon="-2.75464">
        <ele>49</ele>
        <time>2013-05-02T12:46:11Z</time>
      </trkpt>
      <trkpt lat="47.69128" lon="-2.75461">
        <ele>49</ele>
        <time>2013-05-02T12:46:12Z</time>
      </trkpt>
      <trkpt lat="47.69127" lon="-2.75457">
        <ele>49</ele>
        <time>2013-05-02T12:46:13Z</time>
      </trkpt>
      <trkpt lat="47.69127" lon="-2.75452">
        <ele>49</ele>
        <time>2013-05-02T12:46:14Z</time>
      </trkpt>
      <trkpt lat="47.69127" lon="-2.75446">
        <ele>50</ele>
        <time>2013-05-02T12:46:15Z</time>
      </trkpt>
      <trkpt lat="47.69126" lon="-2.75441">
        <ele>50</ele>
        <time>2013-05-02T12:46:16Z</time>
      </trkpt>
      <trkpt lat="47.69127" lon="-2.75435">
        <ele>50</ele>
        <time>2013-05-02T12:46:17Z</time>
      </trkpt>
      <trkpt lat="47.69127" lon="-2.7543">
        <ele>50</ele>
        <time>2013-05-02T12:46:18Z</time>
      </trkpt>
      <trkpt lat="47.69128" lon="-2.75424">
        <ele>50</ele>
        <time>2013-05-02T12:46:19Z</time>
      </trkpt>
      <trkpt lat="47.69129" lon="-2.75419">
        <ele>50</ele>
        <time>2013-05-02T12:46:20Z</time>
      </trkpt>
      <trkpt lat="47.69131" lon="-2.75414">
        <ele>50</ele>
        <time>2013-05-02T12:46:21Z</time>
      </trkpt>
      <trkpt lat="47.69133" lon="-2.7541">
        <ele>50</ele>
        <time>2013-05-02T12:46:22Z</time>
      </trkpt>
      <trkpt lat="47.69134" lon="-2.75407">
        <ele>50</ele>
        <time>2013-05-02T12:46:23Z</time>
      </trkpt>
      <trkpt lat="47.69136" lon="-2.75403">
        <ele>50</ele>
        <time>2013-05-02T12:46:24Z</time>
      </trkpt>
      <trkpt lat="47.69138" lon="-2.754">
        <ele>50</ele>
        <time>2013-05-02T12:46:25Z</time>
      </trkpt>
      <trkpt lat="47.6914" lon="-2.75398">
        <ele>50</ele>
        <time>2013-05-02T12:46:26Z</time>
      </trkpt>
      <trkpt lat="47.69143" lon="-2.75396">
        <ele>50</ele>
        <time>2013-05-02T12:46:27Z</time>
      </trkpt>
      <trkpt lat="47.69144" lon="-2.75394">
        <ele>50</ele>
        <time>2013-05-02T12:46:28Z</time>
      </trkpt>
      <trkpt lat="47.69146" lon="-2.75391">
        <ele>50</ele>
        <time>2013-05-02T12:46:29Z</time>
      </trkpt>
      <trkpt lat="47.69149" lon="-2.75388">
        <ele>50</ele>
        <time>2013-05-02T12:46:30Z</time>
      </trkpt>
      <trkpt lat="47.6915" lon="-2.75385">
        <ele>50</ele>
        <time>2013-05-02T12:46:31Z</time>
      </trkpt>
      <trkpt lat="47.69152" lon="-2.75382">
        <ele>50</ele>
        <time>2013-05-02T12:46:32Z</time>
      </trkpt>
      <trkpt lat="47.69155" lon="-2.7538">
        <ele>50</ele>
        <time>2013-05-02T12:46:33Z</time>
      </trkpt>
      <trkpt lat="47.69158" lon="-2.75376">
        <ele>50</ele>
        <time>2013-05-02T12:46:34Z</time>
      </trkpt>
      <trkpt lat="47.6916" lon="-2.75373">
        <ele>50</ele>
        <time>2013-05-02T12:46:35Z</time>
      </trkpt>
      <trkpt lat="47.69164" lon="-2.7537">
        <ele>50</ele>
        <time>2013-05-02T12:46:36Z</time>
      </trkpt>
      <trkpt lat="47.69167" lon="-2.75367">
        <ele>50</ele>
        <time>2013-05-02T12:46:37Z</time>
      </trkpt>
      <trkpt lat="47.6917" lon="-2.75365">
        <ele>50</ele>
        <time>2013-05-02T12:46:38Z</time>
      </trkpt>
      <trkpt lat="47.69173" lon="-2.75363">
        <ele>50</ele>
        <time>2013-05-02T12:46:39Z</time>
      </trkpt>
      <trkpt lat="47.69176" lon="-2.75362">
        <ele>50</ele>
        <time>2013-05-02T12:46:40Z</time>
      </trkpt>
      <trkpt lat="47.69179" lon="-2.75361">
        <ele>50</ele>
        <time>2013-05-02T12:46:41Z</time>
      </trkpt>
      <trkpt lat="47.69183" lon="-2.7536">
        <ele>50</ele>
        <time>2013-05-02T12:46:42Z</time>
      </trkpt>
      <trkpt lat="47.69186" lon="-2.75359">
        <ele>50</ele>
        <time>2013-05-02T12:46:43Z</time>
      </trkpt>
      <trkpt lat="47.69189" lon="-2.75359">
        <ele>50</ele>
        <time>2013-05-02T12:46:44Z</time>
      </trkpt>
      <trkpt lat="47.69192" lon="-2.75359">
        <ele>50</ele>
        <time>2013-05-02T12:46:45Z</time>
      </trkpt>
      <trkpt lat="47.69195" lon="-2.75358">
        <ele>50</ele>
        <time>2013-05-02T12:46:46Z</time>
      </trkpt>
      <trkpt lat="47.69198" lon="-2.75357">
        <ele>50</ele>
        <time>2013-05-02T12:46:47Z</time>
      </trkpt>
      <trkpt lat="47.69201" lon="-2.75356">
        <ele>50</ele>
        <time>2013-05-02T12:46:48Z</time>
      </trkpt>
      <trkpt lat="47.69204" lon="-2.75355">
        <ele>50</ele>
        <time>2013-05-02T12:46:49Z</time>
      </trkpt>
      <trkpt lat="47.69208" lon="-2.75354">
        <ele>50</ele>
        <time>2013-05-02T12:46:50Z</time>
      </trkpt>
      <trkpt lat="47.69212" lon="-2.75353">
        <ele>50</ele>
        <time>2013-05-02T12:46:51Z</time>
      </trkpt>
      <trkpt lat="47.69215" lon="-2.75352">
        <ele>50</ele>
        <time>2013-05-02T12:46:52Z</time>
      </trkpt>
      <trkpt lat="47.69218" lon="-2.75351">
        <ele>50</ele>
        <time>2013-05-02T12:46:53Z</time>
      </trkpt>
      <trkpt lat="47.69221" lon="-2.75351">
        <ele>50</ele>
        <time>2013-05-02T12:46:54Z</time>
      </trkpt>
      <trkpt lat="47.69225" lon="-2.7535">
        <ele>50</ele>
        <time>2013-05-02T12:46:55Z</time>
      </trkpt>
      <trkpt lat="47.69228" lon="-2.7535">
        <ele>50</ele>
        <time>2013-05-02T12:46:56Z</time>
      </trkpt>
      <trkpt lat="47.69231" lon="-2.75349">
        <ele>50</ele>
        <time>2013-05-02T12:46:57Z</time>
      </trkpt>
      <trkpt lat="47.69234" lon="-2.75348">
        <ele>50</ele>
        <time>2013-05-02T12:46:58Z</time>
      </trkpt>
      <trkpt lat="47.69238" lon="-2.75348">
        <ele>50</ele>
        <time>2013-05-02T12:46:59Z</time>
      </trkpt>
      <trkpt lat="47.69241" lon="-2.75348">
        <ele>50</ele>
        <time>2013-05-02T12:47:00Z</time>
      </trkpt>
      <trkpt lat="47.69244" lon="-2.75349">
        <ele>50</ele>
        <time>2013-05-02T12:47:01Z</time>
      </trkpt>
      <trkpt lat="47.69247" lon="-2.75349">
        <ele>50</ele>
        <time>2013-05-02T12:47:02Z</time>
      </trkpt>
      <trkpt lat="47.6925" lon="-2.75349">
        <ele>50</ele>
        <time>2013-05-02T12:47:03Z</time>
      </trkpt>
      <trkpt lat="47.69253" lon="-2.75351">
        <ele>50</ele>
        <time>2013-05-02T12:47:04Z</time>
      </trkpt>
      <trkpt lat="47.69256" lon="-2.75352">
        <ele>50</ele>
        <time>2013-05-02T12:47:05Z</time>
      </trkpt>
      <trkpt lat="47.69259" lon="-2.75352">
        <ele>50</ele>
        <time>2013-05-02T12:47:06Z</time>
      </trkpt>
      <trkpt lat="47.69262" lon="-2.75353">
        <ele>50</ele>
        <time>2013-05-02T12:47:07Z</time>
      </trkpt>
      <trkpt lat="47.69264" lon="-2.75353">
        <ele>50</ele>
        <time>2013-05-02T12:47:08Z</time>
      </trkpt>
      <trkpt lat="47.69267" lon="-2.75353">
        <ele>50</ele>
        <time>2013-05-02T12:47:09Z</time>
      </trkpt>
      <trkpt lat="47.69269" lon="-2.75353">
        <ele>50</ele>
        <time>2013-05-02T12:47:10Z</time>
      </trkpt>
      <trkpt lat="47.69272" lon="-2.75354">
        <ele>50</ele>
        <time>2013-05-02T12:47:11Z</time>
      </trkpt>
      <trkpt lat="47.69275" lon="-2.75354">
        <ele>50</ele>
        <time>2013-05-02T12:47:12Z</time>
      </trkpt>
      <trkpt lat="47.69278" lon="-2.75354">
        <ele>50</ele>
        <time>2013-05-02T12:47:13Z</time>
      </trkpt>
      <trkpt lat="47.69281" lon="-2.75354">
        <ele>50</ele>
        <time>2013-05-02T12:47:14Z</time>
      </trkpt>
      <trkpt lat="47.69285" lon="-2.75354">
        <ele>50</ele>
        <time>2013-05-02T12:47:15Z</time>
      </trkpt>
      <trkpt lat="47.69288" lon="-2.75354">
        <ele>50</ele>
        <time>2013-05-02T12:47:16Z</time>
      </trkpt>
      <trkpt lat="47.69292" lon="-2.75354">
        <ele>51</ele>
        <time>2013-05-02T12:47:17Z</time>
      </trkpt>
      <trkpt lat="47.69295" lon="-2.75354">
        <ele>51</ele>
        <time>2013-05-02T12:47:18Z</time>
      </trkpt>
      <trkpt lat="47.69298" lon="-2.75354">
        <ele>51</ele>
        <time>2013-05-02T12:47:19Z</time>
      </trkpt>
      <trkpt lat="47.69302" lon="-2.75353">
        <ele>51</ele>
        <time>2013-05-02T12:47:20Z</time>
      </trkpt>
      <trkpt lat="47.69306" lon="-2.75351">
        <ele>51</ele>
        <time>2013-05-02T12:47:21Z</time>
      </trkpt>
      <trkpt lat="47.6931" lon="-2.75349">
        <ele>51</ele>
        <time>2013-05-02T12:47:22Z</time>
      </trkpt>
      <trkpt lat="47.69313" lon="-2.75347">
        <ele>51</ele>
        <time>2013-05-02T12:47:23Z</time>
      </trkpt>
      <trkpt lat="47.69317" lon="-2.75345">
        <ele>51</ele>
        <time>2013-05-02T12:47:24Z</time>
      </trkpt>
      <trkpt lat="47.69321" lon="-2.75343">
        <ele>51</ele>
        <time>2013-05-02T12:47:25Z</time>
      </trkpt>
      <trkpt lat="47.69324" lon="-2.7534">
        <ele>51</ele>
        <time>2013-05-02T12:47:26Z</time>
      </trkpt>
      <trkpt lat="47.69329" lon="-2.75337">
        <ele>51</ele>
        <time>2013-05-02T12:47:27Z</time>
      </trkpt>
      <trkpt lat="47.69333" lon="-2.75334">
        <ele>51</ele>
        <time>2013-05-02T12:47:28Z</time>
      </trkpt>
      <trkpt lat="47.69337" lon="-2.75331">
        <ele>51</ele>
        <time>2013-05-02T12:47:29Z</time>
      </trkpt>
      <trkpt lat="47.6934" lon="-2.75328">
        <ele>51</ele>
        <time>2013-05-02T12:47:30Z</time>
      </trkpt>
      <trkpt lat="47.69342" lon="-2.75325">
        <ele>51</ele>
        <time>2013-05-02T12:47:31Z</time>
      </trkpt>
      <trkpt lat="47.69343" lon="-2.75322">
        <ele>51</ele>
        <time>2013-05-02T12:47:32Z</time>
      </trkpt>
      <trkpt lat="47.69345" lon="-2.75318">
        <ele>51</ele>
        <time>2013-05-02T12:47:33Z</time>
      </trkpt>
      <trkpt lat="47.69347" lon="-2.75313">
        <ele>51</ele>
        <time>2013-05-02T12:47:34Z</time>
      </trkpt>
      <trkpt lat="47.6935" lon="-2.75308">
        <ele>51</ele>
        <time>2013-05-02T12:47:35Z</time>
      </trkpt>
      <trkpt lat="47.69352" lon="-2.75304">
        <ele>51</ele>
        <time>2013-05-02T12:47:36Z</time>
      </trkpt>
      <trkpt lat="47.69354" lon="-2.75299">
        <ele>51</ele>
        <time>2013-05-02T12:47:37Z</time>
      </trkpt>
      <trkpt lat="47.69355" lon="-2.75295">
        <ele>51</ele>
        <time>2013-05-02T12:47:38Z</time>
      </trkpt>
      <trkpt lat="47.69357" lon="-2.75292">
        <ele>51</ele>
        <time>2013-05-02T12:47:39Z</time>
      </trkpt>
      <trkpt lat="47.69358" lon="-2.7529">
        <ele>51</ele>
        <time>2013-05-02T12:47:40Z</time>
      </trkpt>
      <trkpt lat="47.69359" lon="-2.75288">
        <ele>51</ele>
        <time>2013-05-02T12:47:41Z</time>
      </trkpt>
      <trkpt lat="47.69358" lon="-2.75287">
        <ele>51</ele>
        <time>2013-05-02T12:47:43Z</time>
      </trkpt>
      <trkpt lat="47.69356" lon="-2.75287">
        <ele>51</ele>
        <time>2013-05-02T12:47:44Z</time>
      </trkpt>
      <trkpt lat="47.69354" lon="-2.75287">
        <ele>51</ele>
        <time>2013-05-02T12:47:45Z</time>
      </trkpt>
      <trkpt lat="47.69352" lon="-2.75287">
        <ele>51</ele>
        <time>2013-05-02T12:47:46Z</time>
      </trkpt>
      <trkpt lat="47.69349" lon="-2.75287">
        <ele>51</ele>
        <time>2013-05-02T12:47:47Z</time>
      </trkpt>
      <trkpt lat="47.69346" lon="-2.75286">
        <ele>51</ele>
        <time>2013-05-02T12:47:48Z</time>
      </trkpt>
      <trkpt lat="47.69343" lon="-2.75284">
        <ele>51</ele>
        <time>2013-05-02T12:47:49Z</time>
      </trkpt>
      <trkpt lat="47.6934" lon="-2.75281">
        <ele>50</ele>
        <time>2013-05-02T12:47:50Z</time>
      </trkpt>
      <trkpt lat="47.69338" lon="-2.75277">
        <ele>50</ele>
        <time>2013-05-02T12:47:51Z</time>
      </trkpt>
      <trkpt lat="47.69338" lon="-2.75275">
        <ele>49</ele>
        <time>2013-05-02T12:47:52Z</time>
      </trkpt>
      <trkpt lat="47.69337" lon="-2.75274">
        <ele>49</ele>
        <time>2013-05-02T12:47:53Z</time>
      </trkpt>
      <trkpt lat="47.69335" lon="-2.75272">
        <ele>49</ele>
        <time>2013-05-02T12:47:55Z</time>
      </trkpt>
      <trkpt lat="47.69334" lon="-2.75273">
        <ele>49</ele>
        <time>2013-05-02T12:48:00Z</time>
      </trkpt>
      <trkpt lat="47.69337" lon="-2.7528">
        <ele>49</ele>
        <time>2013-05-02T12:48:02Z</time>
      </trkpt>
      <trkpt lat="47.6934" lon="-2.75281">
        <ele>49</ele>
        <time>2013-05-02T12:48:03Z</time>
      </trkpt>
      <trkpt lat="47.69342" lon="-2.75283">
        <ele>49</ele>
        <time>2013-05-02T12:48:04Z</time>
      </trkpt>
      <trkpt lat="47.69345" lon="-2.75283">
        <ele>49</ele>
        <time>2013-05-02T12:48:05Z</time>
      </trkpt>
      <trkpt lat="47.69347" lon="-2.75284">
        <ele>49</ele>
        <time>2013-05-02T12:48:06Z</time>
      </trkpt>
      <trkpt lat="47.69349" lon="-2.75284">
        <ele>49</ele>
        <time>2013-05-02T12:48:07Z</time>
      </trkpt>
      <trkpt lat="47.6935" lon="-2.75283">
        <ele>49</ele>
        <time>2013-05-02T12:48:08Z</time>
      </trkpt>
      <trkpt lat="47.69353" lon="-2.75282">
        <ele>49</ele>
        <time>2013-05-02T12:48:09Z</time>
      </trkpt>
      <trkpt lat="47.69355" lon="-2.75282">
        <ele>49</ele>
        <time>2013-05-02T12:48:10Z</time>
      </trkpt>
      <trkpt lat="47.69358" lon="-2.75281">
        <ele>49</ele>
        <time>2013-05-02T12:48:11Z</time>
      </trkpt>
      <trkpt lat="47.6936" lon="-2.75279">
        <ele>49</ele>
        <time>2013-05-02T12:48:12Z</time>
      </trkpt>
      <trkpt lat="47.69362" lon="-2.75277">
        <ele>49</ele>
        <time>2013-05-02T12:48:13Z</time>
      </trkpt>
      <trkpt lat="47.69364" lon="-2.75274">
        <ele>49</ele>
        <time>2013-05-02T12:48:14Z</time>
      </trkpt>
      <trkpt lat="47.69366" lon="-2.7527">
        <ele>49</ele>
        <time>2013-05-02T12:48:15Z</time>
      </trkpt>
      <trkpt lat="47.69369" lon="-2.75267">
        <ele>49</ele>
        <time>2013-05-02T12:48:16Z</time>
      </trkpt>
      <trkpt lat="47.69371" lon="-2.75265">
        <ele>49</ele>
        <time>2013-05-02T12:48:17Z</time>
      </trkpt>
      <trkpt lat="47.69375" lon="-2.75263">
        <ele>49</ele>
        <time>2013-05-02T12:48:18Z</time>
      </trkpt>
      <trkpt lat="47.69378" lon="-2.75261">
        <ele>50</ele>
        <time>2013-05-02T12:48:19Z</time>
      </trkpt>
      <trkpt lat="47.69381" lon="-2.7526">
        <ele>50</ele>
        <time>2013-05-02T12:48:20Z</time>
      </trkpt>
      <trkpt lat="47.69384" lon="-2.75259">
        <ele>50</ele>
        <time>2013-05-02T12:48:21Z</time>
      </trkpt>
      <trkpt lat="47.69387" lon="-2.75257">
        <ele>50</ele>
        <time>2013-05-02T12:48:22Z</time>
      </trkpt>
      <trkpt lat="47.69389" lon="-2.75257">
        <ele>50</ele>
        <time>2013-05-02T12:48:23Z</time>
      </trkpt>
      <trkpt lat="47.69392" lon="-2.75257">
        <ele>51</ele>
        <time>2013-05-02T12:48:24Z</time>
      </trkpt>
      <trkpt lat="47.69395" lon="-2.75256">
        <ele>51</ele>
        <time>2013-05-02T12:48:25Z</time>
      </trkpt>
      <trkpt lat="47.69398" lon="-2.75256">
        <ele>52</ele>
        <time>2013-05-02T12:48:26Z</time>
      </trkpt>
      <trkpt lat="47.69401" lon="-2.75257">
        <ele>52</ele>
        <time>2013-05-02T12:48:27Z</time>
      </trkpt>
      <trkpt lat="47.69405" lon="-2.75256">
        <ele>52</ele>
        <time>2013-05-02T12:48:28Z</time>
      </trkpt>
      <trkpt lat="47.69408" lon="-2.75257">
        <ele>53</ele>
        <time>2013-05-02T12:48:29Z</time>
      </trkpt>
      <trkpt lat="47.69411" lon="-2.75258">
        <ele>53</ele>
        <time>2013-05-02T12:48:30Z</time>
      </trkpt>
      <trkpt lat="47.69415" lon="-2.75259">
        <ele>53</ele>
        <time>2013-05-02T12:48:31Z</time>
      </trkpt>
      <trkpt lat="47.69418" lon="-2.7526">
        <ele>53</ele>
        <time>2013-05-02T12:48:32Z</time>
      </trkpt>
      <trkpt lat="47.69421" lon="-2.7526">
        <ele>53</ele>
        <time>2013-05-02T12:48:33Z</time>
      </trkpt>
      <trkpt lat="47.69425" lon="-2.7526">
        <ele>53</ele>
        <time>2013-05-02T12:48:34Z</time>
      </trkpt>
      <trkpt lat="47.69428" lon="-2.75261">
        <ele>53</ele>
        <time>2013-05-02T12:48:35Z</time>
      </trkpt>
      <trkpt lat="47.69431" lon="-2.75259">
        <ele>53</ele>
        <time>2013-05-02T12:48:36Z</time>
      </trkpt>
      <trkpt lat="47.69433" lon="-2.75257">
        <ele>54</ele>
        <time>2013-05-02T12:48:37Z</time>
      </trkpt>
      <trkpt lat="47.69435" lon="-2.75254">
        <ele>54</ele>
        <time>2013-05-02T12:48:38Z</time>
      </trkpt>
      <trkpt lat="47.69436" lon="-2.7525">
        <ele>54</ele>
        <time>2013-05-02T12:48:39Z</time>
      </trkpt>
      <trkpt lat="47.69436" lon="-2.75245">
        <ele>54</ele>
        <time>2013-05-02T12:48:40Z</time>
      </trkpt>
      <trkpt lat="47.69436" lon="-2.7524">
        <ele>54</ele>
        <time>2013-05-02T12:48:41Z</time>
      </trkpt>
      <trkpt lat="47.69436" lon="-2.75235">
        <ele>54</ele>
        <time>2013-05-02T12:48:42Z</time>
      </trkpt>
      <trkpt lat="47.69434" lon="-2.7523">
        <ele>54</ele>
        <time>2013-05-02T12:48:43Z</time>
      </trkpt>
      <trkpt lat="47.69432" lon="-2.75223">
        <ele>54</ele>
        <time>2013-05-02T12:48:44Z</time>
      </trkpt>
      <trkpt lat="47.6943" lon="-2.75218">
        <ele>54</ele>
        <time>2013-05-02T12:48:45Z</time>
      </trkpt>
      <trkpt lat="47.69427" lon="-2.75211">
        <ele>54</ele>
        <time>2013-05-02T12:48:46Z</time>
      </trkpt>
      <trkpt lat="47.69425" lon="-2.75204">
        <ele>54</ele>
        <time>2013-05-02T12:48:47Z</time>
      </trkpt>
      <trkpt lat="47.69423" lon="-2.75197">
        <ele>55</ele>
        <time>2013-05-02T12:48:48Z</time>
      </trkpt>
      <trkpt lat="47.69422" lon="-2.7519">
        <ele>55</ele>
        <time>2013-05-02T12:48:49Z</time>
      </trkpt>
      <trkpt lat="47.69423" lon="-2.75183">
        <ele>55</ele>
        <time>2013-05-02T12:48:50Z</time>
      </trkpt>
      <trkpt lat="47.69425" lon="-2.75176">
        <ele>55</ele>
        <time>2013-05-02T12:48:51Z</time>
      </trkpt>
      <trkpt lat="47.69428" lon="-2.7517">
        <ele>55</ele>
        <time>2013-05-02T12:48:52Z</time>
      </trkpt>
      <trkpt lat="47.6943" lon="-2.75166">
        <ele>55</ele>
        <time>2013-05-02T12:48:53Z</time>
      </trkpt>
      <trkpt lat="47.69432" lon="-2.75162">
        <ele>55</ele>
        <time>2013-05-02T12:48:54Z</time>
      </trkpt>
      <trkpt lat="47.69432" lon="-2.7516">
        <ele>55</ele>
        <time>2013-05-02T12:48:55Z</time>
      </trkpt>
      <trkpt lat="47.6943" lon="-2.75158">
        <ele>55</ele>
        <time>2013-05-02T12:48:57Z</time>
      </trkpt>
      <trkpt lat="47.69429" lon="-2.75159">
        <ele>55</ele>
        <time>2013-05-02T12:48:58Z</time>
      </trkpt>
      <trkpt lat="47.69426" lon="-2.75161">
        <ele>55</ele>
        <time>2013-05-02T12:48:59Z</time>
      </trkpt>
      <trkpt lat="47.69424" lon="-2.75163">
        <ele>55</ele>
        <time>2013-05-02T12:49:00Z</time>
      </trkpt>
      <trkpt lat="47.69421" lon="-2.75163">
        <ele>55</ele>
        <time>2013-05-02T12:49:01Z</time>
      </trkpt>
      <trkpt lat="47.69418" lon="-2.75163">
        <ele>55</ele>
        <time>2013-05-02T12:49:02Z</time>
      </trkpt>
      <trkpt lat="47.69416" lon="-2.75164">
        <ele>54</ele>
        <time>2013-05-02T12:49:03Z</time>
      </trkpt>
      <trkpt lat="47.69415" lon="-2.75165">
        <ele>54</ele>
        <time>2013-05-02T12:49:04Z</time>
      </trkpt>
      <trkpt lat="47.69412" lon="-2.75165">
        <ele>54</ele>
        <time>2013-05-02T12:49:05Z</time>
      </trkpt>
      <trkpt lat="47.6941" lon="-2.75166">
        <ele>54</ele>
        <time>2013-05-02T12:49:06Z</time>
      </trkpt>
      <trkpt lat="47.69407" lon="-2.75166">
        <ele>54</ele>
        <time>2013-05-02T12:49:07Z</time>
      </trkpt>
      <trkpt lat="47.69404" lon="-2.75167">
        <ele>54</ele>
        <time>2013-05-02T12:49:08Z</time>
      </trkpt>
      <trkpt lat="47.69402" lon="-2.75168">
        <ele>54</ele>
        <time>2013-05-02T12:49:09Z</time>
      </trkpt>
      <trkpt lat="47.69401" lon="-2.75169">
        <ele>54</ele>
        <time>2013-05-02T12:49:10Z</time>
      </trkpt>
      <trkpt lat="47.694" lon="-2.7517">
        <ele>53</ele>
        <time>2013-05-02T12:49:11Z</time>
      </trkpt>
      <trkpt lat="47.69398" lon="-2.75172">
        <ele>53</ele>
        <time>2013-05-02T12:49:12Z</time>
      </trkpt>
      <trkpt lat="47.69397" lon="-2.75173">
        <ele>52</ele>
        <time>2013-05-02T12:49:13Z</time>
      </trkpt>
      <trkpt lat="47.69394" lon="-2.75175">
        <ele>51</ele>
        <time>2013-05-02T12:49:15Z</time>
      </trkpt>
      <trkpt lat="47.69391" lon="-2.75175">
        <ele>50</ele>
        <time>2013-05-02T12:49:16Z</time>
      </trkpt>
      <trkpt lat="47.69388" lon="-2.75176">
        <ele>50</ele>
        <time>2013-05-02T12:49:17Z</time>
      </trkpt>
      <trkpt lat="47.69385" lon="-2.75177">
        <ele>49</ele>
        <time>2013-05-02T12:49:18Z</time>
      </trkpt>
      <trkpt lat="47.69382" lon="-2.75178">
        <ele>48</ele>
        <time>2013-05-02T12:49:19Z</time>
      </trkpt>
      <trkpt lat="47.6938" lon="-2.7518">
        <ele>47</ele>
        <time>2013-05-02T12:49:20Z</time>
      </trkpt>
      <trkpt lat="47.69377" lon="-2.7518">
        <ele>47</ele>
        <time>2013-05-02T12:49:21Z</time>
      </trkpt>
      <trkpt lat="47.69374" lon="-2.75181">
        <ele>46</ele>
        <time>2013-05-02T12:49:22Z</time>
      </trkpt>
      <trkpt lat="47.6937" lon="-2.75181">
        <ele>45</ele>
        <time>2013-05-02T12:49:23Z</time>
      </trkpt>
      <trkpt lat="47.69366" lon="-2.75183">
        <ele>44</ele>
        <time>2013-05-02T12:49:24Z</time>
      </trkpt>
      <trkpt lat="47.69361" lon="-2.75184">
        <ele>43</ele>
        <time>2013-05-02T12:49:25Z</time>
      </trkpt>
      <trkpt lat="47.69357" lon="-2.75186">
        <ele>43</ele>
        <time>2013-05-02T12:49:26Z</time>
      </trkpt>
      <trkpt lat="47.69351" lon="-2.75188">
        <ele>43</ele>
        <time>2013-05-02T12:49:27Z</time>
      </trkpt>
      <trkpt lat="47.69346" lon="-2.7519">
        <ele>43</ele>
        <time>2013-05-02T12:49:28Z</time>
      </trkpt>
      <trkpt lat="47.69342" lon="-2.75191">
        <ele>42</ele>
        <time>2013-05-02T12:49:29Z</time>
      </trkpt>
      <trkpt lat="47.69337" lon="-2.75193">
        <ele>42</ele>
        <time>2013-05-02T12:49:30Z</time>
      </trkpt>
      <trkpt lat="47.69333" lon="-2.75195">
        <ele>41</ele>
        <time>2013-05-02T12:49:31Z</time>
      </trkpt>
      <trkpt lat="47.69329" lon="-2.75195">
        <ele>40</ele>
        <time>2013-05-02T12:49:32Z</time>
      </trkpt>
      <trkpt lat="47.69326" lon="-2.75194">
        <ele>40</ele>
        <time>2013-05-02T12:49:33Z</time>
      </trkpt>
      <trkpt lat="47.69325" lon="-2.75192">
        <ele>39</ele>
        <time>2013-05-02T12:49:34Z</time>
      </trkpt>
      <trkpt lat="47.69325" lon="-2.7519">
        <ele>39</ele>
        <time>2013-05-02T12:49:35Z</time>
      </trkpt>
      <trkpt lat="47.69325" lon="-2.75186">
        <ele>39</ele>
        <time>2013-05-02T12:49:36Z</time>
      </trkpt>
      <trkpt lat="47.69327" lon="-2.75181">
        <ele>39</ele>
        <time>2013-05-02T12:49:37Z</time>
      </trkpt>
      <trkpt lat="47.69329" lon="-2.75177">
        <ele>39</ele>
        <time>2013-05-02T12:49:38Z</time>
      </trkpt>
      <trkpt lat="47.69331" lon="-2.75173">
        <ele>38</ele>
        <time>2013-05-02T12:49:39Z</time>
      </trkpt>
      <trkpt lat="47.69334" lon="-2.75168">
        <ele>38</ele>
        <time>2013-05-02T12:49:40Z</time>
      </trkpt>
      <trkpt lat="47.69337" lon="-2.75163">
        <ele>38</ele>
        <time>2013-05-02T12:49:41Z</time>
      </trkpt>
      <trkpt lat="47.69339" lon="-2.75158">
        <ele>37</ele>
        <time>2013-05-02T12:49:42Z</time>
      </trkpt>
      <trkpt lat="47.69341" lon="-2.75154">
        <ele>36</ele>
        <time>2013-05-02T12:49:43Z</time>
      </trkpt>
      <trkpt lat="47.69342" lon="-2.75149">
        <ele>36</ele>
        <time>2013-05-02T12:49:44Z</time>
      </trkpt>
      <trkpt lat="47.69342" lon="-2.75144">
        <ele>36</ele>
        <time>2013-05-02T12:49:45Z</time>
      </trkpt>
      <trkpt lat="47.69343" lon="-2.75137">
        <ele>36</ele>
        <time>2013-05-02T12:49:46Z</time>
      </trkpt>
      <trkpt lat="47.69343" lon="-2.75128">
        <ele>36</ele>
        <time>2013-05-02T12:49:47Z</time>
      </trkpt>
      <trkpt lat="47.69342" lon="-2.75119">
        <ele>36</ele>
        <time>2013-05-02T12:49:48Z</time>
      </trkpt>
      <trkpt lat="47.69341" lon="-2.75112">
        <ele>36</ele>
        <time>2013-05-02T12:49:49Z</time>
      </trkpt>
      <trkpt lat="47.69339" lon="-2.75103">
        <ele>36</ele>
        <time>2013-05-02T12:49:50Z</time>
      </trkpt>
      <trkpt lat="47.69338" lon="-2.75096">
        <ele>37</ele>
        <time>2013-05-02T12:49:51Z</time>
      </trkpt>
      <trkpt lat="47.69336" lon="-2.75089">
        <ele>38</ele>
        <time>2013-05-02T12:49:52Z</time>
      </trkpt>
      <trkpt lat="47.69335" lon="-2.75084">
        <ele>39</ele>
        <time>2013-05-02T12:49:53Z</time>
      </trkpt>
      <trkpt lat="47.69334" lon="-2.75081">
        <ele>40</ele>
        <time>2013-05-02T12:49:54Z</time>
      </trkpt>
      <trkpt lat="47.69333" lon="-2.75077">
        <ele>41</ele>
        <time>2013-05-02T12:49:55Z</time>
      </trkpt>
      <trkpt lat="47.69331" lon="-2.75073">
        <ele>41</ele>
        <time>2013-05-02T12:49:56Z</time>
      </trkpt>
      <trkpt lat="47.6933" lon="-2.75068">
        <ele>41</ele>
        <time>2013-05-02T12:49:57Z</time>
      </trkpt>
      <trkpt lat="47.69328" lon="-2.75064">
        <ele>41</ele>
        <time>2013-05-02T12:49:58Z</time>
      </trkpt>
      <trkpt lat="47.69326" lon="-2.75058">
        <ele>42</ele>
        <time>2013-05-02T12:49:59Z</time>
      </trkpt>
      <trkpt lat="47.69324" lon="-2.75052">
        <ele>42</ele>
        <time>2013-05-02T12:50:00Z</time>
      </trkpt>
      <trkpt lat="47.69323" lon="-2.75047">
        <ele>42</ele>
        <time>2013-05-02T12:50:01Z</time>
      </trkpt>
      <trkpt lat="47.69323" lon="-2.75041">
        <ele>43</ele>
        <time>2013-05-02T12:50:02Z</time>
      </trkpt>
      <trkpt lat="47.69326" lon="-2.75037">
        <ele>43</ele>
        <time>2013-05-02T12:50:03Z</time>
      </trkpt>
      <trkpt lat="47.69329" lon="-2.75032">
        <ele>43</ele>
        <time>2013-05-02T12:50:04Z</time>
      </trkpt>
      <trkpt lat="47.69331" lon="-2.75027">
        <ele>43</ele>
        <time>2013-05-02T12:50:05Z</time>
      </trkpt>
      <trkpt lat="47.69331" lon="-2.75023">
        <ele>43</ele>
        <time>2013-05-02T12:50:06Z</time>
      </trkpt>
      <trkpt lat="47.69331" lon="-2.75018">
        <ele>43</ele>
        <time>2013-05-02T12:50:07Z</time>
      </trkpt>
      <trkpt lat="47.69331" lon="-2.75013">
        <ele>44</ele>
        <time>2013-05-02T12:50:08Z</time>
      </trkpt>
      <trkpt lat="47.69329" lon="-2.75009">
        <ele>45</ele>
        <time>2013-05-02T12:50:09Z</time>
      </trkpt>
      <trkpt lat="47.69328" lon="-2.75005">
        <ele>45</ele>
        <time>2013-05-02T12:50:10Z</time>
      </trkpt>
      <trkpt lat="47.69326" lon="-2.74999">
        <ele>46</ele>
        <time>2013-05-02T12:50:11Z</time>
      </trkpt>
      <trkpt lat="47.69324" lon="-2.74994">
        <ele>46</ele>
        <time>2013-05-02T12:50:12Z</time>
      </trkpt>
      <trkpt lat="47.69323" lon="-2.7499">
        <ele>46</ele>
        <time>2013-05-02T12:50:13Z</time>
      </trkpt>
      <trkpt lat="47.69322" lon="-2.74985">
        <ele>46</ele>
        <time>2013-05-02T12:50:14Z</time>
      </trkpt>
      <trkpt lat="47.69321" lon="-2.74981">
        <ele>46</ele>
        <time>2013-05-02T12:50:15Z</time>
      </trkpt>
      <trkpt lat="47.6932" lon="-2.74977">
        <ele>46</ele>
        <time>2013-05-02T12:50:16Z</time>
      </trkpt>
      <trkpt lat="47.69319" lon="-2.74973">
        <ele>46</ele>
        <time>2013-05-02T12:50:17Z</time>
      </trkpt>
      <trkpt lat="47.69318" lon="-2.74969">
        <ele>46</ele>
        <time>2013-05-02T12:50:18Z</time>
      </trkpt>
      <trkpt lat="47.69317" lon="-2.74965">
        <ele>46</ele>
        <time>2013-05-02T12:50:19Z</time>
      </trkpt>
      <trkpt lat="47.69316" lon="-2.7496">
        <ele>46</ele>
        <time>2013-05-02T12:50:20Z</time>
      </trkpt>
      <trkpt lat="47.69315" lon="-2.74956">
        <ele>46</ele>
        <time>2013-05-02T12:50:21Z</time>
      </trkpt>
      <trkpt lat="47.69315" lon="-2.74951">
        <ele>46</ele>
        <time>2013-05-02T12:50:22Z</time>
      </trkpt>
      <trkpt lat="47.69313" lon="-2.74946">
        <ele>46</ele>
        <time>2013-05-02T12:50:23Z</time>
      </trkpt>
      <trkpt lat="47.69312" lon="-2.74942">
        <ele>46</ele>
        <time>2013-05-02T12:50:24Z</time>
      </trkpt>
      <trkpt lat="47.69309" lon="-2.7494">
        <ele>47</ele>
        <time>2013-05-02T12:50:25Z</time>
      </trkpt>
      <trkpt lat="47.69307" lon="-2.7494">
        <ele>47</ele>
        <time>2013-05-02T12:50:26Z</time>
      </trkpt>
      <trkpt lat="47.69303" lon="-2.7494">
        <ele>47</ele>
        <time>2013-05-02T12:50:27Z</time>
      </trkpt>
      <trkpt lat="47.693" lon="-2.7494">
        <ele>47</ele>
        <time>2013-05-02T12:50:28Z</time>
      </trkpt>
      <trkpt lat="47.69297" lon="-2.74938">
        <ele>47</ele>
        <time>2013-05-02T12:50:29Z</time>
      </trkpt>
      <trkpt lat="47.69294" lon="-2.74935">
        <ele>47</ele>
        <time>2013-05-02T12:50:30Z</time>
      </trkpt>
      <trkpt lat="47.69292" lon="-2.74932">
        <ele>47</ele>
        <time>2013-05-02T12:50:31Z</time>
      </trkpt>
      <trkpt lat="47.69291" lon="-2.74929">
        <ele>47</ele>
        <time>2013-05-02T12:50:32Z</time>
      </trkpt>
      <trkpt lat="47.69289" lon="-2.74925">
        <ele>47</ele>
        <time>2013-05-02T12:50:33Z</time>
      </trkpt>
      <trkpt lat="47.69288" lon="-2.74922">
        <ele>47</ele>
        <time>2013-05-02T12:50:34Z</time>
      </trkpt>
      <trkpt lat="47.69286" lon="-2.74918">
        <ele>47</ele>
        <time>2013-05-02T12:50:35Z</time>
      </trkpt>
      <trkpt lat="47.69285" lon="-2.74916">
        <ele>47</ele>
        <time>2013-05-02T12:50:36Z</time>
      </trkpt>
      <trkpt lat="47.69283" lon="-2.74915">
        <ele>47</ele>
        <time>2013-05-02T12:50:37Z</time>
      </trkpt>
      <trkpt lat="47.69282" lon="-2.74916">
        <ele>47</ele>
        <time>2013-05-02T12:50:38Z</time>
      </trkpt>
      <trkpt lat="47.69281" lon="-2.74918">
        <ele>48</ele>
        <time>2013-05-02T12:50:39Z</time>
      </trkpt>
      <trkpt lat="47.6928" lon="-2.7492">
        <ele>48</ele>
        <time>2013-05-02T12:50:40Z</time>
      </trkpt>
      <trkpt lat="47.6928" lon="-2.74922">
        <ele>48</ele>
        <time>2013-05-02T12:50:41Z</time>
      </trkpt>
      <trkpt lat="47.6928" lon="-2.74924">
        <ele>48</ele>
        <time>2013-05-02T12:50:42Z</time>
      </trkpt>
      <trkpt lat="47.69279" lon="-2.74927">
        <ele>49</ele>
        <time>2013-05-02T12:50:43Z</time>
      </trkpt>
      <trkpt lat="47.69278" lon="-2.74929">
        <ele>49</ele>
        <time>2013-05-02T12:50:44Z</time>
      </trkpt>
      <trkpt lat="47.69276" lon="-2.74931">
        <ele>49</ele>
        <time>2013-05-02T12:50:45Z</time>
      </trkpt>
      <trkpt lat="47.69274" lon="-2.74932">
        <ele>49</ele>
        <time>2013-05-02T12:50:46Z</time>
      </trkpt>
      <trkpt lat="47.69273" lon="-2.74932">
        <ele>49</ele>
        <time>2013-05-02T12:50:47Z</time>
      </trkpt>
      <trkpt lat="47.69271" lon="-2.74934">
        <ele>49</ele>
        <time>2013-05-02T12:50:48Z</time>
      </trkpt>
      <trkpt lat="47.6927" lon="-2.74935">
        <ele>50</ele>
        <time>2013-05-02T12:50:49Z</time>
      </trkpt>
      <trkpt lat="47.69268" lon="-2.74937">
        <ele>50</ele>
        <time>2013-05-02T12:50:50Z</time>
      </trkpt>
      <trkpt lat="47.69267" lon="-2.7494">
        <ele>50</ele>
        <time>2013-05-02T12:50:51Z</time>
      </trkpt>
      <trkpt lat="47.69266" lon="-2.74942">
        <ele>50</ele>
        <time>2013-05-02T12:50:52Z</time>
      </trkpt>
      <trkpt lat="47.69265" lon="-2.74944">
        <ele>50</ele>
        <time>2013-05-02T12:50:53Z</time>
      </trkpt>
      <trkpt lat="47.69263" lon="-2.74945">
        <ele>50</ele>
        <time>2013-05-02T12:50:54Z</time>
      </trkpt>
      <trkpt lat="47.69261" lon="-2.74946">
        <ele>50</ele>
        <time>2013-05-02T12:50:55Z</time>
      </trkpt>
      <trkpt lat="47.69258" lon="-2.74948">
        <ele>50</ele>
        <time>2013-05-02T12:50:56Z</time>
      </trkpt>
      <trkpt lat="47.69255" lon="-2.7495">
        <ele>50</ele>
        <time>2013-05-02T12:50:57Z</time>
      </trkpt>
      <trkpt lat="47.69253" lon="-2.74954">
        <ele>50</ele>
        <time>2013-05-02T12:50:58Z</time>
      </trkpt>
      <trkpt lat="47.69251" lon="-2.74958">
        <ele>50</ele>
        <time>2013-05-02T12:50:59Z</time>
      </trkpt>
      <trkpt lat="47.69249" lon="-2.74962">
        <ele>50</ele>
        <time>2013-05-02T12:51:00Z</time>
      </trkpt>
      <trkpt lat="47.69247" lon="-2.74967">
        <ele>50</ele>
        <time>2013-05-02T12:51:01Z</time>
      </trkpt>
      <trkpt lat="47.69245" lon="-2.74972">
        <ele>50</ele>
        <time>2013-05-02T12:51:02Z</time>
      </trkpt>
      <trkpt lat="47.69242" lon="-2.74977">
        <ele>50</ele>
        <time>2013-05-02T12:51:03Z</time>
      </trkpt>
      <trkpt lat="47.6924" lon="-2.74983">
        <ele>50</ele>
        <time>2013-05-02T12:51:04Z</time>
      </trkpt>
      <trkpt lat="47.69238" lon="-2.74988">
        <ele>50</ele>
        <time>2013-05-02T12:51:05Z</time>
      </trkpt>
      <trkpt lat="47.69235" lon="-2.74994">
        <ele>50</ele>
        <time>2013-05-02T12:51:06Z</time>
      </trkpt>
      <trkpt lat="47.69233" lon="-2.74999">
        <ele>50</ele>
        <time>2013-05-02T12:51:07Z</time>
      </trkpt>
      <trkpt lat="47.6923" lon="-2.75005">
        <ele>50</ele>
        <time>2013-05-02T12:51:08Z</time>
      </trkpt>
      <trkpt lat="47.69228" lon="-2.75011">
        <ele>50</ele>
        <time>2013-05-02T12:51:09Z</time>
      </trkpt>
      <trkpt lat="47.69225" lon="-2.75017">
        <ele>51</ele>
        <time>2013-05-02T12:51:10Z</time>
      </trkpt>
      <trkpt lat="47.69223" lon="-2.75022">
        <ele>51</ele>
        <time>2013-05-02T12:51:11Z</time>
      </trkpt>
      <trkpt lat="47.6922" lon="-2.75028">
        <ele>51</ele>
        <time>2013-05-02T12:51:12Z</time>
      </trkpt>
      <trkpt lat="47.69218" lon="-2.75033">
        <ele>51</ele>
        <time>2013-05-02T12:51:13Z</time>
      </trkpt>
      <trkpt lat="47.69215" lon="-2.75038">
        <ele>51</ele>
        <time>2013-05-02T12:51:14Z</time>
      </trkpt>
      <trkpt lat="47.69212" lon="-2.75043">
        <ele>51</ele>
        <time>2013-05-02T12:51:15Z</time>
      </trkpt>
      <trkpt lat="47.69209" lon="-2.75048">
        <ele>52</ele>
        <time>2013-05-02T12:51:16Z</time>
      </trkpt>
      <trkpt lat="47.69206" lon="-2.75052">
        <ele>52</ele>
        <time>2013-05-02T12:51:17Z</time>
      </trkpt>
      <trkpt lat="47.69202" lon="-2.75057">
        <ele>52</ele>
        <time>2013-05-02T12:51:18Z</time>
      </trkpt>
      <trkpt lat="47.69199" lon="-2.75061">
        <ele>52</ele>
        <time>2013-05-02T12:51:19Z</time>
      </trkpt>
      <trkpt lat="47.69196" lon="-2.75065">
        <ele>52</ele>
        <time>2013-05-02T12:51:20Z</time>
      </trkpt>
      <trkpt lat="47.69192" lon="-2.75069">
        <ele>52</ele>
        <time>2013-05-02T12:51:21Z</time>
      </trkpt>
      <trkpt lat="47.69189" lon="-2.75073">
        <ele>52</ele>
        <time>2013-05-02T12:51:22Z</time>
      </trkpt>
      <trkpt lat="47.69186" lon="-2.75077">
        <ele>52</ele>
        <time>2013-05-02T12:51:23Z</time>
      </trkpt>
      <trkpt lat="47.69183" lon="-2.75081">
        <ele>53</ele>
        <time>2013-05-02T12:51:24Z</time>
      </trkpt>
      <trkpt lat="47.6918" lon="-2.75085">
        <ele>53</ele>
        <time>2013-05-02T12:51:25Z</time>
      </trkpt>
      <trkpt lat="47.69176" lon="-2.75089">
        <ele>53</ele>
        <time>2013-05-02T12:51:26Z</time>
      </trkpt>
      <trkpt lat="47.69173" lon="-2.75093">
        <ele>53</ele>
        <time>2013-05-02T12:51:27Z</time>
      </trkpt>
      <trkpt lat="47.69168" lon="-2.75096">
        <ele>53</ele>
        <time>2013-05-02T12:51:28Z</time>
      </trkpt>
      <trkpt lat="47.69164" lon="-2.75099">
        <ele>53</ele>
        <time>2013-05-02T12:51:29Z</time>
      </trkpt>
      <trkpt lat="47.6916" lon="-2.75102">
        <ele>53</ele>
        <time>2013-05-02T12:51:30Z</time>
      </trkpt>
      <trkpt lat="47.69155" lon="-2.75105">
        <ele>53</ele>
        <time>2013-05-02T12:51:31Z</time>
      </trkpt>
      <trkpt lat="47.69151" lon="-2.75108">
        <ele>53</ele>
        <time>2013-05-02T12:51:32Z</time>
      </trkpt>
      <trkpt lat="47.69146" lon="-2.75111">
        <ele>53</ele>
        <time>2013-05-02T12:51:33Z</time>
      </trkpt>
      <trkpt lat="47.69141" lon="-2.75114">
        <ele>53</ele>
        <time>2013-05-02T12:51:34Z</time>
      </trkpt>
      <trkpt lat="47.69136" lon="-2.75116">
        <ele>53</ele>
        <time>2013-05-02T12:51:35Z</time>
      </trkpt>
      <trkpt lat="47.6913" lon="-2.75119">
        <ele>53</ele>
        <time>2013-05-02T12:51:36Z</time>
      </trkpt>
      <trkpt lat="47.69125" lon="-2.75122">
        <ele>53</ele>
        <time>2013-05-02T12:51:37Z</time>
      </trkpt>
      <trkpt lat="47.69119" lon="-2.75124">
        <ele>53</ele>
        <time>2013-05-02T12:51:38Z</time>
      </trkpt>
      <trkpt lat="47.69113" lon="-2.75127">
        <ele>53</ele>
        <time>2013-05-02T12:51:39Z</time>
      </trkpt>
      <trkpt lat="47.69106" lon="-2.75129">
        <ele>53</ele>
        <time>2013-05-02T12:51:40Z</time>
      </trkpt>
      <trkpt lat="47.69099" lon="-2.7513">
        <ele>53</ele>
        <time>2013-05-02T12:51:41Z</time>
      </trkpt>
      <trkpt lat="47.69092" lon="-2.75131">
        <ele>53</ele>
        <time>2013-05-02T12:51:42Z</time>
      </trkpt>
      <trkpt lat="47.69085" lon="-2.7513">
        <ele>53</ele>
        <time>2013-05-02T12:51:43Z</time>
      </trkpt>
      <trkpt lat="47.69078" lon="-2.75129">
        <ele>53</ele>
        <time>2013-05-02T12:51:44Z</time>
      </trkpt>
      <trkpt lat="47.69071" lon="-2.75126">
        <ele>52</ele>
        <time>2013-05-02T12:51:45Z</time>
      </trkpt>
      <trkpt lat="47.69064" lon="-2.75122">
        <ele>51</ele>
        <time>2013-05-02T12:51:46Z</time>
      </trkpt>
      <trkpt lat="47.69057" lon="-2.75117">
        <ele>51</ele>
        <time>2013-05-02T12:51:47Z</time>
      </trkpt>
      <trkpt lat="47.69051" lon="-2.75111">
        <ele>50</ele>
        <time>2013-05-02T12:51:48Z</time>
      </trkpt>
      <trkpt lat="47.69046" lon="-2.75104">
        <ele>50</ele>
        <time>2013-05-02T12:51:49Z</time>
      </trkpt>
      <trkpt lat="47.6904" lon="-2.75098">
        <ele>49</ele>
        <time>2013-05-02T12:51:50Z</time>
      </trkpt>
      <trkpt lat="47.69034" lon="-2.75094">
        <ele>49</ele>
        <time>2013-05-02T12:51:51Z</time>
      </trkpt>
      <trkpt lat="47.69027" lon="-2.75092">
        <ele>49</ele>
        <time>2013-05-02T12:51:52Z</time>
      </trkpt>
      <trkpt lat="47.6902" lon="-2.75091">
        <ele>48</ele>
        <time>2013-05-02T12:51:53Z</time>
      </trkpt>
      <trkpt lat="47.69013" lon="-2.75091">
        <ele>48</ele>
        <time>2013-05-02T12:51:54Z</time>
      </trkpt>
      <trkpt lat="47.69006" lon="-2.7509">
        <ele>48</ele>
        <time>2013-05-02T12:51:55Z</time>
      </trkpt>
      <trkpt lat="47.68998" lon="-2.75089">
        <ele>47</ele>
        <time>2013-05-02T12:51:56Z</time>
      </trkpt>
      <trkpt lat="47.68991" lon="-2.75088">
        <ele>46</ele>
        <time>2013-05-02T12:51:57Z</time>
      </trkpt>
      <trkpt lat="47.68983" lon="-2.75085">
        <ele>46</ele>
        <time>2013-05-02T12:51:58Z</time>
      </trkpt>
      <trkpt lat="47.68976" lon="-2.75082">
        <ele>46</ele>
        <time>2013-05-02T12:51:59Z</time>
      </trkpt>
      <trkpt lat="47.68969" lon="-2.75078">
        <ele>45</ele>
        <time>2013-05-02T12:52:00Z</time>
      </trkpt>
      <trkpt lat="47.68963" lon="-2.75072">
        <ele>45</ele>
        <time>2013-05-02T12:52:01Z</time>
      </trkpt>
      <trkpt lat="47.68957" lon="-2.75066">
        <ele>45</ele>
        <time>2013-05-02T12:52:02Z</time>
      </trkpt>
      <trkpt lat="47.68951" lon="-2.75061">
        <ele>44</ele>
        <time>2013-05-02T12:52:03Z</time>
      </trkpt>
      <trkpt lat="47.68945" lon="-2.75055">
        <ele>44</ele>
        <time>2013-05-02T12:52:04Z</time>
      </trkpt>
      <trkpt lat="47.6894" lon="-2.75049">
        <ele>43</ele>
        <time>2013-05-02T12:52:05Z</time>
      </trkpt>
      <trkpt lat="47.68935" lon="-2.75042">
        <ele>43</ele>
        <time>2013-05-02T12:52:06Z</time>
      </trkpt>
      <trkpt lat="47.68931" lon="-2.75036">
        <ele>43</ele>
        <time>2013-05-02T12:52:07Z</time>
      </trkpt>
      <trkpt lat="47.68927" lon="-2.75029">
        <ele>42</ele>
        <time>2013-05-02T12:52:08Z</time>
      </trkpt>
      <trkpt lat="47.68923" lon="-2.75023">
        <ele>42</ele>
        <time>2013-05-02T12:52:09Z</time>
      </trkpt>
      <trkpt lat="47.68919" lon="-2.75016">
        <ele>42</ele>
        <time>2013-05-02T12:52:10Z</time>
      </trkpt>
      <trkpt lat="47.68915" lon="-2.7501">
        <ele>42</ele>
        <time>2013-05-02T12:52:11Z</time>
      </trkpt>
      <trkpt lat="47.68911" lon="-2.75004">
        <ele>42</ele>
        <time>2013-05-02T12:52:12Z</time>
      </trkpt>
      <trkpt lat="47.68907" lon="-2.74997">
        <ele>42</ele>
        <time>2013-05-02T12:52:13Z</time>
      </trkpt>
      <trkpt lat="47.68903" lon="-2.74991">
        <ele>42</ele>
        <time>2013-05-02T12:52:14Z</time>
      </trkpt>
      <trkpt lat="47.689" lon="-2.74985">
        <ele>42</ele>
        <time>2013-05-02T12:52:15Z</time>
      </trkpt>
      <trkpt lat="47.68897" lon="-2.74979">
        <ele>42</ele>
        <time>2013-05-02T12:52:16Z</time>
      </trkpt>
      <trkpt lat="47.68895" lon="-2.74973">
        <ele>42</ele>
        <time>2013-05-02T12:52:17Z</time>
      </trkpt>
      <trkpt lat="47.68892" lon="-2.74967">
        <ele>42</ele>
        <time>2013-05-02T12:52:18Z</time>
      </trkpt>
      <trkpt lat="47.6889" lon="-2.74961">
        <ele>42</ele>
        <time>2013-05-02T12:52:19Z</time>
      </trkpt>
      <trkpt lat="47.68887" lon="-2.74955">
        <ele>42</ele>
        <time>2013-05-02T12:52:20Z</time>
      </trkpt>
      <trkpt lat="47.68885" lon="-2.74949">
        <ele>42</ele>
        <time>2013-05-02T12:52:21Z</time>
      </trkpt>
      <trkpt lat="47.68882" lon="-2.74941">
        <ele>42</ele>
        <time>2013-05-02T12:52:22Z</time>
      </trkpt>
      <trkpt lat="47.68879" lon="-2.74932">
        <ele>42</ele>
        <time>2013-05-02T12:52:23Z</time>
      </trkpt>
      <trkpt lat="47.68876" lon="-2.74923">
        <ele>42</ele>
        <time>2013-05-02T12:52:24Z</time>
      </trkpt>
      <trkpt lat="47.68872" lon="-2.74913">
        <ele>42</ele>
        <time>2013-05-02T12:52:25Z</time>
      </trkpt>
      <trkpt lat="47.68868" lon="-2.74903">
        <ele>42</ele>
        <time>2013-05-02T12:52:26Z</time>
      </trkpt>
      <trkpt lat="47.68863" lon="-2.74893">
        <ele>42</ele>
        <time>2013-05-02T12:52:27Z</time>
      </trkpt>
      <trkpt lat="47.68859" lon="-2.74883">
        <ele>42</ele>
        <time>2013-05-02T12:52:28Z</time>
      </trkpt>
      <trkpt lat="47.68854" lon="-2.74873">
        <ele>42</ele>
        <time>2013-05-02T12:52:29Z</time>
      </trkpt>
      <trkpt lat="47.6885" lon="-2.74863">
        <ele>41</ele>
        <time>2013-05-02T12:52:30Z</time>
      </trkpt>
      <trkpt lat="47.68845" lon="-2.74854">
        <ele>41</ele>
        <time>2013-05-02T12:52:31Z</time>
      </trkpt>
      <trkpt lat="47.6884" lon="-2.74846">
        <ele>41</ele>
        <time>2013-05-02T12:52:32Z</time>
      </trkpt>
      <trkpt lat="47.68835" lon="-2.74839">
        <ele>41</ele>
        <time>2013-05-02T12:52:33Z</time>
      </trkpt>
      <trkpt lat="47.68831" lon="-2.74831">
        <ele>40</ele>
        <time>2013-05-02T12:52:34Z</time>
      </trkpt>
      <trkpt lat="47.68826" lon="-2.74823">
        <ele>40</ele>
        <time>2013-05-02T12:52:35Z</time>
      </trkpt>
      <trkpt lat="47.68822" lon="-2.74814">
        <ele>40</ele>
        <time>2013-05-02T12:52:36Z</time>
      </trkpt>
      <trkpt lat="47.68819" lon="-2.74803">
        <ele>39</ele>
        <time>2013-05-02T12:52:37Z</time>
      </trkpt>
      <trkpt lat="47.68815" lon="-2.74792">
        <ele>39</ele>
        <time>2013-05-02T12:52:38Z</time>
      </trkpt>
      <trkpt lat="47.68811" lon="-2.74781">
        <ele>39</ele>
        <time>2013-05-02T12:52:39Z</time>
      </trkpt>
      <trkpt lat="47.68809" lon="-2.74769">
        <ele>39</ele>
        <time>2013-05-02T12:52:40Z</time>
      </trkpt>
      <trkpt lat="47.68807" lon="-2.74757">
        <ele>39</ele>
        <time>2013-05-02T12:52:41Z</time>
      </trkpt>
      <trkpt lat="47.68807" lon="-2.74747">
        <ele>39</ele>
        <time>2013-05-02T12:52:42Z</time>
      </trkpt>
      <trkpt lat="47.68807" lon="-2.74738">
        <ele>39</ele>
        <time>2013-05-02T12:52:43Z</time>
      </trkpt>
      <trkpt lat="47.68807" lon="-2.74729">
        <ele>39</ele>
        <time>2013-05-02T12:52:44Z</time>
      </trkpt>
      <trkpt lat="47.68808" lon="-2.74721">
        <ele>39</ele>
        <time>2013-05-02T12:52:45Z</time>
      </trkpt>
      <trkpt lat="47.68808" lon="-2.74714">
        <ele>39</ele>
        <time>2013-05-02T12:52:46Z</time>
      </trkpt>
      <trkpt lat="47.68808" lon="-2.74707">
        <ele>39</ele>
        <time>2013-05-02T12:52:47Z</time>
      </trkpt>
      <trkpt lat="47.6881" lon="-2.74701">
        <ele>39</ele>
        <time>2013-05-02T12:52:48Z</time>
      </trkpt>
      <trkpt lat="47.6881" lon="-2.74695">
        <ele>39</ele>
        <time>2013-05-02T12:52:49Z</time>
      </trkpt>
      <trkpt lat="47.6881" lon="-2.7469">
        <ele>39</ele>
        <time>2013-05-02T12:52:50Z</time>
      </trkpt>
      <trkpt lat="47.6881" lon="-2.74685">
        <ele>39</ele>
        <time>2013-05-02T12:52:51Z</time>
      </trkpt>
      <trkpt lat="47.68809" lon="-2.7468">
        <ele>39</ele>
        <time>2013-05-02T12:52:52Z</time>
      </trkpt>
      <trkpt lat="47.68808" lon="-2.74674">
        <ele>39</ele>
        <time>2013-05-02T12:52:53Z</time>
      </trkpt>
      <trkpt lat="47.68808" lon="-2.74668">
        <ele>39</ele>
        <time>2013-05-02T12:52:54Z</time>
      </trkpt>
      <trkpt lat="47.68808" lon="-2.74662">
        <ele>39</ele>
        <time>2013-05-02T12:52:55Z</time>
      </trkpt>
      <trkpt lat="47.68807" lon="-2.74655">
        <ele>39</ele>
        <time>2013-05-02T12:52:56Z</time>
      </trkpt>
      <trkpt lat="47.68807" lon="-2.74649">
        <ele>39</ele>
        <time>2013-05-02T12:52:57Z</time>
      </trkpt>
      <trkpt lat="47.68807" lon="-2.74642">
        <ele>39</ele>
        <time>2013-05-02T12:52:58Z</time>
      </trkpt>
      <trkpt lat="47.68807" lon="-2.74635">
        <ele>39</ele>
        <time>2013-05-02T12:52:59Z</time>
      </trkpt>
      <trkpt lat="47.68806" lon="-2.74628">
        <ele>39</ele>
        <time>2013-05-02T12:53:00Z</time>
      </trkpt>
      <trkpt lat="47.68806" lon="-2.74621">
        <ele>39</ele>
        <time>2013-05-02T12:53:01Z</time>
      </trkpt>
      <trkpt lat="47.68806" lon="-2.74613">
        <ele>39</ele>
        <time>2013-05-02T12:53:02Z</time>
      </trkpt>
      <trkpt lat="47.68806" lon="-2.74606">
        <ele>39</ele>
        <time>2013-05-02T12:53:03Z</time>
      </trkpt>
      <trkpt lat="47.68806" lon="-2.74599">
        <ele>39</ele>
        <time>2013-05-02T12:53:04Z</time>
      </trkpt>
      <trkpt lat="47.68806" lon="-2.74592">
        <ele>39</ele>
        <time>2013-05-02T12:53:05Z</time>
      </trkpt>
      <trkpt lat="47.68806" lon="-2.74585">
        <ele>39</ele>
        <time>2013-05-02T12:53:06Z</time>
      </trkpt>
      <trkpt lat="47.68806" lon="-2.74578">
        <ele>39</ele>
        <time>2013-05-02T12:53:07Z</time>
      </trkpt>
      <trkpt lat="47.68806" lon="-2.74572">
        <ele>39</ele>
        <time>2013-05-02T12:53:08Z</time>
      </trkpt>
      <trkpt lat="47.68806" lon="-2.74566">
        <ele>39</ele>
        <time>2013-05-02T12:53:09Z</time>
      </trkpt>
      <trkpt lat="47.68806" lon="-2.7456">
        <ele>39</ele>
        <time>2013-05-02T12:53:10Z</time>
      </trkpt>
      <trkpt lat="47.68806" lon="-2.74554">
        <ele>39</ele>
        <time>2013-05-02T12:53:11Z</time>
      </trkpt>
      <trkpt lat="47.68806" lon="-2.74549">
        <ele>39</ele>
        <time>2013-05-02T12:53:12Z</time>
      </trkpt>
      <trkpt lat="47.68807" lon="-2.74543">
        <ele>39</ele>
        <time>2013-05-02T12:53:13Z</time>
      </trkpt>
      <trkpt lat="47.68807" lon="-2.74538">
        <ele>39</ele>
        <time>2013-05-02T12:53:14Z</time>
      </trkpt>
      <trkpt lat="47.68807" lon="-2.74533">
        <ele>39</ele>
        <time>2013-05-02T12:53:15Z</time>
      </trkpt>
      <trkpt lat="47.68807" lon="-2.74528">
        <ele>39</ele>
        <time>2013-05-02T12:53:16Z</time>
      </trkpt>
      <trkpt lat="47.68808" lon="-2.74523">
        <ele>40</ele>
        <time>2013-05-02T12:53:17Z</time>
      </trkpt>
      <trkpt lat="47.68808" lon="-2.74518">
        <ele>40</ele>
        <time>2013-05-02T12:53:18Z</time>
      </trkpt>
      <trkpt lat="47.68808" lon="-2.74513">
        <ele>40</ele>
        <time>2013-05-02T12:53:19Z</time>
      </trkpt>
      <trkpt lat="47.68809" lon="-2.74508">
        <ele>41</ele>
        <time>2013-05-02T12:53:20Z</time>
      </trkpt>
      <trkpt lat="47.68809" lon="-2.74503">
        <ele>41</ele>
        <time>2013-05-02T12:53:21Z</time>
      </trkpt>
      <trkpt lat="47.6881" lon="-2.74498">
        <ele>41</ele>
        <time>2013-05-02T12:53:22Z</time>
      </trkpt>
      <trkpt lat="47.6881" lon="-2.74493">
        <ele>41</ele>
        <time>2013-05-02T12:53:23Z</time>
      </trkpt>
      <trkpt lat="47.68811" lon="-2.74489">
        <ele>42</ele>
        <time>2013-05-02T12:53:24Z</time>
      </trkpt>
      <trkpt lat="47.68811" lon="-2.74484">
        <ele>42</ele>
        <time>2013-05-02T12:53:25Z</time>
      </trkpt>
      <trkpt lat="47.68811" lon="-2.7448">
        <ele>42</ele>
        <time>2013-05-02T12:53:26Z</time>
      </trkpt>
      <trkpt lat="47.68811" lon="-2.74475">
        <ele>42</ele>
        <time>2013-05-02T12:53:27Z</time>
      </trkpt>
      <trkpt lat="47.68811" lon="-2.7447">
        <ele>42</ele>
        <time>2013-05-02T12:53:28Z</time>
      </trkpt>
      <trkpt lat="47.6881" lon="-2.74466">
        <ele>43</ele>
        <time>2013-05-02T12:53:29Z</time>
      </trkpt>
      <trkpt lat="47.6881" lon="-2.74461">
        <ele>43</ele>
        <time>2013-05-02T12:53:30Z</time>
      </trkpt>
      <trkpt lat="47.68809" lon="-2.74457">
        <ele>43</ele>
        <time>2013-05-02T12:53:31Z</time>
      </trkpt>
      <trkpt lat="47.68808" lon="-2.74452">
        <ele>43</ele>
        <time>2013-05-02T12:53:32Z</time>
      </trkpt>
      <trkpt lat="47.68807" lon="-2.74448">
        <ele>43</ele>
        <time>2013-05-02T12:53:33Z</time>
      </trkpt>
      <trkpt lat="47.68806" lon="-2.74444">
        <ele>44</ele>
        <time>2013-05-02T12:53:34Z</time>
      </trkpt>
      <trkpt lat="47.68805" lon="-2.7444">
        <ele>44</ele>
        <time>2013-05-02T12:53:35Z</time>
      </trkpt>
      <trkpt lat="47.68804" lon="-2.74436">
        <ele>44</ele>
        <time>2013-05-02T12:53:36Z</time>
      </trkpt>
      <trkpt lat="47.68804" lon="-2.74432">
        <ele>44</ele>
        <time>2013-05-02T12:53:37Z</time>
      </trkpt>
      <trkpt lat="47.68803" lon="-2.74428">
        <ele>44</ele>
        <time>2013-05-02T12:53:38Z</time>
      </trkpt>
      <trkpt lat="47.68802" lon="-2.74424">
        <ele>44</ele>
        <time>2013-05-02T12:53:39Z</time>
      </trkpt>
      <trkpt lat="47.68801" lon="-2.74421">
        <ele>45</ele>
        <time>2013-05-02T12:53:40Z</time>
      </trkpt>
      <trkpt lat="47.688" lon="-2.74417">
        <ele>45</ele>
        <time>2013-05-02T12:53:41Z</time>
      </trkpt>
      <trkpt lat="47.68799" lon="-2.74412">
        <ele>45</ele>
        <time>2013-05-02T12:53:42Z</time>
      </trkpt>
      <trkpt lat="47.68798" lon="-2.74408">
        <ele>45</ele>
        <time>2013-05-02T12:53:43Z</time>
      </trkpt>
      <trkpt lat="47.68797" lon="-2.74403">
        <ele>46</ele>
        <time>2013-05-02T12:53:44Z</time>
      </trkpt>
      <trkpt lat="47.68797" lon="-2.74398">
        <ele>46</ele>
        <time>2013-05-02T12:53:45Z</time>
      </trkpt>
      <trkpt lat="47.68796" lon="-2.74394">
        <ele>46</ele>
        <time>2013-05-02T12:53:46Z</time>
      </trkpt>
      <trkpt lat="47.68796" lon="-2.7439">
        <ele>46</ele>
        <time>2013-05-02T12:53:47Z</time>
      </trkpt>
      <trkpt lat="47.68795" lon="-2.74386">
        <ele>46</ele>
        <time>2013-05-02T12:53:48Z</time>
      </trkpt>
      <trkpt lat="47.68795" lon="-2.74382">
        <ele>46</ele>
        <time>2013-05-02T12:53:49Z</time>
      </trkpt>
      <trkpt lat="47.68795" lon="-2.74379">
        <ele>46</ele>
        <time>2013-05-02T12:53:50Z</time>
      </trkpt>
      <trkpt lat="47.68795" lon="-2.74375">
        <ele>47</ele>
        <time>2013-05-02T12:53:51Z</time>
      </trkpt>
      <trkpt lat="47.68795" lon="-2.74371">
        <ele>47</ele>
        <time>2013-05-02T12:53:52Z</time>
      </trkpt>
      <trkpt lat="47.68796" lon="-2.74367">
        <ele>47</ele>
        <time>2013-05-02T12:53:53Z</time>
      </trkpt>
      <trkpt lat="47.68796" lon="-2.74362">
        <ele>47</ele>
        <time>2013-05-02T12:53:54Z</time>
      </trkpt>
      <trkpt lat="47.68796" lon="-2.74358">
        <ele>47</ele>
        <time>2013-05-02T12:53:55Z</time>
      </trkpt>
      <trkpt lat="47.68797" lon="-2.74352">
        <ele>48</ele>
        <time>2013-05-02T12:53:56Z</time>
      </trkpt>
      <trkpt lat="47.68798" lon="-2.74347">
        <ele>48</ele>
        <time>2013-05-02T12:53:57Z</time>
      </trkpt>
      <trkpt lat="47.68799" lon="-2.74341">
        <ele>48</ele>
        <time>2013-05-02T12:53:58Z</time>
      </trkpt>
      <trkpt lat="47.688" lon="-2.74336">
        <ele>48</ele>
        <time>2013-05-02T12:53:59Z</time>
      </trkpt>
      <trkpt lat="47.68801" lon="-2.74331">
        <ele>48</ele>
        <time>2013-05-02T12:54:00Z</time>
      </trkpt>
      <trkpt lat="47.68803" lon="-2.74327">
        <ele>48</ele>
        <time>2013-05-02T12:54:01Z</time>
      </trkpt>
      <trkpt lat="47.68805" lon="-2.74322">
        <ele>48</ele>
        <time>2013-05-02T12:54:02Z</time>
      </trkpt>
      <trkpt lat="47.68806" lon="-2.74318">
        <ele>48</ele>
        <time>2013-05-02T12:54:03Z</time>
      </trkpt>
      <trkpt lat="47.68808" lon="-2.74313">
        <ele>49</ele>
        <time>2013-05-02T12:54:04Z</time>
      </trkpt>
      <trkpt lat="47.6881" lon="-2.7431">
        <ele>49</ele>
        <time>2013-05-02T12:54:05Z</time>
      </trkpt>
      <trkpt lat="47.68812" lon="-2.74306">
        <ele>49</ele>
        <time>2013-05-02T12:54:06Z</time>
      </trkpt>
      <trkpt lat="47.68814" lon="-2.74302">
        <ele>49</ele>
        <time>2013-05-02T12:54:07Z</time>
      </trkpt>
      <trkpt lat="47.68817" lon="-2.74298">
        <ele>49</ele>
        <time>2013-05-02T12:54:08Z</time>
      </trkpt>
      <trkpt lat="47.68819" lon="-2.74295">
        <ele>49</ele>
        <time>2013-05-02T12:54:09Z</time>
      </trkpt>
      <trkpt lat="47.68821" lon="-2.74292">
        <ele>49</ele>
        <time>2013-05-02T12:54:10Z</time>
      </trkpt>
      <trkpt lat="47.68823" lon="-2.74288">
        <ele>49</ele>
        <time>2013-05-02T12:54:11Z</time>
      </trkpt>
      <trkpt lat="47.68824" lon="-2.74285">
        <ele>49</ele>
        <time>2013-05-02T12:54:12Z</time>
      </trkpt>
      <trkpt lat="47.68825" lon="-2.74282">
        <ele>49</ele>
        <time>2013-05-02T12:54:13Z</time>
      </trkpt>
      <trkpt lat="47.68827" lon="-2.74281">
        <ele>49</ele>
        <time>2013-05-02T12:54:14Z</time>
      </trkpt>
      <trkpt lat="47.68828" lon="-2.74281">
        <ele>49</ele>
        <time>2013-05-02T12:54:15Z</time>
      </trkpt>
      <trkpt lat="47.68829" lon="-2.74281">
        <ele>49</ele>
        <time>2013-05-02T12:54:16Z</time>
      </trkpt>
      <trkpt lat="47.6883" lon="-2.74283">
        <ele>49</ele>
        <time>2013-05-02T12:54:17Z</time>
      </trkpt>
      <trkpt lat="47.68829" lon="-2.74285">
        <ele>49</ele>
        <time>2013-05-02T12:54:18Z</time>
      </trkpt>
      <trkpt lat="47.68828" lon="-2.74286">
        <ele>49</ele>
        <time>2013-05-02T12:54:19Z</time>
      </trkpt>
      <trkpt lat="47.68826" lon="-2.74285">
        <ele>49</ele>
        <time>2013-05-02T12:54:20Z</time>
      </trkpt>
      <trkpt lat="47.68825" lon="-2.74283">
        <ele>49</ele>
        <time>2013-05-02T12:54:21Z</time>
      </trkpt>
      <trkpt lat="47.68824" lon="-2.74279">
        <ele>49</ele>
        <time>2013-05-02T12:54:22Z</time>
      </trkpt>
      <trkpt lat="47.68824" lon="-2.74276">
        <ele>49</ele>
        <time>2013-05-02T12:54:23Z</time>
      </trkpt>
      <trkpt lat="47.68824" lon="-2.74272">
        <ele>49</ele>
        <time>2013-05-02T12:54:24Z</time>
      </trkpt>
      <trkpt lat="47.68824" lon="-2.74268">
        <ele>49</ele>
        <time>2013-05-02T12:54:25Z</time>
      </trkpt>
      <trkpt lat="47.68824" lon="-2.74264">
        <ele>49</ele>
        <time>2013-05-02T12:54:26Z</time>
      </trkpt>
      <trkpt lat="47.68824" lon="-2.7426">
        <ele>49</ele>
        <time>2013-05-02T12:54:27Z</time>
      </trkpt>
      <trkpt lat="47.68824" lon="-2.74256">
        <ele>49</ele>
        <time>2013-05-02T12:54:28Z</time>
      </trkpt>
      <trkpt lat="47.68824" lon="-2.74251">
        <ele>49</ele>
        <time>2013-05-02T12:54:29Z</time>
      </trkpt>
      <trkpt lat="47.68824" lon="-2.74247">
        <ele>49</ele>
        <time>2013-05-02T12:54:30Z</time>
      </trkpt>
      <trkpt lat="47.68823" lon="-2.74242">
        <ele>49</ele>
        <time>2013-05-02T12:54:31Z</time>
      </trkpt>
      <trkpt lat="47.68822" lon="-2.74238">
        <ele>49</ele>
        <time>2013-05-02T12:54:32Z</time>
      </trkpt>
      <trkpt lat="47.68821" lon="-2.74234">
        <ele>49</ele>
        <time>2013-05-02T12:54:33Z</time>
      </trkpt>
      <trkpt lat="47.6882" lon="-2.74232">
        <ele>49</ele>
        <time>2013-05-02T12:54:34Z</time>
      </trkpt>
      <trkpt lat="47.68819" lon="-2.74229">
        <ele>49</ele>
        <time>2013-05-02T12:54:35Z</time>
      </trkpt>
      <trkpt lat="47.68818" lon="-2.74227">
        <ele>49</ele>
        <time>2013-05-02T12:54:36Z</time>
      </trkpt>
      <trkpt lat="47.68818" lon="-2.74225">
        <ele>49</ele>
        <time>2013-05-02T12:54:37Z</time>
      </trkpt>
      <trkpt lat="47.68819" lon="-2.74223">
        <ele>49</ele>
        <time>2013-05-02T12:54:39Z</time>
      </trkpt>
      <trkpt lat="47.68821" lon="-2.74223">
        <ele>49</ele>
        <time>2013-05-02T12:54:40Z</time>
      </trkpt>
      <trkpt lat="47.68822" lon="-2.74222">
        <ele>49</ele>
        <time>2013-05-02T12:54:41Z</time>
      </trkpt>
      <trkpt lat="47.68825" lon="-2.74222">
        <ele>49</ele>
        <time>2013-05-02T12:54:42Z</time>
      </trkpt>
      <trkpt lat="47.68827" lon="-2.74221">
        <ele>49</ele>
        <time>2013-05-02T12:54:43Z</time>
      </trkpt>
      <trkpt lat="47.68829" lon="-2.74221">
        <ele>49</ele>
        <time>2013-05-02T12:54:44Z</time>
      </trkpt>
      <trkpt lat="47.6883" lon="-2.7422">
        <ele>49</ele>
        <time>2013-05-02T12:54:45Z</time>
      </trkpt>
      <trkpt lat="47.68832" lon="-2.74217">
        <ele>49</ele>
        <time>2013-05-02T12:54:47Z</time>
      </trkpt>
      <trkpt lat="47.68832" lon="-2.74216">
        <ele>49</ele>
        <time>2013-05-02T12:54:48Z</time>
      </trkpt>
      <trkpt lat="47.68832" lon="-2.74214">
        <ele>49</ele>
        <time>2013-05-02T12:54:50Z</time>
      </trkpt>
      <trkpt lat="47.68832" lon="-2.74212">
        <ele>49</ele>
        <time>2013-05-02T12:54:53Z</time>
      </trkpt>
      <trkpt lat="47.68832" lon="-2.7421">
        <ele>49</ele>
        <time>2013-05-02T12:54:54Z</time>
      </trkpt>
      <trkpt lat="47.68832" lon="-2.74209">
        <ele>49</ele>
        <time>2013-05-02T12:54:55Z</time>
      </trkpt>
      <trkpt lat="47.68832" lon="-2.74207">
        <ele>49</ele>
        <time>2013-05-02T12:54:56Z</time>
      </trkpt>
      <trkpt lat="47.68833" lon="-2.74205">
        <ele>49</ele>
        <time>2013-05-02T12:54:58Z</time>
      </trkpt>
      <trkpt lat="47.68833" lon="-2.74203">
        <ele>50</ele>
        <time>2013-05-02T12:55:00Z</time>
      </trkpt>
      <trkpt lat="47.68835" lon="-2.74202">
        <ele>50</ele>
        <time>2013-05-02T12:55:03Z</time>
      </trkpt>
      <trkpt lat="47.68834" lon="-2.742">
        <ele>50</ele>
        <time>2013-05-02T12:55:05Z</time>
      </trkpt>
      <trkpt lat="47.68834" lon="-2.74198">
        <ele>51</ele>
        <time>2013-05-02T12:55:06Z</time>
      </trkpt>
      <trkpt lat="47.68835" lon="-2.74197">
        <ele>51</ele>
        <time>2013-05-02T12:55:07Z</time>
      </trkpt>
      <trkpt lat="47.68835" lon="-2.74195">
        <ele>51</ele>
        <time>2013-05-02T12:55:08Z</time>
      </trkpt>
      <trkpt lat="47.68836" lon="-2.74193">
        <ele>52</ele>
        <time>2013-05-02T12:55:09Z</time>
      </trkpt>
      <trkpt lat="47.68837" lon="-2.74189">
        <ele>52</ele>
        <time>2013-05-02T12:55:10Z</time>
      </trkpt>
      <trkpt lat="47.68838" lon="-2.74186">
        <ele>52</ele>
        <time>2013-05-02T12:55:11Z</time>
      </trkpt>
      <trkpt lat="47.68839" lon="-2.74184">
        <ele>52</ele>
        <time>2013-05-02T12:55:12Z</time>
      </trkpt>
      <trkpt lat="47.68839" lon="-2.74181">
        <ele>52</ele>
        <time>2013-05-02T12:55:13Z</time>
      </trkpt>
      <trkpt lat="47.68839" lon="-2.74177">
        <ele>52</ele>
        <time>2013-05-02T12:55:14Z</time>
      </trkpt>
      <trkpt lat="47.68839" lon="-2.74174">
        <ele>53</ele>
        <time>2013-05-02T12:55:15Z</time>
      </trkpt>
      <trkpt lat="47.6884" lon="-2.74171">
        <ele>53</ele>
        <time>2013-05-02T12:55:16Z</time>
      </trkpt>
      <trkpt lat="47.68842" lon="-2.74168">
        <ele>53</ele>
        <time>2013-05-02T12:55:17Z</time>
      </trkpt>
      <trkpt lat="47.68843" lon="-2.74165">
        <ele>53</ele>
        <time>2013-05-02T12:55:18Z</time>
      </trkpt>
      <trkpt lat="47.68844" lon="-2.74163">
        <ele>53</ele>
        <time>2013-05-02T12:55:19Z</time>
      </trkpt>
      <trkpt lat="47.68845" lon="-2.74161">
        <ele>53</ele>
        <time>2013-05-02T12:55:20Z</time>
      </trkpt>
      <trkpt lat="47.68846" lon="-2.74158">
        <ele>53</ele>
        <time>2013-05-02T12:55:21Z</time>
      </trkpt>
      <trkpt lat="47.68847" lon="-2.74156">
        <ele>53</ele>
        <time>2013-05-02T12:55:22Z</time>
      </trkpt>
      <trkpt lat="47.68848" lon="-2.74154">
        <ele>53</ele>
        <time>2013-05-02T12:55:24Z</time>
      </trkpt>
      <trkpt lat="47.68851" lon="-2.74151">
        <ele>53</ele>
        <time>2013-05-02T12:55:26Z</time>
      </trkpt>
      <trkpt lat="47.68851" lon="-2.74148">
        <ele>53</ele>
        <time>2013-05-02T12:55:27Z</time>
      </trkpt>
      <trkpt lat="47.6885" lon="-2.74146">
        <ele>53</ele>
        <time>2013-05-02T12:55:28Z</time>
      </trkpt>
      <trkpt lat="47.6885" lon="-2.74143">
        <ele>53</ele>
        <time>2013-05-02T12:55:29Z</time>
      </trkpt>
      <trkpt lat="47.6885" lon="-2.7414">
        <ele>53</ele>
        <time>2013-05-02T12:55:30Z</time>
      </trkpt>
      <trkpt lat="47.68849" lon="-2.74138">
        <ele>53</ele>
        <time>2013-05-02T12:55:31Z</time>
      </trkpt>
      <trkpt lat="47.68848" lon="-2.74135">
        <ele>53</ele>
        <time>2013-05-02T12:55:32Z</time>
      </trkpt>
      <trkpt lat="47.68848" lon="-2.74132">
        <ele>53</ele>
        <time>2013-05-02T12:55:33Z</time>
      </trkpt>
      <trkpt lat="47.68847" lon="-2.74129">
        <ele>53</ele>
        <time>2013-05-02T12:55:34Z</time>
      </trkpt>
      <trkpt lat="47.68845" lon="-2.74126">
        <ele>53</ele>
        <time>2013-05-02T12:55:35Z</time>
      </trkpt>
      <trkpt lat="47.68843" lon="-2.74122">
        <ele>53</ele>
        <time>2013-05-02T12:55:36Z</time>
      </trkpt>
      <trkpt lat="47.68841" lon="-2.74118">
        <ele>53</ele>
        <time>2013-05-02T12:55:37Z</time>
      </trkpt>
      <trkpt lat="47.6884" lon="-2.74114">
        <ele>53</ele>
        <time>2013-05-02T12:55:38Z</time>
      </trkpt>
      <trkpt lat="47.68838" lon="-2.7411">
        <ele>53</ele>
        <time>2013-05-02T12:55:39Z</time>
      </trkpt>
      <trkpt lat="47.68836" lon="-2.74106">
        <ele>53</ele>
        <time>2013-05-02T12:55:40Z</time>
      </trkpt>
      <trkpt lat="47.68834" lon="-2.74102">
        <ele>53</ele>
        <time>2013-05-02T12:55:41Z</time>
      </trkpt>
      <trkpt lat="47.68832" lon="-2.74099">
        <ele>53</ele>
        <time>2013-05-02T12:55:42Z</time>
      </trkpt>
      <trkpt lat="47.6883" lon="-2.74095">
        <ele>53</ele>
        <time>2013-05-02T12:55:43Z</time>
      </trkpt>
      <trkpt lat="47.68829" lon="-2.74091">
        <ele>53</ele>
        <time>2013-05-02T12:55:44Z</time>
      </trkpt>
      <trkpt lat="47.68827" lon="-2.74087">
        <ele>53</ele>
        <time>2013-05-02T12:55:45Z</time>
      </trkpt>
      <trkpt lat="47.68824" lon="-2.74083">
        <ele>53</ele>
        <time>2013-05-02T12:55:46Z</time>
      </trkpt>
      <trkpt lat="47.68822" lon="-2.7408">
        <ele>53</ele>
        <time>2013-05-02T12:55:47Z</time>
      </trkpt>
      <trkpt lat="47.68819" lon="-2.74078">
        <ele>53</ele>
        <time>2013-05-02T12:55:48Z</time>
      </trkpt>
      <trkpt lat="47.68815" lon="-2.74077">
        <ele>53</ele>
        <time>2013-05-02T12:55:49Z</time>
      </trkpt>
      <trkpt lat="47.68811" lon="-2.74076">
        <ele>53</ele>
        <time>2013-05-02T12:55:50Z</time>
      </trkpt>
      <trkpt lat="47.68807" lon="-2.74077">
        <ele>53</ele>
        <time>2013-05-02T12:55:51Z</time>
      </trkpt>
      <trkpt lat="47.68803" lon="-2.74077">
        <ele>53</ele>
        <time>2013-05-02T12:55:52Z</time>
      </trkpt>
      <trkpt lat="47.68799" lon="-2.74075">
        <ele>53</ele>
        <time>2013-05-02T12:55:53Z</time>
      </trkpt>
      <trkpt lat="47.68797" lon="-2.7407">
        <ele>52</ele>
        <time>2013-05-02T12:55:54Z</time>
      </trkpt>
      <trkpt lat="47.68796" lon="-2.74064">
        <ele>52</ele>
        <time>2013-05-02T12:55:55Z</time>
      </trkpt>
      <trkpt lat="47.68796" lon="-2.74059">
        <ele>52</ele>
        <time>2013-05-02T12:55:56Z</time>
      </trkpt>
      <trkpt lat="47.68798" lon="-2.74054">
        <ele>52</ele>
        <time>2013-05-02T12:55:57Z</time>
      </trkpt>
      <trkpt lat="47.68798" lon="-2.74048">
        <ele>51</ele>
        <time>2013-05-02T12:55:58Z</time>
      </trkpt>
      <trkpt lat="47.68798" lon="-2.74042">
        <ele>51</ele>
        <time>2013-05-02T12:55:59Z</time>
      </trkpt>
      <trkpt lat="47.68798" lon="-2.74036">
        <ele>51</ele>
        <time>2013-05-02T12:56:00Z</time>
      </trkpt>
      <trkpt lat="47.68797" lon="-2.74029">
        <ele>51</ele>
        <time>2013-05-02T12:56:01Z</time>
      </trkpt>
      <trkpt lat="47.68795" lon="-2.74022">
        <ele>51</ele>
        <time>2013-05-02T12:56:02Z</time>
      </trkpt>
      <trkpt lat="47.68794" lon="-2.74015">
        <ele>51</ele>
        <time>2013-05-02T12:56:03Z</time>
      </trkpt>
      <trkpt lat="47.68792" lon="-2.74007">
        <ele>51</ele>
        <time>2013-05-02T12:56:04Z</time>
      </trkpt>
      <trkpt lat="47.68791" lon="-2.74">
        <ele>51</ele>
        <time>2013-05-02T12:56:05Z</time>
      </trkpt>
      <trkpt lat="47.68789" lon="-2.73992">
        <ele>51</ele>
        <time>2013-05-02T12:56:06Z</time>
      </trkpt>
      <trkpt lat="47.68788" lon="-2.73985">
        <ele>51</ele>
        <time>2013-05-02T12:56:07Z</time>
      </trkpt>
      <trkpt lat="47.68787" lon="-2.73977">
        <ele>51</ele>
        <time>2013-05-02T12:56:08Z</time>
      </trkpt>
      <trkpt lat="47.68786" lon="-2.73969">
        <ele>51</ele>
        <time>2013-05-02T12:56:09Z</time>
      </trkpt>
      <trkpt lat="47.68785" lon="-2.73961">
        <ele>50</ele>
        <time>2013-05-02T12:56:10Z</time>
      </trkpt>
      <trkpt lat="47.68784" lon="-2.73953">
        <ele>50</ele>
        <time>2013-05-02T12:56:11Z</time>
      </trkpt>
      <trkpt lat="47.68782" lon="-2.73946">
        <ele>50</ele>
        <time>2013-05-02T12:56:12Z</time>
      </trkpt>
      <trkpt lat="47.68781" lon="-2.73938">
        <ele>50</ele>
        <time>2013-05-02T12:56:13Z</time>
      </trkpt>
      <trkpt lat="47.68779" lon="-2.73932">
        <ele>50</ele>
        <time>2013-05-02T12:56:14Z</time>
      </trkpt>
      <trkpt lat="47.68777" lon="-2.73925">
        <ele>50</ele>
        <time>2013-05-02T12:56:15Z</time>
      </trkpt>
      <trkpt lat="47.68776" lon="-2.73918">
        <ele>50</ele>
        <time>2013-05-02T12:56:16Z</time>
      </trkpt>
      <trkpt lat="47.68775" lon="-2.73912">
        <ele>50</ele>
        <time>2013-05-02T12:56:17Z</time>
      </trkpt>
      <trkpt lat="47.68774" lon="-2.73906">
        <ele>50</ele>
        <time>2013-05-02T12:56:18Z</time>
      </trkpt>
      <trkpt lat="47.68772" lon="-2.73901">
        <ele>50</ele>
        <time>2013-05-02T12:56:19Z</time>
      </trkpt>
      <trkpt lat="47.68771" lon="-2.73897">
        <ele>50</ele>
        <time>2013-05-02T12:56:20Z</time>
      </trkpt>
      <trkpt lat="47.68769" lon="-2.73893">
        <ele>50</ele>
        <time>2013-05-02T12:56:21Z</time>
      </trkpt>
      <trkpt lat="47.68767" lon="-2.7389">
        <ele>50</ele>
        <time>2013-05-02T12:56:22Z</time>
      </trkpt>
      <trkpt lat="47.68764" lon="-2.73888">
        <ele>50</ele>
        <time>2013-05-02T12:56:23Z</time>
      </trkpt>
      <trkpt lat="47.68761" lon="-2.73887">
        <ele>50</ele>
        <time>2013-05-02T12:56:24Z</time>
      </trkpt>
      <trkpt lat="47.68758" lon="-2.73887">
        <ele>50</ele>
        <time>2013-05-02T12:56:25Z</time>
      </trkpt>
      <trkpt lat="47.68756" lon="-2.73887">
        <ele>50</ele>
        <time>2013-05-02T12:56:26Z</time>
      </trkpt>
      <trkpt lat="47.68753" lon="-2.73886">
        <ele>50</ele>
        <time>2013-05-02T12:56:27Z</time>
      </trkpt>
      <trkpt lat="47.68751" lon="-2.73886">
        <ele>50</ele>
        <time>2013-05-02T12:56:28Z</time>
      </trkpt>
      <trkpt lat="47.68748" lon="-2.73886">
        <ele>50</ele>
        <time>2013-05-02T12:56:29Z</time>
      </trkpt>
      <trkpt lat="47.68747" lon="-2.73883">
        <ele>50</ele>
        <time>2013-05-02T12:56:30Z</time>
      </trkpt>
      <trkpt lat="47.68747" lon="-2.7388">
        <ele>50</ele>
        <time>2013-05-02T12:56:31Z</time>
      </trkpt>
      <trkpt lat="47.68748" lon="-2.73877">
        <ele>50</ele>
        <time>2013-05-02T12:56:32Z</time>
      </trkpt>
      <trkpt lat="47.68749" lon="-2.73873">
        <ele>50</ele>
        <time>2013-05-02T12:56:33Z</time>
      </trkpt>
      <trkpt lat="47.68747" lon="-2.73869">
        <ele>50</ele>
        <time>2013-05-02T12:56:34Z</time>
      </trkpt>
      <trkpt lat="47.68745" lon="-2.73865">
        <ele>50</ele>
        <time>2013-05-02T12:56:35Z</time>
      </trkpt>
      <trkpt lat="47.68744" lon="-2.7386">
        <ele>50</ele>
        <time>2013-05-02T12:56:36Z</time>
      </trkpt>
      <trkpt lat="47.68741" lon="-2.73856">
        <ele>50</ele>
        <time>2013-05-02T12:56:37Z</time>
      </trkpt>
      <trkpt lat="47.68739" lon="-2.73851">
        <ele>50</ele>
        <time>2013-05-02T12:56:38Z</time>
      </trkpt>
      <trkpt lat="47.68737" lon="-2.73847">
        <ele>50</ele>
        <time>2013-05-02T12:56:39Z</time>
      </trkpt>
      <trkpt lat="47.68735" lon="-2.73842">
        <ele>50</ele>
        <time>2013-05-02T12:56:40Z</time>
      </trkpt>
      <trkpt lat="47.68733" lon="-2.73838">
        <ele>50</ele>
        <time>2013-05-02T12:56:41Z</time>
      </trkpt>
      <trkpt lat="47.68731" lon="-2.73834">
        <ele>50</ele>
        <time>2013-05-02T12:56:42Z</time>
      </trkpt>
      <trkpt lat="47.68729" lon="-2.7383">
        <ele>50</ele>
        <time>2013-05-02T12:56:43Z</time>
      </trkpt>
      <trkpt lat="47.68726" lon="-2.73825">
        <ele>50</ele>
        <time>2013-05-02T12:56:44Z</time>
      </trkpt>
      <trkpt lat="47.68724" lon="-2.73821">
        <ele>50</ele>
        <time>2013-05-02T12:56:45Z</time>
      </trkpt>
      <trkpt lat="47.68721" lon="-2.73817">
        <ele>50</ele>
        <time>2013-05-02T12:56:46Z</time>
      </trkpt>
      <trkpt lat="47.68719" lon="-2.73813">
        <ele>50</ele>
        <time>2013-05-02T12:56:47Z</time>
      </trkpt>
      <trkpt lat="47.68717" lon="-2.73808">
        <ele>50</ele>
        <time>2013-05-02T12:56:48Z</time>
      </trkpt>
      <trkpt lat="47.68715" lon="-2.73804">
        <ele>50</ele>
        <time>2013-05-02T12:56:49Z</time>
      </trkpt>
      <trkpt lat="47.68713" lon="-2.738">
        <ele>50</ele>
        <time>2013-05-02T12:56:50Z</time>
      </trkpt>
      <trkpt lat="47.68712" lon="-2.73796">
        <ele>50</ele>
        <time>2013-05-02T12:56:51Z</time>
      </trkpt>
      <trkpt lat="47.6871" lon="-2.73793">
        <ele>50</ele>
        <time>2013-05-02T12:56:52Z</time>
      </trkpt>
      <trkpt lat="47.6871" lon="-2.7379">
        <ele>50</ele>
        <time>2013-05-02T12:56:53Z</time>
      </trkpt>
      <trkpt lat="47.6871" lon="-2.73786">
        <ele>50</ele>
        <time>2013-05-02T12:56:54Z</time>
      </trkpt>
      <trkpt lat="47.6871" lon="-2.73783">
        <ele>50</ele>
        <time>2013-05-02T12:56:55Z</time>
      </trkpt>
      <trkpt lat="47.68712" lon="-2.73781">
        <ele>50</ele>
        <time>2013-05-02T12:56:56Z</time>
      </trkpt>
      <trkpt lat="47.68714" lon="-2.73779">
        <ele>50</ele>
        <time>2013-05-02T12:56:57Z</time>
      </trkpt>
      <trkpt lat="47.68716" lon="-2.73776">
        <ele>50</ele>
        <time>2013-05-02T12:56:58Z</time>
      </trkpt>
      <trkpt lat="47.68717" lon="-2.73773">
        <ele>50</ele>
        <time>2013-05-02T12:56:59Z</time>
      </trkpt>
      <trkpt lat="47.68718" lon="-2.73771">
        <ele>50</ele>
        <time>2013-05-02T12:57:00Z</time>
      </trkpt>
      <trkpt lat="47.68718" lon="-2.73768">
        <ele>50</ele>
        <time>2013-05-02T12:57:01Z</time>
      </trkpt>
      <trkpt lat="47.68719" lon="-2.73765">
        <ele>50</ele>
        <time>2013-05-02T12:57:02Z</time>
      </trkpt>
      <trkpt lat="47.6872" lon="-2.73763">
        <ele>50</ele>
        <time>2013-05-02T12:57:03Z</time>
      </trkpt>
      <trkpt lat="47.6872" lon="-2.73761">
        <ele>50</ele>
        <time>2013-05-02T12:57:04Z</time>
      </trkpt>
      <trkpt lat="47.6872" lon="-2.73759">
        <ele>50</ele>
        <time>2013-05-02T12:57:05Z</time>
      </trkpt>
      <trkpt lat="47.68719" lon="-2.73757">
        <ele>50</ele>
        <time>2013-05-02T12:57:07Z</time>
      </trkpt>
      <trkpt lat="47.68719" lon="-2.73756">
        <ele>50</ele>
        <time>2013-05-02T12:57:10Z</time>
      </trkpt>
    </trkseg>
  </trk>
</gpx>